<?xml version="1.0" encoding="UTF-8"?>
<gpx
version="1.0"
creator="Polar ProTrainer 5 - www.polar.fi"
xmlns:xsi="http://www.w3.org/2001/XMLSchema-instance"
xmlns="http://www.topografix.com/GPX/1/0"
xsi:schemaLocation="http://www.topografix.com/GPX/1/0 http://www.topografix.com/GPX/1/0/gpx.xsd">
<time>2013-04-01T07:16:45Z</time>
<trk>
<trkseg>
<trkpt lat="31.740048333" lon="34.973286667">
<time>2013-04-01T07:16:45Z</time>
 <fix>none</fix>
 <sat>0</sat>
</trkpt>
<trkpt lat="31.740031667" lon="34.973263333">
<time>2013-04-01T07:16:47Z</time>
 <fix>none</fix>
 <sat>0</sat>
</trkpt>
<trkpt lat="31.740046667" lon="34.973233333">
<time>2013-04-01T07:16:49Z</time>
 <fix>none</fix>
 <sat>0</sat>
</trkpt>
<trkpt lat="31.740040000" lon="34.973226667">
<time>2013-04-01T07:16:51Z</time>
 <fix>none</fix>
 <sat>0</sat>
</trkpt>
<trkpt lat="31.740015000" lon="34.973233333">
<time>2013-04-01T07:16:53Z</time>
 <fix>none</fix>
 <sat>0</sat>
</trkpt>
<trkpt lat="31.739978333" lon="34.973230000">
<time>2013-04-01T07:16:55Z</time>
 <fix>none</fix>
 <sat>0</sat>
</trkpt>
<trkpt lat="31.739931667" lon="34.973238333">
<time>2013-04-01T07:16:57Z</time>
 <fix>none</fix>
 <sat>0</sat>
</trkpt>
<trkpt lat="31.739926667" lon="34.973235000">
<time>2013-04-01T07:16:59Z</time>
 <fix>none</fix>
 <sat>0</sat>
</trkpt>
<trkpt lat="31.739921667" lon="34.973210000">
<time>2013-04-01T07:17:01Z</time>
 <fix>none</fix>
 <sat>0</sat>
</trkpt>
<trkpt lat="31.739883333" lon="34.973178333">
<time>2013-04-01T07:17:03Z</time>
 <fix>none</fix>
 <sat>0</sat>
</trkpt>
<trkpt lat="31.739831667" lon="34.973170000">
<time>2013-04-01T07:17:05Z</time>
 <fix>none</fix>
 <sat>0</sat>
</trkpt>
<trkpt lat="31.739778333" lon="34.973171667">
<time>2013-04-01T07:17:07Z</time>
 <fix>none</fix>
 <sat>0</sat>
</trkpt>
<trkpt lat="31.739725000" lon="34.973171667">
<time>2013-04-01T07:17:09Z</time>
 <fix>none</fix>
 <sat>0</sat>
</trkpt>
<trkpt lat="31.739676667" lon="34.973180000">
<time>2013-04-01T07:17:11Z</time>
 <fix>none</fix>
 <sat>0</sat>
</trkpt>
<trkpt lat="31.739625000" lon="34.973181667">
<time>2013-04-01T07:17:13Z</time>
 <fix>none</fix>
 <sat>0</sat>
</trkpt>
<trkpt lat="31.739600000" lon="34.973183333">
<time>2013-04-01T07:17:15Z</time>
 <fix>none</fix>
 <sat>0</sat>
</trkpt>
<trkpt lat="31.739546667" lon="34.973175000">
<time>2013-04-01T07:17:17Z</time>
 <fix>none</fix>
 <sat>0</sat>
</trkpt>
<trkpt lat="31.739493333" lon="34.973166667">
<time>2013-04-01T07:17:19Z</time>
 <fix>none</fix>
 <sat>0</sat>
</trkpt>
<trkpt lat="31.739435000" lon="34.973158333">
<time>2013-04-01T07:17:21Z</time>
 <fix>none</fix>
 <sat>0</sat>
</trkpt>
<trkpt lat="31.739346667" lon="34.973148333">
<time>2013-04-01T07:17:23Z</time>
 <fix>none</fix>
 <sat>0</sat>
</trkpt>
<trkpt lat="31.739290000" lon="34.973141667">
<time>2013-04-01T07:17:25Z</time>
 <fix>none</fix>
 <sat>0</sat>
</trkpt>
<trkpt lat="31.739235000" lon="34.973138333">
<time>2013-04-01T07:17:27Z</time>
 <fix>none</fix>
 <sat>0</sat>
</trkpt>
<trkpt lat="31.739175000" lon="34.973143333">
<time>2013-04-01T07:17:29Z</time>
 <fix>none</fix>
 <sat>0</sat>
</trkpt>
<trkpt lat="31.739115000" lon="34.973141667">
<time>2013-04-01T07:17:31Z</time>
 <fix>none</fix>
 <sat>0</sat>
</trkpt>
<trkpt lat="31.739058333" lon="34.973131667">
<time>2013-04-01T07:17:33Z</time>
 <fix>none</fix>
 <sat>0</sat>
</trkpt>
<trkpt lat="31.739003333" lon="34.973123333">
<time>2013-04-01T07:17:35Z</time>
 <fix>none</fix>
 <sat>0</sat>
</trkpt>
<trkpt lat="31.738976667" lon="34.973121667">
<time>2013-04-01T07:17:37Z</time>
 <fix>none</fix>
 <sat>0</sat>
</trkpt>
<trkpt lat="31.738923333" lon="34.973120000">
<time>2013-04-01T07:17:39Z</time>
 <fix>none</fix>
 <sat>0</sat>
</trkpt>
<trkpt lat="31.738870000" lon="34.973113333">
<time>2013-04-01T07:17:41Z</time>
 <fix>none</fix>
 <sat>0</sat>
</trkpt>
<trkpt lat="31.738816667" lon="34.973105000">
<time>2013-04-01T07:17:43Z</time>
 <fix>none</fix>
 <sat>0</sat>
</trkpt>
<trkpt lat="31.738736667" lon="34.973091667">
<time>2013-04-01T07:17:45Z</time>
 <fix>none</fix>
 <sat>0</sat>
</trkpt>
<trkpt lat="31.738683333" lon="34.973081667">
<time>2013-04-01T07:17:47Z</time>
 <fix>none</fix>
 <sat>0</sat>
</trkpt>
<trkpt lat="31.738626667" lon="34.973071667">
<time>2013-04-01T07:17:49Z</time>
 <fix>none</fix>
 <sat>0</sat>
</trkpt>
<trkpt lat="31.738571667" lon="34.973063333">
<time>2013-04-01T07:17:51Z</time>
 <fix>none</fix>
 <sat>0</sat>
</trkpt>
<trkpt lat="31.738521667" lon="34.973051667">
<time>2013-04-01T07:17:53Z</time>
 <fix>none</fix>
 <sat>0</sat>
</trkpt>
<trkpt lat="31.738470000" lon="34.973043333">
<time>2013-04-01T07:17:55Z</time>
 <fix>none</fix>
 <sat>0</sat>
</trkpt>
<trkpt lat="31.738418333" lon="34.973038333">
<time>2013-04-01T07:17:57Z</time>
 <fix>none</fix>
 <sat>0</sat>
</trkpt>
<trkpt lat="31.738393333" lon="34.973035000">
<time>2013-04-01T07:17:59Z</time>
 <fix>none</fix>
 <sat>0</sat>
</trkpt>
<trkpt lat="31.738345000" lon="34.973026667">
<time>2013-04-01T07:18:01Z</time>
 <fix>none</fix>
 <sat>0</sat>
</trkpt>
<trkpt lat="31.738295000" lon="34.973021667">
<time>2013-04-01T07:18:03Z</time>
 <fix>none</fix>
 <sat>0</sat>
</trkpt>
<trkpt lat="31.738270000" lon="34.973020000">
<time>2013-04-01T07:18:05Z</time>
 <fix>none</fix>
 <sat>0</sat>
</trkpt>
<trkpt lat="31.738163333" lon="34.973005000">
<time>2013-04-01T07:18:07Z</time>
 <fix>none</fix>
 <sat>0</sat>
</trkpt>
<trkpt lat="31.738110000" lon="34.972996667">
<time>2013-04-01T07:18:09Z</time>
 <fix>none</fix>
 <sat>0</sat>
</trkpt>
<trkpt lat="31.738063333" lon="34.972990000">
<time>2013-04-01T07:18:11Z</time>
 <fix>none</fix>
 <sat>0</sat>
</trkpt>
<trkpt lat="31.738011667" lon="34.972976667">
<time>2013-04-01T07:18:13Z</time>
 <fix>none</fix>
 <sat>0</sat>
</trkpt>
<trkpt lat="31.737965000" lon="34.972968333">
<time>2013-04-01T07:18:15Z</time>
 <fix>none</fix>
 <sat>0</sat>
</trkpt>
<trkpt lat="31.737915000" lon="34.972960000">
<time>2013-04-01T07:18:17Z</time>
 <fix>none</fix>
 <sat>0</sat>
</trkpt>
<trkpt lat="31.737863333" lon="34.972951667">
<time>2013-04-01T07:18:19Z</time>
 <fix>none</fix>
 <sat>0</sat>
</trkpt>
<trkpt lat="31.737813333" lon="34.972948333">
<time>2013-04-01T07:18:21Z</time>
 <fix>none</fix>
 <sat>0</sat>
</trkpt>
<trkpt lat="31.737790000" lon="34.972946667">
<time>2013-04-01T07:18:23Z</time>
 <fix>none</fix>
 <sat>0</sat>
</trkpt>
<trkpt lat="31.737738333" lon="34.972936667">
<time>2013-04-01T07:18:25Z</time>
 <fix>none</fix>
 <sat>0</sat>
</trkpt>
<trkpt lat="31.737690000" lon="34.972930000">
<time>2013-04-01T07:18:27Z</time>
 <fix>none</fix>
 <sat>0</sat>
</trkpt>
<trkpt lat="31.737620000" lon="34.972913333">
<time>2013-04-01T07:18:29Z</time>
 <fix>none</fix>
 <sat>0</sat>
</trkpt>
<trkpt lat="31.737570000" lon="34.972905000">
<time>2013-04-01T07:18:31Z</time>
 <fix>none</fix>
 <sat>0</sat>
</trkpt>
<trkpt lat="31.737521667" lon="34.972898333">
<time>2013-04-01T07:18:33Z</time>
 <fix>none</fix>
 <sat>0</sat>
</trkpt>
<trkpt lat="31.737475000" lon="34.972891667">
<time>2013-04-01T07:18:35Z</time>
 <fix>none</fix>
 <sat>0</sat>
</trkpt>
<trkpt lat="31.737423333" lon="34.972881667">
<time>2013-04-01T07:18:37Z</time>
 <fix>none</fix>
 <sat>0</sat>
</trkpt>
<trkpt lat="31.737375000" lon="34.972871667">
<time>2013-04-01T07:18:39Z</time>
 <fix>none</fix>
 <sat>0</sat>
</trkpt>
<trkpt lat="31.737331667" lon="34.972863333">
<time>2013-04-01T07:18:41Z</time>
 <fix>none</fix>
 <sat>0</sat>
</trkpt>
<trkpt lat="31.737288333" lon="34.972855000">
<time>2013-04-01T07:18:43Z</time>
 <fix>none</fix>
 <sat>0</sat>
</trkpt>
<trkpt lat="31.737266667" lon="34.972850000">
<time>2013-04-01T07:18:45Z</time>
 <fix>none</fix>
 <sat>0</sat>
</trkpt>
<trkpt lat="31.737226667" lon="34.972845000">
<time>2013-04-01T07:18:47Z</time>
 <fix>none</fix>
 <sat>0</sat>
</trkpt>
<trkpt lat="31.737188333" lon="34.972840000">
<time>2013-04-01T07:18:49Z</time>
 <fix>none</fix>
 <sat>0</sat>
</trkpt>
<trkpt lat="31.737151667" lon="34.972836667">
<time>2013-04-01T07:18:51Z</time>
 <fix>none</fix>
 <sat>0</sat>
</trkpt>
<trkpt lat="31.737096667" lon="34.972831667">
<time>2013-04-01T07:18:53Z</time>
 <fix>none</fix>
 <sat>0</sat>
</trkpt>
<trkpt lat="31.737060000" lon="34.972825000">
<time>2013-04-01T07:18:55Z</time>
 <fix>none</fix>
 <sat>0</sat>
</trkpt>
<trkpt lat="31.737026667" lon="34.972821667">
<time>2013-04-01T07:18:57Z</time>
 <fix>none</fix>
 <sat>0</sat>
</trkpt>
<trkpt lat="31.736995000" lon="34.972818333">
<time>2013-04-01T07:18:59Z</time>
 <fix>none</fix>
 <sat>0</sat>
</trkpt>
<trkpt lat="31.736963333" lon="34.972816667">
<time>2013-04-01T07:19:01Z</time>
 <fix>none</fix>
 <sat>0</sat>
</trkpt>
<trkpt lat="31.736933333" lon="34.972806667">
<time>2013-04-01T07:19:03Z</time>
 <fix>none</fix>
 <sat>0</sat>
</trkpt>
<trkpt lat="31.736900000" lon="34.972786667">
<time>2013-04-01T07:19:05Z</time>
 <fix>none</fix>
 <sat>0</sat>
</trkpt>
<trkpt lat="31.736870000" lon="34.972771667">
<time>2013-04-01T07:19:07Z</time>
 <fix>none</fix>
 <sat>0</sat>
</trkpt>
<trkpt lat="31.736841667" lon="34.972751667">
<time>2013-04-01T07:19:09Z</time>
 <fix>none</fix>
 <sat>0</sat>
</trkpt>
<trkpt lat="31.736826667" lon="34.972741667">
<time>2013-04-01T07:19:11Z</time>
 <fix>none</fix>
 <sat>0</sat>
</trkpt>
<trkpt lat="31.736800000" lon="34.972716667">
<time>2013-04-01T07:19:13Z</time>
 <fix>none</fix>
 <sat>0</sat>
</trkpt>
<trkpt lat="31.736758333" lon="34.972675000">
<time>2013-04-01T07:19:15Z</time>
 <fix>none</fix>
 <sat>0</sat>
</trkpt>
<trkpt lat="31.736736667" lon="34.972636667">
<time>2013-04-01T07:19:17Z</time>
 <fix>none</fix>
 <sat>0</sat>
</trkpt>
<trkpt lat="31.736718333" lon="34.972598333">
<time>2013-04-01T07:19:19Z</time>
 <fix>none</fix>
 <sat>0</sat>
</trkpt>
<trkpt lat="31.736696667" lon="34.972570000">
<time>2013-04-01T07:19:21Z</time>
 <fix>none</fix>
 <sat>0</sat>
</trkpt>
<trkpt lat="31.736675000" lon="34.972538333">
<time>2013-04-01T07:19:23Z</time>
 <fix>none</fix>
 <sat>0</sat>
</trkpt>
<trkpt lat="31.736651667" lon="34.972511667">
<time>2013-04-01T07:19:25Z</time>
 <fix>none</fix>
 <sat>0</sat>
</trkpt>
<trkpt lat="31.736623333" lon="34.972498333">
<time>2013-04-01T07:19:27Z</time>
 <fix>none</fix>
 <sat>0</sat>
</trkpt>
<trkpt lat="31.736591667" lon="34.972500000">
<time>2013-04-01T07:19:29Z</time>
 <fix>none</fix>
 <sat>0</sat>
</trkpt>
<trkpt lat="31.736578333" lon="34.972505000">
<time>2013-04-01T07:19:31Z</time>
 <fix>none</fix>
 <sat>0</sat>
</trkpt>
<trkpt lat="31.736553333" lon="34.972526667">
<time>2013-04-01T07:19:33Z</time>
 <fix>none</fix>
 <sat>0</sat>
</trkpt>
<trkpt lat="31.736525000" lon="34.972551667">
<time>2013-04-01T07:19:35Z</time>
 <fix>none</fix>
 <sat>0</sat>
</trkpt>
<trkpt lat="31.736481667" lon="34.972576667">
<time>2013-04-01T07:19:37Z</time>
 <fix>none</fix>
 <sat>0</sat>
</trkpt>
<trkpt lat="31.736455000" lon="34.972596667">
<time>2013-04-01T07:19:39Z</time>
 <fix>none</fix>
 <sat>0</sat>
</trkpt>
<trkpt lat="31.736430000" lon="34.972618333">
<time>2013-04-01T07:19:41Z</time>
 <fix>none</fix>
 <sat>0</sat>
</trkpt>
<trkpt lat="31.736401667" lon="34.972641667">
<time>2013-04-01T07:19:43Z</time>
 <fix>none</fix>
 <sat>0</sat>
</trkpt>
<trkpt lat="31.736373333" lon="34.972661667">
<time>2013-04-01T07:19:45Z</time>
 <fix>none</fix>
 <sat>0</sat>
</trkpt>
<trkpt lat="31.736343333" lon="34.972680000">
<time>2013-04-01T07:19:47Z</time>
 <fix>none</fix>
 <sat>0</sat>
</trkpt>
<trkpt lat="31.736313333" lon="34.972691667">
<time>2013-04-01T07:19:49Z</time>
 <fix>none</fix>
 <sat>0</sat>
</trkpt>
<trkpt lat="31.736285000" lon="34.972703333">
<time>2013-04-01T07:19:51Z</time>
 <fix>none</fix>
 <sat>0</sat>
</trkpt>
<trkpt lat="31.736271667" lon="34.972711667">
<time>2013-04-01T07:19:53Z</time>
 <fix>none</fix>
 <sat>0</sat>
</trkpt>
<trkpt lat="31.736241667" lon="34.972725000">
<time>2013-04-01T07:19:55Z</time>
 <fix>none</fix>
 <sat>0</sat>
</trkpt>
<trkpt lat="31.736213333" lon="34.972736667">
<time>2013-04-01T07:19:57Z</time>
 <fix>none</fix>
 <sat>0</sat>
</trkpt>
<trkpt lat="31.736186667" lon="34.972753333">
<time>2013-04-01T07:19:59Z</time>
 <fix>none</fix>
 <sat>0</sat>
</trkpt>
<trkpt lat="31.736155000" lon="34.972761667">
<time>2013-04-01T07:20:01Z</time>
 <fix>none</fix>
 <sat>0</sat>
</trkpt>
<trkpt lat="31.736111667" lon="34.972778333">
<time>2013-04-01T07:20:03Z</time>
 <fix>none</fix>
 <sat>0</sat>
</trkpt>
<trkpt lat="31.736080000" lon="34.972786667">
<time>2013-04-01T07:20:05Z</time>
 <fix>none</fix>
 <sat>0</sat>
</trkpt>
<trkpt lat="31.736053333" lon="34.972803333">
<time>2013-04-01T07:20:07Z</time>
 <fix>none</fix>
 <sat>0</sat>
</trkpt>
<trkpt lat="31.736026667" lon="34.972826667">
<time>2013-04-01T07:20:09Z</time>
 <fix>none</fix>
 <sat>0</sat>
</trkpt>
<trkpt lat="31.736003333" lon="34.972861667">
<time>2013-04-01T07:20:11Z</time>
 <fix>none</fix>
 <sat>0</sat>
</trkpt>
<trkpt lat="31.735983333" lon="34.972888333">
<time>2013-04-01T07:20:13Z</time>
 <fix>none</fix>
 <sat>0</sat>
</trkpt>
<trkpt lat="31.735963333" lon="34.972911667">
<time>2013-04-01T07:20:15Z</time>
 <fix>none</fix>
 <sat>0</sat>
</trkpt>
<trkpt lat="31.735961667" lon="34.972920000">
<time>2013-04-01T07:20:17Z</time>
 <fix>none</fix>
 <sat>0</sat>
</trkpt>
<trkpt lat="31.735961667" lon="34.972923333">
<time>2013-04-01T07:20:19Z</time>
 <fix>none</fix>
 <sat>0</sat>
</trkpt>
<trkpt lat="31.735951667" lon="34.972930000">
<time>2013-04-01T07:20:21Z</time>
 <fix>none</fix>
 <sat>0</sat>
</trkpt>
<trkpt lat="31.735948333" lon="34.972931667">
<time>2013-04-01T07:20:23Z</time>
 <fix>none</fix>
 <sat>0</sat>
</trkpt>
<trkpt lat="31.735935000" lon="34.972950000">
<time>2013-04-01T07:20:25Z</time>
 <fix>none</fix>
 <sat>0</sat>
</trkpt>
<trkpt lat="31.735926667" lon="34.972966667">
<time>2013-04-01T07:20:27Z</time>
 <fix>none</fix>
 <sat>0</sat>
</trkpt>
<trkpt lat="31.735915000" lon="34.972980000">
<time>2013-04-01T07:20:29Z</time>
 <fix>none</fix>
 <sat>0</sat>
</trkpt>
<trkpt lat="31.735900000" lon="34.972996667">
<time>2013-04-01T07:20:31Z</time>
 <fix>none</fix>
 <sat>0</sat>
</trkpt>
<trkpt lat="31.735888333" lon="34.973006667">
<time>2013-04-01T07:20:33Z</time>
 <fix>none</fix>
 <sat>0</sat>
</trkpt>
<trkpt lat="31.735875000" lon="34.973020000">
<time>2013-04-01T07:20:35Z</time>
 <fix>none</fix>
 <sat>0</sat>
</trkpt>
<trkpt lat="31.735863333" lon="34.973031667">
<time>2013-04-01T07:20:37Z</time>
 <fix>none</fix>
 <sat>0</sat>
</trkpt>
<trkpt lat="31.735858333" lon="34.973038333">
<time>2013-04-01T07:20:39Z</time>
 <fix>none</fix>
 <sat>0</sat>
</trkpt>
<trkpt lat="31.735850000" lon="34.973043333">
<time>2013-04-01T07:20:41Z</time>
 <fix>none</fix>
 <sat>0</sat>
</trkpt>
<trkpt lat="31.735826667" lon="34.973045000">
<time>2013-04-01T07:20:43Z</time>
 <fix>none</fix>
 <sat>0</sat>
</trkpt>
<trkpt lat="31.735810000" lon="34.973053333">
<time>2013-04-01T07:20:45Z</time>
 <fix>none</fix>
 <sat>0</sat>
</trkpt>
<trkpt lat="31.735791667" lon="34.973071667">
<time>2013-04-01T07:20:47Z</time>
 <fix>none</fix>
 <sat>0</sat>
</trkpt>
<trkpt lat="31.735781667" lon="34.973081667">
<time>2013-04-01T07:20:49Z</time>
 <fix>none</fix>
 <sat>0</sat>
</trkpt>
<trkpt lat="31.735770000" lon="34.973090000">
<time>2013-04-01T07:20:51Z</time>
 <fix>none</fix>
 <sat>0</sat>
</trkpt>
<trkpt lat="31.735756667" lon="34.973101667">
<time>2013-04-01T07:20:53Z</time>
 <fix>none</fix>
 <sat>0</sat>
</trkpt>
<trkpt lat="31.735745000" lon="34.973111667">
<time>2013-04-01T07:20:55Z</time>
 <fix>none</fix>
 <sat>0</sat>
</trkpt>
<trkpt lat="31.735731667" lon="34.973121667">
<time>2013-04-01T07:20:57Z</time>
 <fix>none</fix>
 <sat>0</sat>
</trkpt>
<trkpt lat="31.735718333" lon="34.973130000">
<time>2013-04-01T07:20:59Z</time>
 <fix>none</fix>
 <sat>0</sat>
</trkpt>
<trkpt lat="31.735705000" lon="34.973138333">
<time>2013-04-01T07:21:01Z</time>
 <fix>none</fix>
 <sat>0</sat>
</trkpt>
<trkpt lat="31.735698333" lon="34.973143333">
<time>2013-04-01T07:21:03Z</time>
 <fix>none</fix>
 <sat>0</sat>
</trkpt>
<trkpt lat="31.735688333" lon="34.973161667">
<time>2013-04-01T07:21:05Z</time>
 <fix>none</fix>
 <sat>0</sat>
</trkpt>
<trkpt lat="31.735676667" lon="34.973178333">
<time>2013-04-01T07:21:07Z</time>
 <fix>none</fix>
 <sat>0</sat>
</trkpt>
<trkpt lat="31.735665000" lon="34.973190000">
<time>2013-04-01T07:21:09Z</time>
 <fix>none</fix>
 <sat>0</sat>
</trkpt>
<trkpt lat="31.735653333" lon="34.973203333">
<time>2013-04-01T07:21:11Z</time>
 <fix>none</fix>
 <sat>0</sat>
</trkpt>
<trkpt lat="31.735650000" lon="34.973210000">
<time>2013-04-01T07:21:13Z</time>
 <fix>none</fix>
 <sat>0</sat>
</trkpt>
<trkpt lat="31.735653333" lon="34.973210000">
<time>2013-04-01T07:21:15Z</time>
 <fix>none</fix>
 <sat>0</sat>
</trkpt>
<trkpt lat="31.735650000" lon="34.973210000">
<time>2013-04-01T07:21:17Z</time>
 <fix>none</fix>
 <sat>0</sat>
</trkpt>
<trkpt lat="31.735648333" lon="34.973210000">
<time>2013-04-01T07:21:19Z</time>
 <fix>none</fix>
 <sat>0</sat>
</trkpt>
<trkpt lat="31.735643333" lon="34.973211667">
<time>2013-04-01T07:21:21Z</time>
 <fix>none</fix>
 <sat>0</sat>
</trkpt>
<trkpt lat="31.735638333" lon="34.973215000">
<time>2013-04-01T07:21:23Z</time>
 <fix>none</fix>
 <sat>0</sat>
</trkpt>
<trkpt lat="31.735630000" lon="34.973216667">
<time>2013-04-01T07:21:25Z</time>
 <fix>none</fix>
 <sat>0</sat>
</trkpt>
<trkpt lat="31.735608333" lon="34.973230000">
<time>2013-04-01T07:21:27Z</time>
 <fix>none</fix>
 <sat>0</sat>
</trkpt>
<trkpt lat="31.735581667" lon="34.973243333">
<time>2013-04-01T07:21:29Z</time>
 <fix>none</fix>
 <sat>0</sat>
</trkpt>
<trkpt lat="31.735538333" lon="34.973256667">
<time>2013-04-01T07:21:31Z</time>
 <fix>none</fix>
 <sat>0</sat>
</trkpt>
<trkpt lat="31.735510000" lon="34.973268333">
<time>2013-04-01T07:21:33Z</time>
 <fix>none</fix>
 <sat>0</sat>
</trkpt>
<trkpt lat="31.735483333" lon="34.973275000">
<time>2013-04-01T07:21:35Z</time>
 <fix>none</fix>
 <sat>0</sat>
</trkpt>
<trkpt lat="31.735455000" lon="34.973283333">
<time>2013-04-01T07:21:37Z</time>
 <fix>none</fix>
 <sat>0</sat>
</trkpt>
<trkpt lat="31.735426667" lon="34.973288333">
<time>2013-04-01T07:21:39Z</time>
 <fix>none</fix>
 <sat>0</sat>
</trkpt>
<trkpt lat="31.735396667" lon="34.973293333">
<time>2013-04-01T07:21:41Z</time>
 <fix>none</fix>
 <sat>0</sat>
</trkpt>
<trkpt lat="31.735368333" lon="34.973296667">
<time>2013-04-01T07:21:43Z</time>
 <fix>none</fix>
 <sat>0</sat>
</trkpt>
<trkpt lat="31.735341667" lon="34.973303333">
<time>2013-04-01T07:21:45Z</time>
 <fix>none</fix>
 <sat>0</sat>
</trkpt>
<trkpt lat="31.735326667" lon="34.973306667">
<time>2013-04-01T07:21:47Z</time>
 <fix>none</fix>
 <sat>0</sat>
</trkpt>
<trkpt lat="31.735295000" lon="34.973316667">
<time>2013-04-01T07:21:49Z</time>
 <fix>none</fix>
 <sat>0</sat>
</trkpt>
<trkpt lat="31.735266667" lon="34.973325000">
<time>2013-04-01T07:21:51Z</time>
 <fix>none</fix>
 <sat>0</sat>
</trkpt>
<trkpt lat="31.735236667" lon="34.973335000">
<time>2013-04-01T07:21:53Z</time>
 <fix>none</fix>
 <sat>0</sat>
</trkpt>
<trkpt lat="31.735206667" lon="34.973345000">
<time>2013-04-01T07:21:55Z</time>
 <fix>none</fix>
 <sat>0</sat>
</trkpt>
<trkpt lat="31.735163333" lon="34.973365000">
<time>2013-04-01T07:21:57Z</time>
 <fix>none</fix>
 <sat>0</sat>
</trkpt>
<trkpt lat="31.735136667" lon="34.973380000">
<time>2013-04-01T07:21:59Z</time>
 <fix>none</fix>
 <sat>0</sat>
</trkpt>
<trkpt lat="31.735106667" lon="34.973386667">
<time>2013-04-01T07:22:01Z</time>
 <fix>none</fix>
 <sat>0</sat>
</trkpt>
<trkpt lat="31.735080000" lon="34.973398333">
<time>2013-04-01T07:22:03Z</time>
 <fix>none</fix>
 <sat>0</sat>
</trkpt>
<trkpt lat="31.735051667" lon="34.973408333">
<time>2013-04-01T07:22:05Z</time>
 <fix>none</fix>
 <sat>0</sat>
</trkpt>
<trkpt lat="31.735023333" lon="34.973418333">
<time>2013-04-01T07:22:07Z</time>
 <fix>none</fix>
 <sat>0</sat>
</trkpt>
<trkpt lat="31.734993333" lon="34.973423333">
<time>2013-04-01T07:22:09Z</time>
 <fix>none</fix>
 <sat>0</sat>
</trkpt>
<trkpt lat="31.734976667" lon="34.973426667">
<time>2013-04-01T07:22:11Z</time>
 <fix>none</fix>
 <sat>0</sat>
</trkpt>
<trkpt lat="31.734946667" lon="34.973430000">
<time>2013-04-01T07:22:13Z</time>
 <fix>none</fix>
 <sat>0</sat>
</trkpt>
<trkpt lat="31.734918333" lon="34.973438333">
<time>2013-04-01T07:22:15Z</time>
 <fix>none</fix>
 <sat>0</sat>
</trkpt>
<trkpt lat="31.734876667" lon="34.973448333">
<time>2013-04-01T07:22:17Z</time>
 <fix>none</fix>
 <sat>0</sat>
</trkpt>
<trkpt lat="31.734848333" lon="34.973455000">
<time>2013-04-01T07:22:19Z</time>
 <fix>none</fix>
 <sat>0</sat>
</trkpt>
<trkpt lat="31.734820000" lon="34.973455000">
<time>2013-04-01T07:22:21Z</time>
 <fix>none</fix>
 <sat>0</sat>
</trkpt>
<trkpt lat="31.734791667" lon="34.973463333">
<time>2013-04-01T07:22:23Z</time>
 <fix>none</fix>
 <sat>0</sat>
</trkpt>
<trkpt lat="31.734766667" lon="34.973478333">
<time>2013-04-01T07:22:25Z</time>
 <fix>none</fix>
 <sat>0</sat>
</trkpt>
<trkpt lat="31.734745000" lon="34.973510000">
<time>2013-04-01T07:22:27Z</time>
 <fix>none</fix>
 <sat>0</sat>
</trkpt>
<trkpt lat="31.734720000" lon="34.973538333">
<time>2013-04-01T07:22:29Z</time>
 <fix>none</fix>
 <sat>0</sat>
</trkpt>
<trkpt lat="31.734691667" lon="34.973560000">
<time>2013-04-01T07:22:31Z</time>
 <fix>none</fix>
 <sat>0</sat>
</trkpt>
<trkpt lat="31.734678333" lon="34.973568333">
<time>2013-04-01T07:22:33Z</time>
 <fix>none</fix>
 <sat>0</sat>
</trkpt>
<trkpt lat="31.734651667" lon="34.973585000">
<time>2013-04-01T07:22:35Z</time>
 <fix>none</fix>
 <sat>0</sat>
</trkpt>
<trkpt lat="31.734620000" lon="34.973600000">
<time>2013-04-01T07:22:37Z</time>
 <fix>none</fix>
 <sat>0</sat>
</trkpt>
<trkpt lat="31.734590000" lon="34.973620000">
<time>2013-04-01T07:22:39Z</time>
 <fix>none</fix>
 <sat>0</sat>
</trkpt>
<trkpt lat="31.734545000" lon="34.973638333">
<time>2013-04-01T07:22:41Z</time>
 <fix>none</fix>
 <sat>0</sat>
</trkpt>
<trkpt lat="31.734518333" lon="34.973643333">
<time>2013-04-01T07:22:43Z</time>
 <fix>none</fix>
 <sat>0</sat>
</trkpt>
<trkpt lat="31.734490000" lon="34.973643333">
<time>2013-04-01T07:22:45Z</time>
 <fix>none</fix>
 <sat>0</sat>
</trkpt>
<trkpt lat="31.734463333" lon="34.973641667">
<time>2013-04-01T07:22:47Z</time>
 <fix>none</fix>
 <sat>0</sat>
</trkpt>
<trkpt lat="31.734436667" lon="34.973636667">
<time>2013-04-01T07:22:49Z</time>
 <fix>none</fix>
 <sat>0</sat>
</trkpt>
<trkpt lat="31.734415000" lon="34.973625000">
<time>2013-04-01T07:22:51Z</time>
 <fix>none</fix>
 <sat>0</sat>
</trkpt>
<trkpt lat="31.734393333" lon="34.973603333">
<time>2013-04-01T07:22:53Z</time>
 <fix>none</fix>
 <sat>0</sat>
</trkpt>
<trkpt lat="31.734375000" lon="34.973585000">
<time>2013-04-01T07:22:55Z</time>
 <fix>none</fix>
 <sat>0</sat>
</trkpt>
<trkpt lat="31.734368333" lon="34.973573333">
<time>2013-04-01T07:22:57Z</time>
 <fix>none</fix>
 <sat>0</sat>
</trkpt>
<trkpt lat="31.734351667" lon="34.973546667">
<time>2013-04-01T07:22:59Z</time>
 <fix>none</fix>
 <sat>0</sat>
</trkpt>
<trkpt lat="31.734325000" lon="34.973510000">
<time>2013-04-01T07:23:01Z</time>
 <fix>none</fix>
 <sat>0</sat>
</trkpt>
<trkpt lat="31.734313333" lon="34.973500000">
<time>2013-04-01T07:23:03Z</time>
 <fix>none</fix>
 <sat>0</sat>
</trkpt>
<trkpt lat="31.734288333" lon="34.973491667">
<time>2013-04-01T07:23:05Z</time>
 <fix>none</fix>
 <sat>0</sat>
</trkpt>
<trkpt lat="31.734255000" lon="34.973478333">
<time>2013-04-01T07:23:07Z</time>
 <fix>none</fix>
 <sat>0</sat>
</trkpt>
<trkpt lat="31.734233333" lon="34.973476667">
<time>2013-04-01T07:23:09Z</time>
 <fix>none</fix>
 <sat>0</sat>
</trkpt>
<trkpt lat="31.734208333" lon="34.973470000">
<time>2013-04-01T07:23:11Z</time>
 <fix>none</fix>
 <sat>0</sat>
</trkpt>
<trkpt lat="31.734183333" lon="34.973468333">
<time>2013-04-01T07:23:13Z</time>
 <fix>none</fix>
 <sat>0</sat>
</trkpt>
<trkpt lat="31.734156667" lon="34.973470000">
<time>2013-04-01T07:23:15Z</time>
 <fix>none</fix>
 <sat>0</sat>
</trkpt>
<trkpt lat="31.734128333" lon="34.973478333">
<time>2013-04-01T07:23:17Z</time>
 <fix>none</fix>
 <sat>0</sat>
</trkpt>
<trkpt lat="31.734116667" lon="34.973485000">
<time>2013-04-01T07:23:19Z</time>
 <fix>none</fix>
 <sat>0</sat>
</trkpt>
<trkpt lat="31.734093333" lon="34.973495000">
<time>2013-04-01T07:23:21Z</time>
 <fix>none</fix>
 <sat>0</sat>
</trkpt>
<trkpt lat="31.734071667" lon="34.973508333">
<time>2013-04-01T07:23:23Z</time>
 <fix>none</fix>
 <sat>0</sat>
</trkpt>
<trkpt lat="31.734038333" lon="34.973511667">
<time>2013-04-01T07:23:25Z</time>
 <fix>none</fix>
 <sat>0</sat>
</trkpt>
<trkpt lat="31.734016667" lon="34.973513333">
<time>2013-04-01T07:23:27Z</time>
 <fix>none</fix>
 <sat>0</sat>
</trkpt>
<trkpt lat="31.733990000" lon="34.973515000">
<time>2013-04-01T07:23:29Z</time>
 <fix>none</fix>
 <sat>0</sat>
</trkpt>
<trkpt lat="31.733961667" lon="34.973521667">
<time>2013-04-01T07:23:31Z</time>
 <fix>none</fix>
 <sat>0</sat>
</trkpt>
<trkpt lat="31.733935000" lon="34.973526667">
<time>2013-04-01T07:23:33Z</time>
 <fix>none</fix>
 <sat>0</sat>
</trkpt>
<trkpt lat="31.733910000" lon="34.973525000">
<time>2013-04-01T07:23:35Z</time>
 <fix>none</fix>
 <sat>0</sat>
</trkpt>
<trkpt lat="31.733883333" lon="34.973520000">
<time>2013-04-01T07:23:37Z</time>
 <fix>none</fix>
 <sat>0</sat>
</trkpt>
<trkpt lat="31.733858333" lon="34.973520000">
<time>2013-04-01T07:23:39Z</time>
 <fix>none</fix>
 <sat>0</sat>
</trkpt>
<trkpt lat="31.733845000" lon="34.973518333">
<time>2013-04-01T07:23:41Z</time>
 <fix>none</fix>
 <sat>0</sat>
</trkpt>
<trkpt lat="31.733818333" lon="34.973518333">
<time>2013-04-01T07:23:43Z</time>
 <fix>none</fix>
 <sat>0</sat>
</trkpt>
<trkpt lat="31.733791667" lon="34.973523333">
<time>2013-04-01T07:23:45Z</time>
 <fix>none</fix>
 <sat>0</sat>
</trkpt>
<trkpt lat="31.733765000" lon="34.973536667">
<time>2013-04-01T07:23:47Z</time>
 <fix>none</fix>
 <sat>0</sat>
</trkpt>
<trkpt lat="31.733740000" lon="34.973541667">
<time>2013-04-01T07:23:49Z</time>
 <fix>none</fix>
 <sat>0</sat>
</trkpt>
<trkpt lat="31.733703333" lon="34.973560000">
<time>2013-04-01T07:23:51Z</time>
 <fix>none</fix>
 <sat>0</sat>
</trkpt>
<trkpt lat="31.733685000" lon="34.973580000">
<time>2013-04-01T07:23:53Z</time>
 <fix>none</fix>
 <sat>0</sat>
</trkpt>
<trkpt lat="31.733666667" lon="34.973603333">
<time>2013-04-01T07:23:55Z</time>
 <fix>none</fix>
 <sat>0</sat>
</trkpt>
<trkpt lat="31.733641667" lon="34.973623333">
<time>2013-04-01T07:23:57Z</time>
 <fix>none</fix>
 <sat>0</sat>
</trkpt>
<trkpt lat="31.733621667" lon="34.973640000">
<time>2013-04-01T07:23:59Z</time>
 <fix>none</fix>
 <sat>0</sat>
</trkpt>
<trkpt lat="31.733596667" lon="34.973650000">
<time>2013-04-01T07:24:01Z</time>
 <fix>none</fix>
 <sat>0</sat>
</trkpt>
<trkpt lat="31.733578333" lon="34.973661667">
<time>2013-04-01T07:24:03Z</time>
 <fix>none</fix>
 <sat>0</sat>
</trkpt>
<trkpt lat="31.733568333" lon="34.973666667">
<time>2013-04-01T07:24:05Z</time>
 <fix>none</fix>
 <sat>0</sat>
</trkpt>
<trkpt lat="31.733546667" lon="34.973680000">
<time>2013-04-01T07:24:07Z</time>
 <fix>none</fix>
 <sat>0</sat>
</trkpt>
<trkpt lat="31.733526667" lon="34.973695000">
<time>2013-04-01T07:24:09Z</time>
 <fix>none</fix>
 <sat>0</sat>
</trkpt>
<trkpt lat="31.733505000" lon="34.973711667">
<time>2013-04-01T07:24:11Z</time>
 <fix>none</fix>
 <sat>0</sat>
</trkpt>
<trkpt lat="31.733488333" lon="34.973725000">
<time>2013-04-01T07:24:13Z</time>
 <fix>none</fix>
 <sat>0</sat>
</trkpt>
<trkpt lat="31.733471667" lon="34.973735000">
<time>2013-04-01T07:24:15Z</time>
 <fix>none</fix>
 <sat>0</sat>
</trkpt>
<trkpt lat="31.733465000" lon="34.973748333">
<time>2013-04-01T07:24:17Z</time>
 <fix>none</fix>
 <sat>0</sat>
</trkpt>
<trkpt lat="31.733460000" lon="34.973756667">
<time>2013-04-01T07:24:19Z</time>
 <fix>none</fix>
 <sat>0</sat>
</trkpt>
<trkpt lat="31.733450000" lon="34.973760000">
<time>2013-04-01T07:24:21Z</time>
 <fix>none</fix>
 <sat>0</sat>
</trkpt>
<trkpt lat="31.733440000" lon="34.973756667">
<time>2013-04-01T07:24:23Z</time>
 <fix>none</fix>
 <sat>0</sat>
</trkpt>
<trkpt lat="31.733423333" lon="34.973766667">
<time>2013-04-01T07:24:25Z</time>
 <fix>none</fix>
 <sat>0</sat>
</trkpt>
<trkpt lat="31.733413333" lon="34.973775000">
<time>2013-04-01T07:24:27Z</time>
 <fix>none</fix>
 <sat>0</sat>
</trkpt>
<trkpt lat="31.733398333" lon="34.973786667">
<time>2013-04-01T07:24:29Z</time>
 <fix>none</fix>
 <sat>0</sat>
</trkpt>
<trkpt lat="31.733376667" lon="34.973798333">
<time>2013-04-01T07:24:31Z</time>
 <fix>none</fix>
 <sat>0</sat>
</trkpt>
<trkpt lat="31.733351667" lon="34.973805000">
<time>2013-04-01T07:24:33Z</time>
 <fix>none</fix>
 <sat>0</sat>
</trkpt>
<trkpt lat="31.733311667" lon="34.973808333">
<time>2013-04-01T07:24:35Z</time>
 <fix>none</fix>
 <sat>0</sat>
</trkpt>
<trkpt lat="31.733293333" lon="34.973821667">
<time>2013-04-01T07:24:37Z</time>
 <fix>none</fix>
 <sat>0</sat>
</trkpt>
<trkpt lat="31.733275000" lon="34.973835000">
<time>2013-04-01T07:24:39Z</time>
 <fix>none</fix>
 <sat>0</sat>
</trkpt>
<trkpt lat="31.733256667" lon="34.973841667">
<time>2013-04-01T07:24:41Z</time>
 <fix>none</fix>
 <sat>0</sat>
</trkpt>
<trkpt lat="31.733235000" lon="34.973841667">
<time>2013-04-01T07:24:43Z</time>
 <fix>none</fix>
 <sat>0</sat>
</trkpt>
<trkpt lat="31.733218333" lon="34.973840000">
<time>2013-04-01T07:24:45Z</time>
 <fix>none</fix>
 <sat>0</sat>
</trkpt>
<trkpt lat="31.733216667" lon="34.973846667">
<time>2013-04-01T07:24:47Z</time>
 <fix>none</fix>
 <sat>0</sat>
</trkpt>
<trkpt lat="31.733213333" lon="34.973850000">
<time>2013-04-01T07:24:49Z</time>
 <fix>none</fix>
 <sat>0</sat>
</trkpt>
<trkpt lat="31.733206667" lon="34.973855000">
<time>2013-04-01T07:24:51Z</time>
 <fix>none</fix>
 <sat>0</sat>
</trkpt>
<trkpt lat="31.733193333" lon="34.973868333">
<time>2013-04-01T07:24:53Z</time>
 <fix>none</fix>
 <sat>0</sat>
</trkpt>
<trkpt lat="31.733183333" lon="34.973883333">
<time>2013-04-01T07:24:55Z</time>
 <fix>none</fix>
 <sat>0</sat>
</trkpt>
<trkpt lat="31.733171667" lon="34.973890000">
<time>2013-04-01T07:24:57Z</time>
 <fix>none</fix>
 <sat>0</sat>
</trkpt>
<trkpt lat="31.733171667" lon="34.973886667">
<time>2013-04-01T07:24:59Z</time>
 <fix>none</fix>
 <sat>0</sat>
</trkpt>
<trkpt lat="31.733163333" lon="34.973890000">
<time>2013-04-01T07:25:01Z</time>
 <fix>none</fix>
 <sat>0</sat>
</trkpt>
<trkpt lat="31.733155000" lon="34.973895000">
<time>2013-04-01T07:25:03Z</time>
 <fix>none</fix>
 <sat>0</sat>
</trkpt>
<trkpt lat="31.733131667" lon="34.973896667">
<time>2013-04-01T07:25:05Z</time>
 <fix>none</fix>
 <sat>0</sat>
</trkpt>
<trkpt lat="31.733105000" lon="34.973898333">
<time>2013-04-01T07:25:07Z</time>
 <fix>none</fix>
 <sat>0</sat>
</trkpt>
<trkpt lat="31.733081667" lon="34.973900000">
<time>2013-04-01T07:25:09Z</time>
 <fix>none</fix>
 <sat>0</sat>
</trkpt>
<trkpt lat="31.733051667" lon="34.973900000">
<time>2013-04-01T07:25:11Z</time>
 <fix>none</fix>
 <sat>0</sat>
</trkpt>
<trkpt lat="31.733036667" lon="34.973901667">
<time>2013-04-01T07:25:13Z</time>
 <fix>none</fix>
 <sat>0</sat>
</trkpt>
<trkpt lat="31.733008333" lon="34.973910000">
<time>2013-04-01T07:25:15Z</time>
 <fix>none</fix>
 <sat>0</sat>
</trkpt>
<trkpt lat="31.732983333" lon="34.973921667">
<time>2013-04-01T07:25:17Z</time>
 <fix>none</fix>
 <sat>0</sat>
</trkpt>
<trkpt lat="31.732948333" lon="34.973943333">
<time>2013-04-01T07:25:19Z</time>
 <fix>none</fix>
 <sat>0</sat>
</trkpt>
<trkpt lat="31.732926667" lon="34.973960000">
<time>2013-04-01T07:25:21Z</time>
 <fix>none</fix>
 <sat>0</sat>
</trkpt>
<trkpt lat="31.732901667" lon="34.973976667">
<time>2013-04-01T07:25:23Z</time>
 <fix>none</fix>
 <sat>0</sat>
</trkpt>
<trkpt lat="31.732883333" lon="34.974000000">
<time>2013-04-01T07:25:25Z</time>
 <fix>none</fix>
 <sat>0</sat>
</trkpt>
<trkpt lat="31.732865000" lon="34.974015000">
<time>2013-04-01T07:25:27Z</time>
 <fix>none</fix>
 <sat>0</sat>
</trkpt>
<trkpt lat="31.732841667" lon="34.974018333">
<time>2013-04-01T07:25:29Z</time>
 <fix>none</fix>
 <sat>0</sat>
</trkpt>
<trkpt lat="31.732816667" lon="34.974028333">
<time>2013-04-01T07:25:31Z</time>
 <fix>none</fix>
 <sat>0</sat>
</trkpt>
<trkpt lat="31.732796667" lon="34.974043333">
<time>2013-04-01T07:25:33Z</time>
 <fix>none</fix>
 <sat>0</sat>
</trkpt>
<trkpt lat="31.732785000" lon="34.974045000">
<time>2013-04-01T07:25:35Z</time>
 <fix>none</fix>
 <sat>0</sat>
</trkpt>
<trkpt lat="31.732753333" lon="34.974043333">
<time>2013-04-01T07:25:37Z</time>
 <fix>none</fix>
 <sat>0</sat>
</trkpt>
<trkpt lat="31.732725000" lon="34.974041667">
<time>2013-04-01T07:25:39Z</time>
 <fix>none</fix>
 <sat>0</sat>
</trkpt>
<trkpt lat="31.732691667" lon="34.974041667">
<time>2013-04-01T07:25:41Z</time>
 <fix>none</fix>
 <sat>0</sat>
</trkpt>
<trkpt lat="31.732638333" lon="34.974068333">
<time>2013-04-01T07:25:43Z</time>
 <fix>none</fix>
 <sat>0</sat>
</trkpt>
<trkpt lat="31.732605000" lon="34.974100000">
<time>2013-04-01T07:25:45Z</time>
 <fix>none</fix>
 <sat>0</sat>
</trkpt>
<trkpt lat="31.732580000" lon="34.974135000">
<time>2013-04-01T07:25:47Z</time>
 <fix>none</fix>
 <sat>0</sat>
</trkpt>
<trkpt lat="31.732556667" lon="34.974168333">
<time>2013-04-01T07:25:49Z</time>
 <fix>none</fix>
 <sat>0</sat>
</trkpt>
<trkpt lat="31.732531667" lon="34.974203333">
<time>2013-04-01T07:25:51Z</time>
 <fix>none</fix>
 <sat>0</sat>
</trkpt>
<trkpt lat="31.732503333" lon="34.974241667">
<time>2013-04-01T07:25:53Z</time>
 <fix>none</fix>
 <sat>0</sat>
</trkpt>
<trkpt lat="31.732470000" lon="34.974286667">
<time>2013-04-01T07:25:55Z</time>
 <fix>none</fix>
 <sat>0</sat>
</trkpt>
<trkpt lat="31.732440000" lon="34.974331667">
<time>2013-04-01T07:25:57Z</time>
 <fix>none</fix>
 <sat>0</sat>
</trkpt>
<trkpt lat="31.732425000" lon="34.974353333">
<time>2013-04-01T07:25:59Z</time>
 <fix>none</fix>
 <sat>0</sat>
</trkpt>
<trkpt lat="31.732390000" lon="34.974398333">
<time>2013-04-01T07:26:01Z</time>
 <fix>none</fix>
 <sat>0</sat>
</trkpt>
<trkpt lat="31.732351667" lon="34.974443333">
<time>2013-04-01T07:26:03Z</time>
 <fix>none</fix>
 <sat>0</sat>
</trkpt>
<trkpt lat="31.732305000" lon="34.974520000">
<time>2013-04-01T07:26:05Z</time>
 <fix>none</fix>
 <sat>0</sat>
</trkpt>
<trkpt lat="31.732276667" lon="34.974576667">
<time>2013-04-01T07:26:07Z</time>
 <fix>none</fix>
 <sat>0</sat>
</trkpt>
<trkpt lat="31.732251667" lon="34.974635000">
<time>2013-04-01T07:26:09Z</time>
 <fix>none</fix>
 <sat>0</sat>
</trkpt>
<trkpt lat="31.732221667" lon="34.974690000">
<time>2013-04-01T07:26:11Z</time>
 <fix>none</fix>
 <sat>0</sat>
</trkpt>
<trkpt lat="31.732191667" lon="34.974745000">
<time>2013-04-01T07:26:13Z</time>
 <fix>none</fix>
 <sat>0</sat>
</trkpt>
<trkpt lat="31.732155000" lon="34.974800000">
<time>2013-04-01T07:26:15Z</time>
 <fix>none</fix>
 <sat>0</sat>
</trkpt>
<trkpt lat="31.732118333" lon="34.974853333">
<time>2013-04-01T07:26:17Z</time>
 <fix>none</fix>
 <sat>0</sat>
</trkpt>
<trkpt lat="31.732081667" lon="34.974906667">
<time>2013-04-01T07:26:19Z</time>
 <fix>none</fix>
 <sat>0</sat>
</trkpt>
<trkpt lat="31.732065000" lon="34.974933333">
<time>2013-04-01T07:26:21Z</time>
 <fix>none</fix>
 <sat>0</sat>
</trkpt>
<trkpt lat="31.732033333" lon="34.974981667">
<time>2013-04-01T07:26:23Z</time>
 <fix>none</fix>
 <sat>0</sat>
</trkpt>
<trkpt lat="31.732000000" lon="34.975030000">
<time>2013-04-01T07:26:25Z</time>
 <fix>none</fix>
 <sat>0</sat>
</trkpt>
<trkpt lat="31.731965000" lon="34.975075000">
<time>2013-04-01T07:26:27Z</time>
 <fix>none</fix>
 <sat>0</sat>
</trkpt>
<trkpt lat="31.731920000" lon="34.975143333">
<time>2013-04-01T07:26:29Z</time>
 <fix>none</fix>
 <sat>0</sat>
</trkpt>
<trkpt lat="31.731893333" lon="34.975193333">
<time>2013-04-01T07:26:31Z</time>
 <fix>none</fix>
 <sat>0</sat>
</trkpt>
<trkpt lat="31.731865000" lon="34.975240000">
<time>2013-04-01T07:26:33Z</time>
 <fix>none</fix>
 <sat>0</sat>
</trkpt>
<trkpt lat="31.731833333" lon="34.975286667">
<time>2013-04-01T07:26:35Z</time>
 <fix>none</fix>
 <sat>0</sat>
</trkpt>
<trkpt lat="31.731805000" lon="34.975331667">
<time>2013-04-01T07:26:37Z</time>
 <fix>none</fix>
 <sat>0</sat>
</trkpt>
<trkpt lat="31.731775000" lon="34.975376667">
<time>2013-04-01T07:26:39Z</time>
 <fix>none</fix>
 <sat>0</sat>
</trkpt>
<trkpt lat="31.731746667" lon="34.975423333">
<time>2013-04-01T07:26:41Z</time>
 <fix>none</fix>
 <sat>0</sat>
</trkpt>
<trkpt lat="31.731715000" lon="34.975470000">
<time>2013-04-01T07:26:43Z</time>
 <fix>none</fix>
 <sat>0</sat>
</trkpt>
<trkpt lat="31.731698333" lon="34.975491667">
<time>2013-04-01T07:26:45Z</time>
 <fix>none</fix>
 <sat>0</sat>
</trkpt>
<trkpt lat="31.731666667" lon="34.975530000">
<time>2013-04-01T07:26:47Z</time>
 <fix>none</fix>
 <sat>0</sat>
</trkpt>
<trkpt lat="31.731615000" lon="34.975581667">
<time>2013-04-01T07:26:49Z</time>
 <fix>none</fix>
 <sat>0</sat>
</trkpt>
<trkpt lat="31.731600000" lon="34.975596667">
<time>2013-04-01T07:26:51Z</time>
 <fix>none</fix>
 <sat>0</sat>
</trkpt>
<trkpt lat="31.731551667" lon="34.975643333">
<time>2013-04-01T07:26:53Z</time>
 <fix>none</fix>
 <sat>0</sat>
</trkpt>
<trkpt lat="31.731516667" lon="34.975670000">
<time>2013-04-01T07:26:55Z</time>
 <fix>none</fix>
 <sat>0</sat>
</trkpt>
<trkpt lat="31.731481667" lon="34.975700000">
<time>2013-04-01T07:26:57Z</time>
 <fix>none</fix>
 <sat>0</sat>
</trkpt>
<trkpt lat="31.731446667" lon="34.975731667">
<time>2013-04-01T07:26:59Z</time>
 <fix>none</fix>
 <sat>0</sat>
</trkpt>
<trkpt lat="31.731410000" lon="34.975760000">
<time>2013-04-01T07:27:01Z</time>
 <fix>none</fix>
 <sat>0</sat>
</trkpt>
<trkpt lat="31.731375000" lon="34.975791667">
<time>2013-04-01T07:27:03Z</time>
 <fix>none</fix>
 <sat>0</sat>
</trkpt>
<trkpt lat="31.731341667" lon="34.975820000">
<time>2013-04-01T07:27:05Z</time>
 <fix>none</fix>
 <sat>0</sat>
</trkpt>
<trkpt lat="31.731323333" lon="34.975835000">
<time>2013-04-01T07:27:07Z</time>
 <fix>none</fix>
 <sat>0</sat>
</trkpt>
<trkpt lat="31.731286667" lon="34.975868333">
<time>2013-04-01T07:27:09Z</time>
 <fix>none</fix>
 <sat>0</sat>
</trkpt>
<trkpt lat="31.731245000" lon="34.975903333">
<time>2013-04-01T07:27:11Z</time>
 <fix>none</fix>
 <sat>0</sat>
</trkpt>
<trkpt lat="31.731205000" lon="34.975933333">
<time>2013-04-01T07:27:13Z</time>
 <fix>none</fix>
 <sat>0</sat>
</trkpt>
<trkpt lat="31.731150000" lon="34.975976667">
<time>2013-04-01T07:27:15Z</time>
 <fix>none</fix>
 <sat>0</sat>
</trkpt>
<trkpt lat="31.731116667" lon="34.976006667">
<time>2013-04-01T07:27:17Z</time>
 <fix>none</fix>
 <sat>0</sat>
</trkpt>
<trkpt lat="31.731078333" lon="34.976036667">
<time>2013-04-01T07:27:19Z</time>
 <fix>none</fix>
 <sat>0</sat>
</trkpt>
<trkpt lat="31.731045000" lon="34.976066667">
<time>2013-04-01T07:27:21Z</time>
 <fix>none</fix>
 <sat>0</sat>
</trkpt>
<trkpt lat="31.731011667" lon="34.976098333">
<time>2013-04-01T07:27:23Z</time>
 <fix>none</fix>
 <sat>0</sat>
</trkpt>
<trkpt lat="31.730983333" lon="34.976131667">
<time>2013-04-01T07:27:25Z</time>
 <fix>none</fix>
 <sat>0</sat>
</trkpt>
<trkpt lat="31.730950000" lon="34.976166667">
<time>2013-04-01T07:27:27Z</time>
 <fix>none</fix>
 <sat>0</sat>
</trkpt>
<trkpt lat="31.730935000" lon="34.976185000">
<time>2013-04-01T07:27:29Z</time>
 <fix>none</fix>
 <sat>0</sat>
</trkpt>
<trkpt lat="31.730901667" lon="34.976211667">
<time>2013-04-01T07:27:31Z</time>
 <fix>none</fix>
 <sat>0</sat>
</trkpt>
<trkpt lat="31.730871667" lon="34.976243333">
<time>2013-04-01T07:27:33Z</time>
 <fix>none</fix>
 <sat>0</sat>
</trkpt>
<trkpt lat="31.730841667" lon="34.976276667">
<time>2013-04-01T07:27:35Z</time>
 <fix>none</fix>
 <sat>0</sat>
</trkpt>
<trkpt lat="31.730813333" lon="34.976305000">
<time>2013-04-01T07:27:37Z</time>
 <fix>none</fix>
 <sat>0</sat>
</trkpt>
<trkpt lat="31.730773333" lon="34.976351667">
<time>2013-04-01T07:27:39Z</time>
 <fix>none</fix>
 <sat>0</sat>
</trkpt>
<trkpt lat="31.730745000" lon="34.976381667">
<time>2013-04-01T07:27:41Z</time>
 <fix>none</fix>
 <sat>0</sat>
</trkpt>
<trkpt lat="31.730718333" lon="34.976411667">
<time>2013-04-01T07:27:43Z</time>
 <fix>none</fix>
 <sat>0</sat>
</trkpt>
<trkpt lat="31.730686667" lon="34.976440000">
<time>2013-04-01T07:27:45Z</time>
 <fix>none</fix>
 <sat>0</sat>
</trkpt>
<trkpt lat="31.730653333" lon="34.976470000">
<time>2013-04-01T07:27:47Z</time>
 <fix>none</fix>
 <sat>0</sat>
</trkpt>
<trkpt lat="31.730626667" lon="34.976505000">
<time>2013-04-01T07:27:49Z</time>
 <fix>none</fix>
 <sat>0</sat>
</trkpt>
<trkpt lat="31.730593333" lon="34.976535000">
<time>2013-04-01T07:27:51Z</time>
 <fix>none</fix>
 <sat>0</sat>
</trkpt>
<trkpt lat="31.730576667" lon="34.976545000">
<time>2013-04-01T07:27:53Z</time>
 <fix>none</fix>
 <sat>0</sat>
</trkpt>
<trkpt lat="31.730543333" lon="34.976570000">
<time>2013-04-01T07:27:55Z</time>
 <fix>none</fix>
 <sat>0</sat>
</trkpt>
<trkpt lat="31.730511667" lon="34.976600000">
<time>2013-04-01T07:27:57Z</time>
 <fix>none</fix>
 <sat>0</sat>
</trkpt>
<trkpt lat="31.730456667" lon="34.976631667">
<time>2013-04-01T07:27:59Z</time>
 <fix>none</fix>
 <sat>0</sat>
</trkpt>
<trkpt lat="31.730416667" lon="34.976643333">
<time>2013-04-01T07:28:01Z</time>
 <fix>none</fix>
 <sat>0</sat>
</trkpt>
<trkpt lat="31.730376667" lon="34.976648333">
<time>2013-04-01T07:28:03Z</time>
 <fix>none</fix>
 <sat>0</sat>
</trkpt>
<trkpt lat="31.730336667" lon="34.976653333">
<time>2013-04-01T07:28:05Z</time>
 <fix>none</fix>
 <sat>0</sat>
</trkpt>
<trkpt lat="31.730295000" lon="34.976656667">
<time>2013-04-01T07:28:07Z</time>
 <fix>none</fix>
 <sat>0</sat>
</trkpt>
<trkpt lat="31.730253333" lon="34.976660000">
<time>2013-04-01T07:28:09Z</time>
 <fix>none</fix>
 <sat>0</sat>
</trkpt>
<trkpt lat="31.730211667" lon="34.976663333">
<time>2013-04-01T07:28:11Z</time>
 <fix>none</fix>
 <sat>0</sat>
</trkpt>
<trkpt lat="31.730168333" lon="34.976665000">
<time>2013-04-01T07:28:13Z</time>
 <fix>none</fix>
 <sat>0</sat>
</trkpt>
<trkpt lat="31.730146667" lon="34.976668333">
<time>2013-04-01T07:28:15Z</time>
 <fix>none</fix>
 <sat>0</sat>
</trkpt>
<trkpt lat="31.730105000" lon="34.976673333">
<time>2013-04-01T07:28:17Z</time>
 <fix>none</fix>
 <sat>0</sat>
</trkpt>
<trkpt lat="31.730060000" lon="34.976676667">
<time>2013-04-01T07:28:19Z</time>
 <fix>none</fix>
 <sat>0</sat>
</trkpt>
<trkpt lat="31.730013333" lon="34.976683333">
<time>2013-04-01T07:28:21Z</time>
 <fix>none</fix>
 <sat>0</sat>
</trkpt>
<trkpt lat="31.729946667" lon="34.976683333">
<time>2013-04-01T07:28:23Z</time>
 <fix>none</fix>
 <sat>0</sat>
</trkpt>
<trkpt lat="31.729905000" lon="34.976673333">
<time>2013-04-01T07:28:25Z</time>
 <fix>none</fix>
 <sat>0</sat>
</trkpt>
<trkpt lat="31.729861667" lon="34.976673333">
<time>2013-04-01T07:28:27Z</time>
 <fix>none</fix>
 <sat>0</sat>
</trkpt>
<trkpt lat="31.729815000" lon="34.976675000">
<time>2013-04-01T07:28:29Z</time>
 <fix>none</fix>
 <sat>0</sat>
</trkpt>
<trkpt lat="31.729770000" lon="34.976673333">
<time>2013-04-01T07:28:31Z</time>
 <fix>none</fix>
 <sat>0</sat>
</trkpt>
<trkpt lat="31.729723333" lon="34.976671667">
<time>2013-04-01T07:28:33Z</time>
 <fix>none</fix>
 <sat>0</sat>
</trkpt>
<trkpt lat="31.729676667" lon="34.976670000">
<time>2013-04-01T07:28:35Z</time>
 <fix>none</fix>
 <sat>0</sat>
</trkpt>
<trkpt lat="31.729651667" lon="34.976668333">
<time>2013-04-01T07:28:37Z</time>
 <fix>none</fix>
 <sat>0</sat>
</trkpt>
<trkpt lat="31.729603333" lon="34.976656667">
<time>2013-04-01T07:28:39Z</time>
 <fix>none</fix>
 <sat>0</sat>
</trkpt>
<trkpt lat="31.729550000" lon="34.976651667">
<time>2013-04-01T07:28:41Z</time>
 <fix>none</fix>
 <sat>0</sat>
</trkpt>
<trkpt lat="31.729493333" lon="34.976650000">
<time>2013-04-01T07:28:43Z</time>
 <fix>none</fix>
 <sat>0</sat>
</trkpt>
<trkpt lat="31.729435000" lon="34.976641667">
<time>2013-04-01T07:28:45Z</time>
 <fix>none</fix>
 <sat>0</sat>
</trkpt>
<trkpt lat="31.729341667" lon="34.976643333">
<time>2013-04-01T07:28:47Z</time>
 <fix>none</fix>
 <sat>0</sat>
</trkpt>
<trkpt lat="31.729280000" lon="34.976640000">
<time>2013-04-01T07:28:49Z</time>
 <fix>none</fix>
 <sat>0</sat>
</trkpt>
<trkpt lat="31.729216667" lon="34.976635000">
<time>2013-04-01T07:28:51Z</time>
 <fix>none</fix>
 <sat>0</sat>
</trkpt>
<trkpt lat="31.729153333" lon="34.976635000">
<time>2013-04-01T07:28:53Z</time>
 <fix>none</fix>
 <sat>0</sat>
</trkpt>
<trkpt lat="31.729090000" lon="34.976633333">
<time>2013-04-01T07:28:55Z</time>
 <fix>none</fix>
 <sat>0</sat>
</trkpt>
<trkpt lat="31.729028333" lon="34.976633333">
<time>2013-04-01T07:28:57Z</time>
 <fix>none</fix>
 <sat>0</sat>
</trkpt>
<trkpt lat="31.728966667" lon="34.976635000">
<time>2013-04-01T07:28:59Z</time>
 <fix>none</fix>
 <sat>0</sat>
</trkpt>
<trkpt lat="31.728935000" lon="34.976633333">
<time>2013-04-01T07:29:01Z</time>
 <fix>none</fix>
 <sat>0</sat>
</trkpt>
<trkpt lat="31.728875000" lon="34.976636667">
<time>2013-04-01T07:29:03Z</time>
 <fix>none</fix>
 <sat>0</sat>
</trkpt>
<trkpt lat="31.728815000" lon="34.976635000">
<time>2013-04-01T07:29:05Z</time>
 <fix>none</fix>
 <sat>0</sat>
</trkpt>
<trkpt lat="31.728731667" lon="34.976636667">
<time>2013-04-01T07:29:07Z</time>
 <fix>none</fix>
 <sat>0</sat>
</trkpt>
<trkpt lat="31.728675000" lon="34.976636667">
<time>2013-04-01T07:29:09Z</time>
 <fix>none</fix>
 <sat>0</sat>
</trkpt>
<trkpt lat="31.728623333" lon="34.976636667">
<time>2013-04-01T07:29:11Z</time>
 <fix>none</fix>
 <sat>0</sat>
</trkpt>
<trkpt lat="31.728595000" lon="34.976635000">
<time>2013-04-01T07:29:13Z</time>
 <fix>none</fix>
 <sat>0</sat>
</trkpt>
<trkpt lat="31.728511667" lon="34.976636667">
<time>2013-04-01T07:29:15Z</time>
 <fix>none</fix>
 <sat>0</sat>
</trkpt>
<trkpt lat="31.728458333" lon="34.976636667">
<time>2013-04-01T07:29:17Z</time>
 <fix>none</fix>
 <sat>0</sat>
</trkpt>
<trkpt lat="31.728405000" lon="34.976638333">
<time>2013-04-01T07:29:19Z</time>
 <fix>none</fix>
 <sat>0</sat>
</trkpt>
<trkpt lat="31.728351667" lon="34.976643333">
<time>2013-04-01T07:29:21Z</time>
 <fix>none</fix>
 <sat>0</sat>
</trkpt>
<trkpt lat="31.728326667" lon="34.976643333">
<time>2013-04-01T07:29:23Z</time>
 <fix>none</fix>
 <sat>0</sat>
</trkpt>
<trkpt lat="31.728273333" lon="34.976641667">
<time>2013-04-01T07:29:25Z</time>
 <fix>none</fix>
 <sat>0</sat>
</trkpt>
<trkpt lat="31.728218333" lon="34.976631667">
<time>2013-04-01T07:29:27Z</time>
 <fix>none</fix>
 <sat>0</sat>
</trkpt>
<trkpt lat="31.728161667" lon="34.976633333">
<time>2013-04-01T07:29:29Z</time>
 <fix>none</fix>
 <sat>0</sat>
</trkpt>
<trkpt lat="31.728080000" lon="34.976638333">
<time>2013-04-01T07:29:31Z</time>
 <fix>none</fix>
 <sat>0</sat>
</trkpt>
<trkpt lat="31.728026667" lon="34.976645000">
<time>2013-04-01T07:29:33Z</time>
 <fix>none</fix>
 <sat>0</sat>
</trkpt>
<trkpt lat="31.727975000" lon="34.976661667">
<time>2013-04-01T07:29:35Z</time>
 <fix>none</fix>
 <sat>0</sat>
</trkpt>
<trkpt lat="31.727920000" lon="34.976668333">
<time>2013-04-01T07:29:37Z</time>
 <fix>none</fix>
 <sat>0</sat>
</trkpt>
<trkpt lat="31.727863333" lon="34.976668333">
<time>2013-04-01T07:29:39Z</time>
 <fix>none</fix>
 <sat>0</sat>
</trkpt>
<trkpt lat="31.727810000" lon="34.976683333">
<time>2013-04-01T07:29:41Z</time>
 <fix>none</fix>
 <sat>0</sat>
</trkpt>
<trkpt lat="31.727756667" lon="34.976700000">
<time>2013-04-01T07:29:43Z</time>
 <fix>none</fix>
 <sat>0</sat>
</trkpt>
<trkpt lat="31.727703333" lon="34.976715000">
<time>2013-04-01T07:29:45Z</time>
 <fix>none</fix>
 <sat>0</sat>
</trkpt>
<trkpt lat="31.727678333" lon="34.976723333">
<time>2013-04-01T07:29:47Z</time>
 <fix>none</fix>
 <sat>0</sat>
</trkpt>
<trkpt lat="31.727626667" lon="34.976736667">
<time>2013-04-01T07:29:49Z</time>
 <fix>none</fix>
 <sat>0</sat>
</trkpt>
<trkpt lat="31.727576667" lon="34.976753333">
<time>2013-04-01T07:29:51Z</time>
 <fix>none</fix>
 <sat>0</sat>
</trkpt>
<trkpt lat="31.727500000" lon="34.976780000">
<time>2013-04-01T07:29:53Z</time>
 <fix>none</fix>
 <sat>0</sat>
</trkpt>
<trkpt lat="31.727455000" lon="34.976800000">
<time>2013-04-01T07:29:55Z</time>
 <fix>none</fix>
 <sat>0</sat>
</trkpt>
<trkpt lat="31.727410000" lon="34.976816667">
<time>2013-04-01T07:29:57Z</time>
 <fix>none</fix>
 <sat>0</sat>
</trkpt>
<trkpt lat="31.727361667" lon="34.976835000">
<time>2013-04-01T07:29:59Z</time>
 <fix>none</fix>
 <sat>0</sat>
</trkpt>
<trkpt lat="31.727313333" lon="34.976851667">
<time>2013-04-01T07:30:01Z</time>
 <fix>none</fix>
 <sat>0</sat>
</trkpt>
<trkpt lat="31.727270000" lon="34.976875000">
<time>2013-04-01T07:30:03Z</time>
 <fix>none</fix>
 <sat>0</sat>
</trkpt>
<trkpt lat="31.727228333" lon="34.976893333">
<time>2013-04-01T07:30:05Z</time>
 <fix>none</fix>
 <sat>0</sat>
</trkpt>
<trkpt lat="31.727186667" lon="34.976908333">
<time>2013-04-01T07:30:07Z</time>
 <fix>none</fix>
 <sat>0</sat>
</trkpt>
<trkpt lat="31.727170000" lon="34.976915000">
<time>2013-04-01T07:30:09Z</time>
 <fix>none</fix>
 <sat>0</sat>
</trkpt>
<trkpt lat="31.727128333" lon="34.976928333">
<time>2013-04-01T07:30:11Z</time>
 <fix>none</fix>
 <sat>0</sat>
</trkpt>
<trkpt lat="31.727086667" lon="34.976945000">
<time>2013-04-01T07:30:13Z</time>
 <fix>none</fix>
 <sat>0</sat>
</trkpt>
<trkpt lat="31.727043333" lon="34.976968333">
<time>2013-04-01T07:30:15Z</time>
 <fix>none</fix>
 <sat>0</sat>
</trkpt>
<trkpt lat="31.726981667" lon="34.977013333">
<time>2013-04-01T07:30:17Z</time>
 <fix>none</fix>
 <sat>0</sat>
</trkpt>
<trkpt lat="31.726936667" lon="34.977033333">
<time>2013-04-01T07:30:19Z</time>
 <fix>none</fix>
 <sat>0</sat>
</trkpt>
<trkpt lat="31.726893333" lon="34.977056667">
<time>2013-04-01T07:30:21Z</time>
 <fix>none</fix>
 <sat>0</sat>
</trkpt>
<trkpt lat="31.726853333" lon="34.977083333">
<time>2013-04-01T07:30:23Z</time>
 <fix>none</fix>
 <sat>0</sat>
</trkpt>
<trkpt lat="31.726810000" lon="34.977106667">
<time>2013-04-01T07:30:25Z</time>
 <fix>none</fix>
 <sat>0</sat>
</trkpt>
<trkpt lat="31.726763333" lon="34.977121667">
<time>2013-04-01T07:30:27Z</time>
 <fix>none</fix>
 <sat>0</sat>
</trkpt>
<trkpt lat="31.726718333" lon="34.977138333">
<time>2013-04-01T07:30:29Z</time>
 <fix>none</fix>
 <sat>0</sat>
</trkpt>
<trkpt lat="31.726676667" lon="34.977161667">
<time>2013-04-01T07:30:31Z</time>
 <fix>none</fix>
 <sat>0</sat>
</trkpt>
<trkpt lat="31.726655000" lon="34.977173333">
<time>2013-04-01T07:30:33Z</time>
 <fix>none</fix>
 <sat>0</sat>
</trkpt>
<trkpt lat="31.726611667" lon="34.977186667">
<time>2013-04-01T07:30:35Z</time>
 <fix>none</fix>
 <sat>0</sat>
</trkpt>
<trkpt lat="31.726566667" lon="34.977198333">
<time>2013-04-01T07:30:37Z</time>
 <fix>none</fix>
 <sat>0</sat>
</trkpt>
<trkpt lat="31.726506667" lon="34.977216667">
<time>2013-04-01T07:30:39Z</time>
 <fix>none</fix>
 <sat>0</sat>
</trkpt>
<trkpt lat="31.726471667" lon="34.977225000">
<time>2013-04-01T07:30:41Z</time>
 <fix>none</fix>
 <sat>0</sat>
</trkpt>
<trkpt lat="31.726438333" lon="34.977233333">
<time>2013-04-01T07:30:43Z</time>
 <fix>none</fix>
 <sat>0</sat>
</trkpt>
<trkpt lat="31.726403333" lon="34.977238333">
<time>2013-04-01T07:30:45Z</time>
 <fix>none</fix>
 <sat>0</sat>
</trkpt>
<trkpt lat="31.726368333" lon="34.977248333">
<time>2013-04-01T07:30:47Z</time>
 <fix>none</fix>
 <sat>0</sat>
</trkpt>
<trkpt lat="31.726335000" lon="34.977253333">
<time>2013-04-01T07:30:49Z</time>
 <fix>none</fix>
 <sat>0</sat>
</trkpt>
<trkpt lat="31.726300000" lon="34.977265000">
<time>2013-04-01T07:30:51Z</time>
 <fix>none</fix>
 <sat>0</sat>
</trkpt>
<trkpt lat="31.726266667" lon="34.977273333">
<time>2013-04-01T07:30:53Z</time>
 <fix>none</fix>
 <sat>0</sat>
</trkpt>
<trkpt lat="31.726250000" lon="34.977278333">
<time>2013-04-01T07:30:55Z</time>
 <fix>none</fix>
 <sat>0</sat>
</trkpt>
<trkpt lat="31.726216667" lon="34.977288333">
<time>2013-04-01T07:30:57Z</time>
 <fix>none</fix>
 <sat>0</sat>
</trkpt>
<trkpt lat="31.726183333" lon="34.977303333">
<time>2013-04-01T07:30:59Z</time>
 <fix>none</fix>
 <sat>0</sat>
</trkpt>
<trkpt lat="31.726131667" lon="34.977321667">
<time>2013-04-01T07:31:01Z</time>
 <fix>none</fix>
 <sat>0</sat>
</trkpt>
<trkpt lat="31.726096667" lon="34.977330000">
<time>2013-04-01T07:31:03Z</time>
 <fix>none</fix>
 <sat>0</sat>
</trkpt>
<trkpt lat="31.726061667" lon="34.977336667">
<time>2013-04-01T07:31:05Z</time>
 <fix>none</fix>
 <sat>0</sat>
</trkpt>
<trkpt lat="31.726026667" lon="34.977345000">
<time>2013-04-01T07:31:07Z</time>
 <fix>none</fix>
 <sat>0</sat>
</trkpt>
<trkpt lat="31.725991667" lon="34.977353333">
<time>2013-04-01T07:31:09Z</time>
 <fix>none</fix>
 <sat>0</sat>
</trkpt>
<trkpt lat="31.725956667" lon="34.977361667">
<time>2013-04-01T07:31:11Z</time>
 <fix>none</fix>
 <sat>0</sat>
</trkpt>
<trkpt lat="31.725925000" lon="34.977373333">
<time>2013-04-01T07:31:13Z</time>
 <fix>none</fix>
 <sat>0</sat>
</trkpt>
<trkpt lat="31.725891667" lon="34.977381667">
<time>2013-04-01T07:31:15Z</time>
 <fix>none</fix>
 <sat>0</sat>
</trkpt>
<trkpt lat="31.725875000" lon="34.977386667">
<time>2013-04-01T07:31:17Z</time>
 <fix>none</fix>
 <sat>0</sat>
</trkpt>
<trkpt lat="31.725840000" lon="34.977395000">
<time>2013-04-01T07:31:19Z</time>
 <fix>none</fix>
 <sat>0</sat>
</trkpt>
<trkpt lat="31.725803333" lon="34.977400000">
<time>2013-04-01T07:31:21Z</time>
 <fix>none</fix>
 <sat>0</sat>
</trkpt>
<trkpt lat="31.725768333" lon="34.977408333">
<time>2013-04-01T07:31:23Z</time>
 <fix>none</fix>
 <sat>0</sat>
</trkpt>
<trkpt lat="31.725713333" lon="34.977420000">
<time>2013-04-01T07:31:25Z</time>
 <fix>none</fix>
 <sat>0</sat>
</trkpt>
<trkpt lat="31.725678333" lon="34.977430000">
<time>2013-04-01T07:31:27Z</time>
 <fix>none</fix>
 <sat>0</sat>
</trkpt>
<trkpt lat="31.725646667" lon="34.977440000">
<time>2013-04-01T07:31:29Z</time>
 <fix>none</fix>
 <sat>0</sat>
</trkpt>
<trkpt lat="31.725613333" lon="34.977451667">
<time>2013-04-01T07:31:31Z</time>
 <fix>none</fix>
 <sat>0</sat>
</trkpt>
<trkpt lat="31.725581667" lon="34.977466667">
<time>2013-04-01T07:31:33Z</time>
 <fix>none</fix>
 <sat>0</sat>
</trkpt>
<trkpt lat="31.725546667" lon="34.977478333">
<time>2013-04-01T07:31:35Z</time>
 <fix>none</fix>
 <sat>0</sat>
</trkpt>
<trkpt lat="31.725510000" lon="34.977486667">
<time>2013-04-01T07:31:37Z</time>
 <fix>none</fix>
 <sat>0</sat>
</trkpt>
<trkpt lat="31.725475000" lon="34.977496667">
<time>2013-04-01T07:31:39Z</time>
 <fix>none</fix>
 <sat>0</sat>
</trkpt>
<trkpt lat="31.725458333" lon="34.977501667">
<time>2013-04-01T07:31:41Z</time>
 <fix>none</fix>
 <sat>0</sat>
</trkpt>
<trkpt lat="31.725421667" lon="34.977511667">
<time>2013-04-01T07:31:43Z</time>
 <fix>none</fix>
 <sat>0</sat>
</trkpt>
<trkpt lat="31.725368333" lon="34.977525000">
<time>2013-04-01T07:31:45Z</time>
 <fix>none</fix>
 <sat>0</sat>
</trkpt>
<trkpt lat="31.725350000" lon="34.977530000">
<time>2013-04-01T07:31:47Z</time>
 <fix>none</fix>
 <sat>0</sat>
</trkpt>
<trkpt lat="31.725298333" lon="34.977548333">
<time>2013-04-01T07:31:49Z</time>
 <fix>none</fix>
 <sat>0</sat>
</trkpt>
<trkpt lat="31.725265000" lon="34.977560000">
<time>2013-04-01T07:31:51Z</time>
 <fix>none</fix>
 <sat>0</sat>
</trkpt>
<trkpt lat="31.725231667" lon="34.977570000">
<time>2013-04-01T07:31:53Z</time>
 <fix>none</fix>
 <sat>0</sat>
</trkpt>
<trkpt lat="31.725196667" lon="34.977576667">
<time>2013-04-01T07:31:55Z</time>
 <fix>none</fix>
 <sat>0</sat>
</trkpt>
<trkpt lat="31.725163333" lon="34.977585000">
<time>2013-04-01T07:31:57Z</time>
 <fix>none</fix>
 <sat>0</sat>
</trkpt>
<trkpt lat="31.725130000" lon="34.977595000">
<time>2013-04-01T07:31:59Z</time>
 <fix>none</fix>
 <sat>0</sat>
</trkpt>
<trkpt lat="31.725093333" lon="34.977601667">
<time>2013-04-01T07:32:01Z</time>
 <fix>none</fix>
 <sat>0</sat>
</trkpt>
<trkpt lat="31.725073333" lon="34.977606667">
<time>2013-04-01T07:32:03Z</time>
 <fix>none</fix>
 <sat>0</sat>
</trkpt>
<trkpt lat="31.725038333" lon="34.977618333">
<time>2013-04-01T07:32:05Z</time>
 <fix>none</fix>
 <sat>0</sat>
</trkpt>
<trkpt lat="31.725001667" lon="34.977625000">
<time>2013-04-01T07:32:07Z</time>
 <fix>none</fix>
 <sat>0</sat>
</trkpt>
<trkpt lat="31.724965000" lon="34.977630000">
<time>2013-04-01T07:32:09Z</time>
 <fix>none</fix>
 <sat>0</sat>
</trkpt>
<trkpt lat="31.724910000" lon="34.977640000">
<time>2013-04-01T07:32:11Z</time>
 <fix>none</fix>
 <sat>0</sat>
</trkpt>
<trkpt lat="31.724878333" lon="34.977641667">
<time>2013-04-01T07:32:13Z</time>
 <fix>none</fix>
 <sat>0</sat>
</trkpt>
<trkpt lat="31.724841667" lon="34.977646667">
<time>2013-04-01T07:32:15Z</time>
 <fix>none</fix>
 <sat>0</sat>
</trkpt>
<trkpt lat="31.724798333" lon="34.977645000">
<time>2013-04-01T07:32:17Z</time>
 <fix>none</fix>
 <sat>0</sat>
</trkpt>
<trkpt lat="31.724760000" lon="34.977655000">
<time>2013-04-01T07:32:19Z</time>
 <fix>none</fix>
 <sat>0</sat>
</trkpt>
<trkpt lat="31.724726667" lon="34.977660000">
<time>2013-04-01T07:32:21Z</time>
 <fix>none</fix>
 <sat>0</sat>
</trkpt>
<trkpt lat="31.724690000" lon="34.977661667">
<time>2013-04-01T07:32:23Z</time>
 <fix>none</fix>
 <sat>0</sat>
</trkpt>
<trkpt lat="31.724651667" lon="34.977660000">
<time>2013-04-01T07:32:25Z</time>
 <fix>none</fix>
 <sat>0</sat>
</trkpt>
<trkpt lat="31.724631667" lon="34.977661667">
<time>2013-04-01T07:32:27Z</time>
 <fix>none</fix>
 <sat>0</sat>
</trkpt>
<trkpt lat="31.724591667" lon="34.977666667">
<time>2013-04-01T07:32:29Z</time>
 <fix>none</fix>
 <sat>0</sat>
</trkpt>
<trkpt lat="31.724553333" lon="34.977675000">
<time>2013-04-01T07:32:31Z</time>
 <fix>none</fix>
 <sat>0</sat>
</trkpt>
<trkpt lat="31.724496667" lon="34.977683333">
<time>2013-04-01T07:32:33Z</time>
 <fix>none</fix>
 <sat>0</sat>
</trkpt>
<trkpt lat="31.724456667" lon="34.977693333">
<time>2013-04-01T07:32:35Z</time>
 <fix>none</fix>
 <sat>0</sat>
</trkpt>
<trkpt lat="31.724420000" lon="34.977703333">
<time>2013-04-01T07:32:37Z</time>
 <fix>none</fix>
 <sat>0</sat>
</trkpt>
<trkpt lat="31.724381667" lon="34.977710000">
<time>2013-04-01T07:32:39Z</time>
 <fix>none</fix>
 <sat>0</sat>
</trkpt>
<trkpt lat="31.724345000" lon="34.977715000">
<time>2013-04-01T07:32:41Z</time>
 <fix>none</fix>
 <sat>0</sat>
</trkpt>
<trkpt lat="31.724306667" lon="34.977716667">
<time>2013-04-01T07:32:43Z</time>
 <fix>none</fix>
 <sat>0</sat>
</trkpt>
<trkpt lat="31.724270000" lon="34.977718333">
<time>2013-04-01T07:32:45Z</time>
 <fix>none</fix>
 <sat>0</sat>
</trkpt>
<trkpt lat="31.724235000" lon="34.977718333">
<time>2013-04-01T07:32:47Z</time>
 <fix>none</fix>
 <sat>0</sat>
</trkpt>
<trkpt lat="31.724218333" lon="34.977716667">
<time>2013-04-01T07:32:49Z</time>
 <fix>none</fix>
 <sat>0</sat>
</trkpt>
<trkpt lat="31.724183333" lon="34.977703333">
<time>2013-04-01T07:32:51Z</time>
 <fix>none</fix>
 <sat>0</sat>
</trkpt>
<trkpt lat="31.724155000" lon="34.977683333">
<time>2013-04-01T07:32:53Z</time>
 <fix>none</fix>
 <sat>0</sat>
</trkpt>
<trkpt lat="31.724118333" lon="34.977628333">
<time>2013-04-01T07:32:55Z</time>
 <fix>none</fix>
 <sat>0</sat>
</trkpt>
<trkpt lat="31.724101667" lon="34.977576667">
<time>2013-04-01T07:32:57Z</time>
 <fix>none</fix>
 <sat>0</sat>
</trkpt>
<trkpt lat="31.724095000" lon="34.977530000">
<time>2013-04-01T07:32:59Z</time>
 <fix>none</fix>
 <sat>0</sat>
</trkpt>
<trkpt lat="31.724100000" lon="34.977485000">
<time>2013-04-01T07:33:01Z</time>
 <fix>none</fix>
 <sat>0</sat>
</trkpt>
<trkpt lat="31.724106667" lon="34.977438333">
<time>2013-04-01T07:33:03Z</time>
 <fix>none</fix>
 <sat>0</sat>
</trkpt>
<trkpt lat="31.724115000" lon="34.977393333">
<time>2013-04-01T07:33:05Z</time>
 <fix>none</fix>
 <sat>0</sat>
</trkpt>
<trkpt lat="31.724130000" lon="34.977353333">
<time>2013-04-01T07:33:07Z</time>
 <fix>none</fix>
 <sat>0</sat>
</trkpt>
<trkpt lat="31.724145000" lon="34.977318333">
<time>2013-04-01T07:33:09Z</time>
 <fix>none</fix>
 <sat>0</sat>
</trkpt>
<trkpt lat="31.724151667" lon="34.977298333">
<time>2013-04-01T07:33:11Z</time>
 <fix>none</fix>
 <sat>0</sat>
</trkpt>
<trkpt lat="31.724158333" lon="34.977253333">
<time>2013-04-01T07:33:13Z</time>
 <fix>none</fix>
 <sat>0</sat>
</trkpt>
<trkpt lat="31.724161667" lon="34.977213333">
<time>2013-04-01T07:33:15Z</time>
 <fix>none</fix>
 <sat>0</sat>
</trkpt>
<trkpt lat="31.724151667" lon="34.977176667">
<time>2013-04-01T07:33:17Z</time>
 <fix>none</fix>
 <sat>0</sat>
</trkpt>
<trkpt lat="31.724130000" lon="34.977131667">
<time>2013-04-01T07:33:19Z</time>
 <fix>none</fix>
 <sat>0</sat>
</trkpt>
<trkpt lat="31.724111667" lon="34.977098333">
<time>2013-04-01T07:33:21Z</time>
 <fix>none</fix>
 <sat>0</sat>
</trkpt>
<trkpt lat="31.724085000" lon="34.977078333">
<time>2013-04-01T07:33:23Z</time>
 <fix>none</fix>
 <sat>0</sat>
</trkpt>
<trkpt lat="31.724056667" lon="34.977061667">
<time>2013-04-01T07:33:25Z</time>
 <fix>none</fix>
 <sat>0</sat>
</trkpt>
<trkpt lat="31.724028333" lon="34.977051667">
<time>2013-04-01T07:33:27Z</time>
 <fix>none</fix>
 <sat>0</sat>
</trkpt>
<trkpt lat="31.724010000" lon="34.977053333">
<time>2013-04-01T07:33:29Z</time>
 <fix>none</fix>
 <sat>0</sat>
</trkpt>
<trkpt lat="31.724001667" lon="34.977046667">
<time>2013-04-01T07:33:31Z</time>
 <fix>none</fix>
 <sat>0</sat>
</trkpt>
<trkpt lat="31.723996667" lon="34.977041667">
<time>2013-04-01T07:33:33Z</time>
 <fix>none</fix>
 <sat>0</sat>
</trkpt>
<trkpt lat="31.723993333" lon="34.977038333">
<time>2013-04-01T07:33:35Z</time>
 <fix>none</fix>
 <sat>0</sat>
</trkpt>
<trkpt lat="31.723988333" lon="34.977038333">
<time>2013-04-01T07:33:37Z</time>
 <fix>none</fix>
 <sat>0</sat>
</trkpt>
<trkpt lat="31.723988333" lon="34.977040000">
<time>2013-04-01T07:33:39Z</time>
 <fix>none</fix>
 <sat>0</sat>
</trkpt>
<trkpt lat="31.723991667" lon="34.977040000">
<time>2013-04-01T07:33:41Z</time>
 <fix>none</fix>
 <sat>0</sat>
</trkpt>
<trkpt lat="31.723981667" lon="34.977031667">
<time>2013-04-01T07:33:43Z</time>
 <fix>none</fix>
 <sat>0</sat>
</trkpt>
<trkpt lat="31.723975000" lon="34.977025000">
<time>2013-04-01T07:33:45Z</time>
 <fix>none</fix>
 <sat>0</sat>
</trkpt>
<trkpt lat="31.723973333" lon="34.977021667">
<time>2013-04-01T07:33:47Z</time>
 <fix>none</fix>
 <sat>0</sat>
</trkpt>
<trkpt lat="31.723971667" lon="34.977021667">
<time>2013-04-01T07:33:49Z</time>
 <fix>none</fix>
 <sat>0</sat>
</trkpt>
<trkpt lat="31.723971667" lon="34.977021667">
<time>2013-04-01T07:33:51Z</time>
 <fix>none</fix>
 <sat>0</sat>
</trkpt>
<trkpt lat="31.723966667" lon="34.977025000">
<time>2013-04-01T07:33:53Z</time>
 <fix>none</fix>
 <sat>0</sat>
</trkpt>
<trkpt lat="31.723965000" lon="34.977028333">
<time>2013-04-01T07:33:55Z</time>
 <fix>none</fix>
 <sat>0</sat>
</trkpt>
<trkpt lat="31.723963333" lon="34.977028333">
<time>2013-04-01T07:33:57Z</time>
 <fix>none</fix>
 <sat>0</sat>
</trkpt>
<trkpt lat="31.723965000" lon="34.977028333">
<time>2013-04-01T07:33:59Z</time>
 <fix>none</fix>
 <sat>0</sat>
</trkpt>
<trkpt lat="31.723961667" lon="34.977028333">
<time>2013-04-01T07:34:01Z</time>
 <fix>none</fix>
 <sat>0</sat>
</trkpt>
<trkpt lat="31.723950000" lon="34.977041667">
<time>2013-04-01T07:34:03Z</time>
 <fix>none</fix>
 <sat>0</sat>
</trkpt>
<trkpt lat="31.723935000" lon="34.977061667">
<time>2013-04-01T07:34:05Z</time>
 <fix>none</fix>
 <sat>0</sat>
</trkpt>
<trkpt lat="31.723905000" lon="34.977086667">
<time>2013-04-01T07:34:07Z</time>
 <fix>none</fix>
 <sat>0</sat>
</trkpt>
<trkpt lat="31.723878333" lon="34.977100000">
<time>2013-04-01T07:34:09Z</time>
 <fix>none</fix>
 <sat>0</sat>
</trkpt>
<trkpt lat="31.723850000" lon="34.977115000">
<time>2013-04-01T07:34:11Z</time>
 <fix>none</fix>
 <sat>0</sat>
</trkpt>
<trkpt lat="31.723815000" lon="34.977118333">
<time>2013-04-01T07:34:13Z</time>
 <fix>none</fix>
 <sat>0</sat>
</trkpt>
<trkpt lat="31.723776667" lon="34.977118333">
<time>2013-04-01T07:34:15Z</time>
 <fix>none</fix>
 <sat>0</sat>
</trkpt>
<trkpt lat="31.723740000" lon="34.977116667">
<time>2013-04-01T07:34:17Z</time>
 <fix>none</fix>
 <sat>0</sat>
</trkpt>
<trkpt lat="31.723703333" lon="34.977120000">
<time>2013-04-01T07:34:19Z</time>
 <fix>none</fix>
 <sat>0</sat>
</trkpt>
<trkpt lat="31.723683333" lon="34.977121667">
<time>2013-04-01T07:34:21Z</time>
 <fix>none</fix>
 <sat>0</sat>
</trkpt>
<trkpt lat="31.723653333" lon="34.977130000">
<time>2013-04-01T07:34:23Z</time>
 <fix>none</fix>
 <sat>0</sat>
</trkpt>
<trkpt lat="31.723620000" lon="34.977135000">
<time>2013-04-01T07:34:25Z</time>
 <fix>none</fix>
 <sat>0</sat>
</trkpt>
<trkpt lat="31.723563333" lon="34.977138333">
<time>2013-04-01T07:34:27Z</time>
 <fix>none</fix>
 <sat>0</sat>
</trkpt>
<trkpt lat="31.723526667" lon="34.977140000">
<time>2013-04-01T07:34:29Z</time>
 <fix>none</fix>
 <sat>0</sat>
</trkpt>
<trkpt lat="31.723488333" lon="34.977141667">
<time>2013-04-01T07:34:31Z</time>
 <fix>none</fix>
 <sat>0</sat>
</trkpt>
<trkpt lat="31.723458333" lon="34.977146667">
<time>2013-04-01T07:34:33Z</time>
 <fix>none</fix>
 <sat>0</sat>
</trkpt>
<trkpt lat="31.723423333" lon="34.977146667">
<time>2013-04-01T07:34:35Z</time>
 <fix>none</fix>
 <sat>0</sat>
</trkpt>
<trkpt lat="31.723385000" lon="34.977146667">
<time>2013-04-01T07:34:37Z</time>
 <fix>none</fix>
 <sat>0</sat>
</trkpt>
<trkpt lat="31.723346667" lon="34.977151667">
<time>2013-04-01T07:34:39Z</time>
 <fix>none</fix>
 <sat>0</sat>
</trkpt>
<trkpt lat="31.723308333" lon="34.977156667">
<time>2013-04-01T07:34:41Z</time>
 <fix>none</fix>
 <sat>0</sat>
</trkpt>
<trkpt lat="31.723290000" lon="34.977161667">
<time>2013-04-01T07:34:43Z</time>
 <fix>none</fix>
 <sat>0</sat>
</trkpt>
<trkpt lat="31.723255000" lon="34.977170000">
<time>2013-04-01T07:34:45Z</time>
 <fix>none</fix>
 <sat>0</sat>
</trkpt>
<trkpt lat="31.723220000" lon="34.977176667">
<time>2013-04-01T07:34:47Z</time>
 <fix>none</fix>
 <sat>0</sat>
</trkpt>
<trkpt lat="31.723171667" lon="34.977188333">
<time>2013-04-01T07:34:49Z</time>
 <fix>none</fix>
 <sat>0</sat>
</trkpt>
<trkpt lat="31.723136667" lon="34.977190000">
<time>2013-04-01T07:34:51Z</time>
 <fix>none</fix>
 <sat>0</sat>
</trkpt>
<trkpt lat="31.723096667" lon="34.977200000">
<time>2013-04-01T07:34:53Z</time>
 <fix>none</fix>
 <sat>0</sat>
</trkpt>
<trkpt lat="31.723056667" lon="34.977201667">
<time>2013-04-01T07:34:55Z</time>
 <fix>none</fix>
 <sat>0</sat>
</trkpt>
<trkpt lat="31.723018333" lon="34.977205000">
<time>2013-04-01T07:34:57Z</time>
 <fix>none</fix>
 <sat>0</sat>
</trkpt>
<trkpt lat="31.722980000" lon="34.977211667">
<time>2013-04-01T07:34:59Z</time>
 <fix>none</fix>
 <sat>0</sat>
</trkpt>
<trkpt lat="31.722943333" lon="34.977220000">
<time>2013-04-01T07:35:01Z</time>
 <fix>none</fix>
 <sat>0</sat>
</trkpt>
<trkpt lat="31.722908333" lon="34.977223333">
<time>2013-04-01T07:35:03Z</time>
 <fix>none</fix>
 <sat>0</sat>
</trkpt>
<trkpt lat="31.722891667" lon="34.977226667">
<time>2013-04-01T07:35:05Z</time>
 <fix>none</fix>
 <sat>0</sat>
</trkpt>
<trkpt lat="31.722856667" lon="34.977236667">
<time>2013-04-01T07:35:07Z</time>
 <fix>none</fix>
 <sat>0</sat>
</trkpt>
<trkpt lat="31.722823333" lon="34.977243333">
<time>2013-04-01T07:35:09Z</time>
 <fix>none</fix>
 <sat>0</sat>
</trkpt>
<trkpt lat="31.722791667" lon="34.977248333">
<time>2013-04-01T07:35:11Z</time>
 <fix>none</fix>
 <sat>0</sat>
</trkpt>
<trkpt lat="31.722745000" lon="34.977248333">
<time>2013-04-01T07:35:13Z</time>
 <fix>none</fix>
 <sat>0</sat>
</trkpt>
<trkpt lat="31.722708333" lon="34.977245000">
<time>2013-04-01T07:35:15Z</time>
 <fix>none</fix>
 <sat>0</sat>
</trkpt>
<trkpt lat="31.722671667" lon="34.977245000">
<time>2013-04-01T07:35:17Z</time>
 <fix>none</fix>
 <sat>0</sat>
</trkpt>
<trkpt lat="31.722638333" lon="34.977248333">
<time>2013-04-01T07:35:19Z</time>
 <fix>none</fix>
 <sat>0</sat>
</trkpt>
<trkpt lat="31.722606667" lon="34.977255000">
<time>2013-04-01T07:35:21Z</time>
 <fix>none</fix>
 <sat>0</sat>
</trkpt>
<trkpt lat="31.722576667" lon="34.977263333">
<time>2013-04-01T07:35:23Z</time>
 <fix>none</fix>
 <sat>0</sat>
</trkpt>
<trkpt lat="31.722546667" lon="34.977265000">
<time>2013-04-01T07:35:25Z</time>
 <fix>none</fix>
 <sat>0</sat>
</trkpt>
<trkpt lat="31.722515000" lon="34.977263333">
<time>2013-04-01T07:35:27Z</time>
 <fix>none</fix>
 <sat>0</sat>
</trkpt>
<trkpt lat="31.722500000" lon="34.977261667">
<time>2013-04-01T07:35:29Z</time>
 <fix>none</fix>
 <sat>0</sat>
</trkpt>
<trkpt lat="31.722473333" lon="34.977258333">
<time>2013-04-01T07:35:31Z</time>
 <fix>none</fix>
 <sat>0</sat>
</trkpt>
<trkpt lat="31.722446667" lon="34.977256667">
<time>2013-04-01T07:35:33Z</time>
 <fix>none</fix>
 <sat>0</sat>
</trkpt>
<trkpt lat="31.722415000" lon="34.977243333">
<time>2013-04-01T07:35:35Z</time>
 <fix>none</fix>
 <sat>0</sat>
</trkpt>
<trkpt lat="31.722368333" lon="34.977220000">
<time>2013-04-01T07:35:37Z</time>
 <fix>none</fix>
 <sat>0</sat>
</trkpt>
<trkpt lat="31.722336667" lon="34.977208333">
<time>2013-04-01T07:35:39Z</time>
 <fix>none</fix>
 <sat>0</sat>
</trkpt>
<trkpt lat="31.722303333" lon="34.977196667">
<time>2013-04-01T07:35:41Z</time>
 <fix>none</fix>
 <sat>0</sat>
</trkpt>
<trkpt lat="31.722271667" lon="34.977183333">
<time>2013-04-01T07:35:43Z</time>
 <fix>none</fix>
 <sat>0</sat>
</trkpt>
<trkpt lat="31.722238333" lon="34.977171667">
<time>2013-04-01T07:35:45Z</time>
 <fix>none</fix>
 <sat>0</sat>
</trkpt>
<trkpt lat="31.722208333" lon="34.977165000">
<time>2013-04-01T07:35:47Z</time>
 <fix>none</fix>
 <sat>0</sat>
</trkpt>
<trkpt lat="31.722180000" lon="34.977150000">
<time>2013-04-01T07:35:49Z</time>
 <fix>none</fix>
 <sat>0</sat>
</trkpt>
<trkpt lat="31.722165000" lon="34.977140000">
<time>2013-04-01T07:35:51Z</time>
 <fix>none</fix>
 <sat>0</sat>
</trkpt>
<trkpt lat="31.722136667" lon="34.977121667">
<time>2013-04-01T07:35:53Z</time>
 <fix>none</fix>
 <sat>0</sat>
</trkpt>
<trkpt lat="31.722106667" lon="34.977100000">
<time>2013-04-01T07:35:55Z</time>
 <fix>none</fix>
 <sat>0</sat>
</trkpt>
<trkpt lat="31.722080000" lon="34.977081667">
<time>2013-04-01T07:35:57Z</time>
 <fix>none</fix>
 <sat>0</sat>
</trkpt>
<trkpt lat="31.722041667" lon="34.977053333">
<time>2013-04-01T07:35:59Z</time>
 <fix>none</fix>
 <sat>0</sat>
</trkpt>
<trkpt lat="31.722011667" lon="34.977030000">
<time>2013-04-01T07:36:01Z</time>
 <fix>none</fix>
 <sat>0</sat>
</trkpt>
<trkpt lat="31.721981667" lon="34.977010000">
<time>2013-04-01T07:36:03Z</time>
 <fix>none</fix>
 <sat>0</sat>
</trkpt>
<trkpt lat="31.721951667" lon="34.976991667">
<time>2013-04-01T07:36:05Z</time>
 <fix>none</fix>
 <sat>0</sat>
</trkpt>
<trkpt lat="31.721921667" lon="34.976981667">
<time>2013-04-01T07:36:07Z</time>
 <fix>none</fix>
 <sat>0</sat>
</trkpt>
<trkpt lat="31.721888333" lon="34.976965000">
<time>2013-04-01T07:36:09Z</time>
 <fix>none</fix>
 <sat>0</sat>
</trkpt>
<trkpt lat="31.721853333" lon="34.976951667">
<time>2013-04-01T07:36:11Z</time>
 <fix>none</fix>
 <sat>0</sat>
</trkpt>
<trkpt lat="31.721833333" lon="34.976950000">
<time>2013-04-01T07:36:13Z</time>
 <fix>none</fix>
 <sat>0</sat>
</trkpt>
<trkpt lat="31.721796667" lon="34.976953333">
<time>2013-04-01T07:36:15Z</time>
 <fix>none</fix>
 <sat>0</sat>
</trkpt>
<trkpt lat="31.721765000" lon="34.976958333">
<time>2013-04-01T07:36:17Z</time>
 <fix>none</fix>
 <sat>0</sat>
</trkpt>
<trkpt lat="31.721731667" lon="34.976970000">
<time>2013-04-01T07:36:19Z</time>
 <fix>none</fix>
 <sat>0</sat>
</trkpt>
<trkpt lat="31.721695000" lon="34.976976667">
<time>2013-04-01T07:36:21Z</time>
 <fix>none</fix>
 <sat>0</sat>
</trkpt>
<trkpt lat="31.721648333" lon="34.976986667">
<time>2013-04-01T07:36:23Z</time>
 <fix>none</fix>
 <sat>0</sat>
</trkpt>
<trkpt lat="31.721610000" lon="34.976993333">
<time>2013-04-01T07:36:25Z</time>
 <fix>none</fix>
 <sat>0</sat>
</trkpt>
<trkpt lat="31.721571667" lon="34.977005000">
<time>2013-04-01T07:36:27Z</time>
 <fix>none</fix>
 <sat>0</sat>
</trkpt>
<trkpt lat="31.721528333" lon="34.977018333">
<time>2013-04-01T07:36:29Z</time>
 <fix>none</fix>
 <sat>0</sat>
</trkpt>
<trkpt lat="31.721485000" lon="34.977036667">
<time>2013-04-01T07:36:31Z</time>
 <fix>none</fix>
 <sat>0</sat>
</trkpt>
<trkpt lat="31.721443333" lon="34.977053333">
<time>2013-04-01T07:36:33Z</time>
 <fix>none</fix>
 <sat>0</sat>
</trkpt>
<trkpt lat="31.721396667" lon="34.977070000">
<time>2013-04-01T07:36:35Z</time>
 <fix>none</fix>
 <sat>0</sat>
</trkpt>
<trkpt lat="31.721373333" lon="34.977078333">
<time>2013-04-01T07:36:37Z</time>
 <fix>none</fix>
 <sat>0</sat>
</trkpt>
<trkpt lat="31.721326667" lon="34.977090000">
<time>2013-04-01T07:36:39Z</time>
 <fix>none</fix>
 <sat>0</sat>
</trkpt>
<trkpt lat="31.721280000" lon="34.977088333">
<time>2013-04-01T07:36:41Z</time>
 <fix>none</fix>
 <sat>0</sat>
</trkpt>
<trkpt lat="31.721203333" lon="34.977111667">
<time>2013-04-01T07:36:43Z</time>
 <fix>none</fix>
 <sat>0</sat>
</trkpt>
<trkpt lat="31.721173333" lon="34.977118333">
<time>2013-04-01T07:36:45Z</time>
 <fix>none</fix>
 <sat>0</sat>
</trkpt>
<trkpt lat="31.721083333" lon="34.977140000">
<time>2013-04-01T07:36:47Z</time>
 <fix>none</fix>
 <sat>0</sat>
</trkpt>
<trkpt lat="31.721020000" lon="34.977148333">
<time>2013-04-01T07:36:49Z</time>
 <fix>none</fix>
 <sat>0</sat>
</trkpt>
<trkpt lat="31.720958333" lon="34.977161667">
<time>2013-04-01T07:36:51Z</time>
 <fix>none</fix>
 <sat>0</sat>
</trkpt>
<trkpt lat="31.720898333" lon="34.977175000">
<time>2013-04-01T07:36:53Z</time>
 <fix>none</fix>
 <sat>0</sat>
</trkpt>
<trkpt lat="31.720840000" lon="34.977178333">
<time>2013-04-01T07:36:55Z</time>
 <fix>none</fix>
 <sat>0</sat>
</trkpt>
<trkpt lat="31.720780000" lon="34.977175000">
<time>2013-04-01T07:36:57Z</time>
 <fix>none</fix>
 <sat>0</sat>
</trkpt>
<trkpt lat="31.720755000" lon="34.977168333">
<time>2013-04-01T07:36:59Z</time>
 <fix>none</fix>
 <sat>0</sat>
</trkpt>
<trkpt lat="31.720706667" lon="34.977155000">
<time>2013-04-01T07:37:01Z</time>
 <fix>none</fix>
 <sat>0</sat>
</trkpt>
<trkpt lat="31.720658333" lon="34.977148333">
<time>2013-04-01T07:37:03Z</time>
 <fix>none</fix>
 <sat>0</sat>
</trkpt>
<trkpt lat="31.720608333" lon="34.977143333">
<time>2013-04-01T07:37:05Z</time>
 <fix>none</fix>
 <sat>0</sat>
</trkpt>
<trkpt lat="31.720536667" lon="34.977126667">
<time>2013-04-01T07:37:07Z</time>
 <fix>none</fix>
 <sat>0</sat>
</trkpt>
<trkpt lat="31.720496667" lon="34.977121667">
<time>2013-04-01T07:37:09Z</time>
 <fix>none</fix>
 <sat>0</sat>
</trkpt>
<trkpt lat="31.720461667" lon="34.977113333">
<time>2013-04-01T07:37:11Z</time>
 <fix>none</fix>
 <sat>0</sat>
</trkpt>
<trkpt lat="31.720423333" lon="34.977106667">
<time>2013-04-01T07:37:13Z</time>
 <fix>none</fix>
 <sat>0</sat>
</trkpt>
<trkpt lat="31.720385000" lon="34.977105000">
<time>2013-04-01T07:37:15Z</time>
 <fix>none</fix>
 <sat>0</sat>
</trkpt>
<trkpt lat="31.720346667" lon="34.977093333">
<time>2013-04-01T07:37:17Z</time>
 <fix>none</fix>
 <sat>0</sat>
</trkpt>
<trkpt lat="31.720316667" lon="34.977068333">
<time>2013-04-01T07:37:19Z</time>
 <fix>none</fix>
 <sat>0</sat>
</trkpt>
<trkpt lat="31.720290000" lon="34.977040000">
<time>2013-04-01T07:37:21Z</time>
 <fix>none</fix>
 <sat>0</sat>
</trkpt>
<trkpt lat="31.720275000" lon="34.977028333">
<time>2013-04-01T07:37:23Z</time>
 <fix>none</fix>
 <sat>0</sat>
</trkpt>
<trkpt lat="31.720245000" lon="34.977005000">
<time>2013-04-01T07:37:25Z</time>
 <fix>none</fix>
 <sat>0</sat>
</trkpt>
<trkpt lat="31.720216667" lon="34.976978333">
<time>2013-04-01T07:37:27Z</time>
 <fix>none</fix>
 <sat>0</sat>
</trkpt>
<trkpt lat="31.720173333" lon="34.976930000">
<time>2013-04-01T07:37:29Z</time>
 <fix>none</fix>
 <sat>0</sat>
</trkpt>
<trkpt lat="31.720151667" lon="34.976895000">
<time>2013-04-01T07:37:31Z</time>
 <fix>none</fix>
 <sat>0</sat>
</trkpt>
<trkpt lat="31.720130000" lon="34.976871667">
<time>2013-04-01T07:37:33Z</time>
 <fix>none</fix>
 <sat>0</sat>
</trkpt>
<trkpt lat="31.720113333" lon="34.976851667">
<time>2013-04-01T07:37:35Z</time>
 <fix>none</fix>
 <sat>0</sat>
</trkpt>
<trkpt lat="31.720093333" lon="34.976828333">
<time>2013-04-01T07:37:37Z</time>
 <fix>none</fix>
 <sat>0</sat>
</trkpt>
<trkpt lat="31.720071667" lon="34.976800000">
<time>2013-04-01T07:37:39Z</time>
 <fix>none</fix>
 <sat>0</sat>
</trkpt>
<trkpt lat="31.720048333" lon="34.976765000">
<time>2013-04-01T07:37:41Z</time>
 <fix>none</fix>
 <sat>0</sat>
</trkpt>
<trkpt lat="31.720021667" lon="34.976731667">
<time>2013-04-01T07:37:43Z</time>
 <fix>none</fix>
 <sat>0</sat>
</trkpt>
<trkpt lat="31.720008333" lon="34.976713333">
<time>2013-04-01T07:37:45Z</time>
 <fix>none</fix>
 <sat>0</sat>
</trkpt>
<trkpt lat="31.719991667" lon="34.976675000">
<time>2013-04-01T07:37:47Z</time>
 <fix>none</fix>
 <sat>0</sat>
</trkpt>
<trkpt lat="31.719975000" lon="34.976641667">
<time>2013-04-01T07:37:49Z</time>
 <fix>none</fix>
 <sat>0</sat>
</trkpt>
<trkpt lat="31.719956667" lon="34.976616667">
<time>2013-04-01T07:37:51Z</time>
 <fix>none</fix>
 <sat>0</sat>
</trkpt>
<trkpt lat="31.719923333" lon="34.976563333">
<time>2013-04-01T07:37:53Z</time>
 <fix>none</fix>
 <sat>0</sat>
</trkpt>
<trkpt lat="31.719893333" lon="34.976515000">
<time>2013-04-01T07:37:55Z</time>
 <fix>none</fix>
 <sat>0</sat>
</trkpt>
<trkpt lat="31.719871667" lon="34.976476667">
<time>2013-04-01T07:37:57Z</time>
 <fix>none</fix>
 <sat>0</sat>
</trkpt>
<trkpt lat="31.719851667" lon="34.976440000">
<time>2013-04-01T07:37:59Z</time>
 <fix>none</fix>
 <sat>0</sat>
</trkpt>
<trkpt lat="31.719830000" lon="34.976390000">
<time>2013-04-01T07:38:01Z</time>
 <fix>none</fix>
 <sat>0</sat>
</trkpt>
<trkpt lat="31.719813333" lon="34.976345000">
<time>2013-04-01T07:38:03Z</time>
 <fix>none</fix>
 <sat>0</sat>
</trkpt>
<trkpt lat="31.719793333" lon="34.976323333">
<time>2013-04-01T07:38:05Z</time>
 <fix>none</fix>
 <sat>0</sat>
</trkpt>
<trkpt lat="31.719783333" lon="34.976311667">
<time>2013-04-01T07:38:07Z</time>
 <fix>none</fix>
 <sat>0</sat>
</trkpt>
<trkpt lat="31.719768333" lon="34.976276667">
<time>2013-04-01T07:38:09Z</time>
 <fix>none</fix>
 <sat>0</sat>
</trkpt>
<trkpt lat="31.719750000" lon="34.976240000">
<time>2013-04-01T07:38:11Z</time>
 <fix>none</fix>
 <sat>0</sat>
</trkpt>
<trkpt lat="31.719721667" lon="34.976195000">
<time>2013-04-01T07:38:13Z</time>
 <fix>none</fix>
 <sat>0</sat>
</trkpt>
<trkpt lat="31.719713333" lon="34.976180000">
<time>2013-04-01T07:38:15Z</time>
 <fix>none</fix>
 <sat>0</sat>
</trkpt>
<trkpt lat="31.719695000" lon="34.976133333">
<time>2013-04-01T07:38:17Z</time>
 <fix>none</fix>
 <sat>0</sat>
</trkpt>
<trkpt lat="31.719686667" lon="34.976106667">
<time>2013-04-01T07:38:19Z</time>
 <fix>none</fix>
 <sat>0</sat>
</trkpt>
<trkpt lat="31.719671667" lon="34.976093333">
<time>2013-04-01T07:38:21Z</time>
 <fix>none</fix>
 <sat>0</sat>
</trkpt>
<trkpt lat="31.719666667" lon="34.976080000">
<time>2013-04-01T07:38:23Z</time>
 <fix>none</fix>
 <sat>0</sat>
</trkpt>
<trkpt lat="31.719660000" lon="34.976056667">
<time>2013-04-01T07:38:25Z</time>
 <fix>none</fix>
 <sat>0</sat>
</trkpt>
<trkpt lat="31.719656667" lon="34.976023333">
<time>2013-04-01T07:38:27Z</time>
 <fix>none</fix>
 <sat>0</sat>
</trkpt>
<trkpt lat="31.719656667" lon="34.976001667">
<time>2013-04-01T07:38:29Z</time>
 <fix>none</fix>
 <sat>0</sat>
</trkpt>
<trkpt lat="31.719655000" lon="34.975996667">
<time>2013-04-01T07:38:31Z</time>
 <fix>none</fix>
 <sat>0</sat>
</trkpt>
<trkpt lat="31.719648333" lon="34.975976667">
<time>2013-04-01T07:38:33Z</time>
 <fix>none</fix>
 <sat>0</sat>
</trkpt>
<trkpt lat="31.719646667" lon="34.975971667">
<time>2013-04-01T07:38:35Z</time>
 <fix>none</fix>
 <sat>0</sat>
</trkpt>
<trkpt lat="31.719648333" lon="34.975966667">
<time>2013-04-01T07:38:37Z</time>
 <fix>none</fix>
 <sat>0</sat>
</trkpt>
<trkpt lat="31.719641667" lon="34.975956667">
<time>2013-04-01T07:38:39Z</time>
 <fix>none</fix>
 <sat>0</sat>
</trkpt>
<trkpt lat="31.719633333" lon="34.975933333">
<time>2013-04-01T07:38:41Z</time>
 <fix>none</fix>
 <sat>0</sat>
</trkpt>
<trkpt lat="31.719621667" lon="34.975903333">
<time>2013-04-01T07:38:43Z</time>
 <fix>none</fix>
 <sat>0</sat>
</trkpt>
<trkpt lat="31.719598333" lon="34.975880000">
<time>2013-04-01T07:38:45Z</time>
 <fix>none</fix>
 <sat>0</sat>
</trkpt>
<trkpt lat="31.719570000" lon="34.975858333">
<time>2013-04-01T07:38:47Z</time>
 <fix>none</fix>
 <sat>0</sat>
</trkpt>
<trkpt lat="31.719550000" lon="34.975831667">
<time>2013-04-01T07:38:49Z</time>
 <fix>none</fix>
 <sat>0</sat>
</trkpt>
<trkpt lat="31.719535000" lon="34.975798333">
<time>2013-04-01T07:38:51Z</time>
 <fix>none</fix>
 <sat>0</sat>
</trkpt>
<trkpt lat="31.719528333" lon="34.975783333">
<time>2013-04-01T07:38:53Z</time>
 <fix>none</fix>
 <sat>0</sat>
</trkpt>
<trkpt lat="31.719510000" lon="34.975758333">
<time>2013-04-01T07:38:55Z</time>
 <fix>none</fix>
 <sat>0</sat>
</trkpt>
<trkpt lat="31.719488333" lon="34.975736667">
<time>2013-04-01T07:38:57Z</time>
 <fix>none</fix>
 <sat>0</sat>
</trkpt>
<trkpt lat="31.719466667" lon="34.975718333">
<time>2013-04-01T07:38:59Z</time>
 <fix>none</fix>
 <sat>0</sat>
</trkpt>
<trkpt lat="31.719455000" lon="34.975713333">
<time>2013-04-01T07:39:01Z</time>
 <fix>none</fix>
 <sat>0</sat>
</trkpt>
<trkpt lat="31.719451667" lon="34.975701667">
<time>2013-04-01T07:39:03Z</time>
 <fix>none</fix>
 <sat>0</sat>
</trkpt>
<trkpt lat="31.719448333" lon="34.975696667">
<time>2013-04-01T07:39:05Z</time>
 <fix>none</fix>
 <sat>0</sat>
</trkpt>
<trkpt lat="31.719450000" lon="34.975700000">
<time>2013-04-01T07:39:07Z</time>
 <fix>none</fix>
 <sat>0</sat>
</trkpt>
<trkpt lat="31.719450000" lon="34.975701667">
<time>2013-04-01T07:39:09Z</time>
 <fix>none</fix>
 <sat>0</sat>
</trkpt>
<trkpt lat="31.719446667" lon="34.975700000">
<time>2013-04-01T07:39:11Z</time>
 <fix>none</fix>
 <sat>0</sat>
</trkpt>
<trkpt lat="31.719445000" lon="34.975696667">
<time>2013-04-01T07:39:13Z</time>
 <fix>none</fix>
 <sat>0</sat>
</trkpt>
<trkpt lat="31.719443333" lon="34.975696667">
<time>2013-04-01T07:39:15Z</time>
 <fix>none</fix>
 <sat>0</sat>
</trkpt>
<trkpt lat="31.719443333" lon="34.975696667">
<time>2013-04-01T07:39:17Z</time>
 <fix>none</fix>
 <sat>0</sat>
</trkpt>
<trkpt lat="31.719445000" lon="34.975696667">
<time>2013-04-01T07:39:19Z</time>
 <fix>none</fix>
 <sat>0</sat>
</trkpt>
<trkpt lat="31.719443333" lon="34.975698333">
<time>2013-04-01T07:39:21Z</time>
 <fix>none</fix>
 <sat>0</sat>
</trkpt>
<trkpt lat="31.719441667" lon="34.975693333">
<time>2013-04-01T07:39:23Z</time>
 <fix>none</fix>
 <sat>0</sat>
</trkpt>
<trkpt lat="31.719445000" lon="34.975686667">
<time>2013-04-01T07:39:25Z</time>
 <fix>none</fix>
 <sat>0</sat>
</trkpt>
<trkpt lat="31.719443333" lon="34.975676667">
<time>2013-04-01T07:39:27Z</time>
 <fix>none</fix>
 <sat>0</sat>
</trkpt>
<trkpt lat="31.719445000" lon="34.975673333">
<time>2013-04-01T07:39:29Z</time>
 <fix>none</fix>
 <sat>0</sat>
</trkpt>
<trkpt lat="31.719446667" lon="34.975671667">
<time>2013-04-01T07:39:31Z</time>
 <fix>none</fix>
 <sat>0</sat>
</trkpt>
<trkpt lat="31.719446667" lon="34.975673333">
<time>2013-04-01T07:39:33Z</time>
 <fix>none</fix>
 <sat>0</sat>
</trkpt>
<trkpt lat="31.719446667" lon="34.975673333">
<time>2013-04-01T07:39:35Z</time>
 <fix>none</fix>
 <sat>0</sat>
</trkpt>
<trkpt lat="31.719446667" lon="34.975675000">
<time>2013-04-01T07:39:37Z</time>
 <fix>none</fix>
 <sat>0</sat>
</trkpt>
<trkpt lat="31.719446667" lon="34.975673333">
<time>2013-04-01T07:39:39Z</time>
 <fix>none</fix>
 <sat>0</sat>
</trkpt>
<trkpt lat="31.719446667" lon="34.975673333">
<time>2013-04-01T07:39:41Z</time>
 <fix>none</fix>
 <sat>0</sat>
</trkpt>
<trkpt lat="31.719446667" lon="34.975673333">
<time>2013-04-01T07:39:43Z</time>
 <fix>none</fix>
 <sat>0</sat>
</trkpt>
<trkpt lat="31.719445000" lon="34.975673333">
<time>2013-04-01T07:39:45Z</time>
 <fix>none</fix>
 <sat>0</sat>
</trkpt>
<trkpt lat="31.719445000" lon="34.975671667">
<time>2013-04-01T07:39:47Z</time>
 <fix>none</fix>
 <sat>0</sat>
</trkpt>
<trkpt lat="31.719443333" lon="34.975673333">
<time>2013-04-01T07:39:49Z</time>
 <fix>none</fix>
 <sat>0</sat>
</trkpt>
<trkpt lat="31.719441667" lon="34.975675000">
<time>2013-04-01T07:39:51Z</time>
 <fix>none</fix>
 <sat>0</sat>
</trkpt>
<trkpt lat="31.719440000" lon="34.975676667">
<time>2013-04-01T07:39:53Z</time>
 <fix>none</fix>
 <sat>0</sat>
</trkpt>
<trkpt lat="31.719440000" lon="34.975678333">
<time>2013-04-01T07:39:55Z</time>
 <fix>none</fix>
 <sat>0</sat>
</trkpt>
<trkpt lat="31.719438333" lon="34.975678333">
<time>2013-04-01T07:39:57Z</time>
 <fix>none</fix>
 <sat>0</sat>
</trkpt>
<trkpt lat="31.719438333" lon="34.975678333">
<time>2013-04-01T07:39:59Z</time>
 <fix>none</fix>
 <sat>0</sat>
</trkpt>
<trkpt lat="31.719438333" lon="34.975678333">
<time>2013-04-01T07:40:01Z</time>
 <fix>none</fix>
 <sat>0</sat>
</trkpt>
<trkpt lat="31.719436667" lon="34.975680000">
<time>2013-04-01T07:40:03Z</time>
 <fix>none</fix>
 <sat>0</sat>
</trkpt>
<trkpt lat="31.719436667" lon="34.975680000">
<time>2013-04-01T07:40:05Z</time>
 <fix>none</fix>
 <sat>0</sat>
</trkpt>
<trkpt lat="31.719433333" lon="34.975680000">
<time>2013-04-01T07:40:07Z</time>
 <fix>none</fix>
 <sat>0</sat>
</trkpt>
<trkpt lat="31.719430000" lon="34.975680000">
<time>2013-04-01T07:40:09Z</time>
 <fix>none</fix>
 <sat>0</sat>
</trkpt>
<trkpt lat="31.719426667" lon="34.975681667">
<time>2013-04-01T07:40:11Z</time>
 <fix>none</fix>
 <sat>0</sat>
</trkpt>
<trkpt lat="31.719426667" lon="34.975683333">
<time>2013-04-01T07:40:13Z</time>
 <fix>none</fix>
 <sat>0</sat>
</trkpt>
<trkpt lat="31.719420000" lon="34.975691667">
<time>2013-04-01T07:40:15Z</time>
 <fix>none</fix>
 <sat>0</sat>
</trkpt>
<trkpt lat="31.719413333" lon="34.975698333">
<time>2013-04-01T07:40:17Z</time>
 <fix>none</fix>
 <sat>0</sat>
</trkpt>
<trkpt lat="31.719406667" lon="34.975700000">
<time>2013-04-01T07:40:19Z</time>
 <fix>none</fix>
 <sat>0</sat>
</trkpt>
<trkpt lat="31.719401667" lon="34.975696667">
<time>2013-04-01T07:40:21Z</time>
 <fix>none</fix>
 <sat>0</sat>
</trkpt>
<trkpt lat="31.719388333" lon="34.975686667">
<time>2013-04-01T07:40:23Z</time>
 <fix>none</fix>
 <sat>0</sat>
</trkpt>
<trkpt lat="31.719376667" lon="34.975680000">
<time>2013-04-01T07:40:25Z</time>
 <fix>none</fix>
 <sat>0</sat>
</trkpt>
<trkpt lat="31.719358333" lon="34.975671667">
<time>2013-04-01T07:40:27Z</time>
 <fix>none</fix>
 <sat>0</sat>
</trkpt>
<trkpt lat="31.719341667" lon="34.975671667">
<time>2013-04-01T07:40:29Z</time>
 <fix>none</fix>
 <sat>0</sat>
</trkpt>
<trkpt lat="31.719336667" lon="34.975663333">
<time>2013-04-01T07:40:31Z</time>
 <fix>none</fix>
 <sat>0</sat>
</trkpt>
<trkpt lat="31.719325000" lon="34.975648333">
<time>2013-04-01T07:40:33Z</time>
 <fix>none</fix>
 <sat>0</sat>
</trkpt>
<trkpt lat="31.719315000" lon="34.975618333">
<time>2013-04-01T07:40:35Z</time>
 <fix>none</fix>
 <sat>0</sat>
</trkpt>
<trkpt lat="31.719313333" lon="34.975590000">
<time>2013-04-01T07:40:37Z</time>
 <fix>none</fix>
 <sat>0</sat>
</trkpt>
<trkpt lat="31.719311667" lon="34.975571667">
<time>2013-04-01T07:40:39Z</time>
 <fix>none</fix>
 <sat>0</sat>
</trkpt>
<trkpt lat="31.719311667" lon="34.975570000">
<time>2013-04-01T07:40:41Z</time>
 <fix>none</fix>
 <sat>0</sat>
</trkpt>
<trkpt lat="31.719305000" lon="34.975568333">
<time>2013-04-01T07:40:43Z</time>
 <fix>none</fix>
 <sat>0</sat>
</trkpt>
<trkpt lat="31.719286667" lon="34.975551667">
<time>2013-04-01T07:40:45Z</time>
 <fix>none</fix>
 <sat>0</sat>
</trkpt>
<trkpt lat="31.719275000" lon="34.975548333">
<time>2013-04-01T07:40:47Z</time>
 <fix>none</fix>
 <sat>0</sat>
</trkpt>
<trkpt lat="31.719263333" lon="34.975546667">
<time>2013-04-01T07:40:49Z</time>
 <fix>none</fix>
 <sat>0</sat>
</trkpt>
<trkpt lat="31.719253333" lon="34.975543333">
<time>2013-04-01T07:40:51Z</time>
 <fix>none</fix>
 <sat>0</sat>
</trkpt>
<trkpt lat="31.719230000" lon="34.975533333">
<time>2013-04-01T07:40:53Z</time>
 <fix>none</fix>
 <sat>0</sat>
</trkpt>
<trkpt lat="31.719205000" lon="34.975528333">
<time>2013-04-01T07:40:55Z</time>
 <fix>none</fix>
 <sat>0</sat>
</trkpt>
<trkpt lat="31.719168333" lon="34.975513333">
<time>2013-04-01T07:40:57Z</time>
 <fix>none</fix>
 <sat>0</sat>
</trkpt>
<trkpt lat="31.719148333" lon="34.975498333">
<time>2013-04-01T07:40:59Z</time>
 <fix>none</fix>
 <sat>0</sat>
</trkpt>
<trkpt lat="31.719123333" lon="34.975483333">
<time>2013-04-01T07:41:01Z</time>
 <fix>none</fix>
 <sat>0</sat>
</trkpt>
<trkpt lat="31.719106667" lon="34.975470000">
<time>2013-04-01T07:41:03Z</time>
 <fix>none</fix>
 <sat>0</sat>
</trkpt>
<trkpt lat="31.719101667" lon="34.975466667">
<time>2013-04-01T07:41:05Z</time>
 <fix>none</fix>
 <sat>0</sat>
</trkpt>
<trkpt lat="31.719096667" lon="34.975470000">
<time>2013-04-01T07:41:07Z</time>
 <fix>none</fix>
 <sat>0</sat>
</trkpt>
<trkpt lat="31.719085000" lon="34.975461667">
<time>2013-04-01T07:41:09Z</time>
 <fix>none</fix>
 <sat>0</sat>
</trkpt>
<trkpt lat="31.719075000" lon="34.975456667">
<time>2013-04-01T07:41:11Z</time>
 <fix>none</fix>
 <sat>0</sat>
</trkpt>
<trkpt lat="31.719056667" lon="34.975448333">
<time>2013-04-01T07:41:13Z</time>
 <fix>none</fix>
 <sat>0</sat>
</trkpt>
<trkpt lat="31.719038333" lon="34.975446667">
<time>2013-04-01T07:41:15Z</time>
 <fix>none</fix>
 <sat>0</sat>
</trkpt>
<trkpt lat="31.719016667" lon="34.975445000">
<time>2013-04-01T07:41:17Z</time>
 <fix>none</fix>
 <sat>0</sat>
</trkpt>
<trkpt lat="31.719006667" lon="34.975443333">
<time>2013-04-01T07:41:19Z</time>
 <fix>none</fix>
 <sat>0</sat>
</trkpt>
<trkpt lat="31.718998333" lon="34.975436667">
<time>2013-04-01T07:41:21Z</time>
 <fix>none</fix>
 <sat>0</sat>
</trkpt>
<trkpt lat="31.718988333" lon="34.975431667">
<time>2013-04-01T07:41:23Z</time>
 <fix>none</fix>
 <sat>0</sat>
</trkpt>
<trkpt lat="31.718976667" lon="34.975423333">
<time>2013-04-01T07:41:25Z</time>
 <fix>none</fix>
 <sat>0</sat>
</trkpt>
<trkpt lat="31.718956667" lon="34.975413333">
<time>2013-04-01T07:41:27Z</time>
 <fix>none</fix>
 <sat>0</sat>
</trkpt>
<trkpt lat="31.718941667" lon="34.975410000">
<time>2013-04-01T07:41:29Z</time>
 <fix>none</fix>
 <sat>0</sat>
</trkpt>
<trkpt lat="31.718921667" lon="34.975406667">
<time>2013-04-01T07:41:31Z</time>
 <fix>none</fix>
 <sat>0</sat>
</trkpt>
<trkpt lat="31.718908333" lon="34.975401667">
<time>2013-04-01T07:41:33Z</time>
 <fix>none</fix>
 <sat>0</sat>
</trkpt>
<trkpt lat="31.718886667" lon="34.975390000">
<time>2013-04-01T07:41:35Z</time>
 <fix>none</fix>
 <sat>0</sat>
</trkpt>
<trkpt lat="31.718868333" lon="34.975373333">
<time>2013-04-01T07:41:37Z</time>
 <fix>none</fix>
 <sat>0</sat>
</trkpt>
<trkpt lat="31.718843333" lon="34.975336667">
<time>2013-04-01T07:41:39Z</time>
 <fix>none</fix>
 <sat>0</sat>
</trkpt>
<trkpt lat="31.718825000" lon="34.975318333">
<time>2013-04-01T07:41:41Z</time>
 <fix>none</fix>
 <sat>0</sat>
</trkpt>
<trkpt lat="31.718793333" lon="34.975308333">
<time>2013-04-01T07:41:43Z</time>
 <fix>none</fix>
 <sat>0</sat>
</trkpt>
<trkpt lat="31.718761667" lon="34.975293333">
<time>2013-04-01T07:41:45Z</time>
 <fix>none</fix>
 <sat>0</sat>
</trkpt>
<trkpt lat="31.718740000" lon="34.975281667">
<time>2013-04-01T07:41:47Z</time>
 <fix>none</fix>
 <sat>0</sat>
</trkpt>
<trkpt lat="31.718720000" lon="34.975275000">
<time>2013-04-01T07:41:49Z</time>
 <fix>none</fix>
 <sat>0</sat>
</trkpt>
<trkpt lat="31.718696667" lon="34.975273333">
<time>2013-04-01T07:41:51Z</time>
 <fix>none</fix>
 <sat>0</sat>
</trkpt>
<trkpt lat="31.718676667" lon="34.975271667">
<time>2013-04-01T07:41:53Z</time>
 <fix>none</fix>
 <sat>0</sat>
</trkpt>
<trkpt lat="31.718666667" lon="34.975266667">
<time>2013-04-01T07:41:55Z</time>
 <fix>none</fix>
 <sat>0</sat>
</trkpt>
<trkpt lat="31.718648333" lon="34.975260000">
<time>2013-04-01T07:41:57Z</time>
 <fix>none</fix>
 <sat>0</sat>
</trkpt>
<trkpt lat="31.718620000" lon="34.975253333">
<time>2013-04-01T07:41:59Z</time>
 <fix>none</fix>
 <sat>0</sat>
</trkpt>
<trkpt lat="31.718608333" lon="34.975248333">
<time>2013-04-01T07:42:01Z</time>
 <fix>none</fix>
 <sat>0</sat>
</trkpt>
<trkpt lat="31.718596667" lon="34.975245000">
<time>2013-04-01T07:42:03Z</time>
 <fix>none</fix>
 <sat>0</sat>
</trkpt>
<trkpt lat="31.718580000" lon="34.975240000">
<time>2013-04-01T07:42:05Z</time>
 <fix>none</fix>
 <sat>0</sat>
</trkpt>
<trkpt lat="31.718560000" lon="34.975238333">
<time>2013-04-01T07:42:07Z</time>
 <fix>none</fix>
 <sat>0</sat>
</trkpt>
<trkpt lat="31.718535000" lon="34.975223333">
<time>2013-04-01T07:42:09Z</time>
 <fix>none</fix>
 <sat>0</sat>
</trkpt>
<trkpt lat="31.718515000" lon="34.975205000">
<time>2013-04-01T07:42:11Z</time>
 <fix>none</fix>
 <sat>0</sat>
</trkpt>
<trkpt lat="31.718501667" lon="34.975200000">
<time>2013-04-01T07:42:13Z</time>
 <fix>none</fix>
 <sat>0</sat>
</trkpt>
<trkpt lat="31.718493333" lon="34.975193333">
<time>2013-04-01T07:42:15Z</time>
 <fix>none</fix>
 <sat>0</sat>
</trkpt>
<trkpt lat="31.718480000" lon="34.975191667">
<time>2013-04-01T07:42:17Z</time>
 <fix>none</fix>
 <sat>0</sat>
</trkpt>
<trkpt lat="31.718473333" lon="34.975190000">
<time>2013-04-01T07:42:19Z</time>
 <fix>none</fix>
 <sat>0</sat>
</trkpt>
<trkpt lat="31.718456667" lon="34.975185000">
<time>2013-04-01T07:42:21Z</time>
 <fix>none</fix>
 <sat>0</sat>
</trkpt>
<trkpt lat="31.718423333" lon="34.975185000">
<time>2013-04-01T07:42:23Z</time>
 <fix>none</fix>
 <sat>0</sat>
</trkpt>
<trkpt lat="31.718386667" lon="34.975198333">
<time>2013-04-01T07:42:25Z</time>
 <fix>none</fix>
 <sat>0</sat>
</trkpt>
<trkpt lat="31.718343333" lon="34.975201667">
<time>2013-04-01T07:42:27Z</time>
 <fix>none</fix>
 <sat>0</sat>
</trkpt>
<trkpt lat="31.718316667" lon="34.975190000">
<time>2013-04-01T07:42:29Z</time>
 <fix>none</fix>
 <sat>0</sat>
</trkpt>
<trkpt lat="31.718293333" lon="34.975180000">
<time>2013-04-01T07:42:31Z</time>
 <fix>none</fix>
 <sat>0</sat>
</trkpt>
<trkpt lat="31.718268333" lon="34.975180000">
<time>2013-04-01T07:42:33Z</time>
 <fix>none</fix>
 <sat>0</sat>
</trkpt>
<trkpt lat="31.718246667" lon="34.975173333">
<time>2013-04-01T07:42:35Z</time>
 <fix>none</fix>
 <sat>0</sat>
</trkpt>
<trkpt lat="31.718226667" lon="34.975165000">
<time>2013-04-01T07:42:37Z</time>
 <fix>none</fix>
 <sat>0</sat>
</trkpt>
<trkpt lat="31.718201667" lon="34.975161667">
<time>2013-04-01T07:42:39Z</time>
 <fix>none</fix>
 <sat>0</sat>
</trkpt>
<trkpt lat="31.718190000" lon="34.975161667">
<time>2013-04-01T07:42:41Z</time>
 <fix>none</fix>
 <sat>0</sat>
</trkpt>
<trkpt lat="31.718163333" lon="34.975165000">
<time>2013-04-01T07:42:43Z</time>
 <fix>none</fix>
 <sat>0</sat>
</trkpt>
<trkpt lat="31.718133333" lon="34.975170000">
<time>2013-04-01T07:42:45Z</time>
 <fix>none</fix>
 <sat>0</sat>
</trkpt>
<trkpt lat="31.718108333" lon="34.975173333">
<time>2013-04-01T07:42:47Z</time>
 <fix>none</fix>
 <sat>0</sat>
</trkpt>
<trkpt lat="31.718081667" lon="34.975153333">
<time>2013-04-01T07:42:49Z</time>
 <fix>none</fix>
 <sat>0</sat>
</trkpt>
<trkpt lat="31.718051667" lon="34.975123333">
<time>2013-04-01T07:42:51Z</time>
 <fix>none</fix>
 <sat>0</sat>
</trkpt>
<trkpt lat="31.718030000" lon="34.975081667">
<time>2013-04-01T07:42:53Z</time>
 <fix>none</fix>
 <sat>0</sat>
</trkpt>
<trkpt lat="31.718008333" lon="34.975020000">
<time>2013-04-01T07:42:55Z</time>
 <fix>none</fix>
 <sat>0</sat>
</trkpt>
<trkpt lat="31.717980000" lon="34.974981667">
<time>2013-04-01T07:42:57Z</time>
 <fix>none</fix>
 <sat>0</sat>
</trkpt>
<trkpt lat="31.717936667" lon="34.974973333">
<time>2013-04-01T07:42:59Z</time>
 <fix>none</fix>
 <sat>0</sat>
</trkpt>
<trkpt lat="31.717898333" lon="34.974988333">
<time>2013-04-01T07:43:01Z</time>
 <fix>none</fix>
 <sat>0</sat>
</trkpt>
<trkpt lat="31.717856667" lon="34.975010000">
<time>2013-04-01T07:43:03Z</time>
 <fix>none</fix>
 <sat>0</sat>
</trkpt>
<trkpt lat="31.717838333" lon="34.975020000">
<time>2013-04-01T07:43:05Z</time>
 <fix>none</fix>
 <sat>0</sat>
</trkpt>
<trkpt lat="31.717796667" lon="34.975011667">
<time>2013-04-01T07:43:07Z</time>
 <fix>none</fix>
 <sat>0</sat>
</trkpt>
<trkpt lat="31.717736667" lon="34.974950000">
<time>2013-04-01T07:43:09Z</time>
 <fix>none</fix>
 <sat>0</sat>
</trkpt>
<trkpt lat="31.717715000" lon="34.974901667">
<time>2013-04-01T07:43:11Z</time>
 <fix>none</fix>
 <sat>0</sat>
</trkpt>
<trkpt lat="31.717708333" lon="34.974885000">
<time>2013-04-01T07:43:13Z</time>
 <fix>none</fix>
 <sat>0</sat>
</trkpt>
<trkpt lat="31.717710000" lon="34.974883333">
<time>2013-04-01T07:43:15Z</time>
 <fix>none</fix>
 <sat>0</sat>
</trkpt>
<trkpt lat="31.717711667" lon="34.974883333">
<time>2013-04-01T07:43:17Z</time>
 <fix>none</fix>
 <sat>0</sat>
</trkpt>
<trkpt lat="31.717706667" lon="34.974881667">
<time>2013-04-01T07:43:19Z</time>
 <fix>none</fix>
 <sat>0</sat>
</trkpt>
<trkpt lat="31.717690000" lon="34.974871667">
<time>2013-04-01T07:43:21Z</time>
 <fix>none</fix>
 <sat>0</sat>
</trkpt>
<trkpt lat="31.717671667" lon="34.974838333">
<time>2013-04-01T07:43:23Z</time>
 <fix>none</fix>
 <sat>0</sat>
</trkpt>
<trkpt lat="31.717650000" lon="34.974791667">
<time>2013-04-01T07:43:25Z</time>
 <fix>none</fix>
 <sat>0</sat>
</trkpt>
<trkpt lat="31.717638333" lon="34.974768333">
<time>2013-04-01T07:43:27Z</time>
 <fix>none</fix>
 <sat>0</sat>
</trkpt>
<trkpt lat="31.717610000" lon="34.974726667">
<time>2013-04-01T07:43:29Z</time>
 <fix>none</fix>
 <sat>0</sat>
</trkpt>
<trkpt lat="31.717575000" lon="34.974683333">
<time>2013-04-01T07:43:31Z</time>
 <fix>none</fix>
 <sat>0</sat>
</trkpt>
<trkpt lat="31.717508333" lon="34.974615000">
<time>2013-04-01T07:43:33Z</time>
 <fix>none</fix>
 <sat>0</sat>
</trkpt>
<trkpt lat="31.717461667" lon="34.974565000">
<time>2013-04-01T07:43:35Z</time>
 <fix>none</fix>
 <sat>0</sat>
</trkpt>
<trkpt lat="31.717415000" lon="34.974516667">
<time>2013-04-01T07:43:37Z</time>
 <fix>none</fix>
 <sat>0</sat>
</trkpt>
<trkpt lat="31.717373333" lon="34.974468333">
<time>2013-04-01T07:43:39Z</time>
 <fix>none</fix>
 <sat>0</sat>
</trkpt>
<trkpt lat="31.717338333" lon="34.974420000">
<time>2013-04-01T07:43:41Z</time>
 <fix>none</fix>
 <sat>0</sat>
</trkpt>
<trkpt lat="31.717316667" lon="34.974365000">
<time>2013-04-01T07:43:43Z</time>
 <fix>none</fix>
 <sat>0</sat>
</trkpt>
<trkpt lat="31.717293333" lon="34.974303333">
<time>2013-04-01T07:43:45Z</time>
 <fix>none</fix>
 <sat>0</sat>
</trkpt>
<trkpt lat="31.717261667" lon="34.974250000">
<time>2013-04-01T07:43:47Z</time>
 <fix>none</fix>
 <sat>0</sat>
</trkpt>
<trkpt lat="31.717248333" lon="34.974231667">
<time>2013-04-01T07:43:49Z</time>
 <fix>none</fix>
 <sat>0</sat>
</trkpt>
<trkpt lat="31.717220000" lon="34.974203333">
<time>2013-04-01T07:43:51Z</time>
 <fix>none</fix>
 <sat>0</sat>
</trkpt>
<trkpt lat="31.717183333" lon="34.974151667">
<time>2013-04-01T07:43:53Z</time>
 <fix>none</fix>
 <sat>0</sat>
</trkpt>
<trkpt lat="31.717151667" lon="34.974090000">
<time>2013-04-01T07:43:55Z</time>
 <fix>none</fix>
 <sat>0</sat>
</trkpt>
<trkpt lat="31.717118333" lon="34.974025000">
<time>2013-04-01T07:43:57Z</time>
 <fix>none</fix>
 <sat>0</sat>
</trkpt>
<trkpt lat="31.717071667" lon="34.973921667">
<time>2013-04-01T07:43:59Z</time>
 <fix>none</fix>
 <sat>0</sat>
</trkpt>
<trkpt lat="31.717040000" lon="34.973856667">
<time>2013-04-01T07:44:01Z</time>
 <fix>none</fix>
 <sat>0</sat>
</trkpt>
<trkpt lat="31.717003333" lon="34.973791667">
<time>2013-04-01T07:44:03Z</time>
 <fix>none</fix>
 <sat>0</sat>
</trkpt>
<trkpt lat="31.716971667" lon="34.973723333">
<time>2013-04-01T07:44:05Z</time>
 <fix>none</fix>
 <sat>0</sat>
</trkpt>
<trkpt lat="31.716950000" lon="34.973651667">
<time>2013-04-01T07:44:07Z</time>
 <fix>none</fix>
 <sat>0</sat>
</trkpt>
<trkpt lat="31.716930000" lon="34.973570000">
<time>2013-04-01T07:44:09Z</time>
 <fix>none</fix>
 <sat>0</sat>
</trkpt>
<trkpt lat="31.716905000" lon="34.973488333">
<time>2013-04-01T07:44:11Z</time>
 <fix>none</fix>
 <sat>0</sat>
</trkpt>
<trkpt lat="31.716890000" lon="34.973450000">
<time>2013-04-01T07:44:13Z</time>
 <fix>none</fix>
 <sat>0</sat>
</trkpt>
<trkpt lat="31.716853333" lon="34.973375000">
<time>2013-04-01T07:44:15Z</time>
 <fix>none</fix>
 <sat>0</sat>
</trkpt>
<trkpt lat="31.716806667" lon="34.973311667">
<time>2013-04-01T07:44:17Z</time>
 <fix>none</fix>
 <sat>0</sat>
</trkpt>
<trkpt lat="31.716726667" lon="34.973231667">
<time>2013-04-01T07:44:19Z</time>
 <fix>none</fix>
 <sat>0</sat>
</trkpt>
<trkpt lat="31.716673333" lon="34.973181667">
<time>2013-04-01T07:44:21Z</time>
 <fix>none</fix>
 <sat>0</sat>
</trkpt>
<trkpt lat="31.716618333" lon="34.973135000">
<time>2013-04-01T07:44:23Z</time>
 <fix>none</fix>
 <sat>0</sat>
</trkpt>
<trkpt lat="31.716563333" lon="34.973103333">
<time>2013-04-01T07:44:25Z</time>
 <fix>none</fix>
 <sat>0</sat>
</trkpt>
<trkpt lat="31.716516667" lon="34.973095000">
<time>2013-04-01T07:44:27Z</time>
 <fix>none</fix>
 <sat>0</sat>
</trkpt>
<trkpt lat="31.716496667" lon="34.973083333">
<time>2013-04-01T07:44:29Z</time>
 <fix>none</fix>
 <sat>0</sat>
</trkpt>
<trkpt lat="31.716490000" lon="34.973073333">
<time>2013-04-01T07:44:31Z</time>
 <fix>none</fix>
 <sat>0</sat>
</trkpt>
<trkpt lat="31.716473333" lon="34.973048333">
<time>2013-04-01T07:44:33Z</time>
 <fix>none</fix>
 <sat>0</sat>
</trkpt>
<trkpt lat="31.716465000" lon="34.973038333">
<time>2013-04-01T07:44:35Z</time>
 <fix>none</fix>
 <sat>0</sat>
</trkpt>
<trkpt lat="31.716453333" lon="34.973023333">
<time>2013-04-01T07:44:37Z</time>
 <fix>none</fix>
 <sat>0</sat>
</trkpt>
<trkpt lat="31.716445000" lon="34.973018333">
<time>2013-04-01T07:44:39Z</time>
 <fix>none</fix>
 <sat>0</sat>
</trkpt>
<trkpt lat="31.716440000" lon="34.973016667">
<time>2013-04-01T07:44:41Z</time>
 <fix>none</fix>
 <sat>0</sat>
</trkpt>
<trkpt lat="31.716425000" lon="34.972993333">
<time>2013-04-01T07:44:43Z</time>
 <fix>none</fix>
 <sat>0</sat>
</trkpt>
<trkpt lat="31.716406667" lon="34.972966667">
<time>2013-04-01T07:44:45Z</time>
 <fix>none</fix>
 <sat>0</sat>
</trkpt>
<trkpt lat="31.716391667" lon="34.972938333">
<time>2013-04-01T07:44:47Z</time>
 <fix>none</fix>
 <sat>0</sat>
</trkpt>
<trkpt lat="31.716386667" lon="34.972925000">
<time>2013-04-01T07:44:49Z</time>
 <fix>none</fix>
 <sat>0</sat>
</trkpt>
<trkpt lat="31.716366667" lon="34.972885000">
<time>2013-04-01T07:44:51Z</time>
 <fix>none</fix>
 <sat>0</sat>
</trkpt>
<trkpt lat="31.716350000" lon="34.972863333">
<time>2013-04-01T07:44:53Z</time>
 <fix>none</fix>
 <sat>0</sat>
</trkpt>
<trkpt lat="31.716336667" lon="34.972845000">
<time>2013-04-01T07:44:55Z</time>
 <fix>none</fix>
 <sat>0</sat>
</trkpt>
<trkpt lat="31.716326667" lon="34.972825000">
<time>2013-04-01T07:44:57Z</time>
 <fix>none</fix>
 <sat>0</sat>
</trkpt>
<trkpt lat="31.716323333" lon="34.972816667">
<time>2013-04-01T07:44:59Z</time>
 <fix>none</fix>
 <sat>0</sat>
</trkpt>
<trkpt lat="31.716316667" lon="34.972808333">
<time>2013-04-01T07:45:01Z</time>
 <fix>none</fix>
 <sat>0</sat>
</trkpt>
<trkpt lat="31.716311667" lon="34.972793333">
<time>2013-04-01T07:45:03Z</time>
 <fix>none</fix>
 <sat>0</sat>
</trkpt>
<trkpt lat="31.716305000" lon="34.972781667">
<time>2013-04-01T07:45:05Z</time>
 <fix>none</fix>
 <sat>0</sat>
</trkpt>
<trkpt lat="31.716288333" lon="34.972751667">
<time>2013-04-01T07:45:07Z</time>
 <fix>none</fix>
 <sat>0</sat>
</trkpt>
<trkpt lat="31.716275000" lon="34.972745000">
<time>2013-04-01T07:45:09Z</time>
 <fix>none</fix>
 <sat>0</sat>
</trkpt>
<trkpt lat="31.716260000" lon="34.972746667">
<time>2013-04-01T07:45:11Z</time>
 <fix>none</fix>
 <sat>0</sat>
</trkpt>
<trkpt lat="31.716253333" lon="34.972736667">
<time>2013-04-01T07:45:13Z</time>
 <fix>none</fix>
 <sat>0</sat>
</trkpt>
<trkpt lat="31.716251667" lon="34.972711667">
<time>2013-04-01T07:45:15Z</time>
 <fix>none</fix>
 <sat>0</sat>
</trkpt>
<trkpt lat="31.716240000" lon="34.972693333">
<time>2013-04-01T07:45:17Z</time>
 <fix>none</fix>
 <sat>0</sat>
</trkpt>
<trkpt lat="31.716226667" lon="34.972681667">
<time>2013-04-01T07:45:19Z</time>
 <fix>none</fix>
 <sat>0</sat>
</trkpt>
<trkpt lat="31.716221667" lon="34.972676667">
<time>2013-04-01T07:45:21Z</time>
 <fix>none</fix>
 <sat>0</sat>
</trkpt>
<trkpt lat="31.716211667" lon="34.972668333">
<time>2013-04-01T07:45:23Z</time>
 <fix>none</fix>
 <sat>0</sat>
</trkpt>
<trkpt lat="31.716195000" lon="34.972665000">
<time>2013-04-01T07:45:25Z</time>
 <fix>none</fix>
 <sat>0</sat>
</trkpt>
<trkpt lat="31.716180000" lon="34.972661667">
<time>2013-04-01T07:45:27Z</time>
 <fix>none</fix>
 <sat>0</sat>
</trkpt>
<trkpt lat="31.716148333" lon="34.972665000">
<time>2013-04-01T07:45:29Z</time>
 <fix>none</fix>
 <sat>0</sat>
</trkpt>
<trkpt lat="31.716123333" lon="34.972665000">
<time>2013-04-01T07:45:31Z</time>
 <fix>none</fix>
 <sat>0</sat>
</trkpt>
<trkpt lat="31.716108333" lon="34.972665000">
<time>2013-04-01T07:45:33Z</time>
 <fix>none</fix>
 <sat>0</sat>
</trkpt>
<trkpt lat="31.716098333" lon="34.972665000">
<time>2013-04-01T07:45:35Z</time>
 <fix>none</fix>
 <sat>0</sat>
</trkpt>
<trkpt lat="31.716073333" lon="34.972670000">
<time>2013-04-01T07:45:37Z</time>
 <fix>none</fix>
 <sat>0</sat>
</trkpt>
<trkpt lat="31.716060000" lon="34.972675000">
<time>2013-04-01T07:45:39Z</time>
 <fix>none</fix>
 <sat>0</sat>
</trkpt>
<trkpt lat="31.716045000" lon="34.972681667">
<time>2013-04-01T07:45:41Z</time>
 <fix>none</fix>
 <sat>0</sat>
</trkpt>
<trkpt lat="31.716036667" lon="34.972683333">
<time>2013-04-01T07:45:43Z</time>
 <fix>none</fix>
 <sat>0</sat>
</trkpt>
<trkpt lat="31.716028333" lon="34.972685000">
<time>2013-04-01T07:45:45Z</time>
 <fix>none</fix>
 <sat>0</sat>
</trkpt>
<trkpt lat="31.716010000" lon="34.972685000">
<time>2013-04-01T07:45:47Z</time>
 <fix>none</fix>
 <sat>0</sat>
</trkpt>
<trkpt lat="31.716001667" lon="34.972680000">
<time>2013-04-01T07:45:49Z</time>
 <fix>none</fix>
 <sat>0</sat>
</trkpt>
<trkpt lat="31.715978333" lon="34.972658333">
<time>2013-04-01T07:45:51Z</time>
 <fix>none</fix>
 <sat>0</sat>
</trkpt>
<trkpt lat="31.715973333" lon="34.972643333">
<time>2013-04-01T07:45:53Z</time>
 <fix>none</fix>
 <sat>0</sat>
</trkpt>
<trkpt lat="31.715968333" lon="34.972628333">
<time>2013-04-01T07:45:55Z</time>
 <fix>none</fix>
 <sat>0</sat>
</trkpt>
<trkpt lat="31.715965000" lon="34.972620000">
<time>2013-04-01T07:45:57Z</time>
 <fix>none</fix>
 <sat>0</sat>
</trkpt>
<trkpt lat="31.715951667" lon="34.972598333">
<time>2013-04-01T07:45:59Z</time>
 <fix>none</fix>
 <sat>0</sat>
</trkpt>
<trkpt lat="31.715936667" lon="34.972595000">
<time>2013-04-01T07:46:01Z</time>
 <fix>none</fix>
 <sat>0</sat>
</trkpt>
<trkpt lat="31.715921667" lon="34.972596667">
<time>2013-04-01T07:46:03Z</time>
 <fix>none</fix>
 <sat>0</sat>
</trkpt>
<trkpt lat="31.715905000" lon="34.972606667">
<time>2013-04-01T07:46:05Z</time>
 <fix>none</fix>
 <sat>0</sat>
</trkpt>
<trkpt lat="31.715896667" lon="34.972613333">
<time>2013-04-01T07:46:07Z</time>
 <fix>none</fix>
 <sat>0</sat>
</trkpt>
<trkpt lat="31.715881667" lon="34.972623333">
<time>2013-04-01T07:46:09Z</time>
 <fix>none</fix>
 <sat>0</sat>
</trkpt>
<trkpt lat="31.715863333" lon="34.972626667">
<time>2013-04-01T07:46:11Z</time>
 <fix>none</fix>
 <sat>0</sat>
</trkpt>
<trkpt lat="31.715846667" lon="34.972625000">
<time>2013-04-01T07:46:13Z</time>
 <fix>none</fix>
 <sat>0</sat>
</trkpt>
<trkpt lat="31.715828333" lon="34.972641667">
<time>2013-04-01T07:46:15Z</time>
 <fix>none</fix>
 <sat>0</sat>
</trkpt>
<trkpt lat="31.715811667" lon="34.972665000">
<time>2013-04-01T07:46:17Z</time>
 <fix>none</fix>
 <sat>0</sat>
</trkpt>
<trkpt lat="31.715800000" lon="34.972691667">
<time>2013-04-01T07:46:19Z</time>
 <fix>none</fix>
 <sat>0</sat>
</trkpt>
<trkpt lat="31.715793333" lon="34.972703333">
<time>2013-04-01T07:46:21Z</time>
 <fix>none</fix>
 <sat>0</sat>
</trkpt>
<trkpt lat="31.715780000" lon="34.972726667">
<time>2013-04-01T07:46:23Z</time>
 <fix>none</fix>
 <sat>0</sat>
</trkpt>
<trkpt lat="31.715765000" lon="34.972751667">
<time>2013-04-01T07:46:25Z</time>
 <fix>none</fix>
 <sat>0</sat>
</trkpt>
<trkpt lat="31.715750000" lon="34.972766667">
<time>2013-04-01T07:46:27Z</time>
 <fix>none</fix>
 <sat>0</sat>
</trkpt>
<trkpt lat="31.715745000" lon="34.972775000">
<time>2013-04-01T07:46:29Z</time>
 <fix>none</fix>
 <sat>0</sat>
</trkpt>
<trkpt lat="31.715731667" lon="34.972793333">
<time>2013-04-01T07:46:31Z</time>
 <fix>none</fix>
 <sat>0</sat>
</trkpt>
<trkpt lat="31.715716667" lon="34.972808333">
<time>2013-04-01T07:46:33Z</time>
 <fix>none</fix>
 <sat>0</sat>
</trkpt>
<trkpt lat="31.715703333" lon="34.972821667">
<time>2013-04-01T07:46:35Z</time>
 <fix>none</fix>
 <sat>0</sat>
</trkpt>
<trkpt lat="31.715695000" lon="34.972828333">
<time>2013-04-01T07:46:37Z</time>
 <fix>none</fix>
 <sat>0</sat>
</trkpt>
<trkpt lat="31.715678333" lon="34.972840000">
<time>2013-04-01T07:46:39Z</time>
 <fix>none</fix>
 <sat>0</sat>
</trkpt>
<trkpt lat="31.715666667" lon="34.972850000">
<time>2013-04-01T07:46:41Z</time>
 <fix>none</fix>
 <sat>0</sat>
</trkpt>
<trkpt lat="31.715655000" lon="34.972858333">
<time>2013-04-01T07:46:43Z</time>
 <fix>none</fix>
 <sat>0</sat>
</trkpt>
<trkpt lat="31.715650000" lon="34.972868333">
<time>2013-04-01T07:46:45Z</time>
 <fix>none</fix>
 <sat>0</sat>
</trkpt>
<trkpt lat="31.715635000" lon="34.972875000">
<time>2013-04-01T07:46:47Z</time>
 <fix>none</fix>
 <sat>0</sat>
</trkpt>
<trkpt lat="31.715620000" lon="34.972880000">
<time>2013-04-01T07:46:49Z</time>
 <fix>none</fix>
 <sat>0</sat>
</trkpt>
<trkpt lat="31.715610000" lon="34.972885000">
<time>2013-04-01T07:46:51Z</time>
 <fix>none</fix>
 <sat>0</sat>
</trkpt>
<trkpt lat="31.715603333" lon="34.972891667">
<time>2013-04-01T07:46:53Z</time>
 <fix>none</fix>
 <sat>0</sat>
</trkpt>
<trkpt lat="31.715591667" lon="34.972905000">
<time>2013-04-01T07:46:55Z</time>
 <fix>none</fix>
 <sat>0</sat>
</trkpt>
<trkpt lat="31.715583333" lon="34.972918333">
<time>2013-04-01T07:46:57Z</time>
 <fix>none</fix>
 <sat>0</sat>
</trkpt>
<trkpt lat="31.715576667" lon="34.972931667">
<time>2013-04-01T07:46:59Z</time>
 <fix>none</fix>
 <sat>0</sat>
</trkpt>
<trkpt lat="31.715568333" lon="34.972935000">
<time>2013-04-01T07:47:01Z</time>
 <fix>none</fix>
 <sat>0</sat>
</trkpt>
<trkpt lat="31.715555000" lon="34.972936667">
<time>2013-04-01T07:47:03Z</time>
 <fix>none</fix>
 <sat>0</sat>
</trkpt>
<trkpt lat="31.715540000" lon="34.972946667">
<time>2013-04-01T07:47:05Z</time>
 <fix>none</fix>
 <sat>0</sat>
</trkpt>
<trkpt lat="31.715526667" lon="34.972953333">
<time>2013-04-01T07:47:07Z</time>
 <fix>none</fix>
 <sat>0</sat>
</trkpt>
<trkpt lat="31.715515000" lon="34.972968333">
<time>2013-04-01T07:47:09Z</time>
 <fix>none</fix>
 <sat>0</sat>
</trkpt>
<trkpt lat="31.715506667" lon="34.972985000">
<time>2013-04-01T07:47:11Z</time>
 <fix>none</fix>
 <sat>0</sat>
</trkpt>
<trkpt lat="31.715500000" lon="34.972996667">
<time>2013-04-01T07:47:13Z</time>
 <fix>none</fix>
 <sat>0</sat>
</trkpt>
<trkpt lat="31.715496667" lon="34.973000000">
<time>2013-04-01T07:47:15Z</time>
 <fix>none</fix>
 <sat>0</sat>
</trkpt>
<trkpt lat="31.715486667" lon="34.973011667">
<time>2013-04-01T07:47:17Z</time>
 <fix>none</fix>
 <sat>0</sat>
</trkpt>
<trkpt lat="31.715485000" lon="34.973018333">
<time>2013-04-01T07:47:19Z</time>
 <fix>none</fix>
 <sat>0</sat>
</trkpt>
<trkpt lat="31.715475000" lon="34.973035000">
<time>2013-04-01T07:47:21Z</time>
 <fix>none</fix>
 <sat>0</sat>
</trkpt>
<trkpt lat="31.715468333" lon="34.973038333">
<time>2013-04-01T07:47:23Z</time>
 <fix>none</fix>
 <sat>0</sat>
</trkpt>
<trkpt lat="31.715458333" lon="34.973046667">
<time>2013-04-01T07:47:25Z</time>
 <fix>none</fix>
 <sat>0</sat>
</trkpt>
<trkpt lat="31.715451667" lon="34.973051667">
<time>2013-04-01T07:47:27Z</time>
 <fix>none</fix>
 <sat>0</sat>
</trkpt>
<trkpt lat="31.715443333" lon="34.973048333">
<time>2013-04-01T07:47:29Z</time>
 <fix>none</fix>
 <sat>0</sat>
</trkpt>
<trkpt lat="31.715435000" lon="34.973031667">
<time>2013-04-01T07:47:31Z</time>
 <fix>none</fix>
 <sat>0</sat>
</trkpt>
<trkpt lat="31.715423333" lon="34.973021667">
<time>2013-04-01T07:47:33Z</time>
 <fix>none</fix>
 <sat>0</sat>
</trkpt>
<trkpt lat="31.715416667" lon="34.973020000">
<time>2013-04-01T07:47:35Z</time>
 <fix>none</fix>
 <sat>0</sat>
</trkpt>
<trkpt lat="31.715405000" lon="34.973020000">
<time>2013-04-01T07:47:37Z</time>
 <fix>none</fix>
 <sat>0</sat>
</trkpt>
<trkpt lat="31.715395000" lon="34.973025000">
<time>2013-04-01T07:47:39Z</time>
 <fix>none</fix>
 <sat>0</sat>
</trkpt>
<trkpt lat="31.715388333" lon="34.973040000">
<time>2013-04-01T07:47:41Z</time>
 <fix>none</fix>
 <sat>0</sat>
</trkpt>
<trkpt lat="31.715383333" lon="34.973056667">
<time>2013-04-01T07:47:43Z</time>
 <fix>none</fix>
 <sat>0</sat>
</trkpt>
<trkpt lat="31.715376667" lon="34.973075000">
<time>2013-04-01T07:47:45Z</time>
 <fix>none</fix>
 <sat>0</sat>
</trkpt>
<trkpt lat="31.715363333" lon="34.973098333">
<time>2013-04-01T07:47:47Z</time>
 <fix>none</fix>
 <sat>0</sat>
</trkpt>
<trkpt lat="31.715355000" lon="34.973118333">
<time>2013-04-01T07:47:49Z</time>
 <fix>none</fix>
 <sat>0</sat>
</trkpt>
<trkpt lat="31.715346667" lon="34.973136667">
<time>2013-04-01T07:47:51Z</time>
 <fix>none</fix>
 <sat>0</sat>
</trkpt>
<trkpt lat="31.715340000" lon="34.973155000">
<time>2013-04-01T07:47:53Z</time>
 <fix>none</fix>
 <sat>0</sat>
</trkpt>
<trkpt lat="31.715331667" lon="34.973176667">
<time>2013-04-01T07:47:55Z</time>
 <fix>none</fix>
 <sat>0</sat>
</trkpt>
<trkpt lat="31.715318333" lon="34.973203333">
<time>2013-04-01T07:47:57Z</time>
 <fix>none</fix>
 <sat>0</sat>
</trkpt>
<trkpt lat="31.715305000" lon="34.973223333">
<time>2013-04-01T07:47:59Z</time>
 <fix>none</fix>
 <sat>0</sat>
</trkpt>
<trkpt lat="31.715300000" lon="34.973231667">
<time>2013-04-01T07:48:01Z</time>
 <fix>none</fix>
 <sat>0</sat>
</trkpt>
<trkpt lat="31.715295000" lon="34.973241667">
<time>2013-04-01T07:48:03Z</time>
 <fix>none</fix>
 <sat>0</sat>
</trkpt>
<trkpt lat="31.715285000" lon="34.973255000">
<time>2013-04-01T07:48:05Z</time>
 <fix>none</fix>
 <sat>0</sat>
</trkpt>
<trkpt lat="31.715276667" lon="34.973265000">
<time>2013-04-01T07:48:07Z</time>
 <fix>none</fix>
 <sat>0</sat>
</trkpt>
<trkpt lat="31.715258333" lon="34.973286667">
<time>2013-04-01T07:48:09Z</time>
 <fix>none</fix>
 <sat>0</sat>
</trkpt>
<trkpt lat="31.715240000" lon="34.973305000">
<time>2013-04-01T07:48:11Z</time>
 <fix>none</fix>
 <sat>0</sat>
</trkpt>
<trkpt lat="31.715231667" lon="34.973330000">
<time>2013-04-01T07:48:13Z</time>
 <fix>none</fix>
 <sat>0</sat>
</trkpt>
<trkpt lat="31.715231667" lon="34.973358333">
<time>2013-04-01T07:48:15Z</time>
 <fix>none</fix>
 <sat>0</sat>
</trkpt>
<trkpt lat="31.715233333" lon="34.973378333">
<time>2013-04-01T07:48:17Z</time>
 <fix>none</fix>
 <sat>0</sat>
</trkpt>
<trkpt lat="31.715230000" lon="34.973401667">
<time>2013-04-01T07:48:19Z</time>
 <fix>none</fix>
 <sat>0</sat>
</trkpt>
<trkpt lat="31.715225000" lon="34.973426667">
<time>2013-04-01T07:48:21Z</time>
 <fix>none</fix>
 <sat>0</sat>
</trkpt>
<trkpt lat="31.715221667" lon="34.973438333">
<time>2013-04-01T07:48:23Z</time>
 <fix>none</fix>
 <sat>0</sat>
</trkpt>
<trkpt lat="31.715210000" lon="34.973461667">
<time>2013-04-01T07:48:25Z</time>
 <fix>none</fix>
 <sat>0</sat>
</trkpt>
<trkpt lat="31.715193333" lon="34.973488333">
<time>2013-04-01T07:48:27Z</time>
 <fix>none</fix>
 <sat>0</sat>
</trkpt>
<trkpt lat="31.715181667" lon="34.973516667">
<time>2013-04-01T07:48:29Z</time>
 <fix>none</fix>
 <sat>0</sat>
</trkpt>
<trkpt lat="31.715175000" lon="34.973551667">
<time>2013-04-01T07:48:31Z</time>
 <fix>none</fix>
 <sat>0</sat>
</trkpt>
<trkpt lat="31.715171667" lon="34.973575000">
<time>2013-04-01T07:48:33Z</time>
 <fix>none</fix>
 <sat>0</sat>
</trkpt>
<trkpt lat="31.715170000" lon="34.973591667">
<time>2013-04-01T07:48:35Z</time>
 <fix>none</fix>
 <sat>0</sat>
</trkpt>
<trkpt lat="31.715165000" lon="34.973596667">
<time>2013-04-01T07:48:37Z</time>
 <fix>none</fix>
 <sat>0</sat>
</trkpt>
<trkpt lat="31.715143333" lon="34.973621667">
<time>2013-04-01T07:48:39Z</time>
 <fix>none</fix>
 <sat>0</sat>
</trkpt>
<trkpt lat="31.715128333" lon="34.973626667">
<time>2013-04-01T07:48:41Z</time>
 <fix>none</fix>
 <sat>0</sat>
</trkpt>
<trkpt lat="31.715110000" lon="34.973611667">
<time>2013-04-01T07:48:43Z</time>
 <fix>none</fix>
 <sat>0</sat>
</trkpt>
<trkpt lat="31.715098333" lon="34.973588333">
<time>2013-04-01T07:48:45Z</time>
 <fix>none</fix>
 <sat>0</sat>
</trkpt>
<trkpt lat="31.715098333" lon="34.973588333">
<time>2013-04-01T07:48:47Z</time>
 <fix>none</fix>
 <sat>0</sat>
</trkpt>
<trkpt lat="31.715085000" lon="34.973565000">
<time>2013-04-01T07:48:49Z</time>
 <fix>none</fix>
 <sat>0</sat>
</trkpt>
<trkpt lat="31.715070000" lon="34.973548333">
<time>2013-04-01T07:48:51Z</time>
 <fix>none</fix>
 <sat>0</sat>
</trkpt>
<trkpt lat="31.715060000" lon="34.973536667">
<time>2013-04-01T07:48:53Z</time>
 <fix>none</fix>
 <sat>0</sat>
</trkpt>
<trkpt lat="31.715048333" lon="34.973530000">
<time>2013-04-01T07:48:55Z</time>
 <fix>none</fix>
 <sat>0</sat>
</trkpt>
<trkpt lat="31.715033333" lon="34.973523333">
<time>2013-04-01T07:48:57Z</time>
 <fix>none</fix>
 <sat>0</sat>
</trkpt>
<trkpt lat="31.715030000" lon="34.973518333">
<time>2013-04-01T07:48:59Z</time>
 <fix>none</fix>
 <sat>0</sat>
</trkpt>
<trkpt lat="31.715018333" lon="34.973496667">
<time>2013-04-01T07:49:01Z</time>
 <fix>none</fix>
 <sat>0</sat>
</trkpt>
<trkpt lat="31.715003333" lon="34.973446667">
<time>2013-04-01T07:49:03Z</time>
 <fix>none</fix>
 <sat>0</sat>
</trkpt>
<trkpt lat="31.714990000" lon="34.973390000">
<time>2013-04-01T07:49:05Z</time>
 <fix>none</fix>
 <sat>0</sat>
</trkpt>
<trkpt lat="31.714961667" lon="34.973363333">
<time>2013-04-01T07:49:07Z</time>
 <fix>none</fix>
 <sat>0</sat>
</trkpt>
<trkpt lat="31.714943333" lon="34.973365000">
<time>2013-04-01T07:49:09Z</time>
 <fix>none</fix>
 <sat>0</sat>
</trkpt>
<trkpt lat="31.714910000" lon="34.973396667">
<time>2013-04-01T07:49:11Z</time>
 <fix>none</fix>
 <sat>0</sat>
</trkpt>
<trkpt lat="31.714875000" lon="34.973448333">
<time>2013-04-01T07:49:13Z</time>
 <fix>none</fix>
 <sat>0</sat>
</trkpt>
<trkpt lat="31.714828333" lon="34.973511667">
<time>2013-04-01T07:49:15Z</time>
 <fix>none</fix>
 <sat>0</sat>
</trkpt>
<trkpt lat="31.714748333" lon="34.973595000">
<time>2013-04-01T07:49:17Z</time>
 <fix>none</fix>
 <sat>0</sat>
</trkpt>
<trkpt lat="31.714706667" lon="34.973633333">
<time>2013-04-01T07:49:19Z</time>
 <fix>none</fix>
 <sat>0</sat>
</trkpt>
<trkpt lat="31.714706667" lon="34.973633333">
<time>2013-04-01T07:49:21Z</time>
 <fix>none</fix>
 <sat>0</sat>
</trkpt>
<trkpt lat="31.714691667" lon="34.973648333">
<time>2013-04-01T07:49:23Z</time>
 <fix>none</fix>
 <sat>0</sat>
</trkpt>
<trkpt lat="31.714688333" lon="34.973653333">
<time>2013-04-01T07:49:25Z</time>
 <fix>none</fix>
 <sat>0</sat>
</trkpt>
<trkpt lat="31.714690000" lon="34.973653333">
<time>2013-04-01T07:49:27Z</time>
 <fix>none</fix>
 <sat>0</sat>
</trkpt>
<trkpt lat="31.714688333" lon="34.973655000">
<time>2013-04-01T07:49:29Z</time>
 <fix>none</fix>
 <sat>0</sat>
</trkpt>
<trkpt lat="31.714683333" lon="34.973653333">
<time>2013-04-01T07:49:31Z</time>
 <fix>none</fix>
 <sat>0</sat>
</trkpt>
<trkpt lat="31.714661667" lon="34.973658333">
<time>2013-04-01T07:49:33Z</time>
 <fix>none</fix>
 <sat>0</sat>
</trkpt>
<trkpt lat="31.714655000" lon="34.973660000">
<time>2013-04-01T07:49:35Z</time>
 <fix>none</fix>
 <sat>0</sat>
</trkpt>
<trkpt lat="31.714643333" lon="34.973660000">
<time>2013-04-01T07:49:37Z</time>
 <fix>none</fix>
 <sat>0</sat>
</trkpt>
<trkpt lat="31.714620000" lon="34.973653333">
<time>2013-04-01T07:49:39Z</time>
 <fix>none</fix>
 <sat>0</sat>
</trkpt>
<trkpt lat="31.714610000" lon="34.973650000">
<time>2013-04-01T07:49:41Z</time>
 <fix>none</fix>
 <sat>0</sat>
</trkpt>
<trkpt lat="31.714600000" lon="34.973650000">
<time>2013-04-01T07:49:43Z</time>
 <fix>none</fix>
 <sat>0</sat>
</trkpt>
<trkpt lat="31.714591667" lon="34.973651667">
<time>2013-04-01T07:49:45Z</time>
 <fix>none</fix>
 <sat>0</sat>
</trkpt>
<trkpt lat="31.714586667" lon="34.973651667">
<time>2013-04-01T07:49:47Z</time>
 <fix>none</fix>
 <sat>0</sat>
</trkpt>
<trkpt lat="31.714573333" lon="34.973631667">
<time>2013-04-01T07:49:49Z</time>
 <fix>none</fix>
 <sat>0</sat>
</trkpt>
<trkpt lat="31.714565000" lon="34.973625000">
<time>2013-04-01T07:49:51Z</time>
 <fix>none</fix>
 <sat>0</sat>
</trkpt>
<trkpt lat="31.714558333" lon="34.973623333">
<time>2013-04-01T07:49:53Z</time>
 <fix>none</fix>
 <sat>0</sat>
</trkpt>
<trkpt lat="31.714555000" lon="34.973621667">
<time>2013-04-01T07:49:55Z</time>
 <fix>none</fix>
 <sat>0</sat>
</trkpt>
<trkpt lat="31.714546667" lon="34.973621667">
<time>2013-04-01T07:49:57Z</time>
 <fix>none</fix>
 <sat>0</sat>
</trkpt>
<trkpt lat="31.714535000" lon="34.973625000">
<time>2013-04-01T07:49:59Z</time>
 <fix>none</fix>
 <sat>0</sat>
</trkpt>
<trkpt lat="31.714516667" lon="34.973625000">
<time>2013-04-01T07:50:01Z</time>
 <fix>none</fix>
 <sat>0</sat>
</trkpt>
<trkpt lat="31.714481667" lon="34.973616667">
<time>2013-04-01T07:50:03Z</time>
 <fix>none</fix>
 <sat>0</sat>
</trkpt>
<trkpt lat="31.714461667" lon="34.973611667">
<time>2013-04-01T07:50:05Z</time>
 <fix>none</fix>
 <sat>0</sat>
</trkpt>
<trkpt lat="31.714441667" lon="34.973608333">
<time>2013-04-01T07:50:07Z</time>
 <fix>none</fix>
 <sat>0</sat>
</trkpt>
<trkpt lat="31.714428333" lon="34.973601667">
<time>2013-04-01T07:50:09Z</time>
 <fix>none</fix>
 <sat>0</sat>
</trkpt>
<trkpt lat="31.714426667" lon="34.973593333">
<time>2013-04-01T07:50:11Z</time>
 <fix>none</fix>
 <sat>0</sat>
</trkpt>
<trkpt lat="31.714428333" lon="34.973586667">
<time>2013-04-01T07:50:13Z</time>
 <fix>none</fix>
 <sat>0</sat>
</trkpt>
<trkpt lat="31.714430000" lon="34.973585000">
<time>2013-04-01T07:50:15Z</time>
 <fix>none</fix>
 <sat>0</sat>
</trkpt>
<trkpt lat="31.714430000" lon="34.973583333">
<time>2013-04-01T07:50:17Z</time>
 <fix>none</fix>
 <sat>0</sat>
</trkpt>
<trkpt lat="31.714430000" lon="34.973581667">
<time>2013-04-01T07:50:19Z</time>
 <fix>none</fix>
 <sat>0</sat>
</trkpt>
<trkpt lat="31.714431667" lon="34.973580000">
<time>2013-04-01T07:50:21Z</time>
 <fix>none</fix>
 <sat>0</sat>
</trkpt>
<trkpt lat="31.714435000" lon="34.973580000">
<time>2013-04-01T07:50:23Z</time>
 <fix>none</fix>
 <sat>0</sat>
</trkpt>
<trkpt lat="31.714433333" lon="34.973578333">
<time>2013-04-01T07:50:25Z</time>
 <fix>none</fix>
 <sat>0</sat>
</trkpt>
<trkpt lat="31.714438333" lon="34.973576667">
<time>2013-04-01T07:50:27Z</time>
 <fix>none</fix>
 <sat>0</sat>
</trkpt>
<trkpt lat="31.714446667" lon="34.973571667">
<time>2013-04-01T07:50:29Z</time>
 <fix>none</fix>
 <sat>0</sat>
</trkpt>
<trkpt lat="31.714446667" lon="34.973571667">
<time>2013-04-01T07:50:31Z</time>
 <fix>none</fix>
 <sat>0</sat>
</trkpt>
<trkpt lat="31.714450000" lon="34.973570000">
<time>2013-04-01T07:50:33Z</time>
 <fix>none</fix>
 <sat>0</sat>
</trkpt>
<trkpt lat="31.714450000" lon="34.973570000">
<time>2013-04-01T07:50:35Z</time>
 <fix>none</fix>
 <sat>0</sat>
</trkpt>
<trkpt lat="31.714451667" lon="34.973560000">
<time>2013-04-01T07:50:37Z</time>
 <fix>none</fix>
 <sat>0</sat>
</trkpt>
<trkpt lat="31.714451667" lon="34.973560000">
<time>2013-04-01T07:50:39Z</time>
 <fix>none</fix>
 <sat>0</sat>
</trkpt>
<trkpt lat="31.714450000" lon="34.973556667">
<time>2013-04-01T07:50:41Z</time>
 <fix>none</fix>
 <sat>0</sat>
</trkpt>
<trkpt lat="31.714441667" lon="34.973550000">
<time>2013-04-01T07:50:43Z</time>
 <fix>none</fix>
 <sat>0</sat>
</trkpt>
<trkpt lat="31.714416667" lon="34.973546667">
<time>2013-04-01T07:50:45Z</time>
 <fix>none</fix>
 <sat>0</sat>
</trkpt>
<trkpt lat="31.714365000" lon="34.973566667">
<time>2013-04-01T07:50:47Z</time>
 <fix>none</fix>
 <sat>0</sat>
</trkpt>
<trkpt lat="31.714323333" lon="34.973570000">
<time>2013-04-01T07:50:49Z</time>
 <fix>none</fix>
 <sat>0</sat>
</trkpt>
<trkpt lat="31.714290000" lon="34.973551667">
<time>2013-04-01T07:50:51Z</time>
 <fix>none</fix>
 <sat>0</sat>
</trkpt>
<trkpt lat="31.714270000" lon="34.973516667">
<time>2013-04-01T07:50:53Z</time>
 <fix>none</fix>
 <sat>0</sat>
</trkpt>
<trkpt lat="31.714260000" lon="34.973471667">
<time>2013-04-01T07:50:55Z</time>
 <fix>none</fix>
 <sat>0</sat>
</trkpt>
<trkpt lat="31.714255000" lon="34.973423333">
<time>2013-04-01T07:50:57Z</time>
 <fix>none</fix>
 <sat>0</sat>
</trkpt>
<trkpt lat="31.714250000" lon="34.973411667">
<time>2013-04-01T07:50:59Z</time>
 <fix>none</fix>
 <sat>0</sat>
</trkpt>
<trkpt lat="31.714250000" lon="34.973411667">
<time>2013-04-01T07:51:01Z</time>
 <fix>none</fix>
 <sat>0</sat>
</trkpt>
<trkpt lat="31.714246667" lon="34.973408333">
<time>2013-04-01T07:51:03Z</time>
 <fix>none</fix>
 <sat>0</sat>
</trkpt>
<trkpt lat="31.714246667" lon="34.973406667">
<time>2013-04-01T07:51:05Z</time>
 <fix>none</fix>
 <sat>0</sat>
</trkpt>
<trkpt lat="31.714245000" lon="34.973403333">
<time>2013-04-01T07:51:07Z</time>
 <fix>none</fix>
 <sat>0</sat>
</trkpt>
<trkpt lat="31.714243333" lon="34.973401667">
<time>2013-04-01T07:51:09Z</time>
 <fix>none</fix>
 <sat>0</sat>
</trkpt>
<trkpt lat="31.714245000" lon="34.973403333">
<time>2013-04-01T07:51:11Z</time>
 <fix>none</fix>
 <sat>0</sat>
</trkpt>
<trkpt lat="31.714246667" lon="34.973400000">
<time>2013-04-01T07:51:13Z</time>
 <fix>none</fix>
 <sat>0</sat>
</trkpt>
<trkpt lat="31.714246667" lon="34.973398333">
<time>2013-04-01T07:51:15Z</time>
 <fix>none</fix>
 <sat>0</sat>
</trkpt>
<trkpt lat="31.714250000" lon="34.973398333">
<time>2013-04-01T07:51:17Z</time>
 <fix>none</fix>
 <sat>0</sat>
</trkpt>
<trkpt lat="31.714248333" lon="34.973401667">
<time>2013-04-01T07:51:19Z</time>
 <fix>none</fix>
 <sat>0</sat>
</trkpt>
<trkpt lat="31.714248333" lon="34.973405000">
<time>2013-04-01T07:51:21Z</time>
 <fix>none</fix>
 <sat>0</sat>
</trkpt>
<trkpt lat="31.714246667" lon="34.973405000">
<time>2013-04-01T07:51:23Z</time>
 <fix>none</fix>
 <sat>0</sat>
</trkpt>
<trkpt lat="31.714246667" lon="34.973405000">
<time>2013-04-01T07:51:25Z</time>
 <fix>none</fix>
 <sat>0</sat>
</trkpt>
<trkpt lat="31.714245000" lon="34.973408333">
<time>2013-04-01T07:51:27Z</time>
 <fix>none</fix>
 <sat>0</sat>
</trkpt>
<trkpt lat="31.714241667" lon="34.973410000">
<time>2013-04-01T07:51:29Z</time>
 <fix>none</fix>
 <sat>0</sat>
</trkpt>
<trkpt lat="31.714236667" lon="34.973418333">
<time>2013-04-01T07:51:31Z</time>
 <fix>none</fix>
 <sat>0</sat>
</trkpt>
<trkpt lat="31.714235000" lon="34.973420000">
<time>2013-04-01T07:51:33Z</time>
 <fix>none</fix>
 <sat>0</sat>
</trkpt>
<trkpt lat="31.714236667" lon="34.973418333">
<time>2013-04-01T07:51:35Z</time>
 <fix>none</fix>
 <sat>0</sat>
</trkpt>
<trkpt lat="31.714235000" lon="34.973425000">
<time>2013-04-01T07:51:37Z</time>
 <fix>none</fix>
 <sat>0</sat>
</trkpt>
<trkpt lat="31.714241667" lon="34.973416667">
<time>2013-04-01T07:51:39Z</time>
 <fix>none</fix>
 <sat>0</sat>
</trkpt>
<trkpt lat="31.714245000" lon="34.973413333">
<time>2013-04-01T07:51:41Z</time>
 <fix>none</fix>
 <sat>0</sat>
</trkpt>
<trkpt lat="31.714245000" lon="34.973413333">
<time>2013-04-01T07:51:43Z</time>
 <fix>none</fix>
 <sat>0</sat>
</trkpt>
<trkpt lat="31.714250000" lon="34.973405000">
<time>2013-04-01T07:51:45Z</time>
 <fix>none</fix>
 <sat>0</sat>
</trkpt>
<trkpt lat="31.714253333" lon="34.973401667">
<time>2013-04-01T07:51:47Z</time>
 <fix>none</fix>
 <sat>0</sat>
</trkpt>
<trkpt lat="31.714253333" lon="34.973401667">
<time>2013-04-01T07:51:49Z</time>
 <fix>none</fix>
 <sat>0</sat>
</trkpt>
<trkpt lat="31.714251667" lon="34.973401667">
<time>2013-04-01T07:51:51Z</time>
 <fix>none</fix>
 <sat>0</sat>
</trkpt>
<trkpt lat="31.714253333" lon="34.973401667">
<time>2013-04-01T07:51:53Z</time>
 <fix>none</fix>
 <sat>0</sat>
</trkpt>
<trkpt lat="31.714256667" lon="34.973401667">
<time>2013-04-01T07:51:55Z</time>
 <fix>none</fix>
 <sat>0</sat>
</trkpt>
<trkpt lat="31.714266667" lon="34.973401667">
<time>2013-04-01T07:51:57Z</time>
 <fix>none</fix>
 <sat>0</sat>
</trkpt>
<trkpt lat="31.714265000" lon="34.973403333">
<time>2013-04-01T07:51:59Z</time>
 <fix>none</fix>
 <sat>0</sat>
</trkpt>
<trkpt lat="31.714265000" lon="34.973403333">
<time>2013-04-01T07:52:01Z</time>
 <fix>none</fix>
 <sat>0</sat>
</trkpt>
<trkpt lat="31.714263333" lon="34.973403333">
<time>2013-04-01T07:52:03Z</time>
 <fix>none</fix>
 <sat>0</sat>
</trkpt>
<trkpt lat="31.714261667" lon="34.973405000">
<time>2013-04-01T07:52:05Z</time>
 <fix>none</fix>
 <sat>0</sat>
</trkpt>
<trkpt lat="31.714261667" lon="34.973403333">
<time>2013-04-01T07:52:07Z</time>
 <fix>none</fix>
 <sat>0</sat>
</trkpt>
<trkpt lat="31.714265000" lon="34.973405000">
<time>2013-04-01T07:52:09Z</time>
 <fix>none</fix>
 <sat>0</sat>
</trkpt>
<trkpt lat="31.714265000" lon="34.973405000">
<time>2013-04-01T07:52:11Z</time>
 <fix>none</fix>
 <sat>0</sat>
</trkpt>
<trkpt lat="31.714265000" lon="34.973405000">
<time>2013-04-01T07:52:13Z</time>
 <fix>none</fix>
 <sat>0</sat>
</trkpt>
<trkpt lat="31.714263333" lon="34.973405000">
<time>2013-04-01T07:52:15Z</time>
 <fix>none</fix>
 <sat>0</sat>
</trkpt>
<trkpt lat="31.714263333" lon="34.973406667">
<time>2013-04-01T07:52:17Z</time>
 <fix>none</fix>
 <sat>0</sat>
</trkpt>
<trkpt lat="31.714263333" lon="34.973411667">
<time>2013-04-01T07:52:19Z</time>
 <fix>none</fix>
 <sat>0</sat>
</trkpt>
<trkpt lat="31.714263333" lon="34.973408333">
<time>2013-04-01T07:52:21Z</time>
 <fix>none</fix>
 <sat>0</sat>
</trkpt>
<trkpt lat="31.714261667" lon="34.973395000">
<time>2013-04-01T07:52:23Z</time>
 <fix>none</fix>
 <sat>0</sat>
</trkpt>
<trkpt lat="31.714261667" lon="34.973390000">
<time>2013-04-01T07:52:25Z</time>
 <fix>none</fix>
 <sat>0</sat>
</trkpt>
<trkpt lat="31.714273333" lon="34.973386667">
<time>2013-04-01T07:52:27Z</time>
 <fix>none</fix>
 <sat>0</sat>
</trkpt>
<trkpt lat="31.714275000" lon="34.973385000">
<time>2013-04-01T07:52:29Z</time>
 <fix>none</fix>
 <sat>0</sat>
</trkpt>
<trkpt lat="31.714275000" lon="34.973383333">
<time>2013-04-01T07:52:31Z</time>
 <fix>none</fix>
 <sat>0</sat>
</trkpt>
<trkpt lat="31.714276667" lon="34.973380000">
<time>2013-04-01T07:52:33Z</time>
 <fix>none</fix>
 <sat>0</sat>
</trkpt>
<trkpt lat="31.714280000" lon="34.973370000">
<time>2013-04-01T07:52:35Z</time>
 <fix>none</fix>
 <sat>0</sat>
</trkpt>
<trkpt lat="31.714281667" lon="34.973338333">
<time>2013-04-01T07:52:37Z</time>
 <fix>none</fix>
 <sat>0</sat>
</trkpt>
<trkpt lat="31.714280000" lon="34.973295000">
<time>2013-04-01T07:52:39Z</time>
 <fix>none</fix>
 <sat>0</sat>
</trkpt>
<trkpt lat="31.714283333" lon="34.973245000">
<time>2013-04-01T07:52:41Z</time>
 <fix>none</fix>
 <sat>0</sat>
</trkpt>
<trkpt lat="31.714276667" lon="34.973153333">
<time>2013-04-01T07:52:43Z</time>
 <fix>none</fix>
 <sat>0</sat>
</trkpt>
<trkpt lat="31.714268333" lon="34.973086667">
<time>2013-04-01T07:52:45Z</time>
 <fix>none</fix>
 <sat>0</sat>
</trkpt>
<trkpt lat="31.714268333" lon="34.973011667">
<time>2013-04-01T07:52:47Z</time>
 <fix>none</fix>
 <sat>0</sat>
</trkpt>
<trkpt lat="31.714275000" lon="34.972931667">
<time>2013-04-01T07:52:49Z</time>
 <fix>none</fix>
 <sat>0</sat>
</trkpt>
<trkpt lat="31.714278333" lon="34.972841667">
<time>2013-04-01T07:52:51Z</time>
 <fix>none</fix>
 <sat>0</sat>
</trkpt>
<trkpt lat="31.714285000" lon="34.972746667">
<time>2013-04-01T07:52:53Z</time>
 <fix>none</fix>
 <sat>0</sat>
</trkpt>
<trkpt lat="31.714291667" lon="34.972645000">
<time>2013-04-01T07:52:55Z</time>
 <fix>none</fix>
 <sat>0</sat>
</trkpt>
<trkpt lat="31.714296667" lon="34.972591667">
<time>2013-04-01T07:52:57Z</time>
 <fix>none</fix>
 <sat>0</sat>
</trkpt>
<trkpt lat="31.714306667" lon="34.972481667">
<time>2013-04-01T07:52:59Z</time>
 <fix>none</fix>
 <sat>0</sat>
</trkpt>
<trkpt lat="31.714316667" lon="34.972368333">
<time>2013-04-01T07:53:01Z</time>
 <fix>none</fix>
 <sat>0</sat>
</trkpt>
<trkpt lat="31.714331667" lon="34.972250000">
<time>2013-04-01T07:53:03Z</time>
 <fix>none</fix>
 <sat>0</sat>
</trkpt>
<trkpt lat="31.714361667" lon="34.972071667">
<time>2013-04-01T07:53:05Z</time>
 <fix>none</fix>
 <sat>0</sat>
</trkpt>
<trkpt lat="31.714381667" lon="34.971946667">
<time>2013-04-01T07:53:07Z</time>
 <fix>none</fix>
 <sat>0</sat>
</trkpt>
<trkpt lat="31.714403333" lon="34.971816667">
<time>2013-04-01T07:53:09Z</time>
 <fix>none</fix>
 <sat>0</sat>
</trkpt>
<trkpt lat="31.714428333" lon="34.971685000">
<time>2013-04-01T07:53:11Z</time>
 <fix>none</fix>
 <sat>0</sat>
</trkpt>
<trkpt lat="31.714455000" lon="34.971551667">
<time>2013-04-01T07:53:13Z</time>
 <fix>none</fix>
 <sat>0</sat>
</trkpt>
<trkpt lat="31.714483333" lon="34.971415000">
<time>2013-04-01T07:53:15Z</time>
 <fix>none</fix>
 <sat>0</sat>
</trkpt>
<trkpt lat="31.714516667" lon="34.971275000">
<time>2013-04-01T07:53:17Z</time>
 <fix>none</fix>
 <sat>0</sat>
</trkpt>
<trkpt lat="31.714533333" lon="34.971203333">
<time>2013-04-01T07:53:19Z</time>
 <fix>none</fix>
 <sat>0</sat>
</trkpt>
<trkpt lat="31.714568333" lon="34.971063333">
<time>2013-04-01T07:53:21Z</time>
 <fix>none</fix>
 <sat>0</sat>
</trkpt>
<trkpt lat="31.714590000" lon="34.970941667">
<time>2013-04-01T07:53:23Z</time>
 <fix>none</fix>
 <sat>0</sat>
</trkpt>
<trkpt lat="31.714615000" lon="34.970823333">
<time>2013-04-01T07:53:25Z</time>
 <fix>none</fix>
 <sat>0</sat>
</trkpt>
<trkpt lat="31.714656667" lon="34.970668333">
<time>2013-04-01T07:53:27Z</time>
 <fix>none</fix>
 <sat>0</sat>
</trkpt>
<trkpt lat="31.714683333" lon="34.970571667">
<time>2013-04-01T07:53:29Z</time>
 <fix>none</fix>
 <sat>0</sat>
</trkpt>
<trkpt lat="31.714705000" lon="34.970478333">
<time>2013-04-01T07:53:31Z</time>
 <fix>none</fix>
 <sat>0</sat>
</trkpt>
<trkpt lat="31.714721667" lon="34.970401667">
<time>2013-04-01T07:53:33Z</time>
 <fix>none</fix>
 <sat>0</sat>
</trkpt>
<trkpt lat="31.714726667" lon="34.970375000">
<time>2013-04-01T07:53:35Z</time>
 <fix>none</fix>
 <sat>0</sat>
</trkpt>
<trkpt lat="31.714726667" lon="34.970351667">
<time>2013-04-01T07:53:37Z</time>
 <fix>none</fix>
 <sat>0</sat>
</trkpt>
<trkpt lat="31.714720000" lon="34.970341667">
<time>2013-04-01T07:53:39Z</time>
 <fix>none</fix>
 <sat>0</sat>
</trkpt>
<trkpt lat="31.714708333" lon="34.970333333">
<time>2013-04-01T07:53:41Z</time>
 <fix>none</fix>
 <sat>0</sat>
</trkpt>
<trkpt lat="31.714698333" lon="34.970333333">
<time>2013-04-01T07:53:43Z</time>
 <fix>none</fix>
 <sat>0</sat>
</trkpt>
<trkpt lat="31.714676667" lon="34.970331667">
<time>2013-04-01T07:53:45Z</time>
 <fix>none</fix>
 <sat>0</sat>
</trkpt>
<trkpt lat="31.714638333" lon="34.970326667">
<time>2013-04-01T07:53:47Z</time>
 <fix>none</fix>
 <sat>0</sat>
</trkpt>
<trkpt lat="31.714586667" lon="34.970323333">
<time>2013-04-01T07:53:49Z</time>
 <fix>none</fix>
 <sat>0</sat>
</trkpt>
<trkpt lat="31.714583333" lon="34.970321667">
<time>2013-04-01T07:53:51Z</time>
 <fix>none</fix>
 <sat>0</sat>
</trkpt>
<trkpt lat="31.714581667" lon="34.970323333">
<time>2013-04-01T07:53:53Z</time>
 <fix>none</fix>
 <sat>0</sat>
</trkpt>
<trkpt lat="31.714570000" lon="34.970320000">
<time>2013-04-01T07:53:55Z</time>
 <fix>none</fix>
 <sat>0</sat>
</trkpt>
<trkpt lat="31.714563333" lon="34.970318333">
<time>2013-04-01T07:53:57Z</time>
 <fix>none</fix>
 <sat>0</sat>
</trkpt>
<trkpt lat="31.714563333" lon="34.970318333">
<time>2013-04-01T07:53:59Z</time>
 <fix>none</fix>
 <sat>0</sat>
</trkpt>
<trkpt lat="31.714550000" lon="34.970311667">
<time>2013-04-01T07:54:01Z</time>
 <fix>none</fix>
 <sat>0</sat>
</trkpt>
<trkpt lat="31.714533333" lon="34.970315000">
<time>2013-04-01T07:54:03Z</time>
 <fix>none</fix>
 <sat>0</sat>
</trkpt>
<trkpt lat="31.714525000" lon="34.970315000">
<time>2013-04-01T07:54:05Z</time>
 <fix>none</fix>
 <sat>0</sat>
</trkpt>
<trkpt lat="31.714515000" lon="34.970311667">
<time>2013-04-01T07:54:07Z</time>
 <fix>none</fix>
 <sat>0</sat>
</trkpt>
<trkpt lat="31.714516667" lon="34.970313333">
<time>2013-04-01T07:54:09Z</time>
 <fix>none</fix>
 <sat>0</sat>
</trkpt>
<trkpt lat="31.714523333" lon="34.970321667">
<time>2013-04-01T07:54:11Z</time>
 <fix>none</fix>
 <sat>0</sat>
</trkpt>
<trkpt lat="31.714541667" lon="34.970341667">
<time>2013-04-01T07:54:13Z</time>
 <fix>none</fix>
 <sat>0</sat>
</trkpt>
<trkpt lat="31.714548333" lon="34.970341667">
<time>2013-04-01T07:54:15Z</time>
 <fix>none</fix>
 <sat>0</sat>
</trkpt>
<trkpt lat="31.714563333" lon="34.970358333">
<time>2013-04-01T07:54:17Z</time>
 <fix>none</fix>
 <sat>0</sat>
</trkpt>
<trkpt lat="31.714566667" lon="34.970380000">
<time>2013-04-01T07:54:19Z</time>
 <fix>none</fix>
 <sat>0</sat>
</trkpt>
<trkpt lat="31.714560000" lon="34.970400000">
<time>2013-04-01T07:54:21Z</time>
 <fix>none</fix>
 <sat>0</sat>
</trkpt>
<trkpt lat="31.714546667" lon="34.970413333">
<time>2013-04-01T07:54:23Z</time>
 <fix>none</fix>
 <sat>0</sat>
</trkpt>
<trkpt lat="31.714530000" lon="34.970426667">
<time>2013-04-01T07:54:25Z</time>
 <fix>none</fix>
 <sat>0</sat>
</trkpt>
<trkpt lat="31.714510000" lon="34.970440000">
<time>2013-04-01T07:54:27Z</time>
 <fix>none</fix>
 <sat>0</sat>
</trkpt>
<trkpt lat="31.714500000" lon="34.970445000">
<time>2013-04-01T07:54:29Z</time>
 <fix>none</fix>
 <sat>0</sat>
</trkpt>
<trkpt lat="31.714478333" lon="34.970455000">
<time>2013-04-01T07:54:31Z</time>
 <fix>none</fix>
 <sat>0</sat>
</trkpt>
<trkpt lat="31.714456667" lon="34.970465000">
<time>2013-04-01T07:54:33Z</time>
 <fix>none</fix>
 <sat>0</sat>
</trkpt>
<trkpt lat="31.714428333" lon="34.970473333">
<time>2013-04-01T07:54:35Z</time>
 <fix>none</fix>
 <sat>0</sat>
</trkpt>
<trkpt lat="31.714408333" lon="34.970475000">
<time>2013-04-01T07:54:37Z</time>
 <fix>none</fix>
 <sat>0</sat>
</trkpt>
<trkpt lat="31.714391667" lon="34.970475000">
<time>2013-04-01T07:54:39Z</time>
 <fix>none</fix>
 <sat>0</sat>
</trkpt>
<trkpt lat="31.714375000" lon="34.970475000">
<time>2013-04-01T07:54:41Z</time>
 <fix>none</fix>
 <sat>0</sat>
</trkpt>
<trkpt lat="31.714360000" lon="34.970476667">
<time>2013-04-01T07:54:43Z</time>
 <fix>none</fix>
 <sat>0</sat>
</trkpt>
<trkpt lat="31.714351667" lon="34.970476667">
<time>2013-04-01T07:54:45Z</time>
 <fix>none</fix>
 <sat>0</sat>
</trkpt>
<trkpt lat="31.714351667" lon="34.970478333">
<time>2013-04-01T07:54:47Z</time>
 <fix>none</fix>
 <sat>0</sat>
</trkpt>
<trkpt lat="31.714351667" lon="34.970478333">
<time>2013-04-01T07:54:49Z</time>
 <fix>none</fix>
 <sat>0</sat>
</trkpt>
<trkpt lat="31.714351667" lon="34.970476667">
<time>2013-04-01T07:54:51Z</time>
 <fix>none</fix>
 <sat>0</sat>
</trkpt>
<trkpt lat="31.714345000" lon="34.970481667">
<time>2013-04-01T07:54:53Z</time>
 <fix>none</fix>
 <sat>0</sat>
</trkpt>
<trkpt lat="31.714338333" lon="34.970478333">
<time>2013-04-01T07:54:55Z</time>
 <fix>none</fix>
 <sat>0</sat>
</trkpt>
<trkpt lat="31.714330000" lon="34.970466667">
<time>2013-04-01T07:54:57Z</time>
 <fix>none</fix>
 <sat>0</sat>
</trkpt>
<trkpt lat="31.714310000" lon="34.970446667">
<time>2013-04-01T07:54:59Z</time>
 <fix>none</fix>
 <sat>0</sat>
</trkpt>
<trkpt lat="31.714301667" lon="34.970435000">
<time>2013-04-01T07:55:01Z</time>
 <fix>none</fix>
 <sat>0</sat>
</trkpt>
<trkpt lat="31.714290000" lon="34.970440000">
<time>2013-04-01T07:55:03Z</time>
 <fix>none</fix>
 <sat>0</sat>
</trkpt>
<trkpt lat="31.714278333" lon="34.970451667">
<time>2013-04-01T07:55:05Z</time>
 <fix>none</fix>
 <sat>0</sat>
</trkpt>
<trkpt lat="31.714263333" lon="34.970463333">
<time>2013-04-01T07:55:07Z</time>
 <fix>none</fix>
 <sat>0</sat>
</trkpt>
<trkpt lat="31.714246667" lon="34.970466667">
<time>2013-04-01T07:55:09Z</time>
 <fix>none</fix>
 <sat>0</sat>
</trkpt>
<trkpt lat="31.714228333" lon="34.970468333">
<time>2013-04-01T07:55:11Z</time>
 <fix>none</fix>
 <sat>0</sat>
</trkpt>
<trkpt lat="31.714221667" lon="34.970468333">
<time>2013-04-01T07:55:13Z</time>
 <fix>none</fix>
 <sat>0</sat>
</trkpt>
<trkpt lat="31.714216667" lon="34.970471667">
<time>2013-04-01T07:55:15Z</time>
 <fix>none</fix>
 <sat>0</sat>
</trkpt>
<trkpt lat="31.714203333" lon="34.970473333">
<time>2013-04-01T07:55:17Z</time>
 <fix>none</fix>
 <sat>0</sat>
</trkpt>
<trkpt lat="31.714175000" lon="34.970488333">
<time>2013-04-01T07:55:19Z</time>
 <fix>none</fix>
 <sat>0</sat>
</trkpt>
<trkpt lat="31.714130000" lon="34.970520000">
<time>2013-04-01T07:55:21Z</time>
 <fix>none</fix>
 <sat>0</sat>
</trkpt>
<trkpt lat="31.714098333" lon="34.970540000">
<time>2013-04-01T07:55:23Z</time>
 <fix>none</fix>
 <sat>0</sat>
</trkpt>
<trkpt lat="31.714066667" lon="34.970558333">
<time>2013-04-01T07:55:25Z</time>
 <fix>none</fix>
 <sat>0</sat>
</trkpt>
<trkpt lat="31.714038333" lon="34.970575000">
<time>2013-04-01T07:55:27Z</time>
 <fix>none</fix>
 <sat>0</sat>
</trkpt>
<trkpt lat="31.714011667" lon="34.970586667">
<time>2013-04-01T07:55:29Z</time>
 <fix>none</fix>
 <sat>0</sat>
</trkpt>
<trkpt lat="31.713998333" lon="34.970585000">
<time>2013-04-01T07:55:31Z</time>
 <fix>none</fix>
 <sat>0</sat>
</trkpt>
<trkpt lat="31.714001667" lon="34.970585000">
<time>2013-04-01T07:55:33Z</time>
 <fix>none</fix>
 <sat>0</sat>
</trkpt>
<trkpt lat="31.714001667" lon="34.970581667">
<time>2013-04-01T07:55:35Z</time>
 <fix>none</fix>
 <sat>0</sat>
</trkpt>
<trkpt lat="31.714000000" lon="34.970581667">
<time>2013-04-01T07:55:37Z</time>
 <fix>none</fix>
 <sat>0</sat>
</trkpt>
<trkpt lat="31.713998333" lon="34.970581667">
<time>2013-04-01T07:55:39Z</time>
 <fix>none</fix>
 <sat>0</sat>
</trkpt>
<trkpt lat="31.713995000" lon="34.970583333">
<time>2013-04-01T07:55:41Z</time>
 <fix>none</fix>
 <sat>0</sat>
</trkpt>
<trkpt lat="31.713990000" lon="34.970583333">
<time>2013-04-01T07:55:43Z</time>
 <fix>none</fix>
 <sat>0</sat>
</trkpt>
<trkpt lat="31.713990000" lon="34.970583333">
<time>2013-04-01T07:55:45Z</time>
 <fix>none</fix>
 <sat>0</sat>
</trkpt>
<trkpt lat="31.713990000" lon="34.970586667">
<time>2013-04-01T07:55:47Z</time>
 <fix>none</fix>
 <sat>0</sat>
</trkpt>
<trkpt lat="31.713990000" lon="34.970586667">
<time>2013-04-01T07:55:49Z</time>
 <fix>none</fix>
 <sat>0</sat>
</trkpt>
<trkpt lat="31.713990000" lon="34.970585000">
<time>2013-04-01T07:55:51Z</time>
 <fix>none</fix>
 <sat>0</sat>
</trkpt>
<trkpt lat="31.713988333" lon="34.970585000">
<time>2013-04-01T07:55:53Z</time>
 <fix>none</fix>
 <sat>0</sat>
</trkpt>
<trkpt lat="31.713990000" lon="34.970583333">
<time>2013-04-01T07:55:55Z</time>
 <fix>none</fix>
 <sat>0</sat>
</trkpt>
<trkpt lat="31.713991667" lon="34.970585000">
<time>2013-04-01T07:55:57Z</time>
 <fix>none</fix>
 <sat>0</sat>
</trkpt>
<trkpt lat="31.713993333" lon="34.970583333">
<time>2013-04-01T07:55:59Z</time>
 <fix>none</fix>
 <sat>0</sat>
</trkpt>
<trkpt lat="31.713993333" lon="34.970583333">
<time>2013-04-01T07:56:01Z</time>
 <fix>none</fix>
 <sat>0</sat>
</trkpt>
<trkpt lat="31.713995000" lon="34.970580000">
<time>2013-04-01T07:56:03Z</time>
 <fix>none</fix>
 <sat>0</sat>
</trkpt>
<trkpt lat="31.713995000" lon="34.970580000">
<time>2013-04-01T07:56:05Z</time>
 <fix>none</fix>
 <sat>0</sat>
</trkpt>
<trkpt lat="31.713996667" lon="34.970578333">
<time>2013-04-01T07:56:07Z</time>
 <fix>none</fix>
 <sat>0</sat>
</trkpt>
<trkpt lat="31.713995000" lon="34.970576667">
<time>2013-04-01T07:56:09Z</time>
 <fix>none</fix>
 <sat>0</sat>
</trkpt>
<trkpt lat="31.713995000" lon="34.970575000">
<time>2013-04-01T07:56:11Z</time>
 <fix>none</fix>
 <sat>0</sat>
</trkpt>
<trkpt lat="31.713995000" lon="34.970575000">
<time>2013-04-01T07:56:13Z</time>
 <fix>none</fix>
 <sat>0</sat>
</trkpt>
<trkpt lat="31.713995000" lon="34.970578333">
<time>2013-04-01T07:56:15Z</time>
 <fix>none</fix>
 <sat>0</sat>
</trkpt>
<trkpt lat="31.713995000" lon="34.970576667">
<time>2013-04-01T07:56:17Z</time>
 <fix>none</fix>
 <sat>0</sat>
</trkpt>
<trkpt lat="31.713995000" lon="34.970576667">
<time>2013-04-01T07:56:19Z</time>
 <fix>none</fix>
 <sat>0</sat>
</trkpt>
<trkpt lat="31.713995000" lon="34.970576667">
<time>2013-04-01T07:56:21Z</time>
 <fix>none</fix>
 <sat>0</sat>
</trkpt>
<trkpt lat="31.713995000" lon="34.970576667">
<time>2013-04-01T07:56:23Z</time>
 <fix>none</fix>
 <sat>0</sat>
</trkpt>
<trkpt lat="31.713995000" lon="34.970576667">
<time>2013-04-01T07:56:25Z</time>
 <fix>none</fix>
 <sat>0</sat>
</trkpt>
<trkpt lat="31.713995000" lon="34.970576667">
<time>2013-04-01T07:56:27Z</time>
 <fix>none</fix>
 <sat>0</sat>
</trkpt>
<trkpt lat="31.713995000" lon="34.970576667">
<time>2013-04-01T07:56:29Z</time>
 <fix>none</fix>
 <sat>0</sat>
</trkpt>
<trkpt lat="31.713996667" lon="34.970576667">
<time>2013-04-01T07:56:31Z</time>
 <fix>none</fix>
 <sat>0</sat>
</trkpt>
<trkpt lat="31.713996667" lon="34.970576667">
<time>2013-04-01T07:56:33Z</time>
 <fix>none</fix>
 <sat>0</sat>
</trkpt>
<trkpt lat="31.713996667" lon="34.970576667">
<time>2013-04-01T07:56:35Z</time>
 <fix>none</fix>
 <sat>0</sat>
</trkpt>
<trkpt lat="31.713996667" lon="34.970576667">
<time>2013-04-01T07:56:37Z</time>
 <fix>none</fix>
 <sat>0</sat>
</trkpt>
<trkpt lat="31.713996667" lon="34.970576667">
<time>2013-04-01T07:56:39Z</time>
 <fix>none</fix>
 <sat>0</sat>
</trkpt>
<trkpt lat="31.713996667" lon="34.970576667">
<time>2013-04-01T07:56:41Z</time>
 <fix>none</fix>
 <sat>0</sat>
</trkpt>
<trkpt lat="31.713996667" lon="34.970576667">
<time>2013-04-01T07:56:43Z</time>
 <fix>none</fix>
 <sat>0</sat>
</trkpt>
<trkpt lat="31.713996667" lon="34.970576667">
<time>2013-04-01T07:56:45Z</time>
 <fix>none</fix>
 <sat>0</sat>
</trkpt>
<trkpt lat="31.713996667" lon="34.970576667">
<time>2013-04-01T07:56:47Z</time>
 <fix>none</fix>
 <sat>0</sat>
</trkpt>
<trkpt lat="31.713996667" lon="34.970576667">
<time>2013-04-01T07:56:49Z</time>
 <fix>none</fix>
 <sat>0</sat>
</trkpt>
<trkpt lat="31.713996667" lon="34.970576667">
<time>2013-04-01T07:56:51Z</time>
 <fix>none</fix>
 <sat>0</sat>
</trkpt>
<trkpt lat="31.713996667" lon="34.970576667">
<time>2013-04-01T07:56:53Z</time>
 <fix>none</fix>
 <sat>0</sat>
</trkpt>
<trkpt lat="31.713996667" lon="34.970576667">
<time>2013-04-01T07:56:55Z</time>
 <fix>none</fix>
 <sat>0</sat>
</trkpt>
<trkpt lat="31.713998333" lon="34.970576667">
<time>2013-04-01T07:56:57Z</time>
 <fix>none</fix>
 <sat>0</sat>
</trkpt>
<trkpt lat="31.713998333" lon="34.970576667">
<time>2013-04-01T07:56:59Z</time>
 <fix>none</fix>
 <sat>0</sat>
</trkpt>
<trkpt lat="31.713996667" lon="34.970576667">
<time>2013-04-01T07:57:01Z</time>
 <fix>none</fix>
 <sat>0</sat>
</trkpt>
<trkpt lat="31.713995000" lon="34.970578333">
<time>2013-04-01T07:57:03Z</time>
 <fix>none</fix>
 <sat>0</sat>
</trkpt>
<trkpt lat="31.713996667" lon="34.970578333">
<time>2013-04-01T07:57:05Z</time>
 <fix>none</fix>
 <sat>0</sat>
</trkpt>
<trkpt lat="31.713996667" lon="34.970578333">
<time>2013-04-01T07:57:07Z</time>
 <fix>none</fix>
 <sat>0</sat>
</trkpt>
<trkpt lat="31.713998333" lon="34.970580000">
<time>2013-04-01T07:57:09Z</time>
 <fix>none</fix>
 <sat>0</sat>
</trkpt>
<trkpt lat="31.713998333" lon="34.970580000">
<time>2013-04-01T07:57:11Z</time>
 <fix>none</fix>
 <sat>0</sat>
</trkpt>
<trkpt lat="31.714001667" lon="34.970583333">
<time>2013-04-01T07:57:13Z</time>
 <fix>none</fix>
 <sat>0</sat>
</trkpt>
<trkpt lat="31.714001667" lon="34.970583333">
<time>2013-04-01T07:57:15Z</time>
 <fix>none</fix>
 <sat>0</sat>
</trkpt>
<trkpt lat="31.714003333" lon="34.970583333">
<time>2013-04-01T07:57:17Z</time>
 <fix>none</fix>
 <sat>0</sat>
</trkpt>
<trkpt lat="31.714003333" lon="34.970586667">
<time>2013-04-01T07:57:19Z</time>
 <fix>none</fix>
 <sat>0</sat>
</trkpt>
<trkpt lat="31.714003333" lon="34.970588333">
<time>2013-04-01T07:57:21Z</time>
 <fix>none</fix>
 <sat>0</sat>
</trkpt>
<trkpt lat="31.714003333" lon="34.970590000">
<time>2013-04-01T07:57:23Z</time>
 <fix>none</fix>
 <sat>0</sat>
</trkpt>
<trkpt lat="31.714001667" lon="34.970591667">
<time>2013-04-01T07:57:25Z</time>
 <fix>none</fix>
 <sat>0</sat>
</trkpt>
<trkpt lat="31.714001667" lon="34.970586667">
<time>2013-04-01T07:57:27Z</time>
 <fix>none</fix>
 <sat>0</sat>
</trkpt>
<trkpt lat="31.714001667" lon="34.970586667">
<time>2013-04-01T07:57:29Z</time>
 <fix>none</fix>
 <sat>0</sat>
</trkpt>
<trkpt lat="31.714001667" lon="34.970588333">
<time>2013-04-01T07:57:31Z</time>
 <fix>none</fix>
 <sat>0</sat>
</trkpt>
<trkpt lat="31.714003333" lon="34.970588333">
<time>2013-04-01T07:57:33Z</time>
 <fix>none</fix>
 <sat>0</sat>
</trkpt>
<trkpt lat="31.714003333" lon="34.970590000">
<time>2013-04-01T07:57:35Z</time>
 <fix>none</fix>
 <sat>0</sat>
</trkpt>
<trkpt lat="31.714003333" lon="34.970591667">
<time>2013-04-01T07:57:37Z</time>
 <fix>none</fix>
 <sat>0</sat>
</trkpt>
<trkpt lat="31.714005000" lon="34.970591667">
<time>2013-04-01T07:57:39Z</time>
 <fix>none</fix>
 <sat>0</sat>
</trkpt>
<trkpt lat="31.714005000" lon="34.970591667">
<time>2013-04-01T07:57:41Z</time>
 <fix>none</fix>
 <sat>0</sat>
</trkpt>
<trkpt lat="31.714008333" lon="34.970591667">
<time>2013-04-01T07:57:43Z</time>
 <fix>none</fix>
 <sat>0</sat>
</trkpt>
<trkpt lat="31.714008333" lon="34.970591667">
<time>2013-04-01T07:57:45Z</time>
 <fix>none</fix>
 <sat>0</sat>
</trkpt>
<trkpt lat="31.714008333" lon="34.970590000">
<time>2013-04-01T07:57:47Z</time>
 <fix>none</fix>
 <sat>0</sat>
</trkpt>
<trkpt lat="31.714008333" lon="34.970590000">
<time>2013-04-01T07:57:49Z</time>
 <fix>none</fix>
 <sat>0</sat>
</trkpt>
<trkpt lat="31.714006667" lon="34.970588333">
<time>2013-04-01T07:57:51Z</time>
 <fix>none</fix>
 <sat>0</sat>
</trkpt>
<trkpt lat="31.714006667" lon="34.970590000">
<time>2013-04-01T07:57:53Z</time>
 <fix>none</fix>
 <sat>0</sat>
</trkpt>
<trkpt lat="31.714005000" lon="34.970590000">
<time>2013-04-01T07:57:55Z</time>
 <fix>none</fix>
 <sat>0</sat>
</trkpt>
<trkpt lat="31.714003333" lon="34.970591667">
<time>2013-04-01T07:57:57Z</time>
 <fix>none</fix>
 <sat>0</sat>
</trkpt>
<trkpt lat="31.713998333" lon="34.970596667">
<time>2013-04-01T07:57:59Z</time>
 <fix>none</fix>
 <sat>0</sat>
</trkpt>
<trkpt lat="31.713998333" lon="34.970596667">
<time>2013-04-01T07:58:01Z</time>
 <fix>none</fix>
 <sat>0</sat>
</trkpt>
<trkpt lat="31.713993333" lon="34.970600000">
<time>2013-04-01T07:58:03Z</time>
 <fix>none</fix>
 <sat>0</sat>
</trkpt>
<trkpt lat="31.713991667" lon="34.970601667">
<time>2013-04-01T07:58:05Z</time>
 <fix>none</fix>
 <sat>0</sat>
</trkpt>
<trkpt lat="31.713990000" lon="34.970601667">
<time>2013-04-01T07:58:07Z</time>
 <fix>none</fix>
 <sat>0</sat>
</trkpt>
<trkpt lat="31.713990000" lon="34.970601667">
<time>2013-04-01T07:58:09Z</time>
 <fix>none</fix>
 <sat>0</sat>
</trkpt>
<trkpt lat="31.713988333" lon="34.970600000">
<time>2013-04-01T07:58:11Z</time>
 <fix>none</fix>
 <sat>0</sat>
</trkpt>
<trkpt lat="31.713985000" lon="34.970598333">
<time>2013-04-01T07:58:13Z</time>
 <fix>none</fix>
 <sat>0</sat>
</trkpt>
<trkpt lat="31.713988333" lon="34.970596667">
<time>2013-04-01T07:58:15Z</time>
 <fix>none</fix>
 <sat>0</sat>
</trkpt>
<trkpt lat="31.713988333" lon="34.970593333">
<time>2013-04-01T07:58:17Z</time>
 <fix>none</fix>
 <sat>0</sat>
</trkpt>
<trkpt lat="31.713988333" lon="34.970593333">
<time>2013-04-01T07:58:19Z</time>
 <fix>none</fix>
 <sat>0</sat>
</trkpt>
<trkpt lat="31.713988333" lon="34.970593333">
<time>2013-04-01T07:58:21Z</time>
 <fix>none</fix>
 <sat>0</sat>
</trkpt>
<trkpt lat="31.713986667" lon="34.970590000">
<time>2013-04-01T07:58:23Z</time>
 <fix>none</fix>
 <sat>0</sat>
</trkpt>
<trkpt lat="31.713988333" lon="34.970586667">
<time>2013-04-01T07:58:25Z</time>
 <fix>none</fix>
 <sat>0</sat>
</trkpt>
<trkpt lat="31.713988333" lon="34.970586667">
<time>2013-04-01T07:58:27Z</time>
 <fix>none</fix>
 <sat>0</sat>
</trkpt>
<trkpt lat="31.713990000" lon="34.970581667">
<time>2013-04-01T07:58:29Z</time>
 <fix>none</fix>
 <sat>0</sat>
</trkpt>
<trkpt lat="31.713988333" lon="34.970578333">
<time>2013-04-01T07:58:31Z</time>
 <fix>none</fix>
 <sat>0</sat>
</trkpt>
<trkpt lat="31.713990000" lon="34.970576667">
<time>2013-04-01T07:58:33Z</time>
 <fix>none</fix>
 <sat>0</sat>
</trkpt>
<trkpt lat="31.713985000" lon="34.970573333">
<time>2013-04-01T07:58:35Z</time>
 <fix>none</fix>
 <sat>0</sat>
</trkpt>
<trkpt lat="31.713965000" lon="34.970581667">
<time>2013-04-01T07:58:37Z</time>
 <fix>none</fix>
 <sat>0</sat>
</trkpt>
<trkpt lat="31.713950000" lon="34.970586667">
<time>2013-04-01T07:58:39Z</time>
 <fix>none</fix>
 <sat>0</sat>
</trkpt>
<trkpt lat="31.713915000" lon="34.970598333">
<time>2013-04-01T07:58:41Z</time>
 <fix>none</fix>
 <sat>0</sat>
</trkpt>
<trkpt lat="31.713878333" lon="34.970608333">
<time>2013-04-01T07:58:43Z</time>
 <fix>none</fix>
 <sat>0</sat>
</trkpt>
<trkpt lat="31.713841667" lon="34.970613333">
<time>2013-04-01T07:58:45Z</time>
 <fix>none</fix>
 <sat>0</sat>
</trkpt>
<trkpt lat="31.713806667" lon="34.970618333">
<time>2013-04-01T07:58:47Z</time>
 <fix>none</fix>
 <sat>0</sat>
</trkpt>
<trkpt lat="31.713753333" lon="34.970621667">
<time>2013-04-01T07:58:49Z</time>
 <fix>none</fix>
 <sat>0</sat>
</trkpt>
<trkpt lat="31.713720000" lon="34.970621667">
<time>2013-04-01T07:58:51Z</time>
 <fix>none</fix>
 <sat>0</sat>
</trkpt>
<trkpt lat="31.713703333" lon="34.970621667">
<time>2013-04-01T07:58:53Z</time>
 <fix>none</fix>
 <sat>0</sat>
</trkpt>
<trkpt lat="31.713661667" lon="34.970616667">
<time>2013-04-01T07:58:55Z</time>
 <fix>none</fix>
 <sat>0</sat>
</trkpt>
<trkpt lat="31.713631667" lon="34.970611667">
<time>2013-04-01T07:58:57Z</time>
 <fix>none</fix>
 <sat>0</sat>
</trkpt>
<trkpt lat="31.713598333" lon="34.970606667">
<time>2013-04-01T07:58:59Z</time>
 <fix>none</fix>
 <sat>0</sat>
</trkpt>
<trkpt lat="31.713580000" lon="34.970606667">
<time>2013-04-01T07:59:01Z</time>
 <fix>none</fix>
 <sat>0</sat>
</trkpt>
<trkpt lat="31.713546667" lon="34.970600000">
<time>2013-04-01T07:59:03Z</time>
 <fix>none</fix>
 <sat>0</sat>
</trkpt>
<trkpt lat="31.713511667" lon="34.970596667">
<time>2013-04-01T07:59:05Z</time>
 <fix>none</fix>
 <sat>0</sat>
</trkpt>
<trkpt lat="31.713476667" lon="34.970591667">
<time>2013-04-01T07:59:07Z</time>
 <fix>none</fix>
 <sat>0</sat>
</trkpt>
<trkpt lat="31.713426667" lon="34.970585000">
<time>2013-04-01T07:59:09Z</time>
 <fix>none</fix>
 <sat>0</sat>
</trkpt>
<trkpt lat="31.713395000" lon="34.970575000">
<time>2013-04-01T07:59:11Z</time>
 <fix>none</fix>
 <sat>0</sat>
</trkpt>
<trkpt lat="31.713363333" lon="34.970571667">
<time>2013-04-01T07:59:13Z</time>
 <fix>none</fix>
 <sat>0</sat>
</trkpt>
<trkpt lat="31.713331667" lon="34.970571667">
<time>2013-04-01T07:59:15Z</time>
 <fix>none</fix>
 <sat>0</sat>
</trkpt>
<trkpt lat="31.713300000" lon="34.970566667">
<time>2013-04-01T07:59:17Z</time>
 <fix>none</fix>
 <sat>0</sat>
</trkpt>
<trkpt lat="31.713268333" lon="34.970563333">
<time>2013-04-01T07:59:19Z</time>
 <fix>none</fix>
 <sat>0</sat>
</trkpt>
<trkpt lat="31.713236667" lon="34.970565000">
<time>2013-04-01T07:59:21Z</time>
 <fix>none</fix>
 <sat>0</sat>
</trkpt>
<trkpt lat="31.713203333" lon="34.970566667">
<time>2013-04-01T07:59:23Z</time>
 <fix>none</fix>
 <sat>0</sat>
</trkpt>
<trkpt lat="31.713186667" lon="34.970566667">
<time>2013-04-01T07:59:25Z</time>
 <fix>none</fix>
 <sat>0</sat>
</trkpt>
<trkpt lat="31.713153333" lon="34.970570000">
<time>2013-04-01T07:59:27Z</time>
 <fix>none</fix>
 <sat>0</sat>
</trkpt>
<trkpt lat="31.713120000" lon="34.970573333">
<time>2013-04-01T07:59:29Z</time>
 <fix>none</fix>
 <sat>0</sat>
</trkpt>
<trkpt lat="31.713071667" lon="34.970581667">
<time>2013-04-01T07:59:31Z</time>
 <fix>none</fix>
 <sat>0</sat>
</trkpt>
<trkpt lat="31.713041667" lon="34.970583333">
<time>2013-04-01T07:59:33Z</time>
 <fix>none</fix>
 <sat>0</sat>
</trkpt>
<trkpt lat="31.713016667" lon="34.970573333">
<time>2013-04-01T07:59:35Z</time>
 <fix>none</fix>
 <sat>0</sat>
</trkpt>
<trkpt lat="31.712988333" lon="34.970561667">
<time>2013-04-01T07:59:37Z</time>
 <fix>none</fix>
 <sat>0</sat>
</trkpt>
<trkpt lat="31.712975000" lon="34.970556667">
<time>2013-04-01T07:59:39Z</time>
 <fix>none</fix>
 <sat>0</sat>
</trkpt>
<trkpt lat="31.712940000" lon="34.970540000">
<time>2013-04-01T07:59:41Z</time>
 <fix>none</fix>
 <sat>0</sat>
</trkpt>
<trkpt lat="31.712918333" lon="34.970508333">
<time>2013-04-01T07:59:43Z</time>
 <fix>none</fix>
 <sat>0</sat>
</trkpt>
<trkpt lat="31.712900000" lon="34.970476667">
<time>2013-04-01T07:59:45Z</time>
 <fix>none</fix>
 <sat>0</sat>
</trkpt>
<trkpt lat="31.712895000" lon="34.970456667">
<time>2013-04-01T07:59:47Z</time>
 <fix>none</fix>
 <sat>0</sat>
</trkpt>
<trkpt lat="31.712883333" lon="34.970415000">
<time>2013-04-01T07:59:49Z</time>
 <fix>none</fix>
 <sat>0</sat>
</trkpt>
<trkpt lat="31.712860000" lon="34.970406667">
<time>2013-04-01T07:59:51Z</time>
 <fix>none</fix>
 <sat>0</sat>
</trkpt>
<trkpt lat="31.712851667" lon="34.970395000">
<time>2013-04-01T07:59:53Z</time>
 <fix>none</fix>
 <sat>0</sat>
</trkpt>
<trkpt lat="31.712841667" lon="34.970378333">
<time>2013-04-01T07:59:55Z</time>
 <fix>none</fix>
 <sat>0</sat>
</trkpt>
<trkpt lat="31.712836667" lon="34.970375000">
<time>2013-04-01T07:59:57Z</time>
 <fix>none</fix>
 <sat>0</sat>
</trkpt>
<trkpt lat="31.712825000" lon="34.970371667">
<time>2013-04-01T07:59:59Z</time>
 <fix>none</fix>
 <sat>0</sat>
</trkpt>
<trkpt lat="31.712810000" lon="34.970366667">
<time>2013-04-01T08:00:01Z</time>
 <fix>none</fix>
 <sat>0</sat>
</trkpt>
<trkpt lat="31.712791667" lon="34.970366667">
<time>2013-04-01T08:00:03Z</time>
 <fix>none</fix>
 <sat>0</sat>
</trkpt>
<trkpt lat="31.712775000" lon="34.970368333">
<time>2013-04-01T08:00:05Z</time>
 <fix>none</fix>
 <sat>0</sat>
</trkpt>
<trkpt lat="31.712765000" lon="34.970368333">
<time>2013-04-01T08:00:07Z</time>
 <fix>none</fix>
 <sat>0</sat>
</trkpt>
<trkpt lat="31.712756667" lon="34.970371667">
<time>2013-04-01T08:00:09Z</time>
 <fix>none</fix>
 <sat>0</sat>
</trkpt>
<trkpt lat="31.712743333" lon="34.970383333">
<time>2013-04-01T08:00:11Z</time>
 <fix>none</fix>
 <sat>0</sat>
</trkpt>
<trkpt lat="31.712731667" lon="34.970383333">
<time>2013-04-01T08:00:13Z</time>
 <fix>none</fix>
 <sat>0</sat>
</trkpt>
<trkpt lat="31.712720000" lon="34.970386667">
<time>2013-04-01T08:00:15Z</time>
 <fix>none</fix>
 <sat>0</sat>
</trkpt>
<trkpt lat="31.712713333" lon="34.970386667">
<time>2013-04-01T08:00:17Z</time>
 <fix>none</fix>
 <sat>0</sat>
</trkpt>
<trkpt lat="31.712703333" lon="34.970381667">
<time>2013-04-01T08:00:19Z</time>
 <fix>none</fix>
 <sat>0</sat>
</trkpt>
<trkpt lat="31.712686667" lon="34.970371667">
<time>2013-04-01T08:00:21Z</time>
 <fix>none</fix>
 <sat>0</sat>
</trkpt>
<trkpt lat="31.712673333" lon="34.970356667">
<time>2013-04-01T08:00:23Z</time>
 <fix>none</fix>
 <sat>0</sat>
</trkpt>
<trkpt lat="31.712661667" lon="34.970343333">
<time>2013-04-01T08:00:25Z</time>
 <fix>none</fix>
 <sat>0</sat>
</trkpt>
<trkpt lat="31.712651667" lon="34.970335000">
<time>2013-04-01T08:00:27Z</time>
 <fix>none</fix>
 <sat>0</sat>
</trkpt>
<trkpt lat="31.712636667" lon="34.970326667">
<time>2013-04-01T08:00:29Z</time>
 <fix>none</fix>
 <sat>0</sat>
</trkpt>
<trkpt lat="31.712625000" lon="34.970316667">
<time>2013-04-01T08:00:31Z</time>
 <fix>none</fix>
 <sat>0</sat>
</trkpt>
<trkpt lat="31.712621667" lon="34.970310000">
<time>2013-04-01T08:00:33Z</time>
 <fix>none</fix>
 <sat>0</sat>
</trkpt>
<trkpt lat="31.712616667" lon="34.970288333">
<time>2013-04-01T08:00:35Z</time>
 <fix>none</fix>
 <sat>0</sat>
</trkpt>
<trkpt lat="31.712606667" lon="34.970271667">
<time>2013-04-01T08:00:37Z</time>
 <fix>none</fix>
 <sat>0</sat>
</trkpt>
<trkpt lat="31.712595000" lon="34.970245000">
<time>2013-04-01T08:00:39Z</time>
 <fix>none</fix>
 <sat>0</sat>
</trkpt>
<trkpt lat="31.712590000" lon="34.970228333">
<time>2013-04-01T08:00:41Z</time>
 <fix>none</fix>
 <sat>0</sat>
</trkpt>
<trkpt lat="31.712588333" lon="34.970220000">
<time>2013-04-01T08:00:43Z</time>
 <fix>none</fix>
 <sat>0</sat>
</trkpt>
<trkpt lat="31.712580000" lon="34.970201667">
<time>2013-04-01T08:00:45Z</time>
 <fix>none</fix>
 <sat>0</sat>
</trkpt>
<trkpt lat="31.712573333" lon="34.970188333">
<time>2013-04-01T08:00:47Z</time>
 <fix>none</fix>
 <sat>0</sat>
</trkpt>
<trkpt lat="31.712566667" lon="34.970175000">
<time>2013-04-01T08:00:49Z</time>
 <fix>none</fix>
 <sat>0</sat>
</trkpt>
<trkpt lat="31.712556667" lon="34.970158333">
<time>2013-04-01T08:00:51Z</time>
 <fix>none</fix>
 <sat>0</sat>
</trkpt>
<trkpt lat="31.712548333" lon="34.970143333">
<time>2013-04-01T08:00:53Z</time>
 <fix>none</fix>
 <sat>0</sat>
</trkpt>
<trkpt lat="31.712541667" lon="34.970136667">
<time>2013-04-01T08:00:55Z</time>
 <fix>none</fix>
 <sat>0</sat>
</trkpt>
<trkpt lat="31.712530000" lon="34.970125000">
<time>2013-04-01T08:00:57Z</time>
 <fix>none</fix>
 <sat>0</sat>
</trkpt>
<trkpt lat="31.712520000" lon="34.970113333">
<time>2013-04-01T08:00:59Z</time>
 <fix>none</fix>
 <sat>0</sat>
</trkpt>
<trkpt lat="31.712513333" lon="34.970105000">
<time>2013-04-01T08:01:01Z</time>
 <fix>none</fix>
 <sat>0</sat>
</trkpt>
<trkpt lat="31.712496667" lon="34.970090000">
<time>2013-04-01T08:01:03Z</time>
 <fix>none</fix>
 <sat>0</sat>
</trkpt>
<trkpt lat="31.712486667" lon="34.970080000">
<time>2013-04-01T08:01:05Z</time>
 <fix>none</fix>
 <sat>0</sat>
</trkpt>
<trkpt lat="31.712473333" lon="34.970066667">
<time>2013-04-01T08:01:07Z</time>
 <fix>none</fix>
 <sat>0</sat>
</trkpt>
<trkpt lat="31.712463333" lon="34.970056667">
<time>2013-04-01T08:01:09Z</time>
 <fix>none</fix>
 <sat>0</sat>
</trkpt>
<trkpt lat="31.712450000" lon="34.970043333">
<time>2013-04-01T08:01:11Z</time>
 <fix>none</fix>
 <sat>0</sat>
</trkpt>
<trkpt lat="31.712438333" lon="34.970030000">
<time>2013-04-01T08:01:13Z</time>
 <fix>none</fix>
 <sat>0</sat>
</trkpt>
<trkpt lat="31.712428333" lon="34.970013333">
<time>2013-04-01T08:01:15Z</time>
 <fix>none</fix>
 <sat>0</sat>
</trkpt>
<trkpt lat="31.712420000" lon="34.969996667">
<time>2013-04-01T08:01:17Z</time>
 <fix>none</fix>
 <sat>0</sat>
</trkpt>
<trkpt lat="31.712415000" lon="34.969986667">
<time>2013-04-01T08:01:19Z</time>
 <fix>none</fix>
 <sat>0</sat>
</trkpt>
<trkpt lat="31.712410000" lon="34.969971667">
<time>2013-04-01T08:01:21Z</time>
 <fix>none</fix>
 <sat>0</sat>
</trkpt>
<trkpt lat="31.712400000" lon="34.969948333">
<time>2013-04-01T08:01:23Z</time>
 <fix>none</fix>
 <sat>0</sat>
</trkpt>
<trkpt lat="31.712396667" lon="34.969940000">
<time>2013-04-01T08:01:25Z</time>
 <fix>none</fix>
 <sat>0</sat>
</trkpt>
<trkpt lat="31.712388333" lon="34.969923333">
<time>2013-04-01T08:01:27Z</time>
 <fix>none</fix>
 <sat>0</sat>
</trkpt>
<trkpt lat="31.712381667" lon="34.969915000">
<time>2013-04-01T08:01:29Z</time>
 <fix>none</fix>
 <sat>0</sat>
</trkpt>
<trkpt lat="31.712375000" lon="34.969906667">
<time>2013-04-01T08:01:31Z</time>
 <fix>none</fix>
 <sat>0</sat>
</trkpt>
<trkpt lat="31.712365000" lon="34.969896667">
<time>2013-04-01T08:01:33Z</time>
 <fix>none</fix>
 <sat>0</sat>
</trkpt>
<trkpt lat="31.712353333" lon="34.969886667">
<time>2013-04-01T08:01:35Z</time>
 <fix>none</fix>
 <sat>0</sat>
</trkpt>
<trkpt lat="31.712341667" lon="34.969875000">
<time>2013-04-01T08:01:37Z</time>
 <fix>none</fix>
 <sat>0</sat>
</trkpt>
<trkpt lat="31.712330000" lon="34.969861667">
<time>2013-04-01T08:01:39Z</time>
 <fix>none</fix>
 <sat>0</sat>
</trkpt>
<trkpt lat="31.712325000" lon="34.969856667">
<time>2013-04-01T08:01:41Z</time>
 <fix>none</fix>
 <sat>0</sat>
</trkpt>
<trkpt lat="31.712315000" lon="34.969848333">
<time>2013-04-01T08:01:43Z</time>
 <fix>none</fix>
 <sat>0</sat>
</trkpt>
<trkpt lat="31.712303333" lon="34.969838333">
<time>2013-04-01T08:01:45Z</time>
 <fix>none</fix>
 <sat>0</sat>
</trkpt>
<trkpt lat="31.712293333" lon="34.969825000">
<time>2013-04-01T08:01:47Z</time>
 <fix>none</fix>
 <sat>0</sat>
</trkpt>
<trkpt lat="31.712276667" lon="34.969806667">
<time>2013-04-01T08:01:49Z</time>
 <fix>none</fix>
 <sat>0</sat>
</trkpt>
<trkpt lat="31.712266667" lon="34.969796667">
<time>2013-04-01T08:01:51Z</time>
 <fix>none</fix>
 <sat>0</sat>
</trkpt>
<trkpt lat="31.712261667" lon="34.969793333">
<time>2013-04-01T08:01:53Z</time>
 <fix>none</fix>
 <sat>0</sat>
</trkpt>
<trkpt lat="31.712245000" lon="34.969780000">
<time>2013-04-01T08:01:55Z</time>
 <fix>none</fix>
 <sat>0</sat>
</trkpt>
<trkpt lat="31.712230000" lon="34.969773333">
<time>2013-04-01T08:01:57Z</time>
 <fix>none</fix>
 <sat>0</sat>
</trkpt>
<trkpt lat="31.712218333" lon="34.969766667">
<time>2013-04-01T08:01:59Z</time>
 <fix>none</fix>
 <sat>0</sat>
</trkpt>
<trkpt lat="31.712208333" lon="34.969760000">
<time>2013-04-01T08:02:01Z</time>
 <fix>none</fix>
 <sat>0</sat>
</trkpt>
<trkpt lat="31.712200000" lon="34.969750000">
<time>2013-04-01T08:02:03Z</time>
 <fix>none</fix>
 <sat>0</sat>
</trkpt>
<trkpt lat="31.712193333" lon="34.969745000">
<time>2013-04-01T08:02:05Z</time>
 <fix>none</fix>
 <sat>0</sat>
</trkpt>
<trkpt lat="31.712183333" lon="34.969733333">
<time>2013-04-01T08:02:07Z</time>
 <fix>none</fix>
 <sat>0</sat>
</trkpt>
<trkpt lat="31.712176667" lon="34.969718333">
<time>2013-04-01T08:02:09Z</time>
 <fix>none</fix>
 <sat>0</sat>
</trkpt>
<trkpt lat="31.712170000" lon="34.969703333">
<time>2013-04-01T08:02:11Z</time>
 <fix>none</fix>
 <sat>0</sat>
</trkpt>
<trkpt lat="31.712160000" lon="34.969686667">
<time>2013-04-01T08:02:13Z</time>
 <fix>none</fix>
 <sat>0</sat>
</trkpt>
<trkpt lat="31.712151667" lon="34.969676667">
<time>2013-04-01T08:02:15Z</time>
 <fix>none</fix>
 <sat>0</sat>
</trkpt>
<trkpt lat="31.712143333" lon="34.969670000">
<time>2013-04-01T08:02:17Z</time>
 <fix>none</fix>
 <sat>0</sat>
</trkpt>
<trkpt lat="31.712131667" lon="34.969656667">
<time>2013-04-01T08:02:19Z</time>
 <fix>none</fix>
 <sat>0</sat>
</trkpt>
<trkpt lat="31.712120000" lon="34.969646667">
<time>2013-04-01T08:02:21Z</time>
 <fix>none</fix>
 <sat>0</sat>
</trkpt>
<trkpt lat="31.712108333" lon="34.969635000">
<time>2013-04-01T08:02:23Z</time>
 <fix>none</fix>
 <sat>0</sat>
</trkpt>
<trkpt lat="31.712103333" lon="34.969625000">
<time>2013-04-01T08:02:25Z</time>
 <fix>none</fix>
 <sat>0</sat>
</trkpt>
<trkpt lat="31.712098333" lon="34.969618333">
<time>2013-04-01T08:02:27Z</time>
 <fix>none</fix>
 <sat>0</sat>
</trkpt>
<trkpt lat="31.712086667" lon="34.969608333">
<time>2013-04-01T08:02:29Z</time>
 <fix>none</fix>
 <sat>0</sat>
</trkpt>
<trkpt lat="31.712075000" lon="34.969596667">
<time>2013-04-01T08:02:31Z</time>
 <fix>none</fix>
 <sat>0</sat>
</trkpt>
<trkpt lat="31.712061667" lon="34.969580000">
<time>2013-04-01T08:02:33Z</time>
 <fix>none</fix>
 <sat>0</sat>
</trkpt>
<trkpt lat="31.712053333" lon="34.969571667">
<time>2013-04-01T08:02:35Z</time>
 <fix>none</fix>
 <sat>0</sat>
</trkpt>
<trkpt lat="31.712045000" lon="34.969561667">
<time>2013-04-01T08:02:37Z</time>
 <fix>none</fix>
 <sat>0</sat>
</trkpt>
<trkpt lat="31.712036667" lon="34.969553333">
<time>2013-04-01T08:02:39Z</time>
 <fix>none</fix>
 <sat>0</sat>
</trkpt>
<trkpt lat="31.712033333" lon="34.969548333">
<time>2013-04-01T08:02:41Z</time>
 <fix>none</fix>
 <sat>0</sat>
</trkpt>
<trkpt lat="31.712018333" lon="34.969536667">
<time>2013-04-01T08:02:43Z</time>
 <fix>none</fix>
 <sat>0</sat>
</trkpt>
<trkpt lat="31.712005000" lon="34.969530000">
<time>2013-04-01T08:02:45Z</time>
 <fix>none</fix>
 <sat>0</sat>
</trkpt>
<trkpt lat="31.711993333" lon="34.969526667">
<time>2013-04-01T08:02:47Z</time>
 <fix>none</fix>
 <sat>0</sat>
</trkpt>
<trkpt lat="31.711986667" lon="34.969525000">
<time>2013-04-01T08:02:49Z</time>
 <fix>none</fix>
 <sat>0</sat>
</trkpt>
<trkpt lat="31.711976667" lon="34.969521667">
<time>2013-04-01T08:02:51Z</time>
 <fix>none</fix>
 <sat>0</sat>
</trkpt>
<trkpt lat="31.711963333" lon="34.969520000">
<time>2013-04-01T08:02:53Z</time>
 <fix>none</fix>
 <sat>0</sat>
</trkpt>
<trkpt lat="31.711953333" lon="34.969516667">
<time>2013-04-01T08:02:55Z</time>
 <fix>none</fix>
 <sat>0</sat>
</trkpt>
<trkpt lat="31.711938333" lon="34.969510000">
<time>2013-04-01T08:02:57Z</time>
 <fix>none</fix>
 <sat>0</sat>
</trkpt>
<trkpt lat="31.711928333" lon="34.969503333">
<time>2013-04-01T08:02:59Z</time>
 <fix>none</fix>
 <sat>0</sat>
</trkpt>
<trkpt lat="31.711916667" lon="34.969496667">
<time>2013-04-01T08:03:01Z</time>
 <fix>none</fix>
 <sat>0</sat>
</trkpt>
<trkpt lat="31.711906667" lon="34.969485000">
<time>2013-04-01T08:03:03Z</time>
 <fix>none</fix>
 <sat>0</sat>
</trkpt>
<trkpt lat="31.711896667" lon="34.969473333">
<time>2013-04-01T08:03:05Z</time>
 <fix>none</fix>
 <sat>0</sat>
</trkpt>
<trkpt lat="31.711888333" lon="34.969460000">
<time>2013-04-01T08:03:07Z</time>
 <fix>none</fix>
 <sat>0</sat>
</trkpt>
<trkpt lat="31.711881667" lon="34.969443333">
<time>2013-04-01T08:03:09Z</time>
 <fix>none</fix>
 <sat>0</sat>
</trkpt>
<trkpt lat="31.711880000" lon="34.969425000">
<time>2013-04-01T08:03:11Z</time>
 <fix>none</fix>
 <sat>0</sat>
</trkpt>
<trkpt lat="31.711876667" lon="34.969415000">
<time>2013-04-01T08:03:13Z</time>
 <fix>none</fix>
 <sat>0</sat>
</trkpt>
<trkpt lat="31.711870000" lon="34.969400000">
<time>2013-04-01T08:03:15Z</time>
 <fix>none</fix>
 <sat>0</sat>
</trkpt>
<trkpt lat="31.711863333" lon="34.969381667">
<time>2013-04-01T08:03:17Z</time>
 <fix>none</fix>
 <sat>0</sat>
</trkpt>
<trkpt lat="31.711850000" lon="34.969361667">
<time>2013-04-01T08:03:19Z</time>
 <fix>none</fix>
 <sat>0</sat>
</trkpt>
<trkpt lat="31.711838333" lon="34.969350000">
<time>2013-04-01T08:03:21Z</time>
 <fix>none</fix>
 <sat>0</sat>
</trkpt>
<trkpt lat="31.711830000" lon="34.969338333">
<time>2013-04-01T08:03:23Z</time>
 <fix>none</fix>
 <sat>0</sat>
</trkpt>
<trkpt lat="31.711820000" lon="34.969328333">
<time>2013-04-01T08:03:25Z</time>
 <fix>none</fix>
 <sat>0</sat>
</trkpt>
<trkpt lat="31.711815000" lon="34.969321667">
<time>2013-04-01T08:03:27Z</time>
 <fix>none</fix>
 <sat>0</sat>
</trkpt>
<trkpt lat="31.711800000" lon="34.969303333">
<time>2013-04-01T08:03:29Z</time>
 <fix>none</fix>
 <sat>0</sat>
</trkpt>
<trkpt lat="31.711790000" lon="34.969291667">
<time>2013-04-01T08:03:31Z</time>
 <fix>none</fix>
 <sat>0</sat>
</trkpt>
<trkpt lat="31.711783333" lon="34.969280000">
<time>2013-04-01T08:03:33Z</time>
 <fix>none</fix>
 <sat>0</sat>
</trkpt>
<trkpt lat="31.711778333" lon="34.969275000">
<time>2013-04-01T08:03:35Z</time>
 <fix>none</fix>
 <sat>0</sat>
</trkpt>
<trkpt lat="31.711770000" lon="34.969263333">
<time>2013-04-01T08:03:37Z</time>
 <fix>none</fix>
 <sat>0</sat>
</trkpt>
<trkpt lat="31.711761667" lon="34.969251667">
<time>2013-04-01T08:03:39Z</time>
 <fix>none</fix>
 <sat>0</sat>
</trkpt>
<trkpt lat="31.711751667" lon="34.969241667">
<time>2013-04-01T08:03:41Z</time>
 <fix>none</fix>
 <sat>0</sat>
</trkpt>
<trkpt lat="31.711738333" lon="34.969225000">
<time>2013-04-01T08:03:43Z</time>
 <fix>none</fix>
 <sat>0</sat>
</trkpt>
<trkpt lat="31.711735000" lon="34.969218333">
<time>2013-04-01T08:03:45Z</time>
 <fix>none</fix>
 <sat>0</sat>
</trkpt>
<trkpt lat="31.711720000" lon="34.969208333">
<time>2013-04-01T08:03:47Z</time>
 <fix>none</fix>
 <sat>0</sat>
</trkpt>
<trkpt lat="31.711713333" lon="34.969198333">
<time>2013-04-01T08:03:49Z</time>
 <fix>none</fix>
 <sat>0</sat>
</trkpt>
<trkpt lat="31.711705000" lon="34.969188333">
<time>2013-04-01T08:03:51Z</time>
 <fix>none</fix>
 <sat>0</sat>
</trkpt>
<trkpt lat="31.711696667" lon="34.969175000">
<time>2013-04-01T08:03:53Z</time>
 <fix>none</fix>
 <sat>0</sat>
</trkpt>
<trkpt lat="31.711686667" lon="34.969163333">
<time>2013-04-01T08:03:55Z</time>
 <fix>none</fix>
 <sat>0</sat>
</trkpt>
<trkpt lat="31.711675000" lon="34.969151667">
<time>2013-04-01T08:03:57Z</time>
 <fix>none</fix>
 <sat>0</sat>
</trkpt>
<trkpt lat="31.711668333" lon="34.969145000">
<time>2013-04-01T08:03:59Z</time>
 <fix>none</fix>
 <sat>0</sat>
</trkpt>
<trkpt lat="31.711655000" lon="34.969135000">
<time>2013-04-01T08:04:01Z</time>
 <fix>none</fix>
 <sat>0</sat>
</trkpt>
<trkpt lat="31.711640000" lon="34.969125000">
<time>2013-04-01T08:04:03Z</time>
 <fix>none</fix>
 <sat>0</sat>
</trkpt>
<trkpt lat="31.711625000" lon="34.969106667">
<time>2013-04-01T08:04:05Z</time>
 <fix>none</fix>
 <sat>0</sat>
</trkpt>
<trkpt lat="31.711615000" lon="34.969095000">
<time>2013-04-01T08:04:07Z</time>
 <fix>none</fix>
 <sat>0</sat>
</trkpt>
<trkpt lat="31.711606667" lon="34.969083333">
<time>2013-04-01T08:04:09Z</time>
 <fix>none</fix>
 <sat>0</sat>
</trkpt>
<trkpt lat="31.711596667" lon="34.969071667">
<time>2013-04-01T08:04:11Z</time>
 <fix>none</fix>
 <sat>0</sat>
</trkpt>
<trkpt lat="31.711596667" lon="34.969071667">
<time>2013-04-01T08:04:13Z</time>
 <fix>none</fix>
 <sat>0</sat>
</trkpt>
<trkpt lat="31.711576667" lon="34.969055000">
<time>2013-04-01T08:04:15Z</time>
 <fix>none</fix>
 <sat>0</sat>
</trkpt>
<trkpt lat="31.711565000" lon="34.969045000">
<time>2013-04-01T08:04:17Z</time>
 <fix>none</fix>
 <sat>0</sat>
</trkpt>
<trkpt lat="31.711551667" lon="34.969035000">
<time>2013-04-01T08:04:19Z</time>
 <fix>none</fix>
 <sat>0</sat>
</trkpt>
<trkpt lat="31.711543333" lon="34.969031667">
<time>2013-04-01T08:04:21Z</time>
 <fix>none</fix>
 <sat>0</sat>
</trkpt>
<trkpt lat="31.711530000" lon="34.969021667">
<time>2013-04-01T08:04:23Z</time>
 <fix>none</fix>
 <sat>0</sat>
</trkpt>
<trkpt lat="31.711518333" lon="34.969006667">
<time>2013-04-01T08:04:25Z</time>
 <fix>none</fix>
 <sat>0</sat>
</trkpt>
<trkpt lat="31.711503333" lon="34.968990000">
<time>2013-04-01T08:04:27Z</time>
 <fix>none</fix>
 <sat>0</sat>
</trkpt>
<trkpt lat="31.711488333" lon="34.968981667">
<time>2013-04-01T08:04:29Z</time>
 <fix>none</fix>
 <sat>0</sat>
</trkpt>
<trkpt lat="31.711473333" lon="34.968976667">
<time>2013-04-01T08:04:31Z</time>
 <fix>none</fix>
 <sat>0</sat>
</trkpt>
<trkpt lat="31.711455000" lon="34.968973333">
<time>2013-04-01T08:04:33Z</time>
 <fix>none</fix>
 <sat>0</sat>
</trkpt>
<trkpt lat="31.711440000" lon="34.968968333">
<time>2013-04-01T08:04:35Z</time>
 <fix>none</fix>
 <sat>0</sat>
</trkpt>
<trkpt lat="31.711425000" lon="34.968966667">
<time>2013-04-01T08:04:37Z</time>
 <fix>none</fix>
 <sat>0</sat>
</trkpt>
<trkpt lat="31.711408333" lon="34.968966667">
<time>2013-04-01T08:04:39Z</time>
 <fix>none</fix>
 <sat>0</sat>
</trkpt>
<trkpt lat="31.711393333" lon="34.968966667">
<time>2013-04-01T08:04:41Z</time>
 <fix>none</fix>
 <sat>0</sat>
</trkpt>
<trkpt lat="31.711385000" lon="34.968970000">
<time>2013-04-01T08:04:43Z</time>
 <fix>none</fix>
 <sat>0</sat>
</trkpt>
<trkpt lat="31.711370000" lon="34.968973333">
<time>2013-04-01T08:04:45Z</time>
 <fix>none</fix>
 <sat>0</sat>
</trkpt>
<trkpt lat="31.711356667" lon="34.968976667">
<time>2013-04-01T08:04:47Z</time>
 <fix>none</fix>
 <sat>0</sat>
</trkpt>
<trkpt lat="31.711341667" lon="34.968983333">
<time>2013-04-01T08:04:49Z</time>
 <fix>none</fix>
 <sat>0</sat>
</trkpt>
<trkpt lat="31.711316667" lon="34.968991667">
<time>2013-04-01T08:04:51Z</time>
 <fix>none</fix>
 <sat>0</sat>
</trkpt>
<trkpt lat="31.711300000" lon="34.968998333">
<time>2013-04-01T08:04:53Z</time>
 <fix>none</fix>
 <sat>0</sat>
</trkpt>
<trkpt lat="31.711281667" lon="34.969005000">
<time>2013-04-01T08:04:55Z</time>
 <fix>none</fix>
 <sat>0</sat>
</trkpt>
<trkpt lat="31.711265000" lon="34.969010000">
<time>2013-04-01T08:04:57Z</time>
 <fix>none</fix>
 <sat>0</sat>
</trkpt>
<trkpt lat="31.711246667" lon="34.969016667">
<time>2013-04-01T08:04:59Z</time>
 <fix>none</fix>
 <sat>0</sat>
</trkpt>
<trkpt lat="31.711231667" lon="34.969025000">
<time>2013-04-01T08:05:01Z</time>
 <fix>none</fix>
 <sat>0</sat>
</trkpt>
<trkpt lat="31.711218333" lon="34.969033333">
<time>2013-04-01T08:05:03Z</time>
 <fix>none</fix>
 <sat>0</sat>
</trkpt>
<trkpt lat="31.711203333" lon="34.969038333">
<time>2013-04-01T08:05:05Z</time>
 <fix>none</fix>
 <sat>0</sat>
</trkpt>
<trkpt lat="31.711195000" lon="34.969041667">
<time>2013-04-01T08:05:07Z</time>
 <fix>none</fix>
 <sat>0</sat>
</trkpt>
<trkpt lat="31.711181667" lon="34.969050000">
<time>2013-04-01T08:05:09Z</time>
 <fix>none</fix>
 <sat>0</sat>
</trkpt>
<trkpt lat="31.711168333" lon="34.969056667">
<time>2013-04-01T08:05:11Z</time>
 <fix>none</fix>
 <sat>0</sat>
</trkpt>
<trkpt lat="31.711145000" lon="34.969065000">
<time>2013-04-01T08:05:13Z</time>
 <fix>none</fix>
 <sat>0</sat>
</trkpt>
<trkpt lat="31.711131667" lon="34.969070000">
<time>2013-04-01T08:05:15Z</time>
 <fix>none</fix>
 <sat>0</sat>
</trkpt>
<trkpt lat="31.711116667" lon="34.969073333">
<time>2013-04-01T08:05:17Z</time>
 <fix>none</fix>
 <sat>0</sat>
</trkpt>
<trkpt lat="31.711100000" lon="34.969075000">
<time>2013-04-01T08:05:19Z</time>
 <fix>none</fix>
 <sat>0</sat>
</trkpt>
<trkpt lat="31.711083333" lon="34.969075000">
<time>2013-04-01T08:05:21Z</time>
 <fix>none</fix>
 <sat>0</sat>
</trkpt>
<trkpt lat="31.711076667" lon="34.969075000">
<time>2013-04-01T08:05:23Z</time>
 <fix>none</fix>
 <sat>0</sat>
</trkpt>
<trkpt lat="31.711053333" lon="34.969076667">
<time>2013-04-01T08:05:25Z</time>
 <fix>none</fix>
 <sat>0</sat>
</trkpt>
<trkpt lat="31.711038333" lon="34.969075000">
<time>2013-04-01T08:05:27Z</time>
 <fix>none</fix>
 <sat>0</sat>
</trkpt>
<trkpt lat="31.711026667" lon="34.969068333">
<time>2013-04-01T08:05:29Z</time>
 <fix>none</fix>
 <sat>0</sat>
</trkpt>
<trkpt lat="31.711021667" lon="34.969066667">
<time>2013-04-01T08:05:31Z</time>
 <fix>none</fix>
 <sat>0</sat>
</trkpt>
<trkpt lat="31.711006667" lon="34.969061667">
<time>2013-04-01T08:05:33Z</time>
 <fix>none</fix>
 <sat>0</sat>
</trkpt>
<trkpt lat="31.710988333" lon="34.969056667">
<time>2013-04-01T08:05:35Z</time>
 <fix>none</fix>
 <sat>0</sat>
</trkpt>
<trkpt lat="31.710961667" lon="34.969050000">
<time>2013-04-01T08:05:37Z</time>
 <fix>none</fix>
 <sat>0</sat>
</trkpt>
<trkpt lat="31.710943333" lon="34.969046667">
<time>2013-04-01T08:05:39Z</time>
 <fix>none</fix>
 <sat>0</sat>
</trkpt>
<trkpt lat="31.710926667" lon="34.969045000">
<time>2013-04-01T08:05:41Z</time>
 <fix>none</fix>
 <sat>0</sat>
</trkpt>
<trkpt lat="31.710910000" lon="34.969043333">
<time>2013-04-01T08:05:43Z</time>
 <fix>none</fix>
 <sat>0</sat>
</trkpt>
<trkpt lat="31.710893333" lon="34.969038333">
<time>2013-04-01T08:05:45Z</time>
 <fix>none</fix>
 <sat>0</sat>
</trkpt>
<trkpt lat="31.710876667" lon="34.969035000">
<time>2013-04-01T08:05:47Z</time>
 <fix>none</fix>
 <sat>0</sat>
</trkpt>
<trkpt lat="31.710860000" lon="34.969031667">
<time>2013-04-01T08:05:49Z</time>
 <fix>none</fix>
 <sat>0</sat>
</trkpt>
<trkpt lat="31.710845000" lon="34.969031667">
<time>2013-04-01T08:05:51Z</time>
 <fix>none</fix>
 <sat>0</sat>
</trkpt>
<trkpt lat="31.710831667" lon="34.969031667">
<time>2013-04-01T08:05:53Z</time>
 <fix>none</fix>
 <sat>0</sat>
</trkpt>
<trkpt lat="31.710823333" lon="34.969031667">
<time>2013-04-01T08:05:55Z</time>
 <fix>none</fix>
 <sat>0</sat>
</trkpt>
<trkpt lat="31.710800000" lon="34.969033333">
<time>2013-04-01T08:05:57Z</time>
 <fix>none</fix>
 <sat>0</sat>
</trkpt>
<trkpt lat="31.710785000" lon="34.969038333">
<time>2013-04-01T08:05:59Z</time>
 <fix>none</fix>
 <sat>0</sat>
</trkpt>
<trkpt lat="31.710771667" lon="34.969040000">
<time>2013-04-01T08:06:01Z</time>
 <fix>none</fix>
 <sat>0</sat>
</trkpt>
<trkpt lat="31.710755000" lon="34.969041667">
<time>2013-04-01T08:06:03Z</time>
 <fix>none</fix>
 <sat>0</sat>
</trkpt>
<trkpt lat="31.710741667" lon="34.969043333">
<time>2013-04-01T08:06:05Z</time>
 <fix>none</fix>
 <sat>0</sat>
</trkpt>
<trkpt lat="31.710725000" lon="34.969045000">
<time>2013-04-01T08:06:07Z</time>
 <fix>none</fix>
 <sat>0</sat>
</trkpt>
<trkpt lat="31.710708333" lon="34.969046667">
<time>2013-04-01T08:06:09Z</time>
 <fix>none</fix>
 <sat>0</sat>
</trkpt>
<trkpt lat="31.710691667" lon="34.969046667">
<time>2013-04-01T08:06:11Z</time>
 <fix>none</fix>
 <sat>0</sat>
</trkpt>
<trkpt lat="31.710675000" lon="34.969043333">
<time>2013-04-01T08:06:13Z</time>
 <fix>none</fix>
 <sat>0</sat>
</trkpt>
<trkpt lat="31.710666667" lon="34.969040000">
<time>2013-04-01T08:06:15Z</time>
 <fix>none</fix>
 <sat>0</sat>
</trkpt>
<trkpt lat="31.710665000" lon="34.969035000">
<time>2013-04-01T08:06:17Z</time>
 <fix>none</fix>
 <sat>0</sat>
</trkpt>
<trkpt lat="31.710660000" lon="34.969035000">
<time>2013-04-01T08:06:19Z</time>
 <fix>none</fix>
 <sat>0</sat>
</trkpt>
<trkpt lat="31.710638333" lon="34.969040000">
<time>2013-04-01T08:06:21Z</time>
 <fix>none</fix>
 <sat>0</sat>
</trkpt>
<trkpt lat="31.710610000" lon="34.969028333">
<time>2013-04-01T08:06:23Z</time>
 <fix>none</fix>
 <sat>0</sat>
</trkpt>
<trkpt lat="31.710583333" lon="34.969018333">
<time>2013-04-01T08:06:25Z</time>
 <fix>none</fix>
 <sat>0</sat>
</trkpt>
<trkpt lat="31.710556667" lon="34.969008333">
<time>2013-04-01T08:06:27Z</time>
 <fix>none</fix>
 <sat>0</sat>
</trkpt>
<trkpt lat="31.710530000" lon="34.968995000">
<time>2013-04-01T08:06:29Z</time>
 <fix>none</fix>
 <sat>0</sat>
</trkpt>
<trkpt lat="31.710503333" lon="34.968981667">
<time>2013-04-01T08:06:31Z</time>
 <fix>none</fix>
 <sat>0</sat>
</trkpt>
<trkpt lat="31.710475000" lon="34.968970000">
<time>2013-04-01T08:06:33Z</time>
 <fix>none</fix>
 <sat>0</sat>
</trkpt>
<trkpt lat="31.710445000" lon="34.968960000">
<time>2013-04-01T08:06:35Z</time>
 <fix>none</fix>
 <sat>0</sat>
</trkpt>
<trkpt lat="31.710413333" lon="34.968953333">
<time>2013-04-01T08:06:37Z</time>
 <fix>none</fix>
 <sat>0</sat>
</trkpt>
<trkpt lat="31.710396667" lon="34.968951667">
<time>2013-04-01T08:06:39Z</time>
 <fix>none</fix>
 <sat>0</sat>
</trkpt>
<trkpt lat="31.710363333" lon="34.968946667">
<time>2013-04-01T08:06:41Z</time>
 <fix>none</fix>
 <sat>0</sat>
</trkpt>
<trkpt lat="31.710333333" lon="34.968943333">
<time>2013-04-01T08:06:43Z</time>
 <fix>none</fix>
 <sat>0</sat>
</trkpt>
<trkpt lat="31.710280000" lon="34.968938333">
<time>2013-04-01T08:06:45Z</time>
 <fix>none</fix>
 <sat>0</sat>
</trkpt>
<trkpt lat="31.710258333" lon="34.968935000">
<time>2013-04-01T08:06:47Z</time>
 <fix>none</fix>
 <sat>0</sat>
</trkpt>
<trkpt lat="31.710196667" lon="34.968933333">
<time>2013-04-01T08:06:49Z</time>
 <fix>none</fix>
 <sat>0</sat>
</trkpt>
<trkpt lat="31.710155000" lon="34.968941667">
<time>2013-04-01T08:06:51Z</time>
 <fix>none</fix>
 <sat>0</sat>
</trkpt>
<trkpt lat="31.710121667" lon="34.968951667">
<time>2013-04-01T08:06:53Z</time>
 <fix>none</fix>
 <sat>0</sat>
</trkpt>
<trkpt lat="31.710091667" lon="34.968966667">
<time>2013-04-01T08:06:55Z</time>
 <fix>none</fix>
 <sat>0</sat>
</trkpt>
<trkpt lat="31.710066667" lon="34.968985000">
<time>2013-04-01T08:06:57Z</time>
 <fix>none</fix>
 <sat>0</sat>
</trkpt>
<trkpt lat="31.710050000" lon="34.968995000">
<time>2013-04-01T08:06:59Z</time>
 <fix>none</fix>
 <sat>0</sat>
</trkpt>
<trkpt lat="31.710050000" lon="34.968995000">
<time>2013-04-01T08:07:01Z</time>
 <fix>none</fix>
 <sat>0</sat>
</trkpt>
<trkpt lat="31.710048333" lon="34.968995000">
<time>2013-04-01T08:07:03Z</time>
 <fix>none</fix>
 <sat>0</sat>
</trkpt>
<trkpt lat="31.710048333" lon="34.968993333">
<time>2013-04-01T08:07:05Z</time>
 <fix>none</fix>
 <sat>0</sat>
</trkpt>
<trkpt lat="31.710046667" lon="34.968993333">
<time>2013-04-01T08:07:07Z</time>
 <fix>none</fix>
 <sat>0</sat>
</trkpt>
<trkpt lat="31.710046667" lon="34.968993333">
<time>2013-04-01T08:07:09Z</time>
 <fix>none</fix>
 <sat>0</sat>
</trkpt>
<trkpt lat="31.710045000" lon="34.968991667">
<time>2013-04-01T08:07:11Z</time>
 <fix>none</fix>
 <sat>0</sat>
</trkpt>
<trkpt lat="31.710045000" lon="34.968993333">
<time>2013-04-01T08:07:13Z</time>
 <fix>none</fix>
 <sat>0</sat>
</trkpt>
<trkpt lat="31.710045000" lon="34.968993333">
<time>2013-04-01T08:07:15Z</time>
 <fix>none</fix>
 <sat>0</sat>
</trkpt>
<trkpt lat="31.710046667" lon="34.968993333">
<time>2013-04-01T08:07:17Z</time>
 <fix>none</fix>
 <sat>0</sat>
</trkpt>
<trkpt lat="31.710048333" lon="34.968995000">
<time>2013-04-01T08:07:19Z</time>
 <fix>none</fix>
 <sat>0</sat>
</trkpt>
<trkpt lat="31.710046667" lon="34.968995000">
<time>2013-04-01T08:07:21Z</time>
 <fix>none</fix>
 <sat>0</sat>
</trkpt>
<trkpt lat="31.710045000" lon="34.968993333">
<time>2013-04-01T08:07:23Z</time>
 <fix>none</fix>
 <sat>0</sat>
</trkpt>
<trkpt lat="31.710043333" lon="34.968991667">
<time>2013-04-01T08:07:25Z</time>
 <fix>none</fix>
 <sat>0</sat>
</trkpt>
<trkpt lat="31.710040000" lon="34.968986667">
<time>2013-04-01T08:07:27Z</time>
 <fix>none</fix>
 <sat>0</sat>
</trkpt>
<trkpt lat="31.710038333" lon="34.968988333">
<time>2013-04-01T08:07:29Z</time>
 <fix>none</fix>
 <sat>0</sat>
</trkpt>
<trkpt lat="31.710038333" lon="34.968996667">
<time>2013-04-01T08:07:31Z</time>
 <fix>none</fix>
 <sat>0</sat>
</trkpt>
<trkpt lat="31.710038333" lon="34.969000000">
<time>2013-04-01T08:07:33Z</time>
 <fix>none</fix>
 <sat>0</sat>
</trkpt>
<trkpt lat="31.710041667" lon="34.969021667">
<time>2013-04-01T08:07:35Z</time>
 <fix>none</fix>
 <sat>0</sat>
</trkpt>
<trkpt lat="31.710033333" lon="34.969055000">
<time>2013-04-01T08:07:37Z</time>
 <fix>none</fix>
 <sat>0</sat>
</trkpt>
<trkpt lat="31.710021667" lon="34.969086667">
<time>2013-04-01T08:07:39Z</time>
 <fix>none</fix>
 <sat>0</sat>
</trkpt>
<trkpt lat="31.710011667" lon="34.969105000">
<time>2013-04-01T08:07:41Z</time>
 <fix>none</fix>
 <sat>0</sat>
</trkpt>
<trkpt lat="31.710011667" lon="34.969111667">
<time>2013-04-01T08:07:43Z</time>
 <fix>none</fix>
 <sat>0</sat>
</trkpt>
<trkpt lat="31.710013333" lon="34.969110000">
<time>2013-04-01T08:07:45Z</time>
 <fix>none</fix>
 <sat>0</sat>
</trkpt>
<trkpt lat="31.710008333" lon="34.969115000">
<time>2013-04-01T08:07:47Z</time>
 <fix>none</fix>
 <sat>0</sat>
</trkpt>
<trkpt lat="31.710001667" lon="34.969121667">
<time>2013-04-01T08:07:49Z</time>
 <fix>none</fix>
 <sat>0</sat>
</trkpt>
<trkpt lat="31.709990000" lon="34.969131667">
<time>2013-04-01T08:07:51Z</time>
 <fix>none</fix>
 <sat>0</sat>
</trkpt>
<trkpt lat="31.709973333" lon="34.969150000">
<time>2013-04-01T08:07:53Z</time>
 <fix>none</fix>
 <sat>0</sat>
</trkpt>
<trkpt lat="31.709970000" lon="34.969156667">
<time>2013-04-01T08:07:55Z</time>
 <fix>none</fix>
 <sat>0</sat>
</trkpt>
<trkpt lat="31.709966667" lon="34.969180000">
<time>2013-04-01T08:07:57Z</time>
 <fix>none</fix>
 <sat>0</sat>
</trkpt>
<trkpt lat="31.709961667" lon="34.969186667">
<time>2013-04-01T08:07:59Z</time>
 <fix>none</fix>
 <sat>0</sat>
</trkpt>
<trkpt lat="31.709943333" lon="34.969205000">
<time>2013-04-01T08:08:01Z</time>
 <fix>none</fix>
 <sat>0</sat>
</trkpt>
<trkpt lat="31.709938333" lon="34.969216667">
<time>2013-04-01T08:08:03Z</time>
 <fix>none</fix>
 <sat>0</sat>
</trkpt>
<trkpt lat="31.709931667" lon="34.969226667">
<time>2013-04-01T08:08:05Z</time>
 <fix>none</fix>
 <sat>0</sat>
</trkpt>
<trkpt lat="31.709915000" lon="34.969251667">
<time>2013-04-01T08:08:07Z</time>
 <fix>none</fix>
 <sat>0</sat>
</trkpt>
<trkpt lat="31.709908333" lon="34.969270000">
<time>2013-04-01T08:08:09Z</time>
 <fix>none</fix>
 <sat>0</sat>
</trkpt>
<trkpt lat="31.709891667" lon="34.969306667">
<time>2013-04-01T08:08:11Z</time>
 <fix>none</fix>
 <sat>0</sat>
</trkpt>
<trkpt lat="31.709871667" lon="34.969345000">
<time>2013-04-01T08:08:13Z</time>
 <fix>none</fix>
 <sat>0</sat>
</trkpt>
<trkpt lat="31.709838333" lon="34.969398333">
<time>2013-04-01T08:08:15Z</time>
 <fix>none</fix>
 <sat>0</sat>
</trkpt>
<trkpt lat="31.709818333" lon="34.969431667">
<time>2013-04-01T08:08:17Z</time>
 <fix>none</fix>
 <sat>0</sat>
</trkpt>
<trkpt lat="31.709796667" lon="34.969463333">
<time>2013-04-01T08:08:19Z</time>
 <fix>none</fix>
 <sat>0</sat>
</trkpt>
<trkpt lat="31.709775000" lon="34.969496667">
<time>2013-04-01T08:08:21Z</time>
 <fix>none</fix>
 <sat>0</sat>
</trkpt>
<trkpt lat="31.709753333" lon="34.969531667">
<time>2013-04-01T08:08:23Z</time>
 <fix>none</fix>
 <sat>0</sat>
</trkpt>
<trkpt lat="31.709743333" lon="34.969575000">
<time>2013-04-01T08:08:25Z</time>
 <fix>none</fix>
 <sat>0</sat>
</trkpt>
<trkpt lat="31.709736667" lon="34.969616667">
<time>2013-04-01T08:08:27Z</time>
 <fix>none</fix>
 <sat>0</sat>
</trkpt>
<trkpt lat="31.709728333" lon="34.969658333">
<time>2013-04-01T08:08:29Z</time>
 <fix>none</fix>
 <sat>0</sat>
</trkpt>
<trkpt lat="31.709706667" lon="34.969690000">
<time>2013-04-01T08:08:31Z</time>
 <fix>none</fix>
 <sat>0</sat>
</trkpt>
<trkpt lat="31.709688333" lon="34.969705000">
<time>2013-04-01T08:08:33Z</time>
 <fix>none</fix>
 <sat>0</sat>
</trkpt>
<trkpt lat="31.709646667" lon="34.969738333">
<time>2013-04-01T08:08:35Z</time>
 <fix>none</fix>
 <sat>0</sat>
</trkpt>
<trkpt lat="31.709605000" lon="34.969773333">
<time>2013-04-01T08:08:37Z</time>
 <fix>none</fix>
 <sat>0</sat>
</trkpt>
<trkpt lat="31.709543333" lon="34.969823333">
<time>2013-04-01T08:08:39Z</time>
 <fix>none</fix>
 <sat>0</sat>
</trkpt>
<trkpt lat="31.709506667" lon="34.969863333">
<time>2013-04-01T08:08:41Z</time>
 <fix>none</fix>
 <sat>0</sat>
</trkpt>
<trkpt lat="31.709475000" lon="34.969905000">
<time>2013-04-01T08:08:43Z</time>
 <fix>none</fix>
 <sat>0</sat>
</trkpt>
<trkpt lat="31.709448333" lon="34.969948333">
<time>2013-04-01T08:08:45Z</time>
 <fix>none</fix>
 <sat>0</sat>
</trkpt>
<trkpt lat="31.709423333" lon="34.969995000">
<time>2013-04-01T08:08:47Z</time>
 <fix>none</fix>
 <sat>0</sat>
</trkpt>
<trkpt lat="31.709396667" lon="34.970038333">
<time>2013-04-01T08:08:49Z</time>
 <fix>none</fix>
 <sat>0</sat>
</trkpt>
<trkpt lat="31.709363333" lon="34.970080000">
<time>2013-04-01T08:08:51Z</time>
 <fix>none</fix>
 <sat>0</sat>
</trkpt>
<trkpt lat="31.709328333" lon="34.970113333">
<time>2013-04-01T08:08:53Z</time>
 <fix>none</fix>
 <sat>0</sat>
</trkpt>
<trkpt lat="31.709288333" lon="34.970138333">
<time>2013-04-01T08:08:55Z</time>
 <fix>none</fix>
 <sat>0</sat>
</trkpt>
<trkpt lat="31.709266667" lon="34.970145000">
<time>2013-04-01T08:08:57Z</time>
 <fix>none</fix>
 <sat>0</sat>
</trkpt>
<trkpt lat="31.709220000" lon="34.970155000">
<time>2013-04-01T08:08:59Z</time>
 <fix>none</fix>
 <sat>0</sat>
</trkpt>
<trkpt lat="31.709178333" lon="34.970178333">
<time>2013-04-01T08:09:01Z</time>
 <fix>none</fix>
 <sat>0</sat>
</trkpt>
<trkpt lat="31.709125000" lon="34.970230000">
<time>2013-04-01T08:09:03Z</time>
 <fix>none</fix>
 <sat>0</sat>
</trkpt>
<trkpt lat="31.709093333" lon="34.970266667">
<time>2013-04-01T08:09:05Z</time>
 <fix>none</fix>
 <sat>0</sat>
</trkpt>
<trkpt lat="31.709061667" lon="34.970308333">
<time>2013-04-01T08:09:07Z</time>
 <fix>none</fix>
 <sat>0</sat>
</trkpt>
<trkpt lat="31.709033333" lon="34.970346667">
<time>2013-04-01T08:09:09Z</time>
 <fix>none</fix>
 <sat>0</sat>
</trkpt>
<trkpt lat="31.709006667" lon="34.970383333">
<time>2013-04-01T08:09:11Z</time>
 <fix>none</fix>
 <sat>0</sat>
</trkpt>
<trkpt lat="31.708981667" lon="34.970420000">
<time>2013-04-01T08:09:13Z</time>
 <fix>none</fix>
 <sat>0</sat>
</trkpt>
<trkpt lat="31.708951667" lon="34.970456667">
<time>2013-04-01T08:09:15Z</time>
 <fix>none</fix>
 <sat>0</sat>
</trkpt>
<trkpt lat="31.708920000" lon="34.970490000">
<time>2013-04-01T08:09:17Z</time>
 <fix>none</fix>
 <sat>0</sat>
</trkpt>
<trkpt lat="31.708905000" lon="34.970508333">
<time>2013-04-01T08:09:19Z</time>
 <fix>none</fix>
 <sat>0</sat>
</trkpt>
<trkpt lat="31.708871667" lon="34.970543333">
<time>2013-04-01T08:09:21Z</time>
 <fix>none</fix>
 <sat>0</sat>
</trkpt>
<trkpt lat="31.708836667" lon="34.970585000">
<time>2013-04-01T08:09:23Z</time>
 <fix>none</fix>
 <sat>0</sat>
</trkpt>
<trkpt lat="31.708783333" lon="34.970653333">
<time>2013-04-01T08:09:25Z</time>
 <fix>none</fix>
 <sat>0</sat>
</trkpt>
<trkpt lat="31.708751667" lon="34.970695000">
<time>2013-04-01T08:09:27Z</time>
 <fix>none</fix>
 <sat>0</sat>
</trkpt>
<trkpt lat="31.708718333" lon="34.970738333">
<time>2013-04-01T08:09:29Z</time>
 <fix>none</fix>
 <sat>0</sat>
</trkpt>
<trkpt lat="31.708683333" lon="34.970785000">
<time>2013-04-01T08:09:31Z</time>
 <fix>none</fix>
 <sat>0</sat>
</trkpt>
<trkpt lat="31.708653333" lon="34.970838333">
<time>2013-04-01T08:09:33Z</time>
 <fix>none</fix>
 <sat>0</sat>
</trkpt>
<trkpt lat="31.708635000" lon="34.970895000">
<time>2013-04-01T08:09:35Z</time>
 <fix>none</fix>
 <sat>0</sat>
</trkpt>
<trkpt lat="31.708623333" lon="34.970951667">
<time>2013-04-01T08:09:37Z</time>
 <fix>none</fix>
 <sat>0</sat>
</trkpt>
<trkpt lat="31.708616667" lon="34.971006667">
<time>2013-04-01T08:09:39Z</time>
 <fix>none</fix>
 <sat>0</sat>
</trkpt>
<trkpt lat="31.708610000" lon="34.971063333">
<time>2013-04-01T08:09:41Z</time>
 <fix>none</fix>
 <sat>0</sat>
</trkpt>
<trkpt lat="31.708608333" lon="34.971090000">
<time>2013-04-01T08:09:43Z</time>
 <fix>none</fix>
 <sat>0</sat>
</trkpt>
<trkpt lat="31.708603333" lon="34.971173333">
<time>2013-04-01T08:09:45Z</time>
 <fix>none</fix>
 <sat>0</sat>
</trkpt>
<trkpt lat="31.708603333" lon="34.971226667">
<time>2013-04-01T08:09:47Z</time>
 <fix>none</fix>
 <sat>0</sat>
</trkpt>
<trkpt lat="31.708605000" lon="34.971281667">
<time>2013-04-01T08:09:49Z</time>
 <fix>none</fix>
 <sat>0</sat>
</trkpt>
<trkpt lat="31.708605000" lon="34.971336667">
<time>2013-04-01T08:09:51Z</time>
 <fix>none</fix>
 <sat>0</sat>
</trkpt>
<trkpt lat="31.708601667" lon="34.971393333">
<time>2013-04-01T08:09:53Z</time>
 <fix>none</fix>
 <sat>0</sat>
</trkpt>
<trkpt lat="31.708600000" lon="34.971450000">
<time>2013-04-01T08:09:55Z</time>
 <fix>none</fix>
 <sat>0</sat>
</trkpt>
<trkpt lat="31.708603333" lon="34.971506667">
<time>2013-04-01T08:09:57Z</time>
 <fix>none</fix>
 <sat>0</sat>
</trkpt>
<trkpt lat="31.708618333" lon="34.971558333">
<time>2013-04-01T08:09:59Z</time>
 <fix>none</fix>
 <sat>0</sat>
</trkpt>
<trkpt lat="31.708641667" lon="34.971610000">
<time>2013-04-01T08:10:01Z</time>
 <fix>none</fix>
 <sat>0</sat>
</trkpt>
<trkpt lat="31.708666667" lon="34.971658333">
<time>2013-04-01T08:10:03Z</time>
 <fix>none</fix>
 <sat>0</sat>
</trkpt>
<trkpt lat="31.708678333" lon="34.971680000">
<time>2013-04-01T08:10:05Z</time>
 <fix>none</fix>
 <sat>0</sat>
</trkpt>
<trkpt lat="31.708695000" lon="34.971721667">
<time>2013-04-01T08:10:07Z</time>
 <fix>none</fix>
 <sat>0</sat>
</trkpt>
<trkpt lat="31.708708333" lon="34.971760000">
<time>2013-04-01T08:10:09Z</time>
 <fix>none</fix>
 <sat>0</sat>
</trkpt>
<trkpt lat="31.708720000" lon="34.971821667">
<time>2013-04-01T08:10:11Z</time>
 <fix>none</fix>
 <sat>0</sat>
</trkpt>
<trkpt lat="31.708720000" lon="34.971841667">
<time>2013-04-01T08:10:13Z</time>
 <fix>none</fix>
 <sat>0</sat>
</trkpt>
<trkpt lat="31.708710000" lon="34.971903333">
<time>2013-04-01T08:10:15Z</time>
 <fix>none</fix>
 <sat>0</sat>
</trkpt>
<trkpt lat="31.708696667" lon="34.971943333">
<time>2013-04-01T08:10:17Z</time>
 <fix>none</fix>
 <sat>0</sat>
</trkpt>
<trkpt lat="31.708681667" lon="34.971980000">
<time>2013-04-01T08:10:19Z</time>
 <fix>none</fix>
 <sat>0</sat>
</trkpt>
<trkpt lat="31.708661667" lon="34.972015000">
<time>2013-04-01T08:10:21Z</time>
 <fix>none</fix>
 <sat>0</sat>
</trkpt>
<trkpt lat="31.708645000" lon="34.972051667">
<time>2013-04-01T08:10:23Z</time>
 <fix>none</fix>
 <sat>0</sat>
</trkpt>
<trkpt lat="31.708631667" lon="34.972090000">
<time>2013-04-01T08:10:25Z</time>
 <fix>none</fix>
 <sat>0</sat>
</trkpt>
<trkpt lat="31.708626667" lon="34.972106667">
<time>2013-04-01T08:10:27Z</time>
 <fix>none</fix>
 <sat>0</sat>
</trkpt>
<trkpt lat="31.708616667" lon="34.972145000">
<time>2013-04-01T08:10:29Z</time>
 <fix>none</fix>
 <sat>0</sat>
</trkpt>
<trkpt lat="31.708608333" lon="34.972185000">
<time>2013-04-01T08:10:31Z</time>
 <fix>none</fix>
 <sat>0</sat>
</trkpt>
<trkpt lat="31.708596667" lon="34.972246667">
<time>2013-04-01T08:10:33Z</time>
 <fix>none</fix>
 <sat>0</sat>
</trkpt>
<trkpt lat="31.708590000" lon="34.972290000">
<time>2013-04-01T08:10:35Z</time>
 <fix>none</fix>
 <sat>0</sat>
</trkpt>
<trkpt lat="31.708586667" lon="34.972326667">
<time>2013-04-01T08:10:37Z</time>
 <fix>none</fix>
 <sat>0</sat>
</trkpt>
<trkpt lat="31.708581667" lon="34.972366667">
<time>2013-04-01T08:10:39Z</time>
 <fix>none</fix>
 <sat>0</sat>
</trkpt>
<trkpt lat="31.708575000" lon="34.972406667">
<time>2013-04-01T08:10:41Z</time>
 <fix>none</fix>
 <sat>0</sat>
</trkpt>
<trkpt lat="31.708565000" lon="34.972443333">
<time>2013-04-01T08:10:43Z</time>
 <fix>none</fix>
 <sat>0</sat>
</trkpt>
<trkpt lat="31.708553333" lon="34.972480000">
<time>2013-04-01T08:10:45Z</time>
 <fix>none</fix>
 <sat>0</sat>
</trkpt>
<trkpt lat="31.708540000" lon="34.972515000">
<time>2013-04-01T08:10:47Z</time>
 <fix>none</fix>
 <sat>0</sat>
</trkpt>
<trkpt lat="31.708535000" lon="34.972533333">
<time>2013-04-01T08:10:49Z</time>
 <fix>none</fix>
 <sat>0</sat>
</trkpt>
<trkpt lat="31.708516667" lon="34.972565000">
<time>2013-04-01T08:10:51Z</time>
 <fix>none</fix>
 <sat>0</sat>
</trkpt>
<trkpt lat="31.708500000" lon="34.972598333">
<time>2013-04-01T08:10:53Z</time>
 <fix>none</fix>
 <sat>0</sat>
</trkpt>
<trkpt lat="31.708473333" lon="34.972650000">
<time>2013-04-01T08:10:55Z</time>
 <fix>none</fix>
 <sat>0</sat>
</trkpt>
<trkpt lat="31.708456667" lon="34.972681667">
<time>2013-04-01T08:10:57Z</time>
 <fix>none</fix>
 <sat>0</sat>
</trkpt>
<trkpt lat="31.708440000" lon="34.972716667">
<time>2013-04-01T08:10:59Z</time>
 <fix>none</fix>
 <sat>0</sat>
</trkpt>
<trkpt lat="31.708421667" lon="34.972760000">
<time>2013-04-01T08:11:01Z</time>
 <fix>none</fix>
 <sat>0</sat>
</trkpt>
<trkpt lat="31.708405000" lon="34.972800000">
<time>2013-04-01T08:11:03Z</time>
 <fix>none</fix>
 <sat>0</sat>
</trkpt>
<trkpt lat="31.708390000" lon="34.972838333">
<time>2013-04-01T08:11:05Z</time>
 <fix>none</fix>
 <sat>0</sat>
</trkpt>
<trkpt lat="31.708378333" lon="34.972875000">
<time>2013-04-01T08:11:07Z</time>
 <fix>none</fix>
 <sat>0</sat>
</trkpt>
<trkpt lat="31.708365000" lon="34.972913333">
<time>2013-04-01T08:11:09Z</time>
 <fix>none</fix>
 <sat>0</sat>
</trkpt>
<trkpt lat="31.708351667" lon="34.972953333">
<time>2013-04-01T08:11:11Z</time>
 <fix>none</fix>
 <sat>0</sat>
</trkpt>
<trkpt lat="31.708343333" lon="34.972971667">
<time>2013-04-01T08:11:13Z</time>
 <fix>none</fix>
 <sat>0</sat>
</trkpt>
<trkpt lat="31.708325000" lon="34.973008333">
<time>2013-04-01T08:11:15Z</time>
 <fix>none</fix>
 <sat>0</sat>
</trkpt>
<trkpt lat="31.708308333" lon="34.973041667">
<time>2013-04-01T08:11:17Z</time>
 <fix>none</fix>
 <sat>0</sat>
</trkpt>
<trkpt lat="31.708281667" lon="34.973091667">
<time>2013-04-01T08:11:19Z</time>
 <fix>none</fix>
 <sat>0</sat>
</trkpt>
<trkpt lat="31.708260000" lon="34.973123333">
<time>2013-04-01T08:11:21Z</time>
 <fix>none</fix>
 <sat>0</sat>
</trkpt>
<trkpt lat="31.708250000" lon="34.973140000">
<time>2013-04-01T08:11:23Z</time>
 <fix>none</fix>
 <sat>0</sat>
</trkpt>
<trkpt lat="31.708223333" lon="34.973190000">
<time>2013-04-01T08:11:25Z</time>
 <fix>none</fix>
 <sat>0</sat>
</trkpt>
<trkpt lat="31.708203333" lon="34.973221667">
<time>2013-04-01T08:11:27Z</time>
 <fix>none</fix>
 <sat>0</sat>
</trkpt>
<trkpt lat="31.708186667" lon="34.973253333">
<time>2013-04-01T08:11:29Z</time>
 <fix>none</fix>
 <sat>0</sat>
</trkpt>
<trkpt lat="31.708168333" lon="34.973285000">
<time>2013-04-01T08:11:31Z</time>
 <fix>none</fix>
 <sat>0</sat>
</trkpt>
<trkpt lat="31.708155000" lon="34.973321667">
<time>2013-04-01T08:11:33Z</time>
 <fix>none</fix>
 <sat>0</sat>
</trkpt>
<trkpt lat="31.708145000" lon="34.973358333">
<time>2013-04-01T08:11:35Z</time>
 <fix>none</fix>
 <sat>0</sat>
</trkpt>
<trkpt lat="31.708140000" lon="34.973378333">
<time>2013-04-01T08:11:37Z</time>
 <fix>none</fix>
 <sat>0</sat>
</trkpt>
<trkpt lat="31.708128333" lon="34.973416667">
<time>2013-04-01T08:11:39Z</time>
 <fix>none</fix>
 <sat>0</sat>
</trkpt>
<trkpt lat="31.708111667" lon="34.973475000">
<time>2013-04-01T08:11:41Z</time>
 <fix>none</fix>
 <sat>0</sat>
</trkpt>
<trkpt lat="31.708098333" lon="34.973510000">
<time>2013-04-01T08:11:43Z</time>
 <fix>none</fix>
 <sat>0</sat>
</trkpt>
<trkpt lat="31.708081667" lon="34.973546667">
<time>2013-04-01T08:11:45Z</time>
 <fix>none</fix>
 <sat>0</sat>
</trkpt>
<trkpt lat="31.708066667" lon="34.973583333">
<time>2013-04-01T08:11:47Z</time>
 <fix>none</fix>
 <sat>0</sat>
</trkpt>
<trkpt lat="31.708055000" lon="34.973618333">
<time>2013-04-01T08:11:49Z</time>
 <fix>none</fix>
 <sat>0</sat>
</trkpt>
<trkpt lat="31.708046667" lon="34.973651667">
<time>2013-04-01T08:11:51Z</time>
 <fix>none</fix>
 <sat>0</sat>
</trkpt>
<trkpt lat="31.708040000" lon="34.973685000">
<time>2013-04-01T08:11:53Z</time>
 <fix>none</fix>
 <sat>0</sat>
</trkpt>
<trkpt lat="31.708038333" lon="34.973721667">
<time>2013-04-01T08:11:55Z</time>
 <fix>none</fix>
 <sat>0</sat>
</trkpt>
<trkpt lat="31.708041667" lon="34.973761667">
<time>2013-04-01T08:11:57Z</time>
 <fix>none</fix>
 <sat>0</sat>
</trkpt>
<trkpt lat="31.708043333" lon="34.973780000">
<time>2013-04-01T08:11:59Z</time>
 <fix>none</fix>
 <sat>0</sat>
</trkpt>
<trkpt lat="31.708050000" lon="34.973813333">
<time>2013-04-01T08:12:01Z</time>
 <fix>none</fix>
 <sat>0</sat>
</trkpt>
<trkpt lat="31.708056667" lon="34.973826667">
<time>2013-04-01T08:12:03Z</time>
 <fix>none</fix>
 <sat>0</sat>
</trkpt>
<trkpt lat="31.708058333" lon="34.973825000">
<time>2013-04-01T08:12:05Z</time>
 <fix>none</fix>
 <sat>0</sat>
</trkpt>
<trkpt lat="31.708061667" lon="34.973830000">
<time>2013-04-01T08:12:07Z</time>
 <fix>none</fix>
 <sat>0</sat>
</trkpt>
<trkpt lat="31.708073333" lon="34.973851667">
<time>2013-04-01T08:12:09Z</time>
 <fix>none</fix>
 <sat>0</sat>
</trkpt>
<trkpt lat="31.708078333" lon="34.973866667">
<time>2013-04-01T08:12:11Z</time>
 <fix>none</fix>
 <sat>0</sat>
</trkpt>
<trkpt lat="31.708083333" lon="34.973880000">
<time>2013-04-01T08:12:13Z</time>
 <fix>none</fix>
 <sat>0</sat>
</trkpt>
<trkpt lat="31.708085000" lon="34.973880000">
<time>2013-04-01T08:12:15Z</time>
 <fix>none</fix>
 <sat>0</sat>
</trkpt>
<trkpt lat="31.708085000" lon="34.973878333">
<time>2013-04-01T08:12:17Z</time>
 <fix>none</fix>
 <sat>0</sat>
</trkpt>
<trkpt lat="31.708081667" lon="34.973878333">
<time>2013-04-01T08:12:19Z</time>
 <fix>none</fix>
 <sat>0</sat>
</trkpt>
<trkpt lat="31.708083333" lon="34.973880000">
<time>2013-04-01T08:12:21Z</time>
 <fix>none</fix>
 <sat>0</sat>
</trkpt>
<trkpt lat="31.708085000" lon="34.973890000">
<time>2013-04-01T08:12:23Z</time>
 <fix>none</fix>
 <sat>0</sat>
</trkpt>
<trkpt lat="31.708091667" lon="34.973900000">
<time>2013-04-01T08:12:25Z</time>
 <fix>none</fix>
 <sat>0</sat>
</trkpt>
<trkpt lat="31.708100000" lon="34.973910000">
<time>2013-04-01T08:12:27Z</time>
 <fix>none</fix>
 <sat>0</sat>
</trkpt>
<trkpt lat="31.708113333" lon="34.973925000">
<time>2013-04-01T08:12:29Z</time>
 <fix>none</fix>
 <sat>0</sat>
</trkpt>
<trkpt lat="31.708118333" lon="34.973938333">
<time>2013-04-01T08:12:31Z</time>
 <fix>none</fix>
 <sat>0</sat>
</trkpt>
<trkpt lat="31.708123333" lon="34.973948333">
<time>2013-04-01T08:12:33Z</time>
 <fix>none</fix>
 <sat>0</sat>
</trkpt>
<trkpt lat="31.708130000" lon="34.973955000">
<time>2013-04-01T08:12:35Z</time>
 <fix>none</fix>
 <sat>0</sat>
</trkpt>
<trkpt lat="31.708135000" lon="34.973960000">
<time>2013-04-01T08:12:37Z</time>
 <fix>none</fix>
 <sat>0</sat>
</trkpt>
<trkpt lat="31.708138333" lon="34.973966667">
<time>2013-04-01T08:12:39Z</time>
 <fix>none</fix>
 <sat>0</sat>
</trkpt>
<trkpt lat="31.708145000" lon="34.973973333">
<time>2013-04-01T08:12:41Z</time>
 <fix>none</fix>
 <sat>0</sat>
</trkpt>
<trkpt lat="31.708148333" lon="34.973981667">
<time>2013-04-01T08:12:43Z</time>
 <fix>none</fix>
 <sat>0</sat>
</trkpt>
<trkpt lat="31.708150000" lon="34.973985000">
<time>2013-04-01T08:12:45Z</time>
 <fix>none</fix>
 <sat>0</sat>
</trkpt>
<trkpt lat="31.708150000" lon="34.973988333">
<time>2013-04-01T08:12:47Z</time>
 <fix>none</fix>
 <sat>0</sat>
</trkpt>
<trkpt lat="31.708150000" lon="34.973988333">
<time>2013-04-01T08:12:49Z</time>
 <fix>none</fix>
 <sat>0</sat>
</trkpt>
<trkpt lat="31.708151667" lon="34.973990000">
<time>2013-04-01T08:12:51Z</time>
 <fix>none</fix>
 <sat>0</sat>
</trkpt>
<trkpt lat="31.708151667" lon="34.973990000">
<time>2013-04-01T08:12:53Z</time>
 <fix>none</fix>
 <sat>0</sat>
</trkpt>
<trkpt lat="31.708168333" lon="34.974008333">
<time>2013-04-01T08:12:55Z</time>
 <fix>none</fix>
 <sat>0</sat>
</trkpt>
<trkpt lat="31.708170000" lon="34.974011667">
<time>2013-04-01T08:12:57Z</time>
 <fix>none</fix>
 <sat>0</sat>
</trkpt>
<trkpt lat="31.708175000" lon="34.974020000">
<time>2013-04-01T08:12:59Z</time>
 <fix>none</fix>
 <sat>0</sat>
</trkpt>
<trkpt lat="31.708183333" lon="34.974030000">
<time>2013-04-01T08:13:01Z</time>
 <fix>none</fix>
 <sat>0</sat>
</trkpt>
<trkpt lat="31.708191667" lon="34.974038333">
<time>2013-04-01T08:13:03Z</time>
 <fix>none</fix>
 <sat>0</sat>
</trkpt>
<trkpt lat="31.708201667" lon="34.974045000">
<time>2013-04-01T08:13:05Z</time>
 <fix>none</fix>
 <sat>0</sat>
</trkpt>
<trkpt lat="31.708206667" lon="34.974048333">
<time>2013-04-01T08:13:07Z</time>
 <fix>none</fix>
 <sat>0</sat>
</trkpt>
<trkpt lat="31.708215000" lon="34.974053333">
<time>2013-04-01T08:13:09Z</time>
 <fix>none</fix>
 <sat>0</sat>
</trkpt>
<trkpt lat="31.708223333" lon="34.974060000">
<time>2013-04-01T08:13:11Z</time>
 <fix>none</fix>
 <sat>0</sat>
</trkpt>
<trkpt lat="31.708233333" lon="34.974071667">
<time>2013-04-01T08:13:13Z</time>
 <fix>none</fix>
 <sat>0</sat>
</trkpt>
<trkpt lat="31.708241667" lon="34.974080000">
<time>2013-04-01T08:13:15Z</time>
 <fix>none</fix>
 <sat>0</sat>
</trkpt>
<trkpt lat="31.708241667" lon="34.974080000">
<time>2013-04-01T08:13:17Z</time>
 <fix>none</fix>
 <sat>0</sat>
</trkpt>
<trkpt lat="31.708256667" lon="34.974098333">
<time>2013-04-01T08:13:19Z</time>
 <fix>none</fix>
 <sat>0</sat>
</trkpt>
<trkpt lat="31.708266667" lon="34.974106667">
<time>2013-04-01T08:13:21Z</time>
 <fix>none</fix>
 <sat>0</sat>
</trkpt>
<trkpt lat="31.708273333" lon="34.974116667">
<time>2013-04-01T08:13:23Z</time>
 <fix>none</fix>
 <sat>0</sat>
</trkpt>
<trkpt lat="31.708276667" lon="34.974126667">
<time>2013-04-01T08:13:25Z</time>
 <fix>none</fix>
 <sat>0</sat>
</trkpt>
<trkpt lat="31.708280000" lon="34.974131667">
<time>2013-04-01T08:13:27Z</time>
 <fix>none</fix>
 <sat>0</sat>
</trkpt>
<trkpt lat="31.708288333" lon="34.974143333">
<time>2013-04-01T08:13:29Z</time>
 <fix>none</fix>
 <sat>0</sat>
</trkpt>
<trkpt lat="31.708291667" lon="34.974146667">
<time>2013-04-01T08:13:31Z</time>
 <fix>none</fix>
 <sat>0</sat>
</trkpt>
<trkpt lat="31.708300000" lon="34.974158333">
<time>2013-04-01T08:13:33Z</time>
 <fix>none</fix>
 <sat>0</sat>
</trkpt>
<trkpt lat="31.708311667" lon="34.974176667">
<time>2013-04-01T08:13:35Z</time>
 <fix>none</fix>
 <sat>0</sat>
</trkpt>
<trkpt lat="31.708321667" lon="34.974188333">
<time>2013-04-01T08:13:37Z</time>
 <fix>none</fix>
 <sat>0</sat>
</trkpt>
<trkpt lat="31.708330000" lon="34.974198333">
<time>2013-04-01T08:13:39Z</time>
 <fix>none</fix>
 <sat>0</sat>
</trkpt>
<trkpt lat="31.708336667" lon="34.974213333">
<time>2013-04-01T08:13:41Z</time>
 <fix>none</fix>
 <sat>0</sat>
</trkpt>
<trkpt lat="31.708348333" lon="34.974226667">
<time>2013-04-01T08:13:43Z</time>
 <fix>none</fix>
 <sat>0</sat>
</trkpt>
<trkpt lat="31.708355000" lon="34.974233333">
<time>2013-04-01T08:13:45Z</time>
 <fix>none</fix>
 <sat>0</sat>
</trkpt>
<trkpt lat="31.708360000" lon="34.974236667">
<time>2013-04-01T08:13:47Z</time>
 <fix>none</fix>
 <sat>0</sat>
</trkpt>
<trkpt lat="31.708363333" lon="34.974236667">
<time>2013-04-01T08:13:49Z</time>
 <fix>none</fix>
 <sat>0</sat>
</trkpt>
<trkpt lat="31.708365000" lon="34.974236667">
<time>2013-04-01T08:13:51Z</time>
 <fix>none</fix>
 <sat>0</sat>
</trkpt>
<trkpt lat="31.708365000" lon="34.974238333">
<time>2013-04-01T08:13:53Z</time>
 <fix>none</fix>
 <sat>0</sat>
</trkpt>
<trkpt lat="31.708365000" lon="34.974241667">
<time>2013-04-01T08:13:55Z</time>
 <fix>none</fix>
 <sat>0</sat>
</trkpt>
<trkpt lat="31.708361667" lon="34.974248333">
<time>2013-04-01T08:13:57Z</time>
 <fix>none</fix>
 <sat>0</sat>
</trkpt>
<trkpt lat="31.708358333" lon="34.974263333">
<time>2013-04-01T08:13:59Z</time>
 <fix>none</fix>
 <sat>0</sat>
</trkpt>
<trkpt lat="31.708358333" lon="34.974265000">
<time>2013-04-01T08:14:01Z</time>
 <fix>none</fix>
 <sat>0</sat>
</trkpt>
<trkpt lat="31.708356667" lon="34.974266667">
<time>2013-04-01T08:14:03Z</time>
 <fix>none</fix>
 <sat>0</sat>
</trkpt>
<trkpt lat="31.708360000" lon="34.974266667">
<time>2013-04-01T08:14:05Z</time>
 <fix>none</fix>
 <sat>0</sat>
</trkpt>
<trkpt lat="31.708361667" lon="34.974268333">
<time>2013-04-01T08:14:07Z</time>
 <fix>none</fix>
 <sat>0</sat>
</trkpt>
<trkpt lat="31.708361667" lon="34.974266667">
<time>2013-04-01T08:14:09Z</time>
 <fix>none</fix>
 <sat>0</sat>
</trkpt>
<trkpt lat="31.708361667" lon="34.974265000">
<time>2013-04-01T08:14:11Z</time>
 <fix>none</fix>
 <sat>0</sat>
</trkpt>
<trkpt lat="31.708361667" lon="34.974263333">
<time>2013-04-01T08:14:13Z</time>
 <fix>none</fix>
 <sat>0</sat>
</trkpt>
<trkpt lat="31.708361667" lon="34.974263333">
<time>2013-04-01T08:14:15Z</time>
 <fix>none</fix>
 <sat>0</sat>
</trkpt>
<trkpt lat="31.708360000" lon="34.974260000">
<time>2013-04-01T08:14:17Z</time>
 <fix>none</fix>
 <sat>0</sat>
</trkpt>
<trkpt lat="31.708360000" lon="34.974260000">
<time>2013-04-01T08:14:19Z</time>
 <fix>none</fix>
 <sat>0</sat>
</trkpt>
<trkpt lat="31.708361667" lon="34.974261667">
<time>2013-04-01T08:14:21Z</time>
 <fix>none</fix>
 <sat>0</sat>
</trkpt>
<trkpt lat="31.708361667" lon="34.974263333">
<time>2013-04-01T08:14:23Z</time>
 <fix>none</fix>
 <sat>0</sat>
</trkpt>
<trkpt lat="31.708361667" lon="34.974263333">
<time>2013-04-01T08:14:25Z</time>
 <fix>none</fix>
 <sat>0</sat>
</trkpt>
<trkpt lat="31.708363333" lon="34.974266667">
<time>2013-04-01T08:14:27Z</time>
 <fix>none</fix>
 <sat>0</sat>
</trkpt>
<trkpt lat="31.708363333" lon="34.974270000">
<time>2013-04-01T08:14:29Z</time>
 <fix>none</fix>
 <sat>0</sat>
</trkpt>
<trkpt lat="31.708361667" lon="34.974273333">
<time>2013-04-01T08:14:31Z</time>
 <fix>none</fix>
 <sat>0</sat>
</trkpt>
<trkpt lat="31.708361667" lon="34.974273333">
<time>2013-04-01T08:14:33Z</time>
 <fix>none</fix>
 <sat>0</sat>
</trkpt>
<trkpt lat="31.708363333" lon="34.974275000">
<time>2013-04-01T08:14:35Z</time>
 <fix>none</fix>
 <sat>0</sat>
</trkpt>
<trkpt lat="31.708363333" lon="34.974280000">
<time>2013-04-01T08:14:37Z</time>
 <fix>none</fix>
 <sat>0</sat>
</trkpt>
<trkpt lat="31.708363333" lon="34.974280000">
<time>2013-04-01T08:14:39Z</time>
 <fix>none</fix>
 <sat>0</sat>
</trkpt>
<trkpt lat="31.708363333" lon="34.974281667">
<time>2013-04-01T08:14:41Z</time>
 <fix>none</fix>
 <sat>0</sat>
</trkpt>
<trkpt lat="31.708363333" lon="34.974281667">
<time>2013-04-01T08:14:43Z</time>
 <fix>none</fix>
 <sat>0</sat>
</trkpt>
<trkpt lat="31.708363333" lon="34.974280000">
<time>2013-04-01T08:14:45Z</time>
 <fix>none</fix>
 <sat>0</sat>
</trkpt>
<trkpt lat="31.708363333" lon="34.974280000">
<time>2013-04-01T08:14:47Z</time>
 <fix>none</fix>
 <sat>0</sat>
</trkpt>
<trkpt lat="31.708363333" lon="34.974280000">
<time>2013-04-01T08:14:49Z</time>
 <fix>none</fix>
 <sat>0</sat>
</trkpt>
<trkpt lat="31.708363333" lon="34.974280000">
<time>2013-04-01T08:14:51Z</time>
 <fix>none</fix>
 <sat>0</sat>
</trkpt>
<trkpt lat="31.708363333" lon="34.974280000">
<time>2013-04-01T08:14:53Z</time>
 <fix>none</fix>
 <sat>0</sat>
</trkpt>
<trkpt lat="31.708361667" lon="34.974276667">
<time>2013-04-01T08:14:55Z</time>
 <fix>none</fix>
 <sat>0</sat>
</trkpt>
<trkpt lat="31.708361667" lon="34.974278333">
<time>2013-04-01T08:14:57Z</time>
 <fix>none</fix>
 <sat>0</sat>
</trkpt>
<trkpt lat="31.708363333" lon="34.974280000">
<time>2013-04-01T08:14:59Z</time>
 <fix>none</fix>
 <sat>0</sat>
</trkpt>
<trkpt lat="31.708363333" lon="34.974280000">
<time>2013-04-01T08:15:01Z</time>
 <fix>none</fix>
 <sat>0</sat>
</trkpt>
<trkpt lat="31.708361667" lon="34.974278333">
<time>2013-04-01T08:15:03Z</time>
 <fix>none</fix>
 <sat>0</sat>
</trkpt>
<trkpt lat="31.708361667" lon="34.974278333">
<time>2013-04-01T08:15:05Z</time>
 <fix>none</fix>
 <sat>0</sat>
</trkpt>
<trkpt lat="31.708361667" lon="34.974276667">
<time>2013-04-01T08:15:07Z</time>
 <fix>none</fix>
 <sat>0</sat>
</trkpt>
<trkpt lat="31.708361667" lon="34.974278333">
<time>2013-04-01T08:15:09Z</time>
 <fix>none</fix>
 <sat>0</sat>
</trkpt>
<trkpt lat="31.708361667" lon="34.974278333">
<time>2013-04-01T08:15:11Z</time>
 <fix>none</fix>
 <sat>0</sat>
</trkpt>
<trkpt lat="31.708360000" lon="34.974275000">
<time>2013-04-01T08:15:13Z</time>
 <fix>none</fix>
 <sat>0</sat>
</trkpt>
<trkpt lat="31.708358333" lon="34.974271667">
<time>2013-04-01T08:15:15Z</time>
 <fix>none</fix>
 <sat>0</sat>
</trkpt>
<trkpt lat="31.708356667" lon="34.974270000">
<time>2013-04-01T08:15:17Z</time>
 <fix>none</fix>
 <sat>0</sat>
</trkpt>
<trkpt lat="31.708355000" lon="34.974265000">
<time>2013-04-01T08:15:19Z</time>
 <fix>none</fix>
 <sat>0</sat>
</trkpt>
<trkpt lat="31.708355000" lon="34.974265000">
<time>2013-04-01T08:15:21Z</time>
 <fix>none</fix>
 <sat>0</sat>
</trkpt>
<trkpt lat="31.708353333" lon="34.974263333">
<time>2013-04-01T08:15:23Z</time>
 <fix>none</fix>
 <sat>0</sat>
</trkpt>
<trkpt lat="31.708351667" lon="34.974263333">
<time>2013-04-01T08:15:25Z</time>
 <fix>none</fix>
 <sat>0</sat>
</trkpt>
<trkpt lat="31.708351667" lon="34.974265000">
<time>2013-04-01T08:15:27Z</time>
 <fix>none</fix>
 <sat>0</sat>
</trkpt>
<trkpt lat="31.708353333" lon="34.974266667">
<time>2013-04-01T08:15:29Z</time>
 <fix>none</fix>
 <sat>0</sat>
</trkpt>
<trkpt lat="31.708351667" lon="34.974268333">
<time>2013-04-01T08:15:31Z</time>
 <fix>none</fix>
 <sat>0</sat>
</trkpt>
<trkpt lat="31.708351667" lon="34.974266667">
<time>2013-04-01T08:15:33Z</time>
 <fix>none</fix>
 <sat>0</sat>
</trkpt>
<trkpt lat="31.708353333" lon="34.974260000">
<time>2013-04-01T08:15:35Z</time>
 <fix>none</fix>
 <sat>0</sat>
</trkpt>
<trkpt lat="31.708353333" lon="34.974260000">
<time>2013-04-01T08:15:37Z</time>
 <fix>none</fix>
 <sat>0</sat>
</trkpt>
<trkpt lat="31.708355000" lon="34.974261667">
<time>2013-04-01T08:15:39Z</time>
 <fix>none</fix>
 <sat>0</sat>
</trkpt>
<trkpt lat="31.708356667" lon="34.974261667">
<time>2013-04-01T08:15:41Z</time>
 <fix>none</fix>
 <sat>0</sat>
</trkpt>
<trkpt lat="31.708356667" lon="34.974261667">
<time>2013-04-01T08:15:43Z</time>
 <fix>none</fix>
 <sat>0</sat>
</trkpt>
<trkpt lat="31.708356667" lon="34.974261667">
<time>2013-04-01T08:15:45Z</time>
 <fix>none</fix>
 <sat>0</sat>
</trkpt>
<trkpt lat="31.708356667" lon="34.974260000">
<time>2013-04-01T08:15:47Z</time>
 <fix>none</fix>
 <sat>0</sat>
</trkpt>
<trkpt lat="31.708356667" lon="34.974258333">
<time>2013-04-01T08:15:49Z</time>
 <fix>none</fix>
 <sat>0</sat>
</trkpt>
<trkpt lat="31.708356667" lon="34.974256667">
<time>2013-04-01T08:15:51Z</time>
 <fix>none</fix>
 <sat>0</sat>
</trkpt>
<trkpt lat="31.708355000" lon="34.974255000">
<time>2013-04-01T08:15:53Z</time>
 <fix>none</fix>
 <sat>0</sat>
</trkpt>
<trkpt lat="31.708356667" lon="34.974256667">
<time>2013-04-01T08:15:55Z</time>
 <fix>none</fix>
 <sat>0</sat>
</trkpt>
<trkpt lat="31.708356667" lon="34.974255000">
<time>2013-04-01T08:15:57Z</time>
 <fix>none</fix>
 <sat>0</sat>
</trkpt>
<trkpt lat="31.708355000" lon="34.974253333">
<time>2013-04-01T08:15:59Z</time>
 <fix>none</fix>
 <sat>0</sat>
</trkpt>
<trkpt lat="31.708356667" lon="34.974255000">
<time>2013-04-01T08:16:01Z</time>
 <fix>none</fix>
 <sat>0</sat>
</trkpt>
<trkpt lat="31.708356667" lon="34.974253333">
<time>2013-04-01T08:16:03Z</time>
 <fix>none</fix>
 <sat>0</sat>
</trkpt>
<trkpt lat="31.708356667" lon="34.974253333">
<time>2013-04-01T08:16:05Z</time>
 <fix>none</fix>
 <sat>0</sat>
</trkpt>
<trkpt lat="31.708356667" lon="34.974255000">
<time>2013-04-01T08:16:07Z</time>
 <fix>none</fix>
 <sat>0</sat>
</trkpt>
<trkpt lat="31.708356667" lon="34.974256667">
<time>2013-04-01T08:16:09Z</time>
 <fix>none</fix>
 <sat>0</sat>
</trkpt>
<trkpt lat="31.708356667" lon="34.974255000">
<time>2013-04-01T08:16:11Z</time>
 <fix>none</fix>
 <sat>0</sat>
</trkpt>
<trkpt lat="31.708356667" lon="34.974253333">
<time>2013-04-01T08:16:13Z</time>
 <fix>none</fix>
 <sat>0</sat>
</trkpt>
<trkpt lat="31.708355000" lon="34.974253333">
<time>2013-04-01T08:16:15Z</time>
 <fix>none</fix>
 <sat>0</sat>
</trkpt>
<trkpt lat="31.708355000" lon="34.974251667">
<time>2013-04-01T08:16:17Z</time>
 <fix>none</fix>
 <sat>0</sat>
</trkpt>
<trkpt lat="31.708355000" lon="34.974251667">
<time>2013-04-01T08:16:19Z</time>
 <fix>none</fix>
 <sat>0</sat>
</trkpt>
<trkpt lat="31.708355000" lon="34.974253333">
<time>2013-04-01T08:16:21Z</time>
 <fix>none</fix>
 <sat>0</sat>
</trkpt>
<trkpt lat="31.708355000" lon="34.974255000">
<time>2013-04-01T08:16:23Z</time>
 <fix>none</fix>
 <sat>0</sat>
</trkpt>
<trkpt lat="31.708356667" lon="34.974255000">
<time>2013-04-01T08:16:25Z</time>
 <fix>none</fix>
 <sat>0</sat>
</trkpt>
<trkpt lat="31.708356667" lon="34.974256667">
<time>2013-04-01T08:16:27Z</time>
 <fix>none</fix>
 <sat>0</sat>
</trkpt>
<trkpt lat="31.708355000" lon="34.974256667">
<time>2013-04-01T08:16:29Z</time>
 <fix>none</fix>
 <sat>0</sat>
</trkpt>
<trkpt lat="31.708355000" lon="34.974260000">
<time>2013-04-01T08:16:31Z</time>
 <fix>none</fix>
 <sat>0</sat>
</trkpt>
<trkpt lat="31.708355000" lon="34.974261667">
<time>2013-04-01T08:16:33Z</time>
 <fix>none</fix>
 <sat>0</sat>
</trkpt>
<trkpt lat="31.708351667" lon="34.974265000">
<time>2013-04-01T08:16:35Z</time>
 <fix>none</fix>
 <sat>0</sat>
</trkpt>
<trkpt lat="31.708350000" lon="34.974265000">
<time>2013-04-01T08:16:37Z</time>
 <fix>none</fix>
 <sat>0</sat>
</trkpt>
<trkpt lat="31.708350000" lon="34.974266667">
<time>2013-04-01T08:16:39Z</time>
 <fix>none</fix>
 <sat>0</sat>
</trkpt>
<trkpt lat="31.708350000" lon="34.974266667">
<time>2013-04-01T08:16:41Z</time>
 <fix>none</fix>
 <sat>0</sat>
</trkpt>
<trkpt lat="31.708348333" lon="34.974266667">
<time>2013-04-01T08:16:43Z</time>
 <fix>none</fix>
 <sat>0</sat>
</trkpt>
<trkpt lat="31.708350000" lon="34.974265000">
<time>2013-04-01T08:16:45Z</time>
 <fix>none</fix>
 <sat>0</sat>
</trkpt>
<trkpt lat="31.708350000" lon="34.974265000">
<time>2013-04-01T08:16:47Z</time>
 <fix>none</fix>
 <sat>0</sat>
</trkpt>
<trkpt lat="31.708350000" lon="34.974266667">
<time>2013-04-01T08:16:49Z</time>
 <fix>none</fix>
 <sat>0</sat>
</trkpt>
<trkpt lat="31.708348333" lon="34.974266667">
<time>2013-04-01T08:16:51Z</time>
 <fix>none</fix>
 <sat>0</sat>
</trkpt>
<trkpt lat="31.708350000" lon="34.974266667">
<time>2013-04-01T08:16:53Z</time>
 <fix>none</fix>
 <sat>0</sat>
</trkpt>
<trkpt lat="31.708351667" lon="34.974266667">
<time>2013-04-01T08:16:55Z</time>
 <fix>none</fix>
 <sat>0</sat>
</trkpt>
<trkpt lat="31.708351667" lon="34.974268333">
<time>2013-04-01T08:16:57Z</time>
 <fix>none</fix>
 <sat>0</sat>
</trkpt>
<trkpt lat="31.708353333" lon="34.974270000">
<time>2013-04-01T08:16:59Z</time>
 <fix>none</fix>
 <sat>0</sat>
</trkpt>
<trkpt lat="31.708351667" lon="34.974270000">
<time>2013-04-01T08:17:01Z</time>
 <fix>none</fix>
 <sat>0</sat>
</trkpt>
<trkpt lat="31.708350000" lon="34.974268333">
<time>2013-04-01T08:17:03Z</time>
 <fix>none</fix>
 <sat>0</sat>
</trkpt>
<trkpt lat="31.708350000" lon="34.974266667">
<time>2013-04-01T08:17:05Z</time>
 <fix>none</fix>
 <sat>0</sat>
</trkpt>
<trkpt lat="31.708348333" lon="34.974266667">
<time>2013-04-01T08:17:07Z</time>
 <fix>none</fix>
 <sat>0</sat>
</trkpt>
<trkpt lat="31.708348333" lon="34.974268333">
<time>2013-04-01T08:17:09Z</time>
 <fix>none</fix>
 <sat>0</sat>
</trkpt>
<trkpt lat="31.708348333" lon="34.974266667">
<time>2013-04-01T08:17:11Z</time>
 <fix>none</fix>
 <sat>0</sat>
</trkpt>
<trkpt lat="31.708341667" lon="34.974265000">
<time>2013-04-01T08:17:13Z</time>
 <fix>none</fix>
 <sat>0</sat>
</trkpt>
<trkpt lat="31.708335000" lon="34.974268333">
<time>2013-04-01T08:17:15Z</time>
 <fix>none</fix>
 <sat>0</sat>
</trkpt>
<trkpt lat="31.708326667" lon="34.974270000">
<time>2013-04-01T08:17:17Z</time>
 <fix>none</fix>
 <sat>0</sat>
</trkpt>
<trkpt lat="31.708305000" lon="34.974278333">
<time>2013-04-01T08:17:19Z</time>
 <fix>none</fix>
 <sat>0</sat>
</trkpt>
<trkpt lat="31.708276667" lon="34.974293333">
<time>2013-04-01T08:17:21Z</time>
 <fix>none</fix>
 <sat>0</sat>
</trkpt>
<trkpt lat="31.708235000" lon="34.974321667">
<time>2013-04-01T08:17:23Z</time>
 <fix>none</fix>
 <sat>0</sat>
</trkpt>
<trkpt lat="31.708201667" lon="34.974343333">
<time>2013-04-01T08:17:25Z</time>
 <fix>none</fix>
 <sat>0</sat>
</trkpt>
<trkpt lat="31.708168333" lon="34.974365000">
<time>2013-04-01T08:17:27Z</time>
 <fix>none</fix>
 <sat>0</sat>
</trkpt>
<trkpt lat="31.708141667" lon="34.974398333">
<time>2013-04-01T08:17:29Z</time>
 <fix>none</fix>
 <sat>0</sat>
</trkpt>
<trkpt lat="31.708108333" lon="34.974443333">
<time>2013-04-01T08:17:31Z</time>
 <fix>none</fix>
 <sat>0</sat>
</trkpt>
<trkpt lat="31.708063333" lon="34.974498333">
<time>2013-04-01T08:17:33Z</time>
 <fix>none</fix>
 <sat>0</sat>
</trkpt>
<trkpt lat="31.708010000" lon="34.974540000">
<time>2013-04-01T08:17:35Z</time>
 <fix>none</fix>
 <sat>0</sat>
</trkpt>
<trkpt lat="31.707945000" lon="34.974591667">
<time>2013-04-01T08:17:37Z</time>
 <fix>none</fix>
 <sat>0</sat>
</trkpt>
<trkpt lat="31.707906667" lon="34.974660000">
<time>2013-04-01T08:17:39Z</time>
 <fix>none</fix>
 <sat>0</sat>
</trkpt>
<trkpt lat="31.707900000" lon="34.974698333">
<time>2013-04-01T08:17:41Z</time>
 <fix>none</fix>
 <sat>0</sat>
</trkpt>
<trkpt lat="31.707898333" lon="34.974765000">
<time>2013-04-01T08:17:43Z</time>
 <fix>none</fix>
 <sat>0</sat>
</trkpt>
<trkpt lat="31.707898333" lon="34.974818333">
<time>2013-04-01T08:17:45Z</time>
 <fix>none</fix>
 <sat>0</sat>
</trkpt>
<trkpt lat="31.707898333" lon="34.974891667">
<time>2013-04-01T08:17:47Z</time>
 <fix>none</fix>
 <sat>0</sat>
</trkpt>
<trkpt lat="31.707900000" lon="34.974941667">
<time>2013-04-01T08:17:49Z</time>
 <fix>none</fix>
 <sat>0</sat>
</trkpt>
<trkpt lat="31.707901667" lon="34.974991667">
<time>2013-04-01T08:17:51Z</time>
 <fix>none</fix>
 <sat>0</sat>
</trkpt>
<trkpt lat="31.707903333" lon="34.975045000">
<time>2013-04-01T08:17:53Z</time>
 <fix>none</fix>
 <sat>0</sat>
</trkpt>
<trkpt lat="31.707903333" lon="34.975096667">
<time>2013-04-01T08:17:55Z</time>
 <fix>none</fix>
 <sat>0</sat>
</trkpt>
<trkpt lat="31.707895000" lon="34.975131667">
<time>2013-04-01T08:17:57Z</time>
 <fix>none</fix>
 <sat>0</sat>
</trkpt>
<trkpt lat="31.707868333" lon="34.975163333">
<time>2013-04-01T08:17:59Z</time>
 <fix>none</fix>
 <sat>0</sat>
</trkpt>
<trkpt lat="31.707813333" lon="34.975193333">
<time>2013-04-01T08:18:01Z</time>
 <fix>none</fix>
 <sat>0</sat>
</trkpt>
<trkpt lat="31.707788333" lon="34.975200000">
<time>2013-04-01T08:18:03Z</time>
 <fix>none</fix>
 <sat>0</sat>
</trkpt>
<trkpt lat="31.707740000" lon="34.975205000">
<time>2013-04-01T08:18:05Z</time>
 <fix>none</fix>
 <sat>0</sat>
</trkpt>
<trkpt lat="31.707686667" lon="34.975198333">
<time>2013-04-01T08:18:07Z</time>
 <fix>none</fix>
 <sat>0</sat>
</trkpt>
<trkpt lat="31.707620000" lon="34.975135000">
<time>2013-04-01T08:18:09Z</time>
 <fix>none</fix>
 <sat>0</sat>
</trkpt>
<trkpt lat="31.707575000" lon="34.975073333">
<time>2013-04-01T08:18:11Z</time>
 <fix>none</fix>
 <sat>0</sat>
</trkpt>
<trkpt lat="31.707525000" lon="34.975028333">
<time>2013-04-01T08:18:13Z</time>
 <fix>none</fix>
 <sat>0</sat>
</trkpt>
<trkpt lat="31.707488333" lon="34.974993333">
<time>2013-04-01T08:18:15Z</time>
 <fix>none</fix>
 <sat>0</sat>
</trkpt>
<trkpt lat="31.707458333" lon="34.974945000">
<time>2013-04-01T08:18:17Z</time>
 <fix>none</fix>
 <sat>0</sat>
</trkpt>
<trkpt lat="31.707440000" lon="34.974886667">
<time>2013-04-01T08:18:19Z</time>
 <fix>none</fix>
 <sat>0</sat>
</trkpt>
<trkpt lat="31.707431667" lon="34.974821667">
<time>2013-04-01T08:18:21Z</time>
 <fix>none</fix>
 <sat>0</sat>
</trkpt>
<trkpt lat="31.707431667" lon="34.974758333">
<time>2013-04-01T08:18:23Z</time>
 <fix>none</fix>
 <sat>0</sat>
</trkpt>
<trkpt lat="31.707443333" lon="34.974676667">
<time>2013-04-01T08:18:25Z</time>
 <fix>none</fix>
 <sat>0</sat>
</trkpt>
<trkpt lat="31.707450000" lon="34.974628333">
<time>2013-04-01T08:18:27Z</time>
 <fix>none</fix>
 <sat>0</sat>
</trkpt>
<trkpt lat="31.707466667" lon="34.974523333">
<time>2013-04-01T08:18:29Z</time>
 <fix>none</fix>
 <sat>0</sat>
</trkpt>
<trkpt lat="31.707506667" lon="34.974348333">
<time>2013-04-01T08:18:31Z</time>
 <fix>none</fix>
 <sat>0</sat>
</trkpt>
<trkpt lat="31.707528333" lon="34.974231667">
<time>2013-04-01T08:18:33Z</time>
 <fix>none</fix>
 <sat>0</sat>
</trkpt>
<trkpt lat="31.707543333" lon="34.974143333">
<time>2013-04-01T08:18:35Z</time>
 <fix>none</fix>
 <sat>0</sat>
</trkpt>
<trkpt lat="31.707563333" lon="34.974053333">
<time>2013-04-01T08:18:37Z</time>
 <fix>none</fix>
 <sat>0</sat>
</trkpt>
<trkpt lat="31.707595000" lon="34.973941667">
<time>2013-04-01T08:18:39Z</time>
 <fix>none</fix>
 <sat>0</sat>
</trkpt>
<trkpt lat="31.707621667" lon="34.973826667">
<time>2013-04-01T08:18:41Z</time>
 <fix>none</fix>
 <sat>0</sat>
</trkpt>
<trkpt lat="31.707636667" lon="34.973700000">
<time>2013-04-01T08:18:43Z</time>
 <fix>none</fix>
 <sat>0</sat>
</trkpt>
<trkpt lat="31.707646667" lon="34.973568333">
<time>2013-04-01T08:18:45Z</time>
 <fix>none</fix>
 <sat>0</sat>
</trkpt>
<trkpt lat="31.707658333" lon="34.973440000">
<time>2013-04-01T08:18:47Z</time>
 <fix>none</fix>
 <sat>0</sat>
</trkpt>
<trkpt lat="31.707660000" lon="34.973378333">
<time>2013-04-01T08:18:49Z</time>
 <fix>none</fix>
 <sat>0</sat>
</trkpt>
<trkpt lat="31.707665000" lon="34.973256667">
<time>2013-04-01T08:18:51Z</time>
 <fix>none</fix>
 <sat>0</sat>
</trkpt>
<trkpt lat="31.707686667" lon="34.973143333">
<time>2013-04-01T08:18:53Z</time>
 <fix>none</fix>
 <sat>0</sat>
</trkpt>
<trkpt lat="31.707711667" lon="34.972991667">
<time>2013-04-01T08:18:55Z</time>
 <fix>none</fix>
 <sat>0</sat>
</trkpt>
<trkpt lat="31.707688333" lon="34.972920000">
<time>2013-04-01T08:18:57Z</time>
 <fix>none</fix>
 <sat>0</sat>
</trkpt>
<trkpt lat="31.707641667" lon="34.972871667">
<time>2013-04-01T08:18:59Z</time>
 <fix>none</fix>
 <sat>0</sat>
</trkpt>
<trkpt lat="31.707585000" lon="34.972821667">
<time>2013-04-01T08:19:01Z</time>
 <fix>none</fix>
 <sat>0</sat>
</trkpt>
<trkpt lat="31.707530000" lon="34.972751667">
<time>2013-04-01T08:19:03Z</time>
 <fix>none</fix>
 <sat>0</sat>
</trkpt>
<trkpt lat="31.707490000" lon="34.972680000">
<time>2013-04-01T08:19:05Z</time>
 <fix>none</fix>
 <sat>0</sat>
</trkpt>
<trkpt lat="31.707465000" lon="34.972610000">
<time>2013-04-01T08:19:07Z</time>
 <fix>none</fix>
 <sat>0</sat>
</trkpt>
<trkpt lat="31.707415000" lon="34.972575000">
<time>2013-04-01T08:19:09Z</time>
 <fix>none</fix>
 <sat>0</sat>
</trkpt>
<trkpt lat="31.707380000" lon="34.972570000">
<time>2013-04-01T08:19:11Z</time>
 <fix>none</fix>
 <sat>0</sat>
</trkpt>
<trkpt lat="31.707306667" lon="34.972583333">
<time>2013-04-01T08:19:13Z</time>
 <fix>none</fix>
 <sat>0</sat>
</trkpt>
<trkpt lat="31.707193333" lon="34.972610000">
<time>2013-04-01T08:19:15Z</time>
 <fix>none</fix>
 <sat>0</sat>
</trkpt>
<trkpt lat="31.707156667" lon="34.972630000">
<time>2013-04-01T08:19:17Z</time>
 <fix>none</fix>
 <sat>0</sat>
</trkpt>
<trkpt lat="31.707078333" lon="34.972658333">
<time>2013-04-01T08:19:19Z</time>
 <fix>none</fix>
 <sat>0</sat>
</trkpt>
<trkpt lat="31.707021667" lon="34.972675000">
<time>2013-04-01T08:19:21Z</time>
 <fix>none</fix>
 <sat>0</sat>
</trkpt>
<trkpt lat="31.706971667" lon="34.972715000">
<time>2013-04-01T08:19:23Z</time>
 <fix>none</fix>
 <sat>0</sat>
</trkpt>
<trkpt lat="31.706935000" lon="34.972756667">
<time>2013-04-01T08:19:25Z</time>
 <fix>none</fix>
 <sat>0</sat>
</trkpt>
<trkpt lat="31.706896667" lon="34.972803333">
<time>2013-04-01T08:19:27Z</time>
 <fix>none</fix>
 <sat>0</sat>
</trkpt>
<trkpt lat="31.706850000" lon="34.972850000">
<time>2013-04-01T08:19:29Z</time>
 <fix>none</fix>
 <sat>0</sat>
</trkpt>
<trkpt lat="31.706795000" lon="34.972886667">
<time>2013-04-01T08:19:31Z</time>
 <fix>none</fix>
 <sat>0</sat>
</trkpt>
<trkpt lat="31.706728333" lon="34.972920000">
<time>2013-04-01T08:19:33Z</time>
 <fix>none</fix>
 <sat>0</sat>
</trkpt>
<trkpt lat="31.706698333" lon="34.972940000">
<time>2013-04-01T08:19:35Z</time>
 <fix>none</fix>
 <sat>0</sat>
</trkpt>
<trkpt lat="31.706650000" lon="34.973000000">
<time>2013-04-01T08:19:37Z</time>
 <fix>none</fix>
 <sat>0</sat>
</trkpt>
<trkpt lat="31.706596667" lon="34.973125000">
<time>2013-04-01T08:19:39Z</time>
 <fix>none</fix>
 <sat>0</sat>
</trkpt>
<trkpt lat="31.706563333" lon="34.973180000">
<time>2013-04-01T08:19:41Z</time>
 <fix>none</fix>
 <sat>0</sat>
</trkpt>
<trkpt lat="31.706518333" lon="34.973198333">
<time>2013-04-01T08:19:43Z</time>
 <fix>none</fix>
 <sat>0</sat>
</trkpt>
<trkpt lat="31.706440000" lon="34.973195000">
<time>2013-04-01T08:19:45Z</time>
 <fix>none</fix>
 <sat>0</sat>
</trkpt>
<trkpt lat="31.706336667" lon="34.973200000">
<time>2013-04-01T08:19:47Z</time>
 <fix>none</fix>
 <sat>0</sat>
</trkpt>
<trkpt lat="31.706228333" lon="34.973206667">
<time>2013-04-01T08:19:49Z</time>
 <fix>none</fix>
 <sat>0</sat>
</trkpt>
<trkpt lat="31.706118333" lon="34.973195000">
<time>2013-04-01T08:19:51Z</time>
 <fix>none</fix>
 <sat>0</sat>
</trkpt>
<trkpt lat="31.706005000" lon="34.973173333">
<time>2013-04-01T08:19:53Z</time>
 <fix>none</fix>
 <sat>0</sat>
</trkpt>
<trkpt lat="31.705896667" lon="34.973153333">
<time>2013-04-01T08:19:55Z</time>
 <fix>none</fix>
 <sat>0</sat>
</trkpt>
<trkpt lat="31.705848333" lon="34.973145000">
<time>2013-04-01T08:19:57Z</time>
 <fix>none</fix>
 <sat>0</sat>
</trkpt>
<trkpt lat="31.705766667" lon="34.973133333">
<time>2013-04-01T08:19:59Z</time>
 <fix>none</fix>
 <sat>0</sat>
</trkpt>
<trkpt lat="31.705701667" lon="34.973128333">
<time>2013-04-01T08:20:01Z</time>
 <fix>none</fix>
 <sat>0</sat>
</trkpt>
<trkpt lat="31.705626667" lon="34.973093333">
<time>2013-04-01T08:20:03Z</time>
 <fix>none</fix>
 <sat>0</sat>
</trkpt>
<trkpt lat="31.705556667" lon="34.973030000">
<time>2013-04-01T08:20:05Z</time>
 <fix>none</fix>
 <sat>0</sat>
</trkpt>
<trkpt lat="31.705476667" lon="34.972948333">
<time>2013-04-01T08:20:07Z</time>
 <fix>none</fix>
 <sat>0</sat>
</trkpt>
<trkpt lat="31.705398333" lon="34.972858333">
<time>2013-04-01T08:20:09Z</time>
 <fix>none</fix>
 <sat>0</sat>
</trkpt>
<trkpt lat="31.705323333" lon="34.972776667">
<time>2013-04-01T08:20:11Z</time>
 <fix>none</fix>
 <sat>0</sat>
</trkpt>
<trkpt lat="31.705255000" lon="34.972701667">
<time>2013-04-01T08:20:13Z</time>
 <fix>none</fix>
 <sat>0</sat>
</trkpt>
<trkpt lat="31.705208333" lon="34.972636667">
<time>2013-04-01T08:20:15Z</time>
 <fix>none</fix>
 <sat>0</sat>
</trkpt>
<trkpt lat="31.705173333" lon="34.972565000">
<time>2013-04-01T08:20:17Z</time>
 <fix>none</fix>
 <sat>0</sat>
</trkpt>
<trkpt lat="31.705148333" lon="34.972458333">
<time>2013-04-01T08:20:19Z</time>
 <fix>none</fix>
 <sat>0</sat>
</trkpt>
<trkpt lat="31.705138333" lon="34.972395000">
<time>2013-04-01T08:20:21Z</time>
 <fix>none</fix>
 <sat>0</sat>
</trkpt>
<trkpt lat="31.705118333" lon="34.972265000">
<time>2013-04-01T08:20:23Z</time>
 <fix>none</fix>
 <sat>0</sat>
</trkpt>
<trkpt lat="31.705085000" lon="34.972083333">
<time>2013-04-01T08:20:25Z</time>
 <fix>none</fix>
 <sat>0</sat>
</trkpt>
<trkpt lat="31.705065000" lon="34.971968333">
<time>2013-04-01T08:20:27Z</time>
 <fix>none</fix>
 <sat>0</sat>
</trkpt>
<trkpt lat="31.705043333" lon="34.971856667">
<time>2013-04-01T08:20:29Z</time>
 <fix>none</fix>
 <sat>0</sat>
</trkpt>
<trkpt lat="31.705020000" lon="34.971745000">
<time>2013-04-01T08:20:31Z</time>
 <fix>none</fix>
 <sat>0</sat>
</trkpt>
<trkpt lat="31.704995000" lon="34.971635000">
<time>2013-04-01T08:20:33Z</time>
 <fix>none</fix>
 <sat>0</sat>
</trkpt>
<trkpt lat="31.704976667" lon="34.971533333">
<time>2013-04-01T08:20:35Z</time>
 <fix>none</fix>
 <sat>0</sat>
</trkpt>
<trkpt lat="31.704951667" lon="34.971420000">
<time>2013-04-01T08:20:37Z</time>
 <fix>none</fix>
 <sat>0</sat>
</trkpt>
<trkpt lat="31.704920000" lon="34.971303333">
<time>2013-04-01T08:20:39Z</time>
 <fix>none</fix>
 <sat>0</sat>
</trkpt>
<trkpt lat="31.704891667" lon="34.971193333">
<time>2013-04-01T08:20:41Z</time>
 <fix>none</fix>
 <sat>0</sat>
</trkpt>
<trkpt lat="31.704878333" lon="34.971140000">
<time>2013-04-01T08:20:43Z</time>
 <fix>none</fix>
 <sat>0</sat>
</trkpt>
<trkpt lat="31.704863333" lon="34.971023333">
<time>2013-04-01T08:20:45Z</time>
 <fix>none</fix>
 <sat>0</sat>
</trkpt>
<trkpt lat="31.704848333" lon="34.970896667">
<time>2013-04-01T08:20:47Z</time>
 <fix>none</fix>
 <sat>0</sat>
</trkpt>
<trkpt lat="31.704818333" lon="34.970676667">
<time>2013-04-01T08:20:49Z</time>
 <fix>none</fix>
 <sat>0</sat>
</trkpt>
<trkpt lat="31.704798333" lon="34.970540000">
<time>2013-04-01T08:20:51Z</time>
 <fix>none</fix>
 <sat>0</sat>
</trkpt>
<trkpt lat="31.704783333" lon="34.970425000">
<time>2013-04-01T08:20:53Z</time>
 <fix>none</fix>
 <sat>0</sat>
</trkpt>
<trkpt lat="31.704771667" lon="34.970323333">
<time>2013-04-01T08:20:55Z</time>
 <fix>none</fix>
 <sat>0</sat>
</trkpt>
<trkpt lat="31.704756667" lon="34.970231667">
<time>2013-04-01T08:20:57Z</time>
 <fix>none</fix>
 <sat>0</sat>
</trkpt>
<trkpt lat="31.704741667" lon="34.970158333">
<time>2013-04-01T08:20:59Z</time>
 <fix>none</fix>
 <sat>0</sat>
</trkpt>
<trkpt lat="31.704728333" lon="34.970078333">
<time>2013-04-01T08:21:01Z</time>
 <fix>none</fix>
 <sat>0</sat>
</trkpt>
<trkpt lat="31.704718333" lon="34.969985000">
<time>2013-04-01T08:21:03Z</time>
 <fix>none</fix>
 <sat>0</sat>
</trkpt>
<trkpt lat="31.704713333" lon="34.969933333">
<time>2013-04-01T08:21:05Z</time>
 <fix>none</fix>
 <sat>0</sat>
</trkpt>
<trkpt lat="31.704720000" lon="34.969825000">
<time>2013-04-01T08:21:07Z</time>
 <fix>none</fix>
 <sat>0</sat>
</trkpt>
<trkpt lat="31.704738333" lon="34.969706667">
<time>2013-04-01T08:21:09Z</time>
 <fix>none</fix>
 <sat>0</sat>
</trkpt>
<trkpt lat="31.704790000" lon="34.969533333">
<time>2013-04-01T08:21:11Z</time>
 <fix>none</fix>
 <sat>0</sat>
</trkpt>
<trkpt lat="31.704840000" lon="34.969426667">
<time>2013-04-01T08:21:13Z</time>
 <fix>none</fix>
 <sat>0</sat>
</trkpt>
<trkpt lat="31.704890000" lon="34.969323333">
<time>2013-04-01T08:21:15Z</time>
 <fix>none</fix>
 <sat>0</sat>
</trkpt>
<trkpt lat="31.704926667" lon="34.969221667">
<time>2013-04-01T08:21:17Z</time>
 <fix>none</fix>
 <sat>0</sat>
</trkpt>
<trkpt lat="31.704950000" lon="34.969126667">
<time>2013-04-01T08:21:19Z</time>
 <fix>none</fix>
 <sat>0</sat>
</trkpt>
<trkpt lat="31.704980000" lon="34.969046667">
<time>2013-04-01T08:21:21Z</time>
 <fix>none</fix>
 <sat>0</sat>
</trkpt>
<trkpt lat="31.705015000" lon="34.968976667">
<time>2013-04-01T08:21:23Z</time>
 <fix>none</fix>
 <sat>0</sat>
</trkpt>
<trkpt lat="31.705046667" lon="34.968930000">
<time>2013-04-01T08:21:25Z</time>
 <fix>none</fix>
 <sat>0</sat>
</trkpt>
<trkpt lat="31.705055000" lon="34.968916667">
<time>2013-04-01T08:21:27Z</time>
 <fix>none</fix>
 <sat>0</sat>
</trkpt>
<trkpt lat="31.705056667" lon="34.968913333">
<time>2013-04-01T08:21:29Z</time>
 <fix>none</fix>
 <sat>0</sat>
</trkpt>
<trkpt lat="31.705060000" lon="34.968910000">
<time>2013-04-01T08:21:31Z</time>
 <fix>none</fix>
 <sat>0</sat>
</trkpt>
<trkpt lat="31.705061667" lon="34.968905000">
<time>2013-04-01T08:21:33Z</time>
 <fix>none</fix>
 <sat>0</sat>
</trkpt>
<trkpt lat="31.705061667" lon="34.968906667">
<time>2013-04-01T08:21:35Z</time>
 <fix>none</fix>
 <sat>0</sat>
</trkpt>
<trkpt lat="31.705061667" lon="34.968910000">
<time>2013-04-01T08:21:37Z</time>
 <fix>none</fix>
 <sat>0</sat>
</trkpt>
<trkpt lat="31.705065000" lon="34.968910000">
<time>2013-04-01T08:21:39Z</time>
 <fix>none</fix>
 <sat>0</sat>
</trkpt>
<trkpt lat="31.705066667" lon="34.968906667">
<time>2013-04-01T08:21:41Z</time>
 <fix>none</fix>
 <sat>0</sat>
</trkpt>
<trkpt lat="31.705066667" lon="34.968898333">
<time>2013-04-01T08:21:43Z</time>
 <fix>none</fix>
 <sat>0</sat>
</trkpt>
<trkpt lat="31.705066667" lon="34.968896667">
<time>2013-04-01T08:21:45Z</time>
 <fix>none</fix>
 <sat>0</sat>
</trkpt>
<trkpt lat="31.705063333" lon="34.968903333">
<time>2013-04-01T08:21:47Z</time>
 <fix>none</fix>
 <sat>0</sat>
</trkpt>
<trkpt lat="31.705068333" lon="34.968903333">
<time>2013-04-01T08:21:49Z</time>
 <fix>none</fix>
 <sat>0</sat>
</trkpt>
<trkpt lat="31.705070000" lon="34.968901667">
<time>2013-04-01T08:21:51Z</time>
 <fix>none</fix>
 <sat>0</sat>
</trkpt>
<trkpt lat="31.705073333" lon="34.968903333">
<time>2013-04-01T08:21:53Z</time>
 <fix>none</fix>
 <sat>0</sat>
</trkpt>
<trkpt lat="31.705073333" lon="34.968905000">
<time>2013-04-01T08:21:55Z</time>
 <fix>none</fix>
 <sat>0</sat>
</trkpt>
<trkpt lat="31.705073333" lon="34.968906667">
<time>2013-04-01T08:21:57Z</time>
 <fix>none</fix>
 <sat>0</sat>
</trkpt>
<trkpt lat="31.705071667" lon="34.968910000">
<time>2013-04-01T08:21:59Z</time>
 <fix>none</fix>
 <sat>0</sat>
</trkpt>
<trkpt lat="31.705073333" lon="34.968910000">
<time>2013-04-01T08:22:01Z</time>
 <fix>none</fix>
 <sat>0</sat>
</trkpt>
<trkpt lat="31.705073333" lon="34.968910000">
<time>2013-04-01T08:22:03Z</time>
 <fix>none</fix>
 <sat>0</sat>
</trkpt>
<trkpt lat="31.705073333" lon="34.968910000">
<time>2013-04-01T08:22:05Z</time>
 <fix>none</fix>
 <sat>0</sat>
</trkpt>
<trkpt lat="31.705073333" lon="34.968911667">
<time>2013-04-01T08:22:07Z</time>
 <fix>none</fix>
 <sat>0</sat>
</trkpt>
<trkpt lat="31.705073333" lon="34.968911667">
<time>2013-04-01T08:22:09Z</time>
 <fix>none</fix>
 <sat>0</sat>
</trkpt>
<trkpt lat="31.705075000" lon="34.968911667">
<time>2013-04-01T08:22:11Z</time>
 <fix>none</fix>
 <sat>0</sat>
</trkpt>
<trkpt lat="31.705075000" lon="34.968911667">
<time>2013-04-01T08:22:13Z</time>
 <fix>none</fix>
 <sat>0</sat>
</trkpt>
<trkpt lat="31.705075000" lon="34.968911667">
<time>2013-04-01T08:22:15Z</time>
 <fix>none</fix>
 <sat>0</sat>
</trkpt>
<trkpt lat="31.705075000" lon="34.968910000">
<time>2013-04-01T08:22:17Z</time>
 <fix>none</fix>
 <sat>0</sat>
</trkpt>
<trkpt lat="31.705080000" lon="34.968896667">
<time>2013-04-01T08:22:19Z</time>
 <fix>none</fix>
 <sat>0</sat>
</trkpt>
<trkpt lat="31.705103333" lon="34.968868333">
<time>2013-04-01T08:22:21Z</time>
 <fix>none</fix>
 <sat>0</sat>
</trkpt>
<trkpt lat="31.705135000" lon="34.968816667">
<time>2013-04-01T08:22:23Z</time>
 <fix>none</fix>
 <sat>0</sat>
</trkpt>
<trkpt lat="31.705168333" lon="34.968758333">
<time>2013-04-01T08:22:25Z</time>
 <fix>none</fix>
 <sat>0</sat>
</trkpt>
<trkpt lat="31.705206667" lon="34.968693333">
<time>2013-04-01T08:22:27Z</time>
 <fix>none</fix>
 <sat>0</sat>
</trkpt>
<trkpt lat="31.705253333" lon="34.968621667">
<time>2013-04-01T08:22:29Z</time>
 <fix>none</fix>
 <sat>0</sat>
</trkpt>
<trkpt lat="31.705303333" lon="34.968546667">
<time>2013-04-01T08:22:31Z</time>
 <fix>none</fix>
 <sat>0</sat>
</trkpt>
<trkpt lat="31.705350000" lon="34.968461667">
<time>2013-04-01T08:22:33Z</time>
 <fix>none</fix>
 <sat>0</sat>
</trkpt>
<trkpt lat="31.705393333" lon="34.968370000">
<time>2013-04-01T08:22:35Z</time>
 <fix>none</fix>
 <sat>0</sat>
</trkpt>
<trkpt lat="31.705415000" lon="34.968323333">
<time>2013-04-01T08:22:37Z</time>
 <fix>none</fix>
 <sat>0</sat>
</trkpt>
<trkpt lat="31.705465000" lon="34.968226667">
<time>2013-04-01T08:22:39Z</time>
 <fix>none</fix>
 <sat>0</sat>
</trkpt>
<trkpt lat="31.705506667" lon="34.968158333">
<time>2013-04-01T08:22:41Z</time>
 <fix>none</fix>
 <sat>0</sat>
</trkpt>
<trkpt lat="31.705506667" lon="34.968095000">
<time>2013-04-01T08:22:43Z</time>
 <fix>none</fix>
 <sat>0</sat>
</trkpt>
<trkpt lat="31.705476667" lon="34.968073333">
<time>2013-04-01T08:22:45Z</time>
 <fix>none</fix>
 <sat>0</sat>
</trkpt>
<trkpt lat="31.705440000" lon="34.968090000">
<time>2013-04-01T08:22:47Z</time>
 <fix>none</fix>
 <sat>0</sat>
</trkpt>
<trkpt lat="31.705391667" lon="34.968123333">
<time>2013-04-01T08:22:49Z</time>
 <fix>none</fix>
 <sat>0</sat>
</trkpt>
<trkpt lat="31.705341667" lon="34.968160000">
<time>2013-04-01T08:22:51Z</time>
 <fix>none</fix>
 <sat>0</sat>
</trkpt>
<trkpt lat="31.705296667" lon="34.968198333">
<time>2013-04-01T08:22:53Z</time>
 <fix>none</fix>
 <sat>0</sat>
</trkpt>
<trkpt lat="31.705250000" lon="34.968228333">
<time>2013-04-01T08:22:55Z</time>
 <fix>none</fix>
 <sat>0</sat>
</trkpt>
<trkpt lat="31.705201667" lon="34.968263333">
<time>2013-04-01T08:22:57Z</time>
 <fix>none</fix>
 <sat>0</sat>
</trkpt>
<trkpt lat="31.705178333" lon="34.968281667">
<time>2013-04-01T08:22:59Z</time>
 <fix>none</fix>
 <sat>0</sat>
</trkpt>
<trkpt lat="31.705130000" lon="34.968320000">
<time>2013-04-01T08:23:01Z</time>
 <fix>none</fix>
 <sat>0</sat>
</trkpt>
<trkpt lat="31.705083333" lon="34.968356667">
<time>2013-04-01T08:23:03Z</time>
 <fix>none</fix>
 <sat>0</sat>
</trkpt>
<trkpt lat="31.705021667" lon="34.968405000">
<time>2013-04-01T08:23:05Z</time>
 <fix>none</fix>
 <sat>0</sat>
</trkpt>
<trkpt lat="31.704986667" lon="34.968431667">
<time>2013-04-01T08:23:07Z</time>
 <fix>none</fix>
 <sat>0</sat>
</trkpt>
<trkpt lat="31.704955000" lon="34.968456667">
<time>2013-04-01T08:23:09Z</time>
 <fix>none</fix>
 <sat>0</sat>
</trkpt>
<trkpt lat="31.704928333" lon="34.968481667">
<time>2013-04-01T08:23:11Z</time>
 <fix>none</fix>
 <sat>0</sat>
</trkpt>
<trkpt lat="31.704895000" lon="34.968501667">
<time>2013-04-01T08:23:13Z</time>
 <fix>none</fix>
 <sat>0</sat>
</trkpt>
<trkpt lat="31.704868333" lon="34.968520000">
<time>2013-04-01T08:23:15Z</time>
 <fix>none</fix>
 <sat>0</sat>
</trkpt>
<trkpt lat="31.704835000" lon="34.968536667">
<time>2013-04-01T08:23:17Z</time>
 <fix>none</fix>
 <sat>0</sat>
</trkpt>
<trkpt lat="31.704803333" lon="34.968553333">
<time>2013-04-01T08:23:19Z</time>
 <fix>none</fix>
 <sat>0</sat>
</trkpt>
<trkpt lat="31.704773333" lon="34.968573333">
<time>2013-04-01T08:23:21Z</time>
 <fix>none</fix>
 <sat>0</sat>
</trkpt>
<trkpt lat="31.704758333" lon="34.968581667">
<time>2013-04-01T08:23:23Z</time>
 <fix>none</fix>
 <sat>0</sat>
</trkpt>
<trkpt lat="31.704728333" lon="34.968598333">
<time>2013-04-01T08:23:25Z</time>
 <fix>none</fix>
 <sat>0</sat>
</trkpt>
<trkpt lat="31.704700000" lon="34.968618333">
<time>2013-04-01T08:23:27Z</time>
 <fix>none</fix>
 <sat>0</sat>
</trkpt>
<trkpt lat="31.704651667" lon="34.968650000">
<time>2013-04-01T08:23:29Z</time>
 <fix>none</fix>
 <sat>0</sat>
</trkpt>
<trkpt lat="31.704620000" lon="34.968670000">
<time>2013-04-01T08:23:31Z</time>
 <fix>none</fix>
 <sat>0</sat>
</trkpt>
<trkpt lat="31.704588333" lon="34.968685000">
<time>2013-04-01T08:23:33Z</time>
 <fix>none</fix>
 <sat>0</sat>
</trkpt>
<trkpt lat="31.704556667" lon="34.968698333">
<time>2013-04-01T08:23:35Z</time>
 <fix>none</fix>
 <sat>0</sat>
</trkpt>
<trkpt lat="31.704528333" lon="34.968711667">
<time>2013-04-01T08:23:37Z</time>
 <fix>none</fix>
 <sat>0</sat>
</trkpt>
<trkpt lat="31.704503333" lon="34.968726667">
<time>2013-04-01T08:23:39Z</time>
 <fix>none</fix>
 <sat>0</sat>
</trkpt>
<trkpt lat="31.704480000" lon="34.968741667">
<time>2013-04-01T08:23:41Z</time>
 <fix>none</fix>
 <sat>0</sat>
</trkpt>
<trkpt lat="31.704473333" lon="34.968743333">
<time>2013-04-01T08:23:43Z</time>
 <fix>none</fix>
 <sat>0</sat>
</trkpt>
<trkpt lat="31.704476667" lon="34.968745000">
<time>2013-04-01T08:23:45Z</time>
 <fix>none</fix>
 <sat>0</sat>
</trkpt>
<trkpt lat="31.704473333" lon="34.968745000">
<time>2013-04-01T08:23:47Z</time>
 <fix>none</fix>
 <sat>0</sat>
</trkpt>
<trkpt lat="31.704466667" lon="34.968745000">
<time>2013-04-01T08:23:49Z</time>
 <fix>none</fix>
 <sat>0</sat>
</trkpt>
<trkpt lat="31.704445000" lon="34.968736667">
<time>2013-04-01T08:23:51Z</time>
 <fix>none</fix>
 <sat>0</sat>
</trkpt>
<trkpt lat="31.704426667" lon="34.968730000">
<time>2013-04-01T08:23:53Z</time>
 <fix>none</fix>
 <sat>0</sat>
</trkpt>
<trkpt lat="31.704416667" lon="34.968728333">
<time>2013-04-01T08:23:55Z</time>
 <fix>none</fix>
 <sat>0</sat>
</trkpt>
<trkpt lat="31.704411667" lon="34.968728333">
<time>2013-04-01T08:23:57Z</time>
 <fix>none</fix>
 <sat>0</sat>
</trkpt>
<trkpt lat="31.704401667" lon="34.968733333">
<time>2013-04-01T08:23:59Z</time>
 <fix>none</fix>
 <sat>0</sat>
</trkpt>
<trkpt lat="31.704383333" lon="34.968736667">
<time>2013-04-01T08:24:01Z</time>
 <fix>none</fix>
 <sat>0</sat>
</trkpt>
<trkpt lat="31.704356667" lon="34.968743333">
<time>2013-04-01T08:24:03Z</time>
 <fix>none</fix>
 <sat>0</sat>
</trkpt>
<trkpt lat="31.704325000" lon="34.968748333">
<time>2013-04-01T08:24:05Z</time>
 <fix>none</fix>
 <sat>0</sat>
</trkpt>
<trkpt lat="31.704291667" lon="34.968753333">
<time>2013-04-01T08:24:07Z</time>
 <fix>none</fix>
 <sat>0</sat>
</trkpt>
<trkpt lat="31.704276667" lon="34.968758333">
<time>2013-04-01T08:24:09Z</time>
 <fix>none</fix>
 <sat>0</sat>
</trkpt>
<trkpt lat="31.704230000" lon="34.968771667">
<time>2013-04-01T08:24:11Z</time>
 <fix>none</fix>
 <sat>0</sat>
</trkpt>
<trkpt lat="31.704200000" lon="34.968776667">
<time>2013-04-01T08:24:13Z</time>
 <fix>none</fix>
 <sat>0</sat>
</trkpt>
<trkpt lat="31.704171667" lon="34.968773333">
<time>2013-04-01T08:24:15Z</time>
 <fix>none</fix>
 <sat>0</sat>
</trkpt>
<trkpt lat="31.704143333" lon="34.968768333">
<time>2013-04-01T08:24:17Z</time>
 <fix>none</fix>
 <sat>0</sat>
</trkpt>
<trkpt lat="31.704115000" lon="34.968766667">
<time>2013-04-01T08:24:19Z</time>
 <fix>none</fix>
 <sat>0</sat>
</trkpt>
<trkpt lat="31.704086667" lon="34.968761667">
<time>2013-04-01T08:24:21Z</time>
 <fix>none</fix>
 <sat>0</sat>
</trkpt>
<trkpt lat="31.704060000" lon="34.968761667">
<time>2013-04-01T08:24:23Z</time>
 <fix>none</fix>
 <sat>0</sat>
</trkpt>
<trkpt lat="31.704031667" lon="34.968761667">
<time>2013-04-01T08:24:25Z</time>
 <fix>none</fix>
 <sat>0</sat>
</trkpt>
<trkpt lat="31.704001667" lon="34.968766667">
<time>2013-04-01T08:24:27Z</time>
 <fix>none</fix>
 <sat>0</sat>
</trkpt>
<trkpt lat="31.703975000" lon="34.968775000">
<time>2013-04-01T08:24:29Z</time>
 <fix>none</fix>
 <sat>0</sat>
</trkpt>
<trkpt lat="31.703960000" lon="34.968776667">
<time>2013-04-01T08:24:31Z</time>
 <fix>none</fix>
 <sat>0</sat>
</trkpt>
<trkpt lat="31.703933333" lon="34.968778333">
<time>2013-04-01T08:24:33Z</time>
 <fix>none</fix>
 <sat>0</sat>
</trkpt>
<trkpt lat="31.703905000" lon="34.968780000">
<time>2013-04-01T08:24:35Z</time>
 <fix>none</fix>
 <sat>0</sat>
</trkpt>
<trkpt lat="31.703863333" lon="34.968788333">
<time>2013-04-01T08:24:37Z</time>
 <fix>none</fix>
 <sat>0</sat>
</trkpt>
<trkpt lat="31.703836667" lon="34.968795000">
<time>2013-04-01T08:24:39Z</time>
 <fix>none</fix>
 <sat>0</sat>
</trkpt>
<trkpt lat="31.703808333" lon="34.968806667">
<time>2013-04-01T08:24:41Z</time>
 <fix>none</fix>
 <sat>0</sat>
</trkpt>
<trkpt lat="31.703781667" lon="34.968813333">
<time>2013-04-01T08:24:43Z</time>
 <fix>none</fix>
 <sat>0</sat>
</trkpt>
<trkpt lat="31.703753333" lon="34.968820000">
<time>2013-04-01T08:24:45Z</time>
 <fix>none</fix>
 <sat>0</sat>
</trkpt>
<trkpt lat="31.703728333" lon="34.968828333">
<time>2013-04-01T08:24:47Z</time>
 <fix>none</fix>
 <sat>0</sat>
</trkpt>
<trkpt lat="31.703703333" lon="34.968836667">
<time>2013-04-01T08:24:49Z</time>
 <fix>none</fix>
 <sat>0</sat>
</trkpt>
<trkpt lat="31.703673333" lon="34.968840000">
<time>2013-04-01T08:24:51Z</time>
 <fix>none</fix>
 <sat>0</sat>
</trkpt>
<trkpt lat="31.703658333" lon="34.968841667">
<time>2013-04-01T08:24:53Z</time>
 <fix>none</fix>
 <sat>0</sat>
</trkpt>
<trkpt lat="31.703626667" lon="34.968845000">
<time>2013-04-01T08:24:55Z</time>
 <fix>none</fix>
 <sat>0</sat>
</trkpt>
<trkpt lat="31.703596667" lon="34.968848333">
<time>2013-04-01T08:24:57Z</time>
 <fix>none</fix>
 <sat>0</sat>
</trkpt>
<trkpt lat="31.703553333" lon="34.968853333">
<time>2013-04-01T08:24:59Z</time>
 <fix>none</fix>
 <sat>0</sat>
</trkpt>
<trkpt lat="31.703525000" lon="34.968858333">
<time>2013-04-01T08:25:01Z</time>
 <fix>none</fix>
 <sat>0</sat>
</trkpt>
<trkpt lat="31.703496667" lon="34.968861667">
<time>2013-04-01T08:25:03Z</time>
 <fix>none</fix>
 <sat>0</sat>
</trkpt>
<trkpt lat="31.703468333" lon="34.968865000">
<time>2013-04-01T08:25:05Z</time>
 <fix>none</fix>
 <sat>0</sat>
</trkpt>
<trkpt lat="31.703440000" lon="34.968861667">
<time>2013-04-01T08:25:07Z</time>
 <fix>none</fix>
 <sat>0</sat>
</trkpt>
<trkpt lat="31.703415000" lon="34.968856667">
<time>2013-04-01T08:25:09Z</time>
 <fix>none</fix>
 <sat>0</sat>
</trkpt>
<trkpt lat="31.703386667" lon="34.968851667">
<time>2013-04-01T08:25:11Z</time>
 <fix>none</fix>
 <sat>0</sat>
</trkpt>
<trkpt lat="31.703358333" lon="34.968851667">
<time>2013-04-01T08:25:13Z</time>
 <fix>none</fix>
 <sat>0</sat>
</trkpt>
<trkpt lat="31.703331667" lon="34.968860000">
<time>2013-04-01T08:25:15Z</time>
 <fix>none</fix>
 <sat>0</sat>
</trkpt>
<trkpt lat="31.703320000" lon="34.968865000">
<time>2013-04-01T08:25:17Z</time>
 <fix>none</fix>
 <sat>0</sat>
</trkpt>
<trkpt lat="31.703308333" lon="34.968865000">
<time>2013-04-01T08:25:19Z</time>
 <fix>none</fix>
 <sat>0</sat>
</trkpt>
<trkpt lat="31.703301667" lon="34.968868333">
<time>2013-04-01T08:25:21Z</time>
 <fix>none</fix>
 <sat>0</sat>
</trkpt>
<trkpt lat="31.703288333" lon="34.968866667">
<time>2013-04-01T08:25:23Z</time>
 <fix>none</fix>
 <sat>0</sat>
</trkpt>
<trkpt lat="31.703275000" lon="34.968863333">
<time>2013-04-01T08:25:25Z</time>
 <fix>none</fix>
 <sat>0</sat>
</trkpt>
<trkpt lat="31.703260000" lon="34.968855000">
<time>2013-04-01T08:25:27Z</time>
 <fix>none</fix>
 <sat>0</sat>
</trkpt>
<trkpt lat="31.703241667" lon="34.968848333">
<time>2013-04-01T08:25:29Z</time>
 <fix>none</fix>
 <sat>0</sat>
</trkpt>
<trkpt lat="31.703225000" lon="34.968845000">
<time>2013-04-01T08:25:31Z</time>
 <fix>none</fix>
 <sat>0</sat>
</trkpt>
<trkpt lat="31.703216667" lon="34.968845000">
<time>2013-04-01T08:25:33Z</time>
 <fix>none</fix>
 <sat>0</sat>
</trkpt>
<trkpt lat="31.703211667" lon="34.968838333">
<time>2013-04-01T08:25:35Z</time>
 <fix>none</fix>
 <sat>0</sat>
</trkpt>
<trkpt lat="31.703203333" lon="34.968841667">
<time>2013-04-01T08:25:37Z</time>
 <fix>none</fix>
 <sat>0</sat>
</trkpt>
<trkpt lat="31.703193333" lon="34.968841667">
<time>2013-04-01T08:25:39Z</time>
 <fix>none</fix>
 <sat>0</sat>
</trkpt>
<trkpt lat="31.703168333" lon="34.968846667">
<time>2013-04-01T08:25:41Z</time>
 <fix>none</fix>
 <sat>0</sat>
</trkpt>
<trkpt lat="31.703136667" lon="34.968860000">
<time>2013-04-01T08:25:43Z</time>
 <fix>none</fix>
 <sat>0</sat>
</trkpt>
<trkpt lat="31.703101667" lon="34.968876667">
<time>2013-04-01T08:25:45Z</time>
 <fix>none</fix>
 <sat>0</sat>
</trkpt>
<trkpt lat="31.703055000" lon="34.968903333">
<time>2013-04-01T08:25:47Z</time>
 <fix>none</fix>
 <sat>0</sat>
</trkpt>
<trkpt lat="31.703020000" lon="34.968918333">
<time>2013-04-01T08:25:49Z</time>
 <fix>none</fix>
 <sat>0</sat>
</trkpt>
<trkpt lat="31.702983333" lon="34.968926667">
<time>2013-04-01T08:25:51Z</time>
 <fix>none</fix>
 <sat>0</sat>
</trkpt>
<trkpt lat="31.702950000" lon="34.968926667">
<time>2013-04-01T08:25:53Z</time>
 <fix>none</fix>
 <sat>0</sat>
</trkpt>
<trkpt lat="31.702921667" lon="34.968916667">
<time>2013-04-01T08:25:55Z</time>
 <fix>none</fix>
 <sat>0</sat>
</trkpt>
<trkpt lat="31.702893333" lon="34.968910000">
<time>2013-04-01T08:25:57Z</time>
 <fix>none</fix>
 <sat>0</sat>
</trkpt>
<trkpt lat="31.702866667" lon="34.968896667">
<time>2013-04-01T08:25:59Z</time>
 <fix>none</fix>
 <sat>0</sat>
</trkpt>
<trkpt lat="31.702845000" lon="34.968880000">
<time>2013-04-01T08:26:01Z</time>
 <fix>none</fix>
 <sat>0</sat>
</trkpt>
<trkpt lat="31.702831667" lon="34.968875000">
<time>2013-04-01T08:26:03Z</time>
 <fix>none</fix>
 <sat>0</sat>
</trkpt>
<trkpt lat="31.702791667" lon="34.968861667">
<time>2013-04-01T08:26:05Z</time>
 <fix>none</fix>
 <sat>0</sat>
</trkpt>
<trkpt lat="31.702778333" lon="34.968858333">
<time>2013-04-01T08:26:07Z</time>
 <fix>none</fix>
 <sat>0</sat>
</trkpt>
<trkpt lat="31.702758333" lon="34.968851667">
<time>2013-04-01T08:26:09Z</time>
 <fix>none</fix>
 <sat>0</sat>
</trkpt>
<trkpt lat="31.702753333" lon="34.968850000">
<time>2013-04-01T08:26:11Z</time>
 <fix>none</fix>
 <sat>0</sat>
</trkpt>
<trkpt lat="31.702750000" lon="34.968848333">
<time>2013-04-01T08:26:13Z</time>
 <fix>none</fix>
 <sat>0</sat>
</trkpt>
<trkpt lat="31.702735000" lon="34.968836667">
<time>2013-04-01T08:26:15Z</time>
 <fix>none</fix>
 <sat>0</sat>
</trkpt>
<trkpt lat="31.702718333" lon="34.968830000">
<time>2013-04-01T08:26:17Z</time>
 <fix>none</fix>
 <sat>0</sat>
</trkpt>
<trkpt lat="31.702708333" lon="34.968818333">
<time>2013-04-01T08:26:19Z</time>
 <fix>none</fix>
 <sat>0</sat>
</trkpt>
<trkpt lat="31.702693333" lon="34.968806667">
<time>2013-04-01T08:26:21Z</time>
 <fix>none</fix>
 <sat>0</sat>
</trkpt>
<trkpt lat="31.702676667" lon="34.968796667">
<time>2013-04-01T08:26:23Z</time>
 <fix>none</fix>
 <sat>0</sat>
</trkpt>
<trkpt lat="31.702670000" lon="34.968793333">
<time>2013-04-01T08:26:25Z</time>
 <fix>none</fix>
 <sat>0</sat>
</trkpt>
<trkpt lat="31.702661667" lon="34.968786667">
<time>2013-04-01T08:26:27Z</time>
 <fix>none</fix>
 <sat>0</sat>
</trkpt>
<trkpt lat="31.702663333" lon="34.968780000">
<time>2013-04-01T08:26:29Z</time>
 <fix>none</fix>
 <sat>0</sat>
</trkpt>
<trkpt lat="31.702648333" lon="34.968778333">
<time>2013-04-01T08:26:31Z</time>
 <fix>none</fix>
 <sat>0</sat>
</trkpt>
<trkpt lat="31.702636667" lon="34.968770000">
<time>2013-04-01T08:26:33Z</time>
 <fix>none</fix>
 <sat>0</sat>
</trkpt>
<trkpt lat="31.702620000" lon="34.968756667">
<time>2013-04-01T08:26:35Z</time>
 <fix>none</fix>
 <sat>0</sat>
</trkpt>
<trkpt lat="31.702600000" lon="34.968746667">
<time>2013-04-01T08:26:37Z</time>
 <fix>none</fix>
 <sat>0</sat>
</trkpt>
<trkpt lat="31.702580000" lon="34.968730000">
<time>2013-04-01T08:26:39Z</time>
 <fix>none</fix>
 <sat>0</sat>
</trkpt>
<trkpt lat="31.702563333" lon="34.968711667">
<time>2013-04-01T08:26:41Z</time>
 <fix>none</fix>
 <sat>0</sat>
</trkpt>
<trkpt lat="31.702546667" lon="34.968693333">
<time>2013-04-01T08:26:43Z</time>
 <fix>none</fix>
 <sat>0</sat>
</trkpt>
<trkpt lat="31.702528333" lon="34.968665000">
<time>2013-04-01T08:26:45Z</time>
 <fix>none</fix>
 <sat>0</sat>
</trkpt>
<trkpt lat="31.702525000" lon="34.968658333">
<time>2013-04-01T08:26:47Z</time>
 <fix>none</fix>
 <sat>0</sat>
</trkpt>
<trkpt lat="31.702523333" lon="34.968651667">
<time>2013-04-01T08:26:49Z</time>
 <fix>none</fix>
 <sat>0</sat>
</trkpt>
<trkpt lat="31.702520000" lon="34.968636667">
<time>2013-04-01T08:26:51Z</time>
 <fix>none</fix>
 <sat>0</sat>
</trkpt>
<trkpt lat="31.702513333" lon="34.968616667">
<time>2013-04-01T08:26:53Z</time>
 <fix>none</fix>
 <sat>0</sat>
</trkpt>
<trkpt lat="31.702506667" lon="34.968593333">
<time>2013-04-01T08:26:55Z</time>
 <fix>none</fix>
 <sat>0</sat>
</trkpt>
<trkpt lat="31.702503333" lon="34.968576667">
<time>2013-04-01T08:26:57Z</time>
 <fix>none</fix>
 <sat>0</sat>
</trkpt>
<trkpt lat="31.702498333" lon="34.968565000">
<time>2013-04-01T08:26:59Z</time>
 <fix>none</fix>
 <sat>0</sat>
</trkpt>
<trkpt lat="31.702491667" lon="34.968553333">
<time>2013-04-01T08:27:01Z</time>
 <fix>none</fix>
 <sat>0</sat>
</trkpt>
<trkpt lat="31.702480000" lon="34.968538333">
<time>2013-04-01T08:27:03Z</time>
 <fix>none</fix>
 <sat>0</sat>
</trkpt>
<trkpt lat="31.702461667" lon="34.968500000">
<time>2013-04-01T08:27:05Z</time>
 <fix>none</fix>
 <sat>0</sat>
</trkpt>
<trkpt lat="31.702450000" lon="34.968485000">
<time>2013-04-01T08:27:07Z</time>
 <fix>none</fix>
 <sat>0</sat>
</trkpt>
<trkpt lat="31.702438333" lon="34.968475000">
<time>2013-04-01T08:27:09Z</time>
 <fix>none</fix>
 <sat>0</sat>
</trkpt>
<trkpt lat="31.702435000" lon="34.968471667">
<time>2013-04-01T08:27:11Z</time>
 <fix>none</fix>
 <sat>0</sat>
</trkpt>
<trkpt lat="31.702431667" lon="34.968465000">
<time>2013-04-01T08:27:13Z</time>
 <fix>none</fix>
 <sat>0</sat>
</trkpt>
<trkpt lat="31.702411667" lon="34.968441667">
<time>2013-04-01T08:27:15Z</time>
 <fix>none</fix>
 <sat>0</sat>
</trkpt>
<trkpt lat="31.702400000" lon="34.968413333">
<time>2013-04-01T08:27:17Z</time>
 <fix>none</fix>
 <sat>0</sat>
</trkpt>
<trkpt lat="31.702383333" lon="34.968391667">
<time>2013-04-01T08:27:19Z</time>
 <fix>none</fix>
 <sat>0</sat>
</trkpt>
<trkpt lat="31.702363333" lon="34.968373333">
<time>2013-04-01T08:27:21Z</time>
 <fix>none</fix>
 <sat>0</sat>
</trkpt>
<trkpt lat="31.702346667" lon="34.968355000">
<time>2013-04-01T08:27:23Z</time>
 <fix>none</fix>
 <sat>0</sat>
</trkpt>
<trkpt lat="31.702326667" lon="34.968325000">
<time>2013-04-01T08:27:25Z</time>
 <fix>none</fix>
 <sat>0</sat>
</trkpt>
<trkpt lat="31.702308333" lon="34.968286667">
<time>2013-04-01T08:27:27Z</time>
 <fix>none</fix>
 <sat>0</sat>
</trkpt>
<trkpt lat="31.702293333" lon="34.968250000">
<time>2013-04-01T08:27:29Z</time>
 <fix>none</fix>
 <sat>0</sat>
</trkpt>
<trkpt lat="31.702280000" lon="34.968233333">
<time>2013-04-01T08:27:31Z</time>
 <fix>none</fix>
 <sat>0</sat>
</trkpt>
<trkpt lat="31.702278333" lon="34.968231667">
<time>2013-04-01T08:27:33Z</time>
 <fix>none</fix>
 <sat>0</sat>
</trkpt>
<trkpt lat="31.702268333" lon="34.968208333">
<time>2013-04-01T08:27:35Z</time>
 <fix>none</fix>
 <sat>0</sat>
</trkpt>
<trkpt lat="31.702263333" lon="34.968198333">
<time>2013-04-01T08:27:37Z</time>
 <fix>none</fix>
 <sat>0</sat>
</trkpt>
<trkpt lat="31.702260000" lon="34.968191667">
<time>2013-04-01T08:27:39Z</time>
 <fix>none</fix>
 <sat>0</sat>
</trkpt>
<trkpt lat="31.702260000" lon="34.968188333">
<time>2013-04-01T08:27:41Z</time>
 <fix>none</fix>
 <sat>0</sat>
</trkpt>
<trkpt lat="31.702261667" lon="34.968185000">
<time>2013-04-01T08:27:43Z</time>
 <fix>none</fix>
 <sat>0</sat>
</trkpt>
<trkpt lat="31.702263333" lon="34.968181667">
<time>2013-04-01T08:27:45Z</time>
 <fix>none</fix>
 <sat>0</sat>
</trkpt>
<trkpt lat="31.702261667" lon="34.968176667">
<time>2013-04-01T08:27:47Z</time>
 <fix>none</fix>
 <sat>0</sat>
</trkpt>
<trkpt lat="31.702261667" lon="34.968175000">
<time>2013-04-01T08:27:49Z</time>
 <fix>none</fix>
 <sat>0</sat>
</trkpt>
<trkpt lat="31.702261667" lon="34.968171667">
<time>2013-04-01T08:27:51Z</time>
 <fix>none</fix>
 <sat>0</sat>
</trkpt>
<trkpt lat="31.702255000" lon="34.968163333">
<time>2013-04-01T08:27:53Z</time>
 <fix>none</fix>
 <sat>0</sat>
</trkpt>
<trkpt lat="31.702238333" lon="34.968145000">
<time>2013-04-01T08:27:55Z</time>
 <fix>none</fix>
 <sat>0</sat>
</trkpt>
<trkpt lat="31.702226667" lon="34.968136667">
<time>2013-04-01T08:27:57Z</time>
 <fix>none</fix>
 <sat>0</sat>
</trkpt>
<trkpt lat="31.702196667" lon="34.968115000">
<time>2013-04-01T08:27:59Z</time>
 <fix>none</fix>
 <sat>0</sat>
</trkpt>
<trkpt lat="31.702148333" lon="34.968076667">
<time>2013-04-01T08:28:01Z</time>
 <fix>none</fix>
 <sat>0</sat>
</trkpt>
<trkpt lat="31.702096667" lon="34.968053333">
<time>2013-04-01T08:28:03Z</time>
 <fix>none</fix>
 <sat>0</sat>
</trkpt>
<trkpt lat="31.702046667" lon="34.968038333">
<time>2013-04-01T08:28:05Z</time>
 <fix>none</fix>
 <sat>0</sat>
</trkpt>
<trkpt lat="31.701991667" lon="34.968018333">
<time>2013-04-01T08:28:07Z</time>
 <fix>none</fix>
 <sat>0</sat>
</trkpt>
<trkpt lat="31.701948333" lon="34.967983333">
<time>2013-04-01T08:28:09Z</time>
 <fix>none</fix>
 <sat>0</sat>
</trkpt>
<trkpt lat="31.701900000" lon="34.967940000">
<time>2013-04-01T08:28:11Z</time>
 <fix>none</fix>
 <sat>0</sat>
</trkpt>
<trkpt lat="31.701855000" lon="34.967888333">
<time>2013-04-01T08:28:13Z</time>
 <fix>none</fix>
 <sat>0</sat>
</trkpt>
<trkpt lat="31.701813333" lon="34.967826667">
<time>2013-04-01T08:28:15Z</time>
 <fix>none</fix>
 <sat>0</sat>
</trkpt>
<trkpt lat="31.701768333" lon="34.967770000">
<time>2013-04-01T08:28:17Z</time>
 <fix>none</fix>
 <sat>0</sat>
</trkpt>
<trkpt lat="31.701745000" lon="34.967738333">
<time>2013-04-01T08:28:19Z</time>
 <fix>none</fix>
 <sat>0</sat>
</trkpt>
<trkpt lat="31.701690000" lon="34.967676667">
<time>2013-04-01T08:28:21Z</time>
 <fix>none</fix>
 <sat>0</sat>
</trkpt>
<trkpt lat="31.701626667" lon="34.967626667">
<time>2013-04-01T08:28:23Z</time>
 <fix>none</fix>
 <sat>0</sat>
</trkpt>
<trkpt lat="31.701528333" lon="34.967551667">
<time>2013-04-01T08:28:25Z</time>
 <fix>none</fix>
 <sat>0</sat>
</trkpt>
<trkpt lat="31.701470000" lon="34.967511667">
<time>2013-04-01T08:28:27Z</time>
 <fix>none</fix>
 <sat>0</sat>
</trkpt>
<trkpt lat="31.701423333" lon="34.967471667">
<time>2013-04-01T08:28:29Z</time>
 <fix>none</fix>
 <sat>0</sat>
</trkpt>
<trkpt lat="31.701388333" lon="34.967431667">
<time>2013-04-01T08:28:31Z</time>
 <fix>none</fix>
 <sat>0</sat>
</trkpt>
<trkpt lat="31.701351667" lon="34.967398333">
<time>2013-04-01T08:28:33Z</time>
 <fix>none</fix>
 <sat>0</sat>
</trkpt>
<trkpt lat="31.701306667" lon="34.967368333">
<time>2013-04-01T08:28:35Z</time>
 <fix>none</fix>
 <sat>0</sat>
</trkpt>
<trkpt lat="31.701266667" lon="34.967340000">
<time>2013-04-01T08:28:37Z</time>
 <fix>none</fix>
 <sat>0</sat>
</trkpt>
<trkpt lat="31.701235000" lon="34.967315000">
<time>2013-04-01T08:28:39Z</time>
 <fix>none</fix>
 <sat>0</sat>
</trkpt>
<trkpt lat="31.701223333" lon="34.967305000">
<time>2013-04-01T08:28:41Z</time>
 <fix>none</fix>
 <sat>0</sat>
</trkpt>
<trkpt lat="31.701198333" lon="34.967281667">
<time>2013-04-01T08:28:43Z</time>
 <fix>none</fix>
 <sat>0</sat>
</trkpt>
<trkpt lat="31.701176667" lon="34.967241667">
<time>2013-04-01T08:28:45Z</time>
 <fix>none</fix>
 <sat>0</sat>
</trkpt>
<trkpt lat="31.701145000" lon="34.967205000">
<time>2013-04-01T08:28:47Z</time>
 <fix>none</fix>
 <sat>0</sat>
</trkpt>
<trkpt lat="31.701096667" lon="34.967156667">
<time>2013-04-01T08:28:49Z</time>
 <fix>none</fix>
 <sat>0</sat>
</trkpt>
<trkpt lat="31.701058333" lon="34.967125000">
<time>2013-04-01T08:28:51Z</time>
 <fix>none</fix>
 <sat>0</sat>
</trkpt>
<trkpt lat="31.701010000" lon="34.967101667">
<time>2013-04-01T08:28:53Z</time>
 <fix>none</fix>
 <sat>0</sat>
</trkpt>
<trkpt lat="31.700973333" lon="34.967081667">
<time>2013-04-01T08:28:55Z</time>
 <fix>none</fix>
 <sat>0</sat>
</trkpt>
<trkpt lat="31.700951667" lon="34.967055000">
<time>2013-04-01T08:28:57Z</time>
 <fix>none</fix>
 <sat>0</sat>
</trkpt>
<trkpt lat="31.700928333" lon="34.967016667">
<time>2013-04-01T08:28:59Z</time>
 <fix>none</fix>
 <sat>0</sat>
</trkpt>
<trkpt lat="31.700900000" lon="34.966983333">
<time>2013-04-01T08:29:01Z</time>
 <fix>none</fix>
 <sat>0</sat>
</trkpt>
<trkpt lat="31.700875000" lon="34.966963333">
<time>2013-04-01T08:29:03Z</time>
 <fix>none</fix>
 <sat>0</sat>
</trkpt>
<trkpt lat="31.700861667" lon="34.966948333">
<time>2013-04-01T08:29:05Z</time>
 <fix>none</fix>
 <sat>0</sat>
</trkpt>
<trkpt lat="31.700831667" lon="34.966900000">
<time>2013-04-01T08:29:07Z</time>
 <fix>none</fix>
 <sat>0</sat>
</trkpt>
<trkpt lat="31.700793333" lon="34.966806667">
<time>2013-04-01T08:29:09Z</time>
 <fix>none</fix>
 <sat>0</sat>
</trkpt>
<trkpt lat="31.700781667" lon="34.966745000">
<time>2013-04-01T08:29:11Z</time>
 <fix>none</fix>
 <sat>0</sat>
</trkpt>
<trkpt lat="31.700763333" lon="34.966681667">
<time>2013-04-01T08:29:13Z</time>
 <fix>none</fix>
 <sat>0</sat>
</trkpt>
<trkpt lat="31.700741667" lon="34.966633333">
<time>2013-04-01T08:29:15Z</time>
 <fix>none</fix>
 <sat>0</sat>
</trkpt>
<trkpt lat="31.700711667" lon="34.966593333">
<time>2013-04-01T08:29:17Z</time>
 <fix>none</fix>
 <sat>0</sat>
</trkpt>
<trkpt lat="31.700673333" lon="34.966555000">
<time>2013-04-01T08:29:19Z</time>
 <fix>none</fix>
 <sat>0</sat>
</trkpt>
<trkpt lat="31.700638333" lon="34.966526667">
<time>2013-04-01T08:29:21Z</time>
 <fix>none</fix>
 <sat>0</sat>
</trkpt>
<trkpt lat="31.700611667" lon="34.966496667">
<time>2013-04-01T08:29:23Z</time>
 <fix>none</fix>
 <sat>0</sat>
</trkpt>
<trkpt lat="31.700595000" lon="34.966466667">
<time>2013-04-01T08:29:25Z</time>
 <fix>none</fix>
 <sat>0</sat>
</trkpt>
<trkpt lat="31.700595000" lon="34.966443333">
<time>2013-04-01T08:29:27Z</time>
 <fix>none</fix>
 <sat>0</sat>
</trkpt>
<trkpt lat="31.700588333" lon="34.966336667">
<time>2013-04-01T08:29:29Z</time>
 <fix>none</fix>
 <sat>0</sat>
</trkpt>
<trkpt lat="31.700600000" lon="34.966280000">
<time>2013-04-01T08:29:31Z</time>
 <fix>none</fix>
 <sat>0</sat>
</trkpt>
<trkpt lat="31.700646667" lon="34.966208333">
<time>2013-04-01T08:29:33Z</time>
 <fix>none</fix>
 <sat>0</sat>
</trkpt>
<trkpt lat="31.700686667" lon="34.966156667">
<time>2013-04-01T08:29:35Z</time>
 <fix>none</fix>
 <sat>0</sat>
</trkpt>
<trkpt lat="31.700726667" lon="34.966115000">
<time>2013-04-01T08:29:37Z</time>
 <fix>none</fix>
 <sat>0</sat>
</trkpt>
<trkpt lat="31.700770000" lon="34.966071667">
<time>2013-04-01T08:29:39Z</time>
 <fix>none</fix>
 <sat>0</sat>
</trkpt>
<trkpt lat="31.700815000" lon="34.966030000">
<time>2013-04-01T08:29:41Z</time>
 <fix>none</fix>
 <sat>0</sat>
</trkpt>
<trkpt lat="31.700868333" lon="34.965983333">
<time>2013-04-01T08:29:43Z</time>
 <fix>none</fix>
 <sat>0</sat>
</trkpt>
<trkpt lat="31.700921667" lon="34.965930000">
<time>2013-04-01T08:29:45Z</time>
 <fix>none</fix>
 <sat>0</sat>
</trkpt>
<trkpt lat="31.700976667" lon="34.965868333">
<time>2013-04-01T08:29:47Z</time>
 <fix>none</fix>
 <sat>0</sat>
</trkpt>
<trkpt lat="31.701006667" lon="34.965831667">
<time>2013-04-01T08:29:49Z</time>
 <fix>none</fix>
 <sat>0</sat>
</trkpt>
<trkpt lat="31.701076667" lon="34.965750000">
<time>2013-04-01T08:29:51Z</time>
 <fix>none</fix>
 <sat>0</sat>
</trkpt>
<trkpt lat="31.701188333" lon="34.965633333">
<time>2013-04-01T08:29:53Z</time>
 <fix>none</fix>
 <sat>0</sat>
</trkpt>
<trkpt lat="31.701230000" lon="34.965605000">
<time>2013-04-01T08:29:55Z</time>
 <fix>none</fix>
 <sat>0</sat>
</trkpt>
<trkpt lat="31.701358333" lon="34.965528333">
<time>2013-04-01T08:29:57Z</time>
 <fix>none</fix>
 <sat>0</sat>
</trkpt>
<trkpt lat="31.701438333" lon="34.965488333">
<time>2013-04-01T08:29:59Z</time>
 <fix>none</fix>
 <sat>0</sat>
</trkpt>
<trkpt lat="31.701490000" lon="34.965435000">
<time>2013-04-01T08:30:01Z</time>
 <fix>none</fix>
 <sat>0</sat>
</trkpt>
<trkpt lat="31.701498333" lon="34.965358333">
<time>2013-04-01T08:30:03Z</time>
 <fix>none</fix>
 <sat>0</sat>
</trkpt>
<trkpt lat="31.701460000" lon="34.965280000">
<time>2013-04-01T08:30:05Z</time>
 <fix>none</fix>
 <sat>0</sat>
</trkpt>
<trkpt lat="31.701413333" lon="34.965210000">
<time>2013-04-01T08:30:07Z</time>
 <fix>none</fix>
 <sat>0</sat>
</trkpt>
<trkpt lat="31.701378333" lon="34.965166667">
<time>2013-04-01T08:30:09Z</time>
 <fix>none</fix>
 <sat>0</sat>
</trkpt>
<trkpt lat="31.701336667" lon="34.965131667">
<time>2013-04-01T08:30:11Z</time>
 <fix>none</fix>
 <sat>0</sat>
</trkpt>
<trkpt lat="31.701315000" lon="34.965113333">
<time>2013-04-01T08:30:13Z</time>
 <fix>none</fix>
 <sat>0</sat>
</trkpt>
<trkpt lat="31.701275000" lon="34.965076667">
<time>2013-04-01T08:30:15Z</time>
 <fix>none</fix>
 <sat>0</sat>
</trkpt>
<trkpt lat="31.701233333" lon="34.965040000">
<time>2013-04-01T08:30:17Z</time>
 <fix>none</fix>
 <sat>0</sat>
</trkpt>
<trkpt lat="31.701196667" lon="34.965003333">
<time>2013-04-01T08:30:19Z</time>
 <fix>none</fix>
 <sat>0</sat>
</trkpt>
<trkpt lat="31.701183333" lon="34.964988333">
<time>2013-04-01T08:30:21Z</time>
 <fix>none</fix>
 <sat>0</sat>
</trkpt>
<trkpt lat="31.701175000" lon="34.964985000">
<time>2013-04-01T08:30:23Z</time>
 <fix>none</fix>
 <sat>0</sat>
</trkpt>
<trkpt lat="31.701165000" lon="34.964978333">
<time>2013-04-01T08:30:25Z</time>
 <fix>none</fix>
 <sat>0</sat>
</trkpt>
<trkpt lat="31.701161667" lon="34.964968333">
<time>2013-04-01T08:30:27Z</time>
 <fix>none</fix>
 <sat>0</sat>
</trkpt>
<trkpt lat="31.701161667" lon="34.964963333">
<time>2013-04-01T08:30:29Z</time>
 <fix>none</fix>
 <sat>0</sat>
</trkpt>
<trkpt lat="31.701151667" lon="34.964948333">
<time>2013-04-01T08:30:31Z</time>
 <fix>none</fix>
 <sat>0</sat>
</trkpt>
<trkpt lat="31.701143333" lon="34.964941667">
<time>2013-04-01T08:30:33Z</time>
 <fix>none</fix>
 <sat>0</sat>
</trkpt>
<trkpt lat="31.701140000" lon="34.964940000">
<time>2013-04-01T08:30:35Z</time>
 <fix>none</fix>
 <sat>0</sat>
</trkpt>
<trkpt lat="31.701133333" lon="34.964936667">
<time>2013-04-01T08:30:37Z</time>
 <fix>none</fix>
 <sat>0</sat>
</trkpt>
<trkpt lat="31.701126667" lon="34.964915000">
<time>2013-04-01T08:30:39Z</time>
 <fix>none</fix>
 <sat>0</sat>
</trkpt>
<trkpt lat="31.701108333" lon="34.964891667">
<time>2013-04-01T08:30:41Z</time>
 <fix>none</fix>
 <sat>0</sat>
</trkpt>
<trkpt lat="31.701093333" lon="34.964881667">
<time>2013-04-01T08:30:43Z</time>
 <fix>none</fix>
 <sat>0</sat>
</trkpt>
<trkpt lat="31.701080000" lon="34.964870000">
<time>2013-04-01T08:30:45Z</time>
 <fix>none</fix>
 <sat>0</sat>
</trkpt>
<trkpt lat="31.701075000" lon="34.964866667">
<time>2013-04-01T08:30:47Z</time>
 <fix>none</fix>
 <sat>0</sat>
</trkpt>
<trkpt lat="31.701061667" lon="34.964861667">
<time>2013-04-01T08:30:49Z</time>
 <fix>none</fix>
 <sat>0</sat>
</trkpt>
<trkpt lat="31.701051667" lon="34.964851667">
<time>2013-04-01T08:30:51Z</time>
 <fix>none</fix>
 <sat>0</sat>
</trkpt>
<trkpt lat="31.701046667" lon="34.964841667">
<time>2013-04-01T08:30:53Z</time>
 <fix>none</fix>
 <sat>0</sat>
</trkpt>
<trkpt lat="31.701045000" lon="34.964815000">
<time>2013-04-01T08:30:55Z</time>
 <fix>none</fix>
 <sat>0</sat>
</trkpt>
<trkpt lat="31.701051667" lon="34.964781667">
<time>2013-04-01T08:30:57Z</time>
 <fix>none</fix>
 <sat>0</sat>
</trkpt>
<trkpt lat="31.701053333" lon="34.964775000">
<time>2013-04-01T08:30:59Z</time>
 <fix>none</fix>
 <sat>0</sat>
</trkpt>
<trkpt lat="31.701058333" lon="34.964766667">
<time>2013-04-01T08:31:01Z</time>
 <fix>none</fix>
 <sat>0</sat>
</trkpt>
<trkpt lat="31.701060000" lon="34.964766667">
<time>2013-04-01T08:31:03Z</time>
 <fix>none</fix>
 <sat>0</sat>
</trkpt>
<trkpt lat="31.701060000" lon="34.964765000">
<time>2013-04-01T08:31:05Z</time>
 <fix>none</fix>
 <sat>0</sat>
</trkpt>
<trkpt lat="31.701063333" lon="34.964760000">
<time>2013-04-01T08:31:07Z</time>
 <fix>none</fix>
 <sat>0</sat>
</trkpt>
<trkpt lat="31.701066667" lon="34.964760000">
<time>2013-04-01T08:31:09Z</time>
 <fix>none</fix>
 <sat>0</sat>
</trkpt>
<trkpt lat="31.701066667" lon="34.964760000">
<time>2013-04-01T08:31:11Z</time>
 <fix>none</fix>
 <sat>0</sat>
</trkpt>
<trkpt lat="31.701066667" lon="34.964760000">
<time>2013-04-01T08:31:13Z</time>
 <fix>none</fix>
 <sat>0</sat>
</trkpt>
<trkpt lat="31.701070000" lon="34.964748333">
<time>2013-04-01T08:31:15Z</time>
 <fix>none</fix>
 <sat>0</sat>
</trkpt>
<trkpt lat="31.701073333" lon="34.964736667">
<time>2013-04-01T08:31:17Z</time>
 <fix>none</fix>
 <sat>0</sat>
</trkpt>
<trkpt lat="31.701076667" lon="34.964725000">
<time>2013-04-01T08:31:19Z</time>
 <fix>none</fix>
 <sat>0</sat>
</trkpt>
<trkpt lat="31.701076667" lon="34.964718333">
<time>2013-04-01T08:31:21Z</time>
 <fix>none</fix>
 <sat>0</sat>
</trkpt>
<trkpt lat="31.701078333" lon="34.964713333">
<time>2013-04-01T08:31:23Z</time>
 <fix>none</fix>
 <sat>0</sat>
</trkpt>
<trkpt lat="31.701083333" lon="34.964705000">
<time>2013-04-01T08:31:25Z</time>
 <fix>none</fix>
 <sat>0</sat>
</trkpt>
<trkpt lat="31.701085000" lon="34.964705000">
<time>2013-04-01T08:31:27Z</time>
 <fix>none</fix>
 <sat>0</sat>
</trkpt>
<trkpt lat="31.701085000" lon="34.964705000">
<time>2013-04-01T08:31:29Z</time>
 <fix>none</fix>
 <sat>0</sat>
</trkpt>
<trkpt lat="31.701085000" lon="34.964713333">
<time>2013-04-01T08:31:31Z</time>
 <fix>none</fix>
 <sat>0</sat>
</trkpt>
<trkpt lat="31.701086667" lon="34.964716667">
<time>2013-04-01T08:31:33Z</time>
 <fix>none</fix>
 <sat>0</sat>
</trkpt>
<trkpt lat="31.701088333" lon="34.964718333">
<time>2013-04-01T08:31:35Z</time>
 <fix>none</fix>
 <sat>0</sat>
</trkpt>
<trkpt lat="31.701088333" lon="34.964720000">
<time>2013-04-01T08:31:37Z</time>
 <fix>none</fix>
 <sat>0</sat>
</trkpt>
<trkpt lat="31.701090000" lon="34.964721667">
<time>2013-04-01T08:31:39Z</time>
 <fix>none</fix>
 <sat>0</sat>
</trkpt>
<trkpt lat="31.701091667" lon="34.964721667">
<time>2013-04-01T08:31:41Z</time>
 <fix>none</fix>
 <sat>0</sat>
</trkpt>
<trkpt lat="31.701091667" lon="34.964721667">
<time>2013-04-01T08:31:43Z</time>
 <fix>none</fix>
 <sat>0</sat>
</trkpt>
<trkpt lat="31.701090000" lon="34.964725000">
<time>2013-04-01T08:31:45Z</time>
 <fix>none</fix>
 <sat>0</sat>
</trkpt>
<trkpt lat="31.701091667" lon="34.964723333">
<time>2013-04-01T08:31:47Z</time>
 <fix>none</fix>
 <sat>0</sat>
</trkpt>
<trkpt lat="31.701091667" lon="34.964721667">
<time>2013-04-01T08:31:49Z</time>
 <fix>none</fix>
 <sat>0</sat>
</trkpt>
<trkpt lat="31.701091667" lon="34.964721667">
<time>2013-04-01T08:31:51Z</time>
 <fix>none</fix>
 <sat>0</sat>
</trkpt>
<trkpt lat="31.701091667" lon="34.964720000">
<time>2013-04-01T08:31:53Z</time>
 <fix>none</fix>
 <sat>0</sat>
</trkpt>
<trkpt lat="31.701091667" lon="34.964720000">
<time>2013-04-01T08:31:55Z</time>
 <fix>none</fix>
 <sat>0</sat>
</trkpt>
<trkpt lat="31.701091667" lon="34.964715000">
<time>2013-04-01T08:31:57Z</time>
 <fix>none</fix>
 <sat>0</sat>
</trkpt>
<trkpt lat="31.701093333" lon="34.964708333">
<time>2013-04-01T08:31:59Z</time>
 <fix>none</fix>
 <sat>0</sat>
</trkpt>
<trkpt lat="31.701098333" lon="34.964683333">
<time>2013-04-01T08:32:01Z</time>
 <fix>none</fix>
 <sat>0</sat>
</trkpt>
<trkpt lat="31.701118333" lon="34.964650000">
<time>2013-04-01T08:32:03Z</time>
 <fix>none</fix>
 <sat>0</sat>
</trkpt>
<trkpt lat="31.701155000" lon="34.964603333">
<time>2013-04-01T08:32:05Z</time>
 <fix>none</fix>
 <sat>0</sat>
</trkpt>
<trkpt lat="31.701175000" lon="34.964578333">
<time>2013-04-01T08:32:07Z</time>
 <fix>none</fix>
 <sat>0</sat>
</trkpt>
<trkpt lat="31.701215000" lon="34.964533333">
<time>2013-04-01T08:32:09Z</time>
 <fix>none</fix>
 <sat>0</sat>
</trkpt>
<trkpt lat="31.701255000" lon="34.964483333">
<time>2013-04-01T08:32:11Z</time>
 <fix>none</fix>
 <sat>0</sat>
</trkpt>
<trkpt lat="31.701306667" lon="34.964406667">
<time>2013-04-01T08:32:13Z</time>
 <fix>none</fix>
 <sat>0</sat>
</trkpt>
<trkpt lat="31.701338333" lon="34.964353333">
<time>2013-04-01T08:32:15Z</time>
 <fix>none</fix>
 <sat>0</sat>
</trkpt>
<trkpt lat="31.701370000" lon="34.964296667">
<time>2013-04-01T08:32:17Z</time>
 <fix>none</fix>
 <sat>0</sat>
</trkpt>
<trkpt lat="31.701400000" lon="34.964238333">
<time>2013-04-01T08:32:19Z</time>
 <fix>none</fix>
 <sat>0</sat>
</trkpt>
<trkpt lat="31.701428333" lon="34.964173333">
<time>2013-04-01T08:32:21Z</time>
 <fix>none</fix>
 <sat>0</sat>
</trkpt>
<trkpt lat="31.701458333" lon="34.964103333">
<time>2013-04-01T08:32:23Z</time>
 <fix>none</fix>
 <sat>0</sat>
</trkpt>
<trkpt lat="31.701490000" lon="34.964030000">
<time>2013-04-01T08:32:25Z</time>
 <fix>none</fix>
 <sat>0</sat>
</trkpt>
<trkpt lat="31.701521667" lon="34.963955000">
<time>2013-04-01T08:32:27Z</time>
 <fix>none</fix>
 <sat>0</sat>
</trkpt>
<trkpt lat="31.701538333" lon="34.963916667">
<time>2013-04-01T08:32:29Z</time>
 <fix>none</fix>
 <sat>0</sat>
</trkpt>
<trkpt lat="31.701568333" lon="34.963841667">
<time>2013-04-01T08:32:31Z</time>
 <fix>none</fix>
 <sat>0</sat>
</trkpt>
<trkpt lat="31.701598333" lon="34.963773333">
<time>2013-04-01T08:32:33Z</time>
 <fix>none</fix>
 <sat>0</sat>
</trkpt>
<trkpt lat="31.701650000" lon="34.963663333">
<time>2013-04-01T08:32:35Z</time>
 <fix>none</fix>
 <sat>0</sat>
</trkpt>
<trkpt lat="31.701695000" lon="34.963588333">
<time>2013-04-01T08:32:37Z</time>
 <fix>none</fix>
 <sat>0</sat>
</trkpt>
<trkpt lat="31.701751667" lon="34.963523333">
<time>2013-04-01T08:32:39Z</time>
 <fix>none</fix>
 <sat>0</sat>
</trkpt>
<trkpt lat="31.701808333" lon="34.963471667">
<time>2013-04-01T08:32:41Z</time>
 <fix>none</fix>
 <sat>0</sat>
</trkpt>
<trkpt lat="31.701861667" lon="34.963425000">
<time>2013-04-01T08:32:43Z</time>
 <fix>none</fix>
 <sat>0</sat>
</trkpt>
<trkpt lat="31.701923333" lon="34.963388333">
<time>2013-04-01T08:32:45Z</time>
 <fix>none</fix>
 <sat>0</sat>
</trkpt>
<trkpt lat="31.701988333" lon="34.963365000">
<time>2013-04-01T08:32:47Z</time>
 <fix>none</fix>
 <sat>0</sat>
</trkpt>
<trkpt lat="31.702060000" lon="34.963360000">
<time>2013-04-01T08:32:49Z</time>
 <fix>none</fix>
 <sat>0</sat>
</trkpt>
<trkpt lat="31.702135000" lon="34.963351667">
<time>2013-04-01T08:32:51Z</time>
 <fix>none</fix>
 <sat>0</sat>
</trkpt>
<trkpt lat="31.702171667" lon="34.963343333">
<time>2013-04-01T08:32:53Z</time>
 <fix>none</fix>
 <sat>0</sat>
</trkpt>
<trkpt lat="31.702241667" lon="34.963276667">
<time>2013-04-01T08:32:55Z</time>
 <fix>none</fix>
 <sat>0</sat>
</trkpt>
<trkpt lat="31.702241667" lon="34.963245000">
<time>2013-04-01T08:32:57Z</time>
 <fix>none</fix>
 <sat>0</sat>
</trkpt>
<trkpt lat="31.702175000" lon="34.963163333">
<time>2013-04-01T08:32:59Z</time>
 <fix>none</fix>
 <sat>0</sat>
</trkpt>
<trkpt lat="31.702108333" lon="34.963120000">
<time>2013-04-01T08:33:01Z</time>
 <fix>none</fix>
 <sat>0</sat>
</trkpt>
<trkpt lat="31.702028333" lon="34.963068333">
<time>2013-04-01T08:33:03Z</time>
 <fix>none</fix>
 <sat>0</sat>
</trkpt>
<trkpt lat="31.701955000" lon="34.962995000">
<time>2013-04-01T08:33:05Z</time>
 <fix>none</fix>
 <sat>0</sat>
</trkpt>
<trkpt lat="31.701918333" lon="34.962956667">
<time>2013-04-01T08:33:07Z</time>
 <fix>none</fix>
 <sat>0</sat>
</trkpt>
<trkpt lat="31.701815000" lon="34.962833333">
<time>2013-04-01T08:33:09Z</time>
 <fix>none</fix>
 <sat>0</sat>
</trkpt>
<trkpt lat="31.701768333" lon="34.962758333">
<time>2013-04-01T08:33:11Z</time>
 <fix>none</fix>
 <sat>0</sat>
</trkpt>
<trkpt lat="31.701746667" lon="34.962681667">
<time>2013-04-01T08:33:13Z</time>
 <fix>none</fix>
 <sat>0</sat>
</trkpt>
<trkpt lat="31.701740000" lon="34.962636667">
<time>2013-04-01T08:33:15Z</time>
 <fix>none</fix>
 <sat>0</sat>
</trkpt>
<trkpt lat="31.701721667" lon="34.962543333">
<time>2013-04-01T08:33:17Z</time>
 <fix>none</fix>
 <sat>0</sat>
</trkpt>
<trkpt lat="31.701708333" lon="34.962451667">
<time>2013-04-01T08:33:19Z</time>
 <fix>none</fix>
 <sat>0</sat>
</trkpt>
<trkpt lat="31.701691667" lon="34.962325000">
<time>2013-04-01T08:33:21Z</time>
 <fix>none</fix>
 <sat>0</sat>
</trkpt>
<trkpt lat="31.701686667" lon="34.962238333">
<time>2013-04-01T08:33:23Z</time>
 <fix>none</fix>
 <sat>0</sat>
</trkpt>
<trkpt lat="31.701678333" lon="34.962141667">
<time>2013-04-01T08:33:25Z</time>
 <fix>none</fix>
 <sat>0</sat>
</trkpt>
<trkpt lat="31.701665000" lon="34.962053333">
<time>2013-04-01T08:33:27Z</time>
 <fix>none</fix>
 <sat>0</sat>
</trkpt>
<trkpt lat="31.701651667" lon="34.961968333">
<time>2013-04-01T08:33:29Z</time>
 <fix>none</fix>
 <sat>0</sat>
</trkpt>
<trkpt lat="31.701645000" lon="34.961881667">
<time>2013-04-01T08:33:31Z</time>
 <fix>none</fix>
 <sat>0</sat>
</trkpt>
<trkpt lat="31.701636667" lon="34.961791667">
<time>2013-04-01T08:33:33Z</time>
 <fix>none</fix>
 <sat>0</sat>
</trkpt>
<trkpt lat="31.701640000" lon="34.961696667">
<time>2013-04-01T08:33:35Z</time>
 <fix>none</fix>
 <sat>0</sat>
</trkpt>
<trkpt lat="31.701638333" lon="34.961601667">
<time>2013-04-01T08:33:37Z</time>
 <fix>none</fix>
 <sat>0</sat>
</trkpt>
<trkpt lat="31.701635000" lon="34.961553333">
<time>2013-04-01T08:33:39Z</time>
 <fix>none</fix>
 <sat>0</sat>
</trkpt>
<trkpt lat="31.701643333" lon="34.961403333">
<time>2013-04-01T08:33:41Z</time>
 <fix>none</fix>
 <sat>0</sat>
</trkpt>
<trkpt lat="31.701653333" lon="34.961300000">
<time>2013-04-01T08:33:43Z</time>
 <fix>none</fix>
 <sat>0</sat>
</trkpt>
<trkpt lat="31.701660000" lon="34.961200000">
<time>2013-04-01T08:33:45Z</time>
 <fix>none</fix>
 <sat>0</sat>
</trkpt>
<trkpt lat="31.701668333" lon="34.961098333">
<time>2013-04-01T08:33:47Z</time>
 <fix>none</fix>
 <sat>0</sat>
</trkpt>
<trkpt lat="31.701680000" lon="34.960993333">
<time>2013-04-01T08:33:49Z</time>
 <fix>none</fix>
 <sat>0</sat>
</trkpt>
<trkpt lat="31.701691667" lon="34.960886667">
<time>2013-04-01T08:33:51Z</time>
 <fix>none</fix>
 <sat>0</sat>
</trkpt>
<trkpt lat="31.701703333" lon="34.960775000">
<time>2013-04-01T08:33:53Z</time>
 <fix>none</fix>
 <sat>0</sat>
</trkpt>
<trkpt lat="31.701715000" lon="34.960666667">
<time>2013-04-01T08:33:55Z</time>
 <fix>none</fix>
 <sat>0</sat>
</trkpt>
<trkpt lat="31.701723333" lon="34.960565000">
<time>2013-04-01T08:33:57Z</time>
 <fix>none</fix>
 <sat>0</sat>
</trkpt>
<trkpt lat="31.701738333" lon="34.960465000">
<time>2013-04-01T08:33:59Z</time>
 <fix>none</fix>
 <sat>0</sat>
</trkpt>
<trkpt lat="31.701750000" lon="34.960408333">
<time>2013-04-01T08:34:01Z</time>
 <fix>none</fix>
 <sat>0</sat>
</trkpt>
<trkpt lat="31.701788333" lon="34.960281667">
<time>2013-04-01T08:34:03Z</time>
 <fix>none</fix>
 <sat>0</sat>
</trkpt>
<trkpt lat="31.701841667" lon="34.960160000">
<time>2013-04-01T08:34:05Z</time>
 <fix>none</fix>
 <sat>0</sat>
</trkpt>
<trkpt lat="31.701951667" lon="34.960006667">
<time>2013-04-01T08:34:07Z</time>
 <fix>none</fix>
 <sat>0</sat>
</trkpt>
<trkpt lat="31.702040000" lon="34.959928333">
<time>2013-04-01T08:34:09Z</time>
 <fix>none</fix>
 <sat>0</sat>
</trkpt>
<trkpt lat="31.702125000" lon="34.959895000">
<time>2013-04-01T08:34:11Z</time>
 <fix>none</fix>
 <sat>0</sat>
</trkpt>
<trkpt lat="31.702195000" lon="34.959896667">
<time>2013-04-01T08:34:13Z</time>
 <fix>none</fix>
 <sat>0</sat>
</trkpt>
<trkpt lat="31.702276667" lon="34.959906667">
<time>2013-04-01T08:34:15Z</time>
 <fix>none</fix>
 <sat>0</sat>
</trkpt>
<trkpt lat="31.702361667" lon="34.959915000">
<time>2013-04-01T08:34:17Z</time>
 <fix>none</fix>
 <sat>0</sat>
</trkpt>
<trkpt lat="31.702446667" lon="34.959925000">
<time>2013-04-01T08:34:19Z</time>
 <fix>none</fix>
 <sat>0</sat>
</trkpt>
<trkpt lat="31.702528333" lon="34.959933333">
<time>2013-04-01T08:34:21Z</time>
 <fix>none</fix>
 <sat>0</sat>
</trkpt>
<trkpt lat="31.702565000" lon="34.959920000">
<time>2013-04-01T08:34:23Z</time>
 <fix>none</fix>
 <sat>0</sat>
</trkpt>
<trkpt lat="31.702595000" lon="34.959863333">
<time>2013-04-01T08:34:25Z</time>
 <fix>none</fix>
 <sat>0</sat>
</trkpt>
<trkpt lat="31.702586667" lon="34.959805000">
<time>2013-04-01T08:34:27Z</time>
 <fix>none</fix>
 <sat>0</sat>
</trkpt>
<trkpt lat="31.702535000" lon="34.959725000">
<time>2013-04-01T08:34:29Z</time>
 <fix>none</fix>
 <sat>0</sat>
</trkpt>
<trkpt lat="31.702478333" lon="34.959671667">
<time>2013-04-01T08:34:31Z</time>
 <fix>none</fix>
 <sat>0</sat>
</trkpt>
<trkpt lat="31.702413333" lon="34.959623333">
<time>2013-04-01T08:34:33Z</time>
 <fix>none</fix>
 <sat>0</sat>
</trkpt>
<trkpt lat="31.702345000" lon="34.959578333">
<time>2013-04-01T08:34:35Z</time>
 <fix>none</fix>
 <sat>0</sat>
</trkpt>
<trkpt lat="31.702280000" lon="34.959538333">
<time>2013-04-01T08:34:37Z</time>
 <fix>none</fix>
 <sat>0</sat>
</trkpt>
<trkpt lat="31.702221667" lon="34.959506667">
<time>2013-04-01T08:34:39Z</time>
 <fix>none</fix>
 <sat>0</sat>
</trkpt>
<trkpt lat="31.702160000" lon="34.959475000">
<time>2013-04-01T08:34:41Z</time>
 <fix>none</fix>
 <sat>0</sat>
</trkpt>
<trkpt lat="31.702098333" lon="34.959435000">
<time>2013-04-01T08:34:43Z</time>
 <fix>none</fix>
 <sat>0</sat>
</trkpt>
<trkpt lat="31.702048333" lon="34.959381667">
<time>2013-04-01T08:34:45Z</time>
 <fix>none</fix>
 <sat>0</sat>
</trkpt>
<trkpt lat="31.702023333" lon="34.959346667">
<time>2013-04-01T08:34:47Z</time>
 <fix>none</fix>
 <sat>0</sat>
</trkpt>
<trkpt lat="31.701986667" lon="34.959210000">
<time>2013-04-01T08:34:49Z</time>
 <fix>none</fix>
 <sat>0</sat>
</trkpt>
<trkpt lat="31.701993333" lon="34.959096667">
<time>2013-04-01T08:34:51Z</time>
 <fix>none</fix>
 <sat>0</sat>
</trkpt>
<trkpt lat="31.702005000" lon="34.958978333">
<time>2013-04-01T08:34:53Z</time>
 <fix>none</fix>
 <sat>0</sat>
</trkpt>
<trkpt lat="31.702023333" lon="34.958836667">
<time>2013-04-01T08:34:55Z</time>
 <fix>none</fix>
 <sat>0</sat>
</trkpt>
<trkpt lat="31.702053333" lon="34.958683333">
<time>2013-04-01T08:34:57Z</time>
 <fix>none</fix>
 <sat>0</sat>
</trkpt>
<trkpt lat="31.702080000" lon="34.958526667">
<time>2013-04-01T08:34:59Z</time>
 <fix>none</fix>
 <sat>0</sat>
</trkpt>
<trkpt lat="31.702113333" lon="34.958390000">
<time>2013-04-01T08:35:01Z</time>
 <fix>none</fix>
 <sat>0</sat>
</trkpt>
<trkpt lat="31.702156667" lon="34.958256667">
<time>2013-04-01T08:35:03Z</time>
 <fix>none</fix>
 <sat>0</sat>
</trkpt>
<trkpt lat="31.702195000" lon="34.958121667">
<time>2013-04-01T08:35:05Z</time>
 <fix>none</fix>
 <sat>0</sat>
</trkpt>
<trkpt lat="31.702230000" lon="34.957983333">
<time>2013-04-01T08:35:07Z</time>
 <fix>none</fix>
 <sat>0</sat>
</trkpt>
<trkpt lat="31.702245000" lon="34.957916667">
<time>2013-04-01T08:35:09Z</time>
 <fix>none</fix>
 <sat>0</sat>
</trkpt>
<trkpt lat="31.702275000" lon="34.957780000">
<time>2013-04-01T08:35:11Z</time>
 <fix>none</fix>
 <sat>0</sat>
</trkpt>
<trkpt lat="31.702306667" lon="34.957640000">
<time>2013-04-01T08:35:13Z</time>
 <fix>none</fix>
 <sat>0</sat>
</trkpt>
<trkpt lat="31.702363333" lon="34.957428333">
<time>2013-04-01T08:35:15Z</time>
 <fix>none</fix>
 <sat>0</sat>
</trkpt>
<trkpt lat="31.702405000" lon="34.957290000">
<time>2013-04-01T08:35:17Z</time>
 <fix>none</fix>
 <sat>0</sat>
</trkpt>
<trkpt lat="31.702443333" lon="34.957156667">
<time>2013-04-01T08:35:19Z</time>
 <fix>none</fix>
 <sat>0</sat>
</trkpt>
<trkpt lat="31.702478333" lon="34.957035000">
<time>2013-04-01T08:35:21Z</time>
 <fix>none</fix>
 <sat>0</sat>
</trkpt>
<trkpt lat="31.702506667" lon="34.956910000">
<time>2013-04-01T08:35:23Z</time>
 <fix>none</fix>
 <sat>0</sat>
</trkpt>
<trkpt lat="31.702535000" lon="34.956785000">
<time>2013-04-01T08:35:25Z</time>
 <fix>none</fix>
 <sat>0</sat>
</trkpt>
<trkpt lat="31.702548333" lon="34.956653333">
<time>2013-04-01T08:35:27Z</time>
 <fix>none</fix>
 <sat>0</sat>
</trkpt>
<trkpt lat="31.702545000" lon="34.956523333">
<time>2013-04-01T08:35:29Z</time>
 <fix>none</fix>
 <sat>0</sat>
</trkpt>
<trkpt lat="31.702535000" lon="34.956466667">
<time>2013-04-01T08:35:31Z</time>
 <fix>none</fix>
 <sat>0</sat>
</trkpt>
<trkpt lat="31.702501667" lon="34.956390000">
<time>2013-04-01T08:35:33Z</time>
 <fix>none</fix>
 <sat>0</sat>
</trkpt>
<trkpt lat="31.702466667" lon="34.956343333">
<time>2013-04-01T08:35:35Z</time>
 <fix>none</fix>
 <sat>0</sat>
</trkpt>
<trkpt lat="31.702438333" lon="34.956310000">
<time>2013-04-01T08:35:37Z</time>
 <fix>none</fix>
 <sat>0</sat>
</trkpt>
<trkpt lat="31.702436667" lon="34.956310000">
<time>2013-04-01T08:35:39Z</time>
 <fix>none</fix>
 <sat>0</sat>
</trkpt>
<trkpt lat="31.702433333" lon="34.956301667">
<time>2013-04-01T08:35:41Z</time>
 <fix>none</fix>
 <sat>0</sat>
</trkpt>
<trkpt lat="31.702433333" lon="34.956295000">
<time>2013-04-01T08:35:43Z</time>
 <fix>none</fix>
 <sat>0</sat>
</trkpt>
<trkpt lat="31.702435000" lon="34.956295000">
<time>2013-04-01T08:35:45Z</time>
 <fix>none</fix>
 <sat>0</sat>
</trkpt>
<trkpt lat="31.702435000" lon="34.956295000">
<time>2013-04-01T08:35:47Z</time>
 <fix>none</fix>
 <sat>0</sat>
</trkpt>
<trkpt lat="31.702433333" lon="34.956295000">
<time>2013-04-01T08:35:49Z</time>
 <fix>none</fix>
 <sat>0</sat>
</trkpt>
<trkpt lat="31.702433333" lon="34.956295000">
<time>2013-04-01T08:35:51Z</time>
 <fix>none</fix>
 <sat>0</sat>
</trkpt>
<trkpt lat="31.702433333" lon="34.956296667">
<time>2013-04-01T08:35:53Z</time>
 <fix>none</fix>
 <sat>0</sat>
</trkpt>
<trkpt lat="31.702431667" lon="34.956298333">
<time>2013-04-01T08:35:55Z</time>
 <fix>none</fix>
 <sat>0</sat>
</trkpt>
<trkpt lat="31.702431667" lon="34.956301667">
<time>2013-04-01T08:35:57Z</time>
 <fix>none</fix>
 <sat>0</sat>
</trkpt>
<trkpt lat="31.702431667" lon="34.956303333">
<time>2013-04-01T08:35:59Z</time>
 <fix>none</fix>
 <sat>0</sat>
</trkpt>
<trkpt lat="31.702431667" lon="34.956303333">
<time>2013-04-01T08:36:01Z</time>
 <fix>none</fix>
 <sat>0</sat>
</trkpt>
<trkpt lat="31.702431667" lon="34.956300000">
<time>2013-04-01T08:36:03Z</time>
 <fix>none</fix>
 <sat>0</sat>
</trkpt>
<trkpt lat="31.702430000" lon="34.956300000">
<time>2013-04-01T08:36:05Z</time>
 <fix>none</fix>
 <sat>0</sat>
</trkpt>
<trkpt lat="31.702430000" lon="34.956301667">
<time>2013-04-01T08:36:07Z</time>
 <fix>none</fix>
 <sat>0</sat>
</trkpt>
<trkpt lat="31.702430000" lon="34.956301667">
<time>2013-04-01T08:36:09Z</time>
 <fix>none</fix>
 <sat>0</sat>
</trkpt>
<trkpt lat="31.702430000" lon="34.956301667">
<time>2013-04-01T08:36:11Z</time>
 <fix>none</fix>
 <sat>0</sat>
</trkpt>
<trkpt lat="31.702428333" lon="34.956301667">
<time>2013-04-01T08:36:13Z</time>
 <fix>none</fix>
 <sat>0</sat>
</trkpt>
<trkpt lat="31.702428333" lon="34.956301667">
<time>2013-04-01T08:36:15Z</time>
 <fix>none</fix>
 <sat>0</sat>
</trkpt>
<trkpt lat="31.702426667" lon="34.956301667">
<time>2013-04-01T08:36:17Z</time>
 <fix>none</fix>
 <sat>0</sat>
</trkpt>
<trkpt lat="31.702426667" lon="34.956301667">
<time>2013-04-01T08:36:19Z</time>
 <fix>none</fix>
 <sat>0</sat>
</trkpt>
<trkpt lat="31.702426667" lon="34.956301667">
<time>2013-04-01T08:36:21Z</time>
 <fix>none</fix>
 <sat>0</sat>
</trkpt>
<trkpt lat="31.702426667" lon="34.956303333">
<time>2013-04-01T08:36:23Z</time>
 <fix>none</fix>
 <sat>0</sat>
</trkpt>
<trkpt lat="31.702426667" lon="34.956301667">
<time>2013-04-01T08:36:25Z</time>
 <fix>none</fix>
 <sat>0</sat>
</trkpt>
<trkpt lat="31.702426667" lon="34.956301667">
<time>2013-04-01T08:36:27Z</time>
 <fix>none</fix>
 <sat>0</sat>
</trkpt>
<trkpt lat="31.702426667" lon="34.956301667">
<time>2013-04-01T08:36:29Z</time>
 <fix>none</fix>
 <sat>0</sat>
</trkpt>
<trkpt lat="31.702428333" lon="34.956303333">
<time>2013-04-01T08:36:31Z</time>
 <fix>none</fix>
 <sat>0</sat>
</trkpt>
<trkpt lat="31.702426667" lon="34.956301667">
<time>2013-04-01T08:36:33Z</time>
 <fix>none</fix>
 <sat>0</sat>
</trkpt>
<trkpt lat="31.702426667" lon="34.956303333">
<time>2013-04-01T08:36:35Z</time>
 <fix>none</fix>
 <sat>0</sat>
</trkpt>
<trkpt lat="31.702426667" lon="34.956303333">
<time>2013-04-01T08:36:37Z</time>
 <fix>none</fix>
 <sat>0</sat>
</trkpt>
<trkpt lat="31.702426667" lon="34.956303333">
<time>2013-04-01T08:36:39Z</time>
 <fix>none</fix>
 <sat>0</sat>
</trkpt>
<trkpt lat="31.702426667" lon="34.956303333">
<time>2013-04-01T08:36:41Z</time>
 <fix>none</fix>
 <sat>0</sat>
</trkpt>
<trkpt lat="31.702426667" lon="34.956301667">
<time>2013-04-01T08:36:43Z</time>
 <fix>none</fix>
 <sat>0</sat>
</trkpt>
<trkpt lat="31.702426667" lon="34.956296667">
<time>2013-04-01T08:36:45Z</time>
 <fix>none</fix>
 <sat>0</sat>
</trkpt>
<trkpt lat="31.702413333" lon="34.956280000">
<time>2013-04-01T08:36:47Z</time>
 <fix>none</fix>
 <sat>0</sat>
</trkpt>
<trkpt lat="31.702390000" lon="34.956251667">
<time>2013-04-01T08:36:49Z</time>
 <fix>none</fix>
 <sat>0</sat>
</trkpt>
<trkpt lat="31.702360000" lon="34.956205000">
<time>2013-04-01T08:36:51Z</time>
 <fix>none</fix>
 <sat>0</sat>
</trkpt>
<trkpt lat="31.702330000" lon="34.956148333">
<time>2013-04-01T08:36:53Z</time>
 <fix>none</fix>
 <sat>0</sat>
</trkpt>
<trkpt lat="31.702301667" lon="34.956085000">
<time>2013-04-01T08:36:55Z</time>
 <fix>none</fix>
 <sat>0</sat>
</trkpt>
<trkpt lat="31.702276667" lon="34.956016667">
<time>2013-04-01T08:36:57Z</time>
 <fix>none</fix>
 <sat>0</sat>
</trkpt>
<trkpt lat="31.702255000" lon="34.955941667">
<time>2013-04-01T08:36:59Z</time>
 <fix>none</fix>
 <sat>0</sat>
</trkpt>
<trkpt lat="31.702235000" lon="34.955845000">
<time>2013-04-01T08:37:01Z</time>
 <fix>none</fix>
 <sat>0</sat>
</trkpt>
<trkpt lat="31.702226667" lon="34.955793333">
<time>2013-04-01T08:37:03Z</time>
 <fix>none</fix>
 <sat>0</sat>
</trkpt>
<trkpt lat="31.702210000" lon="34.955688333">
<time>2013-04-01T08:37:05Z</time>
 <fix>none</fix>
 <sat>0</sat>
</trkpt>
<trkpt lat="31.702191667" lon="34.955576667">
<time>2013-04-01T08:37:07Z</time>
 <fix>none</fix>
 <sat>0</sat>
</trkpt>
<trkpt lat="31.702168333" lon="34.955405000">
<time>2013-04-01T08:37:09Z</time>
 <fix>none</fix>
 <sat>0</sat>
</trkpt>
<trkpt lat="31.702153333" lon="34.955295000">
<time>2013-04-01T08:37:11Z</time>
 <fix>none</fix>
 <sat>0</sat>
</trkpt>
<trkpt lat="31.702151667" lon="34.955188333">
<time>2013-04-01T08:37:13Z</time>
 <fix>none</fix>
 <sat>0</sat>
</trkpt>
<trkpt lat="31.702158333" lon="34.955085000">
<time>2013-04-01T08:37:15Z</time>
 <fix>none</fix>
 <sat>0</sat>
</trkpt>
<trkpt lat="31.702168333" lon="34.954973333">
<time>2013-04-01T08:37:17Z</time>
 <fix>none</fix>
 <sat>0</sat>
</trkpt>
<trkpt lat="31.702176667" lon="34.954865000">
<time>2013-04-01T08:37:19Z</time>
 <fix>none</fix>
 <sat>0</sat>
</trkpt>
<trkpt lat="31.702181667" lon="34.954751667">
<time>2013-04-01T08:37:21Z</time>
 <fix>none</fix>
 <sat>0</sat>
</trkpt>
<trkpt lat="31.702188333" lon="34.954631667">
<time>2013-04-01T08:37:23Z</time>
 <fix>none</fix>
 <sat>0</sat>
</trkpt>
<trkpt lat="31.702191667" lon="34.954573333">
<time>2013-04-01T08:37:25Z</time>
 <fix>none</fix>
 <sat>0</sat>
</trkpt>
<trkpt lat="31.702196667" lon="34.954453333">
<time>2013-04-01T08:37:27Z</time>
 <fix>none</fix>
 <sat>0</sat>
</trkpt>
<trkpt lat="31.702213333" lon="34.954275000">
<time>2013-04-01T08:37:29Z</time>
 <fix>none</fix>
 <sat>0</sat>
</trkpt>
<trkpt lat="31.702223333" lon="34.954160000">
<time>2013-04-01T08:37:31Z</time>
 <fix>none</fix>
 <sat>0</sat>
</trkpt>
<trkpt lat="31.702230000" lon="34.954046667">
<time>2013-04-01T08:37:33Z</time>
 <fix>none</fix>
 <sat>0</sat>
</trkpt>
<trkpt lat="31.702241667" lon="34.953933333">
<time>2013-04-01T08:37:35Z</time>
 <fix>none</fix>
 <sat>0</sat>
</trkpt>
<trkpt lat="31.702258333" lon="34.953820000">
<time>2013-04-01T08:37:37Z</time>
 <fix>none</fix>
 <sat>0</sat>
</trkpt>
<trkpt lat="31.702276667" lon="34.953711667">
<time>2013-04-01T08:37:39Z</time>
 <fix>none</fix>
 <sat>0</sat>
</trkpt>
<trkpt lat="31.702296667" lon="34.953600000">
<time>2013-04-01T08:37:41Z</time>
 <fix>none</fix>
 <sat>0</sat>
</trkpt>
<trkpt lat="31.702315000" lon="34.953488333">
<time>2013-04-01T08:37:43Z</time>
 <fix>none</fix>
 <sat>0</sat>
</trkpt>
<trkpt lat="31.702325000" lon="34.953380000">
<time>2013-04-01T08:37:45Z</time>
 <fix>none</fix>
 <sat>0</sat>
</trkpt>
<trkpt lat="31.702328333" lon="34.953265000">
<time>2013-04-01T08:37:47Z</time>
 <fix>none</fix>
 <sat>0</sat>
</trkpt>
<trkpt lat="31.702326667" lon="34.953206667">
<time>2013-04-01T08:37:49Z</time>
 <fix>none</fix>
 <sat>0</sat>
</trkpt>
<trkpt lat="31.702323333" lon="34.953093333">
<time>2013-04-01T08:37:51Z</time>
 <fix>none</fix>
 <sat>0</sat>
</trkpt>
<trkpt lat="31.702323333" lon="34.952926667">
<time>2013-04-01T08:37:53Z</time>
 <fix>none</fix>
 <sat>0</sat>
</trkpt>
<trkpt lat="31.702325000" lon="34.952811667">
<time>2013-04-01T08:37:55Z</time>
 <fix>none</fix>
 <sat>0</sat>
</trkpt>
<trkpt lat="31.702328333" lon="34.952696667">
<time>2013-04-01T08:37:57Z</time>
 <fix>none</fix>
 <sat>0</sat>
</trkpt>
<trkpt lat="31.702330000" lon="34.952581667">
<time>2013-04-01T08:37:59Z</time>
 <fix>none</fix>
 <sat>0</sat>
</trkpt>
<trkpt lat="31.702326667" lon="34.952466667">
<time>2013-04-01T08:38:01Z</time>
 <fix>none</fix>
 <sat>0</sat>
</trkpt>
<trkpt lat="31.702318333" lon="34.952351667">
<time>2013-04-01T08:38:03Z</time>
 <fix>none</fix>
 <sat>0</sat>
</trkpt>
<trkpt lat="31.702303333" lon="34.952231667">
<time>2013-04-01T08:38:05Z</time>
 <fix>none</fix>
 <sat>0</sat>
</trkpt>
<trkpt lat="31.702278333" lon="34.952101667">
<time>2013-04-01T08:38:07Z</time>
 <fix>none</fix>
 <sat>0</sat>
</trkpt>
<trkpt lat="31.702248333" lon="34.951968333">
<time>2013-04-01T08:38:09Z</time>
 <fix>none</fix>
 <sat>0</sat>
</trkpt>
<trkpt lat="31.702226667" lon="34.951901667">
<time>2013-04-01T08:38:11Z</time>
 <fix>none</fix>
 <sat>0</sat>
</trkpt>
<trkpt lat="31.702176667" lon="34.951773333">
<time>2013-04-01T08:38:13Z</time>
 <fix>none</fix>
 <sat>0</sat>
</trkpt>
<trkpt lat="31.702123333" lon="34.951635000">
<time>2013-04-01T08:38:15Z</time>
 <fix>none</fix>
 <sat>0</sat>
</trkpt>
<trkpt lat="31.702051667" lon="34.951431667">
<time>2013-04-01T08:38:17Z</time>
 <fix>none</fix>
 <sat>0</sat>
</trkpt>
<trkpt lat="31.702006667" lon="34.951296667">
<time>2013-04-01T08:38:19Z</time>
 <fix>none</fix>
 <sat>0</sat>
</trkpt>
<trkpt lat="31.701965000" lon="34.951166667">
<time>2013-04-01T08:38:21Z</time>
 <fix>none</fix>
 <sat>0</sat>
</trkpt>
<trkpt lat="31.701923333" lon="34.951045000">
<time>2013-04-01T08:38:23Z</time>
 <fix>none</fix>
 <sat>0</sat>
</trkpt>
<trkpt lat="31.701875000" lon="34.950925000">
<time>2013-04-01T08:38:25Z</time>
 <fix>none</fix>
 <sat>0</sat>
</trkpt>
<trkpt lat="31.701825000" lon="34.950810000">
<time>2013-04-01T08:38:27Z</time>
 <fix>none</fix>
 <sat>0</sat>
</trkpt>
<trkpt lat="31.701770000" lon="34.950693333">
<time>2013-04-01T08:38:29Z</time>
 <fix>none</fix>
 <sat>0</sat>
</trkpt>
<trkpt lat="31.701728333" lon="34.950576667">
<time>2013-04-01T08:38:31Z</time>
 <fix>none</fix>
 <sat>0</sat>
</trkpt>
<trkpt lat="31.701691667" lon="34.950456667">
<time>2013-04-01T08:38:33Z</time>
 <fix>none</fix>
 <sat>0</sat>
</trkpt>
<trkpt lat="31.701678333" lon="34.950393333">
<time>2013-04-01T08:38:35Z</time>
 <fix>none</fix>
 <sat>0</sat>
</trkpt>
<trkpt lat="31.701658333" lon="34.950271667">
<time>2013-04-01T08:38:37Z</time>
 <fix>none</fix>
 <sat>0</sat>
</trkpt>
<trkpt lat="31.701633333" lon="34.950088333">
<time>2013-04-01T08:38:39Z</time>
 <fix>none</fix>
 <sat>0</sat>
</trkpt>
<trkpt lat="31.701618333" lon="34.949975000">
<time>2013-04-01T08:38:41Z</time>
 <fix>none</fix>
 <sat>0</sat>
</trkpt>
<trkpt lat="31.701601667" lon="34.949865000">
<time>2013-04-01T08:38:43Z</time>
 <fix>none</fix>
 <sat>0</sat>
</trkpt>
<trkpt lat="31.701585000" lon="34.949750000">
<time>2013-04-01T08:38:45Z</time>
 <fix>none</fix>
 <sat>0</sat>
</trkpt>
<trkpt lat="31.701568333" lon="34.949633333">
<time>2013-04-01T08:38:47Z</time>
 <fix>none</fix>
 <sat>0</sat>
</trkpt>
<trkpt lat="31.701545000" lon="34.949516667">
<time>2013-04-01T08:38:49Z</time>
 <fix>none</fix>
 <sat>0</sat>
</trkpt>
<trkpt lat="31.701520000" lon="34.949400000">
<time>2013-04-01T08:38:51Z</time>
 <fix>none</fix>
 <sat>0</sat>
</trkpt>
<trkpt lat="31.701491667" lon="34.949285000">
<time>2013-04-01T08:38:53Z</time>
 <fix>none</fix>
 <sat>0</sat>
</trkpt>
<trkpt lat="31.701461667" lon="34.949170000">
<time>2013-04-01T08:38:55Z</time>
 <fix>none</fix>
 <sat>0</sat>
</trkpt>
<trkpt lat="31.701446667" lon="34.949111667">
<time>2013-04-01T08:38:57Z</time>
 <fix>none</fix>
 <sat>0</sat>
</trkpt>
<trkpt lat="31.701425000" lon="34.949005000">
<time>2013-04-01T08:38:59Z</time>
 <fix>none</fix>
 <sat>0</sat>
</trkpt>
<trkpt lat="31.701410000" lon="34.948896667">
<time>2013-04-01T08:39:01Z</time>
 <fix>none</fix>
 <sat>0</sat>
</trkpt>
<trkpt lat="31.701395000" lon="34.948718333">
<time>2013-04-01T08:39:03Z</time>
 <fix>none</fix>
 <sat>0</sat>
</trkpt>
<trkpt lat="31.701395000" lon="34.948655000">
<time>2013-04-01T08:39:05Z</time>
 <fix>none</fix>
 <sat>0</sat>
</trkpt>
<trkpt lat="31.701401667" lon="34.948470000">
<time>2013-04-01T08:39:07Z</time>
 <fix>none</fix>
 <sat>0</sat>
</trkpt>
<trkpt lat="31.701406667" lon="34.948350000">
<time>2013-04-01T08:39:09Z</time>
 <fix>none</fix>
 <sat>0</sat>
</trkpt>
<trkpt lat="31.701408333" lon="34.948230000">
<time>2013-04-01T08:39:11Z</time>
 <fix>none</fix>
 <sat>0</sat>
</trkpt>
<trkpt lat="31.701408333" lon="34.948111667">
<time>2013-04-01T08:39:13Z</time>
 <fix>none</fix>
 <sat>0</sat>
</trkpt>
<trkpt lat="31.701403333" lon="34.947993333">
<time>2013-04-01T08:39:15Z</time>
 <fix>none</fix>
 <sat>0</sat>
</trkpt>
<trkpt lat="31.701405000" lon="34.947871667">
<time>2013-04-01T08:39:17Z</time>
 <fix>none</fix>
 <sat>0</sat>
</trkpt>
<trkpt lat="31.701410000" lon="34.947810000">
<time>2013-04-01T08:39:19Z</time>
 <fix>none</fix>
 <sat>0</sat>
</trkpt>
<trkpt lat="31.701423333" lon="34.947681667">
<time>2013-04-01T08:39:21Z</time>
 <fix>none</fix>
 <sat>0</sat>
</trkpt>
<trkpt lat="31.701448333" lon="34.947508333">
<time>2013-04-01T08:39:23Z</time>
 <fix>none</fix>
 <sat>0</sat>
</trkpt>
<trkpt lat="31.701466667" lon="34.947401667">
<time>2013-04-01T08:39:25Z</time>
 <fix>none</fix>
 <sat>0</sat>
</trkpt>
<trkpt lat="31.701493333" lon="34.947310000">
<time>2013-04-01T08:39:27Z</time>
 <fix>none</fix>
 <sat>0</sat>
</trkpt>
<trkpt lat="31.701533333" lon="34.947206667">
<time>2013-04-01T08:39:29Z</time>
 <fix>none</fix>
 <sat>0</sat>
</trkpt>
<trkpt lat="31.701581667" lon="34.947093333">
<time>2013-04-01T08:39:31Z</time>
 <fix>none</fix>
 <sat>0</sat>
</trkpt>
<trkpt lat="31.701635000" lon="34.946991667">
<time>2013-04-01T08:39:33Z</time>
 <fix>none</fix>
 <sat>0</sat>
</trkpt>
<trkpt lat="31.701698333" lon="34.946883333">
<time>2013-04-01T08:39:35Z</time>
 <fix>none</fix>
 <sat>0</sat>
</trkpt>
<trkpt lat="31.701758333" lon="34.946746667">
<time>2013-04-01T08:39:37Z</time>
 <fix>none</fix>
 <sat>0</sat>
</trkpt>
<trkpt lat="31.701820000" lon="34.946623333">
<time>2013-04-01T08:39:39Z</time>
 <fix>none</fix>
 <sat>0</sat>
</trkpt>
<trkpt lat="31.701860000" lon="34.946538333">
<time>2013-04-01T08:39:41Z</time>
 <fix>none</fix>
 <sat>0</sat>
</trkpt>
<trkpt lat="31.701873333" lon="34.946510000">
<time>2013-04-01T08:39:43Z</time>
 <fix>none</fix>
 <sat>0</sat>
</trkpt>
<trkpt lat="31.701880000" lon="34.946461667">
<time>2013-04-01T08:39:45Z</time>
 <fix>none</fix>
 <sat>0</sat>
</trkpt>
<trkpt lat="31.701821667" lon="34.946411667">
<time>2013-04-01T08:39:47Z</time>
 <fix>none</fix>
 <sat>0</sat>
</trkpt>
<trkpt lat="31.701786667" lon="34.946406667">
<time>2013-04-01T08:39:49Z</time>
 <fix>none</fix>
 <sat>0</sat>
</trkpt>
<trkpt lat="31.701666667" lon="34.946416667">
<time>2013-04-01T08:39:51Z</time>
 <fix>none</fix>
 <sat>0</sat>
</trkpt>
<trkpt lat="31.701583333" lon="34.946425000">
<time>2013-04-01T08:39:53Z</time>
 <fix>none</fix>
 <sat>0</sat>
</trkpt>
<trkpt lat="31.701508333" lon="34.946431667">
<time>2013-04-01T08:39:55Z</time>
 <fix>none</fix>
 <sat>0</sat>
</trkpt>
<trkpt lat="31.701440000" lon="34.946438333">
<time>2013-04-01T08:39:57Z</time>
 <fix>none</fix>
 <sat>0</sat>
</trkpt>
<trkpt lat="31.701375000" lon="34.946446667">
<time>2013-04-01T08:39:59Z</time>
 <fix>none</fix>
 <sat>0</sat>
</trkpt>
<trkpt lat="31.701306667" lon="34.946448333">
<time>2013-04-01T08:40:01Z</time>
 <fix>none</fix>
 <sat>0</sat>
</trkpt>
<trkpt lat="31.701243333" lon="34.946453333">
<time>2013-04-01T08:40:03Z</time>
 <fix>none</fix>
 <sat>0</sat>
</trkpt>
<trkpt lat="31.701206667" lon="34.946455000">
<time>2013-04-01T08:40:05Z</time>
 <fix>none</fix>
 <sat>0</sat>
</trkpt>
<trkpt lat="31.701140000" lon="34.946450000">
<time>2013-04-01T08:40:07Z</time>
 <fix>none</fix>
 <sat>0</sat>
</trkpt>
<trkpt lat="31.701113333" lon="34.946450000">
<time>2013-04-01T08:40:09Z</time>
 <fix>none</fix>
 <sat>0</sat>
</trkpt>
<trkpt lat="31.701090000" lon="34.946451667">
<time>2013-04-01T08:40:11Z</time>
 <fix>none</fix>
 <sat>0</sat>
</trkpt>
<trkpt lat="31.701088333" lon="34.946445000">
<time>2013-04-01T08:40:13Z</time>
 <fix>none</fix>
 <sat>0</sat>
</trkpt>
<trkpt lat="31.701078333" lon="34.946440000">
<time>2013-04-01T08:40:15Z</time>
 <fix>none</fix>
 <sat>0</sat>
</trkpt>
<trkpt lat="31.701055000" lon="34.946431667">
<time>2013-04-01T08:40:17Z</time>
 <fix>none</fix>
 <sat>0</sat>
</trkpt>
<trkpt lat="31.701021667" lon="34.946428333">
<time>2013-04-01T08:40:19Z</time>
 <fix>none</fix>
 <sat>0</sat>
</trkpt>
<trkpt lat="31.700986667" lon="34.946423333">
<time>2013-04-01T08:40:21Z</time>
 <fix>none</fix>
 <sat>0</sat>
</trkpt>
<trkpt lat="31.700950000" lon="34.946418333">
<time>2013-04-01T08:40:23Z</time>
 <fix>none</fix>
 <sat>0</sat>
</trkpt>
<trkpt lat="31.700913333" lon="34.946410000">
<time>2013-04-01T08:40:25Z</time>
 <fix>none</fix>
 <sat>0</sat>
</trkpt>
<trkpt lat="31.700886667" lon="34.946401667">
<time>2013-04-01T08:40:27Z</time>
 <fix>none</fix>
 <sat>0</sat>
</trkpt>
<trkpt lat="31.700883333" lon="34.946401667">
<time>2013-04-01T08:40:29Z</time>
 <fix>none</fix>
 <sat>0</sat>
</trkpt>
<trkpt lat="31.700881667" lon="34.946398333">
<time>2013-04-01T08:40:31Z</time>
 <fix>none</fix>
 <sat>0</sat>
</trkpt>
<trkpt lat="31.700875000" lon="34.946381667">
<time>2013-04-01T08:40:33Z</time>
 <fix>none</fix>
 <sat>0</sat>
</trkpt>
<trkpt lat="31.700866667" lon="34.946358333">
<time>2013-04-01T08:40:35Z</time>
 <fix>none</fix>
 <sat>0</sat>
</trkpt>
<trkpt lat="31.700860000" lon="34.946353333">
<time>2013-04-01T08:40:37Z</time>
 <fix>none</fix>
 <sat>0</sat>
</trkpt>
<trkpt lat="31.700861667" lon="34.946353333">
<time>2013-04-01T08:40:39Z</time>
 <fix>none</fix>
 <sat>0</sat>
</trkpt>
<trkpt lat="31.700858333" lon="34.946350000">
<time>2013-04-01T08:40:41Z</time>
 <fix>none</fix>
 <sat>0</sat>
</trkpt>
<trkpt lat="31.700846667" lon="34.946343333">
<time>2013-04-01T08:40:43Z</time>
 <fix>none</fix>
 <sat>0</sat>
</trkpt>
<trkpt lat="31.700821667" lon="34.946330000">
<time>2013-04-01T08:40:45Z</time>
 <fix>none</fix>
 <sat>0</sat>
</trkpt>
<trkpt lat="31.700790000" lon="34.946323333">
<time>2013-04-01T08:40:47Z</time>
 <fix>none</fix>
 <sat>0</sat>
</trkpt>
<trkpt lat="31.700745000" lon="34.946318333">
<time>2013-04-01T08:40:49Z</time>
 <fix>none</fix>
 <sat>0</sat>
</trkpt>
<trkpt lat="31.700718333" lon="34.946313333">
<time>2013-04-01T08:40:51Z</time>
 <fix>none</fix>
 <sat>0</sat>
</trkpt>
<trkpt lat="31.700666667" lon="34.946301667">
<time>2013-04-01T08:40:53Z</time>
 <fix>none</fix>
 <sat>0</sat>
</trkpt>
<trkpt lat="31.700623333" lon="34.946286667">
<time>2013-04-01T08:40:55Z</time>
 <fix>none</fix>
 <sat>0</sat>
</trkpt>
<trkpt lat="31.700561667" lon="34.946260000">
<time>2013-04-01T08:40:57Z</time>
 <fix>none</fix>
 <sat>0</sat>
</trkpt>
<trkpt lat="31.700523333" lon="34.946230000">
<time>2013-04-01T08:40:59Z</time>
 <fix>none</fix>
 <sat>0</sat>
</trkpt>
<trkpt lat="31.700496667" lon="34.946196667">
<time>2013-04-01T08:41:01Z</time>
 <fix>none</fix>
 <sat>0</sat>
</trkpt>
<trkpt lat="31.700466667" lon="34.946151667">
<time>2013-04-01T08:41:03Z</time>
 <fix>none</fix>
 <sat>0</sat>
</trkpt>
<trkpt lat="31.700436667" lon="34.946103333">
<time>2013-04-01T08:41:05Z</time>
 <fix>none</fix>
 <sat>0</sat>
</trkpt>
<trkpt lat="31.700420000" lon="34.946055000">
<time>2013-04-01T08:41:07Z</time>
 <fix>none</fix>
 <sat>0</sat>
</trkpt>
<trkpt lat="31.700400000" lon="34.946003333">
<time>2013-04-01T08:41:09Z</time>
 <fix>none</fix>
 <sat>0</sat>
</trkpt>
<trkpt lat="31.700378333" lon="34.945948333">
<time>2013-04-01T08:41:11Z</time>
 <fix>none</fix>
 <sat>0</sat>
</trkpt>
<trkpt lat="31.700365000" lon="34.945915000">
<time>2013-04-01T08:41:13Z</time>
 <fix>none</fix>
 <sat>0</sat>
</trkpt>
<trkpt lat="31.700323333" lon="34.945840000">
<time>2013-04-01T08:41:15Z</time>
 <fix>none</fix>
 <sat>0</sat>
</trkpt>
<trkpt lat="31.700253333" lon="34.945766667">
<time>2013-04-01T08:41:17Z</time>
 <fix>none</fix>
 <sat>0</sat>
</trkpt>
<trkpt lat="31.700133333" lon="34.945663333">
<time>2013-04-01T08:41:19Z</time>
 <fix>none</fix>
 <sat>0</sat>
</trkpt>
<trkpt lat="31.700048333" lon="34.945595000">
<time>2013-04-01T08:41:21Z</time>
 <fix>none</fix>
 <sat>0</sat>
</trkpt>
<trkpt lat="31.699960000" lon="34.945513333">
<time>2013-04-01T08:41:23Z</time>
 <fix>none</fix>
 <sat>0</sat>
</trkpt>
<trkpt lat="31.699868333" lon="34.945420000">
<time>2013-04-01T08:41:25Z</time>
 <fix>none</fix>
 <sat>0</sat>
</trkpt>
<trkpt lat="31.699780000" lon="34.945323333">
<time>2013-04-01T08:41:27Z</time>
 <fix>none</fix>
 <sat>0</sat>
</trkpt>
<trkpt lat="31.699695000" lon="34.945226667">
<time>2013-04-01T08:41:29Z</time>
 <fix>none</fix>
 <sat>0</sat>
</trkpt>
<trkpt lat="31.699603333" lon="34.945125000">
<time>2013-04-01T08:41:31Z</time>
 <fix>none</fix>
 <sat>0</sat>
</trkpt>
<trkpt lat="31.699498333" lon="34.945030000">
<time>2013-04-01T08:41:33Z</time>
 <fix>none</fix>
 <sat>0</sat>
</trkpt>
<trkpt lat="31.699380000" lon="34.944951667">
<time>2013-04-01T08:41:35Z</time>
 <fix>none</fix>
 <sat>0</sat>
</trkpt>
<trkpt lat="31.699321667" lon="34.944921667">
<time>2013-04-01T08:41:37Z</time>
 <fix>none</fix>
 <sat>0</sat>
</trkpt>
<trkpt lat="31.699208333" lon="34.944856667">
<time>2013-04-01T08:41:39Z</time>
 <fix>none</fix>
 <sat>0</sat>
</trkpt>
<trkpt lat="31.699066667" lon="34.944751667">
<time>2013-04-01T08:41:41Z</time>
 <fix>none</fix>
 <sat>0</sat>
</trkpt>
<trkpt lat="31.698991667" lon="34.944670000">
<time>2013-04-01T08:41:43Z</time>
 <fix>none</fix>
 <sat>0</sat>
</trkpt>
<trkpt lat="31.698923333" lon="34.944583333">
<time>2013-04-01T08:41:45Z</time>
 <fix>none</fix>
 <sat>0</sat>
</trkpt>
<trkpt lat="31.698865000" lon="34.944500000">
<time>2013-04-01T08:41:47Z</time>
 <fix>none</fix>
 <sat>0</sat>
</trkpt>
<trkpt lat="31.698815000" lon="34.944400000">
<time>2013-04-01T08:41:49Z</time>
 <fix>none</fix>
 <sat>0</sat>
</trkpt>
<trkpt lat="31.698780000" lon="34.944286667">
<time>2013-04-01T08:41:51Z</time>
 <fix>none</fix>
 <sat>0</sat>
</trkpt>
<trkpt lat="31.698751667" lon="34.944180000">
<time>2013-04-01T08:41:53Z</time>
 <fix>none</fix>
 <sat>0</sat>
</trkpt>
<trkpt lat="31.698733333" lon="34.944085000">
<time>2013-04-01T08:41:55Z</time>
 <fix>none</fix>
 <sat>0</sat>
</trkpt>
<trkpt lat="31.698731667" lon="34.943975000">
<time>2013-04-01T08:41:57Z</time>
 <fix>none</fix>
 <sat>0</sat>
</trkpt>
<trkpt lat="31.698733333" lon="34.943918333">
<time>2013-04-01T08:41:59Z</time>
 <fix>none</fix>
 <sat>0</sat>
</trkpt>
<trkpt lat="31.698743333" lon="34.943810000">
<time>2013-04-01T08:42:01Z</time>
 <fix>none</fix>
 <sat>0</sat>
</trkpt>
<trkpt lat="31.698760000" lon="34.943696667">
<time>2013-04-01T08:42:03Z</time>
 <fix>none</fix>
 <sat>0</sat>
</trkpt>
<trkpt lat="31.698781667" lon="34.943523333">
<time>2013-04-01T08:42:05Z</time>
 <fix>none</fix>
 <sat>0</sat>
</trkpt>
<trkpt lat="31.698771667" lon="34.943413333">
<time>2013-04-01T08:42:07Z</time>
 <fix>none</fix>
 <sat>0</sat>
</trkpt>
<trkpt lat="31.698753333" lon="34.943310000">
<time>2013-04-01T08:42:09Z</time>
 <fix>none</fix>
 <sat>0</sat>
</trkpt>
<trkpt lat="31.698730000" lon="34.943215000">
<time>2013-04-01T08:42:11Z</time>
 <fix>none</fix>
 <sat>0</sat>
</trkpt>
<trkpt lat="31.698698333" lon="34.943135000">
<time>2013-04-01T08:42:13Z</time>
 <fix>none</fix>
 <sat>0</sat>
</trkpt>
<trkpt lat="31.698653333" lon="34.943081667">
<time>2013-04-01T08:42:15Z</time>
 <fix>none</fix>
 <sat>0</sat>
</trkpt>
<trkpt lat="31.698588333" lon="34.943055000">
<time>2013-04-01T08:42:17Z</time>
 <fix>none</fix>
 <sat>0</sat>
</trkpt>
<trkpt lat="31.698518333" lon="34.943040000">
<time>2013-04-01T08:42:19Z</time>
 <fix>none</fix>
 <sat>0</sat>
</trkpt>
<trkpt lat="31.698456667" lon="34.943025000">
<time>2013-04-01T08:42:21Z</time>
 <fix>none</fix>
 <sat>0</sat>
</trkpt>
<trkpt lat="31.698426667" lon="34.943015000">
<time>2013-04-01T08:42:23Z</time>
 <fix>none</fix>
 <sat>0</sat>
</trkpt>
<trkpt lat="31.698368333" lon="34.942991667">
<time>2013-04-01T08:42:25Z</time>
 <fix>none</fix>
 <sat>0</sat>
</trkpt>
<trkpt lat="31.698280000" lon="34.942958333">
<time>2013-04-01T08:42:27Z</time>
 <fix>none</fix>
 <sat>0</sat>
</trkpt>
<trkpt lat="31.698220000" lon="34.942936667">
<time>2013-04-01T08:42:29Z</time>
 <fix>none</fix>
 <sat>0</sat>
</trkpt>
<trkpt lat="31.698161667" lon="34.942921667">
<time>2013-04-01T08:42:31Z</time>
 <fix>none</fix>
 <sat>0</sat>
</trkpt>
<trkpt lat="31.698103333" lon="34.942915000">
<time>2013-04-01T08:42:33Z</time>
 <fix>none</fix>
 <sat>0</sat>
</trkpt>
<trkpt lat="31.698043333" lon="34.942913333">
<time>2013-04-01T08:42:35Z</time>
 <fix>none</fix>
 <sat>0</sat>
</trkpt>
<trkpt lat="31.697978333" lon="34.942908333">
<time>2013-04-01T08:42:37Z</time>
 <fix>none</fix>
 <sat>0</sat>
</trkpt>
<trkpt lat="31.697910000" lon="34.942901667">
<time>2013-04-01T08:42:39Z</time>
 <fix>none</fix>
 <sat>0</sat>
</trkpt>
<trkpt lat="31.697838333" lon="34.942890000">
<time>2013-04-01T08:42:41Z</time>
 <fix>none</fix>
 <sat>0</sat>
</trkpt>
<trkpt lat="31.697766667" lon="34.942880000">
<time>2013-04-01T08:42:43Z</time>
 <fix>none</fix>
 <sat>0</sat>
</trkpt>
<trkpt lat="31.697726667" lon="34.942876667">
<time>2013-04-01T08:42:45Z</time>
 <fix>none</fix>
 <sat>0</sat>
</trkpt>
<trkpt lat="31.697651667" lon="34.942858333">
<time>2013-04-01T08:42:47Z</time>
 <fix>none</fix>
 <sat>0</sat>
</trkpt>
<trkpt lat="31.697576667" lon="34.942838333">
<time>2013-04-01T08:42:49Z</time>
 <fix>none</fix>
 <sat>0</sat>
</trkpt>
<trkpt lat="31.697468333" lon="34.942806667">
<time>2013-04-01T08:42:51Z</time>
 <fix>none</fix>
 <sat>0</sat>
</trkpt>
<trkpt lat="31.697410000" lon="34.942785000">
<time>2013-04-01T08:42:53Z</time>
 <fix>none</fix>
 <sat>0</sat>
</trkpt>
<trkpt lat="31.697356667" lon="34.942773333">
<time>2013-04-01T08:42:55Z</time>
 <fix>none</fix>
 <sat>0</sat>
</trkpt>
<trkpt lat="31.697303333" lon="34.942761667">
<time>2013-04-01T08:42:57Z</time>
 <fix>none</fix>
 <sat>0</sat>
</trkpt>
<trkpt lat="31.697250000" lon="34.942746667">
<time>2013-04-01T08:42:59Z</time>
 <fix>none</fix>
 <sat>0</sat>
</trkpt>
<trkpt lat="31.697196667" lon="34.942728333">
<time>2013-04-01T08:43:01Z</time>
 <fix>none</fix>
 <sat>0</sat>
</trkpt>
<trkpt lat="31.697146667" lon="34.942715000">
<time>2013-04-01T08:43:03Z</time>
 <fix>none</fix>
 <sat>0</sat>
</trkpt>
<trkpt lat="31.697101667" lon="34.942721667">
<time>2013-04-01T08:43:05Z</time>
 <fix>none</fix>
 <sat>0</sat>
</trkpt>
<trkpt lat="31.697081667" lon="34.942730000">
<time>2013-04-01T08:43:07Z</time>
 <fix>none</fix>
 <sat>0</sat>
</trkpt>
<trkpt lat="31.697055000" lon="34.942756667">
<time>2013-04-01T08:43:09Z</time>
 <fix>none</fix>
 <sat>0</sat>
</trkpt>
<trkpt lat="31.697043333" lon="34.942788333">
<time>2013-04-01T08:43:11Z</time>
 <fix>none</fix>
 <sat>0</sat>
</trkpt>
<trkpt lat="31.697045000" lon="34.942813333">
<time>2013-04-01T08:43:13Z</time>
 <fix>none</fix>
 <sat>0</sat>
</trkpt>
<trkpt lat="31.697091667" lon="34.942851667">
<time>2013-04-01T08:43:15Z</time>
 <fix>none</fix>
 <sat>0</sat>
</trkpt>
<trkpt lat="31.697123333" lon="34.942875000">
<time>2013-04-01T08:43:17Z</time>
 <fix>none</fix>
 <sat>0</sat>
</trkpt>
<trkpt lat="31.697148333" lon="34.942900000">
<time>2013-04-01T08:43:19Z</time>
 <fix>none</fix>
 <sat>0</sat>
</trkpt>
<trkpt lat="31.697160000" lon="34.942926667">
<time>2013-04-01T08:43:21Z</time>
 <fix>none</fix>
 <sat>0</sat>
</trkpt>
<trkpt lat="31.697150000" lon="34.942950000">
<time>2013-04-01T08:43:23Z</time>
 <fix>none</fix>
 <sat>0</sat>
</trkpt>
<trkpt lat="31.697121667" lon="34.942963333">
<time>2013-04-01T08:43:25Z</time>
 <fix>none</fix>
 <sat>0</sat>
</trkpt>
<trkpt lat="31.697085000" lon="34.942963333">
<time>2013-04-01T08:43:27Z</time>
 <fix>none</fix>
 <sat>0</sat>
</trkpt>
<trkpt lat="31.697051667" lon="34.942961667">
<time>2013-04-01T08:43:29Z</time>
 <fix>none</fix>
 <sat>0</sat>
</trkpt>
<trkpt lat="31.697035000" lon="34.942956667">
<time>2013-04-01T08:43:31Z</time>
 <fix>none</fix>
 <sat>0</sat>
</trkpt>
<trkpt lat="31.697003333" lon="34.942948333">
<time>2013-04-01T08:43:33Z</time>
 <fix>none</fix>
 <sat>0</sat>
</trkpt>
<trkpt lat="31.696970000" lon="34.942943333">
<time>2013-04-01T08:43:35Z</time>
 <fix>none</fix>
 <sat>0</sat>
</trkpt>
<trkpt lat="31.696923333" lon="34.942936667">
<time>2013-04-01T08:43:37Z</time>
 <fix>none</fix>
 <sat>0</sat>
</trkpt>
<trkpt lat="31.696893333" lon="34.942935000">
<time>2013-04-01T08:43:39Z</time>
 <fix>none</fix>
 <sat>0</sat>
</trkpt>
<trkpt lat="31.696861667" lon="34.942935000">
<time>2013-04-01T08:43:41Z</time>
 <fix>none</fix>
 <sat>0</sat>
</trkpt>
<trkpt lat="31.696830000" lon="34.942940000">
<time>2013-04-01T08:43:43Z</time>
 <fix>none</fix>
 <sat>0</sat>
</trkpt>
<trkpt lat="31.696800000" lon="34.942950000">
<time>2013-04-01T08:43:45Z</time>
 <fix>none</fix>
 <sat>0</sat>
</trkpt>
<trkpt lat="31.696771667" lon="34.942955000">
<time>2013-04-01T08:43:47Z</time>
 <fix>none</fix>
 <sat>0</sat>
</trkpt>
<trkpt lat="31.696741667" lon="34.942965000">
<time>2013-04-01T08:43:49Z</time>
 <fix>none</fix>
 <sat>0</sat>
</trkpt>
<trkpt lat="31.696711667" lon="34.942975000">
<time>2013-04-01T08:43:51Z</time>
 <fix>none</fix>
 <sat>0</sat>
</trkpt>
<trkpt lat="31.696696667" lon="34.942980000">
<time>2013-04-01T08:43:53Z</time>
 <fix>none</fix>
 <sat>0</sat>
</trkpt>
<trkpt lat="31.696670000" lon="34.942991667">
<time>2013-04-01T08:43:55Z</time>
 <fix>none</fix>
 <sat>0</sat>
</trkpt>
<trkpt lat="31.696626667" lon="34.943013333">
<time>2013-04-01T08:43:57Z</time>
 <fix>none</fix>
 <sat>0</sat>
</trkpt>
<trkpt lat="31.696595000" lon="34.943026667">
<time>2013-04-01T08:43:59Z</time>
 <fix>none</fix>
 <sat>0</sat>
</trkpt>
<trkpt lat="31.696566667" lon="34.943040000">
<time>2013-04-01T08:44:01Z</time>
 <fix>none</fix>
 <sat>0</sat>
</trkpt>
<trkpt lat="31.696536667" lon="34.943055000">
<time>2013-04-01T08:44:03Z</time>
 <fix>none</fix>
 <sat>0</sat>
</trkpt>
<trkpt lat="31.696506667" lon="34.943066667">
<time>2013-04-01T08:44:05Z</time>
 <fix>none</fix>
 <sat>0</sat>
</trkpt>
<trkpt lat="31.696476667" lon="34.943080000">
<time>2013-04-01T08:44:07Z</time>
 <fix>none</fix>
 <sat>0</sat>
</trkpt>
<trkpt lat="31.696446667" lon="34.943090000">
<time>2013-04-01T08:44:09Z</time>
 <fix>none</fix>
 <sat>0</sat>
</trkpt>
<trkpt lat="31.696416667" lon="34.943098333">
<time>2013-04-01T08:44:11Z</time>
 <fix>none</fix>
 <sat>0</sat>
</trkpt>
<trkpt lat="31.696386667" lon="34.943110000">
<time>2013-04-01T08:44:13Z</time>
 <fix>none</fix>
 <sat>0</sat>
</trkpt>
<trkpt lat="31.696356667" lon="34.943123333">
<time>2013-04-01T08:44:15Z</time>
 <fix>none</fix>
 <sat>0</sat>
</trkpt>
<trkpt lat="31.696343333" lon="34.943133333">
<time>2013-04-01T08:44:17Z</time>
 <fix>none</fix>
 <sat>0</sat>
</trkpt>
<trkpt lat="31.696305000" lon="34.943166667">
<time>2013-04-01T08:44:19Z</time>
 <fix>none</fix>
 <sat>0</sat>
</trkpt>
<trkpt lat="31.696280000" lon="34.943186667">
<time>2013-04-01T08:44:21Z</time>
 <fix>none</fix>
 <sat>0</sat>
</trkpt>
<trkpt lat="31.696253333" lon="34.943205000">
<time>2013-04-01T08:44:23Z</time>
 <fix>none</fix>
 <sat>0</sat>
</trkpt>
<trkpt lat="31.696218333" lon="34.943218333">
<time>2013-04-01T08:44:25Z</time>
 <fix>none</fix>
 <sat>0</sat>
</trkpt>
<trkpt lat="31.696180000" lon="34.943230000">
<time>2013-04-01T08:44:27Z</time>
 <fix>none</fix>
 <sat>0</sat>
</trkpt>
<trkpt lat="31.696141667" lon="34.943240000">
<time>2013-04-01T08:44:29Z</time>
 <fix>none</fix>
 <sat>0</sat>
</trkpt>
<trkpt lat="31.696091667" lon="34.943246667">
<time>2013-04-01T08:44:31Z</time>
 <fix>none</fix>
 <sat>0</sat>
</trkpt>
<trkpt lat="31.696038333" lon="34.943256667">
<time>2013-04-01T08:44:33Z</time>
 <fix>none</fix>
 <sat>0</sat>
</trkpt>
<trkpt lat="31.695988333" lon="34.943268333">
<time>2013-04-01T08:44:35Z</time>
 <fix>none</fix>
 <sat>0</sat>
</trkpt>
<trkpt lat="31.695936667" lon="34.943281667">
<time>2013-04-01T08:44:37Z</time>
 <fix>none</fix>
 <sat>0</sat>
</trkpt>
<trkpt lat="31.695906667" lon="34.943290000">
<time>2013-04-01T08:44:39Z</time>
 <fix>none</fix>
 <sat>0</sat>
</trkpt>
<trkpt lat="31.695843333" lon="34.943310000">
<time>2013-04-01T08:44:41Z</time>
 <fix>none</fix>
 <sat>0</sat>
</trkpt>
<trkpt lat="31.695785000" lon="34.943333333">
<time>2013-04-01T08:44:43Z</time>
 <fix>none</fix>
 <sat>0</sat>
</trkpt>
<trkpt lat="31.695721667" lon="34.943355000">
<time>2013-04-01T08:44:45Z</time>
 <fix>none</fix>
 <sat>0</sat>
</trkpt>
<trkpt lat="31.695681667" lon="34.943366667">
<time>2013-04-01T08:44:47Z</time>
 <fix>none</fix>
 <sat>0</sat>
</trkpt>
<trkpt lat="31.695640000" lon="34.943381667">
<time>2013-04-01T08:44:49Z</time>
 <fix>none</fix>
 <sat>0</sat>
</trkpt>
<trkpt lat="31.695596667" lon="34.943398333">
<time>2013-04-01T08:44:51Z</time>
 <fix>none</fix>
 <sat>0</sat>
</trkpt>
<trkpt lat="31.695576667" lon="34.943410000">
<time>2013-04-01T08:44:53Z</time>
 <fix>none</fix>
 <sat>0</sat>
</trkpt>
<trkpt lat="31.695523333" lon="34.943440000">
<time>2013-04-01T08:44:55Z</time>
 <fix>none</fix>
 <sat>0</sat>
</trkpt>
<trkpt lat="31.695486667" lon="34.943455000">
<time>2013-04-01T08:44:57Z</time>
 <fix>none</fix>
 <sat>0</sat>
</trkpt>
<trkpt lat="31.695451667" lon="34.943471667">
<time>2013-04-01T08:44:59Z</time>
 <fix>none</fix>
 <sat>0</sat>
</trkpt>
<trkpt lat="31.695435000" lon="34.943480000">
<time>2013-04-01T08:45:01Z</time>
 <fix>none</fix>
 <sat>0</sat>
</trkpt>
<trkpt lat="31.695405000" lon="34.943491667">
<time>2013-04-01T08:45:03Z</time>
 <fix>none</fix>
 <sat>0</sat>
</trkpt>
<trkpt lat="31.695375000" lon="34.943503333">
<time>2013-04-01T08:45:05Z</time>
 <fix>none</fix>
 <sat>0</sat>
</trkpt>
<trkpt lat="31.695326667" lon="34.943523333">
<time>2013-04-01T08:45:07Z</time>
 <fix>none</fix>
 <sat>0</sat>
</trkpt>
<trkpt lat="31.695285000" lon="34.943543333">
<time>2013-04-01T08:45:09Z</time>
 <fix>none</fix>
 <sat>0</sat>
</trkpt>
<trkpt lat="31.695221667" lon="34.943575000">
<time>2013-04-01T08:45:11Z</time>
 <fix>none</fix>
 <sat>0</sat>
</trkpt>
<trkpt lat="31.695148333" lon="34.943616667">
<time>2013-04-01T08:45:13Z</time>
 <fix>none</fix>
 <sat>0</sat>
</trkpt>
<trkpt lat="31.695078333" lon="34.943670000">
<time>2013-04-01T08:45:15Z</time>
 <fix>none</fix>
 <sat>0</sat>
</trkpt>
<trkpt lat="31.695005000" lon="34.943741667">
<time>2013-04-01T08:45:17Z</time>
 <fix>none</fix>
 <sat>0</sat>
</trkpt>
<trkpt lat="31.694911667" lon="34.943825000">
<time>2013-04-01T08:45:19Z</time>
 <fix>none</fix>
 <sat>0</sat>
</trkpt>
<trkpt lat="31.694798333" lon="34.943886667">
<time>2013-04-01T08:45:21Z</time>
 <fix>none</fix>
 <sat>0</sat>
</trkpt>
<trkpt lat="31.694683333" lon="34.943913333">
<time>2013-04-01T08:45:23Z</time>
 <fix>none</fix>
 <sat>0</sat>
</trkpt>
<trkpt lat="31.694631667" lon="34.943915000">
<time>2013-04-01T08:45:25Z</time>
 <fix>none</fix>
 <sat>0</sat>
</trkpt>
<trkpt lat="31.694555000" lon="34.943918333">
<time>2013-04-01T08:45:27Z</time>
 <fix>none</fix>
 <sat>0</sat>
</trkpt>
<trkpt lat="31.694511667" lon="34.943915000">
<time>2013-04-01T08:45:29Z</time>
 <fix>none</fix>
 <sat>0</sat>
</trkpt>
<trkpt lat="31.694508333" lon="34.943910000">
<time>2013-04-01T08:45:31Z</time>
 <fix>none</fix>
 <sat>0</sat>
</trkpt>
<trkpt lat="31.694505000" lon="34.943903333">
<time>2013-04-01T08:45:33Z</time>
 <fix>none</fix>
 <sat>0</sat>
</trkpt>
<trkpt lat="31.694495000" lon="34.943900000">
<time>2013-04-01T08:45:35Z</time>
 <fix>none</fix>
 <sat>0</sat>
</trkpt>
<trkpt lat="31.694481667" lon="34.943896667">
<time>2013-04-01T08:45:37Z</time>
 <fix>none</fix>
 <sat>0</sat>
</trkpt>
<trkpt lat="31.694466667" lon="34.943895000">
<time>2013-04-01T08:45:39Z</time>
 <fix>none</fix>
 <sat>0</sat>
</trkpt>
<trkpt lat="31.694455000" lon="34.943898333">
<time>2013-04-01T08:45:41Z</time>
 <fix>none</fix>
 <sat>0</sat>
</trkpt>
<trkpt lat="31.694438333" lon="34.943900000">
<time>2013-04-01T08:45:43Z</time>
 <fix>none</fix>
 <sat>0</sat>
</trkpt>
<trkpt lat="31.694425000" lon="34.943900000">
<time>2013-04-01T08:45:45Z</time>
 <fix>none</fix>
 <sat>0</sat>
</trkpt>
<trkpt lat="31.694416667" lon="34.943900000">
<time>2013-04-01T08:45:47Z</time>
 <fix>none</fix>
 <sat>0</sat>
</trkpt>
<trkpt lat="31.694406667" lon="34.943898333">
<time>2013-04-01T08:45:49Z</time>
 <fix>none</fix>
 <sat>0</sat>
</trkpt>
<trkpt lat="31.694395000" lon="34.943898333">
<time>2013-04-01T08:45:51Z</time>
 <fix>none</fix>
 <sat>0</sat>
</trkpt>
<trkpt lat="31.694380000" lon="34.943895000">
<time>2013-04-01T08:45:53Z</time>
 <fix>none</fix>
 <sat>0</sat>
</trkpt>
<trkpt lat="31.694368333" lon="34.943893333">
<time>2013-04-01T08:45:55Z</time>
 <fix>none</fix>
 <sat>0</sat>
</trkpt>
<trkpt lat="31.694353333" lon="34.943891667">
<time>2013-04-01T08:45:57Z</time>
 <fix>none</fix>
 <sat>0</sat>
</trkpt>
<trkpt lat="31.694338333" lon="34.943890000">
<time>2013-04-01T08:45:59Z</time>
 <fix>none</fix>
 <sat>0</sat>
</trkpt>
<trkpt lat="31.694325000" lon="34.943888333">
<time>2013-04-01T08:46:01Z</time>
 <fix>none</fix>
 <sat>0</sat>
</trkpt>
<trkpt lat="31.694310000" lon="34.943890000">
<time>2013-04-01T08:46:03Z</time>
 <fix>none</fix>
 <sat>0</sat>
</trkpt>
<trkpt lat="31.694293333" lon="34.943885000">
<time>2013-04-01T08:46:05Z</time>
 <fix>none</fix>
 <sat>0</sat>
</trkpt>
<trkpt lat="31.694276667" lon="34.943881667">
<time>2013-04-01T08:46:07Z</time>
 <fix>none</fix>
 <sat>0</sat>
</trkpt>
<trkpt lat="31.694261667" lon="34.943881667">
<time>2013-04-01T08:46:09Z</time>
 <fix>none</fix>
 <sat>0</sat>
</trkpt>
<trkpt lat="31.694253333" lon="34.943881667">
<time>2013-04-01T08:46:11Z</time>
 <fix>none</fix>
 <sat>0</sat>
</trkpt>
<trkpt lat="31.694240000" lon="34.943883333">
<time>2013-04-01T08:46:13Z</time>
 <fix>none</fix>
 <sat>0</sat>
</trkpt>
<trkpt lat="31.694218333" lon="34.943883333">
<time>2013-04-01T08:46:15Z</time>
 <fix>none</fix>
 <sat>0</sat>
</trkpt>
<trkpt lat="31.694203333" lon="34.943881667">
<time>2013-04-01T08:46:17Z</time>
 <fix>none</fix>
 <sat>0</sat>
</trkpt>
<trkpt lat="31.694185000" lon="34.943878333">
<time>2013-04-01T08:46:19Z</time>
 <fix>none</fix>
 <sat>0</sat>
</trkpt>
<trkpt lat="31.694166667" lon="34.943878333">
<time>2013-04-01T08:46:21Z</time>
 <fix>none</fix>
 <sat>0</sat>
</trkpt>
<trkpt lat="31.694148333" lon="34.943880000">
<time>2013-04-01T08:46:23Z</time>
 <fix>none</fix>
 <sat>0</sat>
</trkpt>
<trkpt lat="31.694131667" lon="34.943883333">
<time>2013-04-01T08:46:25Z</time>
 <fix>none</fix>
 <sat>0</sat>
</trkpt>
<trkpt lat="31.694113333" lon="34.943881667">
<time>2013-04-01T08:46:27Z</time>
 <fix>none</fix>
 <sat>0</sat>
</trkpt>
<trkpt lat="31.694100000" lon="34.943876667">
<time>2013-04-01T08:46:29Z</time>
 <fix>none</fix>
 <sat>0</sat>
</trkpt>
<trkpt lat="31.694085000" lon="34.943871667">
<time>2013-04-01T08:46:31Z</time>
 <fix>none</fix>
 <sat>0</sat>
</trkpt>
<trkpt lat="31.694075000" lon="34.943870000">
<time>2013-04-01T08:46:33Z</time>
 <fix>none</fix>
 <sat>0</sat>
</trkpt>
<trkpt lat="31.694058333" lon="34.943868333">
<time>2013-04-01T08:46:35Z</time>
 <fix>none</fix>
 <sat>0</sat>
</trkpt>
<trkpt lat="31.694051667" lon="34.943866667">
<time>2013-04-01T08:46:37Z</time>
 <fix>none</fix>
 <sat>0</sat>
</trkpt>
<trkpt lat="31.694053333" lon="34.943868333">
<time>2013-04-01T08:46:39Z</time>
 <fix>none</fix>
 <sat>0</sat>
</trkpt>
<trkpt lat="31.694050000" lon="34.943863333">
<time>2013-04-01T08:46:41Z</time>
 <fix>none</fix>
 <sat>0</sat>
</trkpt>
<trkpt lat="31.694048333" lon="34.943861667">
<time>2013-04-01T08:46:43Z</time>
 <fix>none</fix>
 <sat>0</sat>
</trkpt>
<trkpt lat="31.694048333" lon="34.943861667">
<time>2013-04-01T08:46:45Z</time>
 <fix>none</fix>
 <sat>0</sat>
</trkpt>
<trkpt lat="31.694048333" lon="34.943861667">
<time>2013-04-01T08:46:47Z</time>
 <fix>none</fix>
 <sat>0</sat>
</trkpt>
<trkpt lat="31.694048333" lon="34.943861667">
<time>2013-04-01T08:46:49Z</time>
 <fix>none</fix>
 <sat>0</sat>
</trkpt>
<trkpt lat="31.694045000" lon="34.943855000">
<time>2013-04-01T08:46:51Z</time>
 <fix>none</fix>
 <sat>0</sat>
</trkpt>
<trkpt lat="31.694043333" lon="34.943853333">
<time>2013-04-01T08:46:53Z</time>
 <fix>none</fix>
 <sat>0</sat>
</trkpt>
<trkpt lat="31.694041667" lon="34.943853333">
<time>2013-04-01T08:46:55Z</time>
 <fix>none</fix>
 <sat>0</sat>
</trkpt>
<trkpt lat="31.694035000" lon="34.943850000">
<time>2013-04-01T08:46:57Z</time>
 <fix>none</fix>
 <sat>0</sat>
</trkpt>
<trkpt lat="31.694025000" lon="34.943846667">
<time>2013-04-01T08:46:59Z</time>
 <fix>none</fix>
 <sat>0</sat>
</trkpt>
<trkpt lat="31.694016667" lon="34.943841667">
<time>2013-04-01T08:47:01Z</time>
 <fix>none</fix>
 <sat>0</sat>
</trkpt>
<trkpt lat="31.693993333" lon="34.943840000">
<time>2013-04-01T08:47:03Z</time>
 <fix>none</fix>
 <sat>0</sat>
</trkpt>
<trkpt lat="31.693960000" lon="34.943835000">
<time>2013-04-01T08:47:05Z</time>
 <fix>none</fix>
 <sat>0</sat>
</trkpt>
<trkpt lat="31.693923333" lon="34.943825000">
<time>2013-04-01T08:47:07Z</time>
 <fix>none</fix>
 <sat>0</sat>
</trkpt>
<trkpt lat="31.693880000" lon="34.943811667">
<time>2013-04-01T08:47:09Z</time>
 <fix>none</fix>
 <sat>0</sat>
</trkpt>
<trkpt lat="31.693835000" lon="34.943796667">
<time>2013-04-01T08:47:11Z</time>
 <fix>none</fix>
 <sat>0</sat>
</trkpt>
<trkpt lat="31.693791667" lon="34.943783333">
<time>2013-04-01T08:47:13Z</time>
 <fix>none</fix>
 <sat>0</sat>
</trkpt>
<trkpt lat="31.693750000" lon="34.943776667">
<time>2013-04-01T08:47:15Z</time>
 <fix>none</fix>
 <sat>0</sat>
</trkpt>
<trkpt lat="31.693706667" lon="34.943773333">
<time>2013-04-01T08:47:17Z</time>
 <fix>none</fix>
 <sat>0</sat>
</trkpt>
<trkpt lat="31.693686667" lon="34.943775000">
<time>2013-04-01T08:47:19Z</time>
 <fix>none</fix>
 <sat>0</sat>
</trkpt>
<trkpt lat="31.693648333" lon="34.943781667">
<time>2013-04-01T08:47:21Z</time>
 <fix>none</fix>
 <sat>0</sat>
</trkpt>
<trkpt lat="31.693591667" lon="34.943795000">
<time>2013-04-01T08:47:23Z</time>
 <fix>none</fix>
 <sat>0</sat>
</trkpt>
<trkpt lat="31.693553333" lon="34.943805000">
<time>2013-04-01T08:47:25Z</time>
 <fix>none</fix>
 <sat>0</sat>
</trkpt>
<trkpt lat="31.693513333" lon="34.943815000">
<time>2013-04-01T08:47:27Z</time>
 <fix>none</fix>
 <sat>0</sat>
</trkpt>
<trkpt lat="31.693471667" lon="34.943821667">
<time>2013-04-01T08:47:29Z</time>
 <fix>none</fix>
 <sat>0</sat>
</trkpt>
<trkpt lat="31.693430000" lon="34.943823333">
<time>2013-04-01T08:47:31Z</time>
 <fix>none</fix>
 <sat>0</sat>
</trkpt>
<trkpt lat="31.693390000" lon="34.943818333">
<time>2013-04-01T08:47:33Z</time>
 <fix>none</fix>
 <sat>0</sat>
</trkpt>
<trkpt lat="31.693338333" lon="34.943795000">
<time>2013-04-01T08:47:35Z</time>
 <fix>none</fix>
 <sat>0</sat>
</trkpt>
<trkpt lat="31.693290000" lon="34.943781667">
<time>2013-04-01T08:47:37Z</time>
 <fix>none</fix>
 <sat>0</sat>
</trkpt>
<trkpt lat="31.693271667" lon="34.943765000">
<time>2013-04-01T08:47:39Z</time>
 <fix>none</fix>
 <sat>0</sat>
</trkpt>
<trkpt lat="31.693268333" lon="34.943758333">
<time>2013-04-01T08:47:41Z</time>
 <fix>none</fix>
 <sat>0</sat>
</trkpt>
<trkpt lat="31.693261667" lon="34.943753333">
<time>2013-04-01T08:47:43Z</time>
 <fix>none</fix>
 <sat>0</sat>
</trkpt>
<trkpt lat="31.693255000" lon="34.943746667">
<time>2013-04-01T08:47:45Z</time>
 <fix>none</fix>
 <sat>0</sat>
</trkpt>
<trkpt lat="31.693233333" lon="34.943740000">
<time>2013-04-01T08:47:47Z</time>
 <fix>none</fix>
 <sat>0</sat>
</trkpt>
<trkpt lat="31.693205000" lon="34.943736667">
<time>2013-04-01T08:47:49Z</time>
 <fix>none</fix>
 <sat>0</sat>
</trkpt>
<trkpt lat="31.693173333" lon="34.943726667">
<time>2013-04-01T08:47:51Z</time>
 <fix>none</fix>
 <sat>0</sat>
</trkpt>
<trkpt lat="31.693131667" lon="34.943721667">
<time>2013-04-01T08:47:53Z</time>
 <fix>none</fix>
 <sat>0</sat>
</trkpt>
<trkpt lat="31.693081667" lon="34.943716667">
<time>2013-04-01T08:47:55Z</time>
 <fix>none</fix>
 <sat>0</sat>
</trkpt>
<trkpt lat="31.693028333" lon="34.943716667">
<time>2013-04-01T08:47:57Z</time>
 <fix>none</fix>
 <sat>0</sat>
</trkpt>
<trkpt lat="31.692981667" lon="34.943716667">
<time>2013-04-01T08:47:59Z</time>
 <fix>none</fix>
 <sat>0</sat>
</trkpt>
<trkpt lat="31.692963333" lon="34.943718333">
<time>2013-04-01T08:48:01Z</time>
 <fix>none</fix>
 <sat>0</sat>
</trkpt>
<trkpt lat="31.692961667" lon="34.943716667">
<time>2013-04-01T08:48:03Z</time>
 <fix>none</fix>
 <sat>0</sat>
</trkpt>
<trkpt lat="31.692960000" lon="34.943715000">
<time>2013-04-01T08:48:05Z</time>
 <fix>none</fix>
 <sat>0</sat>
</trkpt>
<trkpt lat="31.692955000" lon="34.943713333">
<time>2013-04-01T08:48:07Z</time>
 <fix>none</fix>
 <sat>0</sat>
</trkpt>
<trkpt lat="31.692941667" lon="34.943711667">
<time>2013-04-01T08:48:09Z</time>
 <fix>none</fix>
 <sat>0</sat>
</trkpt>
<trkpt lat="31.692921667" lon="34.943710000">
<time>2013-04-01T08:48:11Z</time>
 <fix>none</fix>
 <sat>0</sat>
</trkpt>
<trkpt lat="31.692905000" lon="34.943705000">
<time>2013-04-01T08:48:13Z</time>
 <fix>none</fix>
 <sat>0</sat>
</trkpt>
<trkpt lat="31.692896667" lon="34.943700000">
<time>2013-04-01T08:48:15Z</time>
 <fix>none</fix>
 <sat>0</sat>
</trkpt>
<trkpt lat="31.692896667" lon="34.943700000">
<time>2013-04-01T08:48:17Z</time>
 <fix>none</fix>
 <sat>0</sat>
</trkpt>
<trkpt lat="31.692901667" lon="34.943701667">
<time>2013-04-01T08:48:19Z</time>
 <fix>none</fix>
 <sat>0</sat>
</trkpt>
<trkpt lat="31.692901667" lon="34.943700000">
<time>2013-04-01T08:48:21Z</time>
 <fix>none</fix>
 <sat>0</sat>
</trkpt>
<trkpt lat="31.692898333" lon="34.943700000">
<time>2013-04-01T08:48:23Z</time>
 <fix>none</fix>
 <sat>0</sat>
</trkpt>
<trkpt lat="31.692883333" lon="34.943696667">
<time>2013-04-01T08:48:25Z</time>
 <fix>none</fix>
 <sat>0</sat>
</trkpt>
<trkpt lat="31.692876667" lon="34.943693333">
<time>2013-04-01T08:48:27Z</time>
 <fix>none</fix>
 <sat>0</sat>
</trkpt>
<trkpt lat="31.692861667" lon="34.943686667">
<time>2013-04-01T08:48:29Z</time>
 <fix>none</fix>
 <sat>0</sat>
</trkpt>
<trkpt lat="31.692843333" lon="34.943675000">
<time>2013-04-01T08:48:31Z</time>
 <fix>none</fix>
 <sat>0</sat>
</trkpt>
<trkpt lat="31.692818333" lon="34.943665000">
<time>2013-04-01T08:48:33Z</time>
 <fix>none</fix>
 <sat>0</sat>
</trkpt>
<trkpt lat="31.692803333" lon="34.943660000">
<time>2013-04-01T08:48:35Z</time>
 <fix>none</fix>
 <sat>0</sat>
</trkpt>
<trkpt lat="31.692786667" lon="34.943656667">
<time>2013-04-01T08:48:37Z</time>
 <fix>none</fix>
 <sat>0</sat>
</trkpt>
<trkpt lat="31.692770000" lon="34.943651667">
<time>2013-04-01T08:48:39Z</time>
 <fix>none</fix>
 <sat>0</sat>
</trkpt>
<trkpt lat="31.692750000" lon="34.943650000">
<time>2013-04-01T08:48:41Z</time>
 <fix>none</fix>
 <sat>0</sat>
</trkpt>
<trkpt lat="31.692733333" lon="34.943645000">
<time>2013-04-01T08:48:43Z</time>
 <fix>none</fix>
 <sat>0</sat>
</trkpt>
<trkpt lat="31.692715000" lon="34.943643333">
<time>2013-04-01T08:48:45Z</time>
 <fix>none</fix>
 <sat>0</sat>
</trkpt>
<trkpt lat="31.692698333" lon="34.943643333">
<time>2013-04-01T08:48:47Z</time>
 <fix>none</fix>
 <sat>0</sat>
</trkpt>
<trkpt lat="31.692690000" lon="34.943645000">
<time>2013-04-01T08:48:49Z</time>
 <fix>none</fix>
 <sat>0</sat>
</trkpt>
<trkpt lat="31.692671667" lon="34.943646667">
<time>2013-04-01T08:48:51Z</time>
 <fix>none</fix>
 <sat>0</sat>
</trkpt>
<trkpt lat="31.692658333" lon="34.943650000">
<time>2013-04-01T08:48:53Z</time>
 <fix>none</fix>
 <sat>0</sat>
</trkpt>
<trkpt lat="31.692641667" lon="34.943651667">
<time>2013-04-01T08:48:55Z</time>
 <fix>none</fix>
 <sat>0</sat>
</trkpt>
<trkpt lat="31.692631667" lon="34.943660000">
<time>2013-04-01T08:48:57Z</time>
 <fix>none</fix>
 <sat>0</sat>
</trkpt>
<trkpt lat="31.692615000" lon="34.943666667">
<time>2013-04-01T08:48:59Z</time>
 <fix>none</fix>
 <sat>0</sat>
</trkpt>
<trkpt lat="31.692606667" lon="34.943661667">
<time>2013-04-01T08:49:01Z</time>
 <fix>none</fix>
 <sat>0</sat>
</trkpt>
<trkpt lat="31.692600000" lon="34.943656667">
<time>2013-04-01T08:49:03Z</time>
 <fix>none</fix>
 <sat>0</sat>
</trkpt>
<trkpt lat="31.692585000" lon="34.943655000">
<time>2013-04-01T08:49:05Z</time>
 <fix>none</fix>
 <sat>0</sat>
</trkpt>
<trkpt lat="31.692568333" lon="34.943658333">
<time>2013-04-01T08:49:07Z</time>
 <fix>none</fix>
 <sat>0</sat>
</trkpt>
<trkpt lat="31.692553333" lon="34.943660000">
<time>2013-04-01T08:49:09Z</time>
 <fix>none</fix>
 <sat>0</sat>
</trkpt>
<trkpt lat="31.692543333" lon="34.943665000">
<time>2013-04-01T08:49:11Z</time>
 <fix>none</fix>
 <sat>0</sat>
</trkpt>
<trkpt lat="31.692538333" lon="34.943668333">
<time>2013-04-01T08:49:13Z</time>
 <fix>none</fix>
 <sat>0</sat>
</trkpt>
<trkpt lat="31.692530000" lon="34.943670000">
<time>2013-04-01T08:49:15Z</time>
 <fix>none</fix>
 <sat>0</sat>
</trkpt>
<trkpt lat="31.692520000" lon="34.943678333">
<time>2013-04-01T08:49:17Z</time>
 <fix>none</fix>
 <sat>0</sat>
</trkpt>
<trkpt lat="31.692515000" lon="34.943680000">
<time>2013-04-01T08:49:19Z</time>
 <fix>none</fix>
 <sat>0</sat>
</trkpt>
<trkpt lat="31.692496667" lon="34.943681667">
<time>2013-04-01T08:49:21Z</time>
 <fix>none</fix>
 <sat>0</sat>
</trkpt>
<trkpt lat="31.692485000" lon="34.943683333">
<time>2013-04-01T08:49:23Z</time>
 <fix>none</fix>
 <sat>0</sat>
</trkpt>
<trkpt lat="31.692471667" lon="34.943688333">
<time>2013-04-01T08:49:25Z</time>
 <fix>none</fix>
 <sat>0</sat>
</trkpt>
<trkpt lat="31.692461667" lon="34.943695000">
<time>2013-04-01T08:49:27Z</time>
 <fix>none</fix>
 <sat>0</sat>
</trkpt>
<trkpt lat="31.692451667" lon="34.943701667">
<time>2013-04-01T08:49:29Z</time>
 <fix>none</fix>
 <sat>0</sat>
</trkpt>
<trkpt lat="31.692438333" lon="34.943708333">
<time>2013-04-01T08:49:31Z</time>
 <fix>none</fix>
 <sat>0</sat>
</trkpt>
<trkpt lat="31.692428333" lon="34.943715000">
<time>2013-04-01T08:49:33Z</time>
 <fix>none</fix>
 <sat>0</sat>
</trkpt>
<trkpt lat="31.692423333" lon="34.943720000">
<time>2013-04-01T08:49:35Z</time>
 <fix>none</fix>
 <sat>0</sat>
</trkpt>
<trkpt lat="31.692416667" lon="34.943730000">
<time>2013-04-01T08:49:37Z</time>
 <fix>none</fix>
 <sat>0</sat>
</trkpt>
<trkpt lat="31.692408333" lon="34.943735000">
<time>2013-04-01T08:49:39Z</time>
 <fix>none</fix>
 <sat>0</sat>
</trkpt>
<trkpt lat="31.692395000" lon="34.943740000">
<time>2013-04-01T08:49:41Z</time>
 <fix>none</fix>
 <sat>0</sat>
</trkpt>
<trkpt lat="31.692370000" lon="34.943756667">
<time>2013-04-01T08:49:43Z</time>
 <fix>none</fix>
 <sat>0</sat>
</trkpt>
<trkpt lat="31.692351667" lon="34.943768333">
<time>2013-04-01T08:49:45Z</time>
 <fix>none</fix>
 <sat>0</sat>
</trkpt>
<trkpt lat="31.692335000" lon="34.943776667">
<time>2013-04-01T08:49:47Z</time>
 <fix>none</fix>
 <sat>0</sat>
</trkpt>
<trkpt lat="31.692316667" lon="34.943783333">
<time>2013-04-01T08:49:49Z</time>
 <fix>none</fix>
 <sat>0</sat>
</trkpt>
<trkpt lat="31.692300000" lon="34.943790000">
<time>2013-04-01T08:49:51Z</time>
 <fix>none</fix>
 <sat>0</sat>
</trkpt>
<trkpt lat="31.692288333" lon="34.943795000">
<time>2013-04-01T08:49:53Z</time>
 <fix>none</fix>
 <sat>0</sat>
</trkpt>
<trkpt lat="31.692290000" lon="34.943800000">
<time>2013-04-01T08:49:55Z</time>
 <fix>none</fix>
 <sat>0</sat>
</trkpt>
<trkpt lat="31.692291667" lon="34.943801667">
<time>2013-04-01T08:49:57Z</time>
 <fix>none</fix>
 <sat>0</sat>
</trkpt>
<trkpt lat="31.692291667" lon="34.943801667">
<time>2013-04-01T08:49:59Z</time>
 <fix>none</fix>
 <sat>0</sat>
</trkpt>
<trkpt lat="31.692293333" lon="34.943801667">
<time>2013-04-01T08:50:01Z</time>
 <fix>none</fix>
 <sat>0</sat>
</trkpt>
<trkpt lat="31.692288333" lon="34.943801667">
<time>2013-04-01T08:50:03Z</time>
 <fix>none</fix>
 <sat>0</sat>
</trkpt>
<trkpt lat="31.692280000" lon="34.943796667">
<time>2013-04-01T08:50:05Z</time>
 <fix>none</fix>
 <sat>0</sat>
</trkpt>
<trkpt lat="31.692246667" lon="34.943805000">
<time>2013-04-01T08:50:07Z</time>
 <fix>none</fix>
 <sat>0</sat>
</trkpt>
<trkpt lat="31.692175000" lon="34.943813333">
<time>2013-04-01T08:50:09Z</time>
 <fix>none</fix>
 <sat>0</sat>
</trkpt>
<trkpt lat="31.692075000" lon="34.943835000">
<time>2013-04-01T08:50:11Z</time>
 <fix>none</fix>
 <sat>0</sat>
</trkpt>
<trkpt lat="31.691981667" lon="34.943876667">
<time>2013-04-01T08:50:13Z</time>
 <fix>none</fix>
 <sat>0</sat>
</trkpt>
<trkpt lat="31.691896667" lon="34.943920000">
<time>2013-04-01T08:50:15Z</time>
 <fix>none</fix>
 <sat>0</sat>
</trkpt>
<trkpt lat="31.691826667" lon="34.943965000">
<time>2013-04-01T08:50:17Z</time>
 <fix>none</fix>
 <sat>0</sat>
</trkpt>
<trkpt lat="31.691768333" lon="34.944005000">
<time>2013-04-01T08:50:19Z</time>
 <fix>none</fix>
 <sat>0</sat>
</trkpt>
<trkpt lat="31.691746667" lon="34.944018333">
<time>2013-04-01T08:50:21Z</time>
 <fix>none</fix>
 <sat>0</sat>
</trkpt>
<trkpt lat="31.691713333" lon="34.944040000">
<time>2013-04-01T08:50:23Z</time>
 <fix>none</fix>
 <sat>0</sat>
</trkpt>
<trkpt lat="31.691703333" lon="34.944050000">
<time>2013-04-01T08:50:25Z</time>
 <fix>none</fix>
 <sat>0</sat>
</trkpt>
<trkpt lat="31.691705000" lon="34.944050000">
<time>2013-04-01T08:50:27Z</time>
 <fix>none</fix>
 <sat>0</sat>
</trkpt>
<trkpt lat="31.691708333" lon="34.944045000">
<time>2013-04-01T08:50:29Z</time>
 <fix>none</fix>
 <sat>0</sat>
</trkpt>
<trkpt lat="31.691708333" lon="34.944045000">
<time>2013-04-01T08:50:31Z</time>
 <fix>none</fix>
 <sat>0</sat>
</trkpt>
<trkpt lat="31.691711667" lon="34.944046667">
<time>2013-04-01T08:50:33Z</time>
 <fix>none</fix>
 <sat>0</sat>
</trkpt>
<trkpt lat="31.691710000" lon="34.944043333">
<time>2013-04-01T08:50:35Z</time>
 <fix>none</fix>
 <sat>0</sat>
</trkpt>
<trkpt lat="31.691708333" lon="34.944045000">
<time>2013-04-01T08:50:37Z</time>
 <fix>none</fix>
 <sat>0</sat>
</trkpt>
<trkpt lat="31.691708333" lon="34.944043333">
<time>2013-04-01T08:50:39Z</time>
 <fix>none</fix>
 <sat>0</sat>
</trkpt>
<trkpt lat="31.691708333" lon="34.944041667">
<time>2013-04-01T08:50:41Z</time>
 <fix>none</fix>
 <sat>0</sat>
</trkpt>
<trkpt lat="31.691708333" lon="34.944041667">
<time>2013-04-01T08:50:43Z</time>
 <fix>none</fix>
 <sat>0</sat>
</trkpt>
<trkpt lat="31.691708333" lon="34.944041667">
<time>2013-04-01T08:50:45Z</time>
 <fix>none</fix>
 <sat>0</sat>
</trkpt>
<trkpt lat="31.691708333" lon="34.944040000">
<time>2013-04-01T08:50:47Z</time>
 <fix>none</fix>
 <sat>0</sat>
</trkpt>
<trkpt lat="31.691706667" lon="34.944038333">
<time>2013-04-01T08:50:49Z</time>
 <fix>none</fix>
 <sat>0</sat>
</trkpt>
<trkpt lat="31.691696667" lon="34.944050000">
<time>2013-04-01T08:50:51Z</time>
 <fix>none</fix>
 <sat>0</sat>
</trkpt>
<trkpt lat="31.691685000" lon="34.944063333">
<time>2013-04-01T08:50:53Z</time>
 <fix>none</fix>
 <sat>0</sat>
</trkpt>
<trkpt lat="31.691661667" lon="34.944081667">
<time>2013-04-01T08:50:55Z</time>
 <fix>none</fix>
 <sat>0</sat>
</trkpt>
<trkpt lat="31.691628333" lon="34.944110000">
<time>2013-04-01T08:50:57Z</time>
 <fix>none</fix>
 <sat>0</sat>
</trkpt>
<trkpt lat="31.691588333" lon="34.944145000">
<time>2013-04-01T08:50:59Z</time>
 <fix>none</fix>
 <sat>0</sat>
</trkpt>
<trkpt lat="31.691543333" lon="34.944181667">
<time>2013-04-01T08:51:01Z</time>
 <fix>none</fix>
 <sat>0</sat>
</trkpt>
<trkpt lat="31.691491667" lon="34.944221667">
<time>2013-04-01T08:51:03Z</time>
 <fix>none</fix>
 <sat>0</sat>
</trkpt>
<trkpt lat="31.691440000" lon="34.944263333">
<time>2013-04-01T08:51:05Z</time>
 <fix>none</fix>
 <sat>0</sat>
</trkpt>
<trkpt lat="31.691411667" lon="34.944285000">
<time>2013-04-01T08:51:07Z</time>
 <fix>none</fix>
 <sat>0</sat>
</trkpt>
<trkpt lat="31.691360000" lon="34.944326667">
<time>2013-04-01T08:51:09Z</time>
 <fix>none</fix>
 <sat>0</sat>
</trkpt>
<trkpt lat="31.691311667" lon="34.944356667">
<time>2013-04-01T08:51:11Z</time>
 <fix>none</fix>
 <sat>0</sat>
</trkpt>
<trkpt lat="31.691251667" lon="34.944396667">
<time>2013-04-01T08:51:13Z</time>
 <fix>none</fix>
 <sat>0</sat>
</trkpt>
<trkpt lat="31.691208333" lon="34.944426667">
<time>2013-04-01T08:51:15Z</time>
 <fix>none</fix>
 <sat>0</sat>
</trkpt>
<trkpt lat="31.691180000" lon="34.944461667">
<time>2013-04-01T08:51:17Z</time>
 <fix>none</fix>
 <sat>0</sat>
</trkpt>
<trkpt lat="31.691186667" lon="34.944503333">
<time>2013-04-01T08:51:19Z</time>
 <fix>none</fix>
 <sat>0</sat>
</trkpt>
<trkpt lat="31.691221667" lon="34.944550000">
<time>2013-04-01T08:51:21Z</time>
 <fix>none</fix>
 <sat>0</sat>
</trkpt>
<trkpt lat="31.691260000" lon="34.944608333">
<time>2013-04-01T08:51:23Z</time>
 <fix>none</fix>
 <sat>0</sat>
</trkpt>
<trkpt lat="31.691303333" lon="34.944671667">
<time>2013-04-01T08:51:25Z</time>
 <fix>none</fix>
 <sat>0</sat>
</trkpt>
<trkpt lat="31.691336667" lon="34.944726667">
<time>2013-04-01T08:51:27Z</time>
 <fix>none</fix>
 <sat>0</sat>
</trkpt>
<trkpt lat="31.691348333" lon="34.944743333">
<time>2013-04-01T08:51:29Z</time>
 <fix>none</fix>
 <sat>0</sat>
</trkpt>
<trkpt lat="31.691373333" lon="34.944766667">
<time>2013-04-01T08:51:31Z</time>
 <fix>none</fix>
 <sat>0</sat>
</trkpt>
<trkpt lat="31.691393333" lon="34.944796667">
<time>2013-04-01T08:51:33Z</time>
 <fix>none</fix>
 <sat>0</sat>
</trkpt>
<trkpt lat="31.691410000" lon="34.944830000">
<time>2013-04-01T08:51:35Z</time>
 <fix>none</fix>
 <sat>0</sat>
</trkpt>
<trkpt lat="31.691455000" lon="34.944850000">
<time>2013-04-01T08:51:37Z</time>
 <fix>none</fix>
 <sat>0</sat>
</trkpt>
<trkpt lat="31.691463333" lon="34.944860000">
<time>2013-04-01T08:51:39Z</time>
 <fix>none</fix>
 <sat>0</sat>
</trkpt>
<trkpt lat="31.691466667" lon="34.944870000">
<time>2013-04-01T08:51:41Z</time>
 <fix>none</fix>
 <sat>0</sat>
</trkpt>
<trkpt lat="31.691475000" lon="34.944895000">
<time>2013-04-01T08:51:43Z</time>
 <fix>none</fix>
 <sat>0</sat>
</trkpt>
<trkpt lat="31.691500000" lon="34.944916667">
<time>2013-04-01T08:51:45Z</time>
 <fix>none</fix>
 <sat>0</sat>
</trkpt>
<trkpt lat="31.691526667" lon="34.944941667">
<time>2013-04-01T08:51:47Z</time>
 <fix>none</fix>
 <sat>0</sat>
</trkpt>
<trkpt lat="31.691550000" lon="34.944970000">
<time>2013-04-01T08:51:49Z</time>
 <fix>none</fix>
 <sat>0</sat>
</trkpt>
<trkpt lat="31.691576667" lon="34.945001667">
<time>2013-04-01T08:51:51Z</time>
 <fix>none</fix>
 <sat>0</sat>
</trkpt>
<trkpt lat="31.691591667" lon="34.945018333">
<time>2013-04-01T08:51:53Z</time>
 <fix>none</fix>
 <sat>0</sat>
</trkpt>
<trkpt lat="31.691616667" lon="34.945048333">
<time>2013-04-01T08:51:55Z</time>
 <fix>none</fix>
 <sat>0</sat>
</trkpt>
<trkpt lat="31.691636667" lon="34.945081667">
<time>2013-04-01T08:51:57Z</time>
 <fix>none</fix>
 <sat>0</sat>
</trkpt>
<trkpt lat="31.691653333" lon="34.945106667">
<time>2013-04-01T08:51:59Z</time>
 <fix>none</fix>
 <sat>0</sat>
</trkpt>
<trkpt lat="31.691678333" lon="34.945128333">
<time>2013-04-01T08:52:01Z</time>
 <fix>none</fix>
 <sat>0</sat>
</trkpt>
<trkpt lat="31.691710000" lon="34.945146667">
<time>2013-04-01T08:52:03Z</time>
 <fix>none</fix>
 <sat>0</sat>
</trkpt>
<trkpt lat="31.691740000" lon="34.945160000">
<time>2013-04-01T08:52:05Z</time>
 <fix>none</fix>
 <sat>0</sat>
</trkpt>
<trkpt lat="31.691765000" lon="34.945173333">
<time>2013-04-01T08:52:07Z</time>
 <fix>none</fix>
 <sat>0</sat>
</trkpt>
<trkpt lat="31.691785000" lon="34.945180000">
<time>2013-04-01T08:52:09Z</time>
 <fix>none</fix>
 <sat>0</sat>
</trkpt>
<trkpt lat="31.691805000" lon="34.945198333">
<time>2013-04-01T08:52:11Z</time>
 <fix>none</fix>
 <sat>0</sat>
</trkpt>
<trkpt lat="31.691828333" lon="34.945225000">
<time>2013-04-01T08:52:13Z</time>
 <fix>none</fix>
 <sat>0</sat>
</trkpt>
<trkpt lat="31.691838333" lon="34.945241667">
<time>2013-04-01T08:52:15Z</time>
 <fix>none</fix>
 <sat>0</sat>
</trkpt>
<trkpt lat="31.691850000" lon="34.945276667">
<time>2013-04-01T08:52:17Z</time>
 <fix>none</fix>
 <sat>0</sat>
</trkpt>
<trkpt lat="31.691861667" lon="34.945316667">
<time>2013-04-01T08:52:19Z</time>
 <fix>none</fix>
 <sat>0</sat>
</trkpt>
<trkpt lat="31.691891667" lon="34.945366667">
<time>2013-04-01T08:52:21Z</time>
 <fix>none</fix>
 <sat>0</sat>
</trkpt>
<trkpt lat="31.691906667" lon="34.945393333">
<time>2013-04-01T08:52:23Z</time>
 <fix>none</fix>
 <sat>0</sat>
</trkpt>
<trkpt lat="31.691925000" lon="34.945413333">
<time>2013-04-01T08:52:25Z</time>
 <fix>none</fix>
 <sat>0</sat>
</trkpt>
<trkpt lat="31.691950000" lon="34.945436667">
<time>2013-04-01T08:52:27Z</time>
 <fix>none</fix>
 <sat>0</sat>
</trkpt>
<trkpt lat="31.691981667" lon="34.945458333">
<time>2013-04-01T08:52:29Z</time>
 <fix>none</fix>
 <sat>0</sat>
</trkpt>
<trkpt lat="31.692005000" lon="34.945496667">
<time>2013-04-01T08:52:31Z</time>
 <fix>none</fix>
 <sat>0</sat>
</trkpt>
<trkpt lat="31.692016667" lon="34.945548333">
<time>2013-04-01T08:52:33Z</time>
 <fix>none</fix>
 <sat>0</sat>
</trkpt>
<trkpt lat="31.692023333" lon="34.945590000">
<time>2013-04-01T08:52:35Z</time>
 <fix>none</fix>
 <sat>0</sat>
</trkpt>
<trkpt lat="31.692026667" lon="34.945610000">
<time>2013-04-01T08:52:37Z</time>
 <fix>none</fix>
 <sat>0</sat>
</trkpt>
<trkpt lat="31.692041667" lon="34.945653333">
<time>2013-04-01T08:52:39Z</time>
 <fix>none</fix>
 <sat>0</sat>
</trkpt>
<trkpt lat="31.692075000" lon="34.945686667">
<time>2013-04-01T08:52:41Z</time>
 <fix>none</fix>
 <sat>0</sat>
</trkpt>
<trkpt lat="31.692128333" lon="34.945736667">
<time>2013-04-01T08:52:43Z</time>
 <fix>none</fix>
 <sat>0</sat>
</trkpt>
<trkpt lat="31.692156667" lon="34.945768333">
<time>2013-04-01T08:52:45Z</time>
 <fix>none</fix>
 <sat>0</sat>
</trkpt>
<trkpt lat="31.692186667" lon="34.945803333">
<time>2013-04-01T08:52:47Z</time>
 <fix>none</fix>
 <sat>0</sat>
</trkpt>
<trkpt lat="31.692218333" lon="34.945845000">
<time>2013-04-01T08:52:49Z</time>
 <fix>none</fix>
 <sat>0</sat>
</trkpt>
<trkpt lat="31.692253333" lon="34.945890000">
<time>2013-04-01T08:52:51Z</time>
 <fix>none</fix>
 <sat>0</sat>
</trkpt>
<trkpt lat="31.692280000" lon="34.945938333">
<time>2013-04-01T08:52:53Z</time>
 <fix>none</fix>
 <sat>0</sat>
</trkpt>
<trkpt lat="31.692303333" lon="34.945990000">
<time>2013-04-01T08:52:55Z</time>
 <fix>none</fix>
 <sat>0</sat>
</trkpt>
<trkpt lat="31.692325000" lon="34.946038333">
<time>2013-04-01T08:52:57Z</time>
 <fix>none</fix>
 <sat>0</sat>
</trkpt>
<trkpt lat="31.692345000" lon="34.946096667">
<time>2013-04-01T08:52:59Z</time>
 <fix>none</fix>
 <sat>0</sat>
</trkpt>
<trkpt lat="31.692355000" lon="34.946126667">
<time>2013-04-01T08:53:01Z</time>
 <fix>none</fix>
 <sat>0</sat>
</trkpt>
<trkpt lat="31.692373333" lon="34.946186667">
<time>2013-04-01T08:53:03Z</time>
 <fix>none</fix>
 <sat>0</sat>
</trkpt>
<trkpt lat="31.692390000" lon="34.946250000">
<time>2013-04-01T08:53:05Z</time>
 <fix>none</fix>
 <sat>0</sat>
</trkpt>
<trkpt lat="31.692415000" lon="34.946340000">
<time>2013-04-01T08:53:07Z</time>
 <fix>none</fix>
 <sat>0</sat>
</trkpt>
<trkpt lat="31.692425000" lon="34.946395000">
<time>2013-04-01T08:53:09Z</time>
 <fix>none</fix>
 <sat>0</sat>
</trkpt>
<trkpt lat="31.692433333" lon="34.946441667">
<time>2013-04-01T08:53:11Z</time>
 <fix>none</fix>
 <sat>0</sat>
</trkpt>
<trkpt lat="31.692441667" lon="34.946495000">
<time>2013-04-01T08:53:13Z</time>
 <fix>none</fix>
 <sat>0</sat>
</trkpt>
<trkpt lat="31.692438333" lon="34.946565000">
<time>2013-04-01T08:53:15Z</time>
 <fix>none</fix>
 <sat>0</sat>
</trkpt>
<trkpt lat="31.692431667" lon="34.946610000">
<time>2013-04-01T08:53:17Z</time>
 <fix>none</fix>
 <sat>0</sat>
</trkpt>
<trkpt lat="31.692421667" lon="34.946646667">
<time>2013-04-01T08:53:19Z</time>
 <fix>none</fix>
 <sat>0</sat>
</trkpt>
<trkpt lat="31.692403333" lon="34.946711667">
<time>2013-04-01T08:53:21Z</time>
 <fix>none</fix>
 <sat>0</sat>
</trkpt>
<trkpt lat="31.692393333" lon="34.946751667">
<time>2013-04-01T08:53:23Z</time>
 <fix>none</fix>
 <sat>0</sat>
</trkpt>
<trkpt lat="31.692383333" lon="34.946805000">
<time>2013-04-01T08:53:25Z</time>
 <fix>none</fix>
 <sat>0</sat>
</trkpt>
<trkpt lat="31.692373333" lon="34.946860000">
<time>2013-04-01T08:53:27Z</time>
 <fix>none</fix>
 <sat>0</sat>
</trkpt>
<trkpt lat="31.692350000" lon="34.946905000">
<time>2013-04-01T08:53:29Z</time>
 <fix>none</fix>
 <sat>0</sat>
</trkpt>
<trkpt lat="31.692318333" lon="34.946981667">
<time>2013-04-01T08:53:31Z</time>
 <fix>none</fix>
 <sat>0</sat>
</trkpt>
<trkpt lat="31.692308333" lon="34.947011667">
<time>2013-04-01T08:53:33Z</time>
 <fix>none</fix>
 <sat>0</sat>
</trkpt>
<trkpt lat="31.692276667" lon="34.947093333">
<time>2013-04-01T08:53:35Z</time>
 <fix>none</fix>
 <sat>0</sat>
</trkpt>
<trkpt lat="31.692256667" lon="34.947148333">
<time>2013-04-01T08:53:37Z</time>
 <fix>none</fix>
 <sat>0</sat>
</trkpt>
<trkpt lat="31.692235000" lon="34.947200000">
<time>2013-04-01T08:53:39Z</time>
 <fix>none</fix>
 <sat>0</sat>
</trkpt>
<trkpt lat="31.692206667" lon="34.947245000">
<time>2013-04-01T08:53:41Z</time>
 <fix>none</fix>
 <sat>0</sat>
</trkpt>
<trkpt lat="31.692178333" lon="34.947295000">
<time>2013-04-01T08:53:43Z</time>
 <fix>none</fix>
 <sat>0</sat>
</trkpt>
<trkpt lat="31.692151667" lon="34.947346667">
<time>2013-04-01T08:53:45Z</time>
 <fix>none</fix>
 <sat>0</sat>
</trkpt>
<trkpt lat="31.692138333" lon="34.947371667">
<time>2013-04-01T08:53:47Z</time>
 <fix>none</fix>
 <sat>0</sat>
</trkpt>
<trkpt lat="31.692111667" lon="34.947421667">
<time>2013-04-01T08:53:49Z</time>
 <fix>none</fix>
 <sat>0</sat>
</trkpt>
<trkpt lat="31.692078333" lon="34.947501667">
<time>2013-04-01T08:53:51Z</time>
 <fix>none</fix>
 <sat>0</sat>
</trkpt>
<trkpt lat="31.692056667" lon="34.947556667">
<time>2013-04-01T08:53:53Z</time>
 <fix>none</fix>
 <sat>0</sat>
</trkpt>
<trkpt lat="31.692041667" lon="34.947611667">
<time>2013-04-01T08:53:55Z</time>
 <fix>none</fix>
 <sat>0</sat>
</trkpt>
<trkpt lat="31.692031667" lon="34.947670000">
<time>2013-04-01T08:53:57Z</time>
 <fix>none</fix>
 <sat>0</sat>
</trkpt>
<trkpt lat="31.692036667" lon="34.947730000">
<time>2013-04-01T08:53:59Z</time>
 <fix>none</fix>
 <sat>0</sat>
</trkpt>
<trkpt lat="31.692058333" lon="34.947786667">
<time>2013-04-01T08:54:01Z</time>
 <fix>none</fix>
 <sat>0</sat>
</trkpt>
<trkpt lat="31.692085000" lon="34.947833333">
<time>2013-04-01T08:54:03Z</time>
 <fix>none</fix>
 <sat>0</sat>
</trkpt>
<trkpt lat="31.692113333" lon="34.947866667">
<time>2013-04-01T08:54:05Z</time>
 <fix>none</fix>
 <sat>0</sat>
</trkpt>
<trkpt lat="31.692131667" lon="34.947908333">
<time>2013-04-01T08:54:07Z</time>
 <fix>none</fix>
 <sat>0</sat>
</trkpt>
<trkpt lat="31.692140000" lon="34.947931667">
<time>2013-04-01T08:54:09Z</time>
 <fix>none</fix>
 <sat>0</sat>
</trkpt>
<trkpt lat="31.692155000" lon="34.947978333">
<time>2013-04-01T08:54:11Z</time>
 <fix>none</fix>
 <sat>0</sat>
</trkpt>
<trkpt lat="31.692156667" lon="34.948033333">
<time>2013-04-01T08:54:13Z</time>
 <fix>none</fix>
 <sat>0</sat>
</trkpt>
<trkpt lat="31.692163333" lon="34.948131667">
<time>2013-04-01T08:54:15Z</time>
 <fix>none</fix>
 <sat>0</sat>
</trkpt>
<trkpt lat="31.692180000" lon="34.948213333">
<time>2013-04-01T08:54:17Z</time>
 <fix>none</fix>
 <sat>0</sat>
</trkpt>
<trkpt lat="31.692211667" lon="34.948293333">
<time>2013-04-01T08:54:19Z</time>
 <fix>none</fix>
 <sat>0</sat>
</trkpt>
<trkpt lat="31.692253333" lon="34.948366667">
<time>2013-04-01T08:54:21Z</time>
 <fix>none</fix>
 <sat>0</sat>
</trkpt>
<trkpt lat="31.692290000" lon="34.948431667">
<time>2013-04-01T08:54:23Z</time>
 <fix>none</fix>
 <sat>0</sat>
</trkpt>
<trkpt lat="31.692331667" lon="34.948486667">
<time>2013-04-01T08:54:25Z</time>
 <fix>none</fix>
 <sat>0</sat>
</trkpt>
<trkpt lat="31.692371667" lon="34.948543333">
<time>2013-04-01T08:54:27Z</time>
 <fix>none</fix>
 <sat>0</sat>
</trkpt>
<trkpt lat="31.692411667" lon="34.948601667">
<time>2013-04-01T08:54:29Z</time>
 <fix>none</fix>
 <sat>0</sat>
</trkpt>
<trkpt lat="31.692433333" lon="34.948631667">
<time>2013-04-01T08:54:31Z</time>
 <fix>none</fix>
 <sat>0</sat>
</trkpt>
<trkpt lat="31.692481667" lon="34.948686667">
<time>2013-04-01T08:54:33Z</time>
 <fix>none</fix>
 <sat>0</sat>
</trkpt>
<trkpt lat="31.692523333" lon="34.948740000">
<time>2013-04-01T08:54:35Z</time>
 <fix>none</fix>
 <sat>0</sat>
</trkpt>
<trkpt lat="31.692580000" lon="34.948813333">
<time>2013-04-01T08:54:37Z</time>
 <fix>none</fix>
 <sat>0</sat>
</trkpt>
<trkpt lat="31.692621667" lon="34.948866667">
<time>2013-04-01T08:54:39Z</time>
 <fix>none</fix>
 <sat>0</sat>
</trkpt>
<trkpt lat="31.692665000" lon="34.948926667">
<time>2013-04-01T08:54:41Z</time>
 <fix>none</fix>
 <sat>0</sat>
</trkpt>
<trkpt lat="31.692710000" lon="34.948991667">
<time>2013-04-01T08:54:43Z</time>
 <fix>none</fix>
 <sat>0</sat>
</trkpt>
<trkpt lat="31.692733333" lon="34.949021667">
<time>2013-04-01T08:54:45Z</time>
 <fix>none</fix>
 <sat>0</sat>
</trkpt>
<trkpt lat="31.692798333" lon="34.949103333">
<time>2013-04-01T08:54:47Z</time>
 <fix>none</fix>
 <sat>0</sat>
</trkpt>
<trkpt lat="31.692836667" lon="34.949161667">
<time>2013-04-01T08:54:49Z</time>
 <fix>none</fix>
 <sat>0</sat>
</trkpt>
<trkpt lat="31.692873333" lon="34.949225000">
<time>2013-04-01T08:54:51Z</time>
 <fix>none</fix>
 <sat>0</sat>
</trkpt>
<trkpt lat="31.692903333" lon="34.949291667">
<time>2013-04-01T08:54:53Z</time>
 <fix>none</fix>
 <sat>0</sat>
</trkpt>
<trkpt lat="31.692920000" lon="34.949326667">
<time>2013-04-01T08:54:55Z</time>
 <fix>none</fix>
 <sat>0</sat>
</trkpt>
<trkpt lat="31.692951667" lon="34.949396667">
<time>2013-04-01T08:54:57Z</time>
 <fix>none</fix>
 <sat>0</sat>
</trkpt>
<trkpt lat="31.692980000" lon="34.949475000">
<time>2013-04-01T08:54:59Z</time>
 <fix>none</fix>
 <sat>0</sat>
</trkpt>
<trkpt lat="31.693000000" lon="34.949593333">
<time>2013-04-01T08:55:01Z</time>
 <fix>none</fix>
 <sat>0</sat>
</trkpt>
<trkpt lat="31.692995000" lon="34.949675000">
<time>2013-04-01T08:55:03Z</time>
 <fix>none</fix>
 <sat>0</sat>
</trkpt>
<trkpt lat="31.692983333" lon="34.949755000">
<time>2013-04-01T08:55:05Z</time>
 <fix>none</fix>
 <sat>0</sat>
</trkpt>
<trkpt lat="31.692973333" lon="34.949838333">
<time>2013-04-01T08:55:07Z</time>
 <fix>none</fix>
 <sat>0</sat>
</trkpt>
<trkpt lat="31.692965000" lon="34.949921667">
<time>2013-04-01T08:55:09Z</time>
 <fix>none</fix>
 <sat>0</sat>
</trkpt>
<trkpt lat="31.692961667" lon="34.950005000">
<time>2013-04-01T08:55:11Z</time>
 <fix>none</fix>
 <sat>0</sat>
</trkpt>
<trkpt lat="31.692955000" lon="34.950081667">
<time>2013-04-01T08:55:13Z</time>
 <fix>none</fix>
 <sat>0</sat>
</trkpt>
<trkpt lat="31.692950000" lon="34.950156667">
<time>2013-04-01T08:55:15Z</time>
 <fix>none</fix>
 <sat>0</sat>
</trkpt>
<trkpt lat="31.692946667" lon="34.950195000">
<time>2013-04-01T08:55:17Z</time>
 <fix>none</fix>
 <sat>0</sat>
</trkpt>
<trkpt lat="31.692938333" lon="34.950273333">
<time>2013-04-01T08:55:19Z</time>
 <fix>none</fix>
 <sat>0</sat>
</trkpt>
<trkpt lat="31.692928333" lon="34.950356667">
<time>2013-04-01T08:55:21Z</time>
 <fix>none</fix>
 <sat>0</sat>
</trkpt>
<trkpt lat="31.692923333" lon="34.950478333">
<time>2013-04-01T08:55:23Z</time>
 <fix>none</fix>
 <sat>0</sat>
</trkpt>
<trkpt lat="31.692915000" lon="34.950553333">
<time>2013-04-01T08:55:25Z</time>
 <fix>none</fix>
 <sat>0</sat>
</trkpt>
<trkpt lat="31.692911667" lon="34.950625000">
<time>2013-04-01T08:55:27Z</time>
 <fix>none</fix>
 <sat>0</sat>
</trkpt>
<trkpt lat="31.692906667" lon="34.950691667">
<time>2013-04-01T08:55:29Z</time>
 <fix>none</fix>
 <sat>0</sat>
</trkpt>
<trkpt lat="31.692898333" lon="34.950760000">
<time>2013-04-01T08:55:31Z</time>
 <fix>none</fix>
 <sat>0</sat>
</trkpt>
<trkpt lat="31.692888333" lon="34.950835000">
<time>2013-04-01T08:55:33Z</time>
 <fix>none</fix>
 <sat>0</sat>
</trkpt>
<trkpt lat="31.692880000" lon="34.950930000">
<time>2013-04-01T08:55:35Z</time>
 <fix>none</fix>
 <sat>0</sat>
</trkpt>
<trkpt lat="31.692891667" lon="34.951045000">
<time>2013-04-01T08:55:37Z</time>
 <fix>none</fix>
 <sat>0</sat>
</trkpt>
<trkpt lat="31.692945000" lon="34.951133333">
<time>2013-04-01T08:55:39Z</time>
 <fix>none</fix>
 <sat>0</sat>
</trkpt>
<trkpt lat="31.692978333" lon="34.951158333">
<time>2013-04-01T08:55:41Z</time>
 <fix>none</fix>
 <sat>0</sat>
</trkpt>
<trkpt lat="31.693058333" lon="34.951181667">
<time>2013-04-01T08:55:43Z</time>
 <fix>none</fix>
 <sat>0</sat>
</trkpt>
<trkpt lat="31.693173333" lon="34.951178333">
<time>2013-04-01T08:55:45Z</time>
 <fix>none</fix>
 <sat>0</sat>
</trkpt>
<trkpt lat="31.693250000" lon="34.951178333">
<time>2013-04-01T08:55:47Z</time>
 <fix>none</fix>
 <sat>0</sat>
</trkpt>
<trkpt lat="31.693326667" lon="34.951190000">
<time>2013-04-01T08:55:49Z</time>
 <fix>none</fix>
 <sat>0</sat>
</trkpt>
<trkpt lat="31.693396667" lon="34.951226667">
<time>2013-04-01T08:55:51Z</time>
 <fix>none</fix>
 <sat>0</sat>
</trkpt>
<trkpt lat="31.693455000" lon="34.951283333">
<time>2013-04-01T08:55:53Z</time>
 <fix>none</fix>
 <sat>0</sat>
</trkpt>
<trkpt lat="31.693496667" lon="34.951363333">
<time>2013-04-01T08:55:55Z</time>
 <fix>none</fix>
 <sat>0</sat>
</trkpt>
<trkpt lat="31.693525000" lon="34.951450000">
<time>2013-04-01T08:55:57Z</time>
 <fix>none</fix>
 <sat>0</sat>
</trkpt>
<trkpt lat="31.693538333" lon="34.951541667">
<time>2013-04-01T08:55:59Z</time>
 <fix>none</fix>
 <sat>0</sat>
</trkpt>
<trkpt lat="31.693543333" lon="34.951628333">
<time>2013-04-01T08:56:01Z</time>
 <fix>none</fix>
 <sat>0</sat>
</trkpt>
<trkpt lat="31.693546667" lon="34.951671667">
<time>2013-04-01T08:56:03Z</time>
 <fix>none</fix>
 <sat>0</sat>
</trkpt>
<trkpt lat="31.693548333" lon="34.951756667">
<time>2013-04-01T08:56:05Z</time>
 <fix>none</fix>
 <sat>0</sat>
</trkpt>
<trkpt lat="31.693550000" lon="34.951841667">
<time>2013-04-01T08:56:07Z</time>
 <fix>none</fix>
 <sat>0</sat>
</trkpt>
<trkpt lat="31.693551667" lon="34.951925000">
<time>2013-04-01T08:56:09Z</time>
 <fix>none</fix>
 <sat>0</sat>
</trkpt>
<trkpt lat="31.693548333" lon="34.952046667">
<time>2013-04-01T08:56:11Z</time>
 <fix>none</fix>
 <sat>0</sat>
</trkpt>
<trkpt lat="31.693541667" lon="34.952125000">
<time>2013-04-01T08:56:13Z</time>
 <fix>none</fix>
 <sat>0</sat>
</trkpt>
<trkpt lat="31.693535000" lon="34.952201667">
<time>2013-04-01T08:56:15Z</time>
 <fix>none</fix>
 <sat>0</sat>
</trkpt>
<trkpt lat="31.693526667" lon="34.952276667">
<time>2013-04-01T08:56:17Z</time>
 <fix>none</fix>
 <sat>0</sat>
</trkpt>
<trkpt lat="31.693513333" lon="34.952353333">
<time>2013-04-01T08:56:19Z</time>
 <fix>none</fix>
 <sat>0</sat>
</trkpt>
<trkpt lat="31.693498333" lon="34.952428333">
<time>2013-04-01T08:56:21Z</time>
 <fix>none</fix>
 <sat>0</sat>
</trkpt>
<trkpt lat="31.693486667" lon="34.952506667">
<time>2013-04-01T08:56:23Z</time>
 <fix>none</fix>
 <sat>0</sat>
</trkpt>
<trkpt lat="31.693481667" lon="34.952546667">
<time>2013-04-01T08:56:25Z</time>
 <fix>none</fix>
 <sat>0</sat>
</trkpt>
<trkpt lat="31.693473333" lon="34.952620000">
<time>2013-04-01T08:56:27Z</time>
 <fix>none</fix>
 <sat>0</sat>
</trkpt>
<trkpt lat="31.693473333" lon="34.952688333">
<time>2013-04-01T08:56:29Z</time>
 <fix>none</fix>
 <sat>0</sat>
</trkpt>
<trkpt lat="31.693476667" lon="34.952790000">
<time>2013-04-01T08:56:31Z</time>
 <fix>none</fix>
 <sat>0</sat>
</trkpt>
<trkpt lat="31.693478333" lon="34.952856667">
<time>2013-04-01T08:56:33Z</time>
 <fix>none</fix>
 <sat>0</sat>
</trkpt>
<trkpt lat="31.693476667" lon="34.952916667">
<time>2013-04-01T08:56:35Z</time>
 <fix>none</fix>
 <sat>0</sat>
</trkpt>
<trkpt lat="31.693478333" lon="34.952978333">
<time>2013-04-01T08:56:37Z</time>
 <fix>none</fix>
 <sat>0</sat>
</trkpt>
<trkpt lat="31.693478333" lon="34.953036667">
<time>2013-04-01T08:56:39Z</time>
 <fix>none</fix>
 <sat>0</sat>
</trkpt>
<trkpt lat="31.693478333" lon="34.953086667">
<time>2013-04-01T08:56:41Z</time>
 <fix>none</fix>
 <sat>0</sat>
</trkpt>
<trkpt lat="31.693478333" lon="34.953126667">
<time>2013-04-01T08:56:43Z</time>
 <fix>none</fix>
 <sat>0</sat>
</trkpt>
<trkpt lat="31.693481667" lon="34.953155000">
<time>2013-04-01T08:56:45Z</time>
 <fix>none</fix>
 <sat>0</sat>
</trkpt>
<trkpt lat="31.693488333" lon="34.953160000">
<time>2013-04-01T08:56:47Z</time>
 <fix>none</fix>
 <sat>0</sat>
</trkpt>
<trkpt lat="31.693490000" lon="34.953161667">
<time>2013-04-01T08:56:49Z</time>
 <fix>none</fix>
 <sat>0</sat>
</trkpt>
<trkpt lat="31.693496667" lon="34.953166667">
<time>2013-04-01T08:56:51Z</time>
 <fix>none</fix>
 <sat>0</sat>
</trkpt>
<trkpt lat="31.693510000" lon="34.953171667">
<time>2013-04-01T08:56:53Z</time>
 <fix>none</fix>
 <sat>0</sat>
</trkpt>
<trkpt lat="31.693511667" lon="34.953173333">
<time>2013-04-01T08:56:55Z</time>
 <fix>none</fix>
 <sat>0</sat>
</trkpt>
<trkpt lat="31.693523333" lon="34.953170000">
<time>2013-04-01T08:56:57Z</time>
 <fix>none</fix>
 <sat>0</sat>
</trkpt>
<trkpt lat="31.693538333" lon="34.953173333">
<time>2013-04-01T08:56:59Z</time>
 <fix>none</fix>
 <sat>0</sat>
</trkpt>
<trkpt lat="31.693561667" lon="34.953181667">
<time>2013-04-01T08:57:01Z</time>
 <fix>none</fix>
 <sat>0</sat>
</trkpt>
<trkpt lat="31.693588333" lon="34.953190000">
<time>2013-04-01T08:57:03Z</time>
 <fix>none</fix>
 <sat>0</sat>
</trkpt>
<trkpt lat="31.693616667" lon="34.953196667">
<time>2013-04-01T08:57:05Z</time>
 <fix>none</fix>
 <sat>0</sat>
</trkpt>
<trkpt lat="31.693641667" lon="34.953206667">
<time>2013-04-01T08:57:07Z</time>
 <fix>none</fix>
 <sat>0</sat>
</trkpt>
<trkpt lat="31.693665000" lon="34.953216667">
<time>2013-04-01T08:57:09Z</time>
 <fix>none</fix>
 <sat>0</sat>
</trkpt>
<trkpt lat="31.693676667" lon="34.953221667">
<time>2013-04-01T08:57:11Z</time>
 <fix>none</fix>
 <sat>0</sat>
</trkpt>
<trkpt lat="31.693701667" lon="34.953235000">
<time>2013-04-01T08:57:13Z</time>
 <fix>none</fix>
 <sat>0</sat>
</trkpt>
<trkpt lat="31.693726667" lon="34.953246667">
<time>2013-04-01T08:57:15Z</time>
 <fix>none</fix>
 <sat>0</sat>
</trkpt>
<trkpt lat="31.693750000" lon="34.953258333">
<time>2013-04-01T08:57:17Z</time>
 <fix>none</fix>
 <sat>0</sat>
</trkpt>
<trkpt lat="31.693786667" lon="34.953265000">
<time>2013-04-01T08:57:19Z</time>
 <fix>none</fix>
 <sat>0</sat>
</trkpt>
<trkpt lat="31.693810000" lon="34.953276667">
<time>2013-04-01T08:57:21Z</time>
 <fix>none</fix>
 <sat>0</sat>
</trkpt>
<trkpt lat="31.693835000" lon="34.953288333">
<time>2013-04-01T08:57:23Z</time>
 <fix>none</fix>
 <sat>0</sat>
</trkpt>
<trkpt lat="31.693848333" lon="34.953295000">
<time>2013-04-01T08:57:25Z</time>
 <fix>none</fix>
 <sat>0</sat>
</trkpt>
<trkpt lat="31.693850000" lon="34.953298333">
<time>2013-04-01T08:57:27Z</time>
 <fix>none</fix>
 <sat>0</sat>
</trkpt>
<trkpt lat="31.693856667" lon="34.953311667">
<time>2013-04-01T08:57:29Z</time>
 <fix>none</fix>
 <sat>0</sat>
</trkpt>
<trkpt lat="31.693873333" lon="34.953323333">
<time>2013-04-01T08:57:31Z</time>
 <fix>none</fix>
 <sat>0</sat>
</trkpt>
<trkpt lat="31.693886667" lon="34.953328333">
<time>2013-04-01T08:57:33Z</time>
 <fix>none</fix>
 <sat>0</sat>
</trkpt>
<trkpt lat="31.693891667" lon="34.953331667">
<time>2013-04-01T08:57:35Z</time>
 <fix>none</fix>
 <sat>0</sat>
</trkpt>
<trkpt lat="31.693901667" lon="34.953336667">
<time>2013-04-01T08:57:37Z</time>
 <fix>none</fix>
 <sat>0</sat>
</trkpt>
<trkpt lat="31.693910000" lon="34.953345000">
<time>2013-04-01T08:57:39Z</time>
 <fix>none</fix>
 <sat>0</sat>
</trkpt>
<trkpt lat="31.693923333" lon="34.953365000">
<time>2013-04-01T08:57:41Z</time>
 <fix>none</fix>
 <sat>0</sat>
</trkpt>
<trkpt lat="31.693935000" lon="34.953373333">
<time>2013-04-01T08:57:43Z</time>
 <fix>none</fix>
 <sat>0</sat>
</trkpt>
<trkpt lat="31.693940000" lon="34.953375000">
<time>2013-04-01T08:57:45Z</time>
 <fix>none</fix>
 <sat>0</sat>
</trkpt>
<trkpt lat="31.693943333" lon="34.953375000">
<time>2013-04-01T08:57:47Z</time>
 <fix>none</fix>
 <sat>0</sat>
</trkpt>
<trkpt lat="31.693941667" lon="34.953376667">
<time>2013-04-01T08:57:49Z</time>
 <fix>none</fix>
 <sat>0</sat>
</trkpt>
<trkpt lat="31.693946667" lon="34.953376667">
<time>2013-04-01T08:57:51Z</time>
 <fix>none</fix>
 <sat>0</sat>
</trkpt>
<trkpt lat="31.693956667" lon="34.953385000">
<time>2013-04-01T08:57:53Z</time>
 <fix>none</fix>
 <sat>0</sat>
</trkpt>
<trkpt lat="31.693966667" lon="34.953395000">
<time>2013-04-01T08:57:55Z</time>
 <fix>none</fix>
 <sat>0</sat>
</trkpt>
<trkpt lat="31.693970000" lon="34.953398333">
<time>2013-04-01T08:57:57Z</time>
 <fix>none</fix>
 <sat>0</sat>
</trkpt>
<trkpt lat="31.693981667" lon="34.953408333">
<time>2013-04-01T08:57:59Z</time>
 <fix>none</fix>
 <sat>0</sat>
</trkpt>
<trkpt lat="31.693990000" lon="34.953416667">
<time>2013-04-01T08:58:01Z</time>
 <fix>none</fix>
 <sat>0</sat>
</trkpt>
<trkpt lat="31.694003333" lon="34.953431667">
<time>2013-04-01T08:58:03Z</time>
 <fix>none</fix>
 <sat>0</sat>
</trkpt>
<trkpt lat="31.694013333" lon="34.953441667">
<time>2013-04-01T08:58:05Z</time>
 <fix>none</fix>
 <sat>0</sat>
</trkpt>
<trkpt lat="31.694025000" lon="34.953451667">
<time>2013-04-01T08:58:07Z</time>
 <fix>none</fix>
 <sat>0</sat>
</trkpt>
<trkpt lat="31.694036667" lon="34.953463333">
<time>2013-04-01T08:58:09Z</time>
 <fix>none</fix>
 <sat>0</sat>
</trkpt>
<trkpt lat="31.694048333" lon="34.953473333">
<time>2013-04-01T08:58:11Z</time>
 <fix>none</fix>
 <sat>0</sat>
</trkpt>
<trkpt lat="31.694058333" lon="34.953481667">
<time>2013-04-01T08:58:13Z</time>
 <fix>none</fix>
 <sat>0</sat>
</trkpt>
<trkpt lat="31.694071667" lon="34.953490000">
<time>2013-04-01T08:58:15Z</time>
 <fix>none</fix>
 <sat>0</sat>
</trkpt>
<trkpt lat="31.694083333" lon="34.953496667">
<time>2013-04-01T08:58:17Z</time>
 <fix>none</fix>
 <sat>0</sat>
</trkpt>
<trkpt lat="31.694088333" lon="34.953503333">
<time>2013-04-01T08:58:19Z</time>
 <fix>none</fix>
 <sat>0</sat>
</trkpt>
<trkpt lat="31.694093333" lon="34.953515000">
<time>2013-04-01T08:58:21Z</time>
 <fix>none</fix>
 <sat>0</sat>
</trkpt>
<trkpt lat="31.694098333" lon="34.953528333">
<time>2013-04-01T08:58:23Z</time>
 <fix>none</fix>
 <sat>0</sat>
</trkpt>
<trkpt lat="31.694115000" lon="34.953540000">
<time>2013-04-01T08:58:25Z</time>
 <fix>none</fix>
 <sat>0</sat>
</trkpt>
<trkpt lat="31.694128333" lon="34.953546667">
<time>2013-04-01T08:58:27Z</time>
 <fix>none</fix>
 <sat>0</sat>
</trkpt>
<trkpt lat="31.694141667" lon="34.953553333">
<time>2013-04-01T08:58:29Z</time>
 <fix>none</fix>
 <sat>0</sat>
</trkpt>
<trkpt lat="31.694148333" lon="34.953558333">
<time>2013-04-01T08:58:31Z</time>
 <fix>none</fix>
 <sat>0</sat>
</trkpt>
<trkpt lat="31.694173333" lon="34.953558333">
<time>2013-04-01T08:58:33Z</time>
 <fix>none</fix>
 <sat>0</sat>
</trkpt>
<trkpt lat="31.694186667" lon="34.953561667">
<time>2013-04-01T08:58:35Z</time>
 <fix>none</fix>
 <sat>0</sat>
</trkpt>
<trkpt lat="31.694200000" lon="34.953568333">
<time>2013-04-01T08:58:37Z</time>
 <fix>none</fix>
 <sat>0</sat>
</trkpt>
<trkpt lat="31.694215000" lon="34.953573333">
<time>2013-04-01T08:58:39Z</time>
 <fix>none</fix>
 <sat>0</sat>
</trkpt>
<trkpt lat="31.694231667" lon="34.953575000">
<time>2013-04-01T08:58:41Z</time>
 <fix>none</fix>
 <sat>0</sat>
</trkpt>
<trkpt lat="31.694240000" lon="34.953576667">
<time>2013-04-01T08:58:43Z</time>
 <fix>none</fix>
 <sat>0</sat>
</trkpt>
<trkpt lat="31.694256667" lon="34.953578333">
<time>2013-04-01T08:58:45Z</time>
 <fix>none</fix>
 <sat>0</sat>
</trkpt>
<trkpt lat="31.694280000" lon="34.953580000">
<time>2013-04-01T08:58:47Z</time>
 <fix>none</fix>
 <sat>0</sat>
</trkpt>
<trkpt lat="31.694295000" lon="34.953583333">
<time>2013-04-01T08:58:49Z</time>
 <fix>none</fix>
 <sat>0</sat>
</trkpt>
<trkpt lat="31.694305000" lon="34.953581667">
<time>2013-04-01T08:58:51Z</time>
 <fix>none</fix>
 <sat>0</sat>
</trkpt>
<trkpt lat="31.694316667" lon="34.953578333">
<time>2013-04-01T08:58:53Z</time>
 <fix>none</fix>
 <sat>0</sat>
</trkpt>
<trkpt lat="31.694331667" lon="34.953575000">
<time>2013-04-01T08:58:55Z</time>
 <fix>none</fix>
 <sat>0</sat>
</trkpt>
<trkpt lat="31.694348333" lon="34.953566667">
<time>2013-04-01T08:58:57Z</time>
 <fix>none</fix>
 <sat>0</sat>
</trkpt>
<trkpt lat="31.694365000" lon="34.953553333">
<time>2013-04-01T08:58:59Z</time>
 <fix>none</fix>
 <sat>0</sat>
</trkpt>
<trkpt lat="31.694380000" lon="34.953536667">
<time>2013-04-01T08:59:01Z</time>
 <fix>none</fix>
 <sat>0</sat>
</trkpt>
<trkpt lat="31.694393333" lon="34.953516667">
<time>2013-04-01T08:59:03Z</time>
 <fix>none</fix>
 <sat>0</sat>
</trkpt>
<trkpt lat="31.694398333" lon="34.953506667">
<time>2013-04-01T08:59:05Z</time>
 <fix>none</fix>
 <sat>0</sat>
</trkpt>
<trkpt lat="31.694405000" lon="34.953483333">
<time>2013-04-01T08:59:07Z</time>
 <fix>none</fix>
 <sat>0</sat>
</trkpt>
<trkpt lat="31.694408333" lon="34.953456667">
<time>2013-04-01T08:59:09Z</time>
 <fix>none</fix>
 <sat>0</sat>
</trkpt>
<trkpt lat="31.694410000" lon="34.953430000">
<time>2013-04-01T08:59:11Z</time>
 <fix>none</fix>
 <sat>0</sat>
</trkpt>
<trkpt lat="31.694411667" lon="34.953393333">
<time>2013-04-01T08:59:13Z</time>
 <fix>none</fix>
 <sat>0</sat>
</trkpt>
<trkpt lat="31.694408333" lon="34.953366667">
<time>2013-04-01T08:59:15Z</time>
 <fix>none</fix>
 <sat>0</sat>
</trkpt>
<trkpt lat="31.694403333" lon="34.953341667">
<time>2013-04-01T08:59:17Z</time>
 <fix>none</fix>
 <sat>0</sat>
</trkpt>
<trkpt lat="31.694400000" lon="34.953315000">
<time>2013-04-01T08:59:19Z</time>
 <fix>none</fix>
 <sat>0</sat>
</trkpt>
<trkpt lat="31.694398333" lon="34.953290000">
<time>2013-04-01T08:59:21Z</time>
 <fix>none</fix>
 <sat>0</sat>
</trkpt>
<trkpt lat="31.694396667" lon="34.953266667">
<time>2013-04-01T08:59:23Z</time>
 <fix>none</fix>
 <sat>0</sat>
</trkpt>
<trkpt lat="31.694395000" lon="34.953240000">
<time>2013-04-01T08:59:25Z</time>
 <fix>none</fix>
 <sat>0</sat>
</trkpt>
<trkpt lat="31.694396667" lon="34.953218333">
<time>2013-04-01T08:59:27Z</time>
 <fix>none</fix>
 <sat>0</sat>
</trkpt>
<trkpt lat="31.694396667" lon="34.953206667">
<time>2013-04-01T08:59:29Z</time>
 <fix>none</fix>
 <sat>0</sat>
</trkpt>
<trkpt lat="31.694396667" lon="34.953183333">
<time>2013-04-01T08:59:31Z</time>
 <fix>none</fix>
 <sat>0</sat>
</trkpt>
<trkpt lat="31.694401667" lon="34.953150000">
<time>2013-04-01T08:59:33Z</time>
 <fix>none</fix>
 <sat>0</sat>
</trkpt>
<trkpt lat="31.694405000" lon="34.953128333">
<time>2013-04-01T08:59:35Z</time>
 <fix>none</fix>
 <sat>0</sat>
</trkpt>
<trkpt lat="31.694410000" lon="34.953108333">
<time>2013-04-01T08:59:37Z</time>
 <fix>none</fix>
 <sat>0</sat>
</trkpt>
<trkpt lat="31.694413333" lon="34.953090000">
<time>2013-04-01T08:59:39Z</time>
 <fix>none</fix>
 <sat>0</sat>
</trkpt>
<trkpt lat="31.694416667" lon="34.953071667">
<time>2013-04-01T08:59:41Z</time>
 <fix>none</fix>
 <sat>0</sat>
</trkpt>
<trkpt lat="31.694420000" lon="34.953053333">
<time>2013-04-01T08:59:43Z</time>
 <fix>none</fix>
 <sat>0</sat>
</trkpt>
<trkpt lat="31.694421667" lon="34.953035000">
<time>2013-04-01T08:59:45Z</time>
 <fix>none</fix>
 <sat>0</sat>
</trkpt>
<trkpt lat="31.694423333" lon="34.953015000">
<time>2013-04-01T08:59:47Z</time>
 <fix>none</fix>
 <sat>0</sat>
</trkpt>
<trkpt lat="31.694433333" lon="34.953003333">
<time>2013-04-01T08:59:49Z</time>
 <fix>none</fix>
 <sat>0</sat>
</trkpt>
<trkpt lat="31.694436667" lon="34.952995000">
<time>2013-04-01T08:59:51Z</time>
 <fix>none</fix>
 <sat>0</sat>
</trkpt>
<trkpt lat="31.694441667" lon="34.952976667">
<time>2013-04-01T08:59:53Z</time>
 <fix>none</fix>
 <sat>0</sat>
</trkpt>
<trkpt lat="31.694446667" lon="34.952960000">
<time>2013-04-01T08:59:55Z</time>
 <fix>none</fix>
 <sat>0</sat>
</trkpt>
<trkpt lat="31.694458333" lon="34.952938333">
<time>2013-04-01T08:59:57Z</time>
 <fix>none</fix>
 <sat>0</sat>
</trkpt>
<trkpt lat="31.694468333" lon="34.952928333">
<time>2013-04-01T08:59:59Z</time>
 <fix>none</fix>
 <sat>0</sat>
</trkpt>
<trkpt lat="31.694490000" lon="34.952928333">
<time>2013-04-01T09:00:01Z</time>
 <fix>none</fix>
 <sat>0</sat>
</trkpt>
<trkpt lat="31.694510000" lon="34.952933333">
<time>2013-04-01T09:00:03Z</time>
 <fix>none</fix>
 <sat>0</sat>
</trkpt>
<trkpt lat="31.694525000" lon="34.952943333">
<time>2013-04-01T09:00:05Z</time>
 <fix>none</fix>
 <sat>0</sat>
</trkpt>
<trkpt lat="31.694536667" lon="34.952951667">
<time>2013-04-01T09:00:07Z</time>
 <fix>none</fix>
 <sat>0</sat>
</trkpt>
<trkpt lat="31.694545000" lon="34.952968333">
<time>2013-04-01T09:00:09Z</time>
 <fix>none</fix>
 <sat>0</sat>
</trkpt>
<trkpt lat="31.694551667" lon="34.952990000">
<time>2013-04-01T09:00:11Z</time>
 <fix>none</fix>
 <sat>0</sat>
</trkpt>
<trkpt lat="31.694556667" lon="34.953001667">
<time>2013-04-01T09:00:13Z</time>
 <fix>none</fix>
 <sat>0</sat>
</trkpt>
<trkpt lat="31.694556667" lon="34.953026667">
<time>2013-04-01T09:00:15Z</time>
 <fix>none</fix>
 <sat>0</sat>
</trkpt>
<trkpt lat="31.694558333" lon="34.953038333">
<time>2013-04-01T09:00:17Z</time>
 <fix>none</fix>
 <sat>0</sat>
</trkpt>
<trkpt lat="31.694560000" lon="34.953043333">
<time>2013-04-01T09:00:19Z</time>
 <fix>none</fix>
 <sat>0</sat>
</trkpt>
<trkpt lat="31.694576667" lon="34.953066667">
<time>2013-04-01T09:00:21Z</time>
 <fix>none</fix>
 <sat>0</sat>
</trkpt>
<trkpt lat="31.694586667" lon="34.953083333">
<time>2013-04-01T09:00:23Z</time>
 <fix>none</fix>
 <sat>0</sat>
</trkpt>
<trkpt lat="31.694593333" lon="34.953101667">
<time>2013-04-01T09:00:25Z</time>
 <fix>none</fix>
 <sat>0</sat>
</trkpt>
<trkpt lat="31.694603333" lon="34.953120000">
<time>2013-04-01T09:00:27Z</time>
 <fix>none</fix>
 <sat>0</sat>
</trkpt>
<trkpt lat="31.694616667" lon="34.953136667">
<time>2013-04-01T09:00:29Z</time>
 <fix>none</fix>
 <sat>0</sat>
</trkpt>
<trkpt lat="31.694630000" lon="34.953146667">
<time>2013-04-01T09:00:31Z</time>
 <fix>none</fix>
 <sat>0</sat>
</trkpt>
<trkpt lat="31.694643333" lon="34.953148333">
<time>2013-04-01T09:00:33Z</time>
 <fix>none</fix>
 <sat>0</sat>
</trkpt>
<trkpt lat="31.694651667" lon="34.953156667">
<time>2013-04-01T09:00:35Z</time>
 <fix>none</fix>
 <sat>0</sat>
</trkpt>
<trkpt lat="31.694655000" lon="34.953161667">
<time>2013-04-01T09:00:37Z</time>
 <fix>none</fix>
 <sat>0</sat>
</trkpt>
<trkpt lat="31.694665000" lon="34.953171667">
<time>2013-04-01T09:00:39Z</time>
 <fix>none</fix>
 <sat>0</sat>
</trkpt>
<trkpt lat="31.694666667" lon="34.953178333">
<time>2013-04-01T09:00:41Z</time>
 <fix>none</fix>
 <sat>0</sat>
</trkpt>
<trkpt lat="31.694680000" lon="34.953195000">
<time>2013-04-01T09:00:43Z</time>
 <fix>none</fix>
 <sat>0</sat>
</trkpt>
<trkpt lat="31.694686667" lon="34.953213333">
<time>2013-04-01T09:00:45Z</time>
 <fix>none</fix>
 <sat>0</sat>
</trkpt>
<trkpt lat="31.694693333" lon="34.953230000">
<time>2013-04-01T09:00:47Z</time>
 <fix>none</fix>
 <sat>0</sat>
</trkpt>
<trkpt lat="31.694700000" lon="34.953248333">
<time>2013-04-01T09:00:49Z</time>
 <fix>none</fix>
 <sat>0</sat>
</trkpt>
<trkpt lat="31.694706667" lon="34.953265000">
<time>2013-04-01T09:00:51Z</time>
 <fix>none</fix>
 <sat>0</sat>
</trkpt>
<trkpt lat="31.694713333" lon="34.953278333">
<time>2013-04-01T09:00:53Z</time>
 <fix>none</fix>
 <sat>0</sat>
</trkpt>
<trkpt lat="31.694723333" lon="34.953295000">
<time>2013-04-01T09:00:55Z</time>
 <fix>none</fix>
 <sat>0</sat>
</trkpt>
<trkpt lat="31.694725000" lon="34.953315000">
<time>2013-04-01T09:00:57Z</time>
 <fix>none</fix>
 <sat>0</sat>
</trkpt>
<trkpt lat="31.694725000" lon="34.953323333">
<time>2013-04-01T09:00:59Z</time>
 <fix>none</fix>
 <sat>0</sat>
</trkpt>
<trkpt lat="31.694731667" lon="34.953336667">
<time>2013-04-01T09:01:01Z</time>
 <fix>none</fix>
 <sat>0</sat>
</trkpt>
<trkpt lat="31.694741667" lon="34.953353333">
<time>2013-04-01T09:01:03Z</time>
 <fix>none</fix>
 <sat>0</sat>
</trkpt>
<trkpt lat="31.694753333" lon="34.953371667">
<time>2013-04-01T09:01:05Z</time>
 <fix>none</fix>
 <sat>0</sat>
</trkpt>
<trkpt lat="31.694763333" lon="34.953381667">
<time>2013-04-01T09:01:07Z</time>
 <fix>none</fix>
 <sat>0</sat>
</trkpt>
<trkpt lat="31.694778333" lon="34.953390000">
<time>2013-04-01T09:01:09Z</time>
 <fix>none</fix>
 <sat>0</sat>
</trkpt>
<trkpt lat="31.694785000" lon="34.953393333">
<time>2013-04-01T09:01:11Z</time>
 <fix>none</fix>
 <sat>0</sat>
</trkpt>
<trkpt lat="31.694808333" lon="34.953410000">
<time>2013-04-01T09:01:13Z</time>
 <fix>none</fix>
 <sat>0</sat>
</trkpt>
<trkpt lat="31.694821667" lon="34.953423333">
<time>2013-04-01T09:01:15Z</time>
 <fix>none</fix>
 <sat>0</sat>
</trkpt>
<trkpt lat="31.694831667" lon="34.953438333">
<time>2013-04-01T09:01:17Z</time>
 <fix>none</fix>
 <sat>0</sat>
</trkpt>
<trkpt lat="31.694845000" lon="34.953451667">
<time>2013-04-01T09:01:19Z</time>
 <fix>none</fix>
 <sat>0</sat>
</trkpt>
<trkpt lat="31.694855000" lon="34.953466667">
<time>2013-04-01T09:01:21Z</time>
 <fix>none</fix>
 <sat>0</sat>
</trkpt>
<trkpt lat="31.694860000" lon="34.953471667">
<time>2013-04-01T09:01:23Z</time>
 <fix>none</fix>
 <sat>0</sat>
</trkpt>
<trkpt lat="31.694863333" lon="34.953481667">
<time>2013-04-01T09:01:25Z</time>
 <fix>none</fix>
 <sat>0</sat>
</trkpt>
<trkpt lat="31.694870000" lon="34.953496667">
<time>2013-04-01T09:01:27Z</time>
 <fix>none</fix>
 <sat>0</sat>
</trkpt>
<trkpt lat="31.694871667" lon="34.953496667">
<time>2013-04-01T09:01:29Z</time>
 <fix>none</fix>
 <sat>0</sat>
</trkpt>
<trkpt lat="31.694873333" lon="34.953495000">
<time>2013-04-01T09:01:31Z</time>
 <fix>none</fix>
 <sat>0</sat>
</trkpt>
<trkpt lat="31.694876667" lon="34.953500000">
<time>2013-04-01T09:01:33Z</time>
 <fix>none</fix>
 <sat>0</sat>
</trkpt>
<trkpt lat="31.694880000" lon="34.953506667">
<time>2013-04-01T09:01:35Z</time>
 <fix>none</fix>
 <sat>0</sat>
</trkpt>
<trkpt lat="31.694873333" lon="34.953515000">
<time>2013-04-01T09:01:37Z</time>
 <fix>none</fix>
 <sat>0</sat>
</trkpt>
<trkpt lat="31.694875000" lon="34.953530000">
<time>2013-04-01T09:01:39Z</time>
 <fix>none</fix>
 <sat>0</sat>
</trkpt>
<trkpt lat="31.694876667" lon="34.953561667">
<time>2013-04-01T09:01:41Z</time>
 <fix>none</fix>
 <sat>0</sat>
</trkpt>
<trkpt lat="31.694875000" lon="34.953600000">
<time>2013-04-01T09:01:43Z</time>
 <fix>none</fix>
 <sat>0</sat>
</trkpt>
<trkpt lat="31.694873333" lon="34.953620000">
<time>2013-04-01T09:01:45Z</time>
 <fix>none</fix>
 <sat>0</sat>
</trkpt>
<trkpt lat="31.694873333" lon="34.953661667">
<time>2013-04-01T09:01:47Z</time>
 <fix>none</fix>
 <sat>0</sat>
</trkpt>
<trkpt lat="31.694878333" lon="34.953701667">
<time>2013-04-01T09:01:49Z</time>
 <fix>none</fix>
 <sat>0</sat>
</trkpt>
<trkpt lat="31.694888333" lon="34.953761667">
<time>2013-04-01T09:01:51Z</time>
 <fix>none</fix>
 <sat>0</sat>
</trkpt>
<trkpt lat="31.694898333" lon="34.953798333">
<time>2013-04-01T09:01:53Z</time>
 <fix>none</fix>
 <sat>0</sat>
</trkpt>
<trkpt lat="31.694905000" lon="34.953838333">
<time>2013-04-01T09:01:55Z</time>
 <fix>none</fix>
 <sat>0</sat>
</trkpt>
<trkpt lat="31.694906667" lon="34.953878333">
<time>2013-04-01T09:01:57Z</time>
 <fix>none</fix>
 <sat>0</sat>
</trkpt>
<trkpt lat="31.694905000" lon="34.953915000">
<time>2013-04-01T09:01:59Z</time>
 <fix>none</fix>
 <sat>0</sat>
</trkpt>
<trkpt lat="31.694900000" lon="34.953948333">
<time>2013-04-01T09:02:01Z</time>
 <fix>none</fix>
 <sat>0</sat>
</trkpt>
<trkpt lat="31.694895000" lon="34.953983333">
<time>2013-04-01T09:02:03Z</time>
 <fix>none</fix>
 <sat>0</sat>
</trkpt>
<trkpt lat="31.694895000" lon="34.954020000">
<time>2013-04-01T09:02:05Z</time>
 <fix>none</fix>
 <sat>0</sat>
</trkpt>
<trkpt lat="31.694891667" lon="34.954036667">
<time>2013-04-01T09:02:07Z</time>
 <fix>none</fix>
 <sat>0</sat>
</trkpt>
<trkpt lat="31.694881667" lon="34.954073333">
<time>2013-04-01T09:02:09Z</time>
 <fix>none</fix>
 <sat>0</sat>
</trkpt>
<trkpt lat="31.694876667" lon="34.954110000">
<time>2013-04-01T09:02:11Z</time>
 <fix>none</fix>
 <sat>0</sat>
</trkpt>
<trkpt lat="31.694865000" lon="34.954168333">
<time>2013-04-01T09:02:13Z</time>
 <fix>none</fix>
 <sat>0</sat>
</trkpt>
<trkpt lat="31.694858333" lon="34.954208333">
<time>2013-04-01T09:02:15Z</time>
 <fix>none</fix>
 <sat>0</sat>
</trkpt>
<trkpt lat="31.694848333" lon="34.954245000">
<time>2013-04-01T09:02:17Z</time>
 <fix>none</fix>
 <sat>0</sat>
</trkpt>
<trkpt lat="31.694838333" lon="34.954281667">
<time>2013-04-01T09:02:19Z</time>
 <fix>none</fix>
 <sat>0</sat>
</trkpt>
<trkpt lat="31.694831667" lon="34.954321667">
<time>2013-04-01T09:02:21Z</time>
 <fix>none</fix>
 <sat>0</sat>
</trkpt>
<trkpt lat="31.694825000" lon="34.954363333">
<time>2013-04-01T09:02:23Z</time>
 <fix>none</fix>
 <sat>0</sat>
</trkpt>
<trkpt lat="31.694816667" lon="34.954400000">
<time>2013-04-01T09:02:25Z</time>
 <fix>none</fix>
 <sat>0</sat>
</trkpt>
<trkpt lat="31.694810000" lon="34.954438333">
<time>2013-04-01T09:02:27Z</time>
 <fix>none</fix>
 <sat>0</sat>
</trkpt>
<trkpt lat="31.694805000" lon="34.954475000">
<time>2013-04-01T09:02:29Z</time>
 <fix>none</fix>
 <sat>0</sat>
</trkpt>
<trkpt lat="31.694801667" lon="34.954493333">
<time>2013-04-01T09:02:31Z</time>
 <fix>none</fix>
 <sat>0</sat>
</trkpt>
<trkpt lat="31.694791667" lon="34.954531667">
<time>2013-04-01T09:02:33Z</time>
 <fix>none</fix>
 <sat>0</sat>
</trkpt>
<trkpt lat="31.694776667" lon="34.954588333">
<time>2013-04-01T09:02:35Z</time>
 <fix>none</fix>
 <sat>0</sat>
</trkpt>
<trkpt lat="31.694765000" lon="34.954630000">
<time>2013-04-01T09:02:37Z</time>
 <fix>none</fix>
 <sat>0</sat>
</trkpt>
<trkpt lat="31.694755000" lon="34.954675000">
<time>2013-04-01T09:02:39Z</time>
 <fix>none</fix>
 <sat>0</sat>
</trkpt>
<trkpt lat="31.694750000" lon="34.954696667">
<time>2013-04-01T09:02:41Z</time>
 <fix>none</fix>
 <sat>0</sat>
</trkpt>
<trkpt lat="31.694743333" lon="34.954751667">
<time>2013-04-01T09:02:43Z</time>
 <fix>none</fix>
 <sat>0</sat>
</trkpt>
<trkpt lat="31.694738333" lon="34.954785000">
<time>2013-04-01T09:02:45Z</time>
 <fix>none</fix>
 <sat>0</sat>
</trkpt>
<trkpt lat="31.694738333" lon="34.954820000">
<time>2013-04-01T09:02:47Z</time>
 <fix>none</fix>
 <sat>0</sat>
</trkpt>
<trkpt lat="31.694740000" lon="34.954856667">
<time>2013-04-01T09:02:49Z</time>
 <fix>none</fix>
 <sat>0</sat>
</trkpt>
<trkpt lat="31.694738333" lon="34.954896667">
<time>2013-04-01T09:02:51Z</time>
 <fix>none</fix>
 <sat>0</sat>
</trkpt>
<trkpt lat="31.694738333" lon="34.954916667">
<time>2013-04-01T09:02:53Z</time>
 <fix>none</fix>
 <sat>0</sat>
</trkpt>
<trkpt lat="31.694735000" lon="34.954955000">
<time>2013-04-01T09:02:55Z</time>
 <fix>none</fix>
 <sat>0</sat>
</trkpt>
<trkpt lat="31.694731667" lon="34.954990000">
<time>2013-04-01T09:02:57Z</time>
 <fix>none</fix>
 <sat>0</sat>
</trkpt>
<trkpt lat="31.694723333" lon="34.955050000">
<time>2013-04-01T09:02:59Z</time>
 <fix>none</fix>
 <sat>0</sat>
</trkpt>
<trkpt lat="31.694711667" lon="34.955090000">
<time>2013-04-01T09:03:01Z</time>
 <fix>none</fix>
 <sat>0</sat>
</trkpt>
<trkpt lat="31.694688333" lon="34.955123333">
<time>2013-04-01T09:03:03Z</time>
 <fix>none</fix>
 <sat>0</sat>
</trkpt>
<trkpt lat="31.694655000" lon="34.955165000">
<time>2013-04-01T09:03:05Z</time>
 <fix>none</fix>
 <sat>0</sat>
</trkpt>
<trkpt lat="31.694611667" lon="34.955211667">
<time>2013-04-01T09:03:07Z</time>
 <fix>none</fix>
 <sat>0</sat>
</trkpt>
<trkpt lat="31.694563333" lon="34.955266667">
<time>2013-04-01T09:03:09Z</time>
 <fix>none</fix>
 <sat>0</sat>
</trkpt>
<trkpt lat="31.694535000" lon="34.955321667">
<time>2013-04-01T09:03:11Z</time>
 <fix>none</fix>
 <sat>0</sat>
</trkpt>
<trkpt lat="31.694516667" lon="34.955386667">
<time>2013-04-01T09:03:13Z</time>
 <fix>none</fix>
 <sat>0</sat>
</trkpt>
<trkpt lat="31.694498333" lon="34.955460000">
<time>2013-04-01T09:03:15Z</time>
 <fix>none</fix>
 <sat>0</sat>
</trkpt>
<trkpt lat="31.694491667" lon="34.955500000">
<time>2013-04-01T09:03:17Z</time>
 <fix>none</fix>
 <sat>0</sat>
</trkpt>
<trkpt lat="31.694490000" lon="34.955590000">
<time>2013-04-01T09:03:19Z</time>
 <fix>none</fix>
 <sat>0</sat>
</trkpt>
<trkpt lat="31.694518333" lon="34.955748333">
<time>2013-04-01T09:03:21Z</time>
 <fix>none</fix>
 <sat>0</sat>
</trkpt>
<trkpt lat="31.694550000" lon="34.955851667">
<time>2013-04-01T09:03:23Z</time>
 <fix>none</fix>
 <sat>0</sat>
</trkpt>
<trkpt lat="31.694568333" lon="34.955900000">
<time>2013-04-01T09:03:25Z</time>
 <fix>none</fix>
 <sat>0</sat>
</trkpt>
<trkpt lat="31.694611667" lon="34.956023333">
<time>2013-04-01T09:03:27Z</time>
 <fix>none</fix>
 <sat>0</sat>
</trkpt>
<trkpt lat="31.694640000" lon="34.956083333">
<time>2013-04-01T09:03:29Z</time>
 <fix>none</fix>
 <sat>0</sat>
</trkpt>
<trkpt lat="31.694668333" lon="34.956133333">
<time>2013-04-01T09:03:31Z</time>
 <fix>none</fix>
 <sat>0</sat>
</trkpt>
<trkpt lat="31.694680000" lon="34.956188333">
<time>2013-04-01T09:03:33Z</time>
 <fix>none</fix>
 <sat>0</sat>
</trkpt>
<trkpt lat="31.694673333" lon="34.956245000">
<time>2013-04-01T09:03:35Z</time>
 <fix>none</fix>
 <sat>0</sat>
</trkpt>
<trkpt lat="31.694658333" lon="34.956306667">
<time>2013-04-01T09:03:37Z</time>
 <fix>none</fix>
 <sat>0</sat>
</trkpt>
<trkpt lat="31.694651667" lon="34.956335000">
<time>2013-04-01T09:03:39Z</time>
 <fix>none</fix>
 <sat>0</sat>
</trkpt>
<trkpt lat="31.694635000" lon="34.956391667">
<time>2013-04-01T09:03:41Z</time>
 <fix>none</fix>
 <sat>0</sat>
</trkpt>
<trkpt lat="31.694611667" lon="34.956446667">
<time>2013-04-01T09:03:43Z</time>
 <fix>none</fix>
 <sat>0</sat>
</trkpt>
<trkpt lat="31.694588333" lon="34.956500000">
<time>2013-04-01T09:03:45Z</time>
 <fix>none</fix>
 <sat>0</sat>
</trkpt>
<trkpt lat="31.694545000" lon="34.956573333">
<time>2013-04-01T09:03:47Z</time>
 <fix>none</fix>
 <sat>0</sat>
</trkpt>
<trkpt lat="31.694503333" lon="34.956616667">
<time>2013-04-01T09:03:49Z</time>
 <fix>none</fix>
 <sat>0</sat>
</trkpt>
<trkpt lat="31.694476667" lon="34.956640000">
<time>2013-04-01T09:03:51Z</time>
 <fix>none</fix>
 <sat>0</sat>
</trkpt>
<trkpt lat="31.694395000" lon="34.956700000">
<time>2013-04-01T09:03:53Z</time>
 <fix>none</fix>
 <sat>0</sat>
</trkpt>
<trkpt lat="31.694340000" lon="34.956733333">
<time>2013-04-01T09:03:55Z</time>
 <fix>none</fix>
 <sat>0</sat>
</trkpt>
<trkpt lat="31.694286667" lon="34.956763333">
<time>2013-04-01T09:03:57Z</time>
 <fix>none</fix>
 <sat>0</sat>
</trkpt>
<trkpt lat="31.694245000" lon="34.956796667">
<time>2013-04-01T09:03:59Z</time>
 <fix>none</fix>
 <sat>0</sat>
</trkpt>
<trkpt lat="31.694225000" lon="34.956816667">
<time>2013-04-01T09:04:01Z</time>
 <fix>none</fix>
 <sat>0</sat>
</trkpt>
<trkpt lat="31.694190000" lon="34.956855000">
<time>2013-04-01T09:04:03Z</time>
 <fix>none</fix>
 <sat>0</sat>
</trkpt>
<trkpt lat="31.694150000" lon="34.956890000">
<time>2013-04-01T09:04:05Z</time>
 <fix>none</fix>
 <sat>0</sat>
</trkpt>
<trkpt lat="31.694090000" lon="34.956933333">
<time>2013-04-01T09:04:07Z</time>
 <fix>none</fix>
 <sat>0</sat>
</trkpt>
<trkpt lat="31.694053333" lon="34.956965000">
<time>2013-04-01T09:04:09Z</time>
 <fix>none</fix>
 <sat>0</sat>
</trkpt>
<trkpt lat="31.694021667" lon="34.957010000">
<time>2013-04-01T09:04:11Z</time>
 <fix>none</fix>
 <sat>0</sat>
</trkpt>
<trkpt lat="31.694000000" lon="34.957060000">
<time>2013-04-01T09:04:13Z</time>
 <fix>none</fix>
 <sat>0</sat>
</trkpt>
<trkpt lat="31.693995000" lon="34.957113333">
<time>2013-04-01T09:04:15Z</time>
 <fix>none</fix>
 <sat>0</sat>
</trkpt>
<trkpt lat="31.693993333" lon="34.957165000">
<time>2013-04-01T09:04:17Z</time>
 <fix>none</fix>
 <sat>0</sat>
</trkpt>
<trkpt lat="31.693990000" lon="34.957215000">
<time>2013-04-01T09:04:19Z</time>
 <fix>none</fix>
 <sat>0</sat>
</trkpt>
<trkpt lat="31.693990000" lon="34.957271667">
<time>2013-04-01T09:04:21Z</time>
 <fix>none</fix>
 <sat>0</sat>
</trkpt>
<trkpt lat="31.693998333" lon="34.957325000">
<time>2013-04-01T09:04:23Z</time>
 <fix>none</fix>
 <sat>0</sat>
</trkpt>
<trkpt lat="31.694005000" lon="34.957351667">
<time>2013-04-01T09:04:25Z</time>
 <fix>none</fix>
 <sat>0</sat>
</trkpt>
<trkpt lat="31.694015000" lon="34.957405000">
<time>2013-04-01T09:04:27Z</time>
 <fix>none</fix>
 <sat>0</sat>
</trkpt>
<trkpt lat="31.694023333" lon="34.957455000">
<time>2013-04-01T09:04:29Z</time>
 <fix>none</fix>
 <sat>0</sat>
</trkpt>
<trkpt lat="31.694038333" lon="34.957533333">
<time>2013-04-01T09:04:31Z</time>
 <fix>none</fix>
 <sat>0</sat>
</trkpt>
<trkpt lat="31.694045000" lon="34.957588333">
<time>2013-04-01T09:04:33Z</time>
 <fix>none</fix>
 <sat>0</sat>
</trkpt>
<trkpt lat="31.694048333" lon="34.957646667">
<time>2013-04-01T09:04:35Z</time>
 <fix>none</fix>
 <sat>0</sat>
</trkpt>
<trkpt lat="31.694056667" lon="34.957701667">
<time>2013-04-01T09:04:37Z</time>
 <fix>none</fix>
 <sat>0</sat>
</trkpt>
<trkpt lat="31.694065000" lon="34.957751667">
<time>2013-04-01T09:04:39Z</time>
 <fix>none</fix>
 <sat>0</sat>
</trkpt>
<trkpt lat="31.694078333" lon="34.957805000">
<time>2013-04-01T09:04:41Z</time>
 <fix>none</fix>
 <sat>0</sat>
</trkpt>
<trkpt lat="31.694091667" lon="34.957856667">
<time>2013-04-01T09:04:43Z</time>
 <fix>none</fix>
 <sat>0</sat>
</trkpt>
<trkpt lat="31.694110000" lon="34.957908333">
<time>2013-04-01T09:04:45Z</time>
 <fix>none</fix>
 <sat>0</sat>
</trkpt>
<trkpt lat="31.694121667" lon="34.957933333">
<time>2013-04-01T09:04:47Z</time>
 <fix>none</fix>
 <sat>0</sat>
</trkpt>
<trkpt lat="31.694150000" lon="34.957978333">
<time>2013-04-01T09:04:49Z</time>
 <fix>none</fix>
 <sat>0</sat>
</trkpt>
<trkpt lat="31.694183333" lon="34.958015000">
<time>2013-04-01T09:04:51Z</time>
 <fix>none</fix>
 <sat>0</sat>
</trkpt>
<trkpt lat="31.694206667" lon="34.958048333">
<time>2013-04-01T09:04:53Z</time>
 <fix>none</fix>
 <sat>0</sat>
</trkpt>
<trkpt lat="31.694240000" lon="34.958111667">
<time>2013-04-01T09:04:55Z</time>
 <fix>none</fix>
 <sat>0</sat>
</trkpt>
<trkpt lat="31.694260000" lon="34.958151667">
<time>2013-04-01T09:04:57Z</time>
 <fix>none</fix>
 <sat>0</sat>
</trkpt>
<trkpt lat="31.694280000" lon="34.958198333">
<time>2013-04-01T09:04:59Z</time>
 <fix>none</fix>
 <sat>0</sat>
</trkpt>
<trkpt lat="31.694291667" lon="34.958250000">
<time>2013-04-01T09:05:01Z</time>
 <fix>none</fix>
 <sat>0</sat>
</trkpt>
<trkpt lat="31.694306667" lon="34.958291667">
<time>2013-04-01T09:05:03Z</time>
 <fix>none</fix>
 <sat>0</sat>
</trkpt>
<trkpt lat="31.694340000" lon="34.958316667">
<time>2013-04-01T09:05:05Z</time>
 <fix>none</fix>
 <sat>0</sat>
</trkpt>
<trkpt lat="31.694376667" lon="34.958335000">
<time>2013-04-01T09:05:07Z</time>
 <fix>none</fix>
 <sat>0</sat>
</trkpt>
<trkpt lat="31.694420000" lon="34.958340000">
<time>2013-04-01T09:05:09Z</time>
 <fix>none</fix>
 <sat>0</sat>
</trkpt>
<trkpt lat="31.694440000" lon="34.958338333">
<time>2013-04-01T09:05:11Z</time>
 <fix>none</fix>
 <sat>0</sat>
</trkpt>
<trkpt lat="31.694496667" lon="34.958353333">
<time>2013-04-01T09:05:13Z</time>
 <fix>none</fix>
 <sat>0</sat>
</trkpt>
<trkpt lat="31.694540000" lon="34.958371667">
<time>2013-04-01T09:05:15Z</time>
 <fix>none</fix>
 <sat>0</sat>
</trkpt>
<trkpt lat="31.694591667" lon="34.958395000">
<time>2013-04-01T09:05:17Z</time>
 <fix>none</fix>
 <sat>0</sat>
</trkpt>
<trkpt lat="31.694650000" lon="34.958403333">
<time>2013-04-01T09:05:19Z</time>
 <fix>none</fix>
 <sat>0</sat>
</trkpt>
<trkpt lat="31.694705000" lon="34.958398333">
<time>2013-04-01T09:05:21Z</time>
 <fix>none</fix>
 <sat>0</sat>
</trkpt>
<trkpt lat="31.694755000" lon="34.958386667">
<time>2013-04-01T09:05:23Z</time>
 <fix>none</fix>
 <sat>0</sat>
</trkpt>
<trkpt lat="31.694806667" lon="34.958376667">
<time>2013-04-01T09:05:25Z</time>
 <fix>none</fix>
 <sat>0</sat>
</trkpt>
<trkpt lat="31.694858333" lon="34.958376667">
<time>2013-04-01T09:05:27Z</time>
 <fix>none</fix>
 <sat>0</sat>
</trkpt>
<trkpt lat="31.694910000" lon="34.958385000">
<time>2013-04-01T09:05:29Z</time>
 <fix>none</fix>
 <sat>0</sat>
</trkpt>
<trkpt lat="31.694965000" lon="34.958396667">
<time>2013-04-01T09:05:31Z</time>
 <fix>none</fix>
 <sat>0</sat>
</trkpt>
<trkpt lat="31.694988333" lon="34.958406667">
<time>2013-04-01T09:05:33Z</time>
 <fix>none</fix>
 <sat>0</sat>
</trkpt>
<trkpt lat="31.695033333" lon="34.958418333">
<time>2013-04-01T09:05:35Z</time>
 <fix>none</fix>
 <sat>0</sat>
</trkpt>
<trkpt lat="31.695075000" lon="34.958441667">
<time>2013-04-01T09:05:37Z</time>
 <fix>none</fix>
 <sat>0</sat>
</trkpt>
<trkpt lat="31.695118333" lon="34.958478333">
<time>2013-04-01T09:05:39Z</time>
 <fix>none</fix>
 <sat>0</sat>
</trkpt>
<trkpt lat="31.695185000" lon="34.958565000">
<time>2013-04-01T09:05:41Z</time>
 <fix>none</fix>
 <sat>0</sat>
</trkpt>
<trkpt lat="31.695215000" lon="34.958638333">
<time>2013-04-01T09:05:43Z</time>
 <fix>none</fix>
 <sat>0</sat>
</trkpt>
<trkpt lat="31.695245000" lon="34.958735000">
<time>2013-04-01T09:05:45Z</time>
 <fix>none</fix>
 <sat>0</sat>
</trkpt>
<trkpt lat="31.695276667" lon="34.958841667">
<time>2013-04-01T09:05:47Z</time>
 <fix>none</fix>
 <sat>0</sat>
</trkpt>
<trkpt lat="31.695305000" lon="34.958951667">
<time>2013-04-01T09:05:49Z</time>
 <fix>none</fix>
 <sat>0</sat>
</trkpt>
<trkpt lat="31.695326667" lon="34.959060000">
<time>2013-04-01T09:05:51Z</time>
 <fix>none</fix>
 <sat>0</sat>
</trkpt>
<trkpt lat="31.695346667" lon="34.959158333">
<time>2013-04-01T09:05:53Z</time>
 <fix>none</fix>
 <sat>0</sat>
</trkpt>
<trkpt lat="31.695363333" lon="34.959198333">
<time>2013-04-01T09:05:55Z</time>
 <fix>none</fix>
 <sat>0</sat>
</trkpt>
<trkpt lat="31.695388333" lon="34.959278333">
<time>2013-04-01T09:05:57Z</time>
 <fix>none</fix>
 <sat>0</sat>
</trkpt>
<trkpt lat="31.695400000" lon="34.959363333">
<time>2013-04-01T09:05:59Z</time>
 <fix>none</fix>
 <sat>0</sat>
</trkpt>
<trkpt lat="31.695400000" lon="34.959495000">
<time>2013-04-01T09:06:01Z</time>
 <fix>none</fix>
 <sat>0</sat>
</trkpt>
<trkpt lat="31.695403333" lon="34.959573333">
<time>2013-04-01T09:06:03Z</time>
 <fix>none</fix>
 <sat>0</sat>
</trkpt>
<trkpt lat="31.695418333" lon="34.959636667">
<time>2013-04-01T09:06:05Z</time>
 <fix>none</fix>
 <sat>0</sat>
</trkpt>
<trkpt lat="31.695438333" lon="34.959681667">
<time>2013-04-01T09:06:07Z</time>
 <fix>none</fix>
 <sat>0</sat>
</trkpt>
<trkpt lat="31.695465000" lon="34.959706667">
<time>2013-04-01T09:06:09Z</time>
 <fix>none</fix>
 <sat>0</sat>
</trkpt>
<trkpt lat="31.695486667" lon="34.959710000">
<time>2013-04-01T09:06:11Z</time>
 <fix>none</fix>
 <sat>0</sat>
</trkpt>
<trkpt lat="31.695493333" lon="34.959718333">
<time>2013-04-01T09:06:13Z</time>
 <fix>none</fix>
 <sat>0</sat>
</trkpt>
<trkpt lat="31.695501667" lon="34.959726667">
<time>2013-04-01T09:06:15Z</time>
 <fix>none</fix>
 <sat>0</sat>
</trkpt>
<trkpt lat="31.695505000" lon="34.959731667">
<time>2013-04-01T09:06:17Z</time>
 <fix>none</fix>
 <sat>0</sat>
</trkpt>
<trkpt lat="31.695505000" lon="34.959733333">
<time>2013-04-01T09:06:19Z</time>
 <fix>none</fix>
 <sat>0</sat>
</trkpt>
<trkpt lat="31.695510000" lon="34.959728333">
<time>2013-04-01T09:06:21Z</time>
 <fix>none</fix>
 <sat>0</sat>
</trkpt>
<trkpt lat="31.695521667" lon="34.959728333">
<time>2013-04-01T09:06:23Z</time>
 <fix>none</fix>
 <sat>0</sat>
</trkpt>
<trkpt lat="31.695533333" lon="34.959731667">
<time>2013-04-01T09:06:25Z</time>
 <fix>none</fix>
 <sat>0</sat>
</trkpt>
<trkpt lat="31.695541667" lon="34.959736667">
<time>2013-04-01T09:06:27Z</time>
 <fix>none</fix>
 <sat>0</sat>
</trkpt>
<trkpt lat="31.695555000" lon="34.959741667">
<time>2013-04-01T09:06:29Z</time>
 <fix>none</fix>
 <sat>0</sat>
</trkpt>
<trkpt lat="31.695565000" lon="34.959763333">
<time>2013-04-01T09:06:31Z</time>
 <fix>none</fix>
 <sat>0</sat>
</trkpt>
<trkpt lat="31.695580000" lon="34.959776667">
<time>2013-04-01T09:06:33Z</time>
 <fix>none</fix>
 <sat>0</sat>
</trkpt>
<trkpt lat="31.695600000" lon="34.959786667">
<time>2013-04-01T09:06:35Z</time>
 <fix>none</fix>
 <sat>0</sat>
</trkpt>
<trkpt lat="31.695616667" lon="34.959796667">
<time>2013-04-01T09:06:37Z</time>
 <fix>none</fix>
 <sat>0</sat>
</trkpt>
<trkpt lat="31.695633333" lon="34.959801667">
<time>2013-04-01T09:06:39Z</time>
 <fix>none</fix>
 <sat>0</sat>
</trkpt>
<trkpt lat="31.695638333" lon="34.959805000">
<time>2013-04-01T09:06:41Z</time>
 <fix>none</fix>
 <sat>0</sat>
</trkpt>
<trkpt lat="31.695651667" lon="34.959810000">
<time>2013-04-01T09:06:43Z</time>
 <fix>none</fix>
 <sat>0</sat>
</trkpt>
<trkpt lat="31.695666667" lon="34.959818333">
<time>2013-04-01T09:06:45Z</time>
 <fix>none</fix>
 <sat>0</sat>
</trkpt>
<trkpt lat="31.695703333" lon="34.959851667">
<time>2013-04-01T09:06:47Z</time>
 <fix>none</fix>
 <sat>0</sat>
</trkpt>
<trkpt lat="31.695708333" lon="34.959855000">
<time>2013-04-01T09:06:49Z</time>
 <fix>none</fix>
 <sat>0</sat>
</trkpt>
<trkpt lat="31.695718333" lon="34.959875000">
<time>2013-04-01T09:06:51Z</time>
 <fix>none</fix>
 <sat>0</sat>
</trkpt>
<trkpt lat="31.695725000" lon="34.959916667">
<time>2013-04-01T09:06:53Z</time>
 <fix>none</fix>
 <sat>0</sat>
</trkpt>
<trkpt lat="31.695735000" lon="34.959960000">
<time>2013-04-01T09:06:55Z</time>
 <fix>none</fix>
 <sat>0</sat>
</trkpt>
<trkpt lat="31.695745000" lon="34.960003333">
<time>2013-04-01T09:06:57Z</time>
 <fix>none</fix>
 <sat>0</sat>
</trkpt>
<trkpt lat="31.695761667" lon="34.960046667">
<time>2013-04-01T09:06:59Z</time>
 <fix>none</fix>
 <sat>0</sat>
</trkpt>
<trkpt lat="31.695795000" lon="34.960071667">
<time>2013-04-01T09:07:01Z</time>
 <fix>none</fix>
 <sat>0</sat>
</trkpt>
<trkpt lat="31.695838333" lon="34.960073333">
<time>2013-04-01T09:07:03Z</time>
 <fix>none</fix>
 <sat>0</sat>
</trkpt>
<trkpt lat="31.695861667" lon="34.960070000">
<time>2013-04-01T09:07:05Z</time>
 <fix>none</fix>
 <sat>0</sat>
</trkpt>
<trkpt lat="31.695918333" lon="34.960048333">
<time>2013-04-01T09:07:07Z</time>
 <fix>none</fix>
 <sat>0</sat>
</trkpt>
<trkpt lat="31.695981667" lon="34.960051667">
<time>2013-04-01T09:07:09Z</time>
 <fix>none</fix>
 <sat>0</sat>
</trkpt>
<trkpt lat="31.696050000" lon="34.960135000">
<time>2013-04-01T09:07:11Z</time>
 <fix>none</fix>
 <sat>0</sat>
</trkpt>
<trkpt lat="31.696075000" lon="34.960203333">
<time>2013-04-01T09:07:13Z</time>
 <fix>none</fix>
 <sat>0</sat>
</trkpt>
<trkpt lat="31.696080000" lon="34.960285000">
<time>2013-04-01T09:07:15Z</time>
 <fix>none</fix>
 <sat>0</sat>
</trkpt>
<trkpt lat="31.696071667" lon="34.960363333">
<time>2013-04-01T09:07:17Z</time>
 <fix>none</fix>
 <sat>0</sat>
</trkpt>
<trkpt lat="31.696070000" lon="34.960400000">
<time>2013-04-01T09:07:19Z</time>
 <fix>none</fix>
 <sat>0</sat>
</trkpt>
<trkpt lat="31.696045000" lon="34.960498333">
<time>2013-04-01T09:07:21Z</time>
 <fix>none</fix>
 <sat>0</sat>
</trkpt>
<trkpt lat="31.696031667" lon="34.960563333">
<time>2013-04-01T09:07:23Z</time>
 <fix>none</fix>
 <sat>0</sat>
</trkpt>
<trkpt lat="31.696035000" lon="34.960626667">
<time>2013-04-01T09:07:25Z</time>
 <fix>none</fix>
 <sat>0</sat>
</trkpt>
<trkpt lat="31.696035000" lon="34.960660000">
<time>2013-04-01T09:07:27Z</time>
 <fix>none</fix>
 <sat>0</sat>
</trkpt>
<trkpt lat="31.696031667" lon="34.960730000">
<time>2013-04-01T09:07:29Z</time>
 <fix>none</fix>
 <sat>0</sat>
</trkpt>
<trkpt lat="31.696028333" lon="34.960796667">
<time>2013-04-01T09:07:31Z</time>
 <fix>none</fix>
 <sat>0</sat>
</trkpt>
<trkpt lat="31.696015000" lon="34.960901667">
<time>2013-04-01T09:07:33Z</time>
 <fix>none</fix>
 <sat>0</sat>
</trkpt>
<trkpt lat="31.696000000" lon="34.960958333">
<time>2013-04-01T09:07:35Z</time>
 <fix>none</fix>
 <sat>0</sat>
</trkpt>
<trkpt lat="31.695985000" lon="34.961013333">
<time>2013-04-01T09:07:37Z</time>
 <fix>none</fix>
 <sat>0</sat>
</trkpt>
<trkpt lat="31.695966667" lon="34.961068333">
<time>2013-04-01T09:07:39Z</time>
 <fix>none</fix>
 <sat>0</sat>
</trkpt>
<trkpt lat="31.695951667" lon="34.961128333">
<time>2013-04-01T09:07:41Z</time>
 <fix>none</fix>
 <sat>0</sat>
</trkpt>
<trkpt lat="31.695941667" lon="34.961186667">
<time>2013-04-01T09:07:43Z</time>
 <fix>none</fix>
 <sat>0</sat>
</trkpt>
<trkpt lat="31.695940000" lon="34.961245000">
<time>2013-04-01T09:07:45Z</time>
 <fix>none</fix>
 <sat>0</sat>
</trkpt>
<trkpt lat="31.695940000" lon="34.961298333">
<time>2013-04-01T09:07:47Z</time>
 <fix>none</fix>
 <sat>0</sat>
</trkpt>
<trkpt lat="31.695940000" lon="34.961325000">
<time>2013-04-01T09:07:49Z</time>
 <fix>none</fix>
 <sat>0</sat>
</trkpt>
<trkpt lat="31.695936667" lon="34.961378333">
<time>2013-04-01T09:07:51Z</time>
 <fix>none</fix>
 <sat>0</sat>
</trkpt>
<trkpt lat="31.695935000" lon="34.961431667">
<time>2013-04-01T09:07:53Z</time>
 <fix>none</fix>
 <sat>0</sat>
</trkpt>
<trkpt lat="31.695931667" lon="34.961480000">
<time>2013-04-01T09:07:55Z</time>
 <fix>none</fix>
 <sat>0</sat>
</trkpt>
<trkpt lat="31.695923333" lon="34.961553333">
<time>2013-04-01T09:07:57Z</time>
 <fix>none</fix>
 <sat>0</sat>
</trkpt>
<trkpt lat="31.695920000" lon="34.961600000">
<time>2013-04-01T09:07:59Z</time>
 <fix>none</fix>
 <sat>0</sat>
</trkpt>
<trkpt lat="31.695915000" lon="34.961645000">
<time>2013-04-01T09:08:01Z</time>
 <fix>none</fix>
 <sat>0</sat>
</trkpt>
<trkpt lat="31.695913333" lon="34.961666667">
<time>2013-04-01T09:08:03Z</time>
 <fix>none</fix>
 <sat>0</sat>
</trkpt>
<trkpt lat="31.695908333" lon="34.961711667">
<time>2013-04-01T09:08:05Z</time>
 <fix>none</fix>
 <sat>0</sat>
</trkpt>
<trkpt lat="31.695905000" lon="34.961776667">
<time>2013-04-01T09:08:07Z</time>
 <fix>none</fix>
 <sat>0</sat>
</trkpt>
<trkpt lat="31.695903333" lon="34.961820000">
<time>2013-04-01T09:08:09Z</time>
 <fix>none</fix>
 <sat>0</sat>
</trkpt>
<trkpt lat="31.695903333" lon="34.961863333">
<time>2013-04-01T09:08:11Z</time>
 <fix>none</fix>
 <sat>0</sat>
</trkpt>
<trkpt lat="31.695905000" lon="34.961886667">
<time>2013-04-01T09:08:13Z</time>
 <fix>none</fix>
 <sat>0</sat>
</trkpt>
<trkpt lat="31.695905000" lon="34.961933333">
<time>2013-04-01T09:08:15Z</time>
 <fix>none</fix>
 <sat>0</sat>
</trkpt>
<trkpt lat="31.695908333" lon="34.962008333">
<time>2013-04-01T09:08:17Z</time>
 <fix>none</fix>
 <sat>0</sat>
</trkpt>
<trkpt lat="31.695916667" lon="34.962061667">
<time>2013-04-01T09:08:19Z</time>
 <fix>none</fix>
 <sat>0</sat>
</trkpt>
<trkpt lat="31.695923333" lon="34.962111667">
<time>2013-04-01T09:08:21Z</time>
 <fix>none</fix>
 <sat>0</sat>
</trkpt>
<trkpt lat="31.695930000" lon="34.962160000">
<time>2013-04-01T09:08:23Z</time>
 <fix>none</fix>
 <sat>0</sat>
</trkpt>
<trkpt lat="31.695936667" lon="34.962205000">
<time>2013-04-01T09:08:25Z</time>
 <fix>none</fix>
 <sat>0</sat>
</trkpt>
<trkpt lat="31.695938333" lon="34.962250000">
<time>2013-04-01T09:08:27Z</time>
 <fix>none</fix>
 <sat>0</sat>
</trkpt>
<trkpt lat="31.695935000" lon="34.962296667">
<time>2013-04-01T09:08:29Z</time>
 <fix>none</fix>
 <sat>0</sat>
</trkpt>
<trkpt lat="31.695930000" lon="34.962343333">
<time>2013-04-01T09:08:31Z</time>
 <fix>none</fix>
 <sat>0</sat>
</trkpt>
<trkpt lat="31.695913333" lon="34.962403333">
<time>2013-04-01T09:08:33Z</time>
 <fix>none</fix>
 <sat>0</sat>
</trkpt>
<trkpt lat="31.695903333" lon="34.962433333">
<time>2013-04-01T09:08:35Z</time>
 <fix>none</fix>
 <sat>0</sat>
</trkpt>
<trkpt lat="31.695878333" lon="34.962490000">
<time>2013-04-01T09:08:37Z</time>
 <fix>none</fix>
 <sat>0</sat>
</trkpt>
<trkpt lat="31.695850000" lon="34.962536667">
<time>2013-04-01T09:08:39Z</time>
 <fix>none</fix>
 <sat>0</sat>
</trkpt>
<trkpt lat="31.695816667" lon="34.962606667">
<time>2013-04-01T09:08:41Z</time>
 <fix>none</fix>
 <sat>0</sat>
</trkpt>
<trkpt lat="31.695795000" lon="34.962653333">
<time>2013-04-01T09:08:43Z</time>
 <fix>none</fix>
 <sat>0</sat>
</trkpt>
<trkpt lat="31.695775000" lon="34.962703333">
<time>2013-04-01T09:08:45Z</time>
 <fix>none</fix>
 <sat>0</sat>
</trkpt>
<trkpt lat="31.695755000" lon="34.962751667">
<time>2013-04-01T09:08:47Z</time>
 <fix>none</fix>
 <sat>0</sat>
</trkpt>
<trkpt lat="31.695735000" lon="34.962803333">
<time>2013-04-01T09:08:49Z</time>
 <fix>none</fix>
 <sat>0</sat>
</trkpt>
<trkpt lat="31.695720000" lon="34.962858333">
<time>2013-04-01T09:08:51Z</time>
 <fix>none</fix>
 <sat>0</sat>
</trkpt>
<trkpt lat="31.695703333" lon="34.962913333">
<time>2013-04-01T09:08:53Z</time>
 <fix>none</fix>
 <sat>0</sat>
</trkpt>
<trkpt lat="31.695690000" lon="34.962970000">
<time>2013-04-01T09:08:55Z</time>
 <fix>none</fix>
 <sat>0</sat>
</trkpt>
<trkpt lat="31.695681667" lon="34.963021667">
<time>2013-04-01T09:08:57Z</time>
 <fix>none</fix>
 <sat>0</sat>
</trkpt>
<trkpt lat="31.695678333" lon="34.963051667">
<time>2013-04-01T09:08:59Z</time>
 <fix>none</fix>
 <sat>0</sat>
</trkpt>
<trkpt lat="31.695665000" lon="34.963106667">
<time>2013-04-01T09:09:01Z</time>
 <fix>none</fix>
 <sat>0</sat>
</trkpt>
<trkpt lat="31.695653333" lon="34.963161667">
<time>2013-04-01T09:09:03Z</time>
 <fix>none</fix>
 <sat>0</sat>
</trkpt>
<trkpt lat="31.695656667" lon="34.963241667">
<time>2013-04-01T09:09:05Z</time>
 <fix>none</fix>
 <sat>0</sat>
</trkpt>
<trkpt lat="31.695668333" lon="34.963296667">
<time>2013-04-01T09:09:07Z</time>
 <fix>none</fix>
 <sat>0</sat>
</trkpt>
<trkpt lat="31.695686667" lon="34.963351667">
<time>2013-04-01T09:09:09Z</time>
 <fix>none</fix>
 <sat>0</sat>
</trkpt>
<trkpt lat="31.695708333" lon="34.963405000">
<time>2013-04-01T09:09:11Z</time>
 <fix>none</fix>
 <sat>0</sat>
</trkpt>
<trkpt lat="31.695740000" lon="34.963461667">
<time>2013-04-01T09:09:13Z</time>
 <fix>none</fix>
 <sat>0</sat>
</trkpt>
<trkpt lat="31.695773333" lon="34.963515000">
<time>2013-04-01T09:09:15Z</time>
 <fix>none</fix>
 <sat>0</sat>
</trkpt>
<trkpt lat="31.695800000" lon="34.963568333">
<time>2013-04-01T09:09:17Z</time>
 <fix>none</fix>
 <sat>0</sat>
</trkpt>
<trkpt lat="31.695825000" lon="34.963630000">
<time>2013-04-01T09:09:19Z</time>
 <fix>none</fix>
 <sat>0</sat>
</trkpt>
<trkpt lat="31.695836667" lon="34.963663333">
<time>2013-04-01T09:09:21Z</time>
 <fix>none</fix>
 <sat>0</sat>
</trkpt>
<trkpt lat="31.695861667" lon="34.963723333">
<time>2013-04-01T09:09:23Z</time>
 <fix>none</fix>
 <sat>0</sat>
</trkpt>
<trkpt lat="31.695890000" lon="34.963781667">
<time>2013-04-01T09:09:25Z</time>
 <fix>none</fix>
 <sat>0</sat>
</trkpt>
<trkpt lat="31.695920000" lon="34.963886667">
<time>2013-04-01T09:09:27Z</time>
 <fix>none</fix>
 <sat>0</sat>
</trkpt>
<trkpt lat="31.695936667" lon="34.963971667">
<time>2013-04-01T09:09:29Z</time>
 <fix>none</fix>
 <sat>0</sat>
</trkpt>
<trkpt lat="31.695960000" lon="34.964063333">
<time>2013-04-01T09:09:31Z</time>
 <fix>none</fix>
 <sat>0</sat>
</trkpt>
<trkpt lat="31.695986667" lon="34.964155000">
<time>2013-04-01T09:09:33Z</time>
 <fix>none</fix>
 <sat>0</sat>
</trkpt>
<trkpt lat="31.696013333" lon="34.964246667">
<time>2013-04-01T09:09:35Z</time>
 <fix>none</fix>
 <sat>0</sat>
</trkpt>
<trkpt lat="31.696045000" lon="34.964333333">
<time>2013-04-01T09:09:37Z</time>
 <fix>none</fix>
 <sat>0</sat>
</trkpt>
<trkpt lat="31.696085000" lon="34.964416667">
<time>2013-04-01T09:09:39Z</time>
 <fix>none</fix>
 <sat>0</sat>
</trkpt>
<trkpt lat="31.696121667" lon="34.964501667">
<time>2013-04-01T09:09:41Z</time>
 <fix>none</fix>
 <sat>0</sat>
</trkpt>
<trkpt lat="31.696140000" lon="34.964538333">
<time>2013-04-01T09:09:43Z</time>
 <fix>none</fix>
 <sat>0</sat>
</trkpt>
<trkpt lat="31.696178333" lon="34.964615000">
<time>2013-04-01T09:09:45Z</time>
 <fix>none</fix>
 <sat>0</sat>
</trkpt>
<trkpt lat="31.696211667" lon="34.964688333">
<time>2013-04-01T09:09:47Z</time>
 <fix>none</fix>
 <sat>0</sat>
</trkpt>
<trkpt lat="31.696241667" lon="34.964755000">
<time>2013-04-01T09:09:49Z</time>
 <fix>none</fix>
 <sat>0</sat>
</trkpt>
<trkpt lat="31.696275000" lon="34.964858333">
<time>2013-04-01T09:09:51Z</time>
 <fix>none</fix>
 <sat>0</sat>
</trkpt>
<trkpt lat="31.696291667" lon="34.964930000">
<time>2013-04-01T09:09:53Z</time>
 <fix>none</fix>
 <sat>0</sat>
</trkpt>
<trkpt lat="31.696306667" lon="34.965003333">
<time>2013-04-01T09:09:55Z</time>
 <fix>none</fix>
 <sat>0</sat>
</trkpt>
<trkpt lat="31.696316667" lon="34.965075000">
<time>2013-04-01T09:09:57Z</time>
 <fix>none</fix>
 <sat>0</sat>
</trkpt>
<trkpt lat="31.696323333" lon="34.965143333">
<time>2013-04-01T09:09:59Z</time>
 <fix>none</fix>
 <sat>0</sat>
</trkpt>
<trkpt lat="31.696321667" lon="34.965211667">
<time>2013-04-01T09:10:01Z</time>
 <fix>none</fix>
 <sat>0</sat>
</trkpt>
<trkpt lat="31.696315000" lon="34.965276667">
<time>2013-04-01T09:10:03Z</time>
 <fix>none</fix>
 <sat>0</sat>
</trkpt>
<trkpt lat="31.696301667" lon="34.965343333">
<time>2013-04-01T09:10:05Z</time>
 <fix>none</fix>
 <sat>0</sat>
</trkpt>
<trkpt lat="31.696291667" lon="34.965375000">
<time>2013-04-01T09:10:07Z</time>
 <fix>none</fix>
 <sat>0</sat>
</trkpt>
<trkpt lat="31.696266667" lon="34.965435000">
<time>2013-04-01T09:10:09Z</time>
 <fix>none</fix>
 <sat>0</sat>
</trkpt>
<trkpt lat="31.696220000" lon="34.965523333">
<time>2013-04-01T09:10:11Z</time>
 <fix>none</fix>
 <sat>0</sat>
</trkpt>
<trkpt lat="31.696190000" lon="34.965581667">
<time>2013-04-01T09:10:13Z</time>
 <fix>none</fix>
 <sat>0</sat>
</trkpt>
<trkpt lat="31.696165000" lon="34.965638333">
<time>2013-04-01T09:10:15Z</time>
 <fix>none</fix>
 <sat>0</sat>
</trkpt>
<trkpt lat="31.696138333" lon="34.965698333">
<time>2013-04-01T09:10:17Z</time>
 <fix>none</fix>
 <sat>0</sat>
</trkpt>
<trkpt lat="31.696113333" lon="34.965760000">
<time>2013-04-01T09:10:19Z</time>
 <fix>none</fix>
 <sat>0</sat>
</trkpt>
<trkpt lat="31.696095000" lon="34.965826667">
<time>2013-04-01T09:10:21Z</time>
 <fix>none</fix>
 <sat>0</sat>
</trkpt>
<trkpt lat="31.696091667" lon="34.965900000">
<time>2013-04-01T09:10:23Z</time>
 <fix>none</fix>
 <sat>0</sat>
</trkpt>
<trkpt lat="31.696105000" lon="34.965966667">
<time>2013-04-01T09:10:25Z</time>
 <fix>none</fix>
 <sat>0</sat>
</trkpt>
<trkpt lat="31.696133333" lon="34.966025000">
<time>2013-04-01T09:10:27Z</time>
 <fix>none</fix>
 <sat>0</sat>
</trkpt>
<trkpt lat="31.696150000" lon="34.966055000">
<time>2013-04-01T09:10:29Z</time>
 <fix>none</fix>
 <sat>0</sat>
</trkpt>
<trkpt lat="31.696170000" lon="34.966118333">
<time>2013-04-01T09:10:31Z</time>
 <fix>none</fix>
 <sat>0</sat>
</trkpt>
<trkpt lat="31.696185000" lon="34.966176667">
<time>2013-04-01T09:10:33Z</time>
 <fix>none</fix>
 <sat>0</sat>
</trkpt>
<trkpt lat="31.696200000" lon="34.966278333">
<time>2013-04-01T09:10:35Z</time>
 <fix>none</fix>
 <sat>0</sat>
</trkpt>
<trkpt lat="31.696223333" lon="34.966351667">
<time>2013-04-01T09:10:37Z</time>
 <fix>none</fix>
 <sat>0</sat>
</trkpt>
<trkpt lat="31.696248333" lon="34.966421667">
<time>2013-04-01T09:10:39Z</time>
 <fix>none</fix>
 <sat>0</sat>
</trkpt>
<trkpt lat="31.696268333" lon="34.966498333">
<time>2013-04-01T09:10:41Z</time>
 <fix>none</fix>
 <sat>0</sat>
</trkpt>
<trkpt lat="31.696286667" lon="34.966578333">
<time>2013-04-01T09:10:43Z</time>
 <fix>none</fix>
 <sat>0</sat>
</trkpt>
<trkpt lat="31.696308333" lon="34.966648333">
<time>2013-04-01T09:10:45Z</time>
 <fix>none</fix>
 <sat>0</sat>
</trkpt>
<trkpt lat="31.696341667" lon="34.966705000">
<time>2013-04-01T09:10:47Z</time>
 <fix>none</fix>
 <sat>0</sat>
</trkpt>
<trkpt lat="31.696391667" lon="34.966725000">
<time>2013-04-01T09:10:49Z</time>
 <fix>none</fix>
 <sat>0</sat>
</trkpt>
<trkpt lat="31.696418333" lon="34.966725000">
<time>2013-04-01T09:10:51Z</time>
 <fix>none</fix>
 <sat>0</sat>
</trkpt>
<trkpt lat="31.696468333" lon="34.966716667">
<time>2013-04-01T09:10:53Z</time>
 <fix>none</fix>
 <sat>0</sat>
</trkpt>
<trkpt lat="31.696513333" lon="34.966715000">
<time>2013-04-01T09:10:55Z</time>
 <fix>none</fix>
 <sat>0</sat>
</trkpt>
<trkpt lat="31.696565000" lon="34.966713333">
<time>2013-04-01T09:10:57Z</time>
 <fix>none</fix>
 <sat>0</sat>
</trkpt>
<trkpt lat="31.696635000" lon="34.966716667">
<time>2013-04-01T09:10:59Z</time>
 <fix>none</fix>
 <sat>0</sat>
</trkpt>
<trkpt lat="31.696675000" lon="34.966730000">
<time>2013-04-01T09:11:01Z</time>
 <fix>none</fix>
 <sat>0</sat>
</trkpt>
<trkpt lat="31.696710000" lon="34.966746667">
<time>2013-04-01T09:11:03Z</time>
 <fix>none</fix>
 <sat>0</sat>
</trkpt>
<trkpt lat="31.696731667" lon="34.966763333">
<time>2013-04-01T09:11:05Z</time>
 <fix>none</fix>
 <sat>0</sat>
</trkpt>
<trkpt lat="31.696766667" lon="34.966795000">
<time>2013-04-01T09:11:07Z</time>
 <fix>none</fix>
 <sat>0</sat>
</trkpt>
<trkpt lat="31.696806667" lon="34.966830000">
<time>2013-04-01T09:11:09Z</time>
 <fix>none</fix>
 <sat>0</sat>
</trkpt>
<trkpt lat="31.696838333" lon="34.966855000">
<time>2013-04-01T09:11:11Z</time>
 <fix>none</fix>
 <sat>0</sat>
</trkpt>
<trkpt lat="31.696871667" lon="34.966870000">
<time>2013-04-01T09:11:13Z</time>
 <fix>none</fix>
 <sat>0</sat>
</trkpt>
<trkpt lat="31.696891667" lon="34.966873333">
<time>2013-04-01T09:11:15Z</time>
 <fix>none</fix>
 <sat>0</sat>
</trkpt>
<trkpt lat="31.696930000" lon="34.966888333">
<time>2013-04-01T09:11:17Z</time>
 <fix>none</fix>
 <sat>0</sat>
</trkpt>
<trkpt lat="31.696961667" lon="34.966908333">
<time>2013-04-01T09:11:19Z</time>
 <fix>none</fix>
 <sat>0</sat>
</trkpt>
<trkpt lat="31.696983333" lon="34.966971667">
<time>2013-04-01T09:11:21Z</time>
 <fix>none</fix>
 <sat>0</sat>
</trkpt>
<trkpt lat="31.696970000" lon="34.967023333">
<time>2013-04-01T09:11:23Z</time>
 <fix>none</fix>
 <sat>0</sat>
</trkpt>
<trkpt lat="31.696965000" lon="34.967088333">
<time>2013-04-01T09:11:25Z</time>
 <fix>none</fix>
 <sat>0</sat>
</trkpt>
<trkpt lat="31.696976667" lon="34.967156667">
<time>2013-04-01T09:11:27Z</time>
 <fix>none</fix>
 <sat>0</sat>
</trkpt>
<trkpt lat="31.696995000" lon="34.967236667">
<time>2013-04-01T09:11:29Z</time>
 <fix>none</fix>
 <sat>0</sat>
</trkpt>
<trkpt lat="31.697023333" lon="34.967311667">
<time>2013-04-01T09:11:31Z</time>
 <fix>none</fix>
 <sat>0</sat>
</trkpt>
<trkpt lat="31.697043333" lon="34.967378333">
<time>2013-04-01T09:11:33Z</time>
 <fix>none</fix>
 <sat>0</sat>
</trkpt>
<trkpt lat="31.697056667" lon="34.967436667">
<time>2013-04-01T09:11:35Z</time>
 <fix>none</fix>
 <sat>0</sat>
</trkpt>
<trkpt lat="31.697058333" lon="34.967458333">
<time>2013-04-01T09:11:37Z</time>
 <fix>none</fix>
 <sat>0</sat>
</trkpt>
<trkpt lat="31.697060000" lon="34.967485000">
<time>2013-04-01T09:11:39Z</time>
 <fix>none</fix>
 <sat>0</sat>
</trkpt>
<trkpt lat="31.697060000" lon="34.967485000">
<time>2013-04-01T09:11:41Z</time>
 <fix>none</fix>
 <sat>0</sat>
</trkpt>
<trkpt lat="31.697060000" lon="34.967486667">
<time>2013-04-01T09:11:43Z</time>
 <fix>none</fix>
 <sat>0</sat>
</trkpt>
<trkpt lat="31.697060000" lon="34.967486667">
<time>2013-04-01T09:11:45Z</time>
 <fix>none</fix>
 <sat>0</sat>
</trkpt>
<trkpt lat="31.697058333" lon="34.967488333">
<time>2013-04-01T09:11:47Z</time>
 <fix>none</fix>
 <sat>0</sat>
</trkpt>
<trkpt lat="31.697053333" lon="34.967490000">
<time>2013-04-01T09:11:49Z</time>
 <fix>none</fix>
 <sat>0</sat>
</trkpt>
<trkpt lat="31.697053333" lon="34.967491667">
<time>2013-04-01T09:11:51Z</time>
 <fix>none</fix>
 <sat>0</sat>
</trkpt>
<trkpt lat="31.697055000" lon="34.967490000">
<time>2013-04-01T09:11:53Z</time>
 <fix>none</fix>
 <sat>0</sat>
</trkpt>
<trkpt lat="31.697051667" lon="34.967488333">
<time>2013-04-01T09:11:55Z</time>
 <fix>none</fix>
 <sat>0</sat>
</trkpt>
<trkpt lat="31.697048333" lon="34.967485000">
<time>2013-04-01T09:11:57Z</time>
 <fix>none</fix>
 <sat>0</sat>
</trkpt>
<trkpt lat="31.697041667" lon="34.967481667">
<time>2013-04-01T09:11:59Z</time>
 <fix>none</fix>
 <sat>0</sat>
</trkpt>
<trkpt lat="31.697038333" lon="34.967481667">
<time>2013-04-01T09:12:01Z</time>
 <fix>none</fix>
 <sat>0</sat>
</trkpt>
<trkpt lat="31.697030000" lon="34.967486667">
<time>2013-04-01T09:12:03Z</time>
 <fix>none</fix>
 <sat>0</sat>
</trkpt>
<trkpt lat="31.696991667" lon="34.967483333">
<time>2013-04-01T09:12:05Z</time>
 <fix>none</fix>
 <sat>0</sat>
</trkpt>
<trkpt lat="31.696943333" lon="34.967506667">
<time>2013-04-01T09:12:07Z</time>
 <fix>none</fix>
 <sat>0</sat>
</trkpt>
<trkpt lat="31.696885000" lon="34.967546667">
<time>2013-04-01T09:12:09Z</time>
 <fix>none</fix>
 <sat>0</sat>
</trkpt>
<trkpt lat="31.696820000" lon="34.967600000">
<time>2013-04-01T09:12:11Z</time>
 <fix>none</fix>
 <sat>0</sat>
</trkpt>
<trkpt lat="31.696748333" lon="34.967641667">
<time>2013-04-01T09:12:13Z</time>
 <fix>none</fix>
 <sat>0</sat>
</trkpt>
<trkpt lat="31.696675000" lon="34.967656667">
<time>2013-04-01T09:12:15Z</time>
 <fix>none</fix>
 <sat>0</sat>
</trkpt>
<trkpt lat="31.696595000" lon="34.967650000">
<time>2013-04-01T09:12:17Z</time>
 <fix>none</fix>
 <sat>0</sat>
</trkpt>
<trkpt lat="31.696508333" lon="34.967630000">
<time>2013-04-01T09:12:19Z</time>
 <fix>none</fix>
 <sat>0</sat>
</trkpt>
<trkpt lat="31.696418333" lon="34.967613333">
<time>2013-04-01T09:12:21Z</time>
 <fix>none</fix>
 <sat>0</sat>
</trkpt>
<trkpt lat="31.696370000" lon="34.967605000">
<time>2013-04-01T09:12:23Z</time>
 <fix>none</fix>
 <sat>0</sat>
</trkpt>
<trkpt lat="31.696281667" lon="34.967595000">
<time>2013-04-01T09:12:25Z</time>
 <fix>none</fix>
 <sat>0</sat>
</trkpt>
<trkpt lat="31.696191667" lon="34.967591667">
<time>2013-04-01T09:12:27Z</time>
 <fix>none</fix>
 <sat>0</sat>
</trkpt>
<trkpt lat="31.696043333" lon="34.967600000">
<time>2013-04-01T09:12:29Z</time>
 <fix>none</fix>
 <sat>0</sat>
</trkpt>
<trkpt lat="31.695936667" lon="34.967613333">
<time>2013-04-01T09:12:31Z</time>
 <fix>none</fix>
 <sat>0</sat>
</trkpt>
<trkpt lat="31.695830000" lon="34.967626667">
<time>2013-04-01T09:12:33Z</time>
 <fix>none</fix>
 <sat>0</sat>
</trkpt>
<trkpt lat="31.695725000" lon="34.967636667">
<time>2013-04-01T09:12:35Z</time>
 <fix>none</fix>
 <sat>0</sat>
</trkpt>
<trkpt lat="31.695621667" lon="34.967626667">
<time>2013-04-01T09:12:37Z</time>
 <fix>none</fix>
 <sat>0</sat>
</trkpt>
<trkpt lat="31.695528333" lon="34.967600000">
<time>2013-04-01T09:12:39Z</time>
 <fix>none</fix>
 <sat>0</sat>
</trkpt>
<trkpt lat="31.695448333" lon="34.967568333">
<time>2013-04-01T09:12:41Z</time>
 <fix>none</fix>
 <sat>0</sat>
</trkpt>
<trkpt lat="31.695368333" lon="34.967535000">
<time>2013-04-01T09:12:43Z</time>
 <fix>none</fix>
 <sat>0</sat>
</trkpt>
<trkpt lat="31.695291667" lon="34.967508333">
<time>2013-04-01T09:12:45Z</time>
 <fix>none</fix>
 <sat>0</sat>
</trkpt>
<trkpt lat="31.695260000" lon="34.967500000">
<time>2013-04-01T09:12:47Z</time>
 <fix>none</fix>
 <sat>0</sat>
</trkpt>
<trkpt lat="31.695205000" lon="34.967476667">
<time>2013-04-01T09:12:49Z</time>
 <fix>none</fix>
 <sat>0</sat>
</trkpt>
<trkpt lat="31.695131667" lon="34.967430000">
<time>2013-04-01T09:12:51Z</time>
 <fix>none</fix>
 <sat>0</sat>
</trkpt>
<trkpt lat="31.695090000" lon="34.967411667">
<time>2013-04-01T09:12:53Z</time>
 <fix>none</fix>
 <sat>0</sat>
</trkpt>
<trkpt lat="31.695050000" lon="34.967388333">
<time>2013-04-01T09:12:55Z</time>
 <fix>none</fix>
 <sat>0</sat>
</trkpt>
<trkpt lat="31.695008333" lon="34.967368333">
<time>2013-04-01T09:12:57Z</time>
 <fix>none</fix>
 <sat>0</sat>
</trkpt>
<trkpt lat="31.694968333" lon="34.967350000">
<time>2013-04-01T09:12:59Z</time>
 <fix>none</fix>
 <sat>0</sat>
</trkpt>
<trkpt lat="31.694956667" lon="34.967350000">
<time>2013-04-01T09:13:01Z</time>
 <fix>none</fix>
 <sat>0</sat>
</trkpt>
<trkpt lat="31.694958333" lon="34.967358333">
<time>2013-04-01T09:13:03Z</time>
 <fix>none</fix>
 <sat>0</sat>
</trkpt>
<trkpt lat="31.694955000" lon="34.967358333">
<time>2013-04-01T09:13:05Z</time>
 <fix>none</fix>
 <sat>0</sat>
</trkpt>
<trkpt lat="31.694948333" lon="34.967350000">
<time>2013-04-01T09:13:07Z</time>
 <fix>none</fix>
 <sat>0</sat>
</trkpt>
<trkpt lat="31.694941667" lon="34.967345000">
<time>2013-04-01T09:13:09Z</time>
 <fix>none</fix>
 <sat>0</sat>
</trkpt>
<trkpt lat="31.694921667" lon="34.967331667">
<time>2013-04-01T09:13:11Z</time>
 <fix>none</fix>
 <sat>0</sat>
</trkpt>
<trkpt lat="31.694888333" lon="34.967308333">
<time>2013-04-01T09:13:13Z</time>
 <fix>none</fix>
 <sat>0</sat>
</trkpt>
<trkpt lat="31.694803333" lon="34.967255000">
<time>2013-04-01T09:13:15Z</time>
 <fix>none</fix>
 <sat>0</sat>
</trkpt>
<trkpt lat="31.694741667" lon="34.967230000">
<time>2013-04-01T09:13:17Z</time>
 <fix>none</fix>
 <sat>0</sat>
</trkpt>
<trkpt lat="31.694685000" lon="34.967216667">
<time>2013-04-01T09:13:19Z</time>
 <fix>none</fix>
 <sat>0</sat>
</trkpt>
<trkpt lat="31.694620000" lon="34.967208333">
<time>2013-04-01T09:13:21Z</time>
 <fix>none</fix>
 <sat>0</sat>
</trkpt>
<trkpt lat="31.694550000" lon="34.967205000">
<time>2013-04-01T09:13:23Z</time>
 <fix>none</fix>
 <sat>0</sat>
</trkpt>
<trkpt lat="31.694481667" lon="34.967208333">
<time>2013-04-01T09:13:25Z</time>
 <fix>none</fix>
 <sat>0</sat>
</trkpt>
<trkpt lat="31.694416667" lon="34.967223333">
<time>2013-04-01T09:13:27Z</time>
 <fix>none</fix>
 <sat>0</sat>
</trkpt>
<trkpt lat="31.694351667" lon="34.967248333">
<time>2013-04-01T09:13:29Z</time>
 <fix>none</fix>
 <sat>0</sat>
</trkpt>
<trkpt lat="31.694326667" lon="34.967275000">
<time>2013-04-01T09:13:31Z</time>
 <fix>none</fix>
 <sat>0</sat>
</trkpt>
<trkpt lat="31.694291667" lon="34.967341667">
<time>2013-04-01T09:13:33Z</time>
 <fix>none</fix>
 <sat>0</sat>
</trkpt>
<trkpt lat="31.694265000" lon="34.967415000">
<time>2013-04-01T09:13:35Z</time>
 <fix>none</fix>
 <sat>0</sat>
</trkpt>
<trkpt lat="31.694228333" lon="34.967526667">
<time>2013-04-01T09:13:37Z</time>
 <fix>none</fix>
 <sat>0</sat>
</trkpt>
<trkpt lat="31.694216667" lon="34.967590000">
<time>2013-04-01T09:13:39Z</time>
 <fix>none</fix>
 <sat>0</sat>
</trkpt>
<trkpt lat="31.694200000" lon="34.967653333">
<time>2013-04-01T09:13:41Z</time>
 <fix>none</fix>
 <sat>0</sat>
</trkpt>
<trkpt lat="31.694185000" lon="34.967716667">
<time>2013-04-01T09:13:43Z</time>
 <fix>none</fix>
 <sat>0</sat>
</trkpt>
<trkpt lat="31.694180000" lon="34.967778333">
<time>2013-04-01T09:13:45Z</time>
 <fix>none</fix>
 <sat>0</sat>
</trkpt>
<trkpt lat="31.694183333" lon="34.967838333">
<time>2013-04-01T09:13:47Z</time>
 <fix>none</fix>
 <sat>0</sat>
</trkpt>
<trkpt lat="31.694188333" lon="34.967896667">
<time>2013-04-01T09:13:49Z</time>
 <fix>none</fix>
 <sat>0</sat>
</trkpt>
<trkpt lat="31.694191667" lon="34.967956667">
<time>2013-04-01T09:13:51Z</time>
 <fix>none</fix>
 <sat>0</sat>
</trkpt>
<trkpt lat="31.694193333" lon="34.968013333">
<time>2013-04-01T09:13:53Z</time>
 <fix>none</fix>
 <sat>0</sat>
</trkpt>
<trkpt lat="31.694193333" lon="34.968038333">
<time>2013-04-01T09:13:55Z</time>
 <fix>none</fix>
 <sat>0</sat>
</trkpt>
<trkpt lat="31.694191667" lon="34.968091667">
<time>2013-04-01T09:13:57Z</time>
 <fix>none</fix>
 <sat>0</sat>
</trkpt>
<trkpt lat="31.694193333" lon="34.968188333">
<time>2013-04-01T09:13:59Z</time>
 <fix>none</fix>
 <sat>0</sat>
</trkpt>
<trkpt lat="31.694191667" lon="34.968256667">
<time>2013-04-01T09:14:01Z</time>
 <fix>none</fix>
 <sat>0</sat>
</trkpt>
<trkpt lat="31.694193333" lon="34.968326667">
<time>2013-04-01T09:14:03Z</time>
 <fix>none</fix>
 <sat>0</sat>
</trkpt>
<trkpt lat="31.694196667" lon="34.968408333">
<time>2013-04-01T09:14:05Z</time>
 <fix>none</fix>
 <sat>0</sat>
</trkpt>
<trkpt lat="31.694205000" lon="34.968495000">
<time>2013-04-01T09:14:07Z</time>
 <fix>none</fix>
 <sat>0</sat>
</trkpt>
<trkpt lat="31.694226667" lon="34.968588333">
<time>2013-04-01T09:14:09Z</time>
 <fix>none</fix>
 <sat>0</sat>
</trkpt>
<trkpt lat="31.694253333" lon="34.968681667">
<time>2013-04-01T09:14:11Z</time>
 <fix>none</fix>
 <sat>0</sat>
</trkpt>
<trkpt lat="31.694278333" lon="34.968783333">
<time>2013-04-01T09:14:13Z</time>
 <fix>none</fix>
 <sat>0</sat>
</trkpt>
<trkpt lat="31.694298333" lon="34.968886667">
<time>2013-04-01T09:14:15Z</time>
 <fix>none</fix>
 <sat>0</sat>
</trkpt>
<trkpt lat="31.694303333" lon="34.968940000">
<time>2013-04-01T09:14:17Z</time>
 <fix>none</fix>
 <sat>0</sat>
</trkpt>
<trkpt lat="31.694303333" lon="34.969061667">
<time>2013-04-01T09:14:19Z</time>
 <fix>none</fix>
 <sat>0</sat>
</trkpt>
<trkpt lat="31.694275000" lon="34.969188333">
<time>2013-04-01T09:14:21Z</time>
 <fix>none</fix>
 <sat>0</sat>
</trkpt>
<trkpt lat="31.694213333" lon="34.969365000">
<time>2013-04-01T09:14:23Z</time>
 <fix>none</fix>
 <sat>0</sat>
</trkpt>
<trkpt lat="31.694193333" lon="34.969466667">
<time>2013-04-01T09:14:25Z</time>
 <fix>none</fix>
 <sat>0</sat>
</trkpt>
<trkpt lat="31.694176667" lon="34.969543333">
<time>2013-04-01T09:14:27Z</time>
 <fix>none</fix>
 <sat>0</sat>
</trkpt>
<trkpt lat="31.694156667" lon="34.969588333">
<time>2013-04-01T09:14:29Z</time>
 <fix>none</fix>
 <sat>0</sat>
</trkpt>
<trkpt lat="31.694153333" lon="34.969603333">
<time>2013-04-01T09:14:31Z</time>
 <fix>none</fix>
 <sat>0</sat>
</trkpt>
<trkpt lat="31.694146667" lon="34.969608333">
<time>2013-04-01T09:14:33Z</time>
 <fix>none</fix>
 <sat>0</sat>
</trkpt>
<trkpt lat="31.694140000" lon="34.969621667">
<time>2013-04-01T09:14:35Z</time>
 <fix>none</fix>
 <sat>0</sat>
</trkpt>
<trkpt lat="31.694131667" lon="34.969636667">
<time>2013-04-01T09:14:37Z</time>
 <fix>none</fix>
 <sat>0</sat>
</trkpt>
<trkpt lat="31.694123333" lon="34.969651667">
<time>2013-04-01T09:14:39Z</time>
 <fix>none</fix>
 <sat>0</sat>
</trkpt>
<trkpt lat="31.694118333" lon="34.969658333">
<time>2013-04-01T09:14:41Z</time>
 <fix>none</fix>
 <sat>0</sat>
</trkpt>
<trkpt lat="31.694110000" lon="34.969671667">
<time>2013-04-01T09:14:43Z</time>
 <fix>none</fix>
 <sat>0</sat>
</trkpt>
<trkpt lat="31.694103333" lon="34.969685000">
<time>2013-04-01T09:14:45Z</time>
 <fix>none</fix>
 <sat>0</sat>
</trkpt>
<trkpt lat="31.694091667" lon="34.969703333">
<time>2013-04-01T09:14:47Z</time>
 <fix>none</fix>
 <sat>0</sat>
</trkpt>
<trkpt lat="31.694085000" lon="34.969720000">
<time>2013-04-01T09:14:49Z</time>
 <fix>none</fix>
 <sat>0</sat>
</trkpt>
<trkpt lat="31.694076667" lon="34.969728333">
<time>2013-04-01T09:14:51Z</time>
 <fix>none</fix>
 <sat>0</sat>
</trkpt>
<trkpt lat="31.694071667" lon="34.969733333">
<time>2013-04-01T09:14:53Z</time>
 <fix>none</fix>
 <sat>0</sat>
</trkpt>
<trkpt lat="31.694058333" lon="34.969748333">
<time>2013-04-01T09:14:55Z</time>
 <fix>none</fix>
 <sat>0</sat>
</trkpt>
<trkpt lat="31.694051667" lon="34.969755000">
<time>2013-04-01T09:14:57Z</time>
 <fix>none</fix>
 <sat>0</sat>
</trkpt>
<trkpt lat="31.694045000" lon="34.969761667">
<time>2013-04-01T09:14:59Z</time>
 <fix>none</fix>
 <sat>0</sat>
</trkpt>
<trkpt lat="31.694035000" lon="34.969773333">
<time>2013-04-01T09:15:01Z</time>
 <fix>none</fix>
 <sat>0</sat>
</trkpt>
<trkpt lat="31.694030000" lon="34.969778333">
<time>2013-04-01T09:15:03Z</time>
 <fix>none</fix>
 <sat>0</sat>
</trkpt>
<trkpt lat="31.694018333" lon="34.969786667">
<time>2013-04-01T09:15:05Z</time>
 <fix>none</fix>
 <sat>0</sat>
</trkpt>
<trkpt lat="31.694011667" lon="34.969798333">
<time>2013-04-01T09:15:07Z</time>
 <fix>none</fix>
 <sat>0</sat>
</trkpt>
<trkpt lat="31.693998333" lon="34.969816667">
<time>2013-04-01T09:15:09Z</time>
 <fix>none</fix>
 <sat>0</sat>
</trkpt>
<trkpt lat="31.693986667" lon="34.969830000">
<time>2013-04-01T09:15:11Z</time>
 <fix>none</fix>
 <sat>0</sat>
</trkpt>
<trkpt lat="31.693978333" lon="34.969841667">
<time>2013-04-01T09:15:13Z</time>
 <fix>none</fix>
 <sat>0</sat>
</trkpt>
<trkpt lat="31.693966667" lon="34.969856667">
<time>2013-04-01T09:15:15Z</time>
 <fix>none</fix>
 <sat>0</sat>
</trkpt>
<trkpt lat="31.693956667" lon="34.969868333">
<time>2013-04-01T09:15:17Z</time>
 <fix>none</fix>
 <sat>0</sat>
</trkpt>
<trkpt lat="31.693946667" lon="34.969876667">
<time>2013-04-01T09:15:19Z</time>
 <fix>none</fix>
 <sat>0</sat>
</trkpt>
<trkpt lat="31.693936667" lon="34.969885000">
<time>2013-04-01T09:15:21Z</time>
 <fix>none</fix>
 <sat>0</sat>
</trkpt>
<trkpt lat="31.693928333" lon="34.969896667">
<time>2013-04-01T09:15:23Z</time>
 <fix>none</fix>
 <sat>0</sat>
</trkpt>
<trkpt lat="31.693923333" lon="34.969901667">
<time>2013-04-01T09:15:25Z</time>
 <fix>none</fix>
 <sat>0</sat>
</trkpt>
<trkpt lat="31.693915000" lon="34.969915000">
<time>2013-04-01T09:15:27Z</time>
 <fix>none</fix>
 <sat>0</sat>
</trkpt>
<trkpt lat="31.693903333" lon="34.969925000">
<time>2013-04-01T09:15:29Z</time>
 <fix>none</fix>
 <sat>0</sat>
</trkpt>
<trkpt lat="31.693886667" lon="34.969943333">
<time>2013-04-01T09:15:31Z</time>
 <fix>none</fix>
 <sat>0</sat>
</trkpt>
<trkpt lat="31.693878333" lon="34.969956667">
<time>2013-04-01T09:15:33Z</time>
 <fix>none</fix>
 <sat>0</sat>
</trkpt>
<trkpt lat="31.693870000" lon="34.969965000">
<time>2013-04-01T09:15:35Z</time>
 <fix>none</fix>
 <sat>0</sat>
</trkpt>
<trkpt lat="31.693860000" lon="34.969971667">
<time>2013-04-01T09:15:37Z</time>
 <fix>none</fix>
 <sat>0</sat>
</trkpt>
<trkpt lat="31.693848333" lon="34.969975000">
<time>2013-04-01T09:15:39Z</time>
 <fix>none</fix>
 <sat>0</sat>
</trkpt>
<trkpt lat="31.693835000" lon="34.969976667">
<time>2013-04-01T09:15:41Z</time>
 <fix>none</fix>
 <sat>0</sat>
</trkpt>
<trkpt lat="31.693820000" lon="34.969975000">
<time>2013-04-01T09:15:43Z</time>
 <fix>none</fix>
 <sat>0</sat>
</trkpt>
<trkpt lat="31.693803333" lon="34.969976667">
<time>2013-04-01T09:15:45Z</time>
 <fix>none</fix>
 <sat>0</sat>
</trkpt>
<trkpt lat="31.693786667" lon="34.969975000">
<time>2013-04-01T09:15:47Z</time>
 <fix>none</fix>
 <sat>0</sat>
</trkpt>
<trkpt lat="31.693778333" lon="34.969973333">
<time>2013-04-01T09:15:49Z</time>
 <fix>none</fix>
 <sat>0</sat>
</trkpt>
<trkpt lat="31.693761667" lon="34.969971667">
<time>2013-04-01T09:15:51Z</time>
 <fix>none</fix>
 <sat>0</sat>
</trkpt>
<trkpt lat="31.693741667" lon="34.969973333">
<time>2013-04-01T09:15:53Z</time>
 <fix>none</fix>
 <sat>0</sat>
</trkpt>
<trkpt lat="31.693733333" lon="34.969971667">
<time>2013-04-01T09:15:55Z</time>
 <fix>none</fix>
 <sat>0</sat>
</trkpt>
<trkpt lat="31.693728333" lon="34.969963333">
<time>2013-04-01T09:15:57Z</time>
 <fix>none</fix>
 <sat>0</sat>
</trkpt>
<trkpt lat="31.693726667" lon="34.969963333">
<time>2013-04-01T09:15:59Z</time>
 <fix>none</fix>
 <sat>0</sat>
</trkpt>
<trkpt lat="31.693728333" lon="34.969966667">
<time>2013-04-01T09:16:01Z</time>
 <fix>none</fix>
 <sat>0</sat>
</trkpt>
<trkpt lat="31.693728333" lon="34.969966667">
<time>2013-04-01T09:16:03Z</time>
 <fix>none</fix>
 <sat>0</sat>
</trkpt>
<trkpt lat="31.693733333" lon="34.969968333">
<time>2013-04-01T09:16:05Z</time>
 <fix>none</fix>
 <sat>0</sat>
</trkpt>
<trkpt lat="31.693733333" lon="34.969968333">
<time>2013-04-01T09:16:07Z</time>
 <fix>none</fix>
 <sat>0</sat>
</trkpt>
<trkpt lat="31.693738333" lon="34.969963333">
<time>2013-04-01T09:16:09Z</time>
 <fix>none</fix>
 <sat>0</sat>
</trkpt>
<trkpt lat="31.693736667" lon="34.969960000">
<time>2013-04-01T09:16:11Z</time>
 <fix>none</fix>
 <sat>0</sat>
</trkpt>
<trkpt lat="31.693725000" lon="34.969956667">
<time>2013-04-01T09:16:13Z</time>
 <fix>none</fix>
 <sat>0</sat>
</trkpt>
<trkpt lat="31.693710000" lon="34.969955000">
<time>2013-04-01T09:16:15Z</time>
 <fix>none</fix>
 <sat>0</sat>
</trkpt>
<trkpt lat="31.693686667" lon="34.969953333">
<time>2013-04-01T09:16:17Z</time>
 <fix>none</fix>
 <sat>0</sat>
</trkpt>
<trkpt lat="31.693666667" lon="34.969950000">
<time>2013-04-01T09:16:19Z</time>
 <fix>none</fix>
 <sat>0</sat>
</trkpt>
<trkpt lat="31.693646667" lon="34.969945000">
<time>2013-04-01T09:16:21Z</time>
 <fix>none</fix>
 <sat>0</sat>
</trkpt>
<trkpt lat="31.693626667" lon="34.969945000">
<time>2013-04-01T09:16:23Z</time>
 <fix>none</fix>
 <sat>0</sat>
</trkpt>
<trkpt lat="31.693618333" lon="34.969945000">
<time>2013-04-01T09:16:25Z</time>
 <fix>none</fix>
 <sat>0</sat>
</trkpt>
<trkpt lat="31.693610000" lon="34.969941667">
<time>2013-04-01T09:16:27Z</time>
 <fix>none</fix>
 <sat>0</sat>
</trkpt>
<trkpt lat="31.693600000" lon="34.969936667">
<time>2013-04-01T09:16:29Z</time>
 <fix>none</fix>
 <sat>0</sat>
</trkpt>
<trkpt lat="31.693590000" lon="34.969931667">
<time>2013-04-01T09:16:31Z</time>
 <fix>none</fix>
 <sat>0</sat>
</trkpt>
<trkpt lat="31.693583333" lon="34.969920000">
<time>2013-04-01T09:16:33Z</time>
 <fix>none</fix>
 <sat>0</sat>
</trkpt>
<trkpt lat="31.693580000" lon="34.969915000">
<time>2013-04-01T09:16:35Z</time>
 <fix>none</fix>
 <sat>0</sat>
</trkpt>
<trkpt lat="31.693568333" lon="34.969901667">
<time>2013-04-01T09:16:37Z</time>
 <fix>none</fix>
 <sat>0</sat>
</trkpt>
<trkpt lat="31.693540000" lon="34.969891667">
<time>2013-04-01T09:16:39Z</time>
 <fix>none</fix>
 <sat>0</sat>
</trkpt>
<trkpt lat="31.693493333" lon="34.969901667">
<time>2013-04-01T09:16:41Z</time>
 <fix>none</fix>
 <sat>0</sat>
</trkpt>
<trkpt lat="31.693455000" lon="34.969940000">
<time>2013-04-01T09:16:43Z</time>
 <fix>none</fix>
 <sat>0</sat>
</trkpt>
<trkpt lat="31.693433333" lon="34.969998333">
<time>2013-04-01T09:16:45Z</time>
 <fix>none</fix>
 <sat>0</sat>
</trkpt>
<trkpt lat="31.693425000" lon="34.970063333">
<time>2013-04-01T09:16:47Z</time>
 <fix>none</fix>
 <sat>0</sat>
</trkpt>
<trkpt lat="31.693426667" lon="34.970126667">
<time>2013-04-01T09:16:49Z</time>
 <fix>none</fix>
 <sat>0</sat>
</trkpt>
<trkpt lat="31.693423333" lon="34.970185000">
<time>2013-04-01T09:16:51Z</time>
 <fix>none</fix>
 <sat>0</sat>
</trkpt>
<trkpt lat="31.693420000" lon="34.970241667">
<time>2013-04-01T09:16:53Z</time>
 <fix>none</fix>
 <sat>0</sat>
</trkpt>
<trkpt lat="31.693415000" lon="34.970298333">
<time>2013-04-01T09:16:55Z</time>
 <fix>none</fix>
 <sat>0</sat>
</trkpt>
<trkpt lat="31.693411667" lon="34.970328333">
<time>2013-04-01T09:16:57Z</time>
 <fix>none</fix>
 <sat>0</sat>
</trkpt>
<trkpt lat="31.693411667" lon="34.970385000">
<time>2013-04-01T09:16:59Z</time>
 <fix>none</fix>
 <sat>0</sat>
</trkpt>
<trkpt lat="31.693411667" lon="34.970463333">
<time>2013-04-01T09:17:01Z</time>
 <fix>none</fix>
 <sat>0</sat>
</trkpt>
<trkpt lat="31.693418333" lon="34.970513333">
<time>2013-04-01T09:17:03Z</time>
 <fix>none</fix>
 <sat>0</sat>
</trkpt>
<trkpt lat="31.693426667" lon="34.970566667">
<time>2013-04-01T09:17:05Z</time>
 <fix>none</fix>
 <sat>0</sat>
</trkpt>
<trkpt lat="31.693431667" lon="34.970611667">
<time>2013-04-01T09:17:07Z</time>
 <fix>none</fix>
 <sat>0</sat>
</trkpt>
<trkpt lat="31.693435000" lon="34.970651667">
<time>2013-04-01T09:17:09Z</time>
 <fix>none</fix>
 <sat>0</sat>
</trkpt>
<trkpt lat="31.693441667" lon="34.970693333">
<time>2013-04-01T09:17:11Z</time>
 <fix>none</fix>
 <sat>0</sat>
</trkpt>
<trkpt lat="31.693448333" lon="34.970745000">
<time>2013-04-01T09:17:13Z</time>
 <fix>none</fix>
 <sat>0</sat>
</trkpt>
<trkpt lat="31.693455000" lon="34.970796667">
<time>2013-04-01T09:17:15Z</time>
 <fix>none</fix>
 <sat>0</sat>
</trkpt>
<trkpt lat="31.693458333" lon="34.970850000">
<time>2013-04-01T09:17:17Z</time>
 <fix>none</fix>
 <sat>0</sat>
</trkpt>
<trkpt lat="31.693460000" lon="34.970878333">
<time>2013-04-01T09:17:19Z</time>
 <fix>none</fix>
 <sat>0</sat>
</trkpt>
<trkpt lat="31.693455000" lon="34.970935000">
<time>2013-04-01T09:17:21Z</time>
 <fix>none</fix>
 <sat>0</sat>
</trkpt>
<trkpt lat="31.693453333" lon="34.970991667">
<time>2013-04-01T09:17:23Z</time>
 <fix>none</fix>
 <sat>0</sat>
</trkpt>
<trkpt lat="31.693453333" lon="34.971071667">
<time>2013-04-01T09:17:25Z</time>
 <fix>none</fix>
 <sat>0</sat>
</trkpt>
<trkpt lat="31.693455000" lon="34.971128333">
<time>2013-04-01T09:17:27Z</time>
 <fix>none</fix>
 <sat>0</sat>
</trkpt>
<trkpt lat="31.693456667" lon="34.971191667">
<time>2013-04-01T09:17:29Z</time>
 <fix>none</fix>
 <sat>0</sat>
</trkpt>
<trkpt lat="31.693458333" lon="34.971255000">
<time>2013-04-01T09:17:31Z</time>
 <fix>none</fix>
 <sat>0</sat>
</trkpt>
<trkpt lat="31.693460000" lon="34.971285000">
<time>2013-04-01T09:17:33Z</time>
 <fix>none</fix>
 <sat>0</sat>
</trkpt>
<trkpt lat="31.693475000" lon="34.971358333">
<time>2013-04-01T09:17:35Z</time>
 <fix>none</fix>
 <sat>0</sat>
</trkpt>
<trkpt lat="31.693488333" lon="34.971401667">
<time>2013-04-01T09:17:37Z</time>
 <fix>none</fix>
 <sat>0</sat>
</trkpt>
<trkpt lat="31.693505000" lon="34.971451667">
<time>2013-04-01T09:17:39Z</time>
 <fix>none</fix>
 <sat>0</sat>
</trkpt>
<trkpt lat="31.693521667" lon="34.971511667">
<time>2013-04-01T09:17:41Z</time>
 <fix>none</fix>
 <sat>0</sat>
</trkpt>
<trkpt lat="31.693526667" lon="34.971555000">
<time>2013-04-01T09:17:43Z</time>
 <fix>none</fix>
 <sat>0</sat>
</trkpt>
<trkpt lat="31.693528333" lon="34.971671667">
<time>2013-04-01T09:17:45Z</time>
 <fix>none</fix>
 <sat>0</sat>
</trkpt>
<trkpt lat="31.693523333" lon="34.971861667">
<time>2013-04-01T09:17:47Z</time>
 <fix>none</fix>
 <sat>0</sat>
</trkpt>
<trkpt lat="31.693520000" lon="34.971996667">
<time>2013-04-01T09:17:49Z</time>
 <fix>none</fix>
 <sat>0</sat>
</trkpt>
<trkpt lat="31.693518333" lon="34.972151667">
<time>2013-04-01T09:17:51Z</time>
 <fix>none</fix>
 <sat>0</sat>
</trkpt>
<trkpt lat="31.693518333" lon="34.972305000">
<time>2013-04-01T09:17:53Z</time>
 <fix>none</fix>
 <sat>0</sat>
</trkpt>
<trkpt lat="31.693516667" lon="34.972458333">
<time>2013-04-01T09:17:55Z</time>
 <fix>none</fix>
 <sat>0</sat>
</trkpt>
<trkpt lat="31.693516667" lon="34.972588333">
<time>2013-04-01T09:17:57Z</time>
 <fix>none</fix>
 <sat>0</sat>
</trkpt>
<trkpt lat="31.693510000" lon="34.972671667">
<time>2013-04-01T09:17:59Z</time>
 <fix>none</fix>
 <sat>0</sat>
</trkpt>
<trkpt lat="31.693496667" lon="34.972731667">
<time>2013-04-01T09:18:01Z</time>
 <fix>none</fix>
 <sat>0</sat>
</trkpt>
<trkpt lat="31.693498333" lon="34.972745000">
<time>2013-04-01T09:18:03Z</time>
 <fix>none</fix>
 <sat>0</sat>
</trkpt>
<trkpt lat="31.693498333" lon="34.972741667">
<time>2013-04-01T09:18:05Z</time>
 <fix>none</fix>
 <sat>0</sat>
</trkpt>
<trkpt lat="31.693488333" lon="34.972748333">
<time>2013-04-01T09:18:07Z</time>
 <fix>none</fix>
 <sat>0</sat>
</trkpt>
<trkpt lat="31.693476667" lon="34.972765000">
<time>2013-04-01T09:18:09Z</time>
 <fix>none</fix>
 <sat>0</sat>
</trkpt>
<trkpt lat="31.693466667" lon="34.972785000">
<time>2013-04-01T09:18:11Z</time>
 <fix>none</fix>
 <sat>0</sat>
</trkpt>
<trkpt lat="31.693458333" lon="34.972796667">
<time>2013-04-01T09:18:13Z</time>
 <fix>none</fix>
 <sat>0</sat>
</trkpt>
<trkpt lat="31.693450000" lon="34.972808333">
<time>2013-04-01T09:18:15Z</time>
 <fix>none</fix>
 <sat>0</sat>
</trkpt>
<trkpt lat="31.693443333" lon="34.972818333">
<time>2013-04-01T09:18:17Z</time>
 <fix>none</fix>
 <sat>0</sat>
</trkpt>
<trkpt lat="31.693436667" lon="34.972830000">
<time>2013-04-01T09:18:19Z</time>
 <fix>none</fix>
 <sat>0</sat>
</trkpt>
<trkpt lat="31.693428333" lon="34.972843333">
<time>2013-04-01T09:18:21Z</time>
 <fix>none</fix>
 <sat>0</sat>
</trkpt>
<trkpt lat="31.693421667" lon="34.972853333">
<time>2013-04-01T09:18:23Z</time>
 <fix>none</fix>
 <sat>0</sat>
</trkpt>
<trkpt lat="31.693413333" lon="34.972865000">
<time>2013-04-01T09:18:25Z</time>
 <fix>none</fix>
 <sat>0</sat>
</trkpt>
<trkpt lat="31.693405000" lon="34.972878333">
<time>2013-04-01T09:18:27Z</time>
 <fix>none</fix>
 <sat>0</sat>
</trkpt>
<trkpt lat="31.693400000" lon="34.972883333">
<time>2013-04-01T09:18:29Z</time>
 <fix>none</fix>
 <sat>0</sat>
</trkpt>
<trkpt lat="31.693385000" lon="34.972900000">
<time>2013-04-01T09:18:31Z</time>
 <fix>none</fix>
 <sat>0</sat>
</trkpt>
<trkpt lat="31.693378333" lon="34.972910000">
<time>2013-04-01T09:18:33Z</time>
 <fix>none</fix>
 <sat>0</sat>
</trkpt>
<trkpt lat="31.693371667" lon="34.972920000">
<time>2013-04-01T09:18:35Z</time>
 <fix>none</fix>
 <sat>0</sat>
</trkpt>
<trkpt lat="31.693366667" lon="34.972930000">
<time>2013-04-01T09:18:37Z</time>
 <fix>none</fix>
 <sat>0</sat>
</trkpt>
<trkpt lat="31.693360000" lon="34.972943333">
<time>2013-04-01T09:18:39Z</time>
 <fix>none</fix>
 <sat>0</sat>
</trkpt>
<trkpt lat="31.693351667" lon="34.972955000">
<time>2013-04-01T09:18:41Z</time>
 <fix>none</fix>
 <sat>0</sat>
</trkpt>
<trkpt lat="31.693341667" lon="34.972968333">
<time>2013-04-01T09:18:43Z</time>
 <fix>none</fix>
 <sat>0</sat>
</trkpt>
<trkpt lat="31.693328333" lon="34.972983333">
<time>2013-04-01T09:18:45Z</time>
 <fix>none</fix>
 <sat>0</sat>
</trkpt>
<trkpt lat="31.693315000" lon="34.972998333">
<time>2013-04-01T09:18:47Z</time>
 <fix>none</fix>
 <sat>0</sat>
</trkpt>
<trkpt lat="31.693301667" lon="34.973015000">
<time>2013-04-01T09:18:49Z</time>
 <fix>none</fix>
 <sat>0</sat>
</trkpt>
<trkpt lat="31.693296667" lon="34.973021667">
<time>2013-04-01T09:18:51Z</time>
 <fix>none</fix>
 <sat>0</sat>
</trkpt>
<trkpt lat="31.693286667" lon="34.973033333">
<time>2013-04-01T09:18:53Z</time>
 <fix>none</fix>
 <sat>0</sat>
</trkpt>
<trkpt lat="31.693283333" lon="34.973038333">
<time>2013-04-01T09:18:55Z</time>
 <fix>none</fix>
 <sat>0</sat>
</trkpt>
<trkpt lat="31.693265000" lon="34.973053333">
<time>2013-04-01T09:18:57Z</time>
 <fix>none</fix>
 <sat>0</sat>
</trkpt>
<trkpt lat="31.693245000" lon="34.973076667">
<time>2013-04-01T09:18:59Z</time>
 <fix>none</fix>
 <sat>0</sat>
</trkpt>
<trkpt lat="31.693218333" lon="34.973110000">
<time>2013-04-01T09:19:01Z</time>
 <fix>none</fix>
 <sat>0</sat>
</trkpt>
<trkpt lat="31.693186667" lon="34.973146667">
<time>2013-04-01T09:19:03Z</time>
 <fix>none</fix>
 <sat>0</sat>
</trkpt>
<trkpt lat="31.693153333" lon="34.973195000">
<time>2013-04-01T09:19:05Z</time>
 <fix>none</fix>
 <sat>0</sat>
</trkpt>
<trkpt lat="31.693116667" lon="34.973253333">
<time>2013-04-01T09:19:07Z</time>
 <fix>none</fix>
 <sat>0</sat>
</trkpt>
<trkpt lat="31.693086667" lon="34.973311667">
<time>2013-04-01T09:19:09Z</time>
 <fix>none</fix>
 <sat>0</sat>
</trkpt>
<trkpt lat="31.693063333" lon="34.973373333">
<time>2013-04-01T09:19:11Z</time>
 <fix>none</fix>
 <sat>0</sat>
</trkpt>
<trkpt lat="31.693051667" lon="34.973406667">
<time>2013-04-01T09:19:13Z</time>
 <fix>none</fix>
 <sat>0</sat>
</trkpt>
<trkpt lat="31.693028333" lon="34.973478333">
<time>2013-04-01T09:19:15Z</time>
 <fix>none</fix>
 <sat>0</sat>
</trkpt>
<trkpt lat="31.693011667" lon="34.973565000">
<time>2013-04-01T09:19:17Z</time>
 <fix>none</fix>
 <sat>0</sat>
</trkpt>
<trkpt lat="31.692990000" lon="34.973713333">
<time>2013-04-01T09:19:19Z</time>
 <fix>none</fix>
 <sat>0</sat>
</trkpt>
<trkpt lat="31.692975000" lon="34.973820000">
<time>2013-04-01T09:19:21Z</time>
 <fix>none</fix>
 <sat>0</sat>
</trkpt>
<trkpt lat="31.692951667" lon="34.973921667">
<time>2013-04-01T09:19:23Z</time>
 <fix>none</fix>
 <sat>0</sat>
</trkpt>
<trkpt lat="31.692916667" lon="34.974025000">
<time>2013-04-01T09:19:25Z</time>
 <fix>none</fix>
 <sat>0</sat>
</trkpt>
<trkpt lat="31.692881667" lon="34.974136667">
<time>2013-04-01T09:19:27Z</time>
 <fix>none</fix>
 <sat>0</sat>
</trkpt>
<trkpt lat="31.692840000" lon="34.974285000">
<time>2013-04-01T09:19:29Z</time>
 <fix>none</fix>
 <sat>0</sat>
</trkpt>
<trkpt lat="31.692798333" lon="34.974446667">
<time>2013-04-01T09:19:31Z</time>
 <fix>none</fix>
 <sat>0</sat>
</trkpt>
<trkpt lat="31.692766667" lon="34.974600000">
<time>2013-04-01T09:19:33Z</time>
 <fix>none</fix>
 <sat>0</sat>
</trkpt>
<trkpt lat="31.692743333" lon="34.974728333">
<time>2013-04-01T09:19:35Z</time>
 <fix>none</fix>
 <sat>0</sat>
</trkpt>
<trkpt lat="31.692733333" lon="34.974780000">
<time>2013-04-01T09:19:37Z</time>
 <fix>none</fix>
 <sat>0</sat>
</trkpt>
<trkpt lat="31.692718333" lon="34.974871667">
<time>2013-04-01T09:19:39Z</time>
 <fix>none</fix>
 <sat>0</sat>
</trkpt>
<trkpt lat="31.692700000" lon="34.974976667">
<time>2013-04-01T09:19:41Z</time>
 <fix>none</fix>
 <sat>0</sat>
</trkpt>
<trkpt lat="31.692686667" lon="34.975030000">
<time>2013-04-01T09:19:43Z</time>
 <fix>none</fix>
 <sat>0</sat>
</trkpt>
<trkpt lat="31.692671667" lon="34.975086667">
<time>2013-04-01T09:19:45Z</time>
 <fix>none</fix>
 <sat>0</sat>
</trkpt>
<trkpt lat="31.692660000" lon="34.975143333">
<time>2013-04-01T09:19:47Z</time>
 <fix>none</fix>
 <sat>0</sat>
</trkpt>
<trkpt lat="31.692646667" lon="34.975196667">
<time>2013-04-01T09:19:49Z</time>
 <fix>none</fix>
 <sat>0</sat>
</trkpt>
<trkpt lat="31.692628333" lon="34.975246667">
<time>2013-04-01T09:19:51Z</time>
 <fix>none</fix>
 <sat>0</sat>
</trkpt>
<trkpt lat="31.692608333" lon="34.975298333">
<time>2013-04-01T09:19:53Z</time>
 <fix>none</fix>
 <sat>0</sat>
</trkpt>
<trkpt lat="31.692596667" lon="34.975351667">
<time>2013-04-01T09:19:55Z</time>
 <fix>none</fix>
 <sat>0</sat>
</trkpt>
<trkpt lat="31.692590000" lon="34.975398333">
<time>2013-04-01T09:19:57Z</time>
 <fix>none</fix>
 <sat>0</sat>
</trkpt>
<trkpt lat="31.692588333" lon="34.975421667">
<time>2013-04-01T09:19:59Z</time>
 <fix>none</fix>
 <sat>0</sat>
</trkpt>
<trkpt lat="31.692581667" lon="34.975468333">
<time>2013-04-01T09:20:01Z</time>
 <fix>none</fix>
 <sat>0</sat>
</trkpt>
<trkpt lat="31.692571667" lon="34.975515000">
<time>2013-04-01T09:20:03Z</time>
 <fix>none</fix>
 <sat>0</sat>
</trkpt>
<trkpt lat="31.692551667" lon="34.975601667">
<time>2013-04-01T09:20:05Z</time>
 <fix>none</fix>
 <sat>0</sat>
</trkpt>
<trkpt lat="31.692536667" lon="34.975661667">
<time>2013-04-01T09:20:07Z</time>
 <fix>none</fix>
 <sat>0</sat>
</trkpt>
<trkpt lat="31.692518333" lon="34.975735000">
<time>2013-04-01T09:20:09Z</time>
 <fix>none</fix>
 <sat>0</sat>
</trkpt>
<trkpt lat="31.692498333" lon="34.975821667">
<time>2013-04-01T09:20:11Z</time>
 <fix>none</fix>
 <sat>0</sat>
</trkpt>
<trkpt lat="31.692475000" lon="34.975920000">
<time>2013-04-01T09:20:13Z</time>
 <fix>none</fix>
 <sat>0</sat>
</trkpt>
<trkpt lat="31.692450000" lon="34.976016667">
<time>2013-04-01T09:20:15Z</time>
 <fix>none</fix>
 <sat>0</sat>
</trkpt>
<trkpt lat="31.692423333" lon="34.976101667">
<time>2013-04-01T09:20:17Z</time>
 <fix>none</fix>
 <sat>0</sat>
</trkpt>
<trkpt lat="31.692390000" lon="34.976180000">
<time>2013-04-01T09:20:19Z</time>
 <fix>none</fix>
 <sat>0</sat>
</trkpt>
<trkpt lat="31.692371667" lon="34.976218333">
<time>2013-04-01T09:20:21Z</time>
 <fix>none</fix>
 <sat>0</sat>
</trkpt>
<trkpt lat="31.692340000" lon="34.976291667">
<time>2013-04-01T09:20:23Z</time>
 <fix>none</fix>
 <sat>0</sat>
</trkpt>
<trkpt lat="31.692315000" lon="34.976361667">
<time>2013-04-01T09:20:25Z</time>
 <fix>none</fix>
 <sat>0</sat>
</trkpt>
<trkpt lat="31.692280000" lon="34.976463333">
<time>2013-04-01T09:20:27Z</time>
 <fix>none</fix>
 <sat>0</sat>
</trkpt>
<trkpt lat="31.692260000" lon="34.976523333">
<time>2013-04-01T09:20:29Z</time>
 <fix>none</fix>
 <sat>0</sat>
</trkpt>
<trkpt lat="31.692243333" lon="34.976590000">
<time>2013-04-01T09:20:31Z</time>
 <fix>none</fix>
 <sat>0</sat>
</trkpt>
<trkpt lat="31.692233333" lon="34.976661667">
<time>2013-04-01T09:20:33Z</time>
 <fix>none</fix>
 <sat>0</sat>
</trkpt>
<trkpt lat="31.692231667" lon="34.976736667">
<time>2013-04-01T09:20:35Z</time>
 <fix>none</fix>
 <sat>0</sat>
</trkpt>
<trkpt lat="31.692231667" lon="34.976808333">
<time>2013-04-01T09:20:37Z</time>
 <fix>none</fix>
 <sat>0</sat>
</trkpt>
<trkpt lat="31.692228333" lon="34.976878333">
<time>2013-04-01T09:20:39Z</time>
 <fix>none</fix>
 <sat>0</sat>
</trkpt>
<trkpt lat="31.692228333" lon="34.976951667">
<time>2013-04-01T09:20:41Z</time>
 <fix>none</fix>
 <sat>0</sat>
</trkpt>
<trkpt lat="31.692230000" lon="34.977021667">
<time>2013-04-01T09:20:43Z</time>
 <fix>none</fix>
 <sat>0</sat>
</trkpt>
<trkpt lat="31.692236667" lon="34.977060000">
<time>2013-04-01T09:20:45Z</time>
 <fix>none</fix>
 <sat>0</sat>
</trkpt>
<trkpt lat="31.692251667" lon="34.977138333">
<time>2013-04-01T09:20:47Z</time>
 <fix>none</fix>
 <sat>0</sat>
</trkpt>
<trkpt lat="31.692278333" lon="34.977216667">
<time>2013-04-01T09:20:49Z</time>
 <fix>none</fix>
 <sat>0</sat>
</trkpt>
<trkpt lat="31.692335000" lon="34.977323333">
<time>2013-04-01T09:20:51Z</time>
 <fix>none</fix>
 <sat>0</sat>
</trkpt>
<trkpt lat="31.692380000" lon="34.977390000">
<time>2013-04-01T09:20:53Z</time>
 <fix>none</fix>
 <sat>0</sat>
</trkpt>
<trkpt lat="31.692416667" lon="34.977446667">
<time>2013-04-01T09:20:55Z</time>
 <fix>none</fix>
 <sat>0</sat>
</trkpt>
<trkpt lat="31.692448333" lon="34.977496667">
<time>2013-04-01T09:20:57Z</time>
 <fix>none</fix>
 <sat>0</sat>
</trkpt>
<trkpt lat="31.692481667" lon="34.977551667">
<time>2013-04-01T09:20:59Z</time>
 <fix>none</fix>
 <sat>0</sat>
</trkpt>
<trkpt lat="31.692515000" lon="34.977618333">
<time>2013-04-01T09:21:01Z</time>
 <fix>none</fix>
 <sat>0</sat>
</trkpt>
<trkpt lat="31.692545000" lon="34.977678333">
<time>2013-04-01T09:21:03Z</time>
 <fix>none</fix>
 <sat>0</sat>
</trkpt>
<trkpt lat="31.692555000" lon="34.977755000">
<time>2013-04-01T09:21:05Z</time>
 <fix>none</fix>
 <sat>0</sat>
</trkpt>
<trkpt lat="31.692550000" lon="34.977796667">
<time>2013-04-01T09:21:07Z</time>
 <fix>none</fix>
 <sat>0</sat>
</trkpt>
<trkpt lat="31.692523333" lon="34.977890000">
<time>2013-04-01T09:21:09Z</time>
 <fix>none</fix>
 <sat>0</sat>
</trkpt>
<trkpt lat="31.692466667" lon="34.978048333">
<time>2013-04-01T09:21:11Z</time>
 <fix>none</fix>
 <sat>0</sat>
</trkpt>
<trkpt lat="31.692431667" lon="34.978160000">
<time>2013-04-01T09:21:13Z</time>
 <fix>none</fix>
 <sat>0</sat>
</trkpt>
<trkpt lat="31.692400000" lon="34.978271667">
<time>2013-04-01T09:21:15Z</time>
 <fix>none</fix>
 <sat>0</sat>
</trkpt>
<trkpt lat="31.692371667" lon="34.978385000">
<time>2013-04-01T09:21:17Z</time>
 <fix>none</fix>
 <sat>0</sat>
</trkpt>
<trkpt lat="31.692341667" lon="34.978495000">
<time>2013-04-01T09:21:19Z</time>
 <fix>none</fix>
 <sat>0</sat>
</trkpt>
<trkpt lat="31.692323333" lon="34.978608333">
<time>2013-04-01T09:21:21Z</time>
 <fix>none</fix>
 <sat>0</sat>
</trkpt>
<trkpt lat="31.692331667" lon="34.978731667">
<time>2013-04-01T09:21:23Z</time>
 <fix>none</fix>
 <sat>0</sat>
</trkpt>
<trkpt lat="31.692366667" lon="34.978853333">
<time>2013-04-01T09:21:25Z</time>
 <fix>none</fix>
 <sat>0</sat>
</trkpt>
<trkpt lat="31.692413333" lon="34.978960000">
<time>2013-04-01T09:21:27Z</time>
 <fix>none</fix>
 <sat>0</sat>
</trkpt>
<trkpt lat="31.692466667" lon="34.979036667">
<time>2013-04-01T09:21:29Z</time>
 <fix>none</fix>
 <sat>0</sat>
</trkpt>
<trkpt lat="31.692496667" lon="34.979063333">
<time>2013-04-01T09:21:31Z</time>
 <fix>none</fix>
 <sat>0</sat>
</trkpt>
<trkpt lat="31.692556667" lon="34.979101667">
<time>2013-04-01T09:21:33Z</time>
 <fix>none</fix>
 <sat>0</sat>
</trkpt>
<trkpt lat="31.692653333" lon="34.979130000">
<time>2013-04-01T09:21:35Z</time>
 <fix>none</fix>
 <sat>0</sat>
</trkpt>
<trkpt lat="31.692718333" lon="34.979141667">
<time>2013-04-01T09:21:37Z</time>
 <fix>none</fix>
 <sat>0</sat>
</trkpt>
<trkpt lat="31.692775000" lon="34.979160000">
<time>2013-04-01T09:21:39Z</time>
 <fix>none</fix>
 <sat>0</sat>
</trkpt>
<trkpt lat="31.692830000" lon="34.979175000">
<time>2013-04-01T09:21:41Z</time>
 <fix>none</fix>
 <sat>0</sat>
</trkpt>
<trkpt lat="31.692881667" lon="34.979186667">
<time>2013-04-01T09:21:43Z</time>
 <fix>none</fix>
 <sat>0</sat>
</trkpt>
<trkpt lat="31.692931667" lon="34.979203333">
<time>2013-04-01T09:21:45Z</time>
 <fix>none</fix>
 <sat>0</sat>
</trkpt>
<trkpt lat="31.692986667" lon="34.979221667">
<time>2013-04-01T09:21:47Z</time>
 <fix>none</fix>
 <sat>0</sat>
</trkpt>
<trkpt lat="31.693038333" lon="34.979240000">
<time>2013-04-01T09:21:49Z</time>
 <fix>none</fix>
 <sat>0</sat>
</trkpt>
<trkpt lat="31.693088333" lon="34.979253333">
<time>2013-04-01T09:21:51Z</time>
 <fix>none</fix>
 <sat>0</sat>
</trkpt>
<trkpt lat="31.693111667" lon="34.979256667">
<time>2013-04-01T09:21:53Z</time>
 <fix>none</fix>
 <sat>0</sat>
</trkpt>
<trkpt lat="31.693158333" lon="34.979260000">
<time>2013-04-01T09:21:55Z</time>
 <fix>none</fix>
 <sat>0</sat>
</trkpt>
<trkpt lat="31.693203333" lon="34.979268333">
<time>2013-04-01T09:21:57Z</time>
 <fix>none</fix>
 <sat>0</sat>
</trkpt>
<trkpt lat="31.693271667" lon="34.979276667">
<time>2013-04-01T09:21:59Z</time>
 <fix>none</fix>
 <sat>0</sat>
</trkpt>
<trkpt lat="31.693295000" lon="34.979281667">
<time>2013-04-01T09:22:01Z</time>
 <fix>none</fix>
 <sat>0</sat>
</trkpt>
<trkpt lat="31.693368333" lon="34.979288333">
<time>2013-04-01T09:22:03Z</time>
 <fix>none</fix>
 <sat>0</sat>
</trkpt>
<trkpt lat="31.693415000" lon="34.979285000">
<time>2013-04-01T09:22:05Z</time>
 <fix>none</fix>
 <sat>0</sat>
</trkpt>
<trkpt lat="31.693461667" lon="34.979280000">
<time>2013-04-01T09:22:07Z</time>
 <fix>none</fix>
 <sat>0</sat>
</trkpt>
<trkpt lat="31.693506667" lon="34.979276667">
<time>2013-04-01T09:22:09Z</time>
 <fix>none</fix>
 <sat>0</sat>
</trkpt>
<trkpt lat="31.693548333" lon="34.979273333">
<time>2013-04-01T09:22:11Z</time>
 <fix>none</fix>
 <sat>0</sat>
</trkpt>
<trkpt lat="31.693590000" lon="34.979273333">
<time>2013-04-01T09:22:13Z</time>
 <fix>none</fix>
 <sat>0</sat>
</trkpt>
<trkpt lat="31.693631667" lon="34.979276667">
<time>2013-04-01T09:22:15Z</time>
 <fix>none</fix>
 <sat>0</sat>
</trkpt>
<trkpt lat="31.693651667" lon="34.979280000">
<time>2013-04-01T09:22:17Z</time>
 <fix>none</fix>
 <sat>0</sat>
</trkpt>
<trkpt lat="31.693688333" lon="34.979291667">
<time>2013-04-01T09:22:19Z</time>
 <fix>none</fix>
 <sat>0</sat>
</trkpt>
<trkpt lat="31.693750000" lon="34.979310000">
<time>2013-04-01T09:22:21Z</time>
 <fix>none</fix>
 <sat>0</sat>
</trkpt>
<trkpt lat="31.693795000" lon="34.979326667">
<time>2013-04-01T09:22:23Z</time>
 <fix>none</fix>
 <sat>0</sat>
</trkpt>
<trkpt lat="31.693836667" lon="34.979343333">
<time>2013-04-01T09:22:25Z</time>
 <fix>none</fix>
 <sat>0</sat>
</trkpt>
<trkpt lat="31.693873333" lon="34.979366667">
<time>2013-04-01T09:22:27Z</time>
 <fix>none</fix>
 <sat>0</sat>
</trkpt>
<trkpt lat="31.693905000" lon="34.979396667">
<time>2013-04-01T09:22:29Z</time>
 <fix>none</fix>
 <sat>0</sat>
</trkpt>
<trkpt lat="31.693941667" lon="34.979428333">
<time>2013-04-01T09:22:31Z</time>
 <fix>none</fix>
 <sat>0</sat>
</trkpt>
<trkpt lat="31.693983333" lon="34.979456667">
<time>2013-04-01T09:22:33Z</time>
 <fix>none</fix>
 <sat>0</sat>
</trkpt>
<trkpt lat="31.694020000" lon="34.979481667">
<time>2013-04-01T09:22:35Z</time>
 <fix>none</fix>
 <sat>0</sat>
</trkpt>
<trkpt lat="31.694055000" lon="34.979503333">
<time>2013-04-01T09:22:37Z</time>
 <fix>none</fix>
 <sat>0</sat>
</trkpt>
<trkpt lat="31.694073333" lon="34.979515000">
<time>2013-04-01T09:22:39Z</time>
 <fix>none</fix>
 <sat>0</sat>
</trkpt>
<trkpt lat="31.694106667" lon="34.979535000">
<time>2013-04-01T09:22:41Z</time>
 <fix>none</fix>
 <sat>0</sat>
</trkpt>
<trkpt lat="31.694161667" lon="34.979570000">
<time>2013-04-01T09:22:43Z</time>
 <fix>none</fix>
 <sat>0</sat>
</trkpt>
<trkpt lat="31.694203333" lon="34.979596667">
<time>2013-04-01T09:22:45Z</time>
 <fix>none</fix>
 <sat>0</sat>
</trkpt>
<trkpt lat="31.694241667" lon="34.979620000">
<time>2013-04-01T09:22:47Z</time>
 <fix>none</fix>
 <sat>0</sat>
</trkpt>
<trkpt lat="31.694280000" lon="34.979645000">
<time>2013-04-01T09:22:49Z</time>
 <fix>none</fix>
 <sat>0</sat>
</trkpt>
<trkpt lat="31.694318333" lon="34.979668333">
<time>2013-04-01T09:22:51Z</time>
 <fix>none</fix>
 <sat>0</sat>
</trkpt>
<trkpt lat="31.694356667" lon="34.979691667">
<time>2013-04-01T09:22:53Z</time>
 <fix>none</fix>
 <sat>0</sat>
</trkpt>
<trkpt lat="31.694395000" lon="34.979716667">
<time>2013-04-01T09:22:55Z</time>
 <fix>none</fix>
 <sat>0</sat>
</trkpt>
<trkpt lat="31.694435000" lon="34.979746667">
<time>2013-04-01T09:22:57Z</time>
 <fix>none</fix>
 <sat>0</sat>
</trkpt>
<trkpt lat="31.694476667" lon="34.979776667">
<time>2013-04-01T09:22:59Z</time>
 <fix>none</fix>
 <sat>0</sat>
</trkpt>
<trkpt lat="31.694498333" lon="34.979790000">
<time>2013-04-01T09:23:01Z</time>
 <fix>none</fix>
 <sat>0</sat>
</trkpt>
<trkpt lat="31.694541667" lon="34.979816667">
<time>2013-04-01T09:23:03Z</time>
 <fix>none</fix>
 <sat>0</sat>
</trkpt>
<trkpt lat="31.694610000" lon="34.979856667">
<time>2013-04-01T09:23:05Z</time>
 <fix>none</fix>
 <sat>0</sat>
</trkpt>
<trkpt lat="31.694653333" lon="34.979886667">
<time>2013-04-01T09:23:07Z</time>
 <fix>none</fix>
 <sat>0</sat>
</trkpt>
<trkpt lat="31.694700000" lon="34.979916667">
<time>2013-04-01T09:23:09Z</time>
 <fix>none</fix>
 <sat>0</sat>
</trkpt>
<trkpt lat="31.694746667" lon="34.979943333">
<time>2013-04-01T09:23:11Z</time>
 <fix>none</fix>
 <sat>0</sat>
</trkpt>
<trkpt lat="31.694793333" lon="34.979973333">
<time>2013-04-01T09:23:13Z</time>
 <fix>none</fix>
 <sat>0</sat>
</trkpt>
<trkpt lat="31.694818333" lon="34.979988333">
<time>2013-04-01T09:23:15Z</time>
 <fix>none</fix>
 <sat>0</sat>
</trkpt>
<trkpt lat="31.694893333" lon="34.980030000">
<time>2013-04-01T09:23:17Z</time>
 <fix>none</fix>
 <sat>0</sat>
</trkpt>
<trkpt lat="31.694945000" lon="34.980058333">
<time>2013-04-01T09:23:19Z</time>
 <fix>none</fix>
 <sat>0</sat>
</trkpt>
<trkpt lat="31.694993333" lon="34.980091667">
<time>2013-04-01T09:23:21Z</time>
 <fix>none</fix>
 <sat>0</sat>
</trkpt>
<trkpt lat="31.695038333" lon="34.980128333">
<time>2013-04-01T09:23:23Z</time>
 <fix>none</fix>
 <sat>0</sat>
</trkpt>
<trkpt lat="31.695063333" lon="34.980148333">
<time>2013-04-01T09:23:25Z</time>
 <fix>none</fix>
 <sat>0</sat>
</trkpt>
<trkpt lat="31.695113333" lon="34.980190000">
<time>2013-04-01T09:23:27Z</time>
 <fix>none</fix>
 <sat>0</sat>
</trkpt>
<trkpt lat="31.695185000" lon="34.980240000">
<time>2013-04-01T09:23:29Z</time>
 <fix>none</fix>
 <sat>0</sat>
</trkpt>
<trkpt lat="31.695228333" lon="34.980261667">
<time>2013-04-01T09:23:31Z</time>
 <fix>none</fix>
 <sat>0</sat>
</trkpt>
<trkpt lat="31.695276667" lon="34.980280000">
<time>2013-04-01T09:23:33Z</time>
 <fix>none</fix>
 <sat>0</sat>
</trkpt>
<trkpt lat="31.695325000" lon="34.980290000">
<time>2013-04-01T09:23:35Z</time>
 <fix>none</fix>
 <sat>0</sat>
</trkpt>
<trkpt lat="31.695371667" lon="34.980300000">
<time>2013-04-01T09:23:37Z</time>
 <fix>none</fix>
 <sat>0</sat>
</trkpt>
<trkpt lat="31.695410000" lon="34.980321667">
<time>2013-04-01T09:23:39Z</time>
 <fix>none</fix>
 <sat>0</sat>
</trkpt>
<trkpt lat="31.695443333" lon="34.980355000">
<time>2013-04-01T09:23:41Z</time>
 <fix>none</fix>
 <sat>0</sat>
</trkpt>
<trkpt lat="31.695466667" lon="34.980401667">
<time>2013-04-01T09:23:43Z</time>
 <fix>none</fix>
 <sat>0</sat>
</trkpt>
<trkpt lat="31.695490000" lon="34.980446667">
<time>2013-04-01T09:23:45Z</time>
 <fix>none</fix>
 <sat>0</sat>
</trkpt>
<trkpt lat="31.695496667" lon="34.980468333">
<time>2013-04-01T09:23:47Z</time>
 <fix>none</fix>
 <sat>0</sat>
</trkpt>
<trkpt lat="31.695505000" lon="34.980518333">
<time>2013-04-01T09:23:49Z</time>
 <fix>none</fix>
 <sat>0</sat>
</trkpt>
<trkpt lat="31.695505000" lon="34.980563333">
<time>2013-04-01T09:23:51Z</time>
 <fix>none</fix>
 <sat>0</sat>
</trkpt>
<trkpt lat="31.695503333" lon="34.980578333">
<time>2013-04-01T09:23:53Z</time>
 <fix>none</fix>
 <sat>0</sat>
</trkpt>
<trkpt lat="31.695498333" lon="34.980583333">
<time>2013-04-01T09:23:55Z</time>
 <fix>none</fix>
 <sat>0</sat>
</trkpt>
<trkpt lat="31.695476667" lon="34.980603333">
<time>2013-04-01T09:23:57Z</time>
 <fix>none</fix>
 <sat>0</sat>
</trkpt>
<trkpt lat="31.695470000" lon="34.980625000">
<time>2013-04-01T09:23:59Z</time>
 <fix>none</fix>
 <sat>0</sat>
</trkpt>
<trkpt lat="31.695473333" lon="34.980646667">
<time>2013-04-01T09:24:01Z</time>
 <fix>none</fix>
 <sat>0</sat>
</trkpt>
<trkpt lat="31.695473333" lon="34.980656667">
<time>2013-04-01T09:24:03Z</time>
 <fix>none</fix>
 <sat>0</sat>
</trkpt>
<trkpt lat="31.695475000" lon="34.980660000">
<time>2013-04-01T09:24:05Z</time>
 <fix>none</fix>
 <sat>0</sat>
</trkpt>
<trkpt lat="31.695478333" lon="34.980660000">
<time>2013-04-01T09:24:07Z</time>
 <fix>none</fix>
 <sat>0</sat>
</trkpt>
<trkpt lat="31.695478333" lon="34.980658333">
<time>2013-04-01T09:24:09Z</time>
 <fix>none</fix>
 <sat>0</sat>
</trkpt>
<trkpt lat="31.695483333" lon="34.980658333">
<time>2013-04-01T09:24:11Z</time>
 <fix>none</fix>
 <sat>0</sat>
</trkpt>
<trkpt lat="31.695478333" lon="34.980660000">
<time>2013-04-01T09:24:13Z</time>
 <fix>none</fix>
 <sat>0</sat>
</trkpt>
<trkpt lat="31.695475000" lon="34.980663333">
<time>2013-04-01T09:24:15Z</time>
 <fix>none</fix>
 <sat>0</sat>
</trkpt>
<trkpt lat="31.695478333" lon="34.980680000">
<time>2013-04-01T09:24:17Z</time>
 <fix>none</fix>
 <sat>0</sat>
</trkpt>
<trkpt lat="31.695488333" lon="34.980698333">
<time>2013-04-01T09:24:19Z</time>
 <fix>none</fix>
 <sat>0</sat>
</trkpt>
<trkpt lat="31.695490000" lon="34.980718333">
<time>2013-04-01T09:24:21Z</time>
 <fix>none</fix>
 <sat>0</sat>
</trkpt>
<trkpt lat="31.695490000" lon="34.980738333">
<time>2013-04-01T09:24:23Z</time>
 <fix>none</fix>
 <sat>0</sat>
</trkpt>
<trkpt lat="31.695490000" lon="34.980760000">
<time>2013-04-01T09:24:25Z</time>
 <fix>none</fix>
 <sat>0</sat>
</trkpt>
<trkpt lat="31.695495000" lon="34.980781667">
<time>2013-04-01T09:24:27Z</time>
 <fix>none</fix>
 <sat>0</sat>
</trkpt>
<trkpt lat="31.695500000" lon="34.980801667">
<time>2013-04-01T09:24:29Z</time>
 <fix>none</fix>
 <sat>0</sat>
</trkpt>
<trkpt lat="31.695501667" lon="34.980825000">
<time>2013-04-01T09:24:31Z</time>
 <fix>none</fix>
 <sat>0</sat>
</trkpt>
<trkpt lat="31.695503333" lon="34.980835000">
<time>2013-04-01T09:24:33Z</time>
 <fix>none</fix>
 <sat>0</sat>
</trkpt>
<trkpt lat="31.695506667" lon="34.980853333">
<time>2013-04-01T09:24:35Z</time>
 <fix>none</fix>
 <sat>0</sat>
</trkpt>
<trkpt lat="31.695508333" lon="34.980868333">
<time>2013-04-01T09:24:37Z</time>
 <fix>none</fix>
 <sat>0</sat>
</trkpt>
<trkpt lat="31.695498333" lon="34.980875000">
<time>2013-04-01T09:24:39Z</time>
 <fix>none</fix>
 <sat>0</sat>
</trkpt>
<trkpt lat="31.695496667" lon="34.980881667">
<time>2013-04-01T09:24:41Z</time>
 <fix>none</fix>
 <sat>0</sat>
</trkpt>
<trkpt lat="31.695493333" lon="34.980885000">
<time>2013-04-01T09:24:43Z</time>
 <fix>none</fix>
 <sat>0</sat>
</trkpt>
<trkpt lat="31.695493333" lon="34.980895000">
<time>2013-04-01T09:24:45Z</time>
 <fix>none</fix>
 <sat>0</sat>
</trkpt>
<trkpt lat="31.695495000" lon="34.980915000">
<time>2013-04-01T09:24:47Z</time>
 <fix>none</fix>
 <sat>0</sat>
</trkpt>
<trkpt lat="31.695496667" lon="34.980945000">
<time>2013-04-01T09:24:49Z</time>
 <fix>none</fix>
 <sat>0</sat>
</trkpt>
<trkpt lat="31.695490000" lon="34.980978333">
<time>2013-04-01T09:24:51Z</time>
 <fix>none</fix>
 <sat>0</sat>
</trkpt>
<trkpt lat="31.695480000" lon="34.981010000">
<time>2013-04-01T09:24:53Z</time>
 <fix>none</fix>
 <sat>0</sat>
</trkpt>
<trkpt lat="31.695476667" lon="34.981028333">
<time>2013-04-01T09:24:55Z</time>
 <fix>none</fix>
 <sat>0</sat>
</trkpt>
<trkpt lat="31.695476667" lon="34.981061667">
<time>2013-04-01T09:24:57Z</time>
 <fix>none</fix>
 <sat>0</sat>
</trkpt>
<trkpt lat="31.695471667" lon="34.981113333">
<time>2013-04-01T09:24:59Z</time>
 <fix>none</fix>
 <sat>0</sat>
</trkpt>
<trkpt lat="31.695471667" lon="34.981131667">
<time>2013-04-01T09:25:01Z</time>
 <fix>none</fix>
 <sat>0</sat>
</trkpt>
<trkpt lat="31.695476667" lon="34.981181667">
<time>2013-04-01T09:25:03Z</time>
 <fix>none</fix>
 <sat>0</sat>
</trkpt>
<trkpt lat="31.695478333" lon="34.981218333">
<time>2013-04-01T09:25:05Z</time>
 <fix>none</fix>
 <sat>0</sat>
</trkpt>
<trkpt lat="31.695485000" lon="34.981253333">
<time>2013-04-01T09:25:07Z</time>
 <fix>none</fix>
 <sat>0</sat>
</trkpt>
<trkpt lat="31.695488333" lon="34.981290000">
<time>2013-04-01T09:25:09Z</time>
 <fix>none</fix>
 <sat>0</sat>
</trkpt>
<trkpt lat="31.695495000" lon="34.981323333">
<time>2013-04-01T09:25:11Z</time>
 <fix>none</fix>
 <sat>0</sat>
</trkpt>
<trkpt lat="31.695496667" lon="34.981355000">
<time>2013-04-01T09:25:13Z</time>
 <fix>none</fix>
 <sat>0</sat>
</trkpt>
<trkpt lat="31.695498333" lon="34.981381667">
<time>2013-04-01T09:25:15Z</time>
 <fix>none</fix>
 <sat>0</sat>
</trkpt>
<trkpt lat="31.695495000" lon="34.981413333">
<time>2013-04-01T09:25:17Z</time>
 <fix>none</fix>
 <sat>0</sat>
</trkpt>
<trkpt lat="31.695493333" lon="34.981430000">
<time>2013-04-01T09:25:19Z</time>
 <fix>none</fix>
 <sat>0</sat>
</trkpt>
<trkpt lat="31.695483333" lon="34.981460000">
<time>2013-04-01T09:25:21Z</time>
 <fix>none</fix>
 <sat>0</sat>
</trkpt>
<trkpt lat="31.695473333" lon="34.981490000">
<time>2013-04-01T09:25:23Z</time>
 <fix>none</fix>
 <sat>0</sat>
</trkpt>
<trkpt lat="31.695460000" lon="34.981543333">
<time>2013-04-01T09:25:25Z</time>
 <fix>none</fix>
 <sat>0</sat>
</trkpt>
<trkpt lat="31.695448333" lon="34.981580000">
<time>2013-04-01T09:25:27Z</time>
 <fix>none</fix>
 <sat>0</sat>
</trkpt>
<trkpt lat="31.695440000" lon="34.981610000">
<time>2013-04-01T09:25:29Z</time>
 <fix>none</fix>
 <sat>0</sat>
</trkpt>
<trkpt lat="31.695418333" lon="34.981636667">
<time>2013-04-01T09:25:31Z</time>
 <fix>none</fix>
 <sat>0</sat>
</trkpt>
<trkpt lat="31.695395000" lon="34.981663333">
<time>2013-04-01T09:25:33Z</time>
 <fix>none</fix>
 <sat>0</sat>
</trkpt>
<trkpt lat="31.695383333" lon="34.981676667">
<time>2013-04-01T09:25:35Z</time>
 <fix>none</fix>
 <sat>0</sat>
</trkpt>
<trkpt lat="31.695366667" lon="34.981696667">
<time>2013-04-01T09:25:37Z</time>
 <fix>none</fix>
 <sat>0</sat>
</trkpt>
<trkpt lat="31.695366667" lon="34.981700000">
<time>2013-04-01T09:25:39Z</time>
 <fix>none</fix>
 <sat>0</sat>
</trkpt>
<trkpt lat="31.695368333" lon="34.981700000">
<time>2013-04-01T09:25:41Z</time>
 <fix>none</fix>
 <sat>0</sat>
</trkpt>
<trkpt lat="31.695363333" lon="34.981708333">
<time>2013-04-01T09:25:43Z</time>
 <fix>none</fix>
 <sat>0</sat>
</trkpt>
<trkpt lat="31.695351667" lon="34.981723333">
<time>2013-04-01T09:25:45Z</time>
 <fix>none</fix>
 <sat>0</sat>
</trkpt>
<trkpt lat="31.695343333" lon="34.981748333">
<time>2013-04-01T09:25:47Z</time>
 <fix>none</fix>
 <sat>0</sat>
</trkpt>
<trkpt lat="31.695343333" lon="34.981768333">
<time>2013-04-01T09:25:49Z</time>
 <fix>none</fix>
 <sat>0</sat>
</trkpt>
<trkpt lat="31.695340000" lon="34.981785000">
<time>2013-04-01T09:25:51Z</time>
 <fix>none</fix>
 <sat>0</sat>
</trkpt>
<trkpt lat="31.695335000" lon="34.981800000">
<time>2013-04-01T09:25:53Z</time>
 <fix>none</fix>
 <sat>0</sat>
</trkpt>
<trkpt lat="31.695330000" lon="34.981818333">
<time>2013-04-01T09:25:55Z</time>
 <fix>none</fix>
 <sat>0</sat>
</trkpt>
<trkpt lat="31.695326667" lon="34.981838333">
<time>2013-04-01T09:25:57Z</time>
 <fix>none</fix>
 <sat>0</sat>
</trkpt>
<trkpt lat="31.695323333" lon="34.981858333">
<time>2013-04-01T09:25:59Z</time>
 <fix>none</fix>
 <sat>0</sat>
</trkpt>
<trkpt lat="31.695318333" lon="34.981881667">
<time>2013-04-01T09:26:01Z</time>
 <fix>none</fix>
 <sat>0</sat>
</trkpt>
<trkpt lat="31.695315000" lon="34.981893333">
<time>2013-04-01T09:26:03Z</time>
 <fix>none</fix>
 <sat>0</sat>
</trkpt>
<trkpt lat="31.695308333" lon="34.981916667">
<time>2013-04-01T09:26:05Z</time>
 <fix>none</fix>
 <sat>0</sat>
</trkpt>
<trkpt lat="31.695303333" lon="34.981938333">
<time>2013-04-01T09:26:07Z</time>
 <fix>none</fix>
 <sat>0</sat>
</trkpt>
<trkpt lat="31.695298333" lon="34.981956667">
<time>2013-04-01T09:26:09Z</time>
 <fix>none</fix>
 <sat>0</sat>
</trkpt>
<trkpt lat="31.695296667" lon="34.981995000">
<time>2013-04-01T09:26:11Z</time>
 <fix>none</fix>
 <sat>0</sat>
</trkpt>
<trkpt lat="31.695295000" lon="34.982023333">
<time>2013-04-01T09:26:13Z</time>
 <fix>none</fix>
 <sat>0</sat>
</trkpt>
<trkpt lat="31.695291667" lon="34.982033333">
<time>2013-04-01T09:26:15Z</time>
 <fix>none</fix>
 <sat>0</sat>
</trkpt>
<trkpt lat="31.695285000" lon="34.982056667">
<time>2013-04-01T09:26:17Z</time>
 <fix>none</fix>
 <sat>0</sat>
</trkpt>
<trkpt lat="31.695283333" lon="34.982080000">
<time>2013-04-01T09:26:19Z</time>
 <fix>none</fix>
 <sat>0</sat>
</trkpt>
<trkpt lat="31.695280000" lon="34.982100000">
<time>2013-04-01T09:26:21Z</time>
 <fix>none</fix>
 <sat>0</sat>
</trkpt>
<trkpt lat="31.695280000" lon="34.982120000">
<time>2013-04-01T09:26:23Z</time>
 <fix>none</fix>
 <sat>0</sat>
</trkpt>
<trkpt lat="31.695283333" lon="34.982140000">
<time>2013-04-01T09:26:25Z</time>
 <fix>none</fix>
 <sat>0</sat>
</trkpt>
<trkpt lat="31.695285000" lon="34.982150000">
<time>2013-04-01T09:26:27Z</time>
 <fix>none</fix>
 <sat>0</sat>
</trkpt>
<trkpt lat="31.695285000" lon="34.982173333">
<time>2013-04-01T09:26:29Z</time>
 <fix>none</fix>
 <sat>0</sat>
</trkpt>
<trkpt lat="31.695285000" lon="34.982196667">
<time>2013-04-01T09:26:31Z</time>
 <fix>none</fix>
 <sat>0</sat>
</trkpt>
<trkpt lat="31.695281667" lon="34.982211667">
<time>2013-04-01T09:26:33Z</time>
 <fix>none</fix>
 <sat>0</sat>
</trkpt>
<trkpt lat="31.695283333" lon="34.982216667">
<time>2013-04-01T09:26:35Z</time>
 <fix>none</fix>
 <sat>0</sat>
</trkpt>
<trkpt lat="31.695290000" lon="34.982215000">
<time>2013-04-01T09:26:37Z</time>
 <fix>none</fix>
 <sat>0</sat>
</trkpt>
<trkpt lat="31.695295000" lon="34.982215000">
<time>2013-04-01T09:26:39Z</time>
 <fix>none</fix>
 <sat>0</sat>
</trkpt>
<trkpt lat="31.695295000" lon="34.982211667">
<time>2013-04-01T09:26:41Z</time>
 <fix>none</fix>
 <sat>0</sat>
</trkpt>
<trkpt lat="31.695293333" lon="34.982208333">
<time>2013-04-01T09:26:43Z</time>
 <fix>none</fix>
 <sat>0</sat>
</trkpt>
<trkpt lat="31.695290000" lon="34.982211667">
<time>2013-04-01T09:26:45Z</time>
 <fix>none</fix>
 <sat>0</sat>
</trkpt>
<trkpt lat="31.695295000" lon="34.982228333">
<time>2013-04-01T09:26:47Z</time>
 <fix>none</fix>
 <sat>0</sat>
</trkpt>
<trkpt lat="31.695296667" lon="34.982241667">
<time>2013-04-01T09:26:49Z</time>
 <fix>none</fix>
 <sat>0</sat>
</trkpt>
<trkpt lat="31.695293333" lon="34.982281667">
<time>2013-04-01T09:26:51Z</time>
 <fix>none</fix>
 <sat>0</sat>
</trkpt>
<trkpt lat="31.695288333" lon="34.982323333">
<time>2013-04-01T09:26:53Z</time>
 <fix>none</fix>
 <sat>0</sat>
</trkpt>
<trkpt lat="31.695281667" lon="34.982365000">
<time>2013-04-01T09:26:55Z</time>
 <fix>none</fix>
 <sat>0</sat>
</trkpt>
<trkpt lat="31.695270000" lon="34.982421667">
<time>2013-04-01T09:26:57Z</time>
 <fix>none</fix>
 <sat>0</sat>
</trkpt>
<trkpt lat="31.695260000" lon="34.982460000">
<time>2013-04-01T09:26:59Z</time>
 <fix>none</fix>
 <sat>0</sat>
</trkpt>
<trkpt lat="31.695248333" lon="34.982498333">
<time>2013-04-01T09:27:01Z</time>
 <fix>none</fix>
 <sat>0</sat>
</trkpt>
<trkpt lat="31.695236667" lon="34.982538333">
<time>2013-04-01T09:27:03Z</time>
 <fix>none</fix>
 <sat>0</sat>
</trkpt>
<trkpt lat="31.695223333" lon="34.982576667">
<time>2013-04-01T09:27:05Z</time>
 <fix>none</fix>
 <sat>0</sat>
</trkpt>
<trkpt lat="31.695210000" lon="34.982613333">
<time>2013-04-01T09:27:07Z</time>
 <fix>none</fix>
 <sat>0</sat>
</trkpt>
<trkpt lat="31.695195000" lon="34.982651667">
<time>2013-04-01T09:27:09Z</time>
 <fix>none</fix>
 <sat>0</sat>
</trkpt>
<trkpt lat="31.695183333" lon="34.982688333">
<time>2013-04-01T09:27:11Z</time>
 <fix>none</fix>
 <sat>0</sat>
</trkpt>
<trkpt lat="31.695178333" lon="34.982706667">
<time>2013-04-01T09:27:13Z</time>
 <fix>none</fix>
 <sat>0</sat>
</trkpt>
<trkpt lat="31.695166667" lon="34.982745000">
<time>2013-04-01T09:27:15Z</time>
 <fix>none</fix>
 <sat>0</sat>
</trkpt>
<trkpt lat="31.695143333" lon="34.982798333">
<time>2013-04-01T09:27:17Z</time>
 <fix>none</fix>
 <sat>0</sat>
</trkpt>
<trkpt lat="31.695128333" lon="34.982835000">
<time>2013-04-01T09:27:19Z</time>
 <fix>none</fix>
 <sat>0</sat>
</trkpt>
<trkpt lat="31.695111667" lon="34.982866667">
<time>2013-04-01T09:27:21Z</time>
 <fix>none</fix>
 <sat>0</sat>
</trkpt>
<trkpt lat="31.695095000" lon="34.982900000">
<time>2013-04-01T09:27:23Z</time>
 <fix>none</fix>
 <sat>0</sat>
</trkpt>
<trkpt lat="31.695090000" lon="34.982916667">
<time>2013-04-01T09:27:25Z</time>
 <fix>none</fix>
 <sat>0</sat>
</trkpt>
<trkpt lat="31.695063333" lon="34.982963333">
<time>2013-04-01T09:27:27Z</time>
 <fix>none</fix>
 <sat>0</sat>
</trkpt>
<trkpt lat="31.695046667" lon="34.982993333">
<time>2013-04-01T09:27:29Z</time>
 <fix>none</fix>
 <sat>0</sat>
</trkpt>
<trkpt lat="31.695026667" lon="34.983020000">
<time>2013-04-01T09:27:31Z</time>
 <fix>none</fix>
 <sat>0</sat>
</trkpt>
<trkpt lat="31.695005000" lon="34.983041667">
<time>2013-04-01T09:27:33Z</time>
 <fix>none</fix>
 <sat>0</sat>
</trkpt>
<trkpt lat="31.694993333" lon="34.983056667">
<time>2013-04-01T09:27:35Z</time>
 <fix>none</fix>
 <sat>0</sat>
</trkpt>
<trkpt lat="31.694975000" lon="34.983096667">
<time>2013-04-01T09:27:37Z</time>
 <fix>none</fix>
 <sat>0</sat>
</trkpt>
<trkpt lat="31.694973333" lon="34.983136667">
<time>2013-04-01T09:27:39Z</time>
 <fix>none</fix>
 <sat>0</sat>
</trkpt>
<trkpt lat="31.694973333" lon="34.983195000">
<time>2013-04-01T09:27:41Z</time>
 <fix>none</fix>
 <sat>0</sat>
</trkpt>
<trkpt lat="31.694978333" lon="34.983233333">
<time>2013-04-01T09:27:43Z</time>
 <fix>none</fix>
 <sat>0</sat>
</trkpt>
<trkpt lat="31.694985000" lon="34.983270000">
<time>2013-04-01T09:27:45Z</time>
 <fix>none</fix>
 <sat>0</sat>
</trkpt>
<trkpt lat="31.694991667" lon="34.983306667">
<time>2013-04-01T09:27:47Z</time>
 <fix>none</fix>
 <sat>0</sat>
</trkpt>
<trkpt lat="31.695006667" lon="34.983343333">
<time>2013-04-01T09:27:49Z</time>
 <fix>none</fix>
 <sat>0</sat>
</trkpt>
<trkpt lat="31.695020000" lon="34.983378333">
<time>2013-04-01T09:27:51Z</time>
 <fix>none</fix>
 <sat>0</sat>
</trkpt>
<trkpt lat="31.695030000" lon="34.983416667">
<time>2013-04-01T09:27:53Z</time>
 <fix>none</fix>
 <sat>0</sat>
</trkpt>
<trkpt lat="31.695035000" lon="34.983456667">
<time>2013-04-01T09:27:55Z</time>
 <fix>none</fix>
 <sat>0</sat>
</trkpt>
<trkpt lat="31.695038333" lon="34.983475000">
<time>2013-04-01T09:27:57Z</time>
 <fix>none</fix>
 <sat>0</sat>
</trkpt>
<trkpt lat="31.695043333" lon="34.983515000">
<time>2013-04-01T09:27:59Z</time>
 <fix>none</fix>
 <sat>0</sat>
</trkpt>
<trkpt lat="31.695051667" lon="34.983571667">
<time>2013-04-01T09:28:01Z</time>
 <fix>none</fix>
 <sat>0</sat>
</trkpt>
<trkpt lat="31.695050000" lon="34.983608333">
<time>2013-04-01T09:28:03Z</time>
 <fix>none</fix>
 <sat>0</sat>
</trkpt>
<trkpt lat="31.695043333" lon="34.983648333">
<time>2013-04-01T09:28:05Z</time>
 <fix>none</fix>
 <sat>0</sat>
</trkpt>
<trkpt lat="31.695040000" lon="34.983686667">
<time>2013-04-01T09:28:07Z</time>
 <fix>none</fix>
 <sat>0</sat>
</trkpt>
<trkpt lat="31.695031667" lon="34.983723333">
<time>2013-04-01T09:28:09Z</time>
 <fix>none</fix>
 <sat>0</sat>
</trkpt>
<trkpt lat="31.695023333" lon="34.983755000">
<time>2013-04-01T09:28:11Z</time>
 <fix>none</fix>
 <sat>0</sat>
</trkpt>
<trkpt lat="31.695008333" lon="34.983780000">
<time>2013-04-01T09:28:13Z</time>
 <fix>none</fix>
 <sat>0</sat>
</trkpt>
<trkpt lat="31.694991667" lon="34.983805000">
<time>2013-04-01T09:28:15Z</time>
 <fix>none</fix>
 <sat>0</sat>
</trkpt>
<trkpt lat="31.694978333" lon="34.983826667">
<time>2013-04-01T09:28:17Z</time>
 <fix>none</fix>
 <sat>0</sat>
</trkpt>
<trkpt lat="31.694963333" lon="34.983850000">
<time>2013-04-01T09:28:19Z</time>
 <fix>none</fix>
 <sat>0</sat>
</trkpt>
<trkpt lat="31.694953333" lon="34.983860000">
<time>2013-04-01T09:28:21Z</time>
 <fix>none</fix>
 <sat>0</sat>
</trkpt>
<trkpt lat="31.694936667" lon="34.983883333">
<time>2013-04-01T09:28:23Z</time>
 <fix>none</fix>
 <sat>0</sat>
</trkpt>
<trkpt lat="31.694916667" lon="34.983908333">
<time>2013-04-01T09:28:25Z</time>
 <fix>none</fix>
 <sat>0</sat>
</trkpt>
<trkpt lat="31.694916667" lon="34.983913333">
<time>2013-04-01T09:28:27Z</time>
 <fix>none</fix>
 <sat>0</sat>
</trkpt>
<trkpt lat="31.694916667" lon="34.983913333">
<time>2013-04-01T09:28:29Z</time>
 <fix>none</fix>
 <sat>0</sat>
</trkpt>
<trkpt lat="31.694910000" lon="34.983915000">
<time>2013-04-01T09:28:31Z</time>
 <fix>none</fix>
 <sat>0</sat>
</trkpt>
<trkpt lat="31.694908333" lon="34.983920000">
<time>2013-04-01T09:28:33Z</time>
 <fix>none</fix>
 <sat>0</sat>
</trkpt>
<trkpt lat="31.694895000" lon="34.983938333">
<time>2013-04-01T09:28:35Z</time>
 <fix>none</fix>
 <sat>0</sat>
</trkpt>
<trkpt lat="31.694885000" lon="34.983955000">
<time>2013-04-01T09:28:37Z</time>
 <fix>none</fix>
 <sat>0</sat>
</trkpt>
<trkpt lat="31.694876667" lon="34.983966667">
<time>2013-04-01T09:28:39Z</time>
 <fix>none</fix>
 <sat>0</sat>
</trkpt>
<trkpt lat="31.694870000" lon="34.983980000">
<time>2013-04-01T09:28:41Z</time>
 <fix>none</fix>
 <sat>0</sat>
</trkpt>
<trkpt lat="31.694865000" lon="34.983983333">
<time>2013-04-01T09:28:43Z</time>
 <fix>none</fix>
 <sat>0</sat>
</trkpt>
<trkpt lat="31.694855000" lon="34.983993333">
<time>2013-04-01T09:28:45Z</time>
 <fix>none</fix>
 <sat>0</sat>
</trkpt>
<trkpt lat="31.694843333" lon="34.984003333">
<time>2013-04-01T09:28:47Z</time>
 <fix>none</fix>
 <sat>0</sat>
</trkpt>
<trkpt lat="31.694828333" lon="34.984018333">
<time>2013-04-01T09:28:49Z</time>
 <fix>none</fix>
 <sat>0</sat>
</trkpt>
<trkpt lat="31.694818333" lon="34.984031667">
<time>2013-04-01T09:28:51Z</time>
 <fix>none</fix>
 <sat>0</sat>
</trkpt>
<trkpt lat="31.694813333" lon="34.984048333">
<time>2013-04-01T09:28:53Z</time>
 <fix>none</fix>
 <sat>0</sat>
</trkpt>
<trkpt lat="31.694808333" lon="34.984061667">
<time>2013-04-01T09:28:55Z</time>
 <fix>none</fix>
 <sat>0</sat>
</trkpt>
<trkpt lat="31.694806667" lon="34.984078333">
<time>2013-04-01T09:28:57Z</time>
 <fix>none</fix>
 <sat>0</sat>
</trkpt>
<trkpt lat="31.694803333" lon="34.984095000">
<time>2013-04-01T09:28:59Z</time>
 <fix>none</fix>
 <sat>0</sat>
</trkpt>
<trkpt lat="31.694798333" lon="34.984110000">
<time>2013-04-01T09:29:01Z</time>
 <fix>none</fix>
 <sat>0</sat>
</trkpt>
<trkpt lat="31.694791667" lon="34.984126667">
<time>2013-04-01T09:29:03Z</time>
 <fix>none</fix>
 <sat>0</sat>
</trkpt>
<trkpt lat="31.694786667" lon="34.984143333">
<time>2013-04-01T09:29:05Z</time>
 <fix>none</fix>
 <sat>0</sat>
</trkpt>
<trkpt lat="31.694783333" lon="34.984148333">
<time>2013-04-01T09:29:07Z</time>
 <fix>none</fix>
 <sat>0</sat>
</trkpt>
<trkpt lat="31.694775000" lon="34.984161667">
<time>2013-04-01T09:29:09Z</time>
 <fix>none</fix>
 <sat>0</sat>
</trkpt>
<trkpt lat="31.694761667" lon="34.984170000">
<time>2013-04-01T09:29:11Z</time>
 <fix>none</fix>
 <sat>0</sat>
</trkpt>
<trkpt lat="31.694741667" lon="34.984178333">
<time>2013-04-01T09:29:13Z</time>
 <fix>none</fix>
 <sat>0</sat>
</trkpt>
<trkpt lat="31.694725000" lon="34.984181667">
<time>2013-04-01T09:29:15Z</time>
 <fix>none</fix>
 <sat>0</sat>
</trkpt>
<trkpt lat="31.694710000" lon="34.984181667">
<time>2013-04-01T09:29:17Z</time>
 <fix>none</fix>
 <sat>0</sat>
</trkpt>
<trkpt lat="31.694693333" lon="34.984183333">
<time>2013-04-01T09:29:19Z</time>
 <fix>none</fix>
 <sat>0</sat>
</trkpt>
<trkpt lat="31.694676667" lon="34.984180000">
<time>2013-04-01T09:29:21Z</time>
 <fix>none</fix>
 <sat>0</sat>
</trkpt>
<trkpt lat="31.694658333" lon="34.984175000">
<time>2013-04-01T09:29:23Z</time>
 <fix>none</fix>
 <sat>0</sat>
</trkpt>
<trkpt lat="31.694641667" lon="34.984168333">
<time>2013-04-01T09:29:25Z</time>
 <fix>none</fix>
 <sat>0</sat>
</trkpt>
<trkpt lat="31.694625000" lon="34.984158333">
<time>2013-04-01T09:29:27Z</time>
 <fix>none</fix>
 <sat>0</sat>
</trkpt>
<trkpt lat="31.694616667" lon="34.984155000">
<time>2013-04-01T09:29:29Z</time>
 <fix>none</fix>
 <sat>0</sat>
</trkpt>
<trkpt lat="31.694601667" lon="34.984145000">
<time>2013-04-01T09:29:31Z</time>
 <fix>none</fix>
 <sat>0</sat>
</trkpt>
<trkpt lat="31.694583333" lon="34.984131667">
<time>2013-04-01T09:29:33Z</time>
 <fix>none</fix>
 <sat>0</sat>
</trkpt>
<trkpt lat="31.694558333" lon="34.984110000">
<time>2013-04-01T09:29:35Z</time>
 <fix>none</fix>
 <sat>0</sat>
</trkpt>
<trkpt lat="31.694540000" lon="34.984096667">
<time>2013-04-01T09:29:37Z</time>
 <fix>none</fix>
 <sat>0</sat>
</trkpt>
<trkpt lat="31.694523333" lon="34.984085000">
<time>2013-04-01T09:29:39Z</time>
 <fix>none</fix>
 <sat>0</sat>
</trkpt>
<trkpt lat="31.694508333" lon="34.984073333">
<time>2013-04-01T09:29:41Z</time>
 <fix>none</fix>
 <sat>0</sat>
</trkpt>
<trkpt lat="31.694501667" lon="34.984070000">
<time>2013-04-01T09:29:43Z</time>
 <fix>none</fix>
 <sat>0</sat>
</trkpt>
<trkpt lat="31.694483333" lon="34.984063333">
<time>2013-04-01T09:29:45Z</time>
 <fix>none</fix>
 <sat>0</sat>
</trkpt>
<trkpt lat="31.694468333" lon="34.984061667">
<time>2013-04-01T09:29:47Z</time>
 <fix>none</fix>
 <sat>0</sat>
</trkpt>
<trkpt lat="31.694453333" lon="34.984061667">
<time>2013-04-01T09:29:49Z</time>
 <fix>none</fix>
 <sat>0</sat>
</trkpt>
<trkpt lat="31.694446667" lon="34.984065000">
<time>2013-04-01T09:29:51Z</time>
 <fix>none</fix>
 <sat>0</sat>
</trkpt>
<trkpt lat="31.694436667" lon="34.984076667">
<time>2013-04-01T09:29:53Z</time>
 <fix>none</fix>
 <sat>0</sat>
</trkpt>
<trkpt lat="31.694436667" lon="34.984075000">
<time>2013-04-01T09:29:55Z</time>
 <fix>none</fix>
 <sat>0</sat>
</trkpt>
<trkpt lat="31.694436667" lon="34.984075000">
<time>2013-04-01T09:29:57Z</time>
 <fix>none</fix>
 <sat>0</sat>
</trkpt>
<trkpt lat="31.694438333" lon="34.984075000">
<time>2013-04-01T09:29:59Z</time>
 <fix>none</fix>
 <sat>0</sat>
</trkpt>
<trkpt lat="31.694438333" lon="34.984075000">
<time>2013-04-01T09:30:01Z</time>
 <fix>none</fix>
 <sat>0</sat>
</trkpt>
<trkpt lat="31.694438333" lon="34.984076667">
<time>2013-04-01T09:30:03Z</time>
 <fix>none</fix>
 <sat>0</sat>
</trkpt>
<trkpt lat="31.694440000" lon="34.984075000">
<time>2013-04-01T09:30:05Z</time>
 <fix>none</fix>
 <sat>0</sat>
</trkpt>
<trkpt lat="31.694431667" lon="34.984078333">
<time>2013-04-01T09:30:07Z</time>
 <fix>none</fix>
 <sat>0</sat>
</trkpt>
<trkpt lat="31.694420000" lon="34.984093333">
<time>2013-04-01T09:30:09Z</time>
 <fix>none</fix>
 <sat>0</sat>
</trkpt>
<trkpt lat="31.694408333" lon="34.984111667">
<time>2013-04-01T09:30:11Z</time>
 <fix>none</fix>
 <sat>0</sat>
</trkpt>
<trkpt lat="31.694396667" lon="34.984130000">
<time>2013-04-01T09:30:13Z</time>
 <fix>none</fix>
 <sat>0</sat>
</trkpt>
<trkpt lat="31.694390000" lon="34.984138333">
<time>2013-04-01T09:30:15Z</time>
 <fix>none</fix>
 <sat>0</sat>
</trkpt>
<trkpt lat="31.694380000" lon="34.984155000">
<time>2013-04-01T09:30:17Z</time>
 <fix>none</fix>
 <sat>0</sat>
</trkpt>
<trkpt lat="31.694363333" lon="34.984176667">
<time>2013-04-01T09:30:19Z</time>
 <fix>none</fix>
 <sat>0</sat>
</trkpt>
<trkpt lat="31.694363333" lon="34.984178333">
<time>2013-04-01T09:30:21Z</time>
 <fix>none</fix>
 <sat>0</sat>
</trkpt>
<trkpt lat="31.694338333" lon="34.984193333">
<time>2013-04-01T09:30:23Z</time>
 <fix>none</fix>
 <sat>0</sat>
</trkpt>
<trkpt lat="31.694318333" lon="34.984221667">
<time>2013-04-01T09:30:25Z</time>
 <fix>none</fix>
 <sat>0</sat>
</trkpt>
<trkpt lat="31.694298333" lon="34.984253333">
<time>2013-04-01T09:30:27Z</time>
 <fix>none</fix>
 <sat>0</sat>
</trkpt>
<trkpt lat="31.694270000" lon="34.984286667">
<time>2013-04-01T09:30:29Z</time>
 <fix>none</fix>
 <sat>0</sat>
</trkpt>
<trkpt lat="31.694253333" lon="34.984315000">
<time>2013-04-01T09:30:31Z</time>
 <fix>none</fix>
 <sat>0</sat>
</trkpt>
<trkpt lat="31.694246667" lon="34.984351667">
<time>2013-04-01T09:30:33Z</time>
 <fix>none</fix>
 <sat>0</sat>
</trkpt>
<trkpt lat="31.694260000" lon="34.984383333">
<time>2013-04-01T09:30:35Z</time>
 <fix>none</fix>
 <sat>0</sat>
</trkpt>
<trkpt lat="31.694271667" lon="34.984396667">
<time>2013-04-01T09:30:37Z</time>
 <fix>none</fix>
 <sat>0</sat>
</trkpt>
<trkpt lat="31.694293333" lon="34.984423333">
<time>2013-04-01T09:30:39Z</time>
 <fix>none</fix>
 <sat>0</sat>
</trkpt>
<trkpt lat="31.694316667" lon="34.984451667">
<time>2013-04-01T09:30:41Z</time>
 <fix>none</fix>
 <sat>0</sat>
</trkpt>
<trkpt lat="31.694333333" lon="34.984483333">
<time>2013-04-01T09:30:43Z</time>
 <fix>none</fix>
 <sat>0</sat>
</trkpt>
<trkpt lat="31.694341667" lon="34.984541667">
<time>2013-04-01T09:30:45Z</time>
 <fix>none</fix>
 <sat>0</sat>
</trkpt>
<trkpt lat="31.694348333" lon="34.984581667">
<time>2013-04-01T09:30:47Z</time>
 <fix>none</fix>
 <sat>0</sat>
</trkpt>
<trkpt lat="31.694350000" lon="34.984601667">
<time>2013-04-01T09:30:49Z</time>
 <fix>none</fix>
 <sat>0</sat>
</trkpt>
<trkpt lat="31.694358333" lon="34.984660000">
<time>2013-04-01T09:30:51Z</time>
 <fix>none</fix>
 <sat>0</sat>
</trkpt>
<trkpt lat="31.694365000" lon="34.984698333">
<time>2013-04-01T09:30:53Z</time>
 <fix>none</fix>
 <sat>0</sat>
</trkpt>
<trkpt lat="31.694368333" lon="34.984736667">
<time>2013-04-01T09:30:55Z</time>
 <fix>none</fix>
 <sat>0</sat>
</trkpt>
<trkpt lat="31.694371667" lon="34.984775000">
<time>2013-04-01T09:30:57Z</time>
 <fix>none</fix>
 <sat>0</sat>
</trkpt>
<trkpt lat="31.694373333" lon="34.984815000">
<time>2013-04-01T09:30:59Z</time>
 <fix>none</fix>
 <sat>0</sat>
</trkpt>
<trkpt lat="31.694373333" lon="34.984835000">
<time>2013-04-01T09:31:01Z</time>
 <fix>none</fix>
 <sat>0</sat>
</trkpt>
<trkpt lat="31.694371667" lon="34.984876667">
<time>2013-04-01T09:31:03Z</time>
 <fix>none</fix>
 <sat>0</sat>
</trkpt>
<trkpt lat="31.694368333" lon="34.984940000">
<time>2013-04-01T09:31:05Z</time>
 <fix>none</fix>
 <sat>0</sat>
</trkpt>
<trkpt lat="31.694368333" lon="34.984983333">
<time>2013-04-01T09:31:07Z</time>
 <fix>none</fix>
 <sat>0</sat>
</trkpt>
<trkpt lat="31.694365000" lon="34.985021667">
<time>2013-04-01T09:31:09Z</time>
 <fix>none</fix>
 <sat>0</sat>
</trkpt>
<trkpt lat="31.694363333" lon="34.985063333">
<time>2013-04-01T09:31:11Z</time>
 <fix>none</fix>
 <sat>0</sat>
</trkpt>
<trkpt lat="31.694360000" lon="34.985108333">
<time>2013-04-01T09:31:13Z</time>
 <fix>none</fix>
 <sat>0</sat>
</trkpt>
<trkpt lat="31.694355000" lon="34.985156667">
<time>2013-04-01T09:31:15Z</time>
 <fix>none</fix>
 <sat>0</sat>
</trkpt>
<trkpt lat="31.694338333" lon="34.985196667">
<time>2013-04-01T09:31:17Z</time>
 <fix>none</fix>
 <sat>0</sat>
</trkpt>
<trkpt lat="31.694311667" lon="34.985251667">
<time>2013-04-01T09:31:19Z</time>
 <fix>none</fix>
 <sat>0</sat>
</trkpt>
<trkpt lat="31.694308333" lon="34.985330000">
<time>2013-04-01T09:31:21Z</time>
 <fix>none</fix>
 <sat>0</sat>
</trkpt>
<trkpt lat="31.694311667" lon="34.985373333">
<time>2013-04-01T09:31:23Z</time>
 <fix>none</fix>
 <sat>0</sat>
</trkpt>
<trkpt lat="31.694318333" lon="34.985453333">
<time>2013-04-01T09:31:25Z</time>
 <fix>none</fix>
 <sat>0</sat>
</trkpt>
<trkpt lat="31.694320000" lon="34.985508333">
<time>2013-04-01T09:31:27Z</time>
 <fix>none</fix>
 <sat>0</sat>
</trkpt>
<trkpt lat="31.694301667" lon="34.985568333">
<time>2013-04-01T09:31:29Z</time>
 <fix>none</fix>
 <sat>0</sat>
</trkpt>
<trkpt lat="31.694263333" lon="34.985606667">
<time>2013-04-01T09:31:31Z</time>
 <fix>none</fix>
 <sat>0</sat>
</trkpt>
<trkpt lat="31.694216667" lon="34.985640000">
<time>2013-04-01T09:31:33Z</time>
 <fix>none</fix>
 <sat>0</sat>
</trkpt>
<trkpt lat="31.694173333" lon="34.985688333">
<time>2013-04-01T09:31:35Z</time>
 <fix>none</fix>
 <sat>0</sat>
</trkpt>
<trkpt lat="31.694121667" lon="34.985745000">
<time>2013-04-01T09:31:37Z</time>
 <fix>none</fix>
 <sat>0</sat>
</trkpt>
<trkpt lat="31.694066667" lon="34.985781667">
<time>2013-04-01T09:31:39Z</time>
 <fix>none</fix>
 <sat>0</sat>
</trkpt>
<trkpt lat="31.694023333" lon="34.985801667">
<time>2013-04-01T09:31:41Z</time>
 <fix>none</fix>
 <sat>0</sat>
</trkpt>
<trkpt lat="31.693986667" lon="34.985796667">
<time>2013-04-01T09:31:43Z</time>
 <fix>none</fix>
 <sat>0</sat>
</trkpt>
<trkpt lat="31.693971667" lon="34.985790000">
<time>2013-04-01T09:31:45Z</time>
 <fix>none</fix>
 <sat>0</sat>
</trkpt>
<trkpt lat="31.693948333" lon="34.985770000">
<time>2013-04-01T09:31:47Z</time>
 <fix>none</fix>
 <sat>0</sat>
</trkpt>
<trkpt lat="31.693930000" lon="34.985745000">
<time>2013-04-01T09:31:49Z</time>
 <fix>none</fix>
 <sat>0</sat>
</trkpt>
<trkpt lat="31.693920000" lon="34.985735000">
<time>2013-04-01T09:31:51Z</time>
 <fix>none</fix>
 <sat>0</sat>
</trkpt>
<trkpt lat="31.693885000" lon="34.985723333">
<time>2013-04-01T09:31:53Z</time>
 <fix>none</fix>
 <sat>0</sat>
</trkpt>
<trkpt lat="31.693856667" lon="34.985725000">
<time>2013-04-01T09:31:55Z</time>
 <fix>none</fix>
 <sat>0</sat>
</trkpt>
<trkpt lat="31.693825000" lon="34.985731667">
<time>2013-04-01T09:31:57Z</time>
 <fix>none</fix>
 <sat>0</sat>
</trkpt>
<trkpt lat="31.693785000" lon="34.985740000">
<time>2013-04-01T09:31:59Z</time>
 <fix>none</fix>
 <sat>0</sat>
</trkpt>
<trkpt lat="31.693735000" lon="34.985740000">
<time>2013-04-01T09:32:01Z</time>
 <fix>none</fix>
 <sat>0</sat>
</trkpt>
<trkpt lat="31.693676667" lon="34.985731667">
<time>2013-04-01T09:32:03Z</time>
 <fix>none</fix>
 <sat>0</sat>
</trkpt>
<trkpt lat="31.693625000" lon="34.985721667">
<time>2013-04-01T09:32:05Z</time>
 <fix>none</fix>
 <sat>0</sat>
</trkpt>
<trkpt lat="31.693583333" lon="34.985695000">
<time>2013-04-01T09:32:07Z</time>
 <fix>none</fix>
 <sat>0</sat>
</trkpt>
<trkpt lat="31.693568333" lon="34.985678333">
<time>2013-04-01T09:32:09Z</time>
 <fix>none</fix>
 <sat>0</sat>
</trkpt>
<trkpt lat="31.693553333" lon="34.985630000">
<time>2013-04-01T09:32:11Z</time>
 <fix>none</fix>
 <sat>0</sat>
</trkpt>
<trkpt lat="31.693543333" lon="34.985581667">
<time>2013-04-01T09:32:13Z</time>
 <fix>none</fix>
 <sat>0</sat>
</trkpt>
<trkpt lat="31.693511667" lon="34.985498333">
<time>2013-04-01T09:32:15Z</time>
 <fix>none</fix>
 <sat>0</sat>
</trkpt>
<trkpt lat="31.693480000" lon="34.985480000">
<time>2013-04-01T09:32:17Z</time>
 <fix>none</fix>
 <sat>0</sat>
</trkpt>
<trkpt lat="31.693473333" lon="34.985473333">
<time>2013-04-01T09:32:19Z</time>
 <fix>none</fix>
 <sat>0</sat>
</trkpt>
<trkpt lat="31.693471667" lon="34.985475000">
<time>2013-04-01T09:32:21Z</time>
 <fix>none</fix>
 <sat>0</sat>
</trkpt>
<trkpt lat="31.693473333" lon="34.985475000">
<time>2013-04-01T09:32:23Z</time>
 <fix>none</fix>
 <sat>0</sat>
</trkpt>
<trkpt lat="31.693473333" lon="34.985476667">
<time>2013-04-01T09:32:25Z</time>
 <fix>none</fix>
 <sat>0</sat>
</trkpt>
<trkpt lat="31.693473333" lon="34.985475000">
<time>2013-04-01T09:32:27Z</time>
 <fix>none</fix>
 <sat>0</sat>
</trkpt>
<trkpt lat="31.693473333" lon="34.985476667">
<time>2013-04-01T09:32:29Z</time>
 <fix>none</fix>
 <sat>0</sat>
</trkpt>
<trkpt lat="31.693473333" lon="34.985476667">
<time>2013-04-01T09:32:31Z</time>
 <fix>none</fix>
 <sat>0</sat>
</trkpt>
<trkpt lat="31.693473333" lon="34.985476667">
<time>2013-04-01T09:32:33Z</time>
 <fix>none</fix>
 <sat>0</sat>
</trkpt>
<trkpt lat="31.693471667" lon="34.985463333">
<time>2013-04-01T09:32:35Z</time>
 <fix>none</fix>
 <sat>0</sat>
</trkpt>
<trkpt lat="31.693466667" lon="34.985463333">
<time>2013-04-01T09:32:37Z</time>
 <fix>none</fix>
 <sat>0</sat>
</trkpt>
<trkpt lat="31.693463333" lon="34.985461667">
<time>2013-04-01T09:32:39Z</time>
 <fix>none</fix>
 <sat>0</sat>
</trkpt>
<trkpt lat="31.693463333" lon="34.985463333">
<time>2013-04-01T09:32:41Z</time>
 <fix>none</fix>
 <sat>0</sat>
</trkpt>
<trkpt lat="31.693458333" lon="34.985465000">
<time>2013-04-01T09:32:43Z</time>
 <fix>none</fix>
 <sat>0</sat>
</trkpt>
<trkpt lat="31.693458333" lon="34.985465000">
<time>2013-04-01T09:32:45Z</time>
 <fix>none</fix>
 <sat>0</sat>
</trkpt>
<trkpt lat="31.693458333" lon="34.985465000">
<time>2013-04-01T09:32:47Z</time>
 <fix>none</fix>
 <sat>0</sat>
</trkpt>
<trkpt lat="31.693458333" lon="34.985460000">
<time>2013-04-01T09:32:49Z</time>
 <fix>none</fix>
 <sat>0</sat>
</trkpt>
<trkpt lat="31.693458333" lon="34.985458333">
<time>2013-04-01T09:32:51Z</time>
 <fix>none</fix>
 <sat>0</sat>
</trkpt>
<trkpt lat="31.693458333" lon="34.985456667">
<time>2013-04-01T09:32:53Z</time>
 <fix>none</fix>
 <sat>0</sat>
</trkpt>
<trkpt lat="31.693460000" lon="34.985456667">
<time>2013-04-01T09:32:55Z</time>
 <fix>none</fix>
 <sat>0</sat>
</trkpt>
<trkpt lat="31.693460000" lon="34.985455000">
<time>2013-04-01T09:32:57Z</time>
 <fix>none</fix>
 <sat>0</sat>
</trkpt>
<trkpt lat="31.693461667" lon="34.985455000">
<time>2013-04-01T09:32:59Z</time>
 <fix>none</fix>
 <sat>0</sat>
</trkpt>
<trkpt lat="31.693461667" lon="34.985453333">
<time>2013-04-01T09:33:01Z</time>
 <fix>none</fix>
 <sat>0</sat>
</trkpt>
<trkpt lat="31.693463333" lon="34.985453333">
<time>2013-04-01T09:33:03Z</time>
 <fix>none</fix>
 <sat>0</sat>
</trkpt>
<trkpt lat="31.693463333" lon="34.985451667">
<time>2013-04-01T09:33:05Z</time>
 <fix>none</fix>
 <sat>0</sat>
</trkpt>
<trkpt lat="31.693463333" lon="34.985451667">
<time>2013-04-01T09:33:07Z</time>
 <fix>none</fix>
 <sat>0</sat>
</trkpt>
<trkpt lat="31.693463333" lon="34.985450000">
<time>2013-04-01T09:33:09Z</time>
 <fix>none</fix>
 <sat>0</sat>
</trkpt>
<trkpt lat="31.693461667" lon="34.985450000">
<time>2013-04-01T09:33:11Z</time>
 <fix>none</fix>
 <sat>0</sat>
</trkpt>
<trkpt lat="31.693463333" lon="34.985450000">
<time>2013-04-01T09:33:13Z</time>
 <fix>none</fix>
 <sat>0</sat>
</trkpt>
<trkpt lat="31.693461667" lon="34.985450000">
<time>2013-04-01T09:33:15Z</time>
 <fix>none</fix>
 <sat>0</sat>
</trkpt>
<trkpt lat="31.693463333" lon="34.985450000">
<time>2013-04-01T09:33:17Z</time>
 <fix>none</fix>
 <sat>0</sat>
</trkpt>
<trkpt lat="31.693463333" lon="34.985450000">
<time>2013-04-01T09:33:19Z</time>
 <fix>none</fix>
 <sat>0</sat>
</trkpt>
<trkpt lat="31.693463333" lon="34.985450000">
<time>2013-04-01T09:33:21Z</time>
 <fix>none</fix>
 <sat>0</sat>
</trkpt>
<trkpt lat="31.693463333" lon="34.985450000">
<time>2013-04-01T09:33:23Z</time>
 <fix>none</fix>
 <sat>0</sat>
</trkpt>
<trkpt lat="31.693463333" lon="34.985450000">
<time>2013-04-01T09:33:25Z</time>
 <fix>none</fix>
 <sat>0</sat>
</trkpt>
<trkpt lat="31.693463333" lon="34.985450000">
<time>2013-04-01T09:33:27Z</time>
 <fix>none</fix>
 <sat>0</sat>
</trkpt>
<trkpt lat="31.693463333" lon="34.985450000">
<time>2013-04-01T09:33:29Z</time>
 <fix>none</fix>
 <sat>0</sat>
</trkpt>
<trkpt lat="31.693465000" lon="34.985450000">
<time>2013-04-01T09:33:31Z</time>
 <fix>none</fix>
 <sat>0</sat>
</trkpt>
<trkpt lat="31.693465000" lon="34.985450000">
<time>2013-04-01T09:33:33Z</time>
 <fix>none</fix>
 <sat>0</sat>
</trkpt>
<trkpt lat="31.693465000" lon="34.985453333">
<time>2013-04-01T09:33:35Z</time>
 <fix>none</fix>
 <sat>0</sat>
</trkpt>
<trkpt lat="31.693465000" lon="34.985451667">
<time>2013-04-01T09:33:37Z</time>
 <fix>none</fix>
 <sat>0</sat>
</trkpt>
<trkpt lat="31.693461667" lon="34.985430000">
<time>2013-04-01T09:33:39Z</time>
 <fix>none</fix>
 <sat>0</sat>
</trkpt>
<trkpt lat="31.693461667" lon="34.985416667">
<time>2013-04-01T09:33:41Z</time>
 <fix>none</fix>
 <sat>0</sat>
</trkpt>
<trkpt lat="31.693460000" lon="34.985401667">
<time>2013-04-01T09:33:43Z</time>
 <fix>none</fix>
 <sat>0</sat>
</trkpt>
<trkpt lat="31.693461667" lon="34.985395000">
<time>2013-04-01T09:33:45Z</time>
 <fix>none</fix>
 <sat>0</sat>
</trkpt>
<trkpt lat="31.693461667" lon="34.985393333">
<time>2013-04-01T09:33:47Z</time>
 <fix>none</fix>
 <sat>0</sat>
</trkpt>
<trkpt lat="31.693463333" lon="34.985393333">
<time>2013-04-01T09:33:49Z</time>
 <fix>none</fix>
 <sat>0</sat>
</trkpt>
<trkpt lat="31.693463333" lon="34.985393333">
<time>2013-04-01T09:33:51Z</time>
 <fix>none</fix>
 <sat>0</sat>
</trkpt>
<trkpt lat="31.693463333" lon="34.985395000">
<time>2013-04-01T09:33:53Z</time>
 <fix>none</fix>
 <sat>0</sat>
</trkpt>
<trkpt lat="31.693463333" lon="34.985395000">
<time>2013-04-01T09:33:55Z</time>
 <fix>none</fix>
 <sat>0</sat>
</trkpt>
<trkpt lat="31.693463333" lon="34.985396667">
<time>2013-04-01T09:33:57Z</time>
 <fix>none</fix>
 <sat>0</sat>
</trkpt>
<trkpt lat="31.693463333" lon="34.985398333">
<time>2013-04-01T09:33:59Z</time>
 <fix>none</fix>
 <sat>0</sat>
</trkpt>
<trkpt lat="31.693463333" lon="34.985398333">
<time>2013-04-01T09:34:01Z</time>
 <fix>none</fix>
 <sat>0</sat>
</trkpt>
<trkpt lat="31.693463333" lon="34.985398333">
<time>2013-04-01T09:34:03Z</time>
 <fix>none</fix>
 <sat>0</sat>
</trkpt>
<trkpt lat="31.693463333" lon="34.985398333">
<time>2013-04-01T09:34:05Z</time>
 <fix>none</fix>
 <sat>0</sat>
</trkpt>
<trkpt lat="31.693463333" lon="34.985398333">
<time>2013-04-01T09:34:07Z</time>
 <fix>none</fix>
 <sat>0</sat>
</trkpt>
<trkpt lat="31.693463333" lon="34.985398333">
<time>2013-04-01T09:34:09Z</time>
 <fix>none</fix>
 <sat>0</sat>
</trkpt>
<trkpt lat="31.693461667" lon="34.985403333">
<time>2013-04-01T09:34:11Z</time>
 <fix>none</fix>
 <sat>0</sat>
</trkpt>
<trkpt lat="31.693461667" lon="34.985403333">
<time>2013-04-01T09:34:13Z</time>
 <fix>none</fix>
 <sat>0</sat>
</trkpt>
<trkpt lat="31.693461667" lon="34.985401667">
<time>2013-04-01T09:34:15Z</time>
 <fix>none</fix>
 <sat>0</sat>
</trkpt>
<trkpt lat="31.693460000" lon="34.985403333">
<time>2013-04-01T09:34:17Z</time>
 <fix>none</fix>
 <sat>0</sat>
</trkpt>
<trkpt lat="31.693460000" lon="34.985403333">
<time>2013-04-01T09:34:19Z</time>
 <fix>none</fix>
 <sat>0</sat>
</trkpt>
<trkpt lat="31.693460000" lon="34.985405000">
<time>2013-04-01T09:34:21Z</time>
 <fix>none</fix>
 <sat>0</sat>
</trkpt>
<trkpt lat="31.693461667" lon="34.985406667">
<time>2013-04-01T09:34:23Z</time>
 <fix>none</fix>
 <sat>0</sat>
</trkpt>
<trkpt lat="31.693461667" lon="34.985406667">
<time>2013-04-01T09:34:25Z</time>
 <fix>none</fix>
 <sat>0</sat>
</trkpt>
<trkpt lat="31.693456667" lon="34.985406667">
<time>2013-04-01T09:34:27Z</time>
 <fix>none</fix>
 <sat>0</sat>
</trkpt>
<trkpt lat="31.693460000" lon="34.985408333">
<time>2013-04-01T09:34:29Z</time>
 <fix>none</fix>
 <sat>0</sat>
</trkpt>
<trkpt lat="31.693470000" lon="34.985418333">
<time>2013-04-01T09:34:31Z</time>
 <fix>none</fix>
 <sat>0</sat>
</trkpt>
<trkpt lat="31.693471667" lon="34.985420000">
<time>2013-04-01T09:34:33Z</time>
 <fix>none</fix>
 <sat>0</sat>
</trkpt>
<trkpt lat="31.693470000" lon="34.985418333">
<time>2013-04-01T09:34:35Z</time>
 <fix>none</fix>
 <sat>0</sat>
</trkpt>
<trkpt lat="31.693466667" lon="34.985416667">
<time>2013-04-01T09:34:37Z</time>
 <fix>none</fix>
 <sat>0</sat>
</trkpt>
<trkpt lat="31.693463333" lon="34.985415000">
<time>2013-04-01T09:34:39Z</time>
 <fix>none</fix>
 <sat>0</sat>
</trkpt>
<trkpt lat="31.693460000" lon="34.985415000">
<time>2013-04-01T09:34:41Z</time>
 <fix>none</fix>
 <sat>0</sat>
</trkpt>
<trkpt lat="31.693460000" lon="34.985418333">
<time>2013-04-01T09:34:43Z</time>
 <fix>none</fix>
 <sat>0</sat>
</trkpt>
<trkpt lat="31.693460000" lon="34.985423333">
<time>2013-04-01T09:34:45Z</time>
 <fix>none</fix>
 <sat>0</sat>
</trkpt>
<trkpt lat="31.693461667" lon="34.985430000">
<time>2013-04-01T09:34:47Z</time>
 <fix>none</fix>
 <sat>0</sat>
</trkpt>
<trkpt lat="31.693461667" lon="34.985430000">
<time>2013-04-01T09:34:49Z</time>
 <fix>none</fix>
 <sat>0</sat>
</trkpt>
<trkpt lat="31.693460000" lon="34.985440000">
<time>2013-04-01T09:34:51Z</time>
 <fix>none</fix>
 <sat>0</sat>
</trkpt>
<trkpt lat="31.693460000" lon="34.985443333">
<time>2013-04-01T09:34:53Z</time>
 <fix>none</fix>
 <sat>0</sat>
</trkpt>
<trkpt lat="31.693456667" lon="34.985446667">
<time>2013-04-01T09:34:55Z</time>
 <fix>none</fix>
 <sat>0</sat>
</trkpt>
<trkpt lat="31.693455000" lon="34.985448333">
<time>2013-04-01T09:34:57Z</time>
 <fix>none</fix>
 <sat>0</sat>
</trkpt>
<trkpt lat="31.693451667" lon="34.985445000">
<time>2013-04-01T09:34:59Z</time>
 <fix>none</fix>
 <sat>0</sat>
</trkpt>
<trkpt lat="31.693450000" lon="34.985445000">
<time>2013-04-01T09:35:01Z</time>
 <fix>none</fix>
 <sat>0</sat>
</trkpt>
<trkpt lat="31.693448333" lon="34.985446667">
<time>2013-04-01T09:35:03Z</time>
 <fix>none</fix>
 <sat>0</sat>
</trkpt>
<trkpt lat="31.693446667" lon="34.985445000">
<time>2013-04-01T09:35:05Z</time>
 <fix>none</fix>
 <sat>0</sat>
</trkpt>
<trkpt lat="31.693443333" lon="34.985446667">
<time>2013-04-01T09:35:07Z</time>
 <fix>none</fix>
 <sat>0</sat>
</trkpt>
<trkpt lat="31.693440000" lon="34.985441667">
<time>2013-04-01T09:35:09Z</time>
 <fix>none</fix>
 <sat>0</sat>
</trkpt>
<trkpt lat="31.693441667" lon="34.985445000">
<time>2013-04-01T09:35:11Z</time>
 <fix>none</fix>
 <sat>0</sat>
</trkpt>
<trkpt lat="31.693441667" lon="34.985450000">
<time>2013-04-01T09:35:13Z</time>
 <fix>none</fix>
 <sat>0</sat>
</trkpt>
<trkpt lat="31.693441667" lon="34.985453333">
<time>2013-04-01T09:35:15Z</time>
 <fix>none</fix>
 <sat>0</sat>
</trkpt>
<trkpt lat="31.693441667" lon="34.985453333">
<time>2013-04-01T09:35:17Z</time>
 <fix>none</fix>
 <sat>0</sat>
</trkpt>
<trkpt lat="31.693443333" lon="34.985455000">
<time>2013-04-01T09:35:19Z</time>
 <fix>none</fix>
 <sat>0</sat>
</trkpt>
<trkpt lat="31.693441667" lon="34.985455000">
<time>2013-04-01T09:35:21Z</time>
 <fix>none</fix>
 <sat>0</sat>
</trkpt>
<trkpt lat="31.693441667" lon="34.985455000">
<time>2013-04-01T09:35:23Z</time>
 <fix>none</fix>
 <sat>0</sat>
</trkpt>
<trkpt lat="31.693443333" lon="34.985455000">
<time>2013-04-01T09:35:25Z</time>
 <fix>none</fix>
 <sat>0</sat>
</trkpt>
<trkpt lat="31.693443333" lon="34.985456667">
<time>2013-04-01T09:35:27Z</time>
 <fix>none</fix>
 <sat>0</sat>
</trkpt>
<trkpt lat="31.693443333" lon="34.985456667">
<time>2013-04-01T09:35:29Z</time>
 <fix>none</fix>
 <sat>0</sat>
</trkpt>
<trkpt lat="31.693443333" lon="34.985456667">
<time>2013-04-01T09:35:31Z</time>
 <fix>none</fix>
 <sat>0</sat>
</trkpt>
<trkpt lat="31.693441667" lon="34.985455000">
<time>2013-04-01T09:35:33Z</time>
 <fix>none</fix>
 <sat>0</sat>
</trkpt>
<trkpt lat="31.693440000" lon="34.985451667">
<time>2013-04-01T09:35:35Z</time>
 <fix>none</fix>
 <sat>0</sat>
</trkpt>
<trkpt lat="31.693436667" lon="34.985450000">
<time>2013-04-01T09:35:37Z</time>
 <fix>none</fix>
 <sat>0</sat>
</trkpt>
<trkpt lat="31.693433333" lon="34.985445000">
<time>2013-04-01T09:35:39Z</time>
 <fix>none</fix>
 <sat>0</sat>
</trkpt>
<trkpt lat="31.693435000" lon="34.985440000">
<time>2013-04-01T09:35:41Z</time>
 <fix>none</fix>
 <sat>0</sat>
</trkpt>
<trkpt lat="31.693433333" lon="34.985438333">
<time>2013-04-01T09:35:43Z</time>
 <fix>none</fix>
 <sat>0</sat>
</trkpt>
<trkpt lat="31.693433333" lon="34.985433333">
<time>2013-04-01T09:35:45Z</time>
 <fix>none</fix>
 <sat>0</sat>
</trkpt>
<trkpt lat="31.693431667" lon="34.985430000">
<time>2013-04-01T09:35:47Z</time>
 <fix>none</fix>
 <sat>0</sat>
</trkpt>
<trkpt lat="31.693433333" lon="34.985428333">
<time>2013-04-01T09:35:49Z</time>
 <fix>none</fix>
 <sat>0</sat>
</trkpt>
<trkpt lat="31.693433333" lon="34.985425000">
<time>2013-04-01T09:35:51Z</time>
 <fix>none</fix>
 <sat>0</sat>
</trkpt>
<trkpt lat="31.693433333" lon="34.985423333">
<time>2013-04-01T09:35:53Z</time>
 <fix>none</fix>
 <sat>0</sat>
</trkpt>
<trkpt lat="31.693435000" lon="34.985423333">
<time>2013-04-01T09:35:55Z</time>
 <fix>none</fix>
 <sat>0</sat>
</trkpt>
<trkpt lat="31.693435000" lon="34.985425000">
<time>2013-04-01T09:35:57Z</time>
 <fix>none</fix>
 <sat>0</sat>
</trkpt>
<trkpt lat="31.693435000" lon="34.985421667">
<time>2013-04-01T09:35:59Z</time>
 <fix>none</fix>
 <sat>0</sat>
</trkpt>
<trkpt lat="31.693435000" lon="34.985420000">
<time>2013-04-01T09:36:01Z</time>
 <fix>none</fix>
 <sat>0</sat>
</trkpt>
<trkpt lat="31.693435000" lon="34.985420000">
<time>2013-04-01T09:36:03Z</time>
 <fix>none</fix>
 <sat>0</sat>
</trkpt>
<trkpt lat="31.693435000" lon="34.985421667">
<time>2013-04-01T09:36:05Z</time>
 <fix>none</fix>
 <sat>0</sat>
</trkpt>
<trkpt lat="31.693435000" lon="34.985423333">
<time>2013-04-01T09:36:07Z</time>
 <fix>none</fix>
 <sat>0</sat>
</trkpt>
<trkpt lat="31.693436667" lon="34.985421667">
<time>2013-04-01T09:36:09Z</time>
 <fix>none</fix>
 <sat>0</sat>
</trkpt>
<trkpt lat="31.693436667" lon="34.985420000">
<time>2013-04-01T09:36:11Z</time>
 <fix>none</fix>
 <sat>0</sat>
</trkpt>
<trkpt lat="31.693435000" lon="34.985420000">
<time>2013-04-01T09:36:13Z</time>
 <fix>none</fix>
 <sat>0</sat>
</trkpt>
<trkpt lat="31.693435000" lon="34.985421667">
<time>2013-04-01T09:36:15Z</time>
 <fix>none</fix>
 <sat>0</sat>
</trkpt>
<trkpt lat="31.693435000" lon="34.985421667">
<time>2013-04-01T09:36:17Z</time>
 <fix>none</fix>
 <sat>0</sat>
</trkpt>
<trkpt lat="31.693435000" lon="34.985420000">
<time>2013-04-01T09:36:19Z</time>
 <fix>none</fix>
 <sat>0</sat>
</trkpt>
<trkpt lat="31.693435000" lon="34.985420000">
<time>2013-04-01T09:36:21Z</time>
 <fix>none</fix>
 <sat>0</sat>
</trkpt>
<trkpt lat="31.693435000" lon="34.985420000">
<time>2013-04-01T09:36:23Z</time>
 <fix>none</fix>
 <sat>0</sat>
</trkpt>
<trkpt lat="31.693435000" lon="34.985420000">
<time>2013-04-01T09:36:25Z</time>
 <fix>none</fix>
 <sat>0</sat>
</trkpt>
<trkpt lat="31.693436667" lon="34.985420000">
<time>2013-04-01T09:36:27Z</time>
 <fix>none</fix>
 <sat>0</sat>
</trkpt>
<trkpt lat="31.693436667" lon="34.985421667">
<time>2013-04-01T09:36:29Z</time>
 <fix>none</fix>
 <sat>0</sat>
</trkpt>
<trkpt lat="31.693436667" lon="34.985421667">
<time>2013-04-01T09:36:31Z</time>
 <fix>none</fix>
 <sat>0</sat>
</trkpt>
<trkpt lat="31.693438333" lon="34.985421667">
<time>2013-04-01T09:36:33Z</time>
 <fix>none</fix>
 <sat>0</sat>
</trkpt>
<trkpt lat="31.693435000" lon="34.985418333">
<time>2013-04-01T09:36:35Z</time>
 <fix>none</fix>
 <sat>0</sat>
</trkpt>
<trkpt lat="31.693435000" lon="34.985416667">
<time>2013-04-01T09:36:37Z</time>
 <fix>none</fix>
 <sat>0</sat>
</trkpt>
<trkpt lat="31.693433333" lon="34.985415000">
<time>2013-04-01T09:36:39Z</time>
 <fix>none</fix>
 <sat>0</sat>
</trkpt>
<trkpt lat="31.693433333" lon="34.985411667">
<time>2013-04-01T09:36:41Z</time>
 <fix>none</fix>
 <sat>0</sat>
</trkpt>
<trkpt lat="31.693431667" lon="34.985411667">
<time>2013-04-01T09:36:43Z</time>
 <fix>none</fix>
 <sat>0</sat>
</trkpt>
<trkpt lat="31.693431667" lon="34.985410000">
<time>2013-04-01T09:36:45Z</time>
 <fix>none</fix>
 <sat>0</sat>
</trkpt>
<trkpt lat="31.693431667" lon="34.985408333">
<time>2013-04-01T09:36:47Z</time>
 <fix>none</fix>
 <sat>0</sat>
</trkpt>
<trkpt lat="31.693430000" lon="34.985406667">
<time>2013-04-01T09:36:49Z</time>
 <fix>none</fix>
 <sat>0</sat>
</trkpt>
<trkpt lat="31.693428333" lon="34.985430000">
<time>2013-04-01T09:36:51Z</time>
 <fix>none</fix>
 <sat>0</sat>
</trkpt>
<trkpt lat="31.693428333" lon="34.985460000">
<time>2013-04-01T09:36:53Z</time>
 <fix>none</fix>
 <sat>0</sat>
</trkpt>
<trkpt lat="31.693411667" lon="34.985483333">
<time>2013-04-01T09:36:55Z</time>
 <fix>none</fix>
 <sat>0</sat>
</trkpt>
<trkpt lat="31.693386667" lon="34.985518333">
<time>2013-04-01T09:36:57Z</time>
 <fix>none</fix>
 <sat>0</sat>
</trkpt>
<trkpt lat="31.693363333" lon="34.985568333">
<time>2013-04-01T09:36:59Z</time>
 <fix>none</fix>
 <sat>0</sat>
</trkpt>
<trkpt lat="31.693341667" lon="34.985636667">
<time>2013-04-01T09:37:01Z</time>
 <fix>none</fix>
 <sat>0</sat>
</trkpt>
<trkpt lat="31.693330000" lon="34.985716667">
<time>2013-04-01T09:37:03Z</time>
 <fix>none</fix>
 <sat>0</sat>
</trkpt>
<trkpt lat="31.693325000" lon="34.985758333">
<time>2013-04-01T09:37:05Z</time>
 <fix>none</fix>
 <sat>0</sat>
</trkpt>
<trkpt lat="31.693318333" lon="34.985848333">
<time>2013-04-01T09:37:07Z</time>
 <fix>none</fix>
 <sat>0</sat>
</trkpt>
<trkpt lat="31.693315000" lon="34.985918333">
<time>2013-04-01T09:37:09Z</time>
 <fix>none</fix>
 <sat>0</sat>
</trkpt>
<trkpt lat="31.693315000" lon="34.985971667">
<time>2013-04-01T09:37:11Z</time>
 <fix>none</fix>
 <sat>0</sat>
</trkpt>
<trkpt lat="31.693305000" lon="34.986056667">
<time>2013-04-01T09:37:13Z</time>
 <fix>none</fix>
 <sat>0</sat>
</trkpt>
<trkpt lat="31.693303333" lon="34.986116667">
<time>2013-04-01T09:37:15Z</time>
 <fix>none</fix>
 <sat>0</sat>
</trkpt>
<trkpt lat="31.693305000" lon="34.986176667">
<time>2013-04-01T09:37:17Z</time>
 <fix>none</fix>
 <sat>0</sat>
</trkpt>
<trkpt lat="31.693310000" lon="34.986228333">
<time>2013-04-01T09:37:19Z</time>
 <fix>none</fix>
 <sat>0</sat>
</trkpt>
<trkpt lat="31.693318333" lon="34.986281667">
<time>2013-04-01T09:37:21Z</time>
 <fix>none</fix>
 <sat>0</sat>
</trkpt>
<trkpt lat="31.693323333" lon="34.986345000">
<time>2013-04-01T09:37:23Z</time>
 <fix>none</fix>
 <sat>0</sat>
</trkpt>
<trkpt lat="31.693326667" lon="34.986416667">
<time>2013-04-01T09:37:25Z</time>
 <fix>none</fix>
 <sat>0</sat>
</trkpt>
<trkpt lat="31.693328333" lon="34.986456667">
<time>2013-04-01T09:37:27Z</time>
 <fix>none</fix>
 <sat>0</sat>
</trkpt>
<trkpt lat="31.693340000" lon="34.986540000">
<time>2013-04-01T09:37:29Z</time>
 <fix>none</fix>
 <sat>0</sat>
</trkpt>
<trkpt lat="31.693366667" lon="34.986611667">
<time>2013-04-01T09:37:31Z</time>
 <fix>none</fix>
 <sat>0</sat>
</trkpt>
<trkpt lat="31.693390000" lon="34.986708333">
<time>2013-04-01T09:37:33Z</time>
 <fix>none</fix>
 <sat>0</sat>
</trkpt>
<trkpt lat="31.693390000" lon="34.986786667">
<time>2013-04-01T09:37:35Z</time>
 <fix>none</fix>
 <sat>0</sat>
</trkpt>
<trkpt lat="31.693383333" lon="34.986863333">
<time>2013-04-01T09:37:37Z</time>
 <fix>none</fix>
 <sat>0</sat>
</trkpt>
<trkpt lat="31.693365000" lon="34.986953333">
<time>2013-04-01T09:37:39Z</time>
 <fix>none</fix>
 <sat>0</sat>
</trkpt>
<trkpt lat="31.693370000" lon="34.987051667">
<time>2013-04-01T09:37:41Z</time>
 <fix>none</fix>
 <sat>0</sat>
</trkpt>
<trkpt lat="31.693400000" lon="34.987163333">
<time>2013-04-01T09:37:43Z</time>
 <fix>none</fix>
 <sat>0</sat>
</trkpt>
<trkpt lat="31.693423333" lon="34.987280000">
<time>2013-04-01T09:37:45Z</time>
 <fix>none</fix>
 <sat>0</sat>
</trkpt>
<trkpt lat="31.693435000" lon="34.987400000">
<time>2013-04-01T09:37:47Z</time>
 <fix>none</fix>
 <sat>0</sat>
</trkpt>
<trkpt lat="31.693440000" lon="34.987513333">
<time>2013-04-01T09:37:49Z</time>
 <fix>none</fix>
 <sat>0</sat>
</trkpt>
<trkpt lat="31.693435000" lon="34.987570000">
<time>2013-04-01T09:37:51Z</time>
 <fix>none</fix>
 <sat>0</sat>
</trkpt>
<trkpt lat="31.693408333" lon="34.987693333">
<time>2013-04-01T09:37:53Z</time>
 <fix>none</fix>
 <sat>0</sat>
</trkpt>
<trkpt lat="31.693360000" lon="34.987816667">
<time>2013-04-01T09:37:55Z</time>
 <fix>none</fix>
 <sat>0</sat>
</trkpt>
<trkpt lat="31.693266667" lon="34.987948333">
<time>2013-04-01T09:37:57Z</time>
 <fix>none</fix>
 <sat>0</sat>
</trkpt>
<trkpt lat="31.693185000" lon="34.988008333">
<time>2013-04-01T09:37:59Z</time>
 <fix>none</fix>
 <sat>0</sat>
</trkpt>
<trkpt lat="31.693106667" lon="34.988070000">
<time>2013-04-01T09:38:01Z</time>
 <fix>none</fix>
 <sat>0</sat>
</trkpt>
<trkpt lat="31.693066667" lon="34.988141667">
<time>2013-04-01T09:38:03Z</time>
 <fix>none</fix>
 <sat>0</sat>
</trkpt>
<trkpt lat="31.693056667" lon="34.988213333">
<time>2013-04-01T09:38:05Z</time>
 <fix>none</fix>
 <sat>0</sat>
</trkpt>
<trkpt lat="31.693060000" lon="34.988276667">
<time>2013-04-01T09:38:07Z</time>
 <fix>none</fix>
 <sat>0</sat>
</trkpt>
<trkpt lat="31.693066667" lon="34.988343333">
<time>2013-04-01T09:38:09Z</time>
 <fix>none</fix>
 <sat>0</sat>
</trkpt>
<trkpt lat="31.693075000" lon="34.988403333">
<time>2013-04-01T09:38:11Z</time>
 <fix>none</fix>
 <sat>0</sat>
</trkpt>
<trkpt lat="31.693081667" lon="34.988433333">
<time>2013-04-01T09:38:13Z</time>
 <fix>none</fix>
 <sat>0</sat>
</trkpt>
<trkpt lat="31.693088333" lon="34.988493333">
<time>2013-04-01T09:38:15Z</time>
 <fix>none</fix>
 <sat>0</sat>
</trkpt>
<trkpt lat="31.693101667" lon="34.988551667">
<time>2013-04-01T09:38:17Z</time>
 <fix>none</fix>
 <sat>0</sat>
</trkpt>
<trkpt lat="31.693111667" lon="34.988645000">
<time>2013-04-01T09:38:19Z</time>
 <fix>none</fix>
 <sat>0</sat>
</trkpt>
<trkpt lat="31.693115000" lon="34.988703333">
<time>2013-04-01T09:38:21Z</time>
 <fix>none</fix>
 <sat>0</sat>
</trkpt>
<trkpt lat="31.693120000" lon="34.988761667">
<time>2013-04-01T09:38:23Z</time>
 <fix>none</fix>
 <sat>0</sat>
</trkpt>
<trkpt lat="31.693120000" lon="34.988803333">
<time>2013-04-01T09:38:25Z</time>
 <fix>none</fix>
 <sat>0</sat>
</trkpt>
<trkpt lat="31.693120000" lon="34.988806667">
<time>2013-04-01T09:38:27Z</time>
 <fix>none</fix>
 <sat>0</sat>
</trkpt>
<trkpt lat="31.693130000" lon="34.988806667">
<time>2013-04-01T09:38:29Z</time>
 <fix>none</fix>
 <sat>0</sat>
</trkpt>
<trkpt lat="31.693136667" lon="34.988810000">
<time>2013-04-01T09:38:31Z</time>
 <fix>none</fix>
 <sat>0</sat>
</trkpt>
<trkpt lat="31.693141667" lon="34.988808333">
<time>2013-04-01T09:38:33Z</time>
 <fix>none</fix>
 <sat>0</sat>
</trkpt>
<trkpt lat="31.693150000" lon="34.988825000">
<time>2013-04-01T09:38:35Z</time>
 <fix>none</fix>
 <sat>0</sat>
</trkpt>
<trkpt lat="31.693153333" lon="34.988835000">
<time>2013-04-01T09:38:37Z</time>
 <fix>none</fix>
 <sat>0</sat>
</trkpt>
<trkpt lat="31.693168333" lon="34.988868333">
<time>2013-04-01T09:38:39Z</time>
 <fix>none</fix>
 <sat>0</sat>
</trkpt>
<trkpt lat="31.693171667" lon="34.988878333">
<time>2013-04-01T09:38:41Z</time>
 <fix>none</fix>
 <sat>0</sat>
</trkpt>
<trkpt lat="31.693186667" lon="34.988910000">
<time>2013-04-01T09:38:43Z</time>
 <fix>none</fix>
 <sat>0</sat>
</trkpt>
<trkpt lat="31.693193333" lon="34.988930000">
<time>2013-04-01T09:38:45Z</time>
 <fix>none</fix>
 <sat>0</sat>
</trkpt>
<trkpt lat="31.693188333" lon="34.988935000">
<time>2013-04-01T09:38:47Z</time>
 <fix>none</fix>
 <sat>0</sat>
</trkpt>
<trkpt lat="31.693190000" lon="34.988940000">
<time>2013-04-01T09:38:49Z</time>
 <fix>none</fix>
 <sat>0</sat>
</trkpt>
<trkpt lat="31.693196667" lon="34.988960000">
<time>2013-04-01T09:38:51Z</time>
 <fix>none</fix>
 <sat>0</sat>
</trkpt>
<trkpt lat="31.693200000" lon="34.988998333">
<time>2013-04-01T09:38:53Z</time>
 <fix>none</fix>
 <sat>0</sat>
</trkpt>
<trkpt lat="31.693201667" lon="34.989041667">
<time>2013-04-01T09:38:55Z</time>
 <fix>none</fix>
 <sat>0</sat>
</trkpt>
<trkpt lat="31.693200000" lon="34.989088333">
<time>2013-04-01T09:38:57Z</time>
 <fix>none</fix>
 <sat>0</sat>
</trkpt>
<trkpt lat="31.693198333" lon="34.989111667">
<time>2013-04-01T09:38:59Z</time>
 <fix>none</fix>
 <sat>0</sat>
</trkpt>
<trkpt lat="31.693195000" lon="34.989166667">
<time>2013-04-01T09:39:01Z</time>
 <fix>none</fix>
 <sat>0</sat>
</trkpt>
<trkpt lat="31.693200000" lon="34.989228333">
<time>2013-04-01T09:39:03Z</time>
 <fix>none</fix>
 <sat>0</sat>
</trkpt>
<trkpt lat="31.693206667" lon="34.989308333">
<time>2013-04-01T09:39:05Z</time>
 <fix>none</fix>
 <sat>0</sat>
</trkpt>
<trkpt lat="31.693191667" lon="34.989466667">
<time>2013-04-01T09:39:07Z</time>
 <fix>none</fix>
 <sat>0</sat>
</trkpt>
<trkpt lat="31.693185000" lon="34.989601667">
<time>2013-04-01T09:39:09Z</time>
 <fix>none</fix>
 <sat>0</sat>
</trkpt>
<trkpt lat="31.693175000" lon="34.989748333">
<time>2013-04-01T09:39:11Z</time>
 <fix>none</fix>
 <sat>0</sat>
</trkpt>
<trkpt lat="31.693171667" lon="34.989895000">
<time>2013-04-01T09:39:13Z</time>
 <fix>none</fix>
 <sat>0</sat>
</trkpt>
<trkpt lat="31.693180000" lon="34.990021667">
<time>2013-04-01T09:39:15Z</time>
 <fix>none</fix>
 <sat>0</sat>
</trkpt>
<trkpt lat="31.693188333" lon="34.990118333">
<time>2013-04-01T09:39:17Z</time>
 <fix>none</fix>
 <sat>0</sat>
</trkpt>
<trkpt lat="31.693188333" lon="34.990191667">
<time>2013-04-01T09:39:19Z</time>
 <fix>none</fix>
 <sat>0</sat>
</trkpt>
<trkpt lat="31.693181667" lon="34.990225000">
<time>2013-04-01T09:39:21Z</time>
 <fix>none</fix>
 <sat>0</sat>
</trkpt>
<trkpt lat="31.693155000" lon="34.990281667">
<time>2013-04-01T09:39:23Z</time>
 <fix>none</fix>
 <sat>0</sat>
</trkpt>
<trkpt lat="31.693070000" lon="34.990341667">
<time>2013-04-01T09:39:25Z</time>
 <fix>none</fix>
 <sat>0</sat>
</trkpt>
<trkpt lat="31.692980000" lon="34.990388333">
<time>2013-04-01T09:39:27Z</time>
 <fix>none</fix>
 <sat>0</sat>
</trkpt>
<trkpt lat="31.692878333" lon="34.990451667">
<time>2013-04-01T09:39:29Z</time>
 <fix>none</fix>
 <sat>0</sat>
</trkpt>
<trkpt lat="31.692783333" lon="34.990540000">
<time>2013-04-01T09:39:31Z</time>
 <fix>none</fix>
 <sat>0</sat>
</trkpt>
<trkpt lat="31.692718333" lon="34.990641667">
<time>2013-04-01T09:39:33Z</time>
 <fix>none</fix>
 <sat>0</sat>
</trkpt>
<trkpt lat="31.692680000" lon="34.990725000">
<time>2013-04-01T09:39:35Z</time>
 <fix>none</fix>
 <sat>0</sat>
</trkpt>
<trkpt lat="31.692670000" lon="34.990800000">
<time>2013-04-01T09:39:37Z</time>
 <fix>none</fix>
 <sat>0</sat>
</trkpt>
<trkpt lat="31.692670000" lon="34.990865000">
<time>2013-04-01T09:39:39Z</time>
 <fix>none</fix>
 <sat>0</sat>
</trkpt>
<trkpt lat="31.692675000" lon="34.990930000">
<time>2013-04-01T09:39:41Z</time>
 <fix>none</fix>
 <sat>0</sat>
</trkpt>
<trkpt lat="31.692701667" lon="34.990983333">
<time>2013-04-01T09:39:43Z</time>
 <fix>none</fix>
 <sat>0</sat>
</trkpt>
<trkpt lat="31.692718333" lon="34.991003333">
<time>2013-04-01T09:39:45Z</time>
 <fix>none</fix>
 <sat>0</sat>
</trkpt>
<trkpt lat="31.692756667" lon="34.991035000">
<time>2013-04-01T09:39:47Z</time>
 <fix>none</fix>
 <sat>0</sat>
</trkpt>
<trkpt lat="31.692818333" lon="34.991070000">
<time>2013-04-01T09:39:49Z</time>
 <fix>none</fix>
 <sat>0</sat>
</trkpt>
<trkpt lat="31.692853333" lon="34.991096667">
<time>2013-04-01T09:39:51Z</time>
 <fix>none</fix>
 <sat>0</sat>
</trkpt>
<trkpt lat="31.692883333" lon="34.991126667">
<time>2013-04-01T09:39:53Z</time>
 <fix>none</fix>
 <sat>0</sat>
</trkpt>
<trkpt lat="31.692913333" lon="34.991163333">
<time>2013-04-01T09:39:55Z</time>
 <fix>none</fix>
 <sat>0</sat>
</trkpt>
<trkpt lat="31.692935000" lon="34.991206667">
<time>2013-04-01T09:39:57Z</time>
 <fix>none</fix>
 <sat>0</sat>
</trkpt>
<trkpt lat="31.692945000" lon="34.991255000">
<time>2013-04-01T09:39:59Z</time>
 <fix>none</fix>
 <sat>0</sat>
</trkpt>
<trkpt lat="31.692943333" lon="34.991313333">
<time>2013-04-01T09:40:01Z</time>
 <fix>none</fix>
 <sat>0</sat>
</trkpt>
<trkpt lat="31.692945000" lon="34.991375000">
<time>2013-04-01T09:40:03Z</time>
 <fix>none</fix>
 <sat>0</sat>
</trkpt>
<trkpt lat="31.692951667" lon="34.991436667">
<time>2013-04-01T09:40:05Z</time>
 <fix>none</fix>
 <sat>0</sat>
</trkpt>
<trkpt lat="31.692956667" lon="34.991468333">
<time>2013-04-01T09:40:07Z</time>
 <fix>none</fix>
 <sat>0</sat>
</trkpt>
<trkpt lat="31.692960000" lon="34.991533333">
<time>2013-04-01T09:40:09Z</time>
 <fix>none</fix>
 <sat>0</sat>
</trkpt>
<trkpt lat="31.692950000" lon="34.991595000">
<time>2013-04-01T09:40:11Z</time>
 <fix>none</fix>
 <sat>0</sat>
</trkpt>
<trkpt lat="31.692906667" lon="34.991681667">
<time>2013-04-01T09:40:13Z</time>
 <fix>none</fix>
 <sat>0</sat>
</trkpt>
<trkpt lat="31.692853333" lon="34.991731667">
<time>2013-04-01T09:40:15Z</time>
 <fix>none</fix>
 <sat>0</sat>
</trkpt>
<trkpt lat="31.692791667" lon="34.991791667">
<time>2013-04-01T09:40:17Z</time>
 <fix>none</fix>
 <sat>0</sat>
</trkpt>
<trkpt lat="31.692748333" lon="34.991868333">
<time>2013-04-01T09:40:19Z</time>
 <fix>none</fix>
 <sat>0</sat>
</trkpt>
<trkpt lat="31.692730000" lon="34.991953333">
<time>2013-04-01T09:40:21Z</time>
 <fix>none</fix>
 <sat>0</sat>
</trkpt>
<trkpt lat="31.692735000" lon="34.992033333">
<time>2013-04-01T09:40:23Z</time>
 <fix>none</fix>
 <sat>0</sat>
</trkpt>
<trkpt lat="31.692753333" lon="34.992105000">
<time>2013-04-01T09:40:25Z</time>
 <fix>none</fix>
 <sat>0</sat>
</trkpt>
<trkpt lat="31.692775000" lon="34.992173333">
<time>2013-04-01T09:40:27Z</time>
 <fix>none</fix>
 <sat>0</sat>
</trkpt>
<trkpt lat="31.692798333" lon="34.992243333">
<time>2013-04-01T09:40:29Z</time>
 <fix>none</fix>
 <sat>0</sat>
</trkpt>
<trkpt lat="31.692810000" lon="34.992276667">
<time>2013-04-01T09:40:31Z</time>
 <fix>none</fix>
 <sat>0</sat>
</trkpt>
<trkpt lat="31.692831667" lon="34.992346667">
<time>2013-04-01T09:40:33Z</time>
 <fix>none</fix>
 <sat>0</sat>
</trkpt>
<trkpt lat="31.692848333" lon="34.992446667">
<time>2013-04-01T09:40:35Z</time>
 <fix>none</fix>
 <sat>0</sat>
</trkpt>
<trkpt lat="31.692863333" lon="34.992503333">
<time>2013-04-01T09:40:37Z</time>
 <fix>none</fix>
 <sat>0</sat>
</trkpt>
<trkpt lat="31.692860000" lon="34.992558333">
<time>2013-04-01T09:40:39Z</time>
 <fix>none</fix>
 <sat>0</sat>
</trkpt>
<trkpt lat="31.692861667" lon="34.992616667">
<time>2013-04-01T09:40:41Z</time>
 <fix>none</fix>
 <sat>0</sat>
</trkpt>
<trkpt lat="31.692886667" lon="34.992673333">
<time>2013-04-01T09:40:43Z</time>
 <fix>none</fix>
 <sat>0</sat>
</trkpt>
<trkpt lat="31.692895000" lon="34.992733333">
<time>2013-04-01T09:40:45Z</time>
 <fix>none</fix>
 <sat>0</sat>
</trkpt>
<trkpt lat="31.692901667" lon="34.992795000">
<time>2013-04-01T09:40:47Z</time>
 <fix>none</fix>
 <sat>0</sat>
</trkpt>
<trkpt lat="31.692911667" lon="34.992851667">
<time>2013-04-01T09:40:49Z</time>
 <fix>none</fix>
 <sat>0</sat>
</trkpt>
<trkpt lat="31.692921667" lon="34.992910000">
<time>2013-04-01T09:40:51Z</time>
 <fix>none</fix>
 <sat>0</sat>
</trkpt>
<trkpt lat="31.692928333" lon="34.992938333">
<time>2013-04-01T09:40:53Z</time>
 <fix>none</fix>
 <sat>0</sat>
</trkpt>
<trkpt lat="31.692935000" lon="34.992996667">
<time>2013-04-01T09:40:55Z</time>
 <fix>none</fix>
 <sat>0</sat>
</trkpt>
<trkpt lat="31.692945000" lon="34.993053333">
<time>2013-04-01T09:40:57Z</time>
 <fix>none</fix>
 <sat>0</sat>
</trkpt>
<trkpt lat="31.692968333" lon="34.993118333">
<time>2013-04-01T09:40:59Z</time>
 <fix>none</fix>
 <sat>0</sat>
</trkpt>
<trkpt lat="31.692975000" lon="34.993161667">
<time>2013-04-01T09:41:01Z</time>
 <fix>none</fix>
 <sat>0</sat>
</trkpt>
<trkpt lat="31.692970000" lon="34.993211667">
<time>2013-04-01T09:41:03Z</time>
 <fix>none</fix>
 <sat>0</sat>
</trkpt>
<trkpt lat="31.692976667" lon="34.993263333">
<time>2013-04-01T09:41:05Z</time>
 <fix>none</fix>
 <sat>0</sat>
</trkpt>
<trkpt lat="31.692986667" lon="34.993313333">
<time>2013-04-01T09:41:07Z</time>
 <fix>none</fix>
 <sat>0</sat>
</trkpt>
<trkpt lat="31.692990000" lon="34.993368333">
<time>2013-04-01T09:41:09Z</time>
 <fix>none</fix>
 <sat>0</sat>
</trkpt>
<trkpt lat="31.692995000" lon="34.993421667">
<time>2013-04-01T09:41:11Z</time>
 <fix>none</fix>
 <sat>0</sat>
</trkpt>
<trkpt lat="31.693003333" lon="34.993475000">
<time>2013-04-01T09:41:13Z</time>
 <fix>none</fix>
 <sat>0</sat>
</trkpt>
<trkpt lat="31.693008333" lon="34.993501667">
<time>2013-04-01T09:41:15Z</time>
 <fix>none</fix>
 <sat>0</sat>
</trkpt>
<trkpt lat="31.693020000" lon="34.993551667">
<time>2013-04-01T09:41:17Z</time>
 <fix>none</fix>
 <sat>0</sat>
</trkpt>
<trkpt lat="31.693035000" lon="34.993596667">
<time>2013-04-01T09:41:19Z</time>
 <fix>none</fix>
 <sat>0</sat>
</trkpt>
<trkpt lat="31.693041667" lon="34.993645000">
<time>2013-04-01T09:41:21Z</time>
 <fix>none</fix>
 <sat>0</sat>
</trkpt>
<trkpt lat="31.693058333" lon="34.993711667">
<time>2013-04-01T09:41:23Z</time>
 <fix>none</fix>
 <sat>0</sat>
</trkpt>
<trkpt lat="31.693068333" lon="34.993760000">
<time>2013-04-01T09:41:25Z</time>
 <fix>none</fix>
 <sat>0</sat>
</trkpt>
<trkpt lat="31.693076667" lon="34.993806667">
<time>2013-04-01T09:41:27Z</time>
 <fix>none</fix>
 <sat>0</sat>
</trkpt>
<trkpt lat="31.693088333" lon="34.993850000">
<time>2013-04-01T09:41:29Z</time>
 <fix>none</fix>
 <sat>0</sat>
</trkpt>
<trkpt lat="31.693098333" lon="34.993891667">
<time>2013-04-01T09:41:31Z</time>
 <fix>none</fix>
 <sat>0</sat>
</trkpt>
<trkpt lat="31.693103333" lon="34.993933333">
<time>2013-04-01T09:41:33Z</time>
 <fix>none</fix>
 <sat>0</sat>
</trkpt>
<trkpt lat="31.693110000" lon="34.993976667">
<time>2013-04-01T09:41:35Z</time>
 <fix>none</fix>
 <sat>0</sat>
</trkpt>
<trkpt lat="31.693113333" lon="34.994018333">
<time>2013-04-01T09:41:37Z</time>
 <fix>none</fix>
 <sat>0</sat>
</trkpt>
<trkpt lat="31.693113333" lon="34.994040000">
<time>2013-04-01T09:41:39Z</time>
 <fix>none</fix>
 <sat>0</sat>
</trkpt>
<trkpt lat="31.693115000" lon="34.994083333">
<time>2013-04-01T09:41:41Z</time>
 <fix>none</fix>
 <sat>0</sat>
</trkpt>
<trkpt lat="31.693118333" lon="34.994146667">
<time>2013-04-01T09:41:43Z</time>
 <fix>none</fix>
 <sat>0</sat>
</trkpt>
<trkpt lat="31.693115000" lon="34.994193333">
<time>2013-04-01T09:41:45Z</time>
 <fix>none</fix>
 <sat>0</sat>
</trkpt>
<trkpt lat="31.693111667" lon="34.994236667">
<time>2013-04-01T09:41:47Z</time>
 <fix>none</fix>
 <sat>0</sat>
</trkpt>
<trkpt lat="31.693101667" lon="34.994280000">
<time>2013-04-01T09:41:49Z</time>
 <fix>none</fix>
 <sat>0</sat>
</trkpt>
<trkpt lat="31.693091667" lon="34.994321667">
<time>2013-04-01T09:41:51Z</time>
 <fix>none</fix>
 <sat>0</sat>
</trkpt>
<trkpt lat="31.693078333" lon="34.994363333">
<time>2013-04-01T09:41:53Z</time>
 <fix>none</fix>
 <sat>0</sat>
</trkpt>
<trkpt lat="31.693061667" lon="34.994405000">
<time>2013-04-01T09:41:55Z</time>
 <fix>none</fix>
 <sat>0</sat>
</trkpt>
<trkpt lat="31.693048333" lon="34.994448333">
<time>2013-04-01T09:41:57Z</time>
 <fix>none</fix>
 <sat>0</sat>
</trkpt>
<trkpt lat="31.693035000" lon="34.994488333">
<time>2013-04-01T09:41:59Z</time>
 <fix>none</fix>
 <sat>0</sat>
</trkpt>
<trkpt lat="31.693028333" lon="34.994511667">
<time>2013-04-01T09:42:01Z</time>
 <fix>none</fix>
 <sat>0</sat>
</trkpt>
<trkpt lat="31.693020000" lon="34.994560000">
<time>2013-04-01T09:42:03Z</time>
 <fix>none</fix>
 <sat>0</sat>
</trkpt>
<trkpt lat="31.693010000" lon="34.994606667">
<time>2013-04-01T09:42:05Z</time>
 <fix>none</fix>
 <sat>0</sat>
</trkpt>
<trkpt lat="31.693001667" lon="34.994651667">
<time>2013-04-01T09:42:07Z</time>
 <fix>none</fix>
 <sat>0</sat>
</trkpt>
<trkpt lat="31.692993333" lon="34.994723333">
<time>2013-04-01T09:42:09Z</time>
 <fix>none</fix>
 <sat>0</sat>
</trkpt>
<trkpt lat="31.692990000" lon="34.994768333">
<time>2013-04-01T09:42:11Z</time>
 <fix>none</fix>
 <sat>0</sat>
</trkpt>
<trkpt lat="31.692990000" lon="34.994815000">
<time>2013-04-01T09:42:13Z</time>
 <fix>none</fix>
 <sat>0</sat>
</trkpt>
<trkpt lat="31.692986667" lon="34.994861667">
<time>2013-04-01T09:42:15Z</time>
 <fix>none</fix>
 <sat>0</sat>
</trkpt>
<trkpt lat="31.692978333" lon="34.994910000">
<time>2013-04-01T09:42:17Z</time>
 <fix>none</fix>
 <sat>0</sat>
</trkpt>
<trkpt lat="31.692975000" lon="34.994961667">
<time>2013-04-01T09:42:19Z</time>
 <fix>none</fix>
 <sat>0</sat>
</trkpt>
<trkpt lat="31.692970000" lon="34.995010000">
<time>2013-04-01T09:42:21Z</time>
 <fix>none</fix>
 <sat>0</sat>
</trkpt>
<trkpt lat="31.692965000" lon="34.995060000">
<time>2013-04-01T09:42:23Z</time>
 <fix>none</fix>
 <sat>0</sat>
</trkpt>
<trkpt lat="31.692961667" lon="34.995083333">
<time>2013-04-01T09:42:25Z</time>
 <fix>none</fix>
 <sat>0</sat>
</trkpt>
<trkpt lat="31.692951667" lon="34.995131667">
<time>2013-04-01T09:42:27Z</time>
 <fix>none</fix>
 <sat>0</sat>
</trkpt>
<trkpt lat="31.692936667" lon="34.995206667">
<time>2013-04-01T09:42:29Z</time>
 <fix>none</fix>
 <sat>0</sat>
</trkpt>
<trkpt lat="31.692925000" lon="34.995255000">
<time>2013-04-01T09:42:31Z</time>
 <fix>none</fix>
 <sat>0</sat>
</trkpt>
<trkpt lat="31.692908333" lon="34.995301667">
<time>2013-04-01T09:42:33Z</time>
 <fix>none</fix>
 <sat>0</sat>
</trkpt>
<trkpt lat="31.692893333" lon="34.995346667">
<time>2013-04-01T09:42:35Z</time>
 <fix>none</fix>
 <sat>0</sat>
</trkpt>
<trkpt lat="31.692871667" lon="34.995388333">
<time>2013-04-01T09:42:37Z</time>
 <fix>none</fix>
 <sat>0</sat>
</trkpt>
<trkpt lat="31.692850000" lon="34.995431667">
<time>2013-04-01T09:42:39Z</time>
 <fix>none</fix>
 <sat>0</sat>
</trkpt>
<trkpt lat="31.692841667" lon="34.995450000">
<time>2013-04-01T09:42:41Z</time>
 <fix>none</fix>
 <sat>0</sat>
</trkpt>
<trkpt lat="31.692815000" lon="34.995503333">
<time>2013-04-01T09:42:43Z</time>
 <fix>none</fix>
 <sat>0</sat>
</trkpt>
<trkpt lat="31.692796667" lon="34.995540000">
<time>2013-04-01T09:42:45Z</time>
 <fix>none</fix>
 <sat>0</sat>
</trkpt>
<trkpt lat="31.692788333" lon="34.995558333">
<time>2013-04-01T09:42:47Z</time>
 <fix>none</fix>
 <sat>0</sat>
</trkpt>
<trkpt lat="31.692770000" lon="34.995596667">
<time>2013-04-01T09:42:49Z</time>
 <fix>none</fix>
 <sat>0</sat>
</trkpt>
<trkpt lat="31.692753333" lon="34.995640000">
<time>2013-04-01T09:42:51Z</time>
 <fix>none</fix>
 <sat>0</sat>
</trkpt>
<trkpt lat="31.692728333" lon="34.995706667">
<time>2013-04-01T09:42:53Z</time>
 <fix>none</fix>
 <sat>0</sat>
</trkpt>
<trkpt lat="31.692711667" lon="34.995750000">
<time>2013-04-01T09:42:55Z</time>
 <fix>none</fix>
 <sat>0</sat>
</trkpt>
<trkpt lat="31.692705000" lon="34.995791667">
<time>2013-04-01T09:42:57Z</time>
 <fix>none</fix>
 <sat>0</sat>
</trkpt>
<trkpt lat="31.692713333" lon="34.995833333">
<time>2013-04-01T09:42:59Z</time>
 <fix>none</fix>
 <sat>0</sat>
</trkpt>
<trkpt lat="31.692710000" lon="34.995870000">
<time>2013-04-01T09:43:01Z</time>
 <fix>none</fix>
 <sat>0</sat>
</trkpt>
<trkpt lat="31.692695000" lon="34.995903333">
<time>2013-04-01T09:43:03Z</time>
 <fix>none</fix>
 <sat>0</sat>
</trkpt>
<trkpt lat="31.692676667" lon="34.995936667">
<time>2013-04-01T09:43:05Z</time>
 <fix>none</fix>
 <sat>0</sat>
</trkpt>
<trkpt lat="31.692651667" lon="34.995968333">
<time>2013-04-01T09:43:07Z</time>
 <fix>none</fix>
 <sat>0</sat>
</trkpt>
<trkpt lat="31.692636667" lon="34.995983333">
<time>2013-04-01T09:43:09Z</time>
 <fix>none</fix>
 <sat>0</sat>
</trkpt>
<trkpt lat="31.692611667" lon="34.996013333">
<time>2013-04-01T09:43:11Z</time>
 <fix>none</fix>
 <sat>0</sat>
</trkpt>
<trkpt lat="31.692580000" lon="34.996065000">
<time>2013-04-01T09:43:13Z</time>
 <fix>none</fix>
 <sat>0</sat>
</trkpt>
<trkpt lat="31.692555000" lon="34.996095000">
<time>2013-04-01T09:43:15Z</time>
 <fix>none</fix>
 <sat>0</sat>
</trkpt>
<trkpt lat="31.692533333" lon="34.996128333">
<time>2013-04-01T09:43:17Z</time>
 <fix>none</fix>
 <sat>0</sat>
</trkpt>
<trkpt lat="31.692508333" lon="34.996160000">
<time>2013-04-01T09:43:19Z</time>
 <fix>none</fix>
 <sat>0</sat>
</trkpt>
<trkpt lat="31.692483333" lon="34.996191667">
<time>2013-04-01T09:43:21Z</time>
 <fix>none</fix>
 <sat>0</sat>
</trkpt>
<trkpt lat="31.692455000" lon="34.996221667">
<time>2013-04-01T09:43:23Z</time>
 <fix>none</fix>
 <sat>0</sat>
</trkpt>
<trkpt lat="31.692426667" lon="34.996255000">
<time>2013-04-01T09:43:25Z</time>
 <fix>none</fix>
 <sat>0</sat>
</trkpt>
<trkpt lat="31.692401667" lon="34.996290000">
<time>2013-04-01T09:43:27Z</time>
 <fix>none</fix>
 <sat>0</sat>
</trkpt>
<trkpt lat="31.692373333" lon="34.996325000">
<time>2013-04-01T09:43:29Z</time>
 <fix>none</fix>
 <sat>0</sat>
</trkpt>
<trkpt lat="31.692345000" lon="34.996360000">
<time>2013-04-01T09:43:31Z</time>
 <fix>none</fix>
 <sat>0</sat>
</trkpt>
<trkpt lat="31.692333333" lon="34.996378333">
<time>2013-04-01T09:43:33Z</time>
 <fix>none</fix>
 <sat>0</sat>
</trkpt>
<trkpt lat="31.692313333" lon="34.996408333">
<time>2013-04-01T09:43:35Z</time>
 <fix>none</fix>
 <sat>0</sat>
</trkpt>
<trkpt lat="31.692288333" lon="34.996441667">
<time>2013-04-01T09:43:37Z</time>
 <fix>none</fix>
 <sat>0</sat>
</trkpt>
<trkpt lat="31.692255000" lon="34.996500000">
<time>2013-04-01T09:43:39Z</time>
 <fix>none</fix>
 <sat>0</sat>
</trkpt>
<trkpt lat="31.692230000" lon="34.996538333">
<time>2013-04-01T09:43:41Z</time>
 <fix>none</fix>
 <sat>0</sat>
</trkpt>
<trkpt lat="31.692208333" lon="34.996580000">
<time>2013-04-01T09:43:43Z</time>
 <fix>none</fix>
 <sat>0</sat>
</trkpt>
<trkpt lat="31.692190000" lon="34.996621667">
<time>2013-04-01T09:43:45Z</time>
 <fix>none</fix>
 <sat>0</sat>
</trkpt>
<trkpt lat="31.692173333" lon="34.996663333">
<time>2013-04-01T09:43:47Z</time>
 <fix>none</fix>
 <sat>0</sat>
</trkpt>
<trkpt lat="31.692160000" lon="34.996703333">
<time>2013-04-01T09:43:49Z</time>
 <fix>none</fix>
 <sat>0</sat>
</trkpt>
<trkpt lat="31.692153333" lon="34.996746667">
<time>2013-04-01T09:43:51Z</time>
 <fix>none</fix>
 <sat>0</sat>
</trkpt>
<trkpt lat="31.692145000" lon="34.996791667">
<time>2013-04-01T09:43:53Z</time>
 <fix>none</fix>
 <sat>0</sat>
</trkpt>
<trkpt lat="31.692138333" lon="34.996815000">
<time>2013-04-01T09:43:55Z</time>
 <fix>none</fix>
 <sat>0</sat>
</trkpt>
<trkpt lat="31.692120000" lon="34.996860000">
<time>2013-04-01T09:43:57Z</time>
 <fix>none</fix>
 <sat>0</sat>
</trkpt>
<trkpt lat="31.692096667" lon="34.996901667">
<time>2013-04-01T09:43:59Z</time>
 <fix>none</fix>
 <sat>0</sat>
</trkpt>
<trkpt lat="31.692043333" lon="34.996938333">
<time>2013-04-01T09:44:01Z</time>
 <fix>none</fix>
 <sat>0</sat>
</trkpt>
<trkpt lat="31.692001667" lon="34.996945000">
<time>2013-04-01T09:44:03Z</time>
 <fix>none</fix>
 <sat>0</sat>
</trkpt>
<trkpt lat="31.691963333" lon="34.996948333">
<time>2013-04-01T09:44:05Z</time>
 <fix>none</fix>
 <sat>0</sat>
</trkpt>
<trkpt lat="31.691923333" lon="34.996946667">
<time>2013-04-01T09:44:07Z</time>
 <fix>none</fix>
 <sat>0</sat>
</trkpt>
<trkpt lat="31.691885000" lon="34.996940000">
<time>2013-04-01T09:44:09Z</time>
 <fix>none</fix>
 <sat>0</sat>
</trkpt>
<trkpt lat="31.691843333" lon="34.996931667">
<time>2013-04-01T09:44:11Z</time>
 <fix>none</fix>
 <sat>0</sat>
</trkpt>
<trkpt lat="31.691801667" lon="34.996936667">
<time>2013-04-01T09:44:13Z</time>
 <fix>none</fix>
 <sat>0</sat>
</trkpt>
<trkpt lat="31.691766667" lon="34.996963333">
<time>2013-04-01T09:44:15Z</time>
 <fix>none</fix>
 <sat>0</sat>
</trkpt>
<trkpt lat="31.691746667" lon="34.997003333">
<time>2013-04-01T09:44:17Z</time>
 <fix>none</fix>
 <sat>0</sat>
</trkpt>
<trkpt lat="31.691741667" lon="34.997025000">
<time>2013-04-01T09:44:19Z</time>
 <fix>none</fix>
 <sat>0</sat>
</trkpt>
<trkpt lat="31.691733333" lon="34.997065000">
<time>2013-04-01T09:44:21Z</time>
 <fix>none</fix>
 <sat>0</sat>
</trkpt>
<trkpt lat="31.691728333" lon="34.997106667">
<time>2013-04-01T09:44:23Z</time>
 <fix>none</fix>
 <sat>0</sat>
</trkpt>
<trkpt lat="31.691715000" lon="34.997166667">
<time>2013-04-01T09:44:25Z</time>
 <fix>none</fix>
 <sat>0</sat>
</trkpt>
<trkpt lat="31.691703333" lon="34.997201667">
<time>2013-04-01T09:44:27Z</time>
 <fix>none</fix>
 <sat>0</sat>
</trkpt>
<trkpt lat="31.691686667" lon="34.997233333">
<time>2013-04-01T09:44:29Z</time>
 <fix>none</fix>
 <sat>0</sat>
</trkpt>
<trkpt lat="31.691683333" lon="34.997270000">
<time>2013-04-01T09:44:31Z</time>
 <fix>none</fix>
 <sat>0</sat>
</trkpt>
<trkpt lat="31.691686667" lon="34.997310000">
<time>2013-04-01T09:44:33Z</time>
 <fix>none</fix>
 <sat>0</sat>
</trkpt>
<trkpt lat="31.691705000" lon="34.997341667">
<time>2013-04-01T09:44:35Z</time>
 <fix>none</fix>
 <sat>0</sat>
</trkpt>
<trkpt lat="31.691725000" lon="34.997370000">
<time>2013-04-01T09:44:37Z</time>
 <fix>none</fix>
 <sat>0</sat>
</trkpt>
<trkpt lat="31.691746667" lon="34.997400000">
<time>2013-04-01T09:44:39Z</time>
 <fix>none</fix>
 <sat>0</sat>
</trkpt>
<trkpt lat="31.691756667" lon="34.997415000">
<time>2013-04-01T09:44:41Z</time>
 <fix>none</fix>
 <sat>0</sat>
</trkpt>
<trkpt lat="31.691783333" lon="34.997438333">
<time>2013-04-01T09:44:43Z</time>
 <fix>none</fix>
 <sat>0</sat>
</trkpt>
<trkpt lat="31.691808333" lon="34.997458333">
<time>2013-04-01T09:44:45Z</time>
 <fix>none</fix>
 <sat>0</sat>
</trkpt>
<trkpt lat="31.691841667" lon="34.997508333">
<time>2013-04-01T09:44:47Z</time>
 <fix>none</fix>
 <sat>0</sat>
</trkpt>
<trkpt lat="31.691855000" lon="34.997543333">
<time>2013-04-01T09:44:49Z</time>
 <fix>none</fix>
 <sat>0</sat>
</trkpt>
<trkpt lat="31.691858333" lon="34.997578333">
<time>2013-04-01T09:44:51Z</time>
 <fix>none</fix>
 <sat>0</sat>
</trkpt>
<trkpt lat="31.691856667" lon="34.997618333">
<time>2013-04-01T09:44:53Z</time>
 <fix>none</fix>
 <sat>0</sat>
</trkpt>
<trkpt lat="31.691850000" lon="34.997655000">
<time>2013-04-01T09:44:55Z</time>
 <fix>none</fix>
 <sat>0</sat>
</trkpt>
<trkpt lat="31.691838333" lon="34.997686667">
<time>2013-04-01T09:44:57Z</time>
 <fix>none</fix>
 <sat>0</sat>
</trkpt>
<trkpt lat="31.691820000" lon="34.997710000">
<time>2013-04-01T09:44:59Z</time>
 <fix>none</fix>
 <sat>0</sat>
</trkpt>
<trkpt lat="31.691796667" lon="34.997738333">
<time>2013-04-01T09:45:01Z</time>
 <fix>none</fix>
 <sat>0</sat>
</trkpt>
<trkpt lat="31.691790000" lon="34.997750000">
<time>2013-04-01T09:45:03Z</time>
 <fix>none</fix>
 <sat>0</sat>
</trkpt>
<trkpt lat="31.691781667" lon="34.997770000">
<time>2013-04-01T09:45:05Z</time>
 <fix>none</fix>
 <sat>0</sat>
</trkpt>
<trkpt lat="31.691778333" lon="34.997778333">
<time>2013-04-01T09:45:07Z</time>
 <fix>none</fix>
 <sat>0</sat>
</trkpt>
<trkpt lat="31.691781667" lon="34.997781667">
<time>2013-04-01T09:45:09Z</time>
 <fix>none</fix>
 <sat>0</sat>
</trkpt>
<trkpt lat="31.691788333" lon="34.997786667">
<time>2013-04-01T09:45:11Z</time>
 <fix>none</fix>
 <sat>0</sat>
</trkpt>
<trkpt lat="31.691788333" lon="34.997786667">
<time>2013-04-01T09:45:13Z</time>
 <fix>none</fix>
 <sat>0</sat>
</trkpt>
<trkpt lat="31.691785000" lon="34.997790000">
<time>2013-04-01T09:45:15Z</time>
 <fix>none</fix>
 <sat>0</sat>
</trkpt>
<trkpt lat="31.691786667" lon="34.997788333">
<time>2013-04-01T09:45:17Z</time>
 <fix>none</fix>
 <sat>0</sat>
</trkpt>
<trkpt lat="31.691788333" lon="34.997785000">
<time>2013-04-01T09:45:19Z</time>
 <fix>none</fix>
 <sat>0</sat>
</trkpt>
<trkpt lat="31.691788333" lon="34.997785000">
<time>2013-04-01T09:45:21Z</time>
 <fix>none</fix>
 <sat>0</sat>
</trkpt>
<trkpt lat="31.691795000" lon="34.997773333">
<time>2013-04-01T09:45:23Z</time>
 <fix>none</fix>
 <sat>0</sat>
</trkpt>
<trkpt lat="31.691801667" lon="34.997768333">
<time>2013-04-01T09:45:25Z</time>
 <fix>none</fix>
 <sat>0</sat>
</trkpt>
<trkpt lat="31.691801667" lon="34.997766667">
<time>2013-04-01T09:45:27Z</time>
 <fix>none</fix>
 <sat>0</sat>
</trkpt>
<trkpt lat="31.691801667" lon="34.997765000">
<time>2013-04-01T09:45:29Z</time>
 <fix>none</fix>
 <sat>0</sat>
</trkpt>
<trkpt lat="31.691801667" lon="34.997761667">
<time>2013-04-01T09:45:31Z</time>
 <fix>none</fix>
 <sat>0</sat>
</trkpt>
<trkpt lat="31.691801667" lon="34.997761667">
<time>2013-04-01T09:45:33Z</time>
 <fix>none</fix>
 <sat>0</sat>
</trkpt>
<trkpt lat="31.691796667" lon="34.997760000">
<time>2013-04-01T09:45:35Z</time>
 <fix>none</fix>
 <sat>0</sat>
</trkpt>
<trkpt lat="31.691795000" lon="34.997761667">
<time>2013-04-01T09:45:37Z</time>
 <fix>none</fix>
 <sat>0</sat>
</trkpt>
<trkpt lat="31.691793333" lon="34.997763333">
<time>2013-04-01T09:45:39Z</time>
 <fix>none</fix>
 <sat>0</sat>
</trkpt>
<trkpt lat="31.691795000" lon="34.997765000">
<time>2013-04-01T09:45:41Z</time>
 <fix>none</fix>
 <sat>0</sat>
</trkpt>
<trkpt lat="31.691793333" lon="34.997763333">
<time>2013-04-01T09:45:43Z</time>
 <fix>none</fix>
 <sat>0</sat>
</trkpt>
<trkpt lat="31.691791667" lon="34.997765000">
<time>2013-04-01T09:45:45Z</time>
 <fix>none</fix>
 <sat>0</sat>
</trkpt>
<trkpt lat="31.691790000" lon="34.997766667">
<time>2013-04-01T09:45:47Z</time>
 <fix>none</fix>
 <sat>0</sat>
</trkpt>
<trkpt lat="31.691788333" lon="34.997766667">
<time>2013-04-01T09:45:49Z</time>
 <fix>none</fix>
 <sat>0</sat>
</trkpt>
<trkpt lat="31.691785000" lon="34.997768333">
<time>2013-04-01T09:45:51Z</time>
 <fix>none</fix>
 <sat>0</sat>
</trkpt>
<trkpt lat="31.691783333" lon="34.997766667">
<time>2013-04-01T09:45:53Z</time>
 <fix>none</fix>
 <sat>0</sat>
</trkpt>
<trkpt lat="31.691781667" lon="34.997768333">
<time>2013-04-01T09:45:55Z</time>
 <fix>none</fix>
 <sat>0</sat>
</trkpt>
<trkpt lat="31.691790000" lon="34.997770000">
<time>2013-04-01T09:45:57Z</time>
 <fix>none</fix>
 <sat>0</sat>
</trkpt>
<trkpt lat="31.691816667" lon="34.997765000">
<time>2013-04-01T09:45:59Z</time>
 <fix>none</fix>
 <sat>0</sat>
</trkpt>
<trkpt lat="31.691838333" lon="34.997753333">
<time>2013-04-01T09:46:01Z</time>
 <fix>none</fix>
 <sat>0</sat>
</trkpt>
<trkpt lat="31.691868333" lon="34.997743333">
<time>2013-04-01T09:46:03Z</time>
 <fix>none</fix>
 <sat>0</sat>
</trkpt>
<trkpt lat="31.691906667" lon="34.997735000">
<time>2013-04-01T09:46:05Z</time>
 <fix>none</fix>
 <sat>0</sat>
</trkpt>
<trkpt lat="31.691956667" lon="34.997726667">
<time>2013-04-01T09:46:07Z</time>
 <fix>none</fix>
 <sat>0</sat>
</trkpt>
<trkpt lat="31.692008333" lon="34.997718333">
<time>2013-04-01T09:46:09Z</time>
 <fix>none</fix>
 <sat>0</sat>
</trkpt>
<trkpt lat="31.692053333" lon="34.997723333">
<time>2013-04-01T09:46:11Z</time>
 <fix>none</fix>
 <sat>0</sat>
</trkpt>
<trkpt lat="31.692068333" lon="34.997721667">
<time>2013-04-01T09:46:13Z</time>
 <fix>none</fix>
 <sat>0</sat>
</trkpt>
<trkpt lat="31.692078333" lon="34.997723333">
<time>2013-04-01T09:46:15Z</time>
 <fix>none</fix>
 <sat>0</sat>
</trkpt>
<trkpt lat="31.692080000" lon="34.997728333">
<time>2013-04-01T09:46:17Z</time>
 <fix>none</fix>
 <sat>0</sat>
</trkpt>
<trkpt lat="31.692076667" lon="34.997728333">
<time>2013-04-01T09:46:19Z</time>
 <fix>none</fix>
 <sat>0</sat>
</trkpt>
<trkpt lat="31.692073333" lon="34.997730000">
<time>2013-04-01T09:46:21Z</time>
 <fix>none</fix>
 <sat>0</sat>
</trkpt>
<trkpt lat="31.692070000" lon="34.997738333">
<time>2013-04-01T09:46:23Z</time>
 <fix>none</fix>
 <sat>0</sat>
</trkpt>
<trkpt lat="31.692068333" lon="34.997738333">
<time>2013-04-01T09:46:25Z</time>
 <fix>none</fix>
 <sat>0</sat>
</trkpt>
<trkpt lat="31.692065000" lon="34.997746667">
<time>2013-04-01T09:46:27Z</time>
 <fix>none</fix>
 <sat>0</sat>
</trkpt>
<trkpt lat="31.692043333" lon="34.997796667">
<time>2013-04-01T09:46:29Z</time>
 <fix>none</fix>
 <sat>0</sat>
</trkpt>
<trkpt lat="31.692036667" lon="34.997801667">
<time>2013-04-01T09:46:31Z</time>
 <fix>none</fix>
 <sat>0</sat>
</trkpt>
<trkpt lat="31.692035000" lon="34.997805000">
<time>2013-04-01T09:46:33Z</time>
 <fix>none</fix>
 <sat>0</sat>
</trkpt>
<trkpt lat="31.692035000" lon="34.997806667">
<time>2013-04-01T09:46:35Z</time>
 <fix>none</fix>
 <sat>0</sat>
</trkpt>
<trkpt lat="31.692033333" lon="34.997783333">
<time>2013-04-01T09:46:37Z</time>
 <fix>none</fix>
 <sat>0</sat>
</trkpt>
<trkpt lat="31.692036667" lon="34.997780000">
<time>2013-04-01T09:46:39Z</time>
 <fix>none</fix>
 <sat>0</sat>
</trkpt>
<trkpt lat="31.692038333" lon="34.997778333">
<time>2013-04-01T09:46:41Z</time>
 <fix>none</fix>
 <sat>0</sat>
</trkpt>
<trkpt lat="31.692043333" lon="34.997775000">
<time>2013-04-01T09:46:43Z</time>
 <fix>none</fix>
 <sat>0</sat>
</trkpt>
<trkpt lat="31.692048333" lon="34.997758333">
<time>2013-04-01T09:46:45Z</time>
 <fix>none</fix>
 <sat>0</sat>
</trkpt>
<trkpt lat="31.692053333" lon="34.997730000">
<time>2013-04-01T09:46:47Z</time>
 <fix>none</fix>
 <sat>0</sat>
</trkpt>
<trkpt lat="31.692051667" lon="34.997731667">
<time>2013-04-01T09:46:49Z</time>
 <fix>none</fix>
 <sat>0</sat>
</trkpt>
<trkpt lat="31.692051667" lon="34.997745000">
<time>2013-04-01T09:46:51Z</time>
 <fix>none</fix>
 <sat>0</sat>
</trkpt>
<trkpt lat="31.692050000" lon="34.997761667">
<time>2013-04-01T09:46:53Z</time>
 <fix>none</fix>
 <sat>0</sat>
</trkpt>
<trkpt lat="31.692048333" lon="34.997761667">
<time>2013-04-01T09:46:55Z</time>
 <fix>none</fix>
 <sat>0</sat>
</trkpt>
<trkpt lat="31.692043333" lon="34.997761667">
<time>2013-04-01T09:46:57Z</time>
 <fix>none</fix>
 <sat>0</sat>
</trkpt>
<trkpt lat="31.692043333" lon="34.997765000">
<time>2013-04-01T09:46:59Z</time>
 <fix>none</fix>
 <sat>0</sat>
</trkpt>
<trkpt lat="31.692050000" lon="34.997753333">
<time>2013-04-01T09:47:01Z</time>
 <fix>none</fix>
 <sat>0</sat>
</trkpt>
<trkpt lat="31.692045000" lon="34.997756667">
<time>2013-04-01T09:47:03Z</time>
 <fix>none</fix>
 <sat>0</sat>
</trkpt>
<trkpt lat="31.692041667" lon="34.997755000">
<time>2013-04-01T09:47:05Z</time>
 <fix>none</fix>
 <sat>0</sat>
</trkpt>
<trkpt lat="31.692040000" lon="34.997753333">
<time>2013-04-01T09:47:07Z</time>
 <fix>none</fix>
 <sat>0</sat>
</trkpt>
<trkpt lat="31.692040000" lon="34.997750000">
<time>2013-04-01T09:47:09Z</time>
 <fix>none</fix>
 <sat>0</sat>
</trkpt>
<trkpt lat="31.692036667" lon="34.997763333">
<time>2013-04-01T09:47:11Z</time>
 <fix>none</fix>
 <sat>0</sat>
</trkpt>
<trkpt lat="31.692033333" lon="34.997773333">
<time>2013-04-01T09:47:13Z</time>
 <fix>none</fix>
 <sat>0</sat>
</trkpt>
<trkpt lat="31.692030000" lon="34.997771667">
<time>2013-04-01T09:47:15Z</time>
 <fix>none</fix>
 <sat>0</sat>
</trkpt>
<trkpt lat="31.692031667" lon="34.997766667">
<time>2013-04-01T09:47:17Z</time>
 <fix>none</fix>
 <sat>0</sat>
</trkpt>
<trkpt lat="31.692030000" lon="34.997763333">
<time>2013-04-01T09:47:19Z</time>
 <fix>none</fix>
 <sat>0</sat>
</trkpt>
<trkpt lat="31.692026667" lon="34.997763333">
<time>2013-04-01T09:47:21Z</time>
 <fix>none</fix>
 <sat>0</sat>
</trkpt>
<trkpt lat="31.692026667" lon="34.997761667">
<time>2013-04-01T09:47:23Z</time>
 <fix>none</fix>
 <sat>0</sat>
</trkpt>
<trkpt lat="31.692026667" lon="34.997750000">
<time>2013-04-01T09:47:25Z</time>
 <fix>none</fix>
 <sat>0</sat>
</trkpt>
<trkpt lat="31.692023333" lon="34.997738333">
<time>2013-04-01T09:47:27Z</time>
 <fix>none</fix>
 <sat>0</sat>
</trkpt>
<trkpt lat="31.692021667" lon="34.997736667">
<time>2013-04-01T09:47:29Z</time>
 <fix>none</fix>
 <sat>0</sat>
</trkpt>
<trkpt lat="31.692021667" lon="34.997730000">
<time>2013-04-01T09:47:31Z</time>
 <fix>none</fix>
 <sat>0</sat>
</trkpt>
<trkpt lat="31.692020000" lon="34.997726667">
<time>2013-04-01T09:47:33Z</time>
 <fix>none</fix>
 <sat>0</sat>
</trkpt>
<trkpt lat="31.692025000" lon="34.997721667">
<time>2013-04-01T09:47:35Z</time>
 <fix>none</fix>
 <sat>0</sat>
</trkpt>
<trkpt lat="31.692028333" lon="34.997718333">
<time>2013-04-01T09:47:37Z</time>
 <fix>none</fix>
 <sat>0</sat>
</trkpt>
<trkpt lat="31.692026667" lon="34.997718333">
<time>2013-04-01T09:47:39Z</time>
 <fix>none</fix>
 <sat>0</sat>
</trkpt>
<trkpt lat="31.692026667" lon="34.997718333">
<time>2013-04-01T09:47:41Z</time>
 <fix>none</fix>
 <sat>0</sat>
</trkpt>
<trkpt lat="31.692026667" lon="34.997716667">
<time>2013-04-01T09:47:43Z</time>
 <fix>none</fix>
 <sat>0</sat>
</trkpt>
<trkpt lat="31.692026667" lon="34.997718333">
<time>2013-04-01T09:47:45Z</time>
 <fix>none</fix>
 <sat>0</sat>
</trkpt>
<trkpt lat="31.692026667" lon="34.997716667">
<time>2013-04-01T09:47:47Z</time>
 <fix>none</fix>
 <sat>0</sat>
</trkpt>
<trkpt lat="31.692030000" lon="34.997718333">
<time>2013-04-01T09:47:49Z</time>
 <fix>none</fix>
 <sat>0</sat>
</trkpt>
<trkpt lat="31.692035000" lon="34.997733333">
<time>2013-04-01T09:47:51Z</time>
 <fix>none</fix>
 <sat>0</sat>
</trkpt>
<trkpt lat="31.692035000" lon="34.997735000">
<time>2013-04-01T09:47:53Z</time>
 <fix>none</fix>
 <sat>0</sat>
</trkpt>
<trkpt lat="31.692033333" lon="34.997756667">
<time>2013-04-01T09:47:55Z</time>
 <fix>none</fix>
 <sat>0</sat>
</trkpt>
<trkpt lat="31.692033333" lon="34.997766667">
<time>2013-04-01T09:47:57Z</time>
 <fix>none</fix>
 <sat>0</sat>
</trkpt>
<trkpt lat="31.692038333" lon="34.997758333">
<time>2013-04-01T09:47:59Z</time>
 <fix>none</fix>
 <sat>0</sat>
</trkpt>
<trkpt lat="31.692048333" lon="34.997755000">
<time>2013-04-01T09:48:01Z</time>
 <fix>none</fix>
 <sat>0</sat>
</trkpt>
<trkpt lat="31.692053333" lon="34.997755000">
<time>2013-04-01T09:48:03Z</time>
 <fix>none</fix>
 <sat>0</sat>
</trkpt>
<trkpt lat="31.692066667" lon="34.997768333">
<time>2013-04-01T09:48:05Z</time>
 <fix>none</fix>
 <sat>0</sat>
</trkpt>
<trkpt lat="31.692073333" lon="34.997778333">
<time>2013-04-01T09:48:07Z</time>
 <fix>none</fix>
 <sat>0</sat>
</trkpt>
<trkpt lat="31.692083333" lon="34.997770000">
<time>2013-04-01T09:48:09Z</time>
 <fix>none</fix>
 <sat>0</sat>
</trkpt>
<trkpt lat="31.692091667" lon="34.997763333">
<time>2013-04-01T09:48:11Z</time>
 <fix>none</fix>
 <sat>0</sat>
</trkpt>
<trkpt lat="31.692111667" lon="34.997748333">
<time>2013-04-01T09:48:13Z</time>
 <fix>none</fix>
 <sat>0</sat>
</trkpt>
<trkpt lat="31.692150000" lon="34.997743333">
<time>2013-04-01T09:48:15Z</time>
 <fix>none</fix>
 <sat>0</sat>
</trkpt>
<trkpt lat="31.692175000" lon="34.997743333">
<time>2013-04-01T09:48:17Z</time>
 <fix>none</fix>
 <sat>0</sat>
</trkpt>
<trkpt lat="31.692240000" lon="34.997743333">
<time>2013-04-01T09:48:19Z</time>
 <fix>none</fix>
 <sat>0</sat>
</trkpt>
<trkpt lat="31.692313333" lon="34.997736667">
<time>2013-04-01T09:48:21Z</time>
 <fix>none</fix>
 <sat>0</sat>
</trkpt>
<trkpt lat="31.692428333" lon="34.997710000">
<time>2013-04-01T09:48:23Z</time>
 <fix>none</fix>
 <sat>0</sat>
</trkpt>
<trkpt lat="31.692496667" lon="34.997691667">
<time>2013-04-01T09:48:25Z</time>
 <fix>none</fix>
 <sat>0</sat>
</trkpt>
<trkpt lat="31.692555000" lon="34.997670000">
<time>2013-04-01T09:48:27Z</time>
 <fix>none</fix>
 <sat>0</sat>
</trkpt>
<trkpt lat="31.692596667" lon="34.997640000">
<time>2013-04-01T09:48:29Z</time>
 <fix>none</fix>
 <sat>0</sat>
</trkpt>
<trkpt lat="31.692630000" lon="34.997610000">
<time>2013-04-01T09:48:31Z</time>
 <fix>none</fix>
 <sat>0</sat>
</trkpt>
<trkpt lat="31.692661667" lon="34.997581667">
<time>2013-04-01T09:48:33Z</time>
 <fix>none</fix>
 <sat>0</sat>
</trkpt>
<trkpt lat="31.692688333" lon="34.997555000">
<time>2013-04-01T09:48:35Z</time>
 <fix>none</fix>
 <sat>0</sat>
</trkpt>
<trkpt lat="31.692713333" lon="34.997530000">
<time>2013-04-01T09:48:37Z</time>
 <fix>none</fix>
 <sat>0</sat>
</trkpt>
<trkpt lat="31.692725000" lon="34.997516667">
<time>2013-04-01T09:48:39Z</time>
 <fix>none</fix>
 <sat>0</sat>
</trkpt>
<trkpt lat="31.692748333" lon="34.997490000">
<time>2013-04-01T09:48:41Z</time>
 <fix>none</fix>
 <sat>0</sat>
</trkpt>
<trkpt lat="31.692788333" lon="34.997456667">
<time>2013-04-01T09:48:43Z</time>
 <fix>none</fix>
 <sat>0</sat>
</trkpt>
<trkpt lat="31.692821667" lon="34.997433333">
<time>2013-04-01T09:48:45Z</time>
 <fix>none</fix>
 <sat>0</sat>
</trkpt>
<trkpt lat="31.692851667" lon="34.997410000">
<time>2013-04-01T09:48:47Z</time>
 <fix>none</fix>
 <sat>0</sat>
</trkpt>
<trkpt lat="31.692883333" lon="34.997385000">
<time>2013-04-01T09:48:49Z</time>
 <fix>none</fix>
 <sat>0</sat>
</trkpt>
<trkpt lat="31.692910000" lon="34.997366667">
<time>2013-04-01T09:48:51Z</time>
 <fix>none</fix>
 <sat>0</sat>
</trkpt>
<trkpt lat="31.692940000" lon="34.997350000">
<time>2013-04-01T09:48:53Z</time>
 <fix>none</fix>
 <sat>0</sat>
</trkpt>
<trkpt lat="31.692973333" lon="34.997331667">
<time>2013-04-01T09:48:55Z</time>
 <fix>none</fix>
 <sat>0</sat>
</trkpt>
<trkpt lat="31.692998333" lon="34.997301667">
<time>2013-04-01T09:48:57Z</time>
 <fix>none</fix>
 <sat>0</sat>
</trkpt>
<trkpt lat="31.693028333" lon="34.997273333">
<time>2013-04-01T09:48:59Z</time>
 <fix>none</fix>
 <sat>0</sat>
</trkpt>
<trkpt lat="31.693068333" lon="34.997243333">
<time>2013-04-01T09:49:01Z</time>
 <fix>none</fix>
 <sat>0</sat>
</trkpt>
<trkpt lat="31.693088333" lon="34.997230000">
<time>2013-04-01T09:49:03Z</time>
 <fix>none</fix>
 <sat>0</sat>
</trkpt>
<trkpt lat="31.693133333" lon="34.997196667">
<time>2013-04-01T09:49:05Z</time>
 <fix>none</fix>
 <sat>0</sat>
</trkpt>
<trkpt lat="31.693193333" lon="34.997153333">
<time>2013-04-01T09:49:07Z</time>
 <fix>none</fix>
 <sat>0</sat>
</trkpt>
<trkpt lat="31.693238333" lon="34.997130000">
<time>2013-04-01T09:49:09Z</time>
 <fix>none</fix>
 <sat>0</sat>
</trkpt>
<trkpt lat="31.693291667" lon="34.997100000">
<time>2013-04-01T09:49:11Z</time>
 <fix>none</fix>
 <sat>0</sat>
</trkpt>
<trkpt lat="31.693345000" lon="34.997063333">
<time>2013-04-01T09:49:13Z</time>
 <fix>none</fix>
 <sat>0</sat>
</trkpt>
<trkpt lat="31.693398333" lon="34.997023333">
<time>2013-04-01T09:49:15Z</time>
 <fix>none</fix>
 <sat>0</sat>
</trkpt>
<trkpt lat="31.693443333" lon="34.996971667">
<time>2013-04-01T09:49:17Z</time>
 <fix>none</fix>
 <sat>0</sat>
</trkpt>
<trkpt lat="31.693495000" lon="34.996921667">
<time>2013-04-01T09:49:19Z</time>
 <fix>none</fix>
 <sat>0</sat>
</trkpt>
<trkpt lat="31.693566667" lon="34.996865000">
<time>2013-04-01T09:49:21Z</time>
 <fix>none</fix>
 <sat>0</sat>
</trkpt>
<trkpt lat="31.693643333" lon="34.996818333">
<time>2013-04-01T09:49:23Z</time>
 <fix>none</fix>
 <sat>0</sat>
</trkpt>
<trkpt lat="31.693681667" lon="34.996801667">
<time>2013-04-01T09:49:25Z</time>
 <fix>none</fix>
 <sat>0</sat>
</trkpt>
<trkpt lat="31.693761667" lon="34.996780000">
<time>2013-04-01T09:49:27Z</time>
 <fix>none</fix>
 <sat>0</sat>
</trkpt>
<trkpt lat="31.693845000" lon="34.996785000">
<time>2013-04-01T09:49:29Z</time>
 <fix>none</fix>
 <sat>0</sat>
</trkpt>
<trkpt lat="31.693960000" lon="34.996776667">
<time>2013-04-01T09:49:31Z</time>
 <fix>none</fix>
 <sat>0</sat>
</trkpt>
<trkpt lat="31.694030000" lon="34.996763333">
<time>2013-04-01T09:49:33Z</time>
 <fix>none</fix>
 <sat>0</sat>
</trkpt>
<trkpt lat="31.694100000" lon="34.996758333">
<time>2013-04-01T09:49:35Z</time>
 <fix>none</fix>
 <sat>0</sat>
</trkpt>
<trkpt lat="31.694161667" lon="34.996778333">
<time>2013-04-01T09:49:37Z</time>
 <fix>none</fix>
 <sat>0</sat>
</trkpt>
<trkpt lat="31.694210000" lon="34.996828333">
<time>2013-04-01T09:49:39Z</time>
 <fix>none</fix>
 <sat>0</sat>
</trkpt>
<trkpt lat="31.694261667" lon="34.996870000">
<time>2013-04-01T09:49:41Z</time>
 <fix>none</fix>
 <sat>0</sat>
</trkpt>
<trkpt lat="31.694311667" lon="34.996896667">
<time>2013-04-01T09:49:43Z</time>
 <fix>none</fix>
 <sat>0</sat>
</trkpt>
<trkpt lat="31.694353333" lon="34.996915000">
<time>2013-04-01T09:49:45Z</time>
 <fix>none</fix>
 <sat>0</sat>
</trkpt>
<trkpt lat="31.694371667" lon="34.996925000">
<time>2013-04-01T09:49:47Z</time>
 <fix>none</fix>
 <sat>0</sat>
</trkpt>
<trkpt lat="31.694426667" lon="34.996938333">
<time>2013-04-01T09:49:49Z</time>
 <fix>none</fix>
 <sat>0</sat>
</trkpt>
<trkpt lat="31.694475000" lon="34.996945000">
<time>2013-04-01T09:49:51Z</time>
 <fix>none</fix>
 <sat>0</sat>
</trkpt>
<trkpt lat="31.694535000" lon="34.996943333">
<time>2013-04-01T09:49:53Z</time>
 <fix>none</fix>
 <sat>0</sat>
</trkpt>
<trkpt lat="31.694575000" lon="34.996931667">
<time>2013-04-01T09:49:55Z</time>
 <fix>none</fix>
 <sat>0</sat>
</trkpt>
<trkpt lat="31.694610000" lon="34.996910000">
<time>2013-04-01T09:49:57Z</time>
 <fix>none</fix>
 <sat>0</sat>
</trkpt>
<trkpt lat="31.694641667" lon="34.996886667">
<time>2013-04-01T09:49:59Z</time>
 <fix>none</fix>
 <sat>0</sat>
</trkpt>
<trkpt lat="31.694675000" lon="34.996858333">
<time>2013-04-01T09:50:01Z</time>
 <fix>none</fix>
 <sat>0</sat>
</trkpt>
<trkpt lat="31.694706667" lon="34.996830000">
<time>2013-04-01T09:50:03Z</time>
 <fix>none</fix>
 <sat>0</sat>
</trkpt>
<trkpt lat="31.694735000" lon="34.996808333">
<time>2013-04-01T09:50:05Z</time>
 <fix>none</fix>
 <sat>0</sat>
</trkpt>
<trkpt lat="31.694766667" lon="34.996785000">
<time>2013-04-01T09:50:07Z</time>
 <fix>none</fix>
 <sat>0</sat>
</trkpt>
<trkpt lat="31.694791667" lon="34.996758333">
<time>2013-04-01T09:50:09Z</time>
 <fix>none</fix>
 <sat>0</sat>
</trkpt>
<trkpt lat="31.694801667" lon="34.996745000">
<time>2013-04-01T09:50:11Z</time>
 <fix>none</fix>
 <sat>0</sat>
</trkpt>
<trkpt lat="31.694825000" lon="34.996716667">
<time>2013-04-01T09:50:13Z</time>
 <fix>none</fix>
 <sat>0</sat>
</trkpt>
<trkpt lat="31.694848333" lon="34.996688333">
<time>2013-04-01T09:50:15Z</time>
 <fix>none</fix>
 <sat>0</sat>
</trkpt>
<trkpt lat="31.694875000" lon="34.996638333">
<time>2013-04-01T09:50:17Z</time>
 <fix>none</fix>
 <sat>0</sat>
</trkpt>
<trkpt lat="31.694888333" lon="34.996606667">
<time>2013-04-01T09:50:19Z</time>
 <fix>none</fix>
 <sat>0</sat>
</trkpt>
<trkpt lat="31.694898333" lon="34.996570000">
<time>2013-04-01T09:50:21Z</time>
 <fix>none</fix>
 <sat>0</sat>
</trkpt>
<trkpt lat="31.694908333" lon="34.996536667">
<time>2013-04-01T09:50:23Z</time>
 <fix>none</fix>
 <sat>0</sat>
</trkpt>
<trkpt lat="31.694913333" lon="34.996501667">
<time>2013-04-01T09:50:25Z</time>
 <fix>none</fix>
 <sat>0</sat>
</trkpt>
<trkpt lat="31.694918333" lon="34.996470000">
<time>2013-04-01T09:50:27Z</time>
 <fix>none</fix>
 <sat>0</sat>
</trkpt>
<trkpt lat="31.694930000" lon="34.996443333">
<time>2013-04-01T09:50:29Z</time>
 <fix>none</fix>
 <sat>0</sat>
</trkpt>
<trkpt lat="31.694945000" lon="34.996420000">
<time>2013-04-01T09:50:31Z</time>
 <fix>none</fix>
 <sat>0</sat>
</trkpt>
<trkpt lat="31.694956667" lon="34.996413333">
<time>2013-04-01T09:50:33Z</time>
 <fix>none</fix>
 <sat>0</sat>
</trkpt>
<trkpt lat="31.694976667" lon="34.996408333">
<time>2013-04-01T09:50:35Z</time>
 <fix>none</fix>
 <sat>0</sat>
</trkpt>
<trkpt lat="31.695006667" lon="34.996385000">
<time>2013-04-01T09:50:37Z</time>
 <fix>none</fix>
 <sat>0</sat>
</trkpt>
<trkpt lat="31.695021667" lon="34.996363333">
<time>2013-04-01T09:50:39Z</time>
 <fix>none</fix>
 <sat>0</sat>
</trkpt>
<trkpt lat="31.695038333" lon="34.996341667">
<time>2013-04-01T09:50:41Z</time>
 <fix>none</fix>
 <sat>0</sat>
</trkpt>
<trkpt lat="31.695050000" lon="34.996313333">
<time>2013-04-01T09:50:43Z</time>
 <fix>none</fix>
 <sat>0</sat>
</trkpt>
<trkpt lat="31.695058333" lon="34.996285000">
<time>2013-04-01T09:50:45Z</time>
 <fix>none</fix>
 <sat>0</sat>
</trkpt>
<trkpt lat="31.695071667" lon="34.996258333">
<time>2013-04-01T09:50:47Z</time>
 <fix>none</fix>
 <sat>0</sat>
</trkpt>
<trkpt lat="31.695088333" lon="34.996238333">
<time>2013-04-01T09:50:49Z</time>
 <fix>none</fix>
 <sat>0</sat>
</trkpt>
<trkpt lat="31.695106667" lon="34.996216667">
<time>2013-04-01T09:50:51Z</time>
 <fix>none</fix>
 <sat>0</sat>
</trkpt>
<trkpt lat="31.695125000" lon="34.996200000">
<time>2013-04-01T09:50:53Z</time>
 <fix>none</fix>
 <sat>0</sat>
</trkpt>
<trkpt lat="31.695136667" lon="34.996193333">
<time>2013-04-01T09:50:55Z</time>
 <fix>none</fix>
 <sat>0</sat>
</trkpt>
<trkpt lat="31.695156667" lon="34.996171667">
<time>2013-04-01T09:50:57Z</time>
 <fix>none</fix>
 <sat>0</sat>
</trkpt>
<trkpt lat="31.695175000" lon="34.996151667">
<time>2013-04-01T09:50:59Z</time>
 <fix>none</fix>
 <sat>0</sat>
</trkpt>
<trkpt lat="31.695191667" lon="34.996126667">
<time>2013-04-01T09:51:01Z</time>
 <fix>none</fix>
 <sat>0</sat>
</trkpt>
<trkpt lat="31.695216667" lon="34.996090000">
<time>2013-04-01T09:51:03Z</time>
 <fix>none</fix>
 <sat>0</sat>
</trkpt>
<trkpt lat="31.695233333" lon="34.996063333">
<time>2013-04-01T09:51:05Z</time>
 <fix>none</fix>
 <sat>0</sat>
</trkpt>
<trkpt lat="31.695246667" lon="34.996038333">
<time>2013-04-01T09:51:07Z</time>
 <fix>none</fix>
 <sat>0</sat>
</trkpt>
<trkpt lat="31.695261667" lon="34.996011667">
<time>2013-04-01T09:51:09Z</time>
 <fix>none</fix>
 <sat>0</sat>
</trkpt>
<trkpt lat="31.695276667" lon="34.995986667">
<time>2013-04-01T09:51:11Z</time>
 <fix>none</fix>
 <sat>0</sat>
</trkpt>
<trkpt lat="31.695295000" lon="34.995965000">
<time>2013-04-01T09:51:13Z</time>
 <fix>none</fix>
 <sat>0</sat>
</trkpt>
<trkpt lat="31.695313333" lon="34.995940000">
<time>2013-04-01T09:51:15Z</time>
 <fix>none</fix>
 <sat>0</sat>
</trkpt>
<trkpt lat="31.695328333" lon="34.995916667">
<time>2013-04-01T09:51:17Z</time>
 <fix>none</fix>
 <sat>0</sat>
</trkpt>
<trkpt lat="31.695338333" lon="34.995903333">
<time>2013-04-01T09:51:19Z</time>
 <fix>none</fix>
 <sat>0</sat>
</trkpt>
<trkpt lat="31.695350000" lon="34.995876667">
<time>2013-04-01T09:51:21Z</time>
 <fix>none</fix>
 <sat>0</sat>
</trkpt>
<trkpt lat="31.695356667" lon="34.995851667">
<time>2013-04-01T09:51:23Z</time>
 <fix>none</fix>
 <sat>0</sat>
</trkpt>
<trkpt lat="31.695381667" lon="34.995815000">
<time>2013-04-01T09:51:25Z</time>
 <fix>none</fix>
 <sat>0</sat>
</trkpt>
<trkpt lat="31.695401667" lon="34.995793333">
<time>2013-04-01T09:51:27Z</time>
 <fix>none</fix>
 <sat>0</sat>
</trkpt>
<trkpt lat="31.695423333" lon="34.995771667">
<time>2013-04-01T09:51:29Z</time>
 <fix>none</fix>
 <sat>0</sat>
</trkpt>
<trkpt lat="31.695450000" lon="34.995753333">
<time>2013-04-01T09:51:31Z</time>
 <fix>none</fix>
 <sat>0</sat>
</trkpt>
<trkpt lat="31.695476667" lon="34.995730000">
<time>2013-04-01T09:51:33Z</time>
 <fix>none</fix>
 <sat>0</sat>
</trkpt>
<trkpt lat="31.695493333" lon="34.995696667">
<time>2013-04-01T09:51:35Z</time>
 <fix>none</fix>
 <sat>0</sat>
</trkpt>
<trkpt lat="31.695518333" lon="34.995660000">
<time>2013-04-01T09:51:37Z</time>
 <fix>none</fix>
 <sat>0</sat>
</trkpt>
<trkpt lat="31.695543333" lon="34.995621667">
<time>2013-04-01T09:51:39Z</time>
 <fix>none</fix>
 <sat>0</sat>
</trkpt>
<trkpt lat="31.695556667" lon="34.995600000">
<time>2013-04-01T09:51:41Z</time>
 <fix>none</fix>
 <sat>0</sat>
</trkpt>
<trkpt lat="31.695585000" lon="34.995558333">
<time>2013-04-01T09:51:43Z</time>
 <fix>none</fix>
 <sat>0</sat>
</trkpt>
<trkpt lat="31.695613333" lon="34.995510000">
<time>2013-04-01T09:51:45Z</time>
 <fix>none</fix>
 <sat>0</sat>
</trkpt>
<trkpt lat="31.695663333" lon="34.995410000">
<time>2013-04-01T09:51:47Z</time>
 <fix>none</fix>
 <sat>0</sat>
</trkpt>
<trkpt lat="31.695696667" lon="34.995350000">
<time>2013-04-01T09:51:49Z</time>
 <fix>none</fix>
 <sat>0</sat>
</trkpt>
<trkpt lat="31.695733333" lon="34.995298333">
<time>2013-04-01T09:51:51Z</time>
 <fix>none</fix>
 <sat>0</sat>
</trkpt>
<trkpt lat="31.695775000" lon="34.995248333">
<time>2013-04-01T09:51:53Z</time>
 <fix>none</fix>
 <sat>0</sat>
</trkpt>
<trkpt lat="31.695820000" lon="34.995206667">
<time>2013-04-01T09:51:55Z</time>
 <fix>none</fix>
 <sat>0</sat>
</trkpt>
<trkpt lat="31.695868333" lon="34.995170000">
<time>2013-04-01T09:51:57Z</time>
 <fix>none</fix>
 <sat>0</sat>
</trkpt>
<trkpt lat="31.695916667" lon="34.995133333">
<time>2013-04-01T09:51:59Z</time>
 <fix>none</fix>
 <sat>0</sat>
</trkpt>
<trkpt lat="31.695968333" lon="34.995100000">
<time>2013-04-01T09:52:01Z</time>
 <fix>none</fix>
 <sat>0</sat>
</trkpt>
<trkpt lat="31.696020000" lon="34.995066667">
<time>2013-04-01T09:52:03Z</time>
 <fix>none</fix>
 <sat>0</sat>
</trkpt>
<trkpt lat="31.696048333" lon="34.995048333">
<time>2013-04-01T09:52:05Z</time>
 <fix>none</fix>
 <sat>0</sat>
</trkpt>
<trkpt lat="31.696103333" lon="34.995015000">
<time>2013-04-01T09:52:07Z</time>
 <fix>none</fix>
 <sat>0</sat>
</trkpt>
<trkpt lat="31.696151667" lon="34.994968333">
<time>2013-04-01T09:52:09Z</time>
 <fix>none</fix>
 <sat>0</sat>
</trkpt>
<trkpt lat="31.696205000" lon="34.994858333">
<time>2013-04-01T09:52:11Z</time>
 <fix>none</fix>
 <sat>0</sat>
</trkpt>
<trkpt lat="31.696231667" lon="34.994790000">
<time>2013-04-01T09:52:13Z</time>
 <fix>none</fix>
 <sat>0</sat>
</trkpt>
<trkpt lat="31.696260000" lon="34.994730000">
<time>2013-04-01T09:52:15Z</time>
 <fix>none</fix>
 <sat>0</sat>
</trkpt>
<trkpt lat="31.696300000" lon="34.994676667">
<time>2013-04-01T09:52:17Z</time>
 <fix>none</fix>
 <sat>0</sat>
</trkpt>
<trkpt lat="31.696321667" lon="34.994651667">
<time>2013-04-01T09:52:19Z</time>
 <fix>none</fix>
 <sat>0</sat>
</trkpt>
<trkpt lat="31.696386667" lon="34.994580000">
<time>2013-04-01T09:52:21Z</time>
 <fix>none</fix>
 <sat>0</sat>
</trkpt>
<trkpt lat="31.696418333" lon="34.994530000">
<time>2013-04-01T09:52:23Z</time>
 <fix>none</fix>
 <sat>0</sat>
</trkpt>
<trkpt lat="31.696435000" lon="34.994465000">
<time>2013-04-01T09:52:25Z</time>
 <fix>none</fix>
 <sat>0</sat>
</trkpt>
<trkpt lat="31.696435000" lon="34.994426667">
<time>2013-04-01T09:52:27Z</time>
 <fix>none</fix>
 <sat>0</sat>
</trkpt>
<trkpt lat="31.696426667" lon="34.994340000">
<time>2013-04-01T09:52:29Z</time>
 <fix>none</fix>
 <sat>0</sat>
</trkpt>
<trkpt lat="31.696403333" lon="34.994228333">
<time>2013-04-01T09:52:31Z</time>
 <fix>none</fix>
 <sat>0</sat>
</trkpt>
<trkpt lat="31.696393333" lon="34.994026667">
<time>2013-04-01T09:52:33Z</time>
 <fix>none</fix>
 <sat>0</sat>
</trkpt>
<trkpt lat="31.696401667" lon="34.993891667">
<time>2013-04-01T09:52:35Z</time>
 <fix>none</fix>
 <sat>0</sat>
</trkpt>
<trkpt lat="31.696398333" lon="34.993768333">
<time>2013-04-01T09:52:37Z</time>
 <fix>none</fix>
 <sat>0</sat>
</trkpt>
<trkpt lat="31.696395000" lon="34.993665000">
<time>2013-04-01T09:52:39Z</time>
 <fix>none</fix>
 <sat>0</sat>
</trkpt>
<trkpt lat="31.696395000" lon="34.993578333">
<time>2013-04-01T09:52:41Z</time>
 <fix>none</fix>
 <sat>0</sat>
</trkpt>
<trkpt lat="31.696401667" lon="34.993500000">
<time>2013-04-01T09:52:43Z</time>
 <fix>none</fix>
 <sat>0</sat>
</trkpt>
<trkpt lat="31.696420000" lon="34.993425000">
<time>2013-04-01T09:52:45Z</time>
 <fix>none</fix>
 <sat>0</sat>
</trkpt>
<trkpt lat="31.696458333" lon="34.993353333">
<time>2013-04-01T09:52:47Z</time>
 <fix>none</fix>
 <sat>0</sat>
</trkpt>
<trkpt lat="31.696485000" lon="34.993320000">
<time>2013-04-01T09:52:49Z</time>
 <fix>none</fix>
 <sat>0</sat>
</trkpt>
<trkpt lat="31.696548333" lon="34.993251667">
<time>2013-04-01T09:52:51Z</time>
 <fix>none</fix>
 <sat>0</sat>
</trkpt>
<trkpt lat="31.696673333" lon="34.993168333">
<time>2013-04-01T09:52:53Z</time>
 <fix>none</fix>
 <sat>0</sat>
</trkpt>
<trkpt lat="31.696768333" lon="34.993140000">
<time>2013-04-01T09:52:55Z</time>
 <fix>none</fix>
 <sat>0</sat>
</trkpt>
<trkpt lat="31.696858333" lon="34.993141667">
<time>2013-04-01T09:52:57Z</time>
 <fix>none</fix>
 <sat>0</sat>
</trkpt>
<trkpt lat="31.696935000" lon="34.993175000">
<time>2013-04-01T09:52:59Z</time>
 <fix>none</fix>
 <sat>0</sat>
</trkpt>
<trkpt lat="31.697010000" lon="34.993223333">
<time>2013-04-01T09:53:01Z</time>
 <fix>none</fix>
 <sat>0</sat>
</trkpt>
<trkpt lat="31.697091667" lon="34.993283333">
<time>2013-04-01T09:53:03Z</time>
 <fix>none</fix>
 <sat>0</sat>
</trkpt>
<trkpt lat="31.697176667" lon="34.993346667">
<time>2013-04-01T09:53:05Z</time>
 <fix>none</fix>
 <sat>0</sat>
</trkpt>
<trkpt lat="31.697260000" lon="34.993413333">
<time>2013-04-01T09:53:07Z</time>
 <fix>none</fix>
 <sat>0</sat>
</trkpt>
<trkpt lat="31.697335000" lon="34.993478333">
<time>2013-04-01T09:53:09Z</time>
 <fix>none</fix>
 <sat>0</sat>
</trkpt>
<trkpt lat="31.697396667" lon="34.993533333">
<time>2013-04-01T09:53:11Z</time>
 <fix>none</fix>
 <sat>0</sat>
</trkpt>
<trkpt lat="31.697423333" lon="34.993558333">
<time>2013-04-01T09:53:13Z</time>
 <fix>none</fix>
 <sat>0</sat>
</trkpt>
<trkpt lat="31.697470000" lon="34.993606667">
<time>2013-04-01T09:53:15Z</time>
 <fix>none</fix>
 <sat>0</sat>
</trkpt>
<trkpt lat="31.697513333" lon="34.993656667">
<time>2013-04-01T09:53:17Z</time>
 <fix>none</fix>
 <sat>0</sat>
</trkpt>
<trkpt lat="31.697581667" lon="34.993738333">
<time>2013-04-01T09:53:19Z</time>
 <fix>none</fix>
 <sat>0</sat>
</trkpt>
<trkpt lat="31.697621667" lon="34.993808333">
<time>2013-04-01T09:53:21Z</time>
 <fix>none</fix>
 <sat>0</sat>
</trkpt>
<trkpt lat="31.697665000" lon="34.993886667">
<time>2013-04-01T09:53:23Z</time>
 <fix>none</fix>
 <sat>0</sat>
</trkpt>
<trkpt lat="31.697703333" lon="34.993963333">
<time>2013-04-01T09:53:25Z</time>
 <fix>none</fix>
 <sat>0</sat>
</trkpt>
<trkpt lat="31.697746667" lon="34.994048333">
<time>2013-04-01T09:53:27Z</time>
 <fix>none</fix>
 <sat>0</sat>
</trkpt>
<trkpt lat="31.697813333" lon="34.994136667">
<time>2013-04-01T09:53:29Z</time>
 <fix>none</fix>
 <sat>0</sat>
</trkpt>
<trkpt lat="31.697910000" lon="34.994203333">
<time>2013-04-01T09:53:31Z</time>
 <fix>none</fix>
 <sat>0</sat>
</trkpt>
<trkpt lat="31.698008333" lon="34.994240000">
<time>2013-04-01T09:53:33Z</time>
 <fix>none</fix>
 <sat>0</sat>
</trkpt>
<trkpt lat="31.698055000" lon="34.994260000">
<time>2013-04-01T09:53:35Z</time>
 <fix>none</fix>
 <sat>0</sat>
</trkpt>
<trkpt lat="31.698123333" lon="34.994316667">
<time>2013-04-01T09:53:37Z</time>
 <fix>none</fix>
 <sat>0</sat>
</trkpt>
<trkpt lat="31.698205000" lon="34.994461667">
<time>2013-04-01T09:53:39Z</time>
 <fix>none</fix>
 <sat>0</sat>
</trkpt>
<trkpt lat="31.698240000" lon="34.994511667">
<time>2013-04-01T09:53:41Z</time>
 <fix>none</fix>
 <sat>0</sat>
</trkpt>
<trkpt lat="31.698358333" lon="34.994633333">
<time>2013-04-01T09:53:43Z</time>
 <fix>none</fix>
 <sat>0</sat>
</trkpt>
<trkpt lat="31.698421667" lon="34.994733333">
<time>2013-04-01T09:53:45Z</time>
 <fix>none</fix>
 <sat>0</sat>
</trkpt>
<trkpt lat="31.698485000" lon="34.994848333">
<time>2013-04-01T09:53:47Z</time>
 <fix>none</fix>
 <sat>0</sat>
</trkpt>
<trkpt lat="31.698565000" lon="34.994951667">
<time>2013-04-01T09:53:49Z</time>
 <fix>none</fix>
 <sat>0</sat>
</trkpt>
<trkpt lat="31.698653333" lon="34.995031667">
<time>2013-04-01T09:53:51Z</time>
 <fix>none</fix>
 <sat>0</sat>
</trkpt>
<trkpt lat="31.698745000" lon="34.995066667">
<time>2013-04-01T09:53:53Z</time>
 <fix>none</fix>
 <sat>0</sat>
</trkpt>
<trkpt lat="31.698835000" lon="34.995070000">
<time>2013-04-01T09:53:55Z</time>
 <fix>none</fix>
 <sat>0</sat>
</trkpt>
<trkpt lat="31.698928333" lon="34.995071667">
<time>2013-04-01T09:53:57Z</time>
 <fix>none</fix>
 <sat>0</sat>
</trkpt>
<trkpt lat="31.698971667" lon="34.995080000">
<time>2013-04-01T09:53:59Z</time>
 <fix>none</fix>
 <sat>0</sat>
</trkpt>
<trkpt lat="31.699045000" lon="34.995121667">
<time>2013-04-01T09:54:01Z</time>
 <fix>none</fix>
 <sat>0</sat>
</trkpt>
<trkpt lat="31.699131667" lon="34.995211667">
<time>2013-04-01T09:54:03Z</time>
 <fix>none</fix>
 <sat>0</sat>
</trkpt>
<trkpt lat="31.699193333" lon="34.995275000">
<time>2013-04-01T09:54:05Z</time>
 <fix>none</fix>
 <sat>0</sat>
</trkpt>
<trkpt lat="31.699251667" lon="34.995330000">
<time>2013-04-01T09:54:07Z</time>
 <fix>none</fix>
 <sat>0</sat>
</trkpt>
<trkpt lat="31.699303333" lon="34.995385000">
<time>2013-04-01T09:54:09Z</time>
 <fix>none</fix>
 <sat>0</sat>
</trkpt>
<trkpt lat="31.699351667" lon="34.995445000">
<time>2013-04-01T09:54:11Z</time>
 <fix>none</fix>
 <sat>0</sat>
</trkpt>
<trkpt lat="31.699400000" lon="34.995498333">
<time>2013-04-01T09:54:13Z</time>
 <fix>none</fix>
 <sat>0</sat>
</trkpt>
<trkpt lat="31.699445000" lon="34.995535000">
<time>2013-04-01T09:54:15Z</time>
 <fix>none</fix>
 <sat>0</sat>
</trkpt>
<trkpt lat="31.699491667" lon="34.995560000">
<time>2013-04-01T09:54:17Z</time>
 <fix>none</fix>
 <sat>0</sat>
</trkpt>
<trkpt lat="31.699535000" lon="34.995570000">
<time>2013-04-01T09:54:19Z</time>
 <fix>none</fix>
 <sat>0</sat>
</trkpt>
<trkpt lat="31.699550000" lon="34.995566667">
<time>2013-04-01T09:54:21Z</time>
 <fix>none</fix>
 <sat>0</sat>
</trkpt>
<trkpt lat="31.699555000" lon="34.995570000">
<time>2013-04-01T09:54:23Z</time>
 <fix>none</fix>
 <sat>0</sat>
</trkpt>
<trkpt lat="31.699553333" lon="34.995571667">
<time>2013-04-01T09:54:25Z</time>
 <fix>none</fix>
 <sat>0</sat>
</trkpt>
<trkpt lat="31.699558333" lon="34.995571667">
<time>2013-04-01T09:54:27Z</time>
 <fix>none</fix>
 <sat>0</sat>
</trkpt>
<trkpt lat="31.699556667" lon="34.995573333">
<time>2013-04-01T09:54:29Z</time>
 <fix>none</fix>
 <sat>0</sat>
</trkpt>
<trkpt lat="31.699553333" lon="34.995575000">
<time>2013-04-01T09:54:31Z</time>
 <fix>none</fix>
 <sat>0</sat>
</trkpt>
<trkpt lat="31.699548333" lon="34.995576667">
<time>2013-04-01T09:54:33Z</time>
 <fix>none</fix>
 <sat>0</sat>
</trkpt>
<trkpt lat="31.699548333" lon="34.995578333">
<time>2013-04-01T09:54:35Z</time>
 <fix>none</fix>
 <sat>0</sat>
</trkpt>
<trkpt lat="31.699541667" lon="34.995573333">
<time>2013-04-01T09:54:37Z</time>
 <fix>none</fix>
 <sat>0</sat>
</trkpt>
<trkpt lat="31.699538333" lon="34.995575000">
<time>2013-04-01T09:54:39Z</time>
 <fix>none</fix>
 <sat>0</sat>
</trkpt>
<trkpt lat="31.699540000" lon="34.995576667">
<time>2013-04-01T09:54:41Z</time>
 <fix>none</fix>
 <sat>0</sat>
</trkpt>
<trkpt lat="31.699538333" lon="34.995576667">
<time>2013-04-01T09:54:43Z</time>
 <fix>none</fix>
 <sat>0</sat>
</trkpt>
<trkpt lat="31.699535000" lon="34.995576667">
<time>2013-04-01T09:54:45Z</time>
 <fix>none</fix>
 <sat>0</sat>
</trkpt>
<trkpt lat="31.699535000" lon="34.995576667">
<time>2013-04-01T09:54:47Z</time>
 <fix>none</fix>
 <sat>0</sat>
</trkpt>
<trkpt lat="31.699536667" lon="34.995576667">
<time>2013-04-01T09:54:49Z</time>
 <fix>none</fix>
 <sat>0</sat>
</trkpt>
<trkpt lat="31.699536667" lon="34.995576667">
<time>2013-04-01T09:54:51Z</time>
 <fix>none</fix>
 <sat>0</sat>
</trkpt>
<trkpt lat="31.699536667" lon="34.995576667">
<time>2013-04-01T09:54:53Z</time>
 <fix>none</fix>
 <sat>0</sat>
</trkpt>
<trkpt lat="31.699538333" lon="34.995586667">
<time>2013-04-01T09:54:55Z</time>
 <fix>none</fix>
 <sat>0</sat>
</trkpt>
<trkpt lat="31.699536667" lon="34.995590000">
<time>2013-04-01T09:54:57Z</time>
 <fix>none</fix>
 <sat>0</sat>
</trkpt>
<trkpt lat="31.699533333" lon="34.995593333">
<time>2013-04-01T09:54:59Z</time>
 <fix>none</fix>
 <sat>0</sat>
</trkpt>
<trkpt lat="31.699530000" lon="34.995596667">
<time>2013-04-01T09:55:01Z</time>
 <fix>none</fix>
 <sat>0</sat>
</trkpt>
<trkpt lat="31.699528333" lon="34.995598333">
<time>2013-04-01T09:55:03Z</time>
 <fix>none</fix>
 <sat>0</sat>
</trkpt>
<trkpt lat="31.699528333" lon="34.995601667">
<time>2013-04-01T09:55:05Z</time>
 <fix>none</fix>
 <sat>0</sat>
</trkpt>
<trkpt lat="31.699528333" lon="34.995601667">
<time>2013-04-01T09:55:07Z</time>
 <fix>none</fix>
 <sat>0</sat>
</trkpt>
<trkpt lat="31.699526667" lon="34.995601667">
<time>2013-04-01T09:55:09Z</time>
 <fix>none</fix>
 <sat>0</sat>
</trkpt>
<trkpt lat="31.699526667" lon="34.995601667">
<time>2013-04-01T09:55:11Z</time>
 <fix>none</fix>
 <sat>0</sat>
</trkpt>
<trkpt lat="31.699525000" lon="34.995601667">
<time>2013-04-01T09:55:13Z</time>
 <fix>none</fix>
 <sat>0</sat>
</trkpt>
<trkpt lat="31.699525000" lon="34.995601667">
<time>2013-04-01T09:55:15Z</time>
 <fix>none</fix>
 <sat>0</sat>
</trkpt>
<trkpt lat="31.699525000" lon="34.995601667">
<time>2013-04-01T09:55:17Z</time>
 <fix>none</fix>
 <sat>0</sat>
</trkpt>
<trkpt lat="31.699553333" lon="34.995593333">
<time>2013-04-01T09:55:19Z</time>
 <fix>none</fix>
 <sat>0</sat>
</trkpt>
<trkpt lat="31.699575000" lon="34.995580000">
<time>2013-04-01T09:55:21Z</time>
 <fix>none</fix>
 <sat>0</sat>
</trkpt>
<trkpt lat="31.699583333" lon="34.995566667">
<time>2013-04-01T09:55:23Z</time>
 <fix>none</fix>
 <sat>0</sat>
</trkpt>
<trkpt lat="31.699553333" lon="34.995571667">
<time>2013-04-01T09:55:25Z</time>
 <fix>none</fix>
 <sat>0</sat>
</trkpt>
<trkpt lat="31.699508333" lon="34.995571667">
<time>2013-04-01T09:55:27Z</time>
 <fix>none</fix>
 <sat>0</sat>
</trkpt>
<trkpt lat="31.699486667" lon="34.995563333">
<time>2013-04-01T09:55:29Z</time>
 <fix>none</fix>
 <sat>0</sat>
</trkpt>
<trkpt lat="31.699435000" lon="34.995533333">
<time>2013-04-01T09:55:31Z</time>
 <fix>none</fix>
 <sat>0</sat>
</trkpt>
<trkpt lat="31.699356667" lon="34.995460000">
<time>2013-04-01T09:55:33Z</time>
 <fix>none</fix>
 <sat>0</sat>
</trkpt>
<trkpt lat="31.699305000" lon="34.995398333">
<time>2013-04-01T09:55:35Z</time>
 <fix>none</fix>
 <sat>0</sat>
</trkpt>
<trkpt lat="31.699253333" lon="34.995340000">
<time>2013-04-01T09:55:37Z</time>
 <fix>none</fix>
 <sat>0</sat>
</trkpt>
<trkpt lat="31.699201667" lon="34.995290000">
<time>2013-04-01T09:55:39Z</time>
 <fix>none</fix>
 <sat>0</sat>
</trkpt>
<trkpt lat="31.699151667" lon="34.995241667">
<time>2013-04-01T09:55:41Z</time>
 <fix>none</fix>
 <sat>0</sat>
</trkpt>
<trkpt lat="31.699096667" lon="34.995198333">
<time>2013-04-01T09:55:43Z</time>
 <fix>none</fix>
 <sat>0</sat>
</trkpt>
<trkpt lat="31.699048333" lon="34.995150000">
<time>2013-04-01T09:55:45Z</time>
 <fix>none</fix>
 <sat>0</sat>
</trkpt>
<trkpt lat="31.698996667" lon="34.995101667">
<time>2013-04-01T09:55:47Z</time>
 <fix>none</fix>
 <sat>0</sat>
</trkpt>
<trkpt lat="31.698931667" lon="34.995073333">
<time>2013-04-01T09:55:49Z</time>
 <fix>none</fix>
 <sat>0</sat>
</trkpt>
<trkpt lat="31.698855000" lon="34.995065000">
<time>2013-04-01T09:55:51Z</time>
 <fix>none</fix>
 <sat>0</sat>
</trkpt>
<trkpt lat="31.698818333" lon="34.995066667">
<time>2013-04-01T09:55:53Z</time>
 <fix>none</fix>
 <sat>0</sat>
</trkpt>
<trkpt lat="31.698755000" lon="34.995065000">
<time>2013-04-01T09:55:55Z</time>
 <fix>none</fix>
 <sat>0</sat>
</trkpt>
<trkpt lat="31.698666667" lon="34.995043333">
<time>2013-04-01T09:55:57Z</time>
 <fix>none</fix>
 <sat>0</sat>
</trkpt>
<trkpt lat="31.698603333" lon="34.995015000">
<time>2013-04-01T09:55:59Z</time>
 <fix>none</fix>
 <sat>0</sat>
</trkpt>
<trkpt lat="31.698545000" lon="34.994976667">
<time>2013-04-01T09:56:01Z</time>
 <fix>none</fix>
 <sat>0</sat>
</trkpt>
<trkpt lat="31.698488333" lon="34.994961667">
<time>2013-04-01T09:56:03Z</time>
 <fix>none</fix>
 <sat>0</sat>
</trkpt>
<trkpt lat="31.698438333" lon="34.994968333">
<time>2013-04-01T09:56:05Z</time>
 <fix>none</fix>
 <sat>0</sat>
</trkpt>
<trkpt lat="31.698390000" lon="34.994966667">
<time>2013-04-01T09:56:07Z</time>
 <fix>none</fix>
 <sat>0</sat>
</trkpt>
<trkpt lat="31.698346667" lon="34.994971667">
<time>2013-04-01T09:56:09Z</time>
 <fix>none</fix>
 <sat>0</sat>
</trkpt>
<trkpt lat="31.698301667" lon="34.994968333">
<time>2013-04-01T09:56:11Z</time>
 <fix>none</fix>
 <sat>0</sat>
</trkpt>
<trkpt lat="31.698256667" lon="34.994960000">
<time>2013-04-01T09:56:13Z</time>
 <fix>none</fix>
 <sat>0</sat>
</trkpt>
<trkpt lat="31.698236667" lon="34.994955000">
<time>2013-04-01T09:56:15Z</time>
 <fix>none</fix>
 <sat>0</sat>
</trkpt>
<trkpt lat="31.698196667" lon="34.994943333">
<time>2013-04-01T09:56:17Z</time>
 <fix>none</fix>
 <sat>0</sat>
</trkpt>
<trkpt lat="31.698161667" lon="34.994933333">
<time>2013-04-01T09:56:19Z</time>
 <fix>none</fix>
 <sat>0</sat>
</trkpt>
<trkpt lat="31.698111667" lon="34.994916667">
<time>2013-04-01T09:56:21Z</time>
 <fix>none</fix>
 <sat>0</sat>
</trkpt>
<trkpt lat="31.698076667" lon="34.994908333">
<time>2013-04-01T09:56:23Z</time>
 <fix>none</fix>
 <sat>0</sat>
</trkpt>
<trkpt lat="31.698043333" lon="34.994898333">
<time>2013-04-01T09:56:25Z</time>
 <fix>none</fix>
 <sat>0</sat>
</trkpt>
<trkpt lat="31.698013333" lon="34.994891667">
<time>2013-04-01T09:56:27Z</time>
 <fix>none</fix>
 <sat>0</sat>
</trkpt>
<trkpt lat="31.697998333" lon="34.994888333">
<time>2013-04-01T09:56:29Z</time>
 <fix>none</fix>
 <sat>0</sat>
</trkpt>
<trkpt lat="31.697976667" lon="34.994886667">
<time>2013-04-01T09:56:31Z</time>
 <fix>none</fix>
 <sat>0</sat>
</trkpt>
<trkpt lat="31.697973333" lon="34.994875000">
<time>2013-04-01T09:56:33Z</time>
 <fix>none</fix>
 <sat>0</sat>
</trkpt>
<trkpt lat="31.697963333" lon="34.994861667">
<time>2013-04-01T09:56:35Z</time>
 <fix>none</fix>
 <sat>0</sat>
</trkpt>
<trkpt lat="31.697958333" lon="34.994858333">
<time>2013-04-01T09:56:37Z</time>
 <fix>none</fix>
 <sat>0</sat>
</trkpt>
<trkpt lat="31.697956667" lon="34.994853333">
<time>2013-04-01T09:56:39Z</time>
 <fix>none</fix>
 <sat>0</sat>
</trkpt>
<trkpt lat="31.697955000" lon="34.994855000">
<time>2013-04-01T09:56:41Z</time>
 <fix>none</fix>
 <sat>0</sat>
</trkpt>
<trkpt lat="31.697951667" lon="34.994853333">
<time>2013-04-01T09:56:43Z</time>
 <fix>none</fix>
 <sat>0</sat>
</trkpt>
<trkpt lat="31.697933333" lon="34.994851667">
<time>2013-04-01T09:56:45Z</time>
 <fix>none</fix>
 <sat>0</sat>
</trkpt>
<trkpt lat="31.697920000" lon="34.994853333">
<time>2013-04-01T09:56:47Z</time>
 <fix>none</fix>
 <sat>0</sat>
</trkpt>
<trkpt lat="31.697920000" lon="34.994853333">
<time>2013-04-01T09:56:49Z</time>
 <fix>none</fix>
 <sat>0</sat>
</trkpt>
<trkpt lat="31.697895000" lon="34.994850000">
<time>2013-04-01T09:56:51Z</time>
 <fix>none</fix>
 <sat>0</sat>
</trkpt>
<trkpt lat="31.697886667" lon="34.994850000">
<time>2013-04-01T09:56:53Z</time>
 <fix>none</fix>
 <sat>0</sat>
</trkpt>
<trkpt lat="31.697876667" lon="34.994850000">
<time>2013-04-01T09:56:55Z</time>
 <fix>none</fix>
 <sat>0</sat>
</trkpt>
<trkpt lat="31.697866667" lon="34.994851667">
<time>2013-04-01T09:56:57Z</time>
 <fix>none</fix>
 <sat>0</sat>
</trkpt>
<trkpt lat="31.697861667" lon="34.994850000">
<time>2013-04-01T09:56:59Z</time>
 <fix>none</fix>
 <sat>0</sat>
</trkpt>
<trkpt lat="31.697855000" lon="34.994851667">
<time>2013-04-01T09:57:01Z</time>
 <fix>none</fix>
 <sat>0</sat>
</trkpt>
<trkpt lat="31.697848333" lon="34.994853333">
<time>2013-04-01T09:57:03Z</time>
 <fix>none</fix>
 <sat>0</sat>
</trkpt>
<trkpt lat="31.697841667" lon="34.994853333">
<time>2013-04-01T09:57:05Z</time>
 <fix>none</fix>
 <sat>0</sat>
</trkpt>
<trkpt lat="31.697825000" lon="34.994851667">
<time>2013-04-01T09:57:07Z</time>
 <fix>none</fix>
 <sat>0</sat>
</trkpt>
<trkpt lat="31.697820000" lon="34.994851667">
<time>2013-04-01T09:57:09Z</time>
 <fix>none</fix>
 <sat>0</sat>
</trkpt>
<trkpt lat="31.697803333" lon="34.994856667">
<time>2013-04-01T09:57:11Z</time>
 <fix>none</fix>
 <sat>0</sat>
</trkpt>
<trkpt lat="31.697793333" lon="34.994865000">
<time>2013-04-01T09:57:13Z</time>
 <fix>none</fix>
 <sat>0</sat>
</trkpt>
<trkpt lat="31.697786667" lon="34.994871667">
<time>2013-04-01T09:57:15Z</time>
 <fix>none</fix>
 <sat>0</sat>
</trkpt>
<trkpt lat="31.697780000" lon="34.994875000">
<time>2013-04-01T09:57:17Z</time>
 <fix>none</fix>
 <sat>0</sat>
</trkpt>
<trkpt lat="31.697775000" lon="34.994878333">
<time>2013-04-01T09:57:19Z</time>
 <fix>none</fix>
 <sat>0</sat>
</trkpt>
<trkpt lat="31.697768333" lon="34.994881667">
<time>2013-04-01T09:57:21Z</time>
 <fix>none</fix>
 <sat>0</sat>
</trkpt>
<trkpt lat="31.697765000" lon="34.994888333">
<time>2013-04-01T09:57:23Z</time>
 <fix>none</fix>
 <sat>0</sat>
</trkpt>
<trkpt lat="31.697755000" lon="34.994900000">
<time>2013-04-01T09:57:25Z</time>
 <fix>none</fix>
 <sat>0</sat>
</trkpt>
<trkpt lat="31.697745000" lon="34.994913333">
<time>2013-04-01T09:57:27Z</time>
 <fix>none</fix>
 <sat>0</sat>
</trkpt>
<trkpt lat="31.697733333" lon="34.994931667">
<time>2013-04-01T09:57:29Z</time>
 <fix>none</fix>
 <sat>0</sat>
</trkpt>
<trkpt lat="31.697725000" lon="34.994943333">
<time>2013-04-01T09:57:31Z</time>
 <fix>none</fix>
 <sat>0</sat>
</trkpt>
<trkpt lat="31.697720000" lon="34.994948333">
<time>2013-04-01T09:57:33Z</time>
 <fix>none</fix>
 <sat>0</sat>
</trkpt>
<trkpt lat="31.697713333" lon="34.994961667">
<time>2013-04-01T09:57:35Z</time>
 <fix>none</fix>
 <sat>0</sat>
</trkpt>
<trkpt lat="31.697706667" lon="34.994970000">
<time>2013-04-01T09:57:37Z</time>
 <fix>none</fix>
 <sat>0</sat>
</trkpt>
<trkpt lat="31.697693333" lon="34.994998333">
<time>2013-04-01T09:57:39Z</time>
 <fix>none</fix>
 <sat>0</sat>
</trkpt>
<trkpt lat="31.697676667" lon="34.995040000">
<time>2013-04-01T09:57:41Z</time>
 <fix>none</fix>
 <sat>0</sat>
</trkpt>
<trkpt lat="31.697655000" lon="34.995090000">
<time>2013-04-01T09:57:43Z</time>
 <fix>none</fix>
 <sat>0</sat>
</trkpt>
<trkpt lat="31.697628333" lon="34.995156667">
<time>2013-04-01T09:57:45Z</time>
 <fix>none</fix>
 <sat>0</sat>
</trkpt>
<trkpt lat="31.697613333" lon="34.995186667">
<time>2013-04-01T09:57:47Z</time>
 <fix>none</fix>
 <sat>0</sat>
</trkpt>
<trkpt lat="31.697588333" lon="34.995226667">
<time>2013-04-01T09:57:49Z</time>
 <fix>none</fix>
 <sat>0</sat>
</trkpt>
<trkpt lat="31.697555000" lon="34.995265000">
<time>2013-04-01T09:57:51Z</time>
 <fix>none</fix>
 <sat>0</sat>
</trkpt>
<trkpt lat="31.697526667" lon="34.995288333">
<time>2013-04-01T09:57:53Z</time>
 <fix>none</fix>
 <sat>0</sat>
</trkpt>
<trkpt lat="31.697498333" lon="34.995310000">
<time>2013-04-01T09:57:55Z</time>
 <fix>none</fix>
 <sat>0</sat>
</trkpt>
<trkpt lat="31.697471667" lon="34.995328333">
<time>2013-04-01T09:57:57Z</time>
 <fix>none</fix>
 <sat>0</sat>
</trkpt>
<trkpt lat="31.697443333" lon="34.995345000">
<time>2013-04-01T09:57:59Z</time>
 <fix>none</fix>
 <sat>0</sat>
</trkpt>
<trkpt lat="31.697413333" lon="34.995363333">
<time>2013-04-01T09:58:01Z</time>
 <fix>none</fix>
 <sat>0</sat>
</trkpt>
<trkpt lat="31.697386667" lon="34.995381667">
<time>2013-04-01T09:58:03Z</time>
 <fix>none</fix>
 <sat>0</sat>
</trkpt>
<trkpt lat="31.697360000" lon="34.995398333">
<time>2013-04-01T09:58:05Z</time>
 <fix>none</fix>
 <sat>0</sat>
</trkpt>
<trkpt lat="31.697335000" lon="34.995415000">
<time>2013-04-01T09:58:07Z</time>
 <fix>none</fix>
 <sat>0</sat>
</trkpt>
<trkpt lat="31.697323333" lon="34.995423333">
<time>2013-04-01T09:58:09Z</time>
 <fix>none</fix>
 <sat>0</sat>
</trkpt>
<trkpt lat="31.697298333" lon="34.995440000">
<time>2013-04-01T09:58:11Z</time>
 <fix>none</fix>
 <sat>0</sat>
</trkpt>
<trkpt lat="31.697268333" lon="34.995451667">
<time>2013-04-01T09:58:13Z</time>
 <fix>none</fix>
 <sat>0</sat>
</trkpt>
<trkpt lat="31.697226667" lon="34.995475000">
<time>2013-04-01T09:58:15Z</time>
 <fix>none</fix>
 <sat>0</sat>
</trkpt>
<trkpt lat="31.697206667" lon="34.995503333">
<time>2013-04-01T09:58:17Z</time>
 <fix>none</fix>
 <sat>0</sat>
</trkpt>
<trkpt lat="31.697188333" lon="34.995531667">
<time>2013-04-01T09:58:19Z</time>
 <fix>none</fix>
 <sat>0</sat>
</trkpt>
<trkpt lat="31.697168333" lon="34.995560000">
<time>2013-04-01T09:58:21Z</time>
 <fix>none</fix>
 <sat>0</sat>
</trkpt>
<trkpt lat="31.697148333" lon="34.995590000">
<time>2013-04-01T09:58:23Z</time>
 <fix>none</fix>
 <sat>0</sat>
</trkpt>
<trkpt lat="31.697131667" lon="34.995621667">
<time>2013-04-01T09:58:25Z</time>
 <fix>none</fix>
 <sat>0</sat>
</trkpt>
<trkpt lat="31.697116667" lon="34.995658333">
<time>2013-04-01T09:58:27Z</time>
 <fix>none</fix>
 <sat>0</sat>
</trkpt>
<trkpt lat="31.697106667" lon="34.995698333">
<time>2013-04-01T09:58:29Z</time>
 <fix>none</fix>
 <sat>0</sat>
</trkpt>
<trkpt lat="31.697101667" lon="34.995718333">
<time>2013-04-01T09:58:31Z</time>
 <fix>none</fix>
 <sat>0</sat>
</trkpt>
<trkpt lat="31.697093333" lon="34.995755000">
<time>2013-04-01T09:58:33Z</time>
 <fix>none</fix>
 <sat>0</sat>
</trkpt>
<trkpt lat="31.697086667" lon="34.995811667">
<time>2013-04-01T09:58:35Z</time>
 <fix>none</fix>
 <sat>0</sat>
</trkpt>
<trkpt lat="31.697085000" lon="34.995831667">
<time>2013-04-01T09:58:37Z</time>
 <fix>none</fix>
 <sat>0</sat>
</trkpt>
<trkpt lat="31.697080000" lon="34.995873333">
<time>2013-04-01T09:58:39Z</time>
 <fix>none</fix>
 <sat>0</sat>
</trkpt>
<trkpt lat="31.697083333" lon="34.995875000">
<time>2013-04-01T09:58:41Z</time>
 <fix>none</fix>
 <sat>0</sat>
</trkpt>
<trkpt lat="31.697081667" lon="34.995878333">
<time>2013-04-01T09:58:43Z</time>
 <fix>none</fix>
 <sat>0</sat>
</trkpt>
<trkpt lat="31.697071667" lon="34.995888333">
<time>2013-04-01T09:58:45Z</time>
 <fix>none</fix>
 <sat>0</sat>
</trkpt>
<trkpt lat="31.697068333" lon="34.995893333">
<time>2013-04-01T09:58:47Z</time>
 <fix>none</fix>
 <sat>0</sat>
</trkpt>
<trkpt lat="31.697056667" lon="34.995903333">
<time>2013-04-01T09:58:49Z</time>
 <fix>none</fix>
 <sat>0</sat>
</trkpt>
<trkpt lat="31.697053333" lon="34.995906667">
<time>2013-04-01T09:58:51Z</time>
 <fix>none</fix>
 <sat>0</sat>
</trkpt>
<trkpt lat="31.697036667" lon="34.995923333">
<time>2013-04-01T09:58:53Z</time>
 <fix>none</fix>
 <sat>0</sat>
</trkpt>
<trkpt lat="31.697031667" lon="34.995931667">
<time>2013-04-01T09:58:55Z</time>
 <fix>none</fix>
 <sat>0</sat>
</trkpt>
<trkpt lat="31.697020000" lon="34.995948333">
<time>2013-04-01T09:58:57Z</time>
 <fix>none</fix>
 <sat>0</sat>
</trkpt>
<trkpt lat="31.697008333" lon="34.995966667">
<time>2013-04-01T09:58:59Z</time>
 <fix>none</fix>
 <sat>0</sat>
</trkpt>
<trkpt lat="31.696991667" lon="34.995991667">
<time>2013-04-01T09:59:01Z</time>
 <fix>none</fix>
 <sat>0</sat>
</trkpt>
<trkpt lat="31.696985000" lon="34.996000000">
<time>2013-04-01T09:59:03Z</time>
 <fix>none</fix>
 <sat>0</sat>
</trkpt>
<trkpt lat="31.696966667" lon="34.996031667">
<time>2013-04-01T09:59:05Z</time>
 <fix>none</fix>
 <sat>0</sat>
</trkpt>
<trkpt lat="31.696966667" lon="34.996031667">
<time>2013-04-01T09:59:07Z</time>
 <fix>none</fix>
 <sat>0</sat>
</trkpt>
<trkpt lat="31.696951667" lon="34.996066667">
<time>2013-04-01T09:59:09Z</time>
 <fix>none</fix>
 <sat>0</sat>
</trkpt>
<trkpt lat="31.696948333" lon="34.996078333">
<time>2013-04-01T09:59:11Z</time>
 <fix>none</fix>
 <sat>0</sat>
</trkpt>
<trkpt lat="31.696945000" lon="34.996101667">
<time>2013-04-01T09:59:13Z</time>
 <fix>none</fix>
 <sat>0</sat>
</trkpt>
<trkpt lat="31.696943333" lon="34.996126667">
<time>2013-04-01T09:59:15Z</time>
 <fix>none</fix>
 <sat>0</sat>
</trkpt>
<trkpt lat="31.696943333" lon="34.996141667">
<time>2013-04-01T09:59:17Z</time>
 <fix>none</fix>
 <sat>0</sat>
</trkpt>
<trkpt lat="31.696945000" lon="34.996166667">
<time>2013-04-01T09:59:19Z</time>
 <fix>none</fix>
 <sat>0</sat>
</trkpt>
<trkpt lat="31.696946667" lon="34.996190000">
<time>2013-04-01T09:59:21Z</time>
 <fix>none</fix>
 <sat>0</sat>
</trkpt>
<trkpt lat="31.696945000" lon="34.996211667">
<time>2013-04-01T09:59:23Z</time>
 <fix>none</fix>
 <sat>0</sat>
</trkpt>
<trkpt lat="31.696941667" lon="34.996225000">
<time>2013-04-01T09:59:25Z</time>
 <fix>none</fix>
 <sat>0</sat>
</trkpt>
<trkpt lat="31.696936667" lon="34.996246667">
<time>2013-04-01T09:59:27Z</time>
 <fix>none</fix>
 <sat>0</sat>
</trkpt>
<trkpt lat="31.696931667" lon="34.996270000">
<time>2013-04-01T09:59:29Z</time>
 <fix>none</fix>
 <sat>0</sat>
</trkpt>
<trkpt lat="31.696928333" lon="34.996283333">
<time>2013-04-01T09:59:31Z</time>
 <fix>none</fix>
 <sat>0</sat>
</trkpt>
<trkpt lat="31.696915000" lon="34.996318333">
<time>2013-04-01T09:59:33Z</time>
 <fix>none</fix>
 <sat>0</sat>
</trkpt>
<trkpt lat="31.696906667" lon="34.996341667">
<time>2013-04-01T09:59:35Z</time>
 <fix>none</fix>
 <sat>0</sat>
</trkpt>
<trkpt lat="31.696900000" lon="34.996365000">
<time>2013-04-01T09:59:37Z</time>
 <fix>none</fix>
 <sat>0</sat>
</trkpt>
<trkpt lat="31.696901667" lon="34.996388333">
<time>2013-04-01T09:59:39Z</time>
 <fix>none</fix>
 <sat>0</sat>
</trkpt>
<trkpt lat="31.696905000" lon="34.996400000">
<time>2013-04-01T09:59:41Z</time>
 <fix>none</fix>
 <sat>0</sat>
</trkpt>
<trkpt lat="31.696908333" lon="34.996423333">
<time>2013-04-01T09:59:43Z</time>
 <fix>none</fix>
 <sat>0</sat>
</trkpt>
<trkpt lat="31.696911667" lon="34.996458333">
<time>2013-04-01T09:59:45Z</time>
 <fix>none</fix>
 <sat>0</sat>
</trkpt>
<trkpt lat="31.696915000" lon="34.996480000">
<time>2013-04-01T09:59:47Z</time>
 <fix>none</fix>
 <sat>0</sat>
</trkpt>
<trkpt lat="31.696918333" lon="34.996490000">
<time>2013-04-01T09:59:49Z</time>
 <fix>none</fix>
 <sat>0</sat>
</trkpt>
<trkpt lat="31.696916667" lon="34.996508333">
<time>2013-04-01T09:59:51Z</time>
 <fix>none</fix>
 <sat>0</sat>
</trkpt>
<trkpt lat="31.696920000" lon="34.996506667">
<time>2013-04-01T09:59:53Z</time>
 <fix>none</fix>
 <sat>0</sat>
</trkpt>
<trkpt lat="31.696926667" lon="34.996516667">
<time>2013-04-01T09:59:55Z</time>
 <fix>none</fix>
 <sat>0</sat>
</trkpt>
<trkpt lat="31.696931667" lon="34.996560000">
<time>2013-04-01T09:59:57Z</time>
 <fix>none</fix>
 <sat>0</sat>
</trkpt>
<trkpt lat="31.696926667" lon="34.996608333">
<time>2013-04-01T09:59:59Z</time>
 <fix>none</fix>
 <sat>0</sat>
</trkpt>
<trkpt lat="31.696923333" lon="34.996643333">
<time>2013-04-01T10:00:01Z</time>
 <fix>none</fix>
 <sat>0</sat>
</trkpt>
<trkpt lat="31.696923333" lon="34.996646667">
<time>2013-04-01T10:00:03Z</time>
 <fix>none</fix>
 <sat>0</sat>
</trkpt>
<trkpt lat="31.696925000" lon="34.996641667">
<time>2013-04-01T10:00:05Z</time>
 <fix>none</fix>
 <sat>0</sat>
</trkpt>
<trkpt lat="31.696925000" lon="34.996640000">
<time>2013-04-01T10:00:07Z</time>
 <fix>none</fix>
 <sat>0</sat>
</trkpt>
<trkpt lat="31.696923333" lon="34.996663333">
<time>2013-04-01T10:00:09Z</time>
 <fix>none</fix>
 <sat>0</sat>
</trkpt>
<trkpt lat="31.696925000" lon="34.996678333">
<time>2013-04-01T10:00:11Z</time>
 <fix>none</fix>
 <sat>0</sat>
</trkpt>
<trkpt lat="31.696931667" lon="34.996695000">
<time>2013-04-01T10:00:13Z</time>
 <fix>none</fix>
 <sat>0</sat>
</trkpt>
<trkpt lat="31.696933333" lon="34.996715000">
<time>2013-04-01T10:00:15Z</time>
 <fix>none</fix>
 <sat>0</sat>
</trkpt>
<trkpt lat="31.696931667" lon="34.996730000">
<time>2013-04-01T10:00:17Z</time>
 <fix>none</fix>
 <sat>0</sat>
</trkpt>
<trkpt lat="31.696928333" lon="34.996736667">
<time>2013-04-01T10:00:19Z</time>
 <fix>none</fix>
 <sat>0</sat>
</trkpt>
<trkpt lat="31.696925000" lon="34.996775000">
<time>2013-04-01T10:00:21Z</time>
 <fix>none</fix>
 <sat>0</sat>
</trkpt>
<trkpt lat="31.696916667" lon="34.996828333">
<time>2013-04-01T10:00:23Z</time>
 <fix>none</fix>
 <sat>0</sat>
</trkpt>
<trkpt lat="31.696910000" lon="34.996856667">
<time>2013-04-01T10:00:25Z</time>
 <fix>none</fix>
 <sat>0</sat>
</trkpt>
<trkpt lat="31.696901667" lon="34.996916667">
<time>2013-04-01T10:00:27Z</time>
 <fix>none</fix>
 <sat>0</sat>
</trkpt>
<trkpt lat="31.696906667" lon="34.996976667">
<time>2013-04-01T10:00:29Z</time>
 <fix>none</fix>
 <sat>0</sat>
</trkpt>
<trkpt lat="31.696920000" lon="34.997035000">
<time>2013-04-01T10:00:31Z</time>
 <fix>none</fix>
 <sat>0</sat>
</trkpt>
<trkpt lat="31.696931667" lon="34.997115000">
<time>2013-04-01T10:00:33Z</time>
 <fix>none</fix>
 <sat>0</sat>
</trkpt>
<trkpt lat="31.696938333" lon="34.997163333">
<time>2013-04-01T10:00:35Z</time>
 <fix>none</fix>
 <sat>0</sat>
</trkpt>
<trkpt lat="31.696940000" lon="34.997211667">
<time>2013-04-01T10:00:37Z</time>
 <fix>none</fix>
 <sat>0</sat>
</trkpt>
<trkpt lat="31.696936667" lon="34.997261667">
<time>2013-04-01T10:00:39Z</time>
 <fix>none</fix>
 <sat>0</sat>
</trkpt>
<trkpt lat="31.696938333" lon="34.997313333">
<time>2013-04-01T10:00:41Z</time>
 <fix>none</fix>
 <sat>0</sat>
</trkpt>
<trkpt lat="31.696941667" lon="34.997366667">
<time>2013-04-01T10:00:43Z</time>
 <fix>none</fix>
 <sat>0</sat>
</trkpt>
<trkpt lat="31.696945000" lon="34.997415000">
<time>2013-04-01T10:00:45Z</time>
 <fix>none</fix>
 <sat>0</sat>
</trkpt>
<trkpt lat="31.696956667" lon="34.997460000">
<time>2013-04-01T10:00:47Z</time>
 <fix>none</fix>
 <sat>0</sat>
</trkpt>
<trkpt lat="31.696963333" lon="34.997481667">
<time>2013-04-01T10:00:49Z</time>
 <fix>none</fix>
 <sat>0</sat>
</trkpt>
<trkpt lat="31.696968333" lon="34.997523333">
<time>2013-04-01T10:00:51Z</time>
 <fix>none</fix>
 <sat>0</sat>
</trkpt>
<trkpt lat="31.696973333" lon="34.997560000">
<time>2013-04-01T10:00:53Z</time>
 <fix>none</fix>
 <sat>0</sat>
</trkpt>
<trkpt lat="31.696978333" lon="34.997578333">
<time>2013-04-01T10:00:55Z</time>
 <fix>none</fix>
 <sat>0</sat>
</trkpt>
<trkpt lat="31.696986667" lon="34.997568333">
<time>2013-04-01T10:00:57Z</time>
 <fix>none</fix>
 <sat>0</sat>
</trkpt>
<trkpt lat="31.696990000" lon="34.997555000">
<time>2013-04-01T10:00:59Z</time>
 <fix>none</fix>
 <sat>0</sat>
</trkpt>
<trkpt lat="31.696991667" lon="34.997550000">
<time>2013-04-01T10:01:01Z</time>
 <fix>none</fix>
 <sat>0</sat>
</trkpt>
<trkpt lat="31.696991667" lon="34.997545000">
<time>2013-04-01T10:01:03Z</time>
 <fix>none</fix>
 <sat>0</sat>
</trkpt>
<trkpt lat="31.696991667" lon="34.997543333">
<time>2013-04-01T10:01:05Z</time>
 <fix>none</fix>
 <sat>0</sat>
</trkpt>
<trkpt lat="31.696991667" lon="34.997540000">
<time>2013-04-01T10:01:07Z</time>
 <fix>none</fix>
 <sat>0</sat>
</trkpt>
<trkpt lat="31.696990000" lon="34.997541667">
<time>2013-04-01T10:01:09Z</time>
 <fix>none</fix>
 <sat>0</sat>
</trkpt>
<trkpt lat="31.696991667" lon="34.997545000">
<time>2013-04-01T10:01:11Z</time>
 <fix>none</fix>
 <sat>0</sat>
</trkpt>
<trkpt lat="31.696995000" lon="34.997546667">
<time>2013-04-01T10:01:13Z</time>
 <fix>none</fix>
 <sat>0</sat>
</trkpt>
<trkpt lat="31.696993333" lon="34.997548333">
<time>2013-04-01T10:01:15Z</time>
 <fix>none</fix>
 <sat>0</sat>
</trkpt>
<trkpt lat="31.696995000" lon="34.997556667">
<time>2013-04-01T10:01:17Z</time>
 <fix>none</fix>
 <sat>0</sat>
</trkpt>
<trkpt lat="31.696995000" lon="34.997558333">
<time>2013-04-01T10:01:19Z</time>
 <fix>none</fix>
 <sat>0</sat>
</trkpt>
<trkpt lat="31.696995000" lon="34.997561667">
<time>2013-04-01T10:01:21Z</time>
 <fix>none</fix>
 <sat>0</sat>
</trkpt>
<trkpt lat="31.696995000" lon="34.997563333">
<time>2013-04-01T10:01:23Z</time>
 <fix>none</fix>
 <sat>0</sat>
</trkpt>
<trkpt lat="31.696996667" lon="34.997566667">
<time>2013-04-01T10:01:25Z</time>
 <fix>none</fix>
 <sat>0</sat>
</trkpt>
<trkpt lat="31.696996667" lon="34.997566667">
<time>2013-04-01T10:01:27Z</time>
 <fix>none</fix>
 <sat>0</sat>
</trkpt>
<trkpt lat="31.696991667" lon="34.997560000">
<time>2013-04-01T10:01:29Z</time>
 <fix>none</fix>
 <sat>0</sat>
</trkpt>
<trkpt lat="31.696991667" lon="34.997560000">
<time>2013-04-01T10:01:31Z</time>
 <fix>none</fix>
 <sat>0</sat>
</trkpt>
<trkpt lat="31.696988333" lon="34.997561667">
<time>2013-04-01T10:01:33Z</time>
 <fix>none</fix>
 <sat>0</sat>
</trkpt>
<trkpt lat="31.696988333" lon="34.997563333">
<time>2013-04-01T10:01:35Z</time>
 <fix>none</fix>
 <sat>0</sat>
</trkpt>
<trkpt lat="31.696986667" lon="34.997565000">
<time>2013-04-01T10:01:37Z</time>
 <fix>none</fix>
 <sat>0</sat>
</trkpt>
<trkpt lat="31.696988333" lon="34.997566667">
<time>2013-04-01T10:01:39Z</time>
 <fix>none</fix>
 <sat>0</sat>
</trkpt>
<trkpt lat="31.696986667" lon="34.997571667">
<time>2013-04-01T10:01:41Z</time>
 <fix>none</fix>
 <sat>0</sat>
</trkpt>
<trkpt lat="31.696986667" lon="34.997573333">
<time>2013-04-01T10:01:43Z</time>
 <fix>none</fix>
 <sat>0</sat>
</trkpt>
<trkpt lat="31.696988333" lon="34.997578333">
<time>2013-04-01T10:01:45Z</time>
 <fix>none</fix>
 <sat>0</sat>
</trkpt>
<trkpt lat="31.696986667" lon="34.997578333">
<time>2013-04-01T10:01:47Z</time>
 <fix>none</fix>
 <sat>0</sat>
</trkpt>
<trkpt lat="31.696986667" lon="34.997578333">
<time>2013-04-01T10:01:49Z</time>
 <fix>none</fix>
 <sat>0</sat>
</trkpt>
<trkpt lat="31.696986667" lon="34.997580000">
<time>2013-04-01T10:01:51Z</time>
 <fix>none</fix>
 <sat>0</sat>
</trkpt>
<trkpt lat="31.696985000" lon="34.997580000">
<time>2013-04-01T10:01:53Z</time>
 <fix>none</fix>
 <sat>0</sat>
</trkpt>
<trkpt lat="31.696985000" lon="34.997578333">
<time>2013-04-01T10:01:55Z</time>
 <fix>none</fix>
 <sat>0</sat>
</trkpt>
<trkpt lat="31.696983333" lon="34.997578333">
<time>2013-04-01T10:01:57Z</time>
 <fix>none</fix>
 <sat>0</sat>
</trkpt>
<trkpt lat="31.696983333" lon="34.997578333">
<time>2013-04-01T10:01:59Z</time>
 <fix>none</fix>
 <sat>0</sat>
</trkpt>
<trkpt lat="31.696983333" lon="34.997578333">
<time>2013-04-01T10:02:01Z</time>
 <fix>none</fix>
 <sat>0</sat>
</trkpt>
<trkpt lat="31.696981667" lon="34.997580000">
<time>2013-04-01T10:02:03Z</time>
 <fix>none</fix>
 <sat>0</sat>
</trkpt>
<trkpt lat="31.696983333" lon="34.997583333">
<time>2013-04-01T10:02:05Z</time>
 <fix>none</fix>
 <sat>0</sat>
</trkpt>
<trkpt lat="31.696981667" lon="34.997588333">
<time>2013-04-01T10:02:07Z</time>
 <fix>none</fix>
 <sat>0</sat>
</trkpt>
<trkpt lat="31.696976667" lon="34.997595000">
<time>2013-04-01T10:02:09Z</time>
 <fix>none</fix>
 <sat>0</sat>
</trkpt>
<trkpt lat="31.696975000" lon="34.997628333">
<time>2013-04-01T10:02:11Z</time>
 <fix>none</fix>
 <sat>0</sat>
</trkpt>
<trkpt lat="31.696971667" lon="34.997666667">
<time>2013-04-01T10:02:13Z</time>
 <fix>none</fix>
 <sat>0</sat>
</trkpt>
<trkpt lat="31.696973333" lon="34.997710000">
<time>2013-04-01T10:02:15Z</time>
 <fix>none</fix>
 <sat>0</sat>
</trkpt>
<trkpt lat="31.696985000" lon="34.997755000">
<time>2013-04-01T10:02:17Z</time>
 <fix>none</fix>
 <sat>0</sat>
</trkpt>
<trkpt lat="31.696990000" lon="34.997778333">
<time>2013-04-01T10:02:19Z</time>
 <fix>none</fix>
 <sat>0</sat>
</trkpt>
<trkpt lat="31.696996667" lon="34.997825000">
<time>2013-04-01T10:02:21Z</time>
 <fix>none</fix>
 <sat>0</sat>
</trkpt>
<trkpt lat="31.696993333" lon="34.997903333">
<time>2013-04-01T10:02:23Z</time>
 <fix>none</fix>
 <sat>0</sat>
</trkpt>
<trkpt lat="31.696996667" lon="34.997970000">
<time>2013-04-01T10:02:25Z</time>
 <fix>none</fix>
 <sat>0</sat>
</trkpt>
<trkpt lat="31.697016667" lon="34.998033333">
<time>2013-04-01T10:02:27Z</time>
 <fix>none</fix>
 <sat>0</sat>
</trkpt>
<trkpt lat="31.697045000" lon="34.998083333">
<time>2013-04-01T10:02:29Z</time>
 <fix>none</fix>
 <sat>0</sat>
</trkpt>
<trkpt lat="31.697073333" lon="34.998145000">
<time>2013-04-01T10:02:31Z</time>
 <fix>none</fix>
 <sat>0</sat>
</trkpt>
<trkpt lat="31.697078333" lon="34.998218333">
<time>2013-04-01T10:02:33Z</time>
 <fix>none</fix>
 <sat>0</sat>
</trkpt>
<trkpt lat="31.697060000" lon="34.998291667">
<time>2013-04-01T10:02:35Z</time>
 <fix>none</fix>
 <sat>0</sat>
</trkpt>
<trkpt lat="31.697030000" lon="34.998378333">
<time>2013-04-01T10:02:37Z</time>
 <fix>none</fix>
 <sat>0</sat>
</trkpt>
<trkpt lat="31.696981667" lon="34.998481667">
<time>2013-04-01T10:02:39Z</time>
 <fix>none</fix>
 <sat>0</sat>
</trkpt>
<trkpt lat="31.696928333" lon="34.998605000">
<time>2013-04-01T10:02:41Z</time>
 <fix>none</fix>
 <sat>0</sat>
</trkpt>
<trkpt lat="31.696905000" lon="34.998673333">
<time>2013-04-01T10:02:43Z</time>
 <fix>none</fix>
 <sat>0</sat>
</trkpt>
<trkpt lat="31.696850000" lon="34.998816667">
<time>2013-04-01T10:02:45Z</time>
 <fix>none</fix>
 <sat>0</sat>
</trkpt>
<trkpt lat="31.696786667" lon="34.998945000">
<time>2013-04-01T10:02:47Z</time>
 <fix>none</fix>
 <sat>0</sat>
</trkpt>
<trkpt lat="31.696731667" lon="34.999116667">
<time>2013-04-01T10:02:49Z</time>
 <fix>none</fix>
 <sat>0</sat>
</trkpt>
<trkpt lat="31.696731667" lon="34.999221667">
<time>2013-04-01T10:02:51Z</time>
 <fix>none</fix>
 <sat>0</sat>
</trkpt>
<trkpt lat="31.696745000" lon="34.999341667">
<time>2013-04-01T10:02:53Z</time>
 <fix>none</fix>
 <sat>0</sat>
</trkpt>
<trkpt lat="31.696760000" lon="34.999463333">
<time>2013-04-01T10:02:55Z</time>
 <fix>none</fix>
 <sat>0</sat>
</trkpt>
<trkpt lat="31.696791667" lon="34.999543333">
<time>2013-04-01T10:02:57Z</time>
 <fix>none</fix>
 <sat>0</sat>
</trkpt>
<trkpt lat="31.696843333" lon="34.999585000">
<time>2013-04-01T10:02:59Z</time>
 <fix>none</fix>
 <sat>0</sat>
</trkpt>
<trkpt lat="31.696893333" lon="34.999638333">
<time>2013-04-01T10:03:01Z</time>
 <fix>none</fix>
 <sat>0</sat>
</trkpt>
<trkpt lat="31.696913333" lon="34.999710000">
<time>2013-04-01T10:03:03Z</time>
 <fix>none</fix>
 <sat>0</sat>
</trkpt>
<trkpt lat="31.696905000" lon="34.999743333">
<time>2013-04-01T10:03:05Z</time>
 <fix>none</fix>
 <sat>0</sat>
</trkpt>
<trkpt lat="31.696863333" lon="34.999815000">
<time>2013-04-01T10:03:07Z</time>
 <fix>none</fix>
 <sat>0</sat>
</trkpt>
<trkpt lat="31.696813333" lon="34.999893333">
<time>2013-04-01T10:03:09Z</time>
 <fix>none</fix>
 <sat>0</sat>
</trkpt>
<trkpt lat="31.696740000" lon="35.000000000">
<time>2013-04-01T10:03:11Z</time>
 <fix>none</fix>
 <sat>0</sat>
</trkpt>
<trkpt lat="31.696698333" lon="35.000070000">
<time>2013-04-01T10:03:13Z</time>
 <fix>none</fix>
 <sat>0</sat>
</trkpt>
<trkpt lat="31.696678333" lon="35.000146667">
<time>2013-04-01T10:03:15Z</time>
 <fix>none</fix>
 <sat>0</sat>
</trkpt>
<trkpt lat="31.696670000" lon="35.000223333">
<time>2013-04-01T10:03:17Z</time>
 <fix>none</fix>
 <sat>0</sat>
</trkpt>
<trkpt lat="31.696656667" lon="35.000328333">
<time>2013-04-01T10:03:19Z</time>
 <fix>none</fix>
 <sat>0</sat>
</trkpt>
<trkpt lat="31.696658333" lon="35.000458333">
<time>2013-04-01T10:03:21Z</time>
 <fix>none</fix>
 <sat>0</sat>
</trkpt>
<trkpt lat="31.696665000" lon="35.000601667">
<time>2013-04-01T10:03:23Z</time>
 <fix>none</fix>
 <sat>0</sat>
</trkpt>
<trkpt lat="31.696661667" lon="35.000743333">
<time>2013-04-01T10:03:25Z</time>
 <fix>none</fix>
 <sat>0</sat>
</trkpt>
<trkpt lat="31.696658333" lon="35.000806667">
<time>2013-04-01T10:03:27Z</time>
 <fix>none</fix>
 <sat>0</sat>
</trkpt>
<trkpt lat="31.696645000" lon="35.000916667">
<time>2013-04-01T10:03:29Z</time>
 <fix>none</fix>
 <sat>0</sat>
</trkpt>
<trkpt lat="31.696636667" lon="35.001021667">
<time>2013-04-01T10:03:31Z</time>
 <fix>none</fix>
 <sat>0</sat>
</trkpt>
<trkpt lat="31.696646667" lon="35.001183333">
<time>2013-04-01T10:03:33Z</time>
 <fix>none</fix>
 <sat>0</sat>
</trkpt>
<trkpt lat="31.696653333" lon="35.001270000">
<time>2013-04-01T10:03:35Z</time>
 <fix>none</fix>
 <sat>0</sat>
</trkpt>
<trkpt lat="31.696630000" lon="35.001353333">
<time>2013-04-01T10:03:37Z</time>
 <fix>none</fix>
 <sat>0</sat>
</trkpt>
<trkpt lat="31.696613333" lon="35.001428333">
<time>2013-04-01T10:03:39Z</time>
 <fix>none</fix>
 <sat>0</sat>
</trkpt>
<trkpt lat="31.696618333" lon="35.001503333">
<time>2013-04-01T10:03:41Z</time>
 <fix>none</fix>
 <sat>0</sat>
</trkpt>
<trkpt lat="31.696630000" lon="35.001570000">
<time>2013-04-01T10:03:43Z</time>
 <fix>none</fix>
 <sat>0</sat>
</trkpt>
<trkpt lat="31.696631667" lon="35.001630000">
<time>2013-04-01T10:03:45Z</time>
 <fix>none</fix>
 <sat>0</sat>
</trkpt>
<trkpt lat="31.696628333" lon="35.001698333">
<time>2013-04-01T10:03:47Z</time>
 <fix>none</fix>
 <sat>0</sat>
</trkpt>
<trkpt lat="31.696623333" lon="35.001770000">
<time>2013-04-01T10:03:49Z</time>
 <fix>none</fix>
 <sat>0</sat>
</trkpt>
<trkpt lat="31.696618333" lon="35.001806667">
<time>2013-04-01T10:03:51Z</time>
 <fix>none</fix>
 <sat>0</sat>
</trkpt>
<trkpt lat="31.696608333" lon="35.001873333">
<time>2013-04-01T10:03:53Z</time>
 <fix>none</fix>
 <sat>0</sat>
</trkpt>
<trkpt lat="31.696603333" lon="35.001948333">
<time>2013-04-01T10:03:55Z</time>
 <fix>none</fix>
 <sat>0</sat>
</trkpt>
<trkpt lat="31.696618333" lon="35.002078333">
<time>2013-04-01T10:03:57Z</time>
 <fix>none</fix>
 <sat>0</sat>
</trkpt>
<trkpt lat="31.696626667" lon="35.002158333">
<time>2013-04-01T10:03:59Z</time>
 <fix>none</fix>
 <sat>0</sat>
</trkpt>
<trkpt lat="31.696618333" lon="35.002260000">
<time>2013-04-01T10:04:01Z</time>
 <fix>none</fix>
 <sat>0</sat>
</trkpt>
<trkpt lat="31.696591667" lon="35.002366667">
<time>2013-04-01T10:04:03Z</time>
 <fix>none</fix>
 <sat>0</sat>
</trkpt>
<trkpt lat="31.696561667" lon="35.002466667">
<time>2013-04-01T10:04:05Z</time>
 <fix>none</fix>
 <sat>0</sat>
</trkpt>
<trkpt lat="31.696535000" lon="35.002560000">
<time>2013-04-01T10:04:07Z</time>
 <fix>none</fix>
 <sat>0</sat>
</trkpt>
<trkpt lat="31.696515000" lon="35.002638333">
<time>2013-04-01T10:04:09Z</time>
 <fix>none</fix>
 <sat>0</sat>
</trkpt>
<trkpt lat="31.696470000" lon="35.002696667">
<time>2013-04-01T10:04:11Z</time>
 <fix>none</fix>
 <sat>0</sat>
</trkpt>
<trkpt lat="31.696440000" lon="35.002721667">
<time>2013-04-01T10:04:13Z</time>
 <fix>none</fix>
 <sat>0</sat>
</trkpt>
<trkpt lat="31.696366667" lon="35.002768333">
<time>2013-04-01T10:04:15Z</time>
 <fix>none</fix>
 <sat>0</sat>
</trkpt>
<trkpt lat="31.696281667" lon="35.002815000">
<time>2013-04-01T10:04:17Z</time>
 <fix>none</fix>
 <sat>0</sat>
</trkpt>
<trkpt lat="31.696195000" lon="35.002873333">
<time>2013-04-01T10:04:19Z</time>
 <fix>none</fix>
 <sat>0</sat>
</trkpt>
<trkpt lat="31.696076667" lon="35.002981667">
<time>2013-04-01T10:04:21Z</time>
 <fix>none</fix>
 <sat>0</sat>
</trkpt>
<trkpt lat="31.696005000" lon="35.003071667">
<time>2013-04-01T10:04:23Z</time>
 <fix>none</fix>
 <sat>0</sat>
</trkpt>
<trkpt lat="31.695950000" lon="35.003178333">
<time>2013-04-01T10:04:25Z</time>
 <fix>none</fix>
 <sat>0</sat>
</trkpt>
<trkpt lat="31.695915000" lon="35.003291667">
<time>2013-04-01T10:04:27Z</time>
 <fix>none</fix>
 <sat>0</sat>
</trkpt>
<trkpt lat="31.695881667" lon="35.003395000">
<time>2013-04-01T10:04:29Z</time>
 <fix>none</fix>
 <sat>0</sat>
</trkpt>
<trkpt lat="31.695870000" lon="35.003498333">
<time>2013-04-01T10:04:31Z</time>
 <fix>none</fix>
 <sat>0</sat>
</trkpt>
<trkpt lat="31.695903333" lon="35.003596667">
<time>2013-04-01T10:04:33Z</time>
 <fix>none</fix>
 <sat>0</sat>
</trkpt>
<trkpt lat="31.695955000" lon="35.003681667">
<time>2013-04-01T10:04:35Z</time>
 <fix>none</fix>
 <sat>0</sat>
</trkpt>
<trkpt lat="31.695983333" lon="35.003716667">
<time>2013-04-01T10:04:37Z</time>
 <fix>none</fix>
 <sat>0</sat>
</trkpt>
<trkpt lat="31.696036667" lon="35.003790000">
<time>2013-04-01T10:04:39Z</time>
 <fix>none</fix>
 <sat>0</sat>
</trkpt>
<trkpt lat="31.696086667" lon="35.003870000">
<time>2013-04-01T10:04:41Z</time>
 <fix>none</fix>
 <sat>0</sat>
</trkpt>
<trkpt lat="31.696161667" lon="35.003993333">
<time>2013-04-01T10:04:43Z</time>
 <fix>none</fix>
 <sat>0</sat>
</trkpt>
<trkpt lat="31.696216667" lon="35.004056667">
<time>2013-04-01T10:04:45Z</time>
 <fix>none</fix>
 <sat>0</sat>
</trkpt>
<trkpt lat="31.696268333" lon="35.004090000">
<time>2013-04-01T10:04:47Z</time>
 <fix>none</fix>
 <sat>0</sat>
</trkpt>
<trkpt lat="31.696320000" lon="35.004123333">
<time>2013-04-01T10:04:49Z</time>
 <fix>none</fix>
 <sat>0</sat>
</trkpt>
<trkpt lat="31.696366667" lon="35.004153333">
<time>2013-04-01T10:04:51Z</time>
 <fix>none</fix>
 <sat>0</sat>
</trkpt>
<trkpt lat="31.696418333" lon="35.004198333">
<time>2013-04-01T10:04:53Z</time>
 <fix>none</fix>
 <sat>0</sat>
</trkpt>
<trkpt lat="31.696478333" lon="35.004246667">
<time>2013-04-01T10:04:55Z</time>
 <fix>none</fix>
 <sat>0</sat>
</trkpt>
<trkpt lat="31.696536667" lon="35.004296667">
<time>2013-04-01T10:04:57Z</time>
 <fix>none</fix>
 <sat>0</sat>
</trkpt>
<trkpt lat="31.696570000" lon="35.004320000">
<time>2013-04-01T10:04:59Z</time>
 <fix>none</fix>
 <sat>0</sat>
</trkpt>
<trkpt lat="31.696643333" lon="35.004368333">
<time>2013-04-01T10:05:01Z</time>
 <fix>none</fix>
 <sat>0</sat>
</trkpt>
<trkpt lat="31.696763333" lon="35.004428333">
<time>2013-04-01T10:05:03Z</time>
 <fix>none</fix>
 <sat>0</sat>
</trkpt>
<trkpt lat="31.696841667" lon="35.004470000">
<time>2013-04-01T10:05:05Z</time>
 <fix>none</fix>
 <sat>0</sat>
</trkpt>
<trkpt lat="31.696930000" lon="35.004511667">
<time>2013-04-01T10:05:07Z</time>
 <fix>none</fix>
 <sat>0</sat>
</trkpt>
<trkpt lat="31.697021667" lon="35.004555000">
<time>2013-04-01T10:05:09Z</time>
 <fix>none</fix>
 <sat>0</sat>
</trkpt>
<trkpt lat="31.697116667" lon="35.004591667">
<time>2013-04-01T10:05:11Z</time>
 <fix>none</fix>
 <sat>0</sat>
</trkpt>
<trkpt lat="31.697211667" lon="35.004615000">
<time>2013-04-01T10:05:13Z</time>
 <fix>none</fix>
 <sat>0</sat>
</trkpt>
<trkpt lat="31.697308333" lon="35.004631667">
<time>2013-04-01T10:05:15Z</time>
 <fix>none</fix>
 <sat>0</sat>
</trkpt>
<trkpt lat="31.697405000" lon="35.004645000">
<time>2013-04-01T10:05:17Z</time>
 <fix>none</fix>
 <sat>0</sat>
</trkpt>
<trkpt lat="31.697498333" lon="35.004661667">
<time>2013-04-01T10:05:19Z</time>
 <fix>none</fix>
 <sat>0</sat>
</trkpt>
<trkpt lat="31.697543333" lon="35.004668333">
<time>2013-04-01T10:05:21Z</time>
 <fix>none</fix>
 <sat>0</sat>
</trkpt>
<trkpt lat="31.697630000" lon="35.004688333">
<time>2013-04-01T10:05:23Z</time>
 <fix>none</fix>
 <sat>0</sat>
</trkpt>
<trkpt lat="31.697713333" lon="35.004716667">
<time>2013-04-01T10:05:25Z</time>
 <fix>none</fix>
 <sat>0</sat>
</trkpt>
<trkpt lat="31.697833333" lon="35.004755000">
<time>2013-04-01T10:05:27Z</time>
 <fix>none</fix>
 <sat>0</sat>
</trkpt>
<trkpt lat="31.697910000" lon="35.004783333">
<time>2013-04-01T10:05:29Z</time>
 <fix>none</fix>
 <sat>0</sat>
</trkpt>
<trkpt lat="31.697983333" lon="35.004800000">
<time>2013-04-01T10:05:31Z</time>
 <fix>none</fix>
 <sat>0</sat>
</trkpt>
<trkpt lat="31.698048333" lon="35.004805000">
<time>2013-04-01T10:05:33Z</time>
 <fix>none</fix>
 <sat>0</sat>
</trkpt>
<trkpt lat="31.698101667" lon="35.004808333">
<time>2013-04-01T10:05:35Z</time>
 <fix>none</fix>
 <sat>0</sat>
</trkpt>
<trkpt lat="31.698158333" lon="35.004820000">
<time>2013-04-01T10:05:37Z</time>
 <fix>none</fix>
 <sat>0</sat>
</trkpt>
<trkpt lat="31.698221667" lon="35.004833333">
<time>2013-04-01T10:05:39Z</time>
 <fix>none</fix>
 <sat>0</sat>
</trkpt>
<trkpt lat="31.698290000" lon="35.004838333">
<time>2013-04-01T10:05:41Z</time>
 <fix>none</fix>
 <sat>0</sat>
</trkpt>
<trkpt lat="31.698358333" lon="35.004840000">
<time>2013-04-01T10:05:43Z</time>
 <fix>none</fix>
 <sat>0</sat>
</trkpt>
<trkpt lat="31.698393333" lon="35.004836667">
<time>2013-04-01T10:05:45Z</time>
 <fix>none</fix>
 <sat>0</sat>
</trkpt>
<trkpt lat="31.698460000" lon="35.004830000">
<time>2013-04-01T10:05:47Z</time>
 <fix>none</fix>
 <sat>0</sat>
</trkpt>
<trkpt lat="31.698521667" lon="35.004828333">
<time>2013-04-01T10:05:49Z</time>
 <fix>none</fix>
 <sat>0</sat>
</trkpt>
<trkpt lat="31.698616667" lon="35.004813333">
<time>2013-04-01T10:05:51Z</time>
 <fix>none</fix>
 <sat>0</sat>
</trkpt>
<trkpt lat="31.698671667" lon="35.004793333">
<time>2013-04-01T10:05:53Z</time>
 <fix>none</fix>
 <sat>0</sat>
</trkpt>
<trkpt lat="31.698706667" lon="35.004776667">
<time>2013-04-01T10:05:55Z</time>
 <fix>none</fix>
 <sat>0</sat>
</trkpt>
<trkpt lat="31.698731667" lon="35.004780000">
<time>2013-04-01T10:05:57Z</time>
 <fix>none</fix>
 <sat>0</sat>
</trkpt>
<trkpt lat="31.698755000" lon="35.004808333">
<time>2013-04-01T10:05:59Z</time>
 <fix>none</fix>
 <sat>0</sat>
</trkpt>
<trkpt lat="31.698781667" lon="35.004845000">
<time>2013-04-01T10:06:01Z</time>
 <fix>none</fix>
 <sat>0</sat>
</trkpt>
<trkpt lat="31.698821667" lon="35.004875000">
<time>2013-04-01T10:06:03Z</time>
 <fix>none</fix>
 <sat>0</sat>
</trkpt>
<trkpt lat="31.698866667" lon="35.004890000">
<time>2013-04-01T10:06:05Z</time>
 <fix>none</fix>
 <sat>0</sat>
</trkpt>
<trkpt lat="31.698888333" lon="35.004888333">
<time>2013-04-01T10:06:07Z</time>
 <fix>none</fix>
 <sat>0</sat>
</trkpt>
<trkpt lat="31.698935000" lon="35.004873333">
<time>2013-04-01T10:06:09Z</time>
 <fix>none</fix>
 <sat>0</sat>
</trkpt>
<trkpt lat="31.698983333" lon="35.004850000">
<time>2013-04-01T10:06:11Z</time>
 <fix>none</fix>
 <sat>0</sat>
</trkpt>
<trkpt lat="31.699061667" lon="35.004828333">
<time>2013-04-01T10:06:13Z</time>
 <fix>none</fix>
 <sat>0</sat>
</trkpt>
<trkpt lat="31.699116667" lon="35.004818333">
<time>2013-04-01T10:06:15Z</time>
 <fix>none</fix>
 <sat>0</sat>
</trkpt>
<trkpt lat="31.699170000" lon="35.004815000">
<time>2013-04-01T10:06:17Z</time>
 <fix>none</fix>
 <sat>0</sat>
</trkpt>
<trkpt lat="31.699221667" lon="35.004816667">
<time>2013-04-01T10:06:19Z</time>
 <fix>none</fix>
 <sat>0</sat>
</trkpt>
<trkpt lat="31.699273333" lon="35.004830000">
<time>2013-04-01T10:06:21Z</time>
 <fix>none</fix>
 <sat>0</sat>
</trkpt>
<trkpt lat="31.699323333" lon="35.004838333">
<time>2013-04-01T10:06:23Z</time>
 <fix>none</fix>
 <sat>0</sat>
</trkpt>
<trkpt lat="31.699373333" lon="35.004825000">
<time>2013-04-01T10:06:25Z</time>
 <fix>none</fix>
 <sat>0</sat>
</trkpt>
<trkpt lat="31.699425000" lon="35.004805000">
<time>2013-04-01T10:06:27Z</time>
 <fix>none</fix>
 <sat>0</sat>
</trkpt>
<trkpt lat="31.699473333" lon="35.004801667">
<time>2013-04-01T10:06:29Z</time>
 <fix>none</fix>
 <sat>0</sat>
</trkpt>
<trkpt lat="31.699496667" lon="35.004801667">
<time>2013-04-01T10:06:31Z</time>
 <fix>none</fix>
 <sat>0</sat>
</trkpt>
<trkpt lat="31.699550000" lon="35.004801667">
<time>2013-04-01T10:06:33Z</time>
 <fix>none</fix>
 <sat>0</sat>
</trkpt>
<trkpt lat="31.699600000" lon="35.004800000">
<time>2013-04-01T10:06:35Z</time>
 <fix>none</fix>
 <sat>0</sat>
</trkpt>
<trkpt lat="31.699673333" lon="35.004801667">
<time>2013-04-01T10:06:37Z</time>
 <fix>none</fix>
 <sat>0</sat>
</trkpt>
<trkpt lat="31.699726667" lon="35.004791667">
<time>2013-04-01T10:06:39Z</time>
 <fix>none</fix>
 <sat>0</sat>
</trkpt>
<trkpt lat="31.699778333" lon="35.004788333">
<time>2013-04-01T10:06:41Z</time>
 <fix>none</fix>
 <sat>0</sat>
</trkpt>
<trkpt lat="31.699831667" lon="35.004790000">
<time>2013-04-01T10:06:43Z</time>
 <fix>none</fix>
 <sat>0</sat>
</trkpt>
<trkpt lat="31.699885000" lon="35.004786667">
<time>2013-04-01T10:06:45Z</time>
 <fix>none</fix>
 <sat>0</sat>
</trkpt>
<trkpt lat="31.699940000" lon="35.004778333">
<time>2013-04-01T10:06:47Z</time>
 <fix>none</fix>
 <sat>0</sat>
</trkpt>
<trkpt lat="31.699991667" lon="35.004773333">
<time>2013-04-01T10:06:49Z</time>
 <fix>none</fix>
 <sat>0</sat>
</trkpt>
<trkpt lat="31.700043333" lon="35.004766667">
<time>2013-04-01T10:06:51Z</time>
 <fix>none</fix>
 <sat>0</sat>
</trkpt>
<trkpt lat="31.700070000" lon="35.004760000">
<time>2013-04-01T10:06:53Z</time>
 <fix>none</fix>
 <sat>0</sat>
</trkpt>
<trkpt lat="31.700121667" lon="35.004740000">
<time>2013-04-01T10:06:55Z</time>
 <fix>none</fix>
 <sat>0</sat>
</trkpt>
<trkpt lat="31.700198333" lon="35.004705000">
<time>2013-04-01T10:06:57Z</time>
 <fix>none</fix>
 <sat>0</sat>
</trkpt>
<trkpt lat="31.700248333" lon="35.004680000">
<time>2013-04-01T10:06:59Z</time>
 <fix>none</fix>
 <sat>0</sat>
</trkpt>
<trkpt lat="31.700298333" lon="35.004651667">
<time>2013-04-01T10:07:01Z</time>
 <fix>none</fix>
 <sat>0</sat>
</trkpt>
<trkpt lat="31.700346667" lon="35.004623333">
<time>2013-04-01T10:07:03Z</time>
 <fix>none</fix>
 <sat>0</sat>
</trkpt>
<trkpt lat="31.700396667" lon="35.004593333">
<time>2013-04-01T10:07:05Z</time>
 <fix>none</fix>
 <sat>0</sat>
</trkpt>
<trkpt lat="31.700450000" lon="35.004565000">
<time>2013-04-01T10:07:07Z</time>
 <fix>none</fix>
 <sat>0</sat>
</trkpt>
<trkpt lat="31.700503333" lon="35.004538333">
<time>2013-04-01T10:07:09Z</time>
 <fix>none</fix>
 <sat>0</sat>
</trkpt>
<trkpt lat="31.700558333" lon="35.004511667">
<time>2013-04-01T10:07:11Z</time>
 <fix>none</fix>
 <sat>0</sat>
</trkpt>
<trkpt lat="31.700615000" lon="35.004488333">
<time>2013-04-01T10:07:13Z</time>
 <fix>none</fix>
 <sat>0</sat>
</trkpt>
<trkpt lat="31.700643333" lon="35.004476667">
<time>2013-04-01T10:07:15Z</time>
 <fix>none</fix>
 <sat>0</sat>
</trkpt>
<trkpt lat="31.700693333" lon="35.004440000">
<time>2013-04-01T10:07:17Z</time>
 <fix>none</fix>
 <sat>0</sat>
</trkpt>
<trkpt lat="31.700750000" lon="35.004403333">
<time>2013-04-01T10:07:19Z</time>
 <fix>none</fix>
 <sat>0</sat>
</trkpt>
<trkpt lat="31.700836667" lon="35.004366667">
<time>2013-04-01T10:07:21Z</time>
 <fix>none</fix>
 <sat>0</sat>
</trkpt>
<trkpt lat="31.700898333" lon="35.004350000">
<time>2013-04-01T10:07:23Z</time>
 <fix>none</fix>
 <sat>0</sat>
</trkpt>
<trkpt lat="31.700961667" lon="35.004336667">
<time>2013-04-01T10:07:25Z</time>
 <fix>none</fix>
 <sat>0</sat>
</trkpt>
<trkpt lat="31.701030000" lon="35.004321667">
<time>2013-04-01T10:07:27Z</time>
 <fix>none</fix>
 <sat>0</sat>
</trkpt>
<trkpt lat="31.701101667" lon="35.004303333">
<time>2013-04-01T10:07:29Z</time>
 <fix>none</fix>
 <sat>0</sat>
</trkpt>
<trkpt lat="31.701170000" lon="35.004293333">
<time>2013-04-01T10:07:31Z</time>
 <fix>none</fix>
 <sat>0</sat>
</trkpt>
<trkpt lat="31.701236667" lon="35.004286667">
<time>2013-04-01T10:07:33Z</time>
 <fix>none</fix>
 <sat>0</sat>
</trkpt>
<trkpt lat="31.701306667" lon="35.004271667">
<time>2013-04-01T10:07:35Z</time>
 <fix>none</fix>
 <sat>0</sat>
</trkpt>
<trkpt lat="31.701378333" lon="35.004246667">
<time>2013-04-01T10:07:37Z</time>
 <fix>none</fix>
 <sat>0</sat>
</trkpt>
<trkpt lat="31.701413333" lon="35.004233333">
<time>2013-04-01T10:07:39Z</time>
 <fix>none</fix>
 <sat>0</sat>
</trkpt>
<trkpt lat="31.701483333" lon="35.004210000">
<time>2013-04-01T10:07:41Z</time>
 <fix>none</fix>
 <sat>0</sat>
</trkpt>
<trkpt lat="31.701558333" lon="35.004176667">
<time>2013-04-01T10:07:43Z</time>
 <fix>none</fix>
 <sat>0</sat>
</trkpt>
<trkpt lat="31.701631667" lon="35.004138333">
<time>2013-04-01T10:07:45Z</time>
 <fix>none</fix>
 <sat>0</sat>
</trkpt>
<trkpt lat="31.701740000" lon="35.004075000">
<time>2013-04-01T10:07:47Z</time>
 <fix>none</fix>
 <sat>0</sat>
</trkpt>
<trkpt lat="31.701801667" lon="35.004026667">
<time>2013-04-01T10:07:49Z</time>
 <fix>none</fix>
 <sat>0</sat>
</trkpt>
<trkpt lat="31.701861667" lon="35.003968333">
<time>2013-04-01T10:07:51Z</time>
 <fix>none</fix>
 <sat>0</sat>
</trkpt>
<trkpt lat="31.701921667" lon="35.003903333">
<time>2013-04-01T10:07:53Z</time>
 <fix>none</fix>
 <sat>0</sat>
</trkpt>
<trkpt lat="31.701980000" lon="35.003831667">
<time>2013-04-01T10:07:55Z</time>
 <fix>none</fix>
 <sat>0</sat>
</trkpt>
<trkpt lat="31.702040000" lon="35.003758333">
<time>2013-04-01T10:07:57Z</time>
 <fix>none</fix>
 <sat>0</sat>
</trkpt>
<trkpt lat="31.702105000" lon="35.003680000">
<time>2013-04-01T10:07:59Z</time>
 <fix>none</fix>
 <sat>0</sat>
</trkpt>
<trkpt lat="31.702140000" lon="35.003638333">
<time>2013-04-01T10:08:01Z</time>
 <fix>none</fix>
 <sat>0</sat>
</trkpt>
<trkpt lat="31.702211667" lon="35.003555000">
<time>2013-04-01T10:08:03Z</time>
 <fix>none</fix>
 <sat>0</sat>
</trkpt>
<trkpt lat="31.702278333" lon="35.003478333">
<time>2013-04-01T10:08:05Z</time>
 <fix>none</fix>
 <sat>0</sat>
</trkpt>
<trkpt lat="31.702338333" lon="35.003406667">
<time>2013-04-01T10:08:07Z</time>
 <fix>none</fix>
 <sat>0</sat>
</trkpt>
<trkpt lat="31.702428333" lon="35.003305000">
<time>2013-04-01T10:08:09Z</time>
 <fix>none</fix>
 <sat>0</sat>
</trkpt>
<trkpt lat="31.702488333" lon="35.003248333">
<time>2013-04-01T10:08:11Z</time>
 <fix>none</fix>
 <sat>0</sat>
</trkpt>
<trkpt lat="31.702548333" lon="35.003200000">
<time>2013-04-01T10:08:13Z</time>
 <fix>none</fix>
 <sat>0</sat>
</trkpt>
<trkpt lat="31.702608333" lon="35.003156667">
<time>2013-04-01T10:08:15Z</time>
 <fix>none</fix>
 <sat>0</sat>
</trkpt>
<trkpt lat="31.702665000" lon="35.003118333">
<time>2013-04-01T10:08:17Z</time>
 <fix>none</fix>
 <sat>0</sat>
</trkpt>
<trkpt lat="31.702718333" lon="35.003080000">
<time>2013-04-01T10:08:19Z</time>
 <fix>none</fix>
 <sat>0</sat>
</trkpt>
<trkpt lat="31.702766667" lon="35.003041667">
<time>2013-04-01T10:08:21Z</time>
 <fix>none</fix>
 <sat>0</sat>
</trkpt>
<trkpt lat="31.702813333" lon="35.002995000">
<time>2013-04-01T10:08:23Z</time>
 <fix>none</fix>
 <sat>0</sat>
</trkpt>
<trkpt lat="31.702835000" lon="35.002968333">
<time>2013-04-01T10:08:25Z</time>
 <fix>none</fix>
 <sat>0</sat>
</trkpt>
<trkpt lat="31.702868333" lon="35.002910000">
<time>2013-04-01T10:08:27Z</time>
 <fix>none</fix>
 <sat>0</sat>
</trkpt>
<trkpt lat="31.702893333" lon="35.002846667">
<time>2013-04-01T10:08:29Z</time>
 <fix>none</fix>
 <sat>0</sat>
</trkpt>
<trkpt lat="31.702928333" lon="35.002753333">
<time>2013-04-01T10:08:31Z</time>
 <fix>none</fix>
 <sat>0</sat>
</trkpt>
<trkpt lat="31.702951667" lon="35.002693333">
<time>2013-04-01T10:08:33Z</time>
 <fix>none</fix>
 <sat>0</sat>
</trkpt>
<trkpt lat="31.702970000" lon="35.002633333">
<time>2013-04-01T10:08:35Z</time>
 <fix>none</fix>
 <sat>0</sat>
</trkpt>
<trkpt lat="31.702998333" lon="35.002578333">
<time>2013-04-01T10:08:37Z</time>
 <fix>none</fix>
 <sat>0</sat>
</trkpt>
<trkpt lat="31.703043333" lon="35.002535000">
<time>2013-04-01T10:08:39Z</time>
 <fix>none</fix>
 <sat>0</sat>
</trkpt>
<trkpt lat="31.703091667" lon="35.002496667">
<time>2013-04-01T10:08:41Z</time>
 <fix>none</fix>
 <sat>0</sat>
</trkpt>
<trkpt lat="31.703133333" lon="35.002465000">
<time>2013-04-01T10:08:43Z</time>
 <fix>none</fix>
 <sat>0</sat>
</trkpt>
<trkpt lat="31.703173333" lon="35.002435000">
<time>2013-04-01T10:08:45Z</time>
 <fix>none</fix>
 <sat>0</sat>
</trkpt>
<trkpt lat="31.703188333" lon="35.002418333">
<time>2013-04-01T10:08:47Z</time>
 <fix>none</fix>
 <sat>0</sat>
</trkpt>
<trkpt lat="31.703226667" lon="35.002393333">
<time>2013-04-01T10:08:49Z</time>
 <fix>none</fix>
 <sat>0</sat>
</trkpt>
<trkpt lat="31.703295000" lon="35.002363333">
<time>2013-04-01T10:08:51Z</time>
 <fix>none</fix>
 <sat>0</sat>
</trkpt>
<trkpt lat="31.703315000" lon="35.002351667">
<time>2013-04-01T10:08:53Z</time>
 <fix>none</fix>
 <sat>0</sat>
</trkpt>
<trkpt lat="31.703388333" lon="35.002313333">
<time>2013-04-01T10:08:55Z</time>
 <fix>none</fix>
 <sat>0</sat>
</trkpt>
<trkpt lat="31.703433333" lon="35.002285000">
<time>2013-04-01T10:08:57Z</time>
 <fix>none</fix>
 <sat>0</sat>
</trkpt>
<trkpt lat="31.703480000" lon="35.002256667">
<time>2013-04-01T10:08:59Z</time>
 <fix>none</fix>
 <sat>0</sat>
</trkpt>
<trkpt lat="31.703531667" lon="35.002238333">
<time>2013-04-01T10:09:01Z</time>
 <fix>none</fix>
 <sat>0</sat>
</trkpt>
<trkpt lat="31.703581667" lon="35.002225000">
<time>2013-04-01T10:09:03Z</time>
 <fix>none</fix>
 <sat>0</sat>
</trkpt>
<trkpt lat="31.703630000" lon="35.002193333">
<time>2013-04-01T10:09:05Z</time>
 <fix>none</fix>
 <sat>0</sat>
</trkpt>
<trkpt lat="31.703676667" lon="35.002160000">
<time>2013-04-01T10:09:07Z</time>
 <fix>none</fix>
 <sat>0</sat>
</trkpt>
<trkpt lat="31.703703333" lon="35.002148333">
<time>2013-04-01T10:09:09Z</time>
 <fix>none</fix>
 <sat>0</sat>
</trkpt>
<trkpt lat="31.703760000" lon="35.002121667">
<time>2013-04-01T10:09:11Z</time>
 <fix>none</fix>
 <sat>0</sat>
</trkpt>
<trkpt lat="31.703813333" lon="35.002088333">
<time>2013-04-01T10:09:13Z</time>
 <fix>none</fix>
 <sat>0</sat>
</trkpt>
<trkpt lat="31.703830000" lon="35.002066667">
<time>2013-04-01T10:09:15Z</time>
 <fix>none</fix>
 <sat>0</sat>
</trkpt>
<trkpt lat="31.703823333" lon="35.002045000">
<time>2013-04-01T10:09:17Z</time>
 <fix>none</fix>
 <sat>0</sat>
</trkpt>
<trkpt lat="31.703823333" lon="35.002043333">
<time>2013-04-01T10:09:19Z</time>
 <fix>none</fix>
 <sat>0</sat>
</trkpt>
<trkpt lat="31.703838333" lon="35.002033333">
<time>2013-04-01T10:09:21Z</time>
 <fix>none</fix>
 <sat>0</sat>
</trkpt>
<trkpt lat="31.703873333" lon="35.002008333">
<time>2013-04-01T10:09:23Z</time>
 <fix>none</fix>
 <sat>0</sat>
</trkpt>
<trkpt lat="31.703918333" lon="35.001976667">
<time>2013-04-01T10:09:25Z</time>
 <fix>none</fix>
 <sat>0</sat>
</trkpt>
<trkpt lat="31.703956667" lon="35.001943333">
<time>2013-04-01T10:09:27Z</time>
 <fix>none</fix>
 <sat>0</sat>
</trkpt>
<trkpt lat="31.703991667" lon="35.001910000">
<time>2013-04-01T10:09:29Z</time>
 <fix>none</fix>
 <sat>0</sat>
</trkpt>
<trkpt lat="31.704010000" lon="35.001858333">
<time>2013-04-01T10:09:31Z</time>
 <fix>none</fix>
 <sat>0</sat>
</trkpt>
<trkpt lat="31.704016667" lon="35.001835000">
<time>2013-04-01T10:09:33Z</time>
 <fix>none</fix>
 <sat>0</sat>
</trkpt>
<trkpt lat="31.704035000" lon="35.001793333">
<time>2013-04-01T10:09:35Z</time>
 <fix>none</fix>
 <sat>0</sat>
</trkpt>
<trkpt lat="31.704075000" lon="35.001771667">
<time>2013-04-01T10:09:37Z</time>
 <fix>none</fix>
 <sat>0</sat>
</trkpt>
<trkpt lat="31.704116667" lon="35.001741667">
<time>2013-04-01T10:09:39Z</time>
 <fix>none</fix>
 <sat>0</sat>
</trkpt>
<trkpt lat="31.704183333" lon="35.001703333">
<time>2013-04-01T10:09:41Z</time>
 <fix>none</fix>
 <sat>0</sat>
</trkpt>
<trkpt lat="31.704216667" lon="35.001668333">
<time>2013-04-01T10:09:43Z</time>
 <fix>none</fix>
 <sat>0</sat>
</trkpt>
<trkpt lat="31.704270000" lon="35.001650000">
<time>2013-04-01T10:09:45Z</time>
 <fix>none</fix>
 <sat>0</sat>
</trkpt>
<trkpt lat="31.704316667" lon="35.001621667">
<time>2013-04-01T10:09:47Z</time>
 <fix>none</fix>
 <sat>0</sat>
</trkpt>
<trkpt lat="31.704336667" lon="35.001586667">
<time>2013-04-01T10:09:49Z</time>
 <fix>none</fix>
 <sat>0</sat>
</trkpt>
<trkpt lat="31.704346667" lon="35.001576667">
<time>2013-04-01T10:09:51Z</time>
 <fix>none</fix>
 <sat>0</sat>
</trkpt>
<trkpt lat="31.704360000" lon="35.001561667">
<time>2013-04-01T10:09:53Z</time>
 <fix>none</fix>
 <sat>0</sat>
</trkpt>
<trkpt lat="31.704370000" lon="35.001545000">
<time>2013-04-01T10:09:55Z</time>
 <fix>none</fix>
 <sat>0</sat>
</trkpt>
<trkpt lat="31.704400000" lon="35.001508333">
<time>2013-04-01T10:09:57Z</time>
 <fix>none</fix>
 <sat>0</sat>
</trkpt>
<trkpt lat="31.704448333" lon="35.001480000">
<time>2013-04-01T10:09:59Z</time>
 <fix>none</fix>
 <sat>0</sat>
</trkpt>
<trkpt lat="31.704510000" lon="35.001481667">
<time>2013-04-01T10:10:01Z</time>
 <fix>none</fix>
 <sat>0</sat>
</trkpt>
<trkpt lat="31.704546667" lon="35.001480000">
<time>2013-04-01T10:10:03Z</time>
 <fix>none</fix>
 <sat>0</sat>
</trkpt>
<trkpt lat="31.704580000" lon="35.001448333">
<time>2013-04-01T10:10:05Z</time>
 <fix>none</fix>
 <sat>0</sat>
</trkpt>
<trkpt lat="31.704626667" lon="35.001438333">
<time>2013-04-01T10:10:07Z</time>
 <fix>none</fix>
 <sat>0</sat>
</trkpt>
<trkpt lat="31.704685000" lon="35.001441667">
<time>2013-04-01T10:10:09Z</time>
 <fix>none</fix>
 <sat>0</sat>
</trkpt>
<trkpt lat="31.704718333" lon="35.001433333">
<time>2013-04-01T10:10:11Z</time>
 <fix>none</fix>
 <sat>0</sat>
</trkpt>
<trkpt lat="31.704728333" lon="35.001413333">
<time>2013-04-01T10:10:13Z</time>
 <fix>none</fix>
 <sat>0</sat>
</trkpt>
<trkpt lat="31.704735000" lon="35.001401667">
<time>2013-04-01T10:10:15Z</time>
 <fix>none</fix>
 <sat>0</sat>
</trkpt>
<trkpt lat="31.704740000" lon="35.001393333">
<time>2013-04-01T10:10:17Z</time>
 <fix>none</fix>
 <sat>0</sat>
</trkpt>
<trkpt lat="31.704740000" lon="35.001393333">
<time>2013-04-01T10:10:19Z</time>
 <fix>none</fix>
 <sat>0</sat>
</trkpt>
<trkpt lat="31.704741667" lon="35.001391667">
<time>2013-04-01T10:10:21Z</time>
 <fix>none</fix>
 <sat>0</sat>
</trkpt>
<trkpt lat="31.704745000" lon="35.001383333">
<time>2013-04-01T10:10:23Z</time>
 <fix>none</fix>
 <sat>0</sat>
</trkpt>
<trkpt lat="31.704766667" lon="35.001345000">
<time>2013-04-01T10:10:25Z</time>
 <fix>none</fix>
 <sat>0</sat>
</trkpt>
<trkpt lat="31.704785000" lon="35.001345000">
<time>2013-04-01T10:10:27Z</time>
 <fix>none</fix>
 <sat>0</sat>
</trkpt>
<trkpt lat="31.704803333" lon="35.001340000">
<time>2013-04-01T10:10:29Z</time>
 <fix>none</fix>
 <sat>0</sat>
</trkpt>
<trkpt lat="31.704845000" lon="35.001326667">
<time>2013-04-01T10:10:31Z</time>
 <fix>none</fix>
 <sat>0</sat>
</trkpt>
<trkpt lat="31.704890000" lon="35.001311667">
<time>2013-04-01T10:10:33Z</time>
 <fix>none</fix>
 <sat>0</sat>
</trkpt>
<trkpt lat="31.704921667" lon="35.001305000">
<time>2013-04-01T10:10:35Z</time>
 <fix>none</fix>
 <sat>0</sat>
</trkpt>
<trkpt lat="31.704940000" lon="35.001303333">
<time>2013-04-01T10:10:37Z</time>
 <fix>none</fix>
 <sat>0</sat>
</trkpt>
<trkpt lat="31.704976667" lon="35.001295000">
<time>2013-04-01T10:10:39Z</time>
 <fix>none</fix>
 <sat>0</sat>
</trkpt>
<trkpt lat="31.704996667" lon="35.001285000">
<time>2013-04-01T10:10:41Z</time>
 <fix>none</fix>
 <sat>0</sat>
</trkpt>
<trkpt lat="31.705028333" lon="35.001258333">
<time>2013-04-01T10:10:43Z</time>
 <fix>none</fix>
 <sat>0</sat>
</trkpt>
<trkpt lat="31.705053333" lon="35.001226667">
<time>2013-04-01T10:10:45Z</time>
 <fix>none</fix>
 <sat>0</sat>
</trkpt>
<trkpt lat="31.705090000" lon="35.001211667">
<time>2013-04-01T10:10:47Z</time>
 <fix>none</fix>
 <sat>0</sat>
</trkpt>
<trkpt lat="31.705166667" lon="35.001188333">
<time>2013-04-01T10:10:49Z</time>
 <fix>none</fix>
 <sat>0</sat>
</trkpt>
<trkpt lat="31.705226667" lon="35.001185000">
<time>2013-04-01T10:10:51Z</time>
 <fix>none</fix>
 <sat>0</sat>
</trkpt>
<trkpt lat="31.705275000" lon="35.001188333">
<time>2013-04-01T10:10:53Z</time>
 <fix>none</fix>
 <sat>0</sat>
</trkpt>
<trkpt lat="31.705315000" lon="35.001185000">
<time>2013-04-01T10:10:55Z</time>
 <fix>none</fix>
 <sat>0</sat>
</trkpt>
<trkpt lat="31.705366667" lon="35.001168333">
<time>2013-04-01T10:10:57Z</time>
 <fix>none</fix>
 <sat>0</sat>
</trkpt>
<trkpt lat="31.705430000" lon="35.001145000">
<time>2013-04-01T10:10:59Z</time>
 <fix>none</fix>
 <sat>0</sat>
</trkpt>
<trkpt lat="31.705485000" lon="35.001115000">
<time>2013-04-01T10:11:01Z</time>
 <fix>none</fix>
 <sat>0</sat>
</trkpt>
<trkpt lat="31.705506667" lon="35.001105000">
<time>2013-04-01T10:11:03Z</time>
 <fix>none</fix>
 <sat>0</sat>
</trkpt>
<trkpt lat="31.705575000" lon="35.001103333">
<time>2013-04-01T10:11:05Z</time>
 <fix>none</fix>
 <sat>0</sat>
</trkpt>
<trkpt lat="31.705656667" lon="35.001121667">
<time>2013-04-01T10:11:07Z</time>
 <fix>none</fix>
 <sat>0</sat>
</trkpt>
<trkpt lat="31.705728333" lon="35.001145000">
<time>2013-04-01T10:11:09Z</time>
 <fix>none</fix>
 <sat>0</sat>
</trkpt>
<trkpt lat="31.705808333" lon="35.001156667">
<time>2013-04-01T10:11:11Z</time>
 <fix>none</fix>
 <sat>0</sat>
</trkpt>
<trkpt lat="31.705866667" lon="35.001148333">
<time>2013-04-01T10:11:13Z</time>
 <fix>none</fix>
 <sat>0</sat>
</trkpt>
<trkpt lat="31.705926667" lon="35.001126667">
<time>2013-04-01T10:11:15Z</time>
 <fix>none</fix>
 <sat>0</sat>
</trkpt>
<trkpt lat="31.705973333" lon="35.001085000">
<time>2013-04-01T10:11:17Z</time>
 <fix>none</fix>
 <sat>0</sat>
</trkpt>
<trkpt lat="31.706018333" lon="35.001070000">
<time>2013-04-01T10:11:19Z</time>
 <fix>none</fix>
 <sat>0</sat>
</trkpt>
<trkpt lat="31.706071667" lon="35.001080000">
<time>2013-04-01T10:11:21Z</time>
 <fix>none</fix>
 <sat>0</sat>
</trkpt>
<trkpt lat="31.706138333" lon="35.001083333">
<time>2013-04-01T10:11:23Z</time>
 <fix>none</fix>
 <sat>0</sat>
</trkpt>
<trkpt lat="31.706206667" lon="35.001078333">
<time>2013-04-01T10:11:25Z</time>
 <fix>none</fix>
 <sat>0</sat>
</trkpt>
<trkpt lat="31.706241667" lon="35.001080000">
<time>2013-04-01T10:11:27Z</time>
 <fix>none</fix>
 <sat>0</sat>
</trkpt>
<trkpt lat="31.706308333" lon="35.001100000">
<time>2013-04-01T10:11:29Z</time>
 <fix>none</fix>
 <sat>0</sat>
</trkpt>
<trkpt lat="31.706361667" lon="35.001106667">
<time>2013-04-01T10:11:31Z</time>
 <fix>none</fix>
 <sat>0</sat>
</trkpt>
<trkpt lat="31.706438333" lon="35.001096667">
<time>2013-04-01T10:11:33Z</time>
 <fix>none</fix>
 <sat>0</sat>
</trkpt>
<trkpt lat="31.706500000" lon="35.001093333">
<time>2013-04-01T10:11:35Z</time>
 <fix>none</fix>
 <sat>0</sat>
</trkpt>
<trkpt lat="31.706555000" lon="35.001050000">
<time>2013-04-01T10:11:37Z</time>
 <fix>none</fix>
 <sat>0</sat>
</trkpt>
<trkpt lat="31.706598333" lon="35.000976667">
<time>2013-04-01T10:11:39Z</time>
 <fix>none</fix>
 <sat>0</sat>
</trkpt>
<trkpt lat="31.706643333" lon="35.000901667">
<time>2013-04-01T10:11:41Z</time>
 <fix>none</fix>
 <sat>0</sat>
</trkpt>
<trkpt lat="31.706683333" lon="35.000846667">
<time>2013-04-01T10:11:43Z</time>
 <fix>none</fix>
 <sat>0</sat>
</trkpt>
<trkpt lat="31.706706667" lon="35.000801667">
<time>2013-04-01T10:11:45Z</time>
 <fix>none</fix>
 <sat>0</sat>
</trkpt>
<trkpt lat="31.706718333" lon="35.000780000">
<time>2013-04-01T10:11:47Z</time>
 <fix>none</fix>
 <sat>0</sat>
</trkpt>
<trkpt lat="31.706718333" lon="35.000778333">
<time>2013-04-01T10:11:49Z</time>
 <fix>none</fix>
 <sat>0</sat>
</trkpt>
<trkpt lat="31.706730000" lon="35.000776667">
<time>2013-04-01T10:11:51Z</time>
 <fix>none</fix>
 <sat>0</sat>
</trkpt>
<trkpt lat="31.706751667" lon="35.000766667">
<time>2013-04-01T10:11:53Z</time>
 <fix>none</fix>
 <sat>0</sat>
</trkpt>
<trkpt lat="31.706773333" lon="35.000748333">
<time>2013-04-01T10:11:55Z</time>
 <fix>none</fix>
 <sat>0</sat>
</trkpt>
<trkpt lat="31.706778333" lon="35.000741667">
<time>2013-04-01T10:11:57Z</time>
 <fix>none</fix>
 <sat>0</sat>
</trkpt>
<trkpt lat="31.706786667" lon="35.000708333">
<time>2013-04-01T10:11:59Z</time>
 <fix>none</fix>
 <sat>0</sat>
</trkpt>
<trkpt lat="31.706793333" lon="35.000690000">
<time>2013-04-01T10:12:01Z</time>
 <fix>none</fix>
 <sat>0</sat>
</trkpt>
<trkpt lat="31.706800000" lon="35.000675000">
<time>2013-04-01T10:12:03Z</time>
 <fix>none</fix>
 <sat>0</sat>
</trkpt>
<trkpt lat="31.706800000" lon="35.000653333">
<time>2013-04-01T10:12:05Z</time>
 <fix>none</fix>
 <sat>0</sat>
</trkpt>
<trkpt lat="31.706801667" lon="35.000635000">
<time>2013-04-01T10:12:07Z</time>
 <fix>none</fix>
 <sat>0</sat>
</trkpt>
<trkpt lat="31.706813333" lon="35.000616667">
<time>2013-04-01T10:12:09Z</time>
 <fix>none</fix>
 <sat>0</sat>
</trkpt>
<trkpt lat="31.706826667" lon="35.000606667">
<time>2013-04-01T10:12:11Z</time>
 <fix>none</fix>
 <sat>0</sat>
</trkpt>
<trkpt lat="31.706835000" lon="35.000603333">
<time>2013-04-01T10:12:13Z</time>
 <fix>none</fix>
 <sat>0</sat>
</trkpt>
<trkpt lat="31.706850000" lon="35.000591667">
<time>2013-04-01T10:12:15Z</time>
 <fix>none</fix>
 <sat>0</sat>
</trkpt>
<trkpt lat="31.706860000" lon="35.000573333">
<time>2013-04-01T10:12:17Z</time>
 <fix>none</fix>
 <sat>0</sat>
</trkpt>
<trkpt lat="31.706881667" lon="35.000541667">
<time>2013-04-01T10:12:19Z</time>
 <fix>none</fix>
 <sat>0</sat>
</trkpt>
<trkpt lat="31.706891667" lon="35.000526667">
<time>2013-04-01T10:12:21Z</time>
 <fix>none</fix>
 <sat>0</sat>
</trkpt>
<trkpt lat="31.706905000" lon="35.000513333">
<time>2013-04-01T10:12:23Z</time>
 <fix>none</fix>
 <sat>0</sat>
</trkpt>
<trkpt lat="31.706916667" lon="35.000505000">
<time>2013-04-01T10:12:25Z</time>
 <fix>none</fix>
 <sat>0</sat>
</trkpt>
<trkpt lat="31.706933333" lon="35.000498333">
<time>2013-04-01T10:12:27Z</time>
 <fix>none</fix>
 <sat>0</sat>
</trkpt>
<trkpt lat="31.706945000" lon="35.000491667">
<time>2013-04-01T10:12:29Z</time>
 <fix>none</fix>
 <sat>0</sat>
</trkpt>
<trkpt lat="31.706958333" lon="35.000490000">
<time>2013-04-01T10:12:31Z</time>
 <fix>none</fix>
 <sat>0</sat>
</trkpt>
<trkpt lat="31.706973333" lon="35.000500000">
<time>2013-04-01T10:12:33Z</time>
 <fix>none</fix>
 <sat>0</sat>
</trkpt>
<trkpt lat="31.706975000" lon="35.000508333">
<time>2013-04-01T10:12:35Z</time>
 <fix>none</fix>
 <sat>0</sat>
</trkpt>
<trkpt lat="31.706983333" lon="35.000523333">
<time>2013-04-01T10:12:37Z</time>
 <fix>none</fix>
 <sat>0</sat>
</trkpt>
<trkpt lat="31.706990000" lon="35.000530000">
<time>2013-04-01T10:12:39Z</time>
 <fix>none</fix>
 <sat>0</sat>
</trkpt>
<trkpt lat="31.707000000" lon="35.000558333">
<time>2013-04-01T10:12:41Z</time>
 <fix>none</fix>
 <sat>0</sat>
</trkpt>
<trkpt lat="31.707013333" lon="35.000571667">
<time>2013-04-01T10:12:43Z</time>
 <fix>none</fix>
 <sat>0</sat>
</trkpt>
<trkpt lat="31.707028333" lon="35.000570000">
<time>2013-04-01T10:12:45Z</time>
 <fix>none</fix>
 <sat>0</sat>
</trkpt>
<trkpt lat="31.707031667" lon="35.000563333">
<time>2013-04-01T10:12:47Z</time>
 <fix>none</fix>
 <sat>0</sat>
</trkpt>
<trkpt lat="31.707031667" lon="35.000560000">
<time>2013-04-01T10:12:49Z</time>
 <fix>none</fix>
 <sat>0</sat>
</trkpt>
<trkpt lat="31.707036667" lon="35.000556667">
<time>2013-04-01T10:12:51Z</time>
 <fix>none</fix>
 <sat>0</sat>
</trkpt>
<trkpt lat="31.707046667" lon="35.000550000">
<time>2013-04-01T10:12:53Z</time>
 <fix>none</fix>
 <sat>0</sat>
</trkpt>
<trkpt lat="31.707053333" lon="35.000548333">
<time>2013-04-01T10:12:55Z</time>
 <fix>none</fix>
 <sat>0</sat>
</trkpt>
<trkpt lat="31.707055000" lon="35.000548333">
<time>2013-04-01T10:12:57Z</time>
 <fix>none</fix>
 <sat>0</sat>
</trkpt>
<trkpt lat="31.707055000" lon="35.000546667">
<time>2013-04-01T10:12:59Z</time>
 <fix>none</fix>
 <sat>0</sat>
</trkpt>
<trkpt lat="31.707056667" lon="35.000546667">
<time>2013-04-01T10:13:01Z</time>
 <fix>none</fix>
 <sat>0</sat>
</trkpt>
<trkpt lat="31.707056667" lon="35.000548333">
<time>2013-04-01T10:13:03Z</time>
 <fix>none</fix>
 <sat>0</sat>
</trkpt>
<trkpt lat="31.707055000" lon="35.000555000">
<time>2013-04-01T10:13:05Z</time>
 <fix>none</fix>
 <sat>0</sat>
</trkpt>
<trkpt lat="31.707053333" lon="35.000558333">
<time>2013-04-01T10:13:07Z</time>
 <fix>none</fix>
 <sat>0</sat>
</trkpt>
<trkpt lat="31.707048333" lon="35.000556667">
<time>2013-04-01T10:13:09Z</time>
 <fix>none</fix>
 <sat>0</sat>
</trkpt>
<trkpt lat="31.707041667" lon="35.000555000">
<time>2013-04-01T10:13:11Z</time>
 <fix>none</fix>
 <sat>0</sat>
</trkpt>
<trkpt lat="31.707036667" lon="35.000553333">
<time>2013-04-01T10:13:13Z</time>
 <fix>none</fix>
 <sat>0</sat>
</trkpt>
<trkpt lat="31.707036667" lon="35.000553333">
<time>2013-04-01T10:13:15Z</time>
 <fix>none</fix>
 <sat>0</sat>
</trkpt>
<trkpt lat="31.707030000" lon="35.000551667">
<time>2013-04-01T10:13:17Z</time>
 <fix>none</fix>
 <sat>0</sat>
</trkpt>
<trkpt lat="31.707030000" lon="35.000548333">
<time>2013-04-01T10:13:19Z</time>
 <fix>none</fix>
 <sat>0</sat>
</trkpt>
<trkpt lat="31.707028333" lon="35.000546667">
<time>2013-04-01T10:13:21Z</time>
 <fix>none</fix>
 <sat>0</sat>
</trkpt>
<trkpt lat="31.707028333" lon="35.000546667">
<time>2013-04-01T10:13:23Z</time>
 <fix>none</fix>
 <sat>0</sat>
</trkpt>
<trkpt lat="31.707031667" lon="35.000546667">
<time>2013-04-01T10:13:25Z</time>
 <fix>none</fix>
 <sat>0</sat>
</trkpt>
<trkpt lat="31.707036667" lon="35.000546667">
<time>2013-04-01T10:13:27Z</time>
 <fix>none</fix>
 <sat>0</sat>
</trkpt>
<trkpt lat="31.707040000" lon="35.000555000">
<time>2013-04-01T10:13:29Z</time>
 <fix>none</fix>
 <sat>0</sat>
</trkpt>
<trkpt lat="31.707040000" lon="35.000566667">
<time>2013-04-01T10:13:31Z</time>
 <fix>none</fix>
 <sat>0</sat>
</trkpt>
<trkpt lat="31.707040000" lon="35.000568333">
<time>2013-04-01T10:13:33Z</time>
 <fix>none</fix>
 <sat>0</sat>
</trkpt>
<trkpt lat="31.707030000" lon="35.000573333">
<time>2013-04-01T10:13:35Z</time>
 <fix>none</fix>
 <sat>0</sat>
</trkpt>
<trkpt lat="31.707020000" lon="35.000581667">
<time>2013-04-01T10:13:37Z</time>
 <fix>none</fix>
 <sat>0</sat>
</trkpt>
<trkpt lat="31.707001667" lon="35.000610000">
<time>2013-04-01T10:13:39Z</time>
 <fix>none</fix>
 <sat>0</sat>
</trkpt>
<trkpt lat="31.706978333" lon="35.000655000">
<time>2013-04-01T10:13:41Z</time>
 <fix>none</fix>
 <sat>0</sat>
</trkpt>
<trkpt lat="31.706970000" lon="35.000685000">
<time>2013-04-01T10:13:43Z</time>
 <fix>none</fix>
 <sat>0</sat>
</trkpt>
<trkpt lat="31.706961667" lon="35.000741667">
<time>2013-04-01T10:13:45Z</time>
 <fix>none</fix>
 <sat>0</sat>
</trkpt>
<trkpt lat="31.706946667" lon="35.000823333">
<time>2013-04-01T10:13:47Z</time>
 <fix>none</fix>
 <sat>0</sat>
</trkpt>
<trkpt lat="31.706933333" lon="35.000880000">
<time>2013-04-01T10:13:49Z</time>
 <fix>none</fix>
 <sat>0</sat>
</trkpt>
<trkpt lat="31.706913333" lon="35.000936667">
<time>2013-04-01T10:13:51Z</time>
 <fix>none</fix>
 <sat>0</sat>
</trkpt>
<trkpt lat="31.706900000" lon="35.000995000">
<time>2013-04-01T10:13:53Z</time>
 <fix>none</fix>
 <sat>0</sat>
</trkpt>
<trkpt lat="31.706898333" lon="35.001050000">
<time>2013-04-01T10:13:55Z</time>
 <fix>none</fix>
 <sat>0</sat>
</trkpt>
<trkpt lat="31.706893333" lon="35.001100000">
<time>2013-04-01T10:13:57Z</time>
 <fix>none</fix>
 <sat>0</sat>
</trkpt>
<trkpt lat="31.706880000" lon="35.001151667">
<time>2013-04-01T10:13:59Z</time>
 <fix>none</fix>
 <sat>0</sat>
</trkpt>
<trkpt lat="31.706860000" lon="35.001205000">
<time>2013-04-01T10:14:01Z</time>
 <fix>none</fix>
 <sat>0</sat>
</trkpt>
<trkpt lat="31.706830000" lon="35.001246667">
<time>2013-04-01T10:14:03Z</time>
 <fix>none</fix>
 <sat>0</sat>
</trkpt>
<trkpt lat="31.706793333" lon="35.001285000">
<time>2013-04-01T10:14:05Z</time>
 <fix>none</fix>
 <sat>0</sat>
</trkpt>
<trkpt lat="31.706776667" lon="35.001305000">
<time>2013-04-01T10:14:07Z</time>
 <fix>none</fix>
 <sat>0</sat>
</trkpt>
<trkpt lat="31.706748333" lon="35.001345000">
<time>2013-04-01T10:14:09Z</time>
 <fix>none</fix>
 <sat>0</sat>
</trkpt>
<trkpt lat="31.706728333" lon="35.001386667">
<time>2013-04-01T10:14:11Z</time>
 <fix>none</fix>
 <sat>0</sat>
</trkpt>
<trkpt lat="31.706713333" lon="35.001418333">
<time>2013-04-01T10:14:13Z</time>
 <fix>none</fix>
 <sat>0</sat>
</trkpt>
<trkpt lat="31.706713333" lon="35.001431667">
<time>2013-04-01T10:14:15Z</time>
 <fix>none</fix>
 <sat>0</sat>
</trkpt>
<trkpt lat="31.706716667" lon="35.001438333">
<time>2013-04-01T10:14:17Z</time>
 <fix>none</fix>
 <sat>0</sat>
</trkpt>
<trkpt lat="31.706728333" lon="35.001451667">
<time>2013-04-01T10:14:19Z</time>
 <fix>none</fix>
 <sat>0</sat>
</trkpt>
<trkpt lat="31.706743333" lon="35.001465000">
<time>2013-04-01T10:14:21Z</time>
 <fix>none</fix>
 <sat>0</sat>
</trkpt>
<trkpt lat="31.706756667" lon="35.001481667">
<time>2013-04-01T10:14:23Z</time>
 <fix>none</fix>
 <sat>0</sat>
</trkpt>
<trkpt lat="31.706765000" lon="35.001508333">
<time>2013-04-01T10:14:25Z</time>
 <fix>none</fix>
 <sat>0</sat>
</trkpt>
<trkpt lat="31.706768333" lon="35.001530000">
<time>2013-04-01T10:14:27Z</time>
 <fix>none</fix>
 <sat>0</sat>
</trkpt>
<trkpt lat="31.706771667" lon="35.001541667">
<time>2013-04-01T10:14:29Z</time>
 <fix>none</fix>
 <sat>0</sat>
</trkpt>
<trkpt lat="31.706778333" lon="35.001556667">
<time>2013-04-01T10:14:31Z</time>
 <fix>none</fix>
 <sat>0</sat>
</trkpt>
<trkpt lat="31.706785000" lon="35.001566667">
<time>2013-04-01T10:14:33Z</time>
 <fix>none</fix>
 <sat>0</sat>
</trkpt>
<trkpt lat="31.706790000" lon="35.001575000">
<time>2013-04-01T10:14:35Z</time>
 <fix>none</fix>
 <sat>0</sat>
</trkpt>
<trkpt lat="31.706798333" lon="35.001583333">
<time>2013-04-01T10:14:37Z</time>
 <fix>none</fix>
 <sat>0</sat>
</trkpt>
<trkpt lat="31.706798333" lon="35.001583333">
<time>2013-04-01T10:14:39Z</time>
 <fix>none</fix>
 <sat>0</sat>
</trkpt>
<trkpt lat="31.706808333" lon="35.001601667">
<time>2013-04-01T10:14:41Z</time>
 <fix>none</fix>
 <sat>0</sat>
</trkpt>
<trkpt lat="31.706810000" lon="35.001600000">
<time>2013-04-01T10:14:43Z</time>
 <fix>none</fix>
 <sat>0</sat>
</trkpt>
<trkpt lat="31.706810000" lon="35.001600000">
<time>2013-04-01T10:14:45Z</time>
 <fix>none</fix>
 <sat>0</sat>
</trkpt>
<trkpt lat="31.706811667" lon="35.001600000">
<time>2013-04-01T10:14:47Z</time>
 <fix>none</fix>
 <sat>0</sat>
</trkpt>
<trkpt lat="31.706813333" lon="35.001601667">
<time>2013-04-01T10:14:49Z</time>
 <fix>none</fix>
 <sat>0</sat>
</trkpt>
<trkpt lat="31.706816667" lon="35.001601667">
<time>2013-04-01T10:14:51Z</time>
 <fix>none</fix>
 <sat>0</sat>
</trkpt>
<trkpt lat="31.706816667" lon="35.001603333">
<time>2013-04-01T10:14:53Z</time>
 <fix>none</fix>
 <sat>0</sat>
</trkpt>
<trkpt lat="31.706816667" lon="35.001603333">
<time>2013-04-01T10:14:55Z</time>
 <fix>none</fix>
 <sat>0</sat>
</trkpt>
<trkpt lat="31.706820000" lon="35.001605000">
<time>2013-04-01T10:14:57Z</time>
 <fix>none</fix>
 <sat>0</sat>
</trkpt>
<trkpt lat="31.706820000" lon="35.001606667">
<time>2013-04-01T10:14:59Z</time>
 <fix>none</fix>
 <sat>0</sat>
</trkpt>
<trkpt lat="31.706820000" lon="35.001606667">
<time>2013-04-01T10:15:01Z</time>
 <fix>none</fix>
 <sat>0</sat>
</trkpt>
<trkpt lat="31.706825000" lon="35.001610000">
<time>2013-04-01T10:15:03Z</time>
 <fix>none</fix>
 <sat>0</sat>
</trkpt>
<trkpt lat="31.706825000" lon="35.001610000">
<time>2013-04-01T10:15:05Z</time>
 <fix>none</fix>
 <sat>0</sat>
</trkpt>
<trkpt lat="31.706825000" lon="35.001610000">
<time>2013-04-01T10:15:07Z</time>
 <fix>none</fix>
 <sat>0</sat>
</trkpt>
<trkpt lat="31.706825000" lon="35.001611667">
<time>2013-04-01T10:15:09Z</time>
 <fix>none</fix>
 <sat>0</sat>
</trkpt>
<trkpt lat="31.706825000" lon="35.001611667">
<time>2013-04-01T10:15:11Z</time>
 <fix>none</fix>
 <sat>0</sat>
</trkpt>
<trkpt lat="31.706826667" lon="35.001613333">
<time>2013-04-01T10:15:13Z</time>
 <fix>none</fix>
 <sat>0</sat>
</trkpt>
<trkpt lat="31.706826667" lon="35.001613333">
<time>2013-04-01T10:15:15Z</time>
 <fix>none</fix>
 <sat>0</sat>
</trkpt>
<trkpt lat="31.706826667" lon="35.001613333">
<time>2013-04-01T10:15:17Z</time>
 <fix>none</fix>
 <sat>0</sat>
</trkpt>
<trkpt lat="31.706823333" lon="35.001613333">
<time>2013-04-01T10:15:19Z</time>
 <fix>none</fix>
 <sat>0</sat>
</trkpt>
<trkpt lat="31.706823333" lon="35.001613333">
<time>2013-04-01T10:15:21Z</time>
 <fix>none</fix>
 <sat>0</sat>
</trkpt>
<trkpt lat="31.706828333" lon="35.001620000">
<time>2013-04-01T10:15:23Z</time>
 <fix>none</fix>
 <sat>0</sat>
</trkpt>
<trkpt lat="31.706828333" lon="35.001623333">
<time>2013-04-01T10:15:25Z</time>
 <fix>none</fix>
 <sat>0</sat>
</trkpt>
<trkpt lat="31.706823333" lon="35.001618333">
<time>2013-04-01T10:15:27Z</time>
 <fix>none</fix>
 <sat>0</sat>
</trkpt>
<trkpt lat="31.706823333" lon="35.001618333">
<time>2013-04-01T10:15:29Z</time>
 <fix>none</fix>
 <sat>0</sat>
</trkpt>
<trkpt lat="31.706823333" lon="35.001621667">
<time>2013-04-01T10:15:31Z</time>
 <fix>none</fix>
 <sat>0</sat>
</trkpt>
<trkpt lat="31.706821667" lon="35.001621667">
<time>2013-04-01T10:15:33Z</time>
 <fix>none</fix>
 <sat>0</sat>
</trkpt>
<trkpt lat="31.706816667" lon="35.001625000">
<time>2013-04-01T10:15:35Z</time>
 <fix>none</fix>
 <sat>0</sat>
</trkpt>
<trkpt lat="31.706813333" lon="35.001630000">
<time>2013-04-01T10:15:37Z</time>
 <fix>none</fix>
 <sat>0</sat>
</trkpt>
<trkpt lat="31.706813333" lon="35.001631667">
<time>2013-04-01T10:15:39Z</time>
 <fix>none</fix>
 <sat>0</sat>
</trkpt>
<trkpt lat="31.706811667" lon="35.001638333">
<time>2013-04-01T10:15:41Z</time>
 <fix>none</fix>
 <sat>0</sat>
</trkpt>
<trkpt lat="31.706811667" lon="35.001638333">
<time>2013-04-01T10:15:43Z</time>
 <fix>none</fix>
 <sat>0</sat>
</trkpt>
<trkpt lat="31.706813333" lon="35.001638333">
<time>2013-04-01T10:15:45Z</time>
 <fix>none</fix>
 <sat>0</sat>
</trkpt>
<trkpt lat="31.706811667" lon="35.001638333">
<time>2013-04-01T10:15:47Z</time>
 <fix>none</fix>
 <sat>0</sat>
</trkpt>
<trkpt lat="31.706806667" lon="35.001630000">
<time>2013-04-01T10:15:49Z</time>
 <fix>none</fix>
 <sat>0</sat>
</trkpt>
<trkpt lat="31.706811667" lon="35.001631667">
<time>2013-04-01T10:15:51Z</time>
 <fix>none</fix>
 <sat>0</sat>
</trkpt>
<trkpt lat="31.706815000" lon="35.001631667">
<time>2013-04-01T10:15:53Z</time>
 <fix>none</fix>
 <sat>0</sat>
</trkpt>
<trkpt lat="31.706815000" lon="35.001628333">
<time>2013-04-01T10:15:55Z</time>
 <fix>none</fix>
 <sat>0</sat>
</trkpt>
<trkpt lat="31.706815000" lon="35.001623333">
<time>2013-04-01T10:15:57Z</time>
 <fix>none</fix>
 <sat>0</sat>
</trkpt>
<trkpt lat="31.706815000" lon="35.001621667">
<time>2013-04-01T10:15:59Z</time>
 <fix>none</fix>
 <sat>0</sat>
</trkpt>
<trkpt lat="31.706816667" lon="35.001620000">
<time>2013-04-01T10:16:01Z</time>
 <fix>none</fix>
 <sat>0</sat>
</trkpt>
<trkpt lat="31.706816667" lon="35.001618333">
<time>2013-04-01T10:16:03Z</time>
 <fix>none</fix>
 <sat>0</sat>
</trkpt>
<trkpt lat="31.706816667" lon="35.001616667">
<time>2013-04-01T10:16:05Z</time>
 <fix>none</fix>
 <sat>0</sat>
</trkpt>
<trkpt lat="31.706820000" lon="35.001616667">
<time>2013-04-01T10:16:07Z</time>
 <fix>none</fix>
 <sat>0</sat>
</trkpt>
<trkpt lat="31.706818333" lon="35.001616667">
<time>2013-04-01T10:16:09Z</time>
 <fix>none</fix>
 <sat>0</sat>
</trkpt>
<trkpt lat="31.706818333" lon="35.001615000">
<time>2013-04-01T10:16:11Z</time>
 <fix>none</fix>
 <sat>0</sat>
</trkpt>
<trkpt lat="31.706820000" lon="35.001615000">
<time>2013-04-01T10:16:13Z</time>
 <fix>none</fix>
 <sat>0</sat>
</trkpt>
<trkpt lat="31.706821667" lon="35.001616667">
<time>2013-04-01T10:16:15Z</time>
 <fix>none</fix>
 <sat>0</sat>
</trkpt>
<trkpt lat="31.706821667" lon="35.001615000">
<time>2013-04-01T10:16:17Z</time>
 <fix>none</fix>
 <sat>0</sat>
</trkpt>
<trkpt lat="31.706823333" lon="35.001613333">
<time>2013-04-01T10:16:19Z</time>
 <fix>none</fix>
 <sat>0</sat>
</trkpt>
<trkpt lat="31.706821667" lon="35.001611667">
<time>2013-04-01T10:16:21Z</time>
 <fix>none</fix>
 <sat>0</sat>
</trkpt>
<trkpt lat="31.706820000" lon="35.001611667">
<time>2013-04-01T10:16:23Z</time>
 <fix>none</fix>
 <sat>0</sat>
</trkpt>
<trkpt lat="31.706820000" lon="35.001610000">
<time>2013-04-01T10:16:25Z</time>
 <fix>none</fix>
 <sat>0</sat>
</trkpt>
<trkpt lat="31.706818333" lon="35.001611667">
<time>2013-04-01T10:16:27Z</time>
 <fix>none</fix>
 <sat>0</sat>
</trkpt>
<trkpt lat="31.706813333" lon="35.001613333">
<time>2013-04-01T10:16:29Z</time>
 <fix>none</fix>
 <sat>0</sat>
</trkpt>
<trkpt lat="31.706820000" lon="35.001610000">
<time>2013-04-01T10:16:31Z</time>
 <fix>none</fix>
 <sat>0</sat>
</trkpt>
<trkpt lat="31.706823333" lon="35.001608333">
<time>2013-04-01T10:16:33Z</time>
 <fix>none</fix>
 <sat>0</sat>
</trkpt>
<trkpt lat="31.706823333" lon="35.001606667">
<time>2013-04-01T10:16:35Z</time>
 <fix>none</fix>
 <sat>0</sat>
</trkpt>
<trkpt lat="31.706818333" lon="35.001600000">
<time>2013-04-01T10:16:37Z</time>
 <fix>none</fix>
 <sat>0</sat>
</trkpt>
<trkpt lat="31.706813333" lon="35.001590000">
<time>2013-04-01T10:16:39Z</time>
 <fix>none</fix>
 <sat>0</sat>
</trkpt>
<trkpt lat="31.706805000" lon="35.001575000">
<time>2013-04-01T10:16:41Z</time>
 <fix>none</fix>
 <sat>0</sat>
</trkpt>
<trkpt lat="31.706793333" lon="35.001563333">
<time>2013-04-01T10:16:43Z</time>
 <fix>none</fix>
 <sat>0</sat>
</trkpt>
<trkpt lat="31.706785000" lon="35.001556667">
<time>2013-04-01T10:16:45Z</time>
 <fix>none</fix>
 <sat>0</sat>
</trkpt>
<trkpt lat="31.706780000" lon="35.001553333">
<time>2013-04-01T10:16:47Z</time>
 <fix>none</fix>
 <sat>0</sat>
</trkpt>
<trkpt lat="31.706775000" lon="35.001555000">
<time>2013-04-01T10:16:49Z</time>
 <fix>none</fix>
 <sat>0</sat>
</trkpt>
<trkpt lat="31.706755000" lon="35.001575000">
<time>2013-04-01T10:16:51Z</time>
 <fix>none</fix>
 <sat>0</sat>
</trkpt>
<trkpt lat="31.706740000" lon="35.001590000">
<time>2013-04-01T10:16:53Z</time>
 <fix>none</fix>
 <sat>0</sat>
</trkpt>
<trkpt lat="31.706723333" lon="35.001603333">
<time>2013-04-01T10:16:55Z</time>
 <fix>none</fix>
 <sat>0</sat>
</trkpt>
<trkpt lat="31.706708333" lon="35.001613333">
<time>2013-04-01T10:16:57Z</time>
 <fix>none</fix>
 <sat>0</sat>
</trkpt>
<trkpt lat="31.706691667" lon="35.001623333">
<time>2013-04-01T10:16:59Z</time>
 <fix>none</fix>
 <sat>0</sat>
</trkpt>
<trkpt lat="31.706681667" lon="35.001645000">
<time>2013-04-01T10:17:01Z</time>
 <fix>none</fix>
 <sat>0</sat>
</trkpt>
<trkpt lat="31.706676667" lon="35.001656667">
<time>2013-04-01T10:17:03Z</time>
 <fix>none</fix>
 <sat>0</sat>
</trkpt>
<trkpt lat="31.706660000" lon="35.001686667">
<time>2013-04-01T10:17:05Z</time>
 <fix>none</fix>
 <sat>0</sat>
</trkpt>
<trkpt lat="31.706648333" lon="35.001701667">
<time>2013-04-01T10:17:07Z</time>
 <fix>none</fix>
 <sat>0</sat>
</trkpt>
<trkpt lat="31.706641667" lon="35.001705000">
<time>2013-04-01T10:17:09Z</time>
 <fix>none</fix>
 <sat>0</sat>
</trkpt>
<trkpt lat="31.706635000" lon="35.001706667">
<time>2013-04-01T10:17:11Z</time>
 <fix>none</fix>
 <sat>0</sat>
</trkpt>
<trkpt lat="31.706620000" lon="35.001726667">
<time>2013-04-01T10:17:13Z</time>
 <fix>none</fix>
 <sat>0</sat>
</trkpt>
<trkpt lat="31.706581667" lon="35.001760000">
<time>2013-04-01T10:17:15Z</time>
 <fix>none</fix>
 <sat>0</sat>
</trkpt>
<trkpt lat="31.706548333" lon="35.001785000">
<time>2013-04-01T10:17:17Z</time>
 <fix>none</fix>
 <sat>0</sat>
</trkpt>
<trkpt lat="31.706513333" lon="35.001806667">
<time>2013-04-01T10:17:19Z</time>
 <fix>none</fix>
 <sat>0</sat>
</trkpt>
<trkpt lat="31.706498333" lon="35.001808333">
<time>2013-04-01T10:17:21Z</time>
 <fix>none</fix>
 <sat>0</sat>
</trkpt>
<trkpt lat="31.706485000" lon="35.001801667">
<time>2013-04-01T10:17:23Z</time>
 <fix>none</fix>
 <sat>0</sat>
</trkpt>
<trkpt lat="31.706473333" lon="35.001793333">
<time>2013-04-01T10:17:25Z</time>
 <fix>none</fix>
 <sat>0</sat>
</trkpt>
<trkpt lat="31.706456667" lon="35.001785000">
<time>2013-04-01T10:17:27Z</time>
 <fix>none</fix>
 <sat>0</sat>
</trkpt>
<trkpt lat="31.706436667" lon="35.001785000">
<time>2013-04-01T10:17:29Z</time>
 <fix>none</fix>
 <sat>0</sat>
</trkpt>
<trkpt lat="31.706416667" lon="35.001791667">
<time>2013-04-01T10:17:31Z</time>
 <fix>none</fix>
 <sat>0</sat>
</trkpt>
<trkpt lat="31.706401667" lon="35.001796667">
<time>2013-04-01T10:17:33Z</time>
 <fix>none</fix>
 <sat>0</sat>
</trkpt>
<trkpt lat="31.706380000" lon="35.001823333">
<time>2013-04-01T10:17:35Z</time>
 <fix>none</fix>
 <sat>0</sat>
</trkpt>
<trkpt lat="31.706350000" lon="35.001881667">
<time>2013-04-01T10:17:37Z</time>
 <fix>none</fix>
 <sat>0</sat>
</trkpt>
<trkpt lat="31.706325000" lon="35.001918333">
<time>2013-04-01T10:17:39Z</time>
 <fix>none</fix>
 <sat>0</sat>
</trkpt>
<trkpt lat="31.706300000" lon="35.001958333">
<time>2013-04-01T10:17:41Z</time>
 <fix>none</fix>
 <sat>0</sat>
</trkpt>
<trkpt lat="31.706271667" lon="35.001998333">
<time>2013-04-01T10:17:43Z</time>
 <fix>none</fix>
 <sat>0</sat>
</trkpt>
<trkpt lat="31.706241667" lon="35.002045000">
<time>2013-04-01T10:17:45Z</time>
 <fix>none</fix>
 <sat>0</sat>
</trkpt>
<trkpt lat="31.706208333" lon="35.002091667">
<time>2013-04-01T10:17:47Z</time>
 <fix>none</fix>
 <sat>0</sat>
</trkpt>
<trkpt lat="31.706170000" lon="35.002138333">
<time>2013-04-01T10:17:49Z</time>
 <fix>none</fix>
 <sat>0</sat>
</trkpt>
<trkpt lat="31.706133333" lon="35.002176667">
<time>2013-04-01T10:17:51Z</time>
 <fix>none</fix>
 <sat>0</sat>
</trkpt>
<trkpt lat="31.706101667" lon="35.002211667">
<time>2013-04-01T10:17:53Z</time>
 <fix>none</fix>
 <sat>0</sat>
</trkpt>
<trkpt lat="31.706076667" lon="35.002246667">
<time>2013-04-01T10:17:55Z</time>
 <fix>none</fix>
 <sat>0</sat>
</trkpt>
<trkpt lat="31.706061667" lon="35.002258333">
<time>2013-04-01T10:17:57Z</time>
 <fix>none</fix>
 <sat>0</sat>
</trkpt>
<trkpt lat="31.706033333" lon="35.002288333">
<time>2013-04-01T10:17:59Z</time>
 <fix>none</fix>
 <sat>0</sat>
</trkpt>
<trkpt lat="31.706006667" lon="35.002363333">
<time>2013-04-01T10:18:01Z</time>
 <fix>none</fix>
 <sat>0</sat>
</trkpt>
<trkpt lat="31.705975000" lon="35.002413333">
<time>2013-04-01T10:18:03Z</time>
 <fix>none</fix>
 <sat>0</sat>
</trkpt>
<trkpt lat="31.705940000" lon="35.002461667">
<time>2013-04-01T10:18:05Z</time>
 <fix>none</fix>
 <sat>0</sat>
</trkpt>
<trkpt lat="31.705905000" lon="35.002513333">
<time>2013-04-01T10:18:07Z</time>
 <fix>none</fix>
 <sat>0</sat>
</trkpt>
<trkpt lat="31.705871667" lon="35.002565000">
<time>2013-04-01T10:18:09Z</time>
 <fix>none</fix>
 <sat>0</sat>
</trkpt>
<trkpt lat="31.705846667" lon="35.002608333">
<time>2013-04-01T10:18:11Z</time>
 <fix>none</fix>
 <sat>0</sat>
</trkpt>
<trkpt lat="31.705825000" lon="35.002643333">
<time>2013-04-01T10:18:13Z</time>
 <fix>none</fix>
 <sat>0</sat>
</trkpt>
<trkpt lat="31.705796667" lon="35.002678333">
<time>2013-04-01T10:18:15Z</time>
 <fix>none</fix>
 <sat>0</sat>
</trkpt>
<trkpt lat="31.705766667" lon="35.002718333">
<time>2013-04-01T10:18:17Z</time>
 <fix>none</fix>
 <sat>0</sat>
</trkpt>
<trkpt lat="31.705751667" lon="35.002736667">
<time>2013-04-01T10:18:19Z</time>
 <fix>none</fix>
 <sat>0</sat>
</trkpt>
<trkpt lat="31.705715000" lon="35.002788333">
<time>2013-04-01T10:18:21Z</time>
 <fix>none</fix>
 <sat>0</sat>
</trkpt>
<trkpt lat="31.705701667" lon="35.002806667">
<time>2013-04-01T10:18:23Z</time>
 <fix>none</fix>
 <sat>0</sat>
</trkpt>
<trkpt lat="31.705668333" lon="35.002856667">
<time>2013-04-01T10:18:25Z</time>
 <fix>none</fix>
 <sat>0</sat>
</trkpt>
<trkpt lat="31.705635000" lon="35.002891667">
<time>2013-04-01T10:18:27Z</time>
 <fix>none</fix>
 <sat>0</sat>
</trkpt>
<trkpt lat="31.705591667" lon="35.002928333">
<time>2013-04-01T10:18:29Z</time>
 <fix>none</fix>
 <sat>0</sat>
</trkpt>
<trkpt lat="31.705553333" lon="35.002978333">
<time>2013-04-01T10:18:31Z</time>
 <fix>none</fix>
 <sat>0</sat>
</trkpt>
<trkpt lat="31.705530000" lon="35.003048333">
<time>2013-04-01T10:18:33Z</time>
 <fix>none</fix>
 <sat>0</sat>
</trkpt>
<trkpt lat="31.705491667" lon="35.003116667">
<time>2013-04-01T10:18:35Z</time>
 <fix>none</fix>
 <sat>0</sat>
</trkpt>
<trkpt lat="31.705446667" lon="35.003195000">
<time>2013-04-01T10:18:37Z</time>
 <fix>none</fix>
 <sat>0</sat>
</trkpt>
<trkpt lat="31.705405000" lon="35.003276667">
<time>2013-04-01T10:18:39Z</time>
 <fix>none</fix>
 <sat>0</sat>
</trkpt>
<trkpt lat="31.705383333" lon="35.003323333">
<time>2013-04-01T10:18:41Z</time>
 <fix>none</fix>
 <sat>0</sat>
</trkpt>
<trkpt lat="31.705336667" lon="35.003430000">
<time>2013-04-01T10:18:43Z</time>
 <fix>none</fix>
 <sat>0</sat>
</trkpt>
<trkpt lat="31.705266667" lon="35.003621667">
<time>2013-04-01T10:18:45Z</time>
 <fix>none</fix>
 <sat>0</sat>
</trkpt>
<trkpt lat="31.705223333" lon="35.003771667">
<time>2013-04-01T10:18:47Z</time>
 <fix>none</fix>
 <sat>0</sat>
</trkpt>
<trkpt lat="31.705188333" lon="35.003941667">
<time>2013-04-01T10:18:49Z</time>
 <fix>none</fix>
 <sat>0</sat>
</trkpt>
<trkpt lat="31.705161667" lon="35.004131667">
<time>2013-04-01T10:18:51Z</time>
 <fix>none</fix>
 <sat>0</sat>
</trkpt>
<trkpt lat="31.705135000" lon="35.004336667">
<time>2013-04-01T10:18:53Z</time>
 <fix>none</fix>
 <sat>0</sat>
</trkpt>
<trkpt lat="31.705123333" lon="35.004555000">
<time>2013-04-01T10:18:55Z</time>
 <fix>none</fix>
 <sat>0</sat>
</trkpt>
<trkpt lat="31.705133333" lon="35.004785000">
<time>2013-04-01T10:18:57Z</time>
 <fix>none</fix>
 <sat>0</sat>
</trkpt>
<trkpt lat="31.705165000" lon="35.005023333">
<time>2013-04-01T10:18:59Z</time>
 <fix>none</fix>
 <sat>0</sat>
</trkpt>
<trkpt lat="31.705220000" lon="35.005265000">
<time>2013-04-01T10:19:01Z</time>
 <fix>none</fix>
 <sat>0</sat>
</trkpt>
<trkpt lat="31.705253333" lon="35.005388333">
<time>2013-04-01T10:19:03Z</time>
 <fix>none</fix>
 <sat>0</sat>
</trkpt>
<trkpt lat="31.705331667" lon="35.005636667">
<time>2013-04-01T10:19:05Z</time>
 <fix>none</fix>
 <sat>0</sat>
</trkpt>
<trkpt lat="31.705438333" lon="35.005880000">
<time>2013-04-01T10:19:07Z</time>
 <fix>none</fix>
 <sat>0</sat>
</trkpt>
<trkpt lat="31.705570000" lon="35.006110000">
<time>2013-04-01T10:19:09Z</time>
 <fix>none</fix>
 <sat>0</sat>
</trkpt>
<trkpt lat="31.705806667" lon="35.006438333">
<time>2013-04-01T10:19:11Z</time>
 <fix>none</fix>
 <sat>0</sat>
</trkpt>
<trkpt lat="31.705976667" lon="35.006651667">
<time>2013-04-01T10:19:13Z</time>
 <fix>none</fix>
 <sat>0</sat>
</trkpt>
<trkpt lat="31.706138333" lon="35.006850000">
<time>2013-04-01T10:19:15Z</time>
 <fix>none</fix>
 <sat>0</sat>
</trkpt>
<trkpt lat="31.706263333" lon="35.006996667">
<time>2013-04-01T10:19:17Z</time>
 <fix>none</fix>
 <sat>0</sat>
</trkpt>
<trkpt lat="31.706345000" lon="35.007096667">
<time>2013-04-01T10:19:19Z</time>
 <fix>none</fix>
 <sat>0</sat>
</trkpt>
<trkpt lat="31.706408333" lon="35.007173333">
<time>2013-04-01T10:19:21Z</time>
 <fix>none</fix>
 <sat>0</sat>
</trkpt>
<trkpt lat="31.706456667" lon="35.007235000">
<time>2013-04-01T10:19:23Z</time>
 <fix>none</fix>
 <sat>0</sat>
</trkpt>
<trkpt lat="31.706505000" lon="35.007275000">
<time>2013-04-01T10:19:25Z</time>
 <fix>none</fix>
 <sat>0</sat>
</trkpt>
<trkpt lat="31.706530000" lon="35.007286667">
<time>2013-04-01T10:19:27Z</time>
 <fix>none</fix>
 <sat>0</sat>
</trkpt>
<trkpt lat="31.706576667" lon="35.007306667">
<time>2013-04-01T10:19:29Z</time>
 <fix>none</fix>
 <sat>0</sat>
</trkpt>
<trkpt lat="31.706661667" lon="35.007328333">
<time>2013-04-01T10:19:31Z</time>
 <fix>none</fix>
 <sat>0</sat>
</trkpt>
<trkpt lat="31.706710000" lon="35.007326667">
<time>2013-04-01T10:19:33Z</time>
 <fix>none</fix>
 <sat>0</sat>
</trkpt>
<trkpt lat="31.706750000" lon="35.007315000">
<time>2013-04-01T10:19:35Z</time>
 <fix>none</fix>
 <sat>0</sat>
</trkpt>
<trkpt lat="31.706793333" lon="35.007296667">
<time>2013-04-01T10:19:37Z</time>
 <fix>none</fix>
 <sat>0</sat>
</trkpt>
<trkpt lat="31.706848333" lon="35.007265000">
<time>2013-04-01T10:19:39Z</time>
 <fix>none</fix>
 <sat>0</sat>
</trkpt>
<trkpt lat="31.706908333" lon="35.007223333">
<time>2013-04-01T10:19:41Z</time>
 <fix>none</fix>
 <sat>0</sat>
</trkpt>
<trkpt lat="31.706971667" lon="35.007168333">
<time>2013-04-01T10:19:43Z</time>
 <fix>none</fix>
 <sat>0</sat>
</trkpt>
<trkpt lat="31.707048333" lon="35.007108333">
<time>2013-04-01T10:19:45Z</time>
 <fix>none</fix>
 <sat>0</sat>
</trkpt>
<trkpt lat="31.707133333" lon="35.007048333">
<time>2013-04-01T10:19:47Z</time>
 <fix>none</fix>
 <sat>0</sat>
</trkpt>
<trkpt lat="31.707226667" lon="35.006978333">
<time>2013-04-01T10:19:49Z</time>
 <fix>none</fix>
 <sat>0</sat>
</trkpt>
<trkpt lat="31.707276667" lon="35.006941667">
<time>2013-04-01T10:19:51Z</time>
 <fix>none</fix>
 <sat>0</sat>
</trkpt>
<trkpt lat="31.707373333" lon="35.006865000">
<time>2013-04-01T10:19:53Z</time>
 <fix>none</fix>
 <sat>0</sat>
</trkpt>
<trkpt lat="31.707536667" lon="35.006731667">
<time>2013-04-01T10:19:55Z</time>
 <fix>none</fix>
 <sat>0</sat>
</trkpt>
<trkpt lat="31.707660000" lon="35.006633333">
<time>2013-04-01T10:19:57Z</time>
 <fix>none</fix>
 <sat>0</sat>
</trkpt>
<trkpt lat="31.707793333" lon="35.006530000">
<time>2013-04-01T10:19:59Z</time>
 <fix>none</fix>
 <sat>0</sat>
</trkpt>
<trkpt lat="31.707936667" lon="35.006416667">
<time>2013-04-01T10:20:01Z</time>
 <fix>none</fix>
 <sat>0</sat>
</trkpt>
<trkpt lat="31.708086667" lon="35.006300000">
<time>2013-04-01T10:20:03Z</time>
 <fix>none</fix>
 <sat>0</sat>
</trkpt>
<trkpt lat="31.708248333" lon="35.006176667">
<time>2013-04-01T10:20:05Z</time>
 <fix>none</fix>
 <sat>0</sat>
</trkpt>
<trkpt lat="31.708418333" lon="35.006058333">
<time>2013-04-01T10:20:07Z</time>
 <fix>none</fix>
 <sat>0</sat>
</trkpt>
<trkpt lat="31.708600000" lon="35.005948333">
<time>2013-04-01T10:20:09Z</time>
 <fix>none</fix>
 <sat>0</sat>
</trkpt>
<trkpt lat="31.708793333" lon="35.005851667">
<time>2013-04-01T10:20:11Z</time>
 <fix>none</fix>
 <sat>0</sat>
</trkpt>
<trkpt lat="31.708896667" lon="35.005810000">
<time>2013-04-01T10:20:13Z</time>
 <fix>none</fix>
 <sat>0</sat>
</trkpt>
<trkpt lat="31.709110000" lon="35.005743333">
<time>2013-04-01T10:20:15Z</time>
 <fix>none</fix>
 <sat>0</sat>
</trkpt>
<trkpt lat="31.709453333" lon="35.005680000">
<time>2013-04-01T10:20:17Z</time>
 <fix>none</fix>
 <sat>0</sat>
</trkpt>
<trkpt lat="31.709690000" lon="35.005660000">
<time>2013-04-01T10:20:19Z</time>
 <fix>none</fix>
 <sat>0</sat>
</trkpt>
<trkpt lat="31.709936667" lon="35.005661667">
<time>2013-04-01T10:20:21Z</time>
 <fix>none</fix>
 <sat>0</sat>
</trkpt>
<trkpt lat="31.710186667" lon="35.005690000">
<time>2013-04-01T10:20:23Z</time>
 <fix>none</fix>
 <sat>0</sat>
</trkpt>
<trkpt lat="31.710443333" lon="35.005738333">
<time>2013-04-01T10:20:25Z</time>
 <fix>none</fix>
 <sat>0</sat>
</trkpt>
<trkpt lat="31.710705000" lon="35.005795000">
<time>2013-04-01T10:20:27Z</time>
 <fix>none</fix>
 <sat>0</sat>
</trkpt>
<trkpt lat="31.710973333" lon="35.005868333">
<time>2013-04-01T10:20:29Z</time>
 <fix>none</fix>
 <sat>0</sat>
</trkpt>
<trkpt lat="31.711240000" lon="35.005950000">
<time>2013-04-01T10:20:31Z</time>
 <fix>none</fix>
 <sat>0</sat>
</trkpt>
<trkpt lat="31.711503333" lon="35.006043333">
<time>2013-04-01T10:20:33Z</time>
 <fix>none</fix>
 <sat>0</sat>
</trkpt>
<trkpt lat="31.711763333" lon="35.006141667">
<time>2013-04-01T10:20:35Z</time>
 <fix>none</fix>
 <sat>0</sat>
</trkpt>
<trkpt lat="31.711893333" lon="35.006188333">
<time>2013-04-01T10:20:37Z</time>
 <fix>none</fix>
 <sat>0</sat>
</trkpt>
<trkpt lat="31.712145000" lon="35.006281667">
<time>2013-04-01T10:20:39Z</time>
 <fix>none</fix>
 <sat>0</sat>
</trkpt>
<trkpt lat="31.712510000" lon="35.006426667">
<time>2013-04-01T10:20:41Z</time>
 <fix>none</fix>
 <sat>0</sat>
</trkpt>
<trkpt lat="31.712745000" lon="35.006518333">
<time>2013-04-01T10:20:43Z</time>
 <fix>none</fix>
 <sat>0</sat>
</trkpt>
<trkpt lat="31.712971667" lon="35.006613333">
<time>2013-04-01T10:20:45Z</time>
 <fix>none</fix>
 <sat>0</sat>
</trkpt>
<trkpt lat="31.713193333" lon="35.006706667">
<time>2013-04-01T10:20:47Z</time>
 <fix>none</fix>
 <sat>0</sat>
</trkpt>
<trkpt lat="31.713410000" lon="35.006793333">
<time>2013-04-01T10:20:49Z</time>
 <fix>none</fix>
 <sat>0</sat>
</trkpt>
<trkpt lat="31.713621667" lon="35.006878333">
<time>2013-04-01T10:20:51Z</time>
 <fix>none</fix>
 <sat>0</sat>
</trkpt>
<trkpt lat="31.713828333" lon="35.006963333">
<time>2013-04-01T10:20:53Z</time>
 <fix>none</fix>
 <sat>0</sat>
</trkpt>
<trkpt lat="31.714030000" lon="35.007046667">
<time>2013-04-01T10:20:55Z</time>
 <fix>none</fix>
 <sat>0</sat>
</trkpt>
<trkpt lat="31.714231667" lon="35.007126667">
<time>2013-04-01T10:20:57Z</time>
 <fix>none</fix>
 <sat>0</sat>
</trkpt>
<trkpt lat="31.714330000" lon="35.007166667">
<time>2013-04-01T10:20:59Z</time>
 <fix>none</fix>
 <sat>0</sat>
</trkpt>
<trkpt lat="31.714523333" lon="35.007243333">
<time>2013-04-01T10:21:01Z</time>
 <fix>none</fix>
 <sat>0</sat>
</trkpt>
<trkpt lat="31.714715000" lon="35.007321667">
<time>2013-04-01T10:21:03Z</time>
 <fix>none</fix>
 <sat>0</sat>
</trkpt>
<trkpt lat="31.715001667" lon="35.007441667">
<time>2013-04-01T10:21:05Z</time>
 <fix>none</fix>
 <sat>0</sat>
</trkpt>
<trkpt lat="31.715195000" lon="35.007521667">
<time>2013-04-01T10:21:07Z</time>
 <fix>none</fix>
 <sat>0</sat>
</trkpt>
<trkpt lat="31.715386667" lon="35.007605000">
<time>2013-04-01T10:21:09Z</time>
 <fix>none</fix>
 <sat>0</sat>
</trkpt>
<trkpt lat="31.715578333" lon="35.007688333">
<time>2013-04-01T10:21:11Z</time>
 <fix>none</fix>
 <sat>0</sat>
</trkpt>
<trkpt lat="31.715768333" lon="35.007768333">
<time>2013-04-01T10:21:13Z</time>
 <fix>none</fix>
 <sat>0</sat>
</trkpt>
<trkpt lat="31.715960000" lon="35.007845000">
<time>2013-04-01T10:21:15Z</time>
 <fix>none</fix>
 <sat>0</sat>
</trkpt>
<trkpt lat="31.716150000" lon="35.007920000">
<time>2013-04-01T10:21:17Z</time>
 <fix>none</fix>
 <sat>0</sat>
</trkpt>
<trkpt lat="31.716341667" lon="35.007991667">
<time>2013-04-01T10:21:19Z</time>
 <fix>none</fix>
 <sat>0</sat>
</trkpt>
<trkpt lat="31.716436667" lon="35.008030000">
<time>2013-04-01T10:21:21Z</time>
 <fix>none</fix>
 <sat>0</sat>
</trkpt>
<trkpt lat="31.716625000" lon="35.008103333">
<time>2013-04-01T10:21:23Z</time>
 <fix>none</fix>
 <sat>0</sat>
</trkpt>
<trkpt lat="31.716815000" lon="35.008168333">
<time>2013-04-01T10:21:25Z</time>
 <fix>none</fix>
 <sat>0</sat>
</trkpt>
<trkpt lat="31.717098333" lon="35.008253333">
<time>2013-04-01T10:21:27Z</time>
 <fix>none</fix>
 <sat>0</sat>
</trkpt>
<trkpt lat="31.717286667" lon="35.008303333">
<time>2013-04-01T10:21:29Z</time>
 <fix>none</fix>
 <sat>0</sat>
</trkpt>
<trkpt lat="31.717475000" lon="35.008343333">
<time>2013-04-01T10:21:31Z</time>
 <fix>none</fix>
 <sat>0</sat>
</trkpt>
<trkpt lat="31.717663333" lon="35.008368333">
<time>2013-04-01T10:21:33Z</time>
 <fix>none</fix>
 <sat>0</sat>
</trkpt>
<trkpt lat="31.717853333" lon="35.008390000">
<time>2013-04-01T10:21:35Z</time>
 <fix>none</fix>
 <sat>0</sat>
</trkpt>
<trkpt lat="31.718040000" lon="35.008411667">
<time>2013-04-01T10:21:37Z</time>
 <fix>none</fix>
 <sat>0</sat>
</trkpt>
<trkpt lat="31.718221667" lon="35.008428333">
<time>2013-04-01T10:21:39Z</time>
 <fix>none</fix>
 <sat>0</sat>
</trkpt>
<trkpt lat="31.718368333" lon="35.008446667">
<time>2013-04-01T10:21:41Z</time>
 <fix>none</fix>
 <sat>0</sat>
</trkpt>
<trkpt lat="31.718421667" lon="35.008455000">
<time>2013-04-01T10:21:43Z</time>
 <fix>none</fix>
 <sat>0</sat>
</trkpt>
<trkpt lat="31.718503333" lon="35.008466667">
<time>2013-04-01T10:21:45Z</time>
 <fix>none</fix>
 <sat>0</sat>
</trkpt>
<trkpt lat="31.718546667" lon="35.008468333">
<time>2013-04-01T10:21:47Z</time>
 <fix>none</fix>
 <sat>0</sat>
</trkpt>
<trkpt lat="31.718570000" lon="35.008465000">
<time>2013-04-01T10:21:49Z</time>
 <fix>none</fix>
 <sat>0</sat>
</trkpt>
<trkpt lat="31.718570000" lon="35.008460000">
<time>2013-04-01T10:21:51Z</time>
 <fix>none</fix>
 <sat>0</sat>
</trkpt>
<trkpt lat="31.718570000" lon="35.008458333">
<time>2013-04-01T10:21:53Z</time>
 <fix>none</fix>
 <sat>0</sat>
</trkpt>
<trkpt lat="31.718570000" lon="35.008455000">
<time>2013-04-01T10:21:55Z</time>
 <fix>none</fix>
 <sat>0</sat>
</trkpt>
<trkpt lat="31.718571667" lon="35.008443333">
<time>2013-04-01T10:21:57Z</time>
 <fix>none</fix>
 <sat>0</sat>
</trkpt>
<trkpt lat="31.718568333" lon="35.008438333">
<time>2013-04-01T10:21:59Z</time>
 <fix>none</fix>
 <sat>0</sat>
</trkpt>
<trkpt lat="31.718565000" lon="35.008435000">
<time>2013-04-01T10:22:01Z</time>
 <fix>none</fix>
 <sat>0</sat>
</trkpt>
<trkpt lat="31.718563333" lon="35.008426667">
<time>2013-04-01T10:22:03Z</time>
 <fix>none</fix>
 <sat>0</sat>
</trkpt>
<trkpt lat="31.718561667" lon="35.008420000">
<time>2013-04-01T10:22:05Z</time>
 <fix>none</fix>
 <sat>0</sat>
</trkpt>
<trkpt lat="31.718565000" lon="35.008413333">
<time>2013-04-01T10:22:07Z</time>
 <fix>none</fix>
 <sat>0</sat>
</trkpt>
<trkpt lat="31.718558333" lon="35.008416667">
<time>2013-04-01T10:22:09Z</time>
 <fix>none</fix>
 <sat>0</sat>
</trkpt>
<trkpt lat="31.718563333" lon="35.008411667">
<time>2013-04-01T10:22:11Z</time>
 <fix>none</fix>
 <sat>0</sat>
</trkpt>
<trkpt lat="31.718573333" lon="35.008408333">
<time>2013-04-01T10:22:13Z</time>
 <fix>none</fix>
 <sat>0</sat>
</trkpt>
<trkpt lat="31.718575000" lon="35.008406667">
<time>2013-04-01T10:22:15Z</time>
 <fix>none</fix>
 <sat>0</sat>
</trkpt>
<trkpt lat="31.718570000" lon="35.008403333">
<time>2013-04-01T10:22:17Z</time>
 <fix>none</fix>
 <sat>0</sat>
</trkpt>
<trkpt lat="31.718570000" lon="35.008403333">
<time>2013-04-01T10:22:19Z</time>
 <fix>none</fix>
 <sat>0</sat>
</trkpt>
<trkpt lat="31.718536667" lon="35.008408333">
<time>2013-04-01T10:22:21Z</time>
 <fix>none</fix>
 <sat>0</sat>
</trkpt>
<trkpt lat="31.718526667" lon="35.008406667">
<time>2013-04-01T10:22:23Z</time>
 <fix>none</fix>
 <sat>0</sat>
</trkpt>
<trkpt lat="31.718515000" lon="35.008403333">
<time>2013-04-01T10:22:25Z</time>
 <fix>none</fix>
 <sat>0</sat>
</trkpt>
<trkpt lat="31.718505000" lon="35.008398333">
<time>2013-04-01T10:22:27Z</time>
 <fix>none</fix>
 <sat>0</sat>
</trkpt>
<trkpt lat="31.718488333" lon="35.008390000">
<time>2013-04-01T10:22:29Z</time>
 <fix>none</fix>
 <sat>0</sat>
</trkpt>
<trkpt lat="31.718481667" lon="35.008383333">
<time>2013-04-01T10:22:31Z</time>
 <fix>none</fix>
 <sat>0</sat>
</trkpt>
<trkpt lat="31.718475000" lon="35.008370000">
<time>2013-04-01T10:22:33Z</time>
 <fix>none</fix>
 <sat>0</sat>
</trkpt>
<trkpt lat="31.718473333" lon="35.008355000">
<time>2013-04-01T10:22:35Z</time>
 <fix>none</fix>
 <sat>0</sat>
</trkpt>
<trkpt lat="31.718463333" lon="35.008341667">
<time>2013-04-01T10:22:37Z</time>
 <fix>none</fix>
 <sat>0</sat>
</trkpt>
<trkpt lat="31.718461667" lon="35.008338333">
<time>2013-04-01T10:22:39Z</time>
 <fix>none</fix>
 <sat>0</sat>
</trkpt>
<trkpt lat="31.718443333" lon="35.008331667">
<time>2013-04-01T10:22:41Z</time>
 <fix>none</fix>
 <sat>0</sat>
</trkpt>
<trkpt lat="31.718423333" lon="35.008331667">
<time>2013-04-01T10:22:43Z</time>
 <fix>none</fix>
 <sat>0</sat>
</trkpt>
<trkpt lat="31.718408333" lon="35.008323333">
<time>2013-04-01T10:22:45Z</time>
 <fix>none</fix>
 <sat>0</sat>
</trkpt>
<trkpt lat="31.718438333" lon="35.008338333">
<time>2013-04-01T10:22:47Z</time>
 <fix>none</fix>
 <sat>0</sat>
</trkpt>
<trkpt lat="31.718466667" lon="35.008343333">
<time>2013-04-01T10:22:49Z</time>
 <fix>none</fix>
 <sat>0</sat>
</trkpt>
<trkpt lat="31.718485000" lon="35.008336667">
<time>2013-04-01T10:22:51Z</time>
 <fix>none</fix>
 <sat>0</sat>
</trkpt>
<trkpt lat="31.718490000" lon="35.008333333">
<time>2013-04-01T10:22:53Z</time>
 <fix>none</fix>
 <sat>0</sat>
</trkpt>
<trkpt lat="31.718496667" lon="35.008333333">
<time>2013-04-01T10:22:55Z</time>
 <fix>none</fix>
 <sat>0</sat>
</trkpt>
<trkpt lat="31.718510000" lon="35.008318333">
<time>2013-04-01T10:22:57Z</time>
 <fix>none</fix>
 <sat>0</sat>
</trkpt>
<trkpt lat="31.718516667" lon="35.008303333">
<time>2013-04-01T10:22:59Z</time>
 <fix>none</fix>
 <sat>0</sat>
</trkpt>
<trkpt lat="31.718516667" lon="35.008301667">
<time>2013-04-01T10:23:01Z</time>
 <fix>none</fix>
 <sat>0</sat>
</trkpt>
<trkpt lat="31.718518333" lon="35.008305000">
<time>2013-04-01T10:23:03Z</time>
 <fix>none</fix>
 <sat>0</sat>
</trkpt>
<trkpt lat="31.718526667" lon="35.008291667">
<time>2013-04-01T10:23:05Z</time>
 <fix>none</fix>
 <sat>0</sat>
</trkpt>
<trkpt lat="31.718531667" lon="35.008280000">
<time>2013-04-01T10:23:07Z</time>
 <fix>none</fix>
 <sat>0</sat>
</trkpt>
<trkpt lat="31.718538333" lon="35.008281667">
<time>2013-04-01T10:23:09Z</time>
 <fix>none</fix>
 <sat>0</sat>
</trkpt>
<trkpt lat="31.718541667" lon="35.008286667">
<time>2013-04-01T10:23:11Z</time>
 <fix>none</fix>
 <sat>0</sat>
</trkpt>
<trkpt lat="31.718536667" lon="35.008295000">
<time>2013-04-01T10:23:13Z</time>
 <fix>none</fix>
 <sat>0</sat>
</trkpt>
<trkpt lat="31.718535000" lon="35.008300000">
<time>2013-04-01T10:23:15Z</time>
 <fix>none</fix>
 <sat>0</sat>
</trkpt>
<trkpt lat="31.718536667" lon="35.008291667">
<time>2013-04-01T10:23:17Z</time>
 <fix>none</fix>
 <sat>0</sat>
</trkpt>
<trkpt lat="31.718548333" lon="35.008266667">
<time>2013-04-01T10:23:19Z</time>
 <fix>none</fix>
 <sat>0</sat>
</trkpt>
<trkpt lat="31.718551667" lon="35.008236667">
<time>2013-04-01T10:23:21Z</time>
 <fix>none</fix>
 <sat>0</sat>
</trkpt>
<trkpt lat="31.718570000" lon="35.008208333">
<time>2013-04-01T10:23:23Z</time>
 <fix>none</fix>
 <sat>0</sat>
</trkpt>
<trkpt lat="31.718585000" lon="35.008173333">
<time>2013-04-01T10:23:25Z</time>
 <fix>none</fix>
 <sat>0</sat>
</trkpt>
<trkpt lat="31.718606667" lon="35.008141667">
<time>2013-04-01T10:23:27Z</time>
 <fix>none</fix>
 <sat>0</sat>
</trkpt>
<trkpt lat="31.718613333" lon="35.008118333">
<time>2013-04-01T10:23:29Z</time>
 <fix>none</fix>
 <sat>0</sat>
</trkpt>
<trkpt lat="31.718628333" lon="35.008091667">
<time>2013-04-01T10:23:31Z</time>
 <fix>none</fix>
 <sat>0</sat>
</trkpt>
<trkpt lat="31.718646667" lon="35.008066667">
<time>2013-04-01T10:23:33Z</time>
 <fix>none</fix>
 <sat>0</sat>
</trkpt>
<trkpt lat="31.718671667" lon="35.008040000">
<time>2013-04-01T10:23:35Z</time>
 <fix>none</fix>
 <sat>0</sat>
</trkpt>
<trkpt lat="31.718691667" lon="35.008015000">
<time>2013-04-01T10:23:37Z</time>
 <fix>none</fix>
 <sat>0</sat>
</trkpt>
<trkpt lat="31.718705000" lon="35.007998333">
<time>2013-04-01T10:23:39Z</time>
 <fix>none</fix>
 <sat>0</sat>
</trkpt>
<trkpt lat="31.718725000" lon="35.007970000">
<time>2013-04-01T10:23:41Z</time>
 <fix>none</fix>
 <sat>0</sat>
</trkpt>
<trkpt lat="31.718756667" lon="35.007933333">
<time>2013-04-01T10:23:43Z</time>
 <fix>none</fix>
 <sat>0</sat>
</trkpt>
<trkpt lat="31.718775000" lon="35.007913333">
<time>2013-04-01T10:23:45Z</time>
 <fix>none</fix>
 <sat>0</sat>
</trkpt>
<trkpt lat="31.718790000" lon="35.007891667">
<time>2013-04-01T10:23:47Z</time>
 <fix>none</fix>
 <sat>0</sat>
</trkpt>
<trkpt lat="31.718800000" lon="35.007881667">
<time>2013-04-01T10:23:49Z</time>
 <fix>none</fix>
 <sat>0</sat>
</trkpt>
<trkpt lat="31.718826667" lon="35.007850000">
<time>2013-04-01T10:23:51Z</time>
 <fix>none</fix>
 <sat>0</sat>
</trkpt>
<trkpt lat="31.718845000" lon="35.007828333">
<time>2013-04-01T10:23:53Z</time>
 <fix>none</fix>
 <sat>0</sat>
</trkpt>
<trkpt lat="31.718871667" lon="35.007803333">
<time>2013-04-01T10:23:55Z</time>
 <fix>none</fix>
 <sat>0</sat>
</trkpt>
<trkpt lat="31.718895000" lon="35.007781667">
<time>2013-04-01T10:23:57Z</time>
 <fix>none</fix>
 <sat>0</sat>
</trkpt>
<trkpt lat="31.718911667" lon="35.007758333">
<time>2013-04-01T10:23:59Z</time>
 <fix>none</fix>
 <sat>0</sat>
</trkpt>
<trkpt lat="31.718918333" lon="35.007748333">
<time>2013-04-01T10:24:01Z</time>
 <fix>none</fix>
 <sat>0</sat>
</trkpt>
<trkpt lat="31.718941667" lon="35.007728333">
<time>2013-04-01T10:24:03Z</time>
 <fix>none</fix>
 <sat>0</sat>
</trkpt>
<trkpt lat="31.718970000" lon="35.007685000">
<time>2013-04-01T10:24:05Z</time>
 <fix>none</fix>
 <sat>0</sat>
</trkpt>
<trkpt lat="31.718983333" lon="35.007661667">
<time>2013-04-01T10:24:07Z</time>
 <fix>none</fix>
 <sat>0</sat>
</trkpt>
<trkpt lat="31.718996667" lon="35.007643333">
<time>2013-04-01T10:24:09Z</time>
 <fix>none</fix>
 <sat>0</sat>
</trkpt>
<trkpt lat="31.719013333" lon="35.007623333">
<time>2013-04-01T10:24:11Z</time>
 <fix>none</fix>
 <sat>0</sat>
</trkpt>
<trkpt lat="31.719020000" lon="35.007598333">
<time>2013-04-01T10:24:13Z</time>
 <fix>none</fix>
 <sat>0</sat>
</trkpt>
<trkpt lat="31.719028333" lon="35.007573333">
<time>2013-04-01T10:24:15Z</time>
 <fix>none</fix>
 <sat>0</sat>
</trkpt>
<trkpt lat="31.719056667" lon="35.007553333">
<time>2013-04-01T10:24:17Z</time>
 <fix>none</fix>
 <sat>0</sat>
</trkpt>
<trkpt lat="31.719063333" lon="35.007553333">
<time>2013-04-01T10:24:19Z</time>
 <fix>none</fix>
 <sat>0</sat>
</trkpt>
<trkpt lat="31.719063333" lon="35.007546667">
<time>2013-04-01T10:24:21Z</time>
 <fix>none</fix>
 <sat>0</sat>
</trkpt>
<trkpt lat="31.719068333" lon="35.007536667">
<time>2013-04-01T10:24:23Z</time>
 <fix>none</fix>
 <sat>0</sat>
</trkpt>
<trkpt lat="31.719086667" lon="35.007525000">
<time>2013-04-01T10:24:25Z</time>
 <fix>none</fix>
 <sat>0</sat>
</trkpt>
<trkpt lat="31.719085000" lon="35.007525000">
<time>2013-04-01T10:24:27Z</time>
 <fix>none</fix>
 <sat>0</sat>
</trkpt>
<trkpt lat="31.719110000" lon="35.007516667">
<time>2013-04-01T10:24:29Z</time>
 <fix>none</fix>
 <sat>0</sat>
</trkpt>
<trkpt lat="31.719130000" lon="35.007508333">
<time>2013-04-01T10:24:31Z</time>
 <fix>none</fix>
 <sat>0</sat>
</trkpt>
<trkpt lat="31.719148333" lon="35.007493333">
<time>2013-04-01T10:24:33Z</time>
 <fix>none</fix>
 <sat>0</sat>
</trkpt>
<trkpt lat="31.719158333" lon="35.007478333">
<time>2013-04-01T10:24:35Z</time>
 <fix>none</fix>
 <sat>0</sat>
</trkpt>
<trkpt lat="31.719155000" lon="35.007471667">
<time>2013-04-01T10:24:37Z</time>
 <fix>none</fix>
 <sat>0</sat>
</trkpt>
<trkpt lat="31.719166667" lon="35.007463333">
<time>2013-04-01T10:24:39Z</time>
 <fix>none</fix>
 <sat>0</sat>
</trkpt>
<trkpt lat="31.719185000" lon="35.007450000">
<time>2013-04-01T10:24:41Z</time>
 <fix>none</fix>
 <sat>0</sat>
</trkpt>
<trkpt lat="31.719213333" lon="35.007431667">
<time>2013-04-01T10:24:43Z</time>
 <fix>none</fix>
 <sat>0</sat>
</trkpt>
<trkpt lat="31.719241667" lon="35.007413333">
<time>2013-04-01T10:24:45Z</time>
 <fix>none</fix>
 <sat>0</sat>
</trkpt>
<trkpt lat="31.719250000" lon="35.007406667">
<time>2013-04-01T10:24:47Z</time>
 <fix>none</fix>
 <sat>0</sat>
</trkpt>
<trkpt lat="31.719260000" lon="35.007395000">
<time>2013-04-01T10:24:49Z</time>
 <fix>none</fix>
 <sat>0</sat>
</trkpt>
<trkpt lat="31.719273333" lon="35.007376667">
<time>2013-04-01T10:24:51Z</time>
 <fix>none</fix>
 <sat>0</sat>
</trkpt>
<trkpt lat="31.719286667" lon="35.007366667">
<time>2013-04-01T10:24:53Z</time>
 <fix>none</fix>
 <sat>0</sat>
</trkpt>
<trkpt lat="31.719296667" lon="35.007348333">
<time>2013-04-01T10:24:55Z</time>
 <fix>none</fix>
 <sat>0</sat>
</trkpt>
<trkpt lat="31.719305000" lon="35.007336667">
<time>2013-04-01T10:24:57Z</time>
 <fix>none</fix>
 <sat>0</sat>
</trkpt>
<trkpt lat="31.719313333" lon="35.007338333">
<time>2013-04-01T10:24:59Z</time>
 <fix>none</fix>
 <sat>0</sat>
</trkpt>
<trkpt lat="31.719326667" lon="35.007330000">
<time>2013-04-01T10:25:01Z</time>
 <fix>none</fix>
 <sat>0</sat>
</trkpt>
<trkpt lat="31.719353333" lon="35.007311667">
<time>2013-04-01T10:25:03Z</time>
 <fix>none</fix>
 <sat>0</sat>
</trkpt>
<trkpt lat="31.719376667" lon="35.007293333">
<time>2013-04-01T10:25:05Z</time>
 <fix>none</fix>
 <sat>0</sat>
</trkpt>
<trkpt lat="31.719386667" lon="35.007278333">
<time>2013-04-01T10:25:07Z</time>
 <fix>none</fix>
 <sat>0</sat>
</trkpt>
<trkpt lat="31.719388333" lon="35.007270000">
<time>2013-04-01T10:25:09Z</time>
 <fix>none</fix>
 <sat>0</sat>
</trkpt>
<trkpt lat="31.719390000" lon="35.007255000">
<time>2013-04-01T10:25:11Z</time>
 <fix>none</fix>
 <sat>0</sat>
</trkpt>
<trkpt lat="31.719391667" lon="35.007240000">
<time>2013-04-01T10:25:13Z</time>
 <fix>none</fix>
 <sat>0</sat>
</trkpt>
<trkpt lat="31.719393333" lon="35.007216667">
<time>2013-04-01T10:25:15Z</time>
 <fix>none</fix>
 <sat>0</sat>
</trkpt>
<trkpt lat="31.719398333" lon="35.007203333">
<time>2013-04-01T10:25:17Z</time>
 <fix>none</fix>
 <sat>0</sat>
</trkpt>
<trkpt lat="31.719403333" lon="35.007188333">
<time>2013-04-01T10:25:19Z</time>
 <fix>none</fix>
 <sat>0</sat>
</trkpt>
<trkpt lat="31.719408333" lon="35.007175000">
<time>2013-04-01T10:25:21Z</time>
 <fix>none</fix>
 <sat>0</sat>
</trkpt>
<trkpt lat="31.719413333" lon="35.007158333">
<time>2013-04-01T10:25:23Z</time>
 <fix>none</fix>
 <sat>0</sat>
</trkpt>
<trkpt lat="31.719421667" lon="35.007145000">
<time>2013-04-01T10:25:25Z</time>
 <fix>none</fix>
 <sat>0</sat>
</trkpt>
<trkpt lat="31.719435000" lon="35.007135000">
<time>2013-04-01T10:25:27Z</time>
 <fix>none</fix>
 <sat>0</sat>
</trkpt>
<trkpt lat="31.719450000" lon="35.007123333">
<time>2013-04-01T10:25:29Z</time>
 <fix>none</fix>
 <sat>0</sat>
</trkpt>
<trkpt lat="31.719463333" lon="35.007111667">
<time>2013-04-01T10:25:31Z</time>
 <fix>none</fix>
 <sat>0</sat>
</trkpt>
<trkpt lat="31.719471667" lon="35.007105000">
<time>2013-04-01T10:25:33Z</time>
 <fix>none</fix>
 <sat>0</sat>
</trkpt>
<trkpt lat="31.719483333" lon="35.007095000">
<time>2013-04-01T10:25:35Z</time>
 <fix>none</fix>
 <sat>0</sat>
</trkpt>
<trkpt lat="31.719498333" lon="35.007085000">
<time>2013-04-01T10:25:37Z</time>
 <fix>none</fix>
 <sat>0</sat>
</trkpt>
<trkpt lat="31.719516667" lon="35.007076667">
<time>2013-04-01T10:25:39Z</time>
 <fix>none</fix>
 <sat>0</sat>
</trkpt>
<trkpt lat="31.719530000" lon="35.007063333">
<time>2013-04-01T10:25:41Z</time>
 <fix>none</fix>
 <sat>0</sat>
</trkpt>
<trkpt lat="31.719540000" lon="35.007063333">
<time>2013-04-01T10:25:43Z</time>
 <fix>none</fix>
 <sat>0</sat>
</trkpt>
<trkpt lat="31.719555000" lon="35.007046667">
<time>2013-04-01T10:25:45Z</time>
 <fix>none</fix>
 <sat>0</sat>
</trkpt>
<trkpt lat="31.719558333" lon="35.007040000">
<time>2013-04-01T10:25:47Z</time>
 <fix>none</fix>
 <sat>0</sat>
</trkpt>
<trkpt lat="31.719560000" lon="35.007038333">
<time>2013-04-01T10:25:49Z</time>
 <fix>none</fix>
 <sat>0</sat>
</trkpt>
<trkpt lat="31.719573333" lon="35.007045000">
<time>2013-04-01T10:25:51Z</time>
 <fix>none</fix>
 <sat>0</sat>
</trkpt>
<trkpt lat="31.719578333" lon="35.007065000">
<time>2013-04-01T10:25:53Z</time>
 <fix>none</fix>
 <sat>0</sat>
</trkpt>
<trkpt lat="31.719588333" lon="35.007063333">
<time>2013-04-01T10:25:55Z</time>
 <fix>none</fix>
 <sat>0</sat>
</trkpt>
<trkpt lat="31.719603333" lon="35.007048333">
<time>2013-04-01T10:25:57Z</time>
 <fix>none</fix>
 <sat>0</sat>
</trkpt>
<trkpt lat="31.719620000" lon="35.007040000">
<time>2013-04-01T10:25:59Z</time>
 <fix>none</fix>
 <sat>0</sat>
</trkpt>
<trkpt lat="31.719635000" lon="35.007033333">
<time>2013-04-01T10:26:01Z</time>
 <fix>none</fix>
 <sat>0</sat>
</trkpt>
<trkpt lat="31.719653333" lon="35.007036667">
<time>2013-04-01T10:26:03Z</time>
 <fix>none</fix>
 <sat>0</sat>
</trkpt>
<trkpt lat="31.719663333" lon="35.007041667">
<time>2013-04-01T10:26:05Z</time>
 <fix>none</fix>
 <sat>0</sat>
</trkpt>
<trkpt lat="31.719680000" lon="35.007028333">
<time>2013-04-01T10:26:07Z</time>
 <fix>none</fix>
 <sat>0</sat>
</trkpt>
<trkpt lat="31.719696667" lon="35.007018333">
<time>2013-04-01T10:26:09Z</time>
 <fix>none</fix>
 <sat>0</sat>
</trkpt>
<trkpt lat="31.719715000" lon="35.007005000">
<time>2013-04-01T10:26:11Z</time>
 <fix>none</fix>
 <sat>0</sat>
</trkpt>
<trkpt lat="31.719726667" lon="35.006995000">
<time>2013-04-01T10:26:13Z</time>
 <fix>none</fix>
 <sat>0</sat>
</trkpt>
<trkpt lat="31.719728333" lon="35.006988333">
<time>2013-04-01T10:26:15Z</time>
 <fix>none</fix>
 <sat>0</sat>
</trkpt>
<trkpt lat="31.719725000" lon="35.006991667">
<time>2013-04-01T10:26:17Z</time>
 <fix>none</fix>
 <sat>0</sat>
</trkpt>
<trkpt lat="31.719728333" lon="35.006985000">
<time>2013-04-01T10:26:19Z</time>
 <fix>none</fix>
 <sat>0</sat>
</trkpt>
<trkpt lat="31.719738333" lon="35.006955000">
<time>2013-04-01T10:26:21Z</time>
 <fix>none</fix>
 <sat>0</sat>
</trkpt>
<trkpt lat="31.719738333" lon="35.006955000">
<time>2013-04-01T10:26:23Z</time>
 <fix>none</fix>
 <sat>0</sat>
</trkpt>
<trkpt lat="31.719755000" lon="35.006975000">
<time>2013-04-01T10:26:25Z</time>
 <fix>none</fix>
 <sat>0</sat>
</trkpt>
<trkpt lat="31.719775000" lon="35.006980000">
<time>2013-04-01T10:26:27Z</time>
 <fix>none</fix>
 <sat>0</sat>
</trkpt>
<trkpt lat="31.719803333" lon="35.006961667">
<time>2013-04-01T10:26:29Z</time>
 <fix>none</fix>
 <sat>0</sat>
</trkpt>
<trkpt lat="31.719830000" lon="35.006956667">
<time>2013-04-01T10:26:31Z</time>
 <fix>none</fix>
 <sat>0</sat>
</trkpt>
<trkpt lat="31.719858333" lon="35.006940000">
<time>2013-04-01T10:26:33Z</time>
 <fix>none</fix>
 <sat>0</sat>
</trkpt>
<trkpt lat="31.719876667" lon="35.006928333">
<time>2013-04-01T10:26:35Z</time>
 <fix>none</fix>
 <sat>0</sat>
</trkpt>
<trkpt lat="31.719886667" lon="35.006931667">
<time>2013-04-01T10:26:37Z</time>
 <fix>none</fix>
 <sat>0</sat>
</trkpt>
<trkpt lat="31.719871667" lon="35.006955000">
<time>2013-04-01T10:26:39Z</time>
 <fix>none</fix>
 <sat>0</sat>
</trkpt>
<trkpt lat="31.719866667" lon="35.006966667">
<time>2013-04-01T10:26:41Z</time>
 <fix>none</fix>
 <sat>0</sat>
</trkpt>
<trkpt lat="31.719856667" lon="35.006998333">
<time>2013-04-01T10:26:43Z</time>
 <fix>none</fix>
 <sat>0</sat>
</trkpt>
<trkpt lat="31.719866667" lon="35.006991667">
<time>2013-04-01T10:26:45Z</time>
 <fix>none</fix>
 <sat>0</sat>
</trkpt>
<trkpt lat="31.719875000" lon="35.006971667">
<time>2013-04-01T10:26:47Z</time>
 <fix>none</fix>
 <sat>0</sat>
</trkpt>
<trkpt lat="31.719876667" lon="35.006961667">
<time>2013-04-01T10:26:49Z</time>
 <fix>none</fix>
 <sat>0</sat>
</trkpt>
<trkpt lat="31.719878333" lon="35.006946667">
<time>2013-04-01T10:26:51Z</time>
 <fix>none</fix>
 <sat>0</sat>
</trkpt>
<trkpt lat="31.719883333" lon="35.006946667">
<time>2013-04-01T10:26:53Z</time>
 <fix>none</fix>
 <sat>0</sat>
</trkpt>
<trkpt lat="31.719900000" lon="35.006936667">
<time>2013-04-01T10:26:55Z</time>
 <fix>none</fix>
 <sat>0</sat>
</trkpt>
<trkpt lat="31.719921667" lon="35.006926667">
<time>2013-04-01T10:26:57Z</time>
 <fix>none</fix>
 <sat>0</sat>
</trkpt>
<trkpt lat="31.719941667" lon="35.006920000">
<time>2013-04-01T10:26:59Z</time>
 <fix>none</fix>
 <sat>0</sat>
</trkpt>
<trkpt lat="31.719961667" lon="35.006913333">
<time>2013-04-01T10:27:01Z</time>
 <fix>none</fix>
 <sat>0</sat>
</trkpt>
<trkpt lat="31.719973333" lon="35.006910000">
<time>2013-04-01T10:27:03Z</time>
 <fix>none</fix>
 <sat>0</sat>
</trkpt>
<trkpt lat="31.719991667" lon="35.006908333">
<time>2013-04-01T10:27:05Z</time>
 <fix>none</fix>
 <sat>0</sat>
</trkpt>
<trkpt lat="31.720025000" lon="35.006891667">
<time>2013-04-01T10:27:07Z</time>
 <fix>none</fix>
 <sat>0</sat>
</trkpt>
<trkpt lat="31.720045000" lon="35.006883333">
<time>2013-04-01T10:27:09Z</time>
 <fix>none</fix>
 <sat>0</sat>
</trkpt>
<trkpt lat="31.720066667" lon="35.006880000">
<time>2013-04-01T10:27:11Z</time>
 <fix>none</fix>
 <sat>0</sat>
</trkpt>
<trkpt lat="31.720086667" lon="35.006876667">
<time>2013-04-01T10:27:13Z</time>
 <fix>none</fix>
 <sat>0</sat>
</trkpt>
<trkpt lat="31.720105000" lon="35.006873333">
<time>2013-04-01T10:27:15Z</time>
 <fix>none</fix>
 <sat>0</sat>
</trkpt>
<trkpt lat="31.720110000" lon="35.006865000">
<time>2013-04-01T10:27:17Z</time>
 <fix>none</fix>
 <sat>0</sat>
</trkpt>
<trkpt lat="31.720105000" lon="35.006868333">
<time>2013-04-01T10:27:19Z</time>
 <fix>none</fix>
 <sat>0</sat>
</trkpt>
<trkpt lat="31.720101667" lon="35.006871667">
<time>2013-04-01T10:27:21Z</time>
 <fix>none</fix>
 <sat>0</sat>
</trkpt>
<trkpt lat="31.720095000" lon="35.006883333">
<time>2013-04-01T10:27:23Z</time>
 <fix>none</fix>
 <sat>0</sat>
</trkpt>
<trkpt lat="31.720090000" lon="35.006888333">
<time>2013-04-01T10:27:25Z</time>
 <fix>none</fix>
 <sat>0</sat>
</trkpt>
<trkpt lat="31.720090000" lon="35.006888333">
<time>2013-04-01T10:27:27Z</time>
 <fix>none</fix>
 <sat>0</sat>
</trkpt>
<trkpt lat="31.720090000" lon="35.006886667">
<time>2013-04-01T10:27:29Z</time>
 <fix>none</fix>
 <sat>0</sat>
</trkpt>
<trkpt lat="31.720095000" lon="35.006890000">
<time>2013-04-01T10:27:31Z</time>
 <fix>none</fix>
 <sat>0</sat>
</trkpt>
<trkpt lat="31.720103333" lon="35.006886667">
<time>2013-04-01T10:27:33Z</time>
 <fix>none</fix>
 <sat>0</sat>
</trkpt>
<trkpt lat="31.720125000" lon="35.006876667">
<time>2013-04-01T10:27:35Z</time>
 <fix>none</fix>
 <sat>0</sat>
</trkpt>
<trkpt lat="31.720141667" lon="35.006858333">
<time>2013-04-01T10:27:37Z</time>
 <fix>none</fix>
 <sat>0</sat>
</trkpt>
<trkpt lat="31.720158333" lon="35.006840000">
<time>2013-04-01T10:27:39Z</time>
 <fix>none</fix>
 <sat>0</sat>
</trkpt>
<trkpt lat="31.720176667" lon="35.006825000">
<time>2013-04-01T10:27:41Z</time>
 <fix>none</fix>
 <sat>0</sat>
</trkpt>
<trkpt lat="31.720196667" lon="35.006816667">
<time>2013-04-01T10:27:43Z</time>
 <fix>none</fix>
 <sat>0</sat>
</trkpt>
<trkpt lat="31.720216667" lon="35.006821667">
<time>2013-04-01T10:27:45Z</time>
 <fix>none</fix>
 <sat>0</sat>
</trkpt>
<trkpt lat="31.720238333" lon="35.006815000">
<time>2013-04-01T10:27:47Z</time>
 <fix>none</fix>
 <sat>0</sat>
</trkpt>
<trkpt lat="31.720250000" lon="35.006813333">
<time>2013-04-01T10:27:49Z</time>
 <fix>none</fix>
 <sat>0</sat>
</trkpt>
<trkpt lat="31.720283333" lon="35.006805000">
<time>2013-04-01T10:27:51Z</time>
 <fix>none</fix>
 <sat>0</sat>
</trkpt>
<trkpt lat="31.720305000" lon="35.006801667">
<time>2013-04-01T10:27:53Z</time>
 <fix>none</fix>
 <sat>0</sat>
</trkpt>
<trkpt lat="31.720323333" lon="35.006810000">
<time>2013-04-01T10:27:55Z</time>
 <fix>none</fix>
 <sat>0</sat>
</trkpt>
<trkpt lat="31.720335000" lon="35.006816667">
<time>2013-04-01T10:27:57Z</time>
 <fix>none</fix>
 <sat>0</sat>
</trkpt>
<trkpt lat="31.720353333" lon="35.006813333">
<time>2013-04-01T10:27:59Z</time>
 <fix>none</fix>
 <sat>0</sat>
</trkpt>
<trkpt lat="31.720371667" lon="35.006808333">
<time>2013-04-01T10:28:01Z</time>
 <fix>none</fix>
 <sat>0</sat>
</trkpt>
<trkpt lat="31.720380000" lon="35.006806667">
<time>2013-04-01T10:28:03Z</time>
 <fix>none</fix>
 <sat>0</sat>
</trkpt>
<trkpt lat="31.720413333" lon="35.006805000">
<time>2013-04-01T10:28:05Z</time>
 <fix>none</fix>
 <sat>0</sat>
</trkpt>
<trkpt lat="31.720438333" lon="35.006801667">
<time>2013-04-01T10:28:07Z</time>
 <fix>none</fix>
 <sat>0</sat>
</trkpt>
<trkpt lat="31.720460000" lon="35.006801667">
<time>2013-04-01T10:28:09Z</time>
 <fix>none</fix>
 <sat>0</sat>
</trkpt>
<trkpt lat="31.720470000" lon="35.006803333">
<time>2013-04-01T10:28:11Z</time>
 <fix>none</fix>
 <sat>0</sat>
</trkpt>
<trkpt lat="31.720491667" lon="35.006805000">
<time>2013-04-01T10:28:13Z</time>
 <fix>none</fix>
 <sat>0</sat>
</trkpt>
<trkpt lat="31.720526667" lon="35.006800000">
<time>2013-04-01T10:28:15Z</time>
 <fix>none</fix>
 <sat>0</sat>
</trkpt>
<trkpt lat="31.720550000" lon="35.006796667">
<time>2013-04-01T10:28:17Z</time>
 <fix>none</fix>
 <sat>0</sat>
</trkpt>
<trkpt lat="31.720575000" lon="35.006783333">
<time>2013-04-01T10:28:19Z</time>
 <fix>none</fix>
 <sat>0</sat>
</trkpt>
<trkpt lat="31.720600000" lon="35.006773333">
<time>2013-04-01T10:28:21Z</time>
 <fix>none</fix>
 <sat>0</sat>
</trkpt>
<trkpt lat="31.720623333" lon="35.006763333">
<time>2013-04-01T10:28:23Z</time>
 <fix>none</fix>
 <sat>0</sat>
</trkpt>
<trkpt lat="31.720641667" lon="35.006751667">
<time>2013-04-01T10:28:25Z</time>
 <fix>none</fix>
 <sat>0</sat>
</trkpt>
<trkpt lat="31.720665000" lon="35.006740000">
<time>2013-04-01T10:28:27Z</time>
 <fix>none</fix>
 <sat>0</sat>
</trkpt>
<trkpt lat="31.720688333" lon="35.006731667">
<time>2013-04-01T10:28:29Z</time>
 <fix>none</fix>
 <sat>0</sat>
</trkpt>
<trkpt lat="31.720706667" lon="35.006726667">
<time>2013-04-01T10:28:31Z</time>
 <fix>none</fix>
 <sat>0</sat>
</trkpt>
<trkpt lat="31.720725000" lon="35.006731667">
<time>2013-04-01T10:28:33Z</time>
 <fix>none</fix>
 <sat>0</sat>
</trkpt>
<trkpt lat="31.720731667" lon="35.006731667">
<time>2013-04-01T10:28:35Z</time>
 <fix>none</fix>
 <sat>0</sat>
</trkpt>
<trkpt lat="31.720748333" lon="35.006731667">
<time>2013-04-01T10:28:37Z</time>
 <fix>none</fix>
 <sat>0</sat>
</trkpt>
<trkpt lat="31.720771667" lon="35.006730000">
<time>2013-04-01T10:28:39Z</time>
 <fix>none</fix>
 <sat>0</sat>
</trkpt>
<trkpt lat="31.720793333" lon="35.006721667">
<time>2013-04-01T10:28:41Z</time>
 <fix>none</fix>
 <sat>0</sat>
</trkpt>
<trkpt lat="31.720815000" lon="35.006708333">
<time>2013-04-01T10:28:43Z</time>
 <fix>none</fix>
 <sat>0</sat>
</trkpt>
<trkpt lat="31.720835000" lon="35.006695000">
<time>2013-04-01T10:28:45Z</time>
 <fix>none</fix>
 <sat>0</sat>
</trkpt>
<trkpt lat="31.720825000" lon="35.006706667">
<time>2013-04-01T10:28:47Z</time>
 <fix>none</fix>
 <sat>0</sat>
</trkpt>
<trkpt lat="31.720825000" lon="35.006708333">
<time>2013-04-01T10:28:49Z</time>
 <fix>none</fix>
 <sat>0</sat>
</trkpt>
<trkpt lat="31.720828333" lon="35.006706667">
<time>2013-04-01T10:28:51Z</time>
 <fix>none</fix>
 <sat>0</sat>
</trkpt>
<trkpt lat="31.720825000" lon="35.006713333">
<time>2013-04-01T10:28:53Z</time>
 <fix>none</fix>
 <sat>0</sat>
</trkpt>
<trkpt lat="31.720825000" lon="35.006716667">
<time>2013-04-01T10:28:55Z</time>
 <fix>none</fix>
 <sat>0</sat>
</trkpt>
<trkpt lat="31.720828333" lon="35.006715000">
<time>2013-04-01T10:28:57Z</time>
 <fix>none</fix>
 <sat>0</sat>
</trkpt>
<trkpt lat="31.720821667" lon="35.006738333">
<time>2013-04-01T10:28:59Z</time>
 <fix>none</fix>
 <sat>0</sat>
</trkpt>
<trkpt lat="31.720816667" lon="35.006755000">
<time>2013-04-01T10:29:01Z</time>
 <fix>none</fix>
 <sat>0</sat>
</trkpt>
<trkpt lat="31.720811667" lon="35.006760000">
<time>2013-04-01T10:29:03Z</time>
 <fix>none</fix>
 <sat>0</sat>
</trkpt>
<trkpt lat="31.720813333" lon="35.006755000">
<time>2013-04-01T10:29:05Z</time>
 <fix>none</fix>
 <sat>0</sat>
</trkpt>
<trkpt lat="31.720813333" lon="35.006755000">
<time>2013-04-01T10:29:07Z</time>
 <fix>none</fix>
 <sat>0</sat>
</trkpt>
<trkpt lat="31.720811667" lon="35.006760000">
<time>2013-04-01T10:29:09Z</time>
 <fix>none</fix>
 <sat>0</sat>
</trkpt>
<trkpt lat="31.720808333" lon="35.006765000">
<time>2013-04-01T10:29:11Z</time>
 <fix>none</fix>
 <sat>0</sat>
</trkpt>
<trkpt lat="31.720808333" lon="35.006766667">
<time>2013-04-01T10:29:13Z</time>
 <fix>none</fix>
 <sat>0</sat>
</trkpt>
<trkpt lat="31.720810000" lon="35.006761667">
<time>2013-04-01T10:29:15Z</time>
 <fix>none</fix>
 <sat>0</sat>
</trkpt>
<trkpt lat="31.720811667" lon="35.006758333">
<time>2013-04-01T10:29:17Z</time>
 <fix>none</fix>
 <sat>0</sat>
</trkpt>
<trkpt lat="31.720815000" lon="35.006758333">
<time>2013-04-01T10:29:19Z</time>
 <fix>none</fix>
 <sat>0</sat>
</trkpt>
<trkpt lat="31.720815000" lon="35.006751667">
<time>2013-04-01T10:29:21Z</time>
 <fix>none</fix>
 <sat>0</sat>
</trkpt>
<trkpt lat="31.720820000" lon="35.006728333">
<time>2013-04-01T10:29:23Z</time>
 <fix>none</fix>
 <sat>0</sat>
</trkpt>
<trkpt lat="31.720818333" lon="35.006711667">
<time>2013-04-01T10:29:25Z</time>
 <fix>none</fix>
 <sat>0</sat>
</trkpt>
<trkpt lat="31.720818333" lon="35.006706667">
<time>2013-04-01T10:29:27Z</time>
 <fix>none</fix>
 <sat>0</sat>
</trkpt>
<trkpt lat="31.720818333" lon="35.006703333">
<time>2013-04-01T10:29:29Z</time>
 <fix>none</fix>
 <sat>0</sat>
</trkpt>
<trkpt lat="31.720816667" lon="35.006701667">
<time>2013-04-01T10:29:31Z</time>
 <fix>none</fix>
 <sat>0</sat>
</trkpt>
<trkpt lat="31.720815000" lon="35.006700000">
<time>2013-04-01T10:29:33Z</time>
 <fix>none</fix>
 <sat>0</sat>
</trkpt>
<trkpt lat="31.720813333" lon="35.006698333">
<time>2013-04-01T10:29:35Z</time>
 <fix>none</fix>
 <sat>0</sat>
</trkpt>
<trkpt lat="31.720813333" lon="35.006696667">
<time>2013-04-01T10:29:37Z</time>
 <fix>none</fix>
 <sat>0</sat>
</trkpt>
<trkpt lat="31.720816667" lon="35.006695000">
<time>2013-04-01T10:29:39Z</time>
 <fix>none</fix>
 <sat>0</sat>
</trkpt>
<trkpt lat="31.720813333" lon="35.006696667">
<time>2013-04-01T10:29:41Z</time>
 <fix>none</fix>
 <sat>0</sat>
</trkpt>
<trkpt lat="31.720813333" lon="35.006693333">
<time>2013-04-01T10:29:43Z</time>
 <fix>none</fix>
 <sat>0</sat>
</trkpt>
<trkpt lat="31.720813333" lon="35.006698333">
<time>2013-04-01T10:29:45Z</time>
 <fix>none</fix>
 <sat>0</sat>
</trkpt>
<trkpt lat="31.720810000" lon="35.006700000">
<time>2013-04-01T10:29:47Z</time>
 <fix>none</fix>
 <sat>0</sat>
</trkpt>
<trkpt lat="31.720818333" lon="35.006670000">
<time>2013-04-01T10:29:49Z</time>
 <fix>none</fix>
 <sat>0</sat>
</trkpt>
<trkpt lat="31.720818333" lon="35.006673333">
<time>2013-04-01T10:29:51Z</time>
 <fix>none</fix>
 <sat>0</sat>
</trkpt>
<trkpt lat="31.720818333" lon="35.006673333">
<time>2013-04-01T10:29:53Z</time>
 <fix>none</fix>
 <sat>0</sat>
</trkpt>
<trkpt lat="31.720823333" lon="35.006670000">
<time>2013-04-01T10:29:55Z</time>
 <fix>none</fix>
 <sat>0</sat>
</trkpt>
<trkpt lat="31.720825000" lon="35.006670000">
<time>2013-04-01T10:29:57Z</time>
 <fix>none</fix>
 <sat>0</sat>
</trkpt>
<trkpt lat="31.720828333" lon="35.006668333">
<time>2013-04-01T10:29:59Z</time>
 <fix>none</fix>
 <sat>0</sat>
</trkpt>
<trkpt lat="31.720830000" lon="35.006665000">
<time>2013-04-01T10:30:01Z</time>
 <fix>none</fix>
 <sat>0</sat>
</trkpt>
<trkpt lat="31.720836667" lon="35.006663333">
<time>2013-04-01T10:30:03Z</time>
 <fix>none</fix>
 <sat>0</sat>
</trkpt>
<trkpt lat="31.720838333" lon="35.006663333">
<time>2013-04-01T10:30:05Z</time>
 <fix>none</fix>
 <sat>0</sat>
</trkpt>
<trkpt lat="31.720840000" lon="35.006660000">
<time>2013-04-01T10:30:07Z</time>
 <fix>none</fix>
 <sat>0</sat>
</trkpt>
<trkpt lat="31.720841667" lon="35.006655000">
<time>2013-04-01T10:30:09Z</time>
 <fix>none</fix>
 <sat>0</sat>
</trkpt>
<trkpt lat="31.720841667" lon="35.006651667">
<time>2013-04-01T10:30:11Z</time>
 <fix>none</fix>
 <sat>0</sat>
</trkpt>
<trkpt lat="31.720840000" lon="35.006651667">
<time>2013-04-01T10:30:13Z</time>
 <fix>none</fix>
 <sat>0</sat>
</trkpt>
<trkpt lat="31.720836667" lon="35.006660000">
<time>2013-04-01T10:30:15Z</time>
 <fix>none</fix>
 <sat>0</sat>
</trkpt>
<trkpt lat="31.720831667" lon="35.006673333">
<time>2013-04-01T10:30:17Z</time>
 <fix>none</fix>
 <sat>0</sat>
</trkpt>
<trkpt lat="31.720823333" lon="35.006676667">
<time>2013-04-01T10:30:19Z</time>
 <fix>none</fix>
 <sat>0</sat>
</trkpt>
<trkpt lat="31.720820000" lon="35.006681667">
<time>2013-04-01T10:30:21Z</time>
 <fix>none</fix>
 <sat>0</sat>
</trkpt>
<trkpt lat="31.720816667" lon="35.006685000">
<time>2013-04-01T10:30:23Z</time>
 <fix>none</fix>
 <sat>0</sat>
</trkpt>
<trkpt lat="31.720811667" lon="35.006700000">
<time>2013-04-01T10:30:25Z</time>
 <fix>none</fix>
 <sat>0</sat>
</trkpt>
<trkpt lat="31.720806667" lon="35.006700000">
<time>2013-04-01T10:30:27Z</time>
 <fix>none</fix>
 <sat>0</sat>
</trkpt>
<trkpt lat="31.720806667" lon="35.006700000">
<time>2013-04-01T10:30:29Z</time>
 <fix>none</fix>
 <sat>0</sat>
</trkpt>
<trkpt lat="31.720825000" lon="35.006686667">
<time>2013-04-01T10:30:31Z</time>
 <fix>none</fix>
 <sat>0</sat>
</trkpt>
<trkpt lat="31.720843333" lon="35.006676667">
<time>2013-04-01T10:30:33Z</time>
 <fix>none</fix>
 <sat>0</sat>
</trkpt>
<trkpt lat="31.720868333" lon="35.006653333">
<time>2013-04-01T10:30:35Z</time>
 <fix>none</fix>
 <sat>0</sat>
</trkpt>
<trkpt lat="31.720890000" lon="35.006635000">
<time>2013-04-01T10:30:37Z</time>
 <fix>none</fix>
 <sat>0</sat>
</trkpt>
<trkpt lat="31.720900000" lon="35.006615000">
<time>2013-04-01T10:30:39Z</time>
 <fix>none</fix>
 <sat>0</sat>
</trkpt>
<trkpt lat="31.720908333" lon="35.006605000">
<time>2013-04-01T10:30:41Z</time>
 <fix>none</fix>
 <sat>0</sat>
</trkpt>
<trkpt lat="31.720916667" lon="35.006600000">
<time>2013-04-01T10:30:43Z</time>
 <fix>none</fix>
 <sat>0</sat>
</trkpt>
<trkpt lat="31.720918333" lon="35.006598333">
<time>2013-04-01T10:30:45Z</time>
 <fix>none</fix>
 <sat>0</sat>
</trkpt>
<trkpt lat="31.720923333" lon="35.006596667">
<time>2013-04-01T10:30:47Z</time>
 <fix>none</fix>
 <sat>0</sat>
</trkpt>
<trkpt lat="31.720930000" lon="35.006596667">
<time>2013-04-01T10:30:49Z</time>
 <fix>none</fix>
 <sat>0</sat>
</trkpt>
<trkpt lat="31.720931667" lon="35.006595000">
<time>2013-04-01T10:30:51Z</time>
 <fix>none</fix>
 <sat>0</sat>
</trkpt>
<trkpt lat="31.720935000" lon="35.006595000">
<time>2013-04-01T10:30:53Z</time>
 <fix>none</fix>
 <sat>0</sat>
</trkpt>
<trkpt lat="31.720938333" lon="35.006595000">
<time>2013-04-01T10:30:55Z</time>
 <fix>none</fix>
 <sat>0</sat>
</trkpt>
<trkpt lat="31.720938333" lon="35.006595000">
<time>2013-04-01T10:30:57Z</time>
 <fix>none</fix>
 <sat>0</sat>
</trkpt>
<trkpt lat="31.720938333" lon="35.006595000">
<time>2013-04-01T10:30:59Z</time>
 <fix>none</fix>
 <sat>0</sat>
</trkpt>
<trkpt lat="31.720938333" lon="35.006595000">
<time>2013-04-01T10:31:01Z</time>
 <fix>none</fix>
 <sat>0</sat>
</trkpt>
<trkpt lat="31.720938333" lon="35.006595000">
<time>2013-04-01T10:31:03Z</time>
 <fix>none</fix>
 <sat>0</sat>
</trkpt>
<trkpt lat="31.720938333" lon="35.006595000">
<time>2013-04-01T10:31:05Z</time>
 <fix>none</fix>
 <sat>0</sat>
</trkpt>
<trkpt lat="31.720938333" lon="35.006595000">
<time>2013-04-01T10:31:07Z</time>
 <fix>none</fix>
 <sat>0</sat>
</trkpt>
<trkpt lat="31.720938333" lon="35.006593333">
<time>2013-04-01T10:31:09Z</time>
 <fix>none</fix>
 <sat>0</sat>
</trkpt>
<trkpt lat="31.720938333" lon="35.006591667">
<time>2013-04-01T10:31:11Z</time>
 <fix>none</fix>
 <sat>0</sat>
</trkpt>
<trkpt lat="31.720936667" lon="35.006596667">
<time>2013-04-01T10:31:13Z</time>
 <fix>none</fix>
 <sat>0</sat>
</trkpt>
<trkpt lat="31.720941667" lon="35.006595000">
<time>2013-04-01T10:31:15Z</time>
 <fix>none</fix>
 <sat>0</sat>
</trkpt>
<trkpt lat="31.720945000" lon="35.006595000">
<time>2013-04-01T10:31:17Z</time>
 <fix>none</fix>
 <sat>0</sat>
</trkpt>
<trkpt lat="31.720961667" lon="35.006578333">
<time>2013-04-01T10:31:19Z</time>
 <fix>none</fix>
 <sat>0</sat>
</trkpt>
<trkpt lat="31.720995000" lon="35.006555000">
<time>2013-04-01T10:31:21Z</time>
 <fix>none</fix>
 <sat>0</sat>
</trkpt>
<trkpt lat="31.721050000" lon="35.006511667">
<time>2013-04-01T10:31:23Z</time>
 <fix>none</fix>
 <sat>0</sat>
</trkpt>
<trkpt lat="31.721106667" lon="35.006465000">
<time>2013-04-01T10:31:25Z</time>
 <fix>none</fix>
 <sat>0</sat>
</trkpt>
<trkpt lat="31.721178333" lon="35.006400000">
<time>2013-04-01T10:31:27Z</time>
 <fix>none</fix>
 <sat>0</sat>
</trkpt>
<trkpt lat="31.721241667" lon="35.006340000">
<time>2013-04-01T10:31:29Z</time>
 <fix>none</fix>
 <sat>0</sat>
</trkpt>
<trkpt lat="31.721296667" lon="35.006280000">
<time>2013-04-01T10:31:31Z</time>
 <fix>none</fix>
 <sat>0</sat>
</trkpt>
<trkpt lat="31.721341667" lon="35.006218333">
<time>2013-04-01T10:31:33Z</time>
 <fix>none</fix>
 <sat>0</sat>
</trkpt>
<trkpt lat="31.721383333" lon="35.006160000">
<time>2013-04-01T10:31:35Z</time>
 <fix>none</fix>
 <sat>0</sat>
</trkpt>
<trkpt lat="31.721410000" lon="35.006126667">
<time>2013-04-01T10:31:37Z</time>
 <fix>none</fix>
 <sat>0</sat>
</trkpt>
<trkpt lat="31.721456667" lon="35.006063333">
<time>2013-04-01T10:31:39Z</time>
 <fix>none</fix>
 <sat>0</sat>
</trkpt>
<trkpt lat="31.721510000" lon="35.005990000">
<time>2013-04-01T10:31:41Z</time>
 <fix>none</fix>
 <sat>0</sat>
</trkpt>
<trkpt lat="31.721558333" lon="35.005948333">
<time>2013-04-01T10:31:43Z</time>
 <fix>none</fix>
 <sat>0</sat>
</trkpt>
<trkpt lat="31.721611667" lon="35.005920000">
<time>2013-04-01T10:31:45Z</time>
 <fix>none</fix>
 <sat>0</sat>
</trkpt>
<trkpt lat="31.721655000" lon="35.005895000">
<time>2013-04-01T10:31:47Z</time>
 <fix>none</fix>
 <sat>0</sat>
</trkpt>
<trkpt lat="31.721703333" lon="35.005873333">
<time>2013-04-01T10:31:49Z</time>
 <fix>none</fix>
 <sat>0</sat>
</trkpt>
<trkpt lat="31.721758333" lon="35.005855000">
<time>2013-04-01T10:31:51Z</time>
 <fix>none</fix>
 <sat>0</sat>
</trkpt>
<trkpt lat="31.721815000" lon="35.005833333">
<time>2013-04-01T10:31:53Z</time>
 <fix>none</fix>
 <sat>0</sat>
</trkpt>
<trkpt lat="31.721871667" lon="35.005813333">
<time>2013-04-01T10:31:55Z</time>
 <fix>none</fix>
 <sat>0</sat>
</trkpt>
<trkpt lat="31.721926667" lon="35.005795000">
<time>2013-04-01T10:31:57Z</time>
 <fix>none</fix>
 <sat>0</sat>
</trkpt>
<trkpt lat="31.721956667" lon="35.005785000">
<time>2013-04-01T10:31:59Z</time>
 <fix>none</fix>
 <sat>0</sat>
</trkpt>
<trkpt lat="31.722016667" lon="35.005765000">
<time>2013-04-01T10:32:01Z</time>
 <fix>none</fix>
 <sat>0</sat>
</trkpt>
<trkpt lat="31.722071667" lon="35.005746667">
<time>2013-04-01T10:32:03Z</time>
 <fix>none</fix>
 <sat>0</sat>
</trkpt>
<trkpt lat="31.722141667" lon="35.005723333">
<time>2013-04-01T10:32:05Z</time>
 <fix>none</fix>
 <sat>0</sat>
</trkpt>
<trkpt lat="31.722191667" lon="35.005708333">
<time>2013-04-01T10:32:07Z</time>
 <fix>none</fix>
 <sat>0</sat>
</trkpt>
<trkpt lat="31.722248333" lon="35.005693333">
<time>2013-04-01T10:32:09Z</time>
 <fix>none</fix>
 <sat>0</sat>
</trkpt>
<trkpt lat="31.722303333" lon="35.005683333">
<time>2013-04-01T10:32:11Z</time>
 <fix>none</fix>
 <sat>0</sat>
</trkpt>
<trkpt lat="31.722355000" lon="35.005676667">
<time>2013-04-01T10:32:13Z</time>
 <fix>none</fix>
 <sat>0</sat>
</trkpt>
<trkpt lat="31.722403333" lon="35.005676667">
<time>2013-04-01T10:32:15Z</time>
 <fix>none</fix>
 <sat>0</sat>
</trkpt>
<trkpt lat="31.722453333" lon="35.005671667">
<time>2013-04-01T10:32:17Z</time>
 <fix>none</fix>
 <sat>0</sat>
</trkpt>
<trkpt lat="31.722503333" lon="35.005666667">
<time>2013-04-01T10:32:19Z</time>
 <fix>none</fix>
 <sat>0</sat>
</trkpt>
<trkpt lat="31.722553333" lon="35.005653333">
<time>2013-04-01T10:32:21Z</time>
 <fix>none</fix>
 <sat>0</sat>
</trkpt>
<trkpt lat="31.722575000" lon="35.005641667">
<time>2013-04-01T10:32:23Z</time>
 <fix>none</fix>
 <sat>0</sat>
</trkpt>
<trkpt lat="31.722608333" lon="35.005615000">
<time>2013-04-01T10:32:25Z</time>
 <fix>none</fix>
 <sat>0</sat>
</trkpt>
<trkpt lat="31.722640000" lon="35.005566667">
<time>2013-04-01T10:32:27Z</time>
 <fix>none</fix>
 <sat>0</sat>
</trkpt>
<trkpt lat="31.722648333" lon="35.005526667">
<time>2013-04-01T10:32:29Z</time>
 <fix>none</fix>
 <sat>0</sat>
</trkpt>
<trkpt lat="31.722641667" lon="35.005486667">
<time>2013-04-01T10:32:31Z</time>
 <fix>none</fix>
 <sat>0</sat>
</trkpt>
<trkpt lat="31.722626667" lon="35.005453333">
<time>2013-04-01T10:32:33Z</time>
 <fix>none</fix>
 <sat>0</sat>
</trkpt>
<trkpt lat="31.722601667" lon="35.005425000">
<time>2013-04-01T10:32:35Z</time>
 <fix>none</fix>
 <sat>0</sat>
</trkpt>
<trkpt lat="31.722575000" lon="35.005405000">
<time>2013-04-01T10:32:37Z</time>
 <fix>none</fix>
 <sat>0</sat>
</trkpt>
<trkpt lat="31.722545000" lon="35.005386667">
<time>2013-04-01T10:32:39Z</time>
 <fix>none</fix>
 <sat>0</sat>
</trkpt>
<trkpt lat="31.722513333" lon="35.005375000">
<time>2013-04-01T10:32:41Z</time>
 <fix>none</fix>
 <sat>0</sat>
</trkpt>
<trkpt lat="31.722478333" lon="35.005366667">
<time>2013-04-01T10:32:43Z</time>
 <fix>none</fix>
 <sat>0</sat>
</trkpt>
<trkpt lat="31.722461667" lon="35.005365000">
<time>2013-04-01T10:32:45Z</time>
 <fix>none</fix>
 <sat>0</sat>
</trkpt>
<trkpt lat="31.722413333" lon="35.005353333">
<time>2013-04-01T10:32:47Z</time>
 <fix>none</fix>
 <sat>0</sat>
</trkpt>
<trkpt lat="31.722375000" lon="35.005346667">
<time>2013-04-01T10:32:49Z</time>
 <fix>none</fix>
 <sat>0</sat>
</trkpt>
<trkpt lat="31.722338333" lon="35.005341667">
<time>2013-04-01T10:32:51Z</time>
 <fix>none</fix>
 <sat>0</sat>
</trkpt>
<trkpt lat="31.722296667" lon="35.005333333">
<time>2013-04-01T10:32:53Z</time>
 <fix>none</fix>
 <sat>0</sat>
</trkpt>
<trkpt lat="31.722255000" lon="35.005326667">
<time>2013-04-01T10:32:55Z</time>
 <fix>none</fix>
 <sat>0</sat>
</trkpt>
<trkpt lat="31.722206667" lon="35.005325000">
<time>2013-04-01T10:32:57Z</time>
 <fix>none</fix>
 <sat>0</sat>
</trkpt>
<trkpt lat="31.722155000" lon="35.005320000">
<time>2013-04-01T10:32:59Z</time>
 <fix>none</fix>
 <sat>0</sat>
</trkpt>
<trkpt lat="31.722103333" lon="35.005315000">
<time>2013-04-01T10:33:01Z</time>
 <fix>none</fix>
 <sat>0</sat>
</trkpt>
<trkpt lat="31.722043333" lon="35.005316667">
<time>2013-04-01T10:33:03Z</time>
 <fix>none</fix>
 <sat>0</sat>
</trkpt>
<trkpt lat="31.721991667" lon="35.005318333">
<time>2013-04-01T10:33:05Z</time>
 <fix>none</fix>
 <sat>0</sat>
</trkpt>
<trkpt lat="31.721965000" lon="35.005318333">
<time>2013-04-01T10:33:07Z</time>
 <fix>none</fix>
 <sat>0</sat>
</trkpt>
<trkpt lat="31.721906667" lon="35.005323333">
<time>2013-04-01T10:33:09Z</time>
 <fix>none</fix>
 <sat>0</sat>
</trkpt>
<trkpt lat="31.721845000" lon="35.005326667">
<time>2013-04-01T10:33:11Z</time>
 <fix>none</fix>
 <sat>0</sat>
</trkpt>
<trkpt lat="31.721751667" lon="35.005348333">
<time>2013-04-01T10:33:13Z</time>
 <fix>none</fix>
 <sat>0</sat>
</trkpt>
<trkpt lat="31.721691667" lon="35.005365000">
<time>2013-04-01T10:33:15Z</time>
 <fix>none</fix>
 <sat>0</sat>
</trkpt>
<trkpt lat="31.721631667" lon="35.005383333">
<time>2013-04-01T10:33:17Z</time>
 <fix>none</fix>
 <sat>0</sat>
</trkpt>
<trkpt lat="31.721575000" lon="35.005391667">
<time>2013-04-01T10:33:19Z</time>
 <fix>none</fix>
 <sat>0</sat>
</trkpt>
<trkpt lat="31.721520000" lon="35.005403333">
<time>2013-04-01T10:33:21Z</time>
 <fix>none</fix>
 <sat>0</sat>
</trkpt>
<trkpt lat="31.721460000" lon="35.005403333">
<time>2013-04-01T10:33:23Z</time>
 <fix>none</fix>
 <sat>0</sat>
</trkpt>
<trkpt lat="31.721403333" lon="35.005391667">
<time>2013-04-01T10:33:25Z</time>
 <fix>none</fix>
 <sat>0</sat>
</trkpt>
<trkpt lat="31.721351667" lon="35.005380000">
<time>2013-04-01T10:33:27Z</time>
 <fix>none</fix>
 <sat>0</sat>
</trkpt>
<trkpt lat="31.721301667" lon="35.005366667">
<time>2013-04-01T10:33:29Z</time>
 <fix>none</fix>
 <sat>0</sat>
</trkpt>
<trkpt lat="31.721278333" lon="35.005358333">
<time>2013-04-01T10:33:31Z</time>
 <fix>none</fix>
 <sat>0</sat>
</trkpt>
<trkpt lat="31.721240000" lon="35.005348333">
<time>2013-04-01T10:33:33Z</time>
 <fix>none</fix>
 <sat>0</sat>
</trkpt>
<trkpt lat="31.721188333" lon="35.005335000">
<time>2013-04-01T10:33:35Z</time>
 <fix>none</fix>
 <sat>0</sat>
</trkpt>
<trkpt lat="31.721151667" lon="35.005318333">
<time>2013-04-01T10:33:37Z</time>
 <fix>none</fix>
 <sat>0</sat>
</trkpt>
<trkpt lat="31.721116667" lon="35.005306667">
<time>2013-04-01T10:33:39Z</time>
 <fix>none</fix>
 <sat>0</sat>
</trkpt>
<trkpt lat="31.721080000" lon="35.005298333">
<time>2013-04-01T10:33:41Z</time>
 <fix>none</fix>
 <sat>0</sat>
</trkpt>
<trkpt lat="31.721045000" lon="35.005291667">
<time>2013-04-01T10:33:43Z</time>
 <fix>none</fix>
 <sat>0</sat>
</trkpt>
<trkpt lat="31.721011667" lon="35.005283333">
<time>2013-04-01T10:33:45Z</time>
 <fix>none</fix>
 <sat>0</sat>
</trkpt>
<trkpt lat="31.720981667" lon="35.005278333">
<time>2013-04-01T10:33:47Z</time>
 <fix>none</fix>
 <sat>0</sat>
</trkpt>
<trkpt lat="31.720950000" lon="35.005273333">
<time>2013-04-01T10:33:49Z</time>
 <fix>none</fix>
 <sat>0</sat>
</trkpt>
<trkpt lat="31.720920000" lon="35.005271667">
<time>2013-04-01T10:33:51Z</time>
 <fix>none</fix>
 <sat>0</sat>
</trkpt>
<trkpt lat="31.720906667" lon="35.005271667">
<time>2013-04-01T10:33:53Z</time>
 <fix>none</fix>
 <sat>0</sat>
</trkpt>
<trkpt lat="31.720876667" lon="35.005266667">
<time>2013-04-01T10:33:55Z</time>
 <fix>none</fix>
 <sat>0</sat>
</trkpt>
<trkpt lat="31.720846667" lon="35.005260000">
<time>2013-04-01T10:33:57Z</time>
 <fix>none</fix>
 <sat>0</sat>
</trkpt>
<trkpt lat="31.720803333" lon="35.005243333">
<time>2013-04-01T10:33:59Z</time>
 <fix>none</fix>
 <sat>0</sat>
</trkpt>
<trkpt lat="31.720775000" lon="35.005230000">
<time>2013-04-01T10:34:01Z</time>
 <fix>none</fix>
 <sat>0</sat>
</trkpt>
<trkpt lat="31.720746667" lon="35.005213333">
<time>2013-04-01T10:34:03Z</time>
 <fix>none</fix>
 <sat>0</sat>
</trkpt>
<trkpt lat="31.720723333" lon="35.005193333">
<time>2013-04-01T10:34:05Z</time>
 <fix>none</fix>
 <sat>0</sat>
</trkpt>
<trkpt lat="31.720705000" lon="35.005166667">
<time>2013-04-01T10:34:07Z</time>
 <fix>none</fix>
 <sat>0</sat>
</trkpt>
<trkpt lat="31.720691667" lon="35.005138333">
<time>2013-04-01T10:34:09Z</time>
 <fix>none</fix>
 <sat>0</sat>
</trkpt>
<trkpt lat="31.720685000" lon="35.005110000">
<time>2013-04-01T10:34:11Z</time>
 <fix>none</fix>
 <sat>0</sat>
</trkpt>
<trkpt lat="31.720680000" lon="35.005076667">
<time>2013-04-01T10:34:13Z</time>
 <fix>none</fix>
 <sat>0</sat>
</trkpt>
<trkpt lat="31.720678333" lon="35.005045000">
<time>2013-04-01T10:34:15Z</time>
 <fix>none</fix>
 <sat>0</sat>
</trkpt>
<trkpt lat="31.720678333" lon="35.005028333">
<time>2013-04-01T10:34:17Z</time>
 <fix>none</fix>
 <sat>0</sat>
</trkpt>
<trkpt lat="31.720676667" lon="35.004995000">
<time>2013-04-01T10:34:19Z</time>
 <fix>none</fix>
 <sat>0</sat>
</trkpt>
<trkpt lat="31.720668333" lon="35.004963333">
<time>2013-04-01T10:34:21Z</time>
 <fix>none</fix>
 <sat>0</sat>
</trkpt>
<trkpt lat="31.720665000" lon="35.004915000">
<time>2013-04-01T10:34:23Z</time>
 <fix>none</fix>
 <sat>0</sat>
</trkpt>
<trkpt lat="31.720661667" lon="35.004883333">
<time>2013-04-01T10:34:25Z</time>
 <fix>none</fix>
 <sat>0</sat>
</trkpt>
<trkpt lat="31.720660000" lon="35.004850000">
<time>2013-04-01T10:34:27Z</time>
 <fix>none</fix>
 <sat>0</sat>
</trkpt>
<trkpt lat="31.720656667" lon="35.004816667">
<time>2013-04-01T10:34:29Z</time>
 <fix>none</fix>
 <sat>0</sat>
</trkpt>
<trkpt lat="31.720650000" lon="35.004800000">
<time>2013-04-01T10:34:31Z</time>
 <fix>none</fix>
 <sat>0</sat>
</trkpt>
<trkpt lat="31.720648333" lon="35.004800000">
<time>2013-04-01T10:34:33Z</time>
 <fix>none</fix>
 <sat>0</sat>
</trkpt>
<trkpt lat="31.720650000" lon="35.004786667">
<time>2013-04-01T10:34:35Z</time>
 <fix>none</fix>
 <sat>0</sat>
</trkpt>
<trkpt lat="31.720643333" lon="35.004768333">
<time>2013-04-01T10:34:37Z</time>
 <fix>none</fix>
 <sat>0</sat>
</trkpt>
<trkpt lat="31.720641667" lon="35.004758333">
<time>2013-04-01T10:34:39Z</time>
 <fix>none</fix>
 <sat>0</sat>
</trkpt>
<trkpt lat="31.720636667" lon="35.004740000">
<time>2013-04-01T10:34:41Z</time>
 <fix>none</fix>
 <sat>0</sat>
</trkpt>
<trkpt lat="31.720630000" lon="35.004725000">
<time>2013-04-01T10:34:43Z</time>
 <fix>none</fix>
 <sat>0</sat>
</trkpt>
<trkpt lat="31.720620000" lon="35.004703333">
<time>2013-04-01T10:34:45Z</time>
 <fix>none</fix>
 <sat>0</sat>
</trkpt>
<trkpt lat="31.720615000" lon="35.004691667">
<time>2013-04-01T10:34:47Z</time>
 <fix>none</fix>
 <sat>0</sat>
</trkpt>
<trkpt lat="31.720608333" lon="35.004680000">
<time>2013-04-01T10:34:49Z</time>
 <fix>none</fix>
 <sat>0</sat>
</trkpt>
<trkpt lat="31.720603333" lon="35.004675000">
<time>2013-04-01T10:34:51Z</time>
 <fix>none</fix>
 <sat>0</sat>
</trkpt>
<trkpt lat="31.720585000" lon="35.004668333">
<time>2013-04-01T10:34:53Z</time>
 <fix>none</fix>
 <sat>0</sat>
</trkpt>
<trkpt lat="31.720575000" lon="35.004661667">
<time>2013-04-01T10:34:55Z</time>
 <fix>none</fix>
 <sat>0</sat>
</trkpt>
<trkpt lat="31.720561667" lon="35.004660000">
<time>2013-04-01T10:34:57Z</time>
 <fix>none</fix>
 <sat>0</sat>
</trkpt>
<trkpt lat="31.720553333" lon="35.004653333">
<time>2013-04-01T10:34:59Z</time>
 <fix>none</fix>
 <sat>0</sat>
</trkpt>
<trkpt lat="31.720538333" lon="35.004655000">
<time>2013-04-01T10:35:01Z</time>
 <fix>none</fix>
 <sat>0</sat>
</trkpt>
<trkpt lat="31.720526667" lon="35.004656667">
<time>2013-04-01T10:35:03Z</time>
 <fix>none</fix>
 <sat>0</sat>
</trkpt>
<trkpt lat="31.720510000" lon="35.004656667">
<time>2013-04-01T10:35:05Z</time>
 <fix>none</fix>
 <sat>0</sat>
</trkpt>
<trkpt lat="31.720485000" lon="35.004651667">
<time>2013-04-01T10:35:07Z</time>
 <fix>none</fix>
 <sat>0</sat>
</trkpt>
<trkpt lat="31.720466667" lon="35.004645000">
<time>2013-04-01T10:35:09Z</time>
 <fix>none</fix>
 <sat>0</sat>
</trkpt>
<trkpt lat="31.720446667" lon="35.004636667">
<time>2013-04-01T10:35:11Z</time>
 <fix>none</fix>
 <sat>0</sat>
</trkpt>
<trkpt lat="31.720428333" lon="35.004623333">
<time>2013-04-01T10:35:13Z</time>
 <fix>none</fix>
 <sat>0</sat>
</trkpt>
<trkpt lat="31.720411667" lon="35.004613333">
<time>2013-04-01T10:35:15Z</time>
 <fix>none</fix>
 <sat>0</sat>
</trkpt>
<trkpt lat="31.720391667" lon="35.004603333">
<time>2013-04-01T10:35:17Z</time>
 <fix>none</fix>
 <sat>0</sat>
</trkpt>
<trkpt lat="31.720375000" lon="35.004593333">
<time>2013-04-01T10:35:19Z</time>
 <fix>none</fix>
 <sat>0</sat>
</trkpt>
<trkpt lat="31.720358333" lon="35.004580000">
<time>2013-04-01T10:35:21Z</time>
 <fix>none</fix>
 <sat>0</sat>
</trkpt>
<trkpt lat="31.720340000" lon="35.004571667">
<time>2013-04-01T10:35:23Z</time>
 <fix>none</fix>
 <sat>0</sat>
</trkpt>
<trkpt lat="31.720330000" lon="35.004570000">
<time>2013-04-01T10:35:25Z</time>
 <fix>none</fix>
 <sat>0</sat>
</trkpt>
<trkpt lat="31.720310000" lon="35.004563333">
<time>2013-04-01T10:35:27Z</time>
 <fix>none</fix>
 <sat>0</sat>
</trkpt>
<trkpt lat="31.720288333" lon="35.004560000">
<time>2013-04-01T10:35:29Z</time>
 <fix>none</fix>
 <sat>0</sat>
</trkpt>
<trkpt lat="31.720255000" lon="35.004555000">
<time>2013-04-01T10:35:31Z</time>
 <fix>none</fix>
 <sat>0</sat>
</trkpt>
<trkpt lat="31.720235000" lon="35.004550000">
<time>2013-04-01T10:35:33Z</time>
 <fix>none</fix>
 <sat>0</sat>
</trkpt>
<trkpt lat="31.720220000" lon="35.004541667">
<time>2013-04-01T10:35:35Z</time>
 <fix>none</fix>
 <sat>0</sat>
</trkpt>
<trkpt lat="31.720216667" lon="35.004535000">
<time>2013-04-01T10:35:37Z</time>
 <fix>none</fix>
 <sat>0</sat>
</trkpt>
<trkpt lat="31.720213333" lon="35.004521667">
<time>2013-04-01T10:35:39Z</time>
 <fix>none</fix>
 <sat>0</sat>
</trkpt>
<trkpt lat="31.720210000" lon="35.004511667">
<time>2013-04-01T10:35:41Z</time>
 <fix>none</fix>
 <sat>0</sat>
</trkpt>
<trkpt lat="31.720191667" lon="35.004503333">
<time>2013-04-01T10:35:43Z</time>
 <fix>none</fix>
 <sat>0</sat>
</trkpt>
<trkpt lat="31.720166667" lon="35.004508333">
<time>2013-04-01T10:35:45Z</time>
 <fix>none</fix>
 <sat>0</sat>
</trkpt>
<trkpt lat="31.720151667" lon="35.004508333">
<time>2013-04-01T10:35:47Z</time>
 <fix>none</fix>
 <sat>0</sat>
</trkpt>
<trkpt lat="31.720116667" lon="35.004490000">
<time>2013-04-01T10:35:49Z</time>
 <fix>none</fix>
 <sat>0</sat>
</trkpt>
<trkpt lat="31.720078333" lon="35.004465000">
<time>2013-04-01T10:35:51Z</time>
 <fix>none</fix>
 <sat>0</sat>
</trkpt>
<trkpt lat="31.720060000" lon="35.004443333">
<time>2013-04-01T10:35:53Z</time>
 <fix>none</fix>
 <sat>0</sat>
</trkpt>
<trkpt lat="31.720050000" lon="35.004435000">
<time>2013-04-01T10:35:55Z</time>
 <fix>none</fix>
 <sat>0</sat>
</trkpt>
<trkpt lat="31.720020000" lon="35.004415000">
<time>2013-04-01T10:35:57Z</time>
 <fix>none</fix>
 <sat>0</sat>
</trkpt>
<trkpt lat="31.720000000" lon="35.004401667">
<time>2013-04-01T10:35:59Z</time>
 <fix>none</fix>
 <sat>0</sat>
</trkpt>
<trkpt lat="31.719978333" lon="35.004376667">
<time>2013-04-01T10:36:01Z</time>
 <fix>none</fix>
 <sat>0</sat>
</trkpt>
<trkpt lat="31.719960000" lon="35.004348333">
<time>2013-04-01T10:36:03Z</time>
 <fix>none</fix>
 <sat>0</sat>
</trkpt>
<trkpt lat="31.719943333" lon="35.004318333">
<time>2013-04-01T10:36:05Z</time>
 <fix>none</fix>
 <sat>0</sat>
</trkpt>
<trkpt lat="31.719928333" lon="35.004283333">
<time>2013-04-01T10:36:07Z</time>
 <fix>none</fix>
 <sat>0</sat>
</trkpt>
<trkpt lat="31.719913333" lon="35.004251667">
<time>2013-04-01T10:36:09Z</time>
 <fix>none</fix>
 <sat>0</sat>
</trkpt>
<trkpt lat="31.719905000" lon="35.004233333">
<time>2013-04-01T10:36:11Z</time>
 <fix>none</fix>
 <sat>0</sat>
</trkpt>
<trkpt lat="31.719888333" lon="35.004203333">
<time>2013-04-01T10:36:13Z</time>
 <fix>none</fix>
 <sat>0</sat>
</trkpt>
<trkpt lat="31.719870000" lon="35.004158333">
<time>2013-04-01T10:36:15Z</time>
 <fix>none</fix>
 <sat>0</sat>
</trkpt>
<trkpt lat="31.719860000" lon="35.004125000">
<time>2013-04-01T10:36:17Z</time>
 <fix>none</fix>
 <sat>0</sat>
</trkpt>
<trkpt lat="31.719843333" lon="35.004096667">
<time>2013-04-01T10:36:19Z</time>
 <fix>none</fix>
 <sat>0</sat>
</trkpt>
<trkpt lat="31.719821667" lon="35.004070000">
<time>2013-04-01T10:36:21Z</time>
 <fix>none</fix>
 <sat>0</sat>
</trkpt>
<trkpt lat="31.719805000" lon="35.004040000">
<time>2013-04-01T10:36:23Z</time>
 <fix>none</fix>
 <sat>0</sat>
</trkpt>
<trkpt lat="31.719786667" lon="35.004016667">
<time>2013-04-01T10:36:25Z</time>
 <fix>none</fix>
 <sat>0</sat>
</trkpt>
<trkpt lat="31.719761667" lon="35.003996667">
<time>2013-04-01T10:36:27Z</time>
 <fix>none</fix>
 <sat>0</sat>
</trkpt>
<trkpt lat="31.719745000" lon="35.003975000">
<time>2013-04-01T10:36:29Z</time>
 <fix>none</fix>
 <sat>0</sat>
</trkpt>
<trkpt lat="31.719725000" lon="35.003948333">
<time>2013-04-01T10:36:31Z</time>
 <fix>none</fix>
 <sat>0</sat>
</trkpt>
<trkpt lat="31.719718333" lon="35.003931667">
<time>2013-04-01T10:36:33Z</time>
 <fix>none</fix>
 <sat>0</sat>
</trkpt>
<trkpt lat="31.719691667" lon="35.003881667">
<time>2013-04-01T10:36:35Z</time>
 <fix>none</fix>
 <sat>0</sat>
</trkpt>
<trkpt lat="31.719685000" lon="35.003853333">
<time>2013-04-01T10:36:37Z</time>
 <fix>none</fix>
 <sat>0</sat>
</trkpt>
<trkpt lat="31.719685000" lon="35.003820000">
<time>2013-04-01T10:36:39Z</time>
 <fix>none</fix>
 <sat>0</sat>
</trkpt>
<trkpt lat="31.719701667" lon="35.003805000">
<time>2013-04-01T10:36:41Z</time>
 <fix>none</fix>
 <sat>0</sat>
</trkpt>
<trkpt lat="31.719731667" lon="35.003803333">
<time>2013-04-01T10:36:43Z</time>
 <fix>none</fix>
 <sat>0</sat>
</trkpt>
<trkpt lat="31.719760000" lon="35.003811667">
<time>2013-04-01T10:36:45Z</time>
 <fix>none</fix>
 <sat>0</sat>
</trkpt>
<trkpt lat="31.719788333" lon="35.003815000">
<time>2013-04-01T10:36:47Z</time>
 <fix>none</fix>
 <sat>0</sat>
</trkpt>
<trkpt lat="31.719818333" lon="35.003820000">
<time>2013-04-01T10:36:49Z</time>
 <fix>none</fix>
 <sat>0</sat>
</trkpt>
<trkpt lat="31.719850000" lon="35.003830000">
<time>2013-04-01T10:36:51Z</time>
 <fix>none</fix>
 <sat>0</sat>
</trkpt>
<trkpt lat="31.719885000" lon="35.003835000">
<time>2013-04-01T10:36:53Z</time>
 <fix>none</fix>
 <sat>0</sat>
</trkpt>
<trkpt lat="31.719901667" lon="35.003838333">
<time>2013-04-01T10:36:55Z</time>
 <fix>none</fix>
 <sat>0</sat>
</trkpt>
<trkpt lat="31.719931667" lon="35.003851667">
<time>2013-04-01T10:36:57Z</time>
 <fix>none</fix>
 <sat>0</sat>
</trkpt>
<trkpt lat="31.719961667" lon="35.003863333">
<time>2013-04-01T10:36:59Z</time>
 <fix>none</fix>
 <sat>0</sat>
</trkpt>
<trkpt lat="31.720005000" lon="35.003876667">
<time>2013-04-01T10:37:01Z</time>
 <fix>none</fix>
 <sat>0</sat>
</trkpt>
<trkpt lat="31.720033333" lon="35.003886667">
<time>2013-04-01T10:37:03Z</time>
 <fix>none</fix>
 <sat>0</sat>
</trkpt>
<trkpt lat="31.720066667" lon="35.003893333">
<time>2013-04-01T10:37:05Z</time>
 <fix>none</fix>
 <sat>0</sat>
</trkpt>
<trkpt lat="31.720098333" lon="35.003903333">
<time>2013-04-01T10:37:07Z</time>
 <fix>none</fix>
 <sat>0</sat>
</trkpt>
<trkpt lat="31.720128333" lon="35.003910000">
<time>2013-04-01T10:37:09Z</time>
 <fix>none</fix>
 <sat>0</sat>
</trkpt>
<trkpt lat="31.720161667" lon="35.003916667">
<time>2013-04-01T10:37:11Z</time>
 <fix>none</fix>
 <sat>0</sat>
</trkpt>
<trkpt lat="31.720195000" lon="35.003925000">
<time>2013-04-01T10:37:13Z</time>
 <fix>none</fix>
 <sat>0</sat>
</trkpt>
<trkpt lat="31.720228333" lon="35.003940000">
<time>2013-04-01T10:37:15Z</time>
 <fix>none</fix>
 <sat>0</sat>
</trkpt>
<trkpt lat="31.720268333" lon="35.003945000">
<time>2013-04-01T10:37:17Z</time>
 <fix>none</fix>
 <sat>0</sat>
</trkpt>
<trkpt lat="31.720288333" lon="35.003945000">
<time>2013-04-01T10:37:19Z</time>
 <fix>none</fix>
 <sat>0</sat>
</trkpt>
<trkpt lat="31.720345000" lon="35.003960000">
<time>2013-04-01T10:37:21Z</time>
 <fix>none</fix>
 <sat>0</sat>
</trkpt>
<trkpt lat="31.720385000" lon="35.003968333">
<time>2013-04-01T10:37:23Z</time>
 <fix>none</fix>
 <sat>0</sat>
</trkpt>
<trkpt lat="31.720421667" lon="35.003961667">
<time>2013-04-01T10:37:25Z</time>
 <fix>none</fix>
 <sat>0</sat>
</trkpt>
<trkpt lat="31.720451667" lon="35.003948333">
<time>2013-04-01T10:37:27Z</time>
 <fix>none</fix>
 <sat>0</sat>
</trkpt>
<trkpt lat="31.720485000" lon="35.003925000">
<time>2013-04-01T10:37:29Z</time>
 <fix>none</fix>
 <sat>0</sat>
</trkpt>
<trkpt lat="31.720510000" lon="35.003890000">
<time>2013-04-01T10:37:31Z</time>
 <fix>none</fix>
 <sat>0</sat>
</trkpt>
<trkpt lat="31.720523333" lon="35.003850000">
<time>2013-04-01T10:37:33Z</time>
 <fix>none</fix>
 <sat>0</sat>
</trkpt>
<trkpt lat="31.720530000" lon="35.003810000">
<time>2013-04-01T10:37:35Z</time>
 <fix>none</fix>
 <sat>0</sat>
</trkpt>
<trkpt lat="31.720525000" lon="35.003770000">
<time>2013-04-01T10:37:37Z</time>
 <fix>none</fix>
 <sat>0</sat>
</trkpt>
<trkpt lat="31.720525000" lon="35.003731667">
<time>2013-04-01T10:37:39Z</time>
 <fix>none</fix>
 <sat>0</sat>
</trkpt>
<trkpt lat="31.720530000" lon="35.003711667">
<time>2013-04-01T10:37:41Z</time>
 <fix>none</fix>
 <sat>0</sat>
</trkpt>
<trkpt lat="31.720536667" lon="35.003671667">
<time>2013-04-01T10:37:43Z</time>
 <fix>none</fix>
 <sat>0</sat>
</trkpt>
<trkpt lat="31.720541667" lon="35.003608333">
<time>2013-04-01T10:37:45Z</time>
 <fix>none</fix>
 <sat>0</sat>
</trkpt>
<trkpt lat="31.720545000" lon="35.003566667">
<time>2013-04-01T10:37:47Z</time>
 <fix>none</fix>
 <sat>0</sat>
</trkpt>
<trkpt lat="31.720551667" lon="35.003528333">
<time>2013-04-01T10:37:49Z</time>
 <fix>none</fix>
 <sat>0</sat>
</trkpt>
<trkpt lat="31.720560000" lon="35.003498333">
<time>2013-04-01T10:37:51Z</time>
 <fix>none</fix>
 <sat>0</sat>
</trkpt>
<trkpt lat="31.720560000" lon="35.003498333">
<time>2013-04-01T10:37:53Z</time>
 <fix>none</fix>
 <sat>0</sat>
</trkpt>
<trkpt lat="31.720570000" lon="35.003463333">
<time>2013-04-01T10:37:55Z</time>
 <fix>none</fix>
 <sat>0</sat>
</trkpt>
<trkpt lat="31.720570000" lon="35.003463333">
<time>2013-04-01T10:37:57Z</time>
 <fix>none</fix>
 <sat>0</sat>
</trkpt>
<trkpt lat="31.720571667" lon="35.003463333">
<time>2013-04-01T10:37:59Z</time>
 <fix>none</fix>
 <sat>0</sat>
</trkpt>
<trkpt lat="31.720570000" lon="35.003466667">
<time>2013-04-01T10:38:01Z</time>
 <fix>none</fix>
 <sat>0</sat>
</trkpt>
<trkpt lat="31.720575000" lon="35.003466667">
<time>2013-04-01T10:38:03Z</time>
 <fix>none</fix>
 <sat>0</sat>
</trkpt>
<trkpt lat="31.720575000" lon="35.003466667">
<time>2013-04-01T10:38:05Z</time>
 <fix>none</fix>
 <sat>0</sat>
</trkpt>
<trkpt lat="31.720576667" lon="35.003468333">
<time>2013-04-01T10:38:07Z</time>
 <fix>none</fix>
 <sat>0</sat>
</trkpt>
<trkpt lat="31.720581667" lon="35.003470000">
<time>2013-04-01T10:38:09Z</time>
 <fix>none</fix>
 <sat>0</sat>
</trkpt>
<trkpt lat="31.720585000" lon="35.003470000">
<time>2013-04-01T10:38:11Z</time>
 <fix>none</fix>
 <sat>0</sat>
</trkpt>
<trkpt lat="31.720586667" lon="35.003468333">
<time>2013-04-01T10:38:13Z</time>
 <fix>none</fix>
 <sat>0</sat>
</trkpt>
<trkpt lat="31.720588333" lon="35.003468333">
<time>2013-04-01T10:38:15Z</time>
 <fix>none</fix>
 <sat>0</sat>
</trkpt>
<trkpt lat="31.720588333" lon="35.003465000">
<time>2013-04-01T10:38:17Z</time>
 <fix>none</fix>
 <sat>0</sat>
</trkpt>
<trkpt lat="31.720588333" lon="35.003466667">
<time>2013-04-01T10:38:19Z</time>
 <fix>none</fix>
 <sat>0</sat>
</trkpt>
<trkpt lat="31.720586667" lon="35.003466667">
<time>2013-04-01T10:38:21Z</time>
 <fix>none</fix>
 <sat>0</sat>
</trkpt>
<trkpt lat="31.720586667" lon="35.003466667">
<time>2013-04-01T10:38:23Z</time>
 <fix>none</fix>
 <sat>0</sat>
</trkpt>
<trkpt lat="31.720585000" lon="35.003466667">
<time>2013-04-01T10:38:25Z</time>
 <fix>none</fix>
 <sat>0</sat>
</trkpt>
<trkpt lat="31.720585000" lon="35.003466667">
<time>2013-04-01T10:38:27Z</time>
 <fix>none</fix>
 <sat>0</sat>
</trkpt>
<trkpt lat="31.720585000" lon="35.003465000">
<time>2013-04-01T10:38:29Z</time>
 <fix>none</fix>
 <sat>0</sat>
</trkpt>
<trkpt lat="31.720585000" lon="35.003463333">
<time>2013-04-01T10:38:31Z</time>
 <fix>none</fix>
 <sat>0</sat>
</trkpt>
<trkpt lat="31.720586667" lon="35.003460000">
<time>2013-04-01T10:38:33Z</time>
 <fix>none</fix>
 <sat>0</sat>
</trkpt>
<trkpt lat="31.720588333" lon="35.003456667">
<time>2013-04-01T10:38:35Z</time>
 <fix>none</fix>
 <sat>0</sat>
</trkpt>
<trkpt lat="31.720590000" lon="35.003455000">
<time>2013-04-01T10:38:37Z</time>
 <fix>none</fix>
 <sat>0</sat>
</trkpt>
<trkpt lat="31.720590000" lon="35.003453333">
<time>2013-04-01T10:38:39Z</time>
 <fix>none</fix>
 <sat>0</sat>
</trkpt>
<trkpt lat="31.720581667" lon="35.003433333">
<time>2013-04-01T10:38:41Z</time>
 <fix>none</fix>
 <sat>0</sat>
</trkpt>
<trkpt lat="31.720580000" lon="35.003431667">
<time>2013-04-01T10:38:43Z</time>
 <fix>none</fix>
 <sat>0</sat>
</trkpt>
<trkpt lat="31.720583333" lon="35.003430000">
<time>2013-04-01T10:38:45Z</time>
 <fix>none</fix>
 <sat>0</sat>
</trkpt>
<trkpt lat="31.720586667" lon="35.003425000">
<time>2013-04-01T10:38:47Z</time>
 <fix>none</fix>
 <sat>0</sat>
</trkpt>
<trkpt lat="31.720601667" lon="35.003408333">
<time>2013-04-01T10:38:49Z</time>
 <fix>none</fix>
 <sat>0</sat>
</trkpt>
<trkpt lat="31.720620000" lon="35.003373333">
<time>2013-04-01T10:38:51Z</time>
 <fix>none</fix>
 <sat>0</sat>
</trkpt>
<trkpt lat="31.720643333" lon="35.003330000">
<time>2013-04-01T10:38:53Z</time>
 <fix>none</fix>
 <sat>0</sat>
</trkpt>
<trkpt lat="31.720686667" lon="35.003275000">
<time>2013-04-01T10:38:55Z</time>
 <fix>none</fix>
 <sat>0</sat>
</trkpt>
<trkpt lat="31.720746667" lon="35.003221667">
<time>2013-04-01T10:38:57Z</time>
 <fix>none</fix>
 <sat>0</sat>
</trkpt>
<trkpt lat="31.720816667" lon="35.003166667">
<time>2013-04-01T10:38:59Z</time>
 <fix>none</fix>
 <sat>0</sat>
</trkpt>
<trkpt lat="31.720880000" lon="35.003113333">
<time>2013-04-01T10:39:01Z</time>
 <fix>none</fix>
 <sat>0</sat>
</trkpt>
<trkpt lat="31.720935000" lon="35.003051667">
<time>2013-04-01T10:39:03Z</time>
 <fix>none</fix>
 <sat>0</sat>
</trkpt>
<trkpt lat="31.720983333" lon="35.002991667">
<time>2013-04-01T10:39:05Z</time>
 <fix>none</fix>
 <sat>0</sat>
</trkpt>
<trkpt lat="31.721033333" lon="35.002940000">
<time>2013-04-01T10:39:07Z</time>
 <fix>none</fix>
 <sat>0</sat>
</trkpt>
<trkpt lat="31.721135000" lon="35.002850000">
<time>2013-04-01T10:39:09Z</time>
 <fix>none</fix>
 <sat>0</sat>
</trkpt>
<trkpt lat="31.721171667" lon="35.002816667">
<time>2013-04-01T10:39:11Z</time>
 <fix>none</fix>
 <sat>0</sat>
</trkpt>
<trkpt lat="31.721256667" lon="35.002741667">
<time>2013-04-01T10:39:13Z</time>
 <fix>none</fix>
 <sat>0</sat>
</trkpt>
<trkpt lat="31.721350000" lon="35.002671667">
<time>2013-04-01T10:39:15Z</time>
 <fix>none</fix>
 <sat>0</sat>
</trkpt>
<trkpt lat="31.721440000" lon="35.002613333">
<time>2013-04-01T10:39:17Z</time>
 <fix>none</fix>
 <sat>0</sat>
</trkpt>
<trkpt lat="31.721525000" lon="35.002565000">
<time>2013-04-01T10:39:19Z</time>
 <fix>none</fix>
 <sat>0</sat>
</trkpt>
<trkpt lat="31.721616667" lon="35.002520000">
<time>2013-04-01T10:39:21Z</time>
 <fix>none</fix>
 <sat>0</sat>
</trkpt>
<trkpt lat="31.721698333" lon="35.002488333">
<time>2013-04-01T10:39:23Z</time>
 <fix>none</fix>
 <sat>0</sat>
</trkpt>
<trkpt lat="31.721786667" lon="35.002458333">
<time>2013-04-01T10:39:25Z</time>
 <fix>none</fix>
 <sat>0</sat>
</trkpt>
<trkpt lat="31.721873333" lon="35.002418333">
<time>2013-04-01T10:39:27Z</time>
 <fix>none</fix>
 <sat>0</sat>
</trkpt>
<trkpt lat="31.721975000" lon="35.002360000">
<time>2013-04-01T10:39:29Z</time>
 <fix>none</fix>
 <sat>0</sat>
</trkpt>
<trkpt lat="31.722045000" lon="35.002316667">
<time>2013-04-01T10:39:31Z</time>
 <fix>none</fix>
 <sat>0</sat>
</trkpt>
<trkpt lat="31.722080000" lon="35.002293333">
<time>2013-04-01T10:39:33Z</time>
 <fix>none</fix>
 <sat>0</sat>
</trkpt>
<trkpt lat="31.722155000" lon="35.002240000">
<time>2013-04-01T10:39:35Z</time>
 <fix>none</fix>
 <sat>0</sat>
</trkpt>
<trkpt lat="31.722228333" lon="35.002188333">
<time>2013-04-01T10:39:37Z</time>
 <fix>none</fix>
 <sat>0</sat>
</trkpt>
<trkpt lat="31.722288333" lon="35.002158333">
<time>2013-04-01T10:39:39Z</time>
 <fix>none</fix>
 <sat>0</sat>
</trkpt>
<trkpt lat="31.722351667" lon="35.002153333">
<time>2013-04-01T10:39:41Z</time>
 <fix>none</fix>
 <sat>0</sat>
</trkpt>
<trkpt lat="31.722420000" lon="35.002165000">
<time>2013-04-01T10:39:43Z</time>
 <fix>none</fix>
 <sat>0</sat>
</trkpt>
<trkpt lat="31.722490000" lon="35.002186667">
<time>2013-04-01T10:39:45Z</time>
 <fix>none</fix>
 <sat>0</sat>
</trkpt>
<trkpt lat="31.722560000" lon="35.002218333">
<time>2013-04-01T10:39:47Z</time>
 <fix>none</fix>
 <sat>0</sat>
</trkpt>
<trkpt lat="31.722631667" lon="35.002253333">
<time>2013-04-01T10:39:49Z</time>
 <fix>none</fix>
 <sat>0</sat>
</trkpt>
<trkpt lat="31.722701667" lon="35.002281667">
<time>2013-04-01T10:39:51Z</time>
 <fix>none</fix>
 <sat>0</sat>
</trkpt>
<trkpt lat="31.722770000" lon="35.002306667">
<time>2013-04-01T10:39:53Z</time>
 <fix>none</fix>
 <sat>0</sat>
</trkpt>
<trkpt lat="31.722873333" lon="35.002318333">
<time>2013-04-01T10:39:55Z</time>
 <fix>none</fix>
 <sat>0</sat>
</trkpt>
<trkpt lat="31.722908333" lon="35.002315000">
<time>2013-04-01T10:39:57Z</time>
 <fix>none</fix>
 <sat>0</sat>
</trkpt>
<trkpt lat="31.722973333" lon="35.002305000">
<time>2013-04-01T10:39:59Z</time>
 <fix>none</fix>
 <sat>0</sat>
</trkpt>
<trkpt lat="31.723026667" lon="35.002300000">
<time>2013-04-01T10:40:01Z</time>
 <fix>none</fix>
 <sat>0</sat>
</trkpt>
<trkpt lat="31.723076667" lon="35.002305000">
<time>2013-04-01T10:40:03Z</time>
 <fix>none</fix>
 <sat>0</sat>
</trkpt>
<trkpt lat="31.723120000" lon="35.002320000">
<time>2013-04-01T10:40:05Z</time>
 <fix>none</fix>
 <sat>0</sat>
</trkpt>
<trkpt lat="31.723175000" lon="35.002346667">
<time>2013-04-01T10:40:07Z</time>
 <fix>none</fix>
 <sat>0</sat>
</trkpt>
<trkpt lat="31.723253333" lon="35.002363333">
<time>2013-04-01T10:40:09Z</time>
 <fix>none</fix>
 <sat>0</sat>
</trkpt>
<trkpt lat="31.723356667" lon="35.002350000">
<time>2013-04-01T10:40:11Z</time>
 <fix>none</fix>
 <sat>0</sat>
</trkpt>
<trkpt lat="31.723471667" lon="35.002306667">
<time>2013-04-01T10:40:13Z</time>
 <fix>none</fix>
 <sat>0</sat>
</trkpt>
<trkpt lat="31.723658333" lon="35.002213333">
<time>2013-04-01T10:40:15Z</time>
 <fix>none</fix>
 <sat>0</sat>
</trkpt>
<trkpt lat="31.723771667" lon="35.002150000">
<time>2013-04-01T10:40:17Z</time>
 <fix>none</fix>
 <sat>0</sat>
</trkpt>
<trkpt lat="31.723828333" lon="35.002120000">
<time>2013-04-01T10:40:19Z</time>
 <fix>none</fix>
 <sat>0</sat>
</trkpt>
<trkpt lat="31.723941667" lon="35.002060000">
<time>2013-04-01T10:40:21Z</time>
 <fix>none</fix>
 <sat>0</sat>
</trkpt>
<trkpt lat="31.724060000" lon="35.002010000">
<time>2013-04-01T10:40:23Z</time>
 <fix>none</fix>
 <sat>0</sat>
</trkpt>
<trkpt lat="31.724183333" lon="35.001988333">
<time>2013-04-01T10:40:25Z</time>
 <fix>none</fix>
 <sat>0</sat>
</trkpt>
<trkpt lat="31.724306667" lon="35.001986667">
<time>2013-04-01T10:40:27Z</time>
 <fix>none</fix>
 <sat>0</sat>
</trkpt>
<trkpt lat="31.724430000" lon="35.001998333">
<time>2013-04-01T10:40:29Z</time>
 <fix>none</fix>
 <sat>0</sat>
</trkpt>
<trkpt lat="31.724560000" lon="35.001980000">
<time>2013-04-01T10:40:31Z</time>
 <fix>none</fix>
 <sat>0</sat>
</trkpt>
<trkpt lat="31.724690000" lon="35.001921667">
<time>2013-04-01T10:40:33Z</time>
 <fix>none</fix>
 <sat>0</sat>
</trkpt>
<trkpt lat="31.724815000" lon="35.001835000">
<time>2013-04-01T10:40:35Z</time>
 <fix>none</fix>
 <sat>0</sat>
</trkpt>
<trkpt lat="31.724931667" lon="35.001741667">
<time>2013-04-01T10:40:37Z</time>
 <fix>none</fix>
 <sat>0</sat>
</trkpt>
<trkpt lat="31.725105000" lon="35.001601667">
<time>2013-04-01T10:40:39Z</time>
 <fix>none</fix>
 <sat>0</sat>
</trkpt>
<trkpt lat="31.725170000" lon="35.001563333">
<time>2013-04-01T10:40:41Z</time>
 <fix>none</fix>
 <sat>0</sat>
</trkpt>
<trkpt lat="31.725310000" lon="35.001500000">
<time>2013-04-01T10:40:43Z</time>
 <fix>none</fix>
 <sat>0</sat>
</trkpt>
<trkpt lat="31.725470000" lon="35.001445000">
<time>2013-04-01T10:40:45Z</time>
 <fix>none</fix>
 <sat>0</sat>
</trkpt>
<trkpt lat="31.725641667" lon="35.001388333">
<time>2013-04-01T10:40:47Z</time>
 <fix>none</fix>
 <sat>0</sat>
</trkpt>
<trkpt lat="31.725821667" lon="35.001328333">
<time>2013-04-01T10:40:49Z</time>
 <fix>none</fix>
 <sat>0</sat>
</trkpt>
<trkpt lat="31.725995000" lon="35.001276667">
<time>2013-04-01T10:40:51Z</time>
 <fix>none</fix>
 <sat>0</sat>
</trkpt>
<trkpt lat="31.726161667" lon="35.001230000">
<time>2013-04-01T10:40:53Z</time>
 <fix>none</fix>
 <sat>0</sat>
</trkpt>
<trkpt lat="31.726325000" lon="35.001183333">
<time>2013-04-01T10:40:55Z</time>
 <fix>none</fix>
 <sat>0</sat>
</trkpt>
<trkpt lat="31.726490000" lon="35.001136667">
<time>2013-04-01T10:40:57Z</time>
 <fix>none</fix>
 <sat>0</sat>
</trkpt>
<trkpt lat="31.726655000" lon="35.001111667">
<time>2013-04-01T10:40:59Z</time>
 <fix>none</fix>
 <sat>0</sat>
</trkpt>
<trkpt lat="31.726815000" lon="35.001123333">
<time>2013-04-01T10:41:01Z</time>
 <fix>none</fix>
 <sat>0</sat>
</trkpt>
<trkpt lat="31.727053333" lon="35.001166667">
<time>2013-04-01T10:41:03Z</time>
 <fix>none</fix>
 <sat>0</sat>
</trkpt>
<trkpt lat="31.727118333" lon="35.001166667">
<time>2013-04-01T10:41:05Z</time>
 <fix>none</fix>
 <sat>0</sat>
</trkpt>
<trkpt lat="31.727216667" lon="35.001121667">
<time>2013-04-01T10:41:07Z</time>
 <fix>none</fix>
 <sat>0</sat>
</trkpt>
<trkpt lat="31.727303333" lon="35.001048333">
<time>2013-04-01T10:41:09Z</time>
 <fix>none</fix>
 <sat>0</sat>
</trkpt>
<trkpt lat="31.727395000" lon="35.000993333">
<time>2013-04-01T10:41:11Z</time>
 <fix>none</fix>
 <sat>0</sat>
</trkpt>
<trkpt lat="31.727506667" lon="35.000956667">
<time>2013-04-01T10:41:13Z</time>
 <fix>none</fix>
 <sat>0</sat>
</trkpt>
<trkpt lat="31.727601667" lon="35.000911667">
<time>2013-04-01T10:41:15Z</time>
 <fix>none</fix>
 <sat>0</sat>
</trkpt>
<trkpt lat="31.727710000" lon="35.000860000">
<time>2013-04-01T10:41:17Z</time>
 <fix>none</fix>
 <sat>0</sat>
</trkpt>
<trkpt lat="31.727835000" lon="35.000806667">
<time>2013-04-01T10:41:19Z</time>
 <fix>none</fix>
 <sat>0</sat>
</trkpt>
<trkpt lat="31.727965000" lon="35.000755000">
<time>2013-04-01T10:41:21Z</time>
 <fix>none</fix>
 <sat>0</sat>
</trkpt>
<trkpt lat="31.728085000" lon="35.000706667">
<time>2013-04-01T10:41:23Z</time>
 <fix>none</fix>
 <sat>0</sat>
</trkpt>
<trkpt lat="31.728238333" lon="35.000600000">
<time>2013-04-01T10:41:25Z</time>
 <fix>none</fix>
 <sat>0</sat>
</trkpt>
<trkpt lat="31.728276667" lon="35.000550000">
<time>2013-04-01T10:41:27Z</time>
 <fix>none</fix>
 <sat>0</sat>
</trkpt>
<trkpt lat="31.728330000" lon="35.000436667">
<time>2013-04-01T10:41:29Z</time>
 <fix>none</fix>
 <sat>0</sat>
</trkpt>
<trkpt lat="31.728366667" lon="35.000323333">
<time>2013-04-01T10:41:31Z</time>
 <fix>none</fix>
 <sat>0</sat>
</trkpt>
<trkpt lat="31.728396667" lon="35.000206667">
<time>2013-04-01T10:41:33Z</time>
 <fix>none</fix>
 <sat>0</sat>
</trkpt>
<trkpt lat="31.728435000" lon="35.000111667">
<time>2013-04-01T10:41:35Z</time>
 <fix>none</fix>
 <sat>0</sat>
</trkpt>
<trkpt lat="31.728490000" lon="35.000025000">
<time>2013-04-01T10:41:37Z</time>
 <fix>none</fix>
 <sat>0</sat>
</trkpt>
<trkpt lat="31.728560000" lon="34.999928333">
<time>2013-04-01T10:41:39Z</time>
 <fix>none</fix>
 <sat>0</sat>
</trkpt>
<trkpt lat="31.728641667" lon="34.999830000">
<time>2013-04-01T10:41:41Z</time>
 <fix>none</fix>
 <sat>0</sat>
</trkpt>
<trkpt lat="31.728798333" lon="34.999696667">
<time>2013-04-01T10:41:43Z</time>
 <fix>none</fix>
 <sat>0</sat>
</trkpt>
<trkpt lat="31.728853333" lon="34.999650000">
<time>2013-04-01T10:41:45Z</time>
 <fix>none</fix>
 <sat>0</sat>
</trkpt>
<trkpt lat="31.729031667" lon="34.999531667">
<time>2013-04-01T10:41:47Z</time>
 <fix>none</fix>
 <sat>0</sat>
</trkpt>
<trkpt lat="31.729160000" lon="34.999466667">
<time>2013-04-01T10:41:49Z</time>
 <fix>none</fix>
 <sat>0</sat>
</trkpt>
<trkpt lat="31.729223333" lon="34.999433333">
<time>2013-04-01T10:41:51Z</time>
 <fix>none</fix>
 <sat>0</sat>
</trkpt>
<trkpt lat="31.729346667" lon="34.999378333">
<time>2013-04-01T10:41:53Z</time>
 <fix>none</fix>
 <sat>0</sat>
</trkpt>
<trkpt lat="31.729466667" lon="34.999335000">
<time>2013-04-01T10:41:55Z</time>
 <fix>none</fix>
 <sat>0</sat>
</trkpt>
<trkpt lat="31.729578333" lon="34.999288333">
<time>2013-04-01T10:41:57Z</time>
 <fix>none</fix>
 <sat>0</sat>
</trkpt>
<trkpt lat="31.729656667" lon="34.999240000">
<time>2013-04-01T10:41:59Z</time>
 <fix>none</fix>
 <sat>0</sat>
</trkpt>
<trkpt lat="31.729711667" lon="34.999208333">
<time>2013-04-01T10:42:01Z</time>
 <fix>none</fix>
 <sat>0</sat>
</trkpt>
<trkpt lat="31.729760000" lon="34.999186667">
<time>2013-04-01T10:42:03Z</time>
 <fix>none</fix>
 <sat>0</sat>
</trkpt>
<trkpt lat="31.729800000" lon="34.999170000">
<time>2013-04-01T10:42:05Z</time>
 <fix>none</fix>
 <sat>0</sat>
</trkpt>
<trkpt lat="31.729828333" lon="34.999153333">
<time>2013-04-01T10:42:07Z</time>
 <fix>none</fix>
 <sat>0</sat>
</trkpt>
<trkpt lat="31.729870000" lon="34.999128333">
<time>2013-04-01T10:42:09Z</time>
 <fix>none</fix>
 <sat>0</sat>
</trkpt>
<trkpt lat="31.729891667" lon="34.999115000">
<time>2013-04-01T10:42:11Z</time>
 <fix>none</fix>
 <sat>0</sat>
</trkpt>
<trkpt lat="31.729900000" lon="34.999110000">
<time>2013-04-01T10:42:13Z</time>
 <fix>none</fix>
 <sat>0</sat>
</trkpt>
<trkpt lat="31.729931667" lon="34.999108333">
<time>2013-04-01T10:42:15Z</time>
 <fix>none</fix>
 <sat>0</sat>
</trkpt>
<trkpt lat="31.729965000" lon="34.999105000">
<time>2013-04-01T10:42:17Z</time>
 <fix>none</fix>
 <sat>0</sat>
</trkpt>
<trkpt lat="31.729993333" lon="34.999101667">
<time>2013-04-01T10:42:19Z</time>
 <fix>none</fix>
 <sat>0</sat>
</trkpt>
<trkpt lat="31.730016667" lon="34.999098333">
<time>2013-04-01T10:42:21Z</time>
 <fix>none</fix>
 <sat>0</sat>
</trkpt>
<trkpt lat="31.730041667" lon="34.999096667">
<time>2013-04-01T10:42:23Z</time>
 <fix>none</fix>
 <sat>0</sat>
</trkpt>
<trkpt lat="31.730078333" lon="34.999098333">
<time>2013-04-01T10:42:25Z</time>
 <fix>none</fix>
 <sat>0</sat>
</trkpt>
<trkpt lat="31.730125000" lon="34.999105000">
<time>2013-04-01T10:42:27Z</time>
 <fix>none</fix>
 <sat>0</sat>
</trkpt>
<trkpt lat="31.730185000" lon="34.999115000">
<time>2013-04-01T10:42:29Z</time>
 <fix>none</fix>
 <sat>0</sat>
</trkpt>
<trkpt lat="31.730241667" lon="34.999131667">
<time>2013-04-01T10:42:31Z</time>
 <fix>none</fix>
 <sat>0</sat>
</trkpt>
<trkpt lat="31.730335000" lon="34.999156667">
<time>2013-04-01T10:42:33Z</time>
 <fix>none</fix>
 <sat>0</sat>
</trkpt>
<trkpt lat="31.730371667" lon="34.999161667">
<time>2013-04-01T10:42:35Z</time>
 <fix>none</fix>
 <sat>0</sat>
</trkpt>
<trkpt lat="31.730443333" lon="34.999161667">
<time>2013-04-01T10:42:37Z</time>
 <fix>none</fix>
 <sat>0</sat>
</trkpt>
<trkpt lat="31.730510000" lon="34.999151667">
<time>2013-04-01T10:42:39Z</time>
 <fix>none</fix>
 <sat>0</sat>
</trkpt>
<trkpt lat="31.730568333" lon="34.999130000">
<time>2013-04-01T10:42:41Z</time>
 <fix>none</fix>
 <sat>0</sat>
</trkpt>
<trkpt lat="31.730640000" lon="34.999101667">
<time>2013-04-01T10:42:43Z</time>
 <fix>none</fix>
 <sat>0</sat>
</trkpt>
<trkpt lat="31.730723333" lon="34.999083333">
<time>2013-04-01T10:42:45Z</time>
 <fix>none</fix>
 <sat>0</sat>
</trkpt>
<trkpt lat="31.730808333" lon="34.999088333">
<time>2013-04-01T10:42:47Z</time>
 <fix>none</fix>
 <sat>0</sat>
</trkpt>
<trkpt lat="31.730888333" lon="34.999113333">
<time>2013-04-01T10:42:49Z</time>
 <fix>none</fix>
 <sat>0</sat>
</trkpt>
<trkpt lat="31.730975000" lon="34.999151667">
<time>2013-04-01T10:42:51Z</time>
 <fix>none</fix>
 <sat>0</sat>
</trkpt>
<trkpt lat="31.731113333" lon="34.999208333">
<time>2013-04-01T10:42:53Z</time>
 <fix>none</fix>
 <sat>0</sat>
</trkpt>
<trkpt lat="31.731203333" lon="34.999246667">
<time>2013-04-01T10:42:55Z</time>
 <fix>none</fix>
 <sat>0</sat>
</trkpt>
<trkpt lat="31.731283333" lon="34.999283333">
<time>2013-04-01T10:42:57Z</time>
 <fix>none</fix>
 <sat>0</sat>
</trkpt>
<trkpt lat="31.731316667" lon="34.999296667">
<time>2013-04-01T10:42:59Z</time>
 <fix>none</fix>
 <sat>0</sat>
</trkpt>
<trkpt lat="31.731378333" lon="34.999306667">
<time>2013-04-01T10:43:01Z</time>
 <fix>none</fix>
 <sat>0</sat>
</trkpt>
<trkpt lat="31.731405000" lon="34.999265000">
<time>2013-04-01T10:43:03Z</time>
 <fix>none</fix>
 <sat>0</sat>
</trkpt>
<trkpt lat="31.731418333" lon="34.999203333">
<time>2013-04-01T10:43:05Z</time>
 <fix>none</fix>
 <sat>0</sat>
</trkpt>
<trkpt lat="31.731440000" lon="34.999116667">
<time>2013-04-01T10:43:07Z</time>
 <fix>none</fix>
 <sat>0</sat>
</trkpt>
<trkpt lat="31.731456667" lon="34.999021667">
<time>2013-04-01T10:43:09Z</time>
 <fix>none</fix>
 <sat>0</sat>
</trkpt>
<trkpt lat="31.731470000" lon="34.998925000">
<time>2013-04-01T10:43:11Z</time>
 <fix>none</fix>
 <sat>0</sat>
</trkpt>
<trkpt lat="31.731476667" lon="34.998816667">
<time>2013-04-01T10:43:13Z</time>
 <fix>none</fix>
 <sat>0</sat>
</trkpt>
<trkpt lat="31.731480000" lon="34.998698333">
<time>2013-04-01T10:43:15Z</time>
 <fix>none</fix>
 <sat>0</sat>
</trkpt>
<trkpt lat="31.731495000" lon="34.998525000">
<time>2013-04-01T10:43:17Z</time>
 <fix>none</fix>
 <sat>0</sat>
</trkpt>
<trkpt lat="31.731506667" lon="34.998396667">
<time>2013-04-01T10:43:19Z</time>
 <fix>none</fix>
 <sat>0</sat>
</trkpt>
<trkpt lat="31.731513333" lon="34.998343333">
<time>2013-04-01T10:43:21Z</time>
 <fix>none</fix>
 <sat>0</sat>
</trkpt>
<trkpt lat="31.731525000" lon="34.998251667">
<time>2013-04-01T10:43:23Z</time>
 <fix>none</fix>
 <sat>0</sat>
</trkpt>
<trkpt lat="31.731545000" lon="34.998178333">
<time>2013-04-01T10:43:25Z</time>
 <fix>none</fix>
 <sat>0</sat>
</trkpt>
<trkpt lat="31.731570000" lon="34.998141667">
<time>2013-04-01T10:43:27Z</time>
 <fix>none</fix>
 <sat>0</sat>
</trkpt>
<trkpt lat="31.731578333" lon="34.998098333">
<time>2013-04-01T10:43:29Z</time>
 <fix>none</fix>
 <sat>0</sat>
</trkpt>
<trkpt lat="31.731550000" lon="34.998061667">
<time>2013-04-01T10:43:31Z</time>
 <fix>none</fix>
 <sat>0</sat>
</trkpt>
<trkpt lat="31.731526667" lon="34.998008333">
<time>2013-04-01T10:43:33Z</time>
 <fix>none</fix>
 <sat>0</sat>
</trkpt>
<trkpt lat="31.731506667" lon="34.997960000">
<time>2013-04-01T10:43:35Z</time>
 <fix>none</fix>
 <sat>0</sat>
</trkpt>
<trkpt lat="31.731495000" lon="34.997948333">
<time>2013-04-01T10:43:37Z</time>
 <fix>none</fix>
 <sat>0</sat>
</trkpt>
<trkpt lat="31.731495000" lon="34.997948333">
<time>2013-04-01T10:43:39Z</time>
 <fix>none</fix>
 <sat>0</sat>
</trkpt>
<trkpt lat="31.731490000" lon="34.997950000">
<time>2013-04-01T10:43:41Z</time>
 <fix>none</fix>
 <sat>0</sat>
</trkpt>
<trkpt lat="31.731486667" lon="34.997948333">
<time>2013-04-01T10:43:43Z</time>
 <fix>none</fix>
 <sat>0</sat>
</trkpt>
<trkpt lat="31.731486667" lon="34.997950000">
<time>2013-04-01T10:43:45Z</time>
 <fix>none</fix>
 <sat>0</sat>
</trkpt>
<trkpt lat="31.731485000" lon="34.997950000">
<time>2013-04-01T10:43:47Z</time>
 <fix>none</fix>
 <sat>0</sat>
</trkpt>
<trkpt lat="31.731486667" lon="34.997956667">
<time>2013-04-01T10:43:49Z</time>
 <fix>none</fix>
 <sat>0</sat>
</trkpt>
<trkpt lat="31.731490000" lon="34.997963333">
<time>2013-04-01T10:43:51Z</time>
 <fix>none</fix>
 <sat>0</sat>
</trkpt>
<trkpt lat="31.731495000" lon="34.997975000">
<time>2013-04-01T10:43:53Z</time>
 <fix>none</fix>
 <sat>0</sat>
</trkpt>
<trkpt lat="31.731495000" lon="34.997978333">
<time>2013-04-01T10:43:55Z</time>
 <fix>none</fix>
 <sat>0</sat>
</trkpt>
<trkpt lat="31.731498333" lon="34.997981667">
<time>2013-04-01T10:43:57Z</time>
 <fix>none</fix>
 <sat>0</sat>
</trkpt>
<trkpt lat="31.731505000" lon="34.997986667">
<time>2013-04-01T10:43:59Z</time>
 <fix>none</fix>
 <sat>0</sat>
</trkpt>
<trkpt lat="31.731505000" lon="34.997986667">
<time>2013-04-01T10:44:01Z</time>
 <fix>none</fix>
 <sat>0</sat>
</trkpt>
<trkpt lat="31.731505000" lon="34.997990000">
<time>2013-04-01T10:44:03Z</time>
 <fix>none</fix>
 <sat>0</sat>
</trkpt>
<trkpt lat="31.731506667" lon="34.997988333">
<time>2013-04-01T10:44:05Z</time>
 <fix>none</fix>
 <sat>0</sat>
</trkpt>
<trkpt lat="31.731508333" lon="34.997988333">
<time>2013-04-01T10:44:07Z</time>
 <fix>none</fix>
 <sat>0</sat>
</trkpt>
<trkpt lat="31.731510000" lon="34.997986667">
<time>2013-04-01T10:44:09Z</time>
 <fix>none</fix>
 <sat>0</sat>
</trkpt>
<trkpt lat="31.731511667" lon="34.997985000">
<time>2013-04-01T10:44:11Z</time>
 <fix>none</fix>
 <sat>0</sat>
</trkpt>
<trkpt lat="31.731511667" lon="34.997985000">
<time>2013-04-01T10:44:13Z</time>
 <fix>none</fix>
 <sat>0</sat>
</trkpt>
<trkpt lat="31.731511667" lon="34.997986667">
<time>2013-04-01T10:44:15Z</time>
 <fix>none</fix>
 <sat>0</sat>
</trkpt>
<trkpt lat="31.731513333" lon="34.997986667">
<time>2013-04-01T10:44:17Z</time>
 <fix>none</fix>
 <sat>0</sat>
</trkpt>
<trkpt lat="31.731513333" lon="34.997988333">
<time>2013-04-01T10:44:19Z</time>
 <fix>none</fix>
 <sat>0</sat>
</trkpt>
<trkpt lat="31.731513333" lon="34.997991667">
<time>2013-04-01T10:44:21Z</time>
 <fix>none</fix>
 <sat>0</sat>
</trkpt>
<trkpt lat="31.731511667" lon="34.997995000">
<time>2013-04-01T10:44:23Z</time>
 <fix>none</fix>
 <sat>0</sat>
</trkpt>
<trkpt lat="31.731511667" lon="34.997998333">
<time>2013-04-01T10:44:25Z</time>
 <fix>none</fix>
 <sat>0</sat>
</trkpt>
<trkpt lat="31.731510000" lon="34.998001667">
<time>2013-04-01T10:44:27Z</time>
 <fix>none</fix>
 <sat>0</sat>
</trkpt>
<trkpt lat="31.731510000" lon="34.998003333">
<time>2013-04-01T10:44:29Z</time>
 <fix>none</fix>
 <sat>0</sat>
</trkpt>
<trkpt lat="31.731503333" lon="34.998011667">
<time>2013-04-01T10:44:31Z</time>
 <fix>none</fix>
 <sat>0</sat>
</trkpt>
<trkpt lat="31.731496667" lon="34.998018333">
<time>2013-04-01T10:44:33Z</time>
 <fix>none</fix>
 <sat>0</sat>
</trkpt>
<trkpt lat="31.731495000" lon="34.998026667">
<time>2013-04-01T10:44:35Z</time>
 <fix>none</fix>
 <sat>0</sat>
</trkpt>
<trkpt lat="31.731491667" lon="34.998048333">
<time>2013-04-01T10:44:37Z</time>
 <fix>none</fix>
 <sat>0</sat>
</trkpt>
<trkpt lat="31.731491667" lon="34.998061667">
<time>2013-04-01T10:44:39Z</time>
 <fix>none</fix>
 <sat>0</sat>
</trkpt>
<trkpt lat="31.731496667" lon="34.998070000">
<time>2013-04-01T10:44:41Z</time>
 <fix>none</fix>
 <sat>0</sat>
</trkpt>
<trkpt lat="31.731501667" lon="34.998081667">
<time>2013-04-01T10:44:43Z</time>
 <fix>none</fix>
 <sat>0</sat>
</trkpt>
<trkpt lat="31.731506667" lon="34.998095000">
<time>2013-04-01T10:44:45Z</time>
 <fix>none</fix>
 <sat>0</sat>
</trkpt>
<trkpt lat="31.731520000" lon="34.998110000">
<time>2013-04-01T10:44:47Z</time>
 <fix>none</fix>
 <sat>0</sat>
</trkpt>
<trkpt lat="31.731546667" lon="34.998140000">
<time>2013-04-01T10:44:49Z</time>
 <fix>none</fix>
 <sat>0</sat>
</trkpt>
<trkpt lat="31.731570000" lon="34.998166667">
<time>2013-04-01T10:44:51Z</time>
 <fix>none</fix>
 <sat>0</sat>
</trkpt>
<trkpt lat="31.731583333" lon="34.998181667">
<time>2013-04-01T10:44:53Z</time>
 <fix>none</fix>
 <sat>0</sat>
</trkpt>
<trkpt lat="31.731616667" lon="34.998216667">
<time>2013-04-01T10:44:55Z</time>
 <fix>none</fix>
 <sat>0</sat>
</trkpt>
<trkpt lat="31.731660000" lon="34.998246667">
<time>2013-04-01T10:44:57Z</time>
 <fix>none</fix>
 <sat>0</sat>
</trkpt>
<trkpt lat="31.731698333" lon="34.998291667">
<time>2013-04-01T10:44:59Z</time>
 <fix>none</fix>
 <sat>0</sat>
</trkpt>
<trkpt lat="31.731746667" lon="34.998346667">
<time>2013-04-01T10:45:01Z</time>
 <fix>none</fix>
 <sat>0</sat>
</trkpt>
<trkpt lat="31.731798333" lon="34.998408333">
<time>2013-04-01T10:45:03Z</time>
 <fix>none</fix>
 <sat>0</sat>
</trkpt>
<trkpt lat="31.731853333" lon="34.998480000">
<time>2013-04-01T10:45:05Z</time>
 <fix>none</fix>
 <sat>0</sat>
</trkpt>
<trkpt lat="31.731925000" lon="34.998553333">
<time>2013-04-01T10:45:07Z</time>
 <fix>none</fix>
 <sat>0</sat>
</trkpt>
<trkpt lat="31.731998333" lon="34.998626667">
<time>2013-04-01T10:45:09Z</time>
 <fix>none</fix>
 <sat>0</sat>
</trkpt>
<trkpt lat="31.732068333" lon="34.998698333">
<time>2013-04-01T10:45:11Z</time>
 <fix>none</fix>
 <sat>0</sat>
</trkpt>
<trkpt lat="31.732191667" lon="34.998810000">
<time>2013-04-01T10:45:13Z</time>
 <fix>none</fix>
 <sat>0</sat>
</trkpt>
<trkpt lat="31.732243333" lon="34.998855000">
<time>2013-04-01T10:45:15Z</time>
 <fix>none</fix>
 <sat>0</sat>
</trkpt>
<trkpt lat="31.732353333" lon="34.998945000">
<time>2013-04-01T10:45:17Z</time>
 <fix>none</fix>
 <sat>0</sat>
</trkpt>
<trkpt lat="31.732483333" lon="34.999051667">
<time>2013-04-01T10:45:19Z</time>
 <fix>none</fix>
 <sat>0</sat>
</trkpt>
<trkpt lat="31.732626667" lon="34.999168333">
<time>2013-04-01T10:45:21Z</time>
 <fix>none</fix>
 <sat>0</sat>
</trkpt>
<trkpt lat="31.732780000" lon="34.999288333">
<time>2013-04-01T10:45:23Z</time>
 <fix>none</fix>
 <sat>0</sat>
</trkpt>
<trkpt lat="31.732938333" lon="34.999408333">
<time>2013-04-01T10:45:25Z</time>
 <fix>none</fix>
 <sat>0</sat>
</trkpt>
<trkpt lat="31.733091667" lon="34.999516667">
<time>2013-04-01T10:45:27Z</time>
 <fix>none</fix>
 <sat>0</sat>
</trkpt>
<trkpt lat="31.733223333" lon="34.999611667">
<time>2013-04-01T10:45:29Z</time>
 <fix>none</fix>
 <sat>0</sat>
</trkpt>
<trkpt lat="31.733325000" lon="34.999693333">
<time>2013-04-01T10:45:31Z</time>
 <fix>none</fix>
 <sat>0</sat>
</trkpt>
<trkpt lat="31.733401667" lon="34.999755000">
<time>2013-04-01T10:45:33Z</time>
 <fix>none</fix>
 <sat>0</sat>
</trkpt>
<trkpt lat="31.733483333" lon="34.999820000">
<time>2013-04-01T10:45:35Z</time>
 <fix>none</fix>
 <sat>0</sat>
</trkpt>
<trkpt lat="31.733531667" lon="34.999850000">
<time>2013-04-01T10:45:37Z</time>
 <fix>none</fix>
 <sat>0</sat>
</trkpt>
<trkpt lat="31.733553333" lon="34.999863333">
<time>2013-04-01T10:45:39Z</time>
 <fix>none</fix>
 <sat>0</sat>
</trkpt>
<trkpt lat="31.733605000" lon="34.999866667">
<time>2013-04-01T10:45:41Z</time>
 <fix>none</fix>
 <sat>0</sat>
</trkpt>
<trkpt lat="31.733656667" lon="34.999836667">
<time>2013-04-01T10:45:43Z</time>
 <fix>none</fix>
 <sat>0</sat>
</trkpt>
<trkpt lat="31.733706667" lon="34.999778333">
<time>2013-04-01T10:45:45Z</time>
 <fix>none</fix>
 <sat>0</sat>
</trkpt>
<trkpt lat="31.733753333" lon="34.999696667">
<time>2013-04-01T10:45:47Z</time>
 <fix>none</fix>
 <sat>0</sat>
</trkpt>
<trkpt lat="31.733796667" lon="34.999603333">
<time>2013-04-01T10:45:49Z</time>
 <fix>none</fix>
 <sat>0</sat>
</trkpt>
<trkpt lat="31.733843333" lon="34.999508333">
<time>2013-04-01T10:45:51Z</time>
 <fix>none</fix>
 <sat>0</sat>
</trkpt>
<trkpt lat="31.733888333" lon="34.999401667">
<time>2013-04-01T10:45:53Z</time>
 <fix>none</fix>
 <sat>0</sat>
</trkpt>
<trkpt lat="31.733931667" lon="34.999293333">
<time>2013-04-01T10:45:55Z</time>
 <fix>none</fix>
 <sat>0</sat>
</trkpt>
<trkpt lat="31.733976667" lon="34.999178333">
<time>2013-04-01T10:45:57Z</time>
 <fix>none</fix>
 <sat>0</sat>
</trkpt>
<trkpt lat="31.734035000" lon="34.998985000">
<time>2013-04-01T10:45:59Z</time>
 <fix>none</fix>
 <sat>0</sat>
</trkpt>
<trkpt lat="31.734053333" lon="34.998915000">
<time>2013-04-01T10:46:01Z</time>
 <fix>none</fix>
 <sat>0</sat>
</trkpt>
<trkpt lat="31.734085000" lon="34.998770000">
<time>2013-04-01T10:46:03Z</time>
 <fix>none</fix>
 <sat>0</sat>
</trkpt>
<trkpt lat="31.734113333" lon="34.998616667">
<time>2013-04-01T10:46:05Z</time>
 <fix>none</fix>
 <sat>0</sat>
</trkpt>
<trkpt lat="31.734133333" lon="34.998466667">
<time>2013-04-01T10:46:07Z</time>
 <fix>none</fix>
 <sat>0</sat>
</trkpt>
<trkpt lat="31.734160000" lon="34.998328333">
<time>2013-04-01T10:46:09Z</time>
 <fix>none</fix>
 <sat>0</sat>
</trkpt>
<trkpt lat="31.734181667" lon="34.998183333">
<time>2013-04-01T10:46:11Z</time>
 <fix>none</fix>
 <sat>0</sat>
</trkpt>
<trkpt lat="31.734190000" lon="34.998030000">
<time>2013-04-01T10:46:13Z</time>
 <fix>none</fix>
 <sat>0</sat>
</trkpt>
<trkpt lat="31.734181667" lon="34.997883333">
<time>2013-04-01T10:46:15Z</time>
 <fix>none</fix>
 <sat>0</sat>
</trkpt>
<trkpt lat="31.734173333" lon="34.997726667">
<time>2013-04-01T10:46:17Z</time>
 <fix>none</fix>
 <sat>0</sat>
</trkpt>
<trkpt lat="31.734150000" lon="34.997545000">
<time>2013-04-01T10:46:19Z</time>
 <fix>none</fix>
 <sat>0</sat>
</trkpt>
<trkpt lat="31.734095000" lon="34.997261667">
<time>2013-04-01T10:46:21Z</time>
 <fix>none</fix>
 <sat>0</sat>
</trkpt>
<trkpt lat="31.734078333" lon="34.997170000">
<time>2013-04-01T10:46:23Z</time>
 <fix>none</fix>
 <sat>0</sat>
</trkpt>
<trkpt lat="31.734041667" lon="34.996986667">
<time>2013-04-01T10:46:25Z</time>
 <fix>none</fix>
 <sat>0</sat>
</trkpt>
<trkpt lat="31.734008333" lon="34.996805000">
<time>2013-04-01T10:46:27Z</time>
 <fix>none</fix>
 <sat>0</sat>
</trkpt>
<trkpt lat="31.733980000" lon="34.996646667">
<time>2013-04-01T10:46:29Z</time>
 <fix>none</fix>
 <sat>0</sat>
</trkpt>
<trkpt lat="31.733950000" lon="34.996501667">
<time>2013-04-01T10:46:31Z</time>
 <fix>none</fix>
 <sat>0</sat>
</trkpt>
<trkpt lat="31.733920000" lon="34.996353333">
<time>2013-04-01T10:46:33Z</time>
 <fix>none</fix>
 <sat>0</sat>
</trkpt>
<trkpt lat="31.733891667" lon="34.996198333">
<time>2013-04-01T10:46:35Z</time>
 <fix>none</fix>
 <sat>0</sat>
</trkpt>
<trkpt lat="31.733873333" lon="34.996021667">
<time>2013-04-01T10:46:37Z</time>
 <fix>none</fix>
 <sat>0</sat>
</trkpt>
<trkpt lat="31.733830000" lon="34.995851667">
<time>2013-04-01T10:46:39Z</time>
 <fix>none</fix>
 <sat>0</sat>
</trkpt>
<trkpt lat="31.733788333" lon="34.995688333">
<time>2013-04-01T10:46:41Z</time>
 <fix>none</fix>
 <sat>0</sat>
</trkpt>
<trkpt lat="31.733753333" lon="34.995511667">
<time>2013-04-01T10:46:43Z</time>
 <fix>none</fix>
 <sat>0</sat>
</trkpt>
<trkpt lat="31.733693333" lon="34.995203333">
<time>2013-04-01T10:46:45Z</time>
 <fix>none</fix>
 <sat>0</sat>
</trkpt>
<trkpt lat="31.733671667" lon="34.995096667">
<time>2013-04-01T10:46:47Z</time>
 <fix>none</fix>
 <sat>0</sat>
</trkpt>
<trkpt lat="31.733621667" lon="34.994883333">
<time>2013-04-01T10:46:49Z</time>
 <fix>none</fix>
 <sat>0</sat>
</trkpt>
<trkpt lat="31.733578333" lon="34.994670000">
<time>2013-04-01T10:46:51Z</time>
 <fix>none</fix>
 <sat>0</sat>
</trkpt>
<trkpt lat="31.733533333" lon="34.994453333">
<time>2013-04-01T10:46:53Z</time>
 <fix>none</fix>
 <sat>0</sat>
</trkpt>
<trkpt lat="31.733506667" lon="34.994230000">
<time>2013-04-01T10:46:55Z</time>
 <fix>none</fix>
 <sat>0</sat>
</trkpt>
<trkpt lat="31.733493333" lon="34.994013333">
<time>2013-04-01T10:46:57Z</time>
 <fix>none</fix>
 <sat>0</sat>
</trkpt>
<trkpt lat="31.733490000" lon="34.993805000">
<time>2013-04-01T10:46:59Z</time>
 <fix>none</fix>
 <sat>0</sat>
</trkpt>
<trkpt lat="31.733495000" lon="34.993688333">
<time>2013-04-01T10:47:01Z</time>
 <fix>none</fix>
 <sat>0</sat>
</trkpt>
<trkpt lat="31.733498333" lon="34.993626667">
<time>2013-04-01T10:47:03Z</time>
 <fix>none</fix>
 <sat>0</sat>
</trkpt>
<trkpt lat="31.733520000" lon="34.993568333">
<time>2013-04-01T10:47:05Z</time>
 <fix>none</fix>
 <sat>0</sat>
</trkpt>
<trkpt lat="31.733576667" lon="34.993506667">
<time>2013-04-01T10:47:07Z</time>
 <fix>none</fix>
 <sat>0</sat>
</trkpt>
<trkpt lat="31.733598333" lon="34.993496667">
<time>2013-04-01T10:47:09Z</time>
 <fix>none</fix>
 <sat>0</sat>
</trkpt>
<trkpt lat="31.733633333" lon="34.993473333">
<time>2013-04-01T10:47:11Z</time>
 <fix>none</fix>
 <sat>0</sat>
</trkpt>
<trkpt lat="31.733658333" lon="34.993415000">
<time>2013-04-01T10:47:13Z</time>
 <fix>none</fix>
 <sat>0</sat>
</trkpt>
<trkpt lat="31.733676667" lon="34.993336667">
<time>2013-04-01T10:47:15Z</time>
 <fix>none</fix>
 <sat>0</sat>
</trkpt>
<trkpt lat="31.733706667" lon="34.993260000">
<time>2013-04-01T10:47:17Z</time>
 <fix>none</fix>
 <sat>0</sat>
</trkpt>
<trkpt lat="31.733740000" lon="34.993185000">
<time>2013-04-01T10:47:19Z</time>
 <fix>none</fix>
 <sat>0</sat>
</trkpt>
<trkpt lat="31.733753333" lon="34.993105000">
<time>2013-04-01T10:47:21Z</time>
 <fix>none</fix>
 <sat>0</sat>
</trkpt>
<trkpt lat="31.733741667" lon="34.993031667">
<time>2013-04-01T10:47:23Z</time>
 <fix>none</fix>
 <sat>0</sat>
</trkpt>
<trkpt lat="31.733701667" lon="34.992971667">
<time>2013-04-01T10:47:25Z</time>
 <fix>none</fix>
 <sat>0</sat>
</trkpt>
<trkpt lat="31.733648333" lon="34.992926667">
<time>2013-04-01T10:47:27Z</time>
 <fix>none</fix>
 <sat>0</sat>
</trkpt>
<trkpt lat="31.733595000" lon="34.992880000">
<time>2013-04-01T10:47:29Z</time>
 <fix>none</fix>
 <sat>0</sat>
</trkpt>
<trkpt lat="31.733533333" lon="34.992778333">
<time>2013-04-01T10:47:31Z</time>
 <fix>none</fix>
 <sat>0</sat>
</trkpt>
<trkpt lat="31.733511667" lon="34.992731667">
<time>2013-04-01T10:47:33Z</time>
 <fix>none</fix>
 <sat>0</sat>
</trkpt>
<trkpt lat="31.733461667" lon="34.992626667">
<time>2013-04-01T10:47:35Z</time>
 <fix>none</fix>
 <sat>0</sat>
</trkpt>
<trkpt lat="31.733411667" lon="34.992528333">
<time>2013-04-01T10:47:37Z</time>
 <fix>none</fix>
 <sat>0</sat>
</trkpt>
<trkpt lat="31.733375000" lon="34.992446667">
<time>2013-04-01T10:47:39Z</time>
 <fix>none</fix>
 <sat>0</sat>
</trkpt>
<trkpt lat="31.733356667" lon="34.992356667">
<time>2013-04-01T10:47:41Z</time>
 <fix>none</fix>
 <sat>0</sat>
</trkpt>
<trkpt lat="31.733348333" lon="34.992260000">
<time>2013-04-01T10:47:43Z</time>
 <fix>none</fix>
 <sat>0</sat>
</trkpt>
<trkpt lat="31.733340000" lon="34.992156667">
<time>2013-04-01T10:47:45Z</time>
 <fix>none</fix>
 <sat>0</sat>
</trkpt>
<trkpt lat="31.733358333" lon="34.992053333">
<time>2013-04-01T10:47:47Z</time>
 <fix>none</fix>
 <sat>0</sat>
</trkpt>
<trkpt lat="31.733378333" lon="34.991950000">
<time>2013-04-01T10:47:49Z</time>
 <fix>none</fix>
 <sat>0</sat>
</trkpt>
<trkpt lat="31.733416667" lon="34.991790000">
<time>2013-04-01T10:47:51Z</time>
 <fix>none</fix>
 <sat>0</sat>
</trkpt>
<trkpt lat="31.733460000" lon="34.991691667">
<time>2013-04-01T10:47:53Z</time>
 <fix>none</fix>
 <sat>0</sat>
</trkpt>
<trkpt lat="31.733483333" lon="34.991641667">
<time>2013-04-01T10:47:55Z</time>
 <fix>none</fix>
 <sat>0</sat>
</trkpt>
<trkpt lat="31.733530000" lon="34.991533333">
<time>2013-04-01T10:47:57Z</time>
 <fix>none</fix>
 <sat>0</sat>
</trkpt>
<trkpt lat="31.733586667" lon="34.991421667">
<time>2013-04-01T10:47:59Z</time>
 <fix>none</fix>
 <sat>0</sat>
</trkpt>
<trkpt lat="31.733633333" lon="34.991311667">
<time>2013-04-01T10:48:01Z</time>
 <fix>none</fix>
 <sat>0</sat>
</trkpt>
<trkpt lat="31.733673333" lon="34.991198333">
<time>2013-04-01T10:48:03Z</time>
 <fix>none</fix>
 <sat>0</sat>
</trkpt>
<trkpt lat="31.733725000" lon="34.991078333">
<time>2013-04-01T10:48:05Z</time>
 <fix>none</fix>
 <sat>0</sat>
</trkpt>
<trkpt lat="31.733781667" lon="34.990953333">
<time>2013-04-01T10:48:07Z</time>
 <fix>none</fix>
 <sat>0</sat>
</trkpt>
<trkpt lat="31.733840000" lon="34.990825000">
<time>2013-04-01T10:48:09Z</time>
 <fix>none</fix>
 <sat>0</sat>
</trkpt>
<trkpt lat="31.733905000" lon="34.990705000">
<time>2013-04-01T10:48:11Z</time>
 <fix>none</fix>
 <sat>0</sat>
</trkpt>
<trkpt lat="31.733971667" lon="34.990540000">
<time>2013-04-01T10:48:13Z</time>
 <fix>none</fix>
 <sat>0</sat>
</trkpt>
<trkpt lat="31.733996667" lon="34.990440000">
<time>2013-04-01T10:48:15Z</time>
 <fix>none</fix>
 <sat>0</sat>
</trkpt>
<trkpt lat="31.734011667" lon="34.990390000">
<time>2013-04-01T10:48:17Z</time>
 <fix>none</fix>
 <sat>0</sat>
</trkpt>
<trkpt lat="31.734051667" lon="34.990286667">
<time>2013-04-01T10:48:19Z</time>
 <fix>none</fix>
 <sat>0</sat>
</trkpt>
<trkpt lat="31.734095000" lon="34.990176667">
<time>2013-04-01T10:48:21Z</time>
 <fix>none</fix>
 <sat>0</sat>
</trkpt>
<trkpt lat="31.734138333" lon="34.990055000">
<time>2013-04-01T10:48:23Z</time>
 <fix>none</fix>
 <sat>0</sat>
</trkpt>
<trkpt lat="31.734191667" lon="34.989926667">
<time>2013-04-01T10:48:25Z</time>
 <fix>none</fix>
 <sat>0</sat>
</trkpt>
<trkpt lat="31.734255000" lon="34.989798333">
<time>2013-04-01T10:48:27Z</time>
 <fix>none</fix>
 <sat>0</sat>
</trkpt>
<trkpt lat="31.734326667" lon="34.989665000">
<time>2013-04-01T10:48:29Z</time>
 <fix>none</fix>
 <sat>0</sat>
</trkpt>
<trkpt lat="31.734401667" lon="34.989525000">
<time>2013-04-01T10:48:31Z</time>
 <fix>none</fix>
 <sat>0</sat>
</trkpt>
<trkpt lat="31.734473333" lon="34.989376667">
<time>2013-04-01T10:48:33Z</time>
 <fix>none</fix>
 <sat>0</sat>
</trkpt>
<trkpt lat="31.734548333" lon="34.989226667">
<time>2013-04-01T10:48:35Z</time>
 <fix>none</fix>
 <sat>0</sat>
</trkpt>
<trkpt lat="31.734653333" lon="34.989000000">
<time>2013-04-01T10:48:37Z</time>
 <fix>none</fix>
 <sat>0</sat>
</trkpt>
<trkpt lat="31.734721667" lon="34.988853333">
<time>2013-04-01T10:48:39Z</time>
 <fix>none</fix>
 <sat>0</sat>
</trkpt>
<trkpt lat="31.734756667" lon="34.988781667">
<time>2013-04-01T10:48:41Z</time>
 <fix>none</fix>
 <sat>0</sat>
</trkpt>
<trkpt lat="31.734825000" lon="34.988641667">
<time>2013-04-01T10:48:43Z</time>
 <fix>none</fix>
 <sat>0</sat>
</trkpt>
<trkpt lat="31.734888333" lon="34.988505000">
<time>2013-04-01T10:48:45Z</time>
 <fix>none</fix>
 <sat>0</sat>
</trkpt>
<trkpt lat="31.734950000" lon="34.988371667">
<time>2013-04-01T10:48:47Z</time>
 <fix>none</fix>
 <sat>0</sat>
</trkpt>
<trkpt lat="31.735011667" lon="34.988243333">
<time>2013-04-01T10:48:49Z</time>
 <fix>none</fix>
 <sat>0</sat>
</trkpt>
<trkpt lat="31.735071667" lon="34.988115000">
<time>2013-04-01T10:48:51Z</time>
 <fix>none</fix>
 <sat>0</sat>
</trkpt>
<trkpt lat="31.735125000" lon="34.987978333">
<time>2013-04-01T10:48:53Z</time>
 <fix>none</fix>
 <sat>0</sat>
</trkpt>
<trkpt lat="31.735168333" lon="34.987823333">
<time>2013-04-01T10:48:55Z</time>
 <fix>none</fix>
 <sat>0</sat>
</trkpt>
<trkpt lat="31.735198333" lon="34.987656667">
<time>2013-04-01T10:48:57Z</time>
 <fix>none</fix>
 <sat>0</sat>
</trkpt>
<trkpt lat="31.735211667" lon="34.987486667">
<time>2013-04-01T10:48:59Z</time>
 <fix>none</fix>
 <sat>0</sat>
</trkpt>
<trkpt lat="31.735196667" lon="34.987231667">
<time>2013-04-01T10:49:01Z</time>
 <fix>none</fix>
 <sat>0</sat>
</trkpt>
<trkpt lat="31.735191667" lon="34.987146667">
<time>2013-04-01T10:49:03Z</time>
 <fix>none</fix>
 <sat>0</sat>
</trkpt>
<trkpt lat="31.735180000" lon="34.986971667">
<time>2013-04-01T10:49:05Z</time>
 <fix>none</fix>
 <sat>0</sat>
</trkpt>
<trkpt lat="31.735165000" lon="34.986796667">
<time>2013-04-01T10:49:07Z</time>
 <fix>none</fix>
 <sat>0</sat>
</trkpt>
<trkpt lat="31.735151667" lon="34.986623333">
<time>2013-04-01T10:49:09Z</time>
 <fix>none</fix>
 <sat>0</sat>
</trkpt>
<trkpt lat="31.735138333" lon="34.986451667">
<time>2013-04-01T10:49:11Z</time>
 <fix>none</fix>
 <sat>0</sat>
</trkpt>
<trkpt lat="31.735120000" lon="34.986296667">
<time>2013-04-01T10:49:13Z</time>
 <fix>none</fix>
 <sat>0</sat>
</trkpt>
<trkpt lat="31.735108333" lon="34.986141667">
<time>2013-04-01T10:49:15Z</time>
 <fix>none</fix>
 <sat>0</sat>
</trkpt>
<trkpt lat="31.735098333" lon="34.985985000">
<time>2013-04-01T10:49:17Z</time>
 <fix>none</fix>
 <sat>0</sat>
</trkpt>
<trkpt lat="31.735085000" lon="34.985828333">
<time>2013-04-01T10:49:19Z</time>
 <fix>none</fix>
 <sat>0</sat>
</trkpt>
<trkpt lat="31.735068333" lon="34.985675000">
<time>2013-04-01T10:49:21Z</time>
 <fix>none</fix>
 <sat>0</sat>
</trkpt>
<trkpt lat="31.735056667" lon="34.985520000">
<time>2013-04-01T10:49:23Z</time>
 <fix>none</fix>
 <sat>0</sat>
</trkpt>
<trkpt lat="31.735045000" lon="34.985366667">
<time>2013-04-01T10:49:25Z</time>
 <fix>none</fix>
 <sat>0</sat>
</trkpt>
<trkpt lat="31.735035000" lon="34.985211667">
<time>2013-04-01T10:49:27Z</time>
 <fix>none</fix>
 <sat>0</sat>
</trkpt>
<trkpt lat="31.735028333" lon="34.985053333">
<time>2013-04-01T10:49:29Z</time>
 <fix>none</fix>
 <sat>0</sat>
</trkpt>
<trkpt lat="31.735018333" lon="34.984898333">
<time>2013-04-01T10:49:31Z</time>
 <fix>none</fix>
 <sat>0</sat>
</trkpt>
<trkpt lat="31.735006667" lon="34.984743333">
<time>2013-04-01T10:49:33Z</time>
 <fix>none</fix>
 <sat>0</sat>
</trkpt>
<trkpt lat="31.734988333" lon="34.984586667">
<time>2013-04-01T10:49:35Z</time>
 <fix>none</fix>
 <sat>0</sat>
</trkpt>
<trkpt lat="31.734970000" lon="34.984436667">
<time>2013-04-01T10:49:37Z</time>
 <fix>none</fix>
 <sat>0</sat>
</trkpt>
<trkpt lat="31.734951667" lon="34.984291667">
<time>2013-04-01T10:49:39Z</time>
 <fix>none</fix>
 <sat>0</sat>
</trkpt>
<trkpt lat="31.734931667" lon="34.984153333">
<time>2013-04-01T10:49:41Z</time>
 <fix>none</fix>
 <sat>0</sat>
</trkpt>
<trkpt lat="31.734911667" lon="34.984018333">
<time>2013-04-01T10:49:43Z</time>
 <fix>none</fix>
 <sat>0</sat>
</trkpt>
<trkpt lat="31.734885000" lon="34.983818333">
<time>2013-04-01T10:49:45Z</time>
 <fix>none</fix>
 <sat>0</sat>
</trkpt>
<trkpt lat="31.734868333" lon="34.983678333">
<time>2013-04-01T10:49:47Z</time>
 <fix>none</fix>
 <sat>0</sat>
</trkpt>
<trkpt lat="31.734860000" lon="34.983605000">
<time>2013-04-01T10:49:49Z</time>
 <fix>none</fix>
 <sat>0</sat>
</trkpt>
<trkpt lat="31.734845000" lon="34.983455000">
<time>2013-04-01T10:49:51Z</time>
 <fix>none</fix>
 <sat>0</sat>
</trkpt>
<trkpt lat="31.734835000" lon="34.983303333">
<time>2013-04-01T10:49:53Z</time>
 <fix>none</fix>
 <sat>0</sat>
</trkpt>
<trkpt lat="31.734828333" lon="34.983155000">
<time>2013-04-01T10:49:55Z</time>
 <fix>none</fix>
 <sat>0</sat>
</trkpt>
<trkpt lat="31.734821667" lon="34.983008333">
<time>2013-04-01T10:49:57Z</time>
 <fix>none</fix>
 <sat>0</sat>
</trkpt>
<trkpt lat="31.734818333" lon="34.982860000">
<time>2013-04-01T10:49:59Z</time>
 <fix>none</fix>
 <sat>0</sat>
</trkpt>
<trkpt lat="31.734813333" lon="34.982711667">
<time>2013-04-01T10:50:01Z</time>
 <fix>none</fix>
 <sat>0</sat>
</trkpt>
<trkpt lat="31.734806667" lon="34.982563333">
<time>2013-04-01T10:50:03Z</time>
 <fix>none</fix>
 <sat>0</sat>
</trkpt>
<trkpt lat="31.734798333" lon="34.982413333">
<time>2013-04-01T10:50:05Z</time>
 <fix>none</fix>
 <sat>0</sat>
</trkpt>
<trkpt lat="31.734790000" lon="34.982190000">
<time>2013-04-01T10:50:07Z</time>
 <fix>none</fix>
 <sat>0</sat>
</trkpt>
<trkpt lat="31.734786667" lon="34.982041667">
<time>2013-04-01T10:50:09Z</time>
 <fix>none</fix>
 <sat>0</sat>
</trkpt>
<trkpt lat="31.734783333" lon="34.981968333">
<time>2013-04-01T10:50:11Z</time>
 <fix>none</fix>
 <sat>0</sat>
</trkpt>
<trkpt lat="31.734775000" lon="34.981823333">
<time>2013-04-01T10:50:13Z</time>
 <fix>none</fix>
 <sat>0</sat>
</trkpt>
<trkpt lat="31.734765000" lon="34.981680000">
<time>2013-04-01T10:50:15Z</time>
 <fix>none</fix>
 <sat>0</sat>
</trkpt>
<trkpt lat="31.734745000" lon="34.981535000">
<time>2013-04-01T10:50:17Z</time>
 <fix>none</fix>
 <sat>0</sat>
</trkpt>
<trkpt lat="31.734720000" lon="34.981383333">
<time>2013-04-01T10:50:19Z</time>
 <fix>none</fix>
 <sat>0</sat>
</trkpt>
<trkpt lat="31.734683333" lon="34.981233333">
<time>2013-04-01T10:50:21Z</time>
 <fix>none</fix>
 <sat>0</sat>
</trkpt>
<trkpt lat="31.734645000" lon="34.981086667">
<time>2013-04-01T10:50:23Z</time>
 <fix>none</fix>
 <sat>0</sat>
</trkpt>
<trkpt lat="31.734628333" lon="34.980941667">
<time>2013-04-01T10:50:25Z</time>
 <fix>none</fix>
 <sat>0</sat>
</trkpt>
<trkpt lat="31.734615000" lon="34.980803333">
<time>2013-04-01T10:50:27Z</time>
 <fix>none</fix>
 <sat>0</sat>
</trkpt>
<trkpt lat="31.734595000" lon="34.980670000">
<time>2013-04-01T10:50:29Z</time>
 <fix>none</fix>
 <sat>0</sat>
</trkpt>
<trkpt lat="31.734558333" lon="34.980466667">
<time>2013-04-01T10:50:31Z</time>
 <fix>none</fix>
 <sat>0</sat>
</trkpt>
<trkpt lat="31.734546667" lon="34.980328333">
<time>2013-04-01T10:50:33Z</time>
 <fix>none</fix>
 <sat>0</sat>
</trkpt>
<trkpt lat="31.734541667" lon="34.980261667">
<time>2013-04-01T10:50:35Z</time>
 <fix>none</fix>
 <sat>0</sat>
</trkpt>
<trkpt lat="31.734531667" lon="34.980141667">
<time>2013-04-01T10:50:37Z</time>
 <fix>none</fix>
 <sat>0</sat>
</trkpt>
<trkpt lat="31.734533333" lon="34.980018333">
<time>2013-04-01T10:50:39Z</time>
 <fix>none</fix>
 <sat>0</sat>
</trkpt>
<trkpt lat="31.734538333" lon="34.979875000">
<time>2013-04-01T10:50:41Z</time>
 <fix>none</fix>
 <sat>0</sat>
</trkpt>
<trkpt lat="31.734553333" lon="34.979728333">
<time>2013-04-01T10:50:43Z</time>
 <fix>none</fix>
 <sat>0</sat>
</trkpt>
<trkpt lat="31.734556667" lon="34.979588333">
<time>2013-04-01T10:50:45Z</time>
 <fix>none</fix>
 <sat>0</sat>
</trkpt>
<trkpt lat="31.734568333" lon="34.979450000">
<time>2013-04-01T10:50:47Z</time>
 <fix>none</fix>
 <sat>0</sat>
</trkpt>
<trkpt lat="31.734606667" lon="34.979310000">
<time>2013-04-01T10:50:49Z</time>
 <fix>none</fix>
 <sat>0</sat>
</trkpt>
<trkpt lat="31.734651667" lon="34.979176667">
<time>2013-04-01T10:50:51Z</time>
 <fix>none</fix>
 <sat>0</sat>
</trkpt>
<trkpt lat="31.734691667" lon="34.979048333">
<time>2013-04-01T10:50:53Z</time>
 <fix>none</fix>
 <sat>0</sat>
</trkpt>
<trkpt lat="31.734780000" lon="34.978861667">
<time>2013-04-01T10:50:55Z</time>
 <fix>none</fix>
 <sat>0</sat>
</trkpt>
<trkpt lat="31.734811667" lon="34.978795000">
<time>2013-04-01T10:50:57Z</time>
 <fix>none</fix>
 <sat>0</sat>
</trkpt>
<trkpt lat="31.734868333" lon="34.978661667">
<time>2013-04-01T10:50:59Z</time>
 <fix>none</fix>
 <sat>0</sat>
</trkpt>
<trkpt lat="31.734920000" lon="34.978526667">
<time>2013-04-01T10:51:01Z</time>
 <fix>none</fix>
 <sat>0</sat>
</trkpt>
<trkpt lat="31.734981667" lon="34.978391667">
<time>2013-04-01T10:51:03Z</time>
 <fix>none</fix>
 <sat>0</sat>
</trkpt>
<trkpt lat="31.735065000" lon="34.978266667">
<time>2013-04-01T10:51:05Z</time>
 <fix>none</fix>
 <sat>0</sat>
</trkpt>
<trkpt lat="31.735150000" lon="34.978143333">
<time>2013-04-01T10:51:07Z</time>
 <fix>none</fix>
 <sat>0</sat>
</trkpt>
<trkpt lat="31.735220000" lon="34.978010000">
<time>2013-04-01T10:51:09Z</time>
 <fix>none</fix>
 <sat>0</sat>
</trkpt>
<trkpt lat="31.735265000" lon="34.977873333">
<time>2013-04-01T10:51:11Z</time>
 <fix>none</fix>
 <sat>0</sat>
</trkpt>
<trkpt lat="31.735281667" lon="34.977728333">
<time>2013-04-01T10:51:13Z</time>
 <fix>none</fix>
 <sat>0</sat>
</trkpt>
<trkpt lat="31.735266667" lon="34.977583333">
<time>2013-04-01T10:51:15Z</time>
 <fix>none</fix>
 <sat>0</sat>
</trkpt>
<trkpt lat="31.735255000" lon="34.977365000">
<time>2013-04-01T10:51:17Z</time>
 <fix>none</fix>
 <sat>0</sat>
</trkpt>
<trkpt lat="31.735255000" lon="34.977291667">
<time>2013-04-01T10:51:19Z</time>
 <fix>none</fix>
 <sat>0</sat>
</trkpt>
<trkpt lat="31.735256667" lon="34.977145000">
<time>2013-04-01T10:51:21Z</time>
 <fix>none</fix>
 <sat>0</sat>
</trkpt>
<trkpt lat="31.735288333" lon="34.977011667">
<time>2013-04-01T10:51:23Z</time>
 <fix>none</fix>
 <sat>0</sat>
</trkpt>
<trkpt lat="31.735343333" lon="34.976880000">
<time>2013-04-01T10:51:25Z</time>
 <fix>none</fix>
 <sat>0</sat>
</trkpt>
<trkpt lat="31.735401667" lon="34.976755000">
<time>2013-04-01T10:51:27Z</time>
 <fix>none</fix>
 <sat>0</sat>
</trkpt>
<trkpt lat="31.735473333" lon="34.976643333">
<time>2013-04-01T10:51:29Z</time>
 <fix>none</fix>
 <sat>0</sat>
</trkpt>
<trkpt lat="31.735541667" lon="34.976528333">
<time>2013-04-01T10:51:31Z</time>
 <fix>none</fix>
 <sat>0</sat>
</trkpt>
<trkpt lat="31.735605000" lon="34.976403333">
<time>2013-04-01T10:51:33Z</time>
 <fix>none</fix>
 <sat>0</sat>
</trkpt>
<trkpt lat="31.735655000" lon="34.976263333">
<time>2013-04-01T10:51:35Z</time>
 <fix>none</fix>
 <sat>0</sat>
</trkpt>
<trkpt lat="31.735698333" lon="34.976116667">
<time>2013-04-01T10:51:37Z</time>
 <fix>none</fix>
 <sat>0</sat>
</trkpt>
<trkpt lat="31.735783333" lon="34.975916667">
<time>2013-04-01T10:51:39Z</time>
 <fix>none</fix>
 <sat>0</sat>
</trkpt>
<trkpt lat="31.735855000" lon="34.975803333">
<time>2013-04-01T10:51:41Z</time>
 <fix>none</fix>
 <sat>0</sat>
</trkpt>
<trkpt lat="31.735891667" lon="34.975751667">
<time>2013-04-01T10:51:43Z</time>
 <fix>none</fix>
 <sat>0</sat>
</trkpt>
<trkpt lat="31.735971667" lon="34.975655000">
<time>2013-04-01T10:51:45Z</time>
 <fix>none</fix>
 <sat>0</sat>
</trkpt>
<trkpt lat="31.736056667" lon="34.975563333">
<time>2013-04-01T10:51:47Z</time>
 <fix>none</fix>
 <sat>0</sat>
</trkpt>
<trkpt lat="31.736138333" lon="34.975460000">
<time>2013-04-01T10:51:49Z</time>
 <fix>none</fix>
 <sat>0</sat>
</trkpt>
<trkpt lat="31.736215000" lon="34.975350000">
<time>2013-04-01T10:51:51Z</time>
 <fix>none</fix>
 <sat>0</sat>
</trkpt>
<trkpt lat="31.736288333" lon="34.975235000">
<time>2013-04-01T10:51:53Z</time>
 <fix>none</fix>
 <sat>0</sat>
</trkpt>
<trkpt lat="31.736358333" lon="34.975120000">
<time>2013-04-01T10:51:55Z</time>
 <fix>none</fix>
 <sat>0</sat>
</trkpt>
<trkpt lat="31.736433333" lon="34.975006667">
<time>2013-04-01T10:51:57Z</time>
 <fix>none</fix>
 <sat>0</sat>
</trkpt>
<trkpt lat="31.736513333" lon="34.974901667">
<time>2013-04-01T10:51:59Z</time>
 <fix>none</fix>
 <sat>0</sat>
</trkpt>
<trkpt lat="31.736650000" lon="34.974780000">
<time>2013-04-01T10:52:01Z</time>
 <fix>none</fix>
 <sat>0</sat>
</trkpt>
<trkpt lat="31.736746667" lon="34.974716667">
<time>2013-04-01T10:52:03Z</time>
 <fix>none</fix>
 <sat>0</sat>
</trkpt>
<trkpt lat="31.736793333" lon="34.974683333">
<time>2013-04-01T10:52:05Z</time>
 <fix>none</fix>
 <sat>0</sat>
</trkpt>
<trkpt lat="31.736880000" lon="34.974605000">
<time>2013-04-01T10:52:07Z</time>
 <fix>none</fix>
 <sat>0</sat>
</trkpt>
<trkpt lat="31.736955000" lon="34.974526667">
<time>2013-04-01T10:52:09Z</time>
 <fix>none</fix>
 <sat>0</sat>
</trkpt>
<trkpt lat="31.737026667" lon="34.974455000">
<time>2013-04-01T10:52:11Z</time>
 <fix>none</fix>
 <sat>0</sat>
</trkpt>
<trkpt lat="31.737090000" lon="34.974370000">
<time>2013-04-01T10:52:13Z</time>
 <fix>none</fix>
 <sat>0</sat>
</trkpt>
<trkpt lat="31.737150000" lon="34.974286667">
<time>2013-04-01T10:52:15Z</time>
 <fix>none</fix>
 <sat>0</sat>
</trkpt>
<trkpt lat="31.737216667" lon="34.974206667">
<time>2013-04-01T10:52:17Z</time>
 <fix>none</fix>
 <sat>0</sat>
</trkpt>
<trkpt lat="31.737286667" lon="34.974120000">
<time>2013-04-01T10:52:19Z</time>
 <fix>none</fix>
 <sat>0</sat>
</trkpt>
<trkpt lat="31.737356667" lon="34.974021667">
<time>2013-04-01T10:52:21Z</time>
 <fix>none</fix>
 <sat>0</sat>
</trkpt>
<trkpt lat="31.737445000" lon="34.973853333">
<time>2013-04-01T10:52:23Z</time>
 <fix>none</fix>
 <sat>0</sat>
</trkpt>
<trkpt lat="31.737510000" lon="34.973738333">
<time>2013-04-01T10:52:25Z</time>
 <fix>none</fix>
 <sat>0</sat>
</trkpt>
<trkpt lat="31.737595000" lon="34.973631667">
<time>2013-04-01T10:52:27Z</time>
 <fix>none</fix>
 <sat>0</sat>
</trkpt>
<trkpt lat="31.737643333" lon="34.973581667">
<time>2013-04-01T10:52:29Z</time>
 <fix>none</fix>
 <sat>0</sat>
</trkpt>
<trkpt lat="31.737751667" lon="34.973500000">
<time>2013-04-01T10:52:31Z</time>
 <fix>none</fix>
 <sat>0</sat>
</trkpt>
<trkpt lat="31.737866667" lon="34.973433333">
<time>2013-04-01T10:52:33Z</time>
 <fix>none</fix>
 <sat>0</sat>
</trkpt>
<trkpt lat="31.737981667" lon="34.973395000">
<time>2013-04-01T10:52:35Z</time>
 <fix>none</fix>
 <sat>0</sat>
</trkpt>
<trkpt lat="31.738095000" lon="34.973366667">
<time>2013-04-01T10:52:37Z</time>
 <fix>none</fix>
 <sat>0</sat>
</trkpt>
<trkpt lat="31.738213333" lon="34.973316667">
<time>2013-04-01T10:52:39Z</time>
 <fix>none</fix>
 <sat>0</sat>
</trkpt>
<trkpt lat="31.738341667" lon="34.973256667">
<time>2013-04-01T10:52:41Z</time>
 <fix>none</fix>
 <sat>0</sat>
</trkpt>
<trkpt lat="31.738468333" lon="34.973178333">
<time>2013-04-01T10:52:43Z</time>
 <fix>none</fix>
 <sat>0</sat>
</trkpt>
<trkpt lat="31.738590000" lon="34.973095000">
<time>2013-04-01T10:52:45Z</time>
 <fix>none</fix>
 <sat>0</sat>
</trkpt>
<trkpt lat="31.738711667" lon="34.973058333">
<time>2013-04-01T10:52:47Z</time>
 <fix>none</fix>
 <sat>0</sat>
</trkpt>
<trkpt lat="31.738880000" lon="34.973063333">
<time>2013-04-01T10:52:49Z</time>
 <fix>none</fix>
 <sat>0</sat>
</trkpt>
<trkpt lat="31.738935000" lon="34.973075000">
<time>2013-04-01T10:52:51Z</time>
 <fix>none</fix>
 <sat>0</sat>
</trkpt>
<trkpt lat="31.739050000" lon="34.973096667">
<time>2013-04-01T10:52:53Z</time>
 <fix>none</fix>
 <sat>0</sat>
</trkpt>
<trkpt lat="31.739173333" lon="34.973111667">
<time>2013-04-01T10:52:55Z</time>
 <fix>none</fix>
 <sat>0</sat>
</trkpt>
<trkpt lat="31.739296667" lon="34.973111667">
<time>2013-04-01T10:52:57Z</time>
 <fix>none</fix>
 <sat>0</sat>
</trkpt>
<trkpt lat="31.739421667" lon="34.973115000">
<time>2013-04-01T10:52:59Z</time>
 <fix>none</fix>
 <sat>0</sat>
</trkpt>
<trkpt lat="31.739541667" lon="34.973118333">
<time>2013-04-01T10:53:01Z</time>
 <fix>none</fix>
 <sat>0</sat>
</trkpt>
<trkpt lat="31.739665000" lon="34.973133333">
<time>2013-04-01T10:53:03Z</time>
 <fix>none</fix>
 <sat>0</sat>
</trkpt>
<trkpt lat="31.739783333" lon="34.973160000">
<time>2013-04-01T10:53:05Z</time>
 <fix>none</fix>
 <sat>0</sat>
</trkpt>
<trkpt lat="31.739891667" lon="34.973176667">
<time>2013-04-01T10:53:07Z</time>
 <fix>none</fix>
 <sat>0</sat>
</trkpt>
<trkpt lat="31.739975000" lon="34.973188333">
<time>2013-04-01T10:53:09Z</time>
 <fix>none</fix>
 <sat>0</sat>
</trkpt>
<trkpt lat="31.740025000" lon="34.973193333">
<time>2013-04-01T10:53:11Z</time>
 <fix>none</fix>
 <sat>0</sat>
</trkpt>
</trkseg>
</trk>
</gpx>